<?xml version="1.0" encoding="UTF-8" standalone="no" ?>
<gpx xmlns="http://www.topografix.com/GPX/1/1" xmlns:xsi="http://www.w3.org/2001/XMLSchema-instance" xsi:schemaLocation="http://www.topografix.com/GPX/1/1 http://www.topografix.com/GPX/1/1/gpx.xsd" version="1.1" creator="VisuGPX - https://www.visugpx.com">
  <metadata>
    <name>Les Courrières</name>
    <desc><![CDATA[Sortie préparation X-Trail Corrèze-Dordogne (suite)]]></desc>
  </metadata>
  <trk>
    <name><![CDATA[Les Courrières_1]]></name>
    <trkseg>
      <trkpt lat="45.82618" lon="1.25579">
        <ele>245</ele>
        <time>2020-09-19T09:44:14.000Z</time>
      </trkpt>
      <trkpt lat="45.82618" lon="1.25579">
        <ele>245</ele>
        <time>2020-09-19T09:44:15.000Z</time>
      </trkpt>
      <trkpt lat="45.82617" lon="1.25578">
        <ele>245</ele>
        <time>2020-09-19T09:44:16.000Z</time>
      </trkpt>
      <trkpt lat="45.82616" lon="1.25576">
        <ele>245</ele>
        <time>2020-09-19T09:44:17.000Z</time>
      </trkpt>
      <trkpt lat="45.82614" lon="1.25575">
        <ele>243</ele>
        <time>2020-09-19T09:44:18.000Z</time>
      </trkpt>
      <trkpt lat="45.82613" lon="1.25572">
        <ele>243</ele>
        <time>2020-09-19T09:44:19.000Z</time>
      </trkpt>
      <trkpt lat="45.82612" lon="1.25569">
        <ele>242</ele>
        <time>2020-09-19T09:44:20.000Z</time>
      </trkpt>
      <trkpt lat="45.8261" lon="1.25567">
        <ele>241</ele>
        <time>2020-09-19T09:44:21.000Z</time>
      </trkpt>
      <trkpt lat="45.82609" lon="1.25564">
        <ele>240</ele>
        <time>2020-09-19T09:44:22.000Z</time>
      </trkpt>
      <trkpt lat="45.82608" lon="1.25561">
        <ele>240</ele>
        <time>2020-09-19T09:44:23.000Z</time>
      </trkpt>
      <trkpt lat="45.82607" lon="1.25557">
        <ele>239</ele>
        <time>2020-09-19T09:44:24.000Z</time>
      </trkpt>
      <trkpt lat="45.82606" lon="1.25553">
        <ele>238</ele>
        <time>2020-09-19T09:44:25.000Z</time>
      </trkpt>
      <trkpt lat="45.82604" lon="1.2555">
        <ele>237</ele>
        <time>2020-09-19T09:44:26.000Z</time>
      </trkpt>
      <trkpt lat="45.82603" lon="1.25546">
        <ele>236</ele>
        <time>2020-09-19T09:44:27.000Z</time>
      </trkpt>
      <trkpt lat="45.82601" lon="1.25543">
        <ele>235</ele>
        <time>2020-09-19T09:44:28.000Z</time>
      </trkpt>
      <trkpt lat="45.826" lon="1.25539">
        <ele>234</ele>
        <time>2020-09-19T09:44:29.000Z</time>
      </trkpt>
      <trkpt lat="45.82599" lon="1.25536">
        <ele>233</ele>
        <time>2020-09-19T09:44:30.000Z</time>
      </trkpt>
      <trkpt lat="45.82598" lon="1.25533">
        <ele>233</ele>
        <time>2020-09-19T09:44:31.000Z</time>
      </trkpt>
      <trkpt lat="45.82597" lon="1.25529">
        <ele>233</ele>
        <time>2020-09-19T09:44:32.000Z</time>
      </trkpt>
      <trkpt lat="45.82596" lon="1.25526">
        <ele>232</ele>
        <time>2020-09-19T09:44:33.000Z</time>
      </trkpt>
      <trkpt lat="45.82595" lon="1.25523">
        <ele>232</ele>
        <time>2020-09-19T09:44:34.000Z</time>
      </trkpt>
      <trkpt lat="45.82594" lon="1.25519">
        <ele>233</ele>
        <time>2020-09-19T09:44:35.000Z</time>
      </trkpt>
      <trkpt lat="45.82592" lon="1.25515">
        <ele>232</ele>
        <time>2020-09-19T09:44:36.000Z</time>
      </trkpt>
      <trkpt lat="45.82591" lon="1.25512">
        <ele>231</ele>
        <time>2020-09-19T09:44:37.000Z</time>
      </trkpt>
      <trkpt lat="45.82589" lon="1.25508">
        <ele>230</ele>
        <time>2020-09-19T09:44:38.000Z</time>
      </trkpt>
      <trkpt lat="45.82589" lon="1.25504">
        <ele>229</ele>
        <time>2020-09-19T09:44:39.000Z</time>
      </trkpt>
      <trkpt lat="45.8259" lon="1.255">
        <ele>230</ele>
        <time>2020-09-19T09:44:40.000Z</time>
      </trkpt>
      <trkpt lat="45.82593" lon="1.25496">
        <ele>233</ele>
        <time>2020-09-19T09:44:41.000Z</time>
      </trkpt>
      <trkpt lat="45.82597" lon="1.25492">
        <ele>234</ele>
        <time>2020-09-19T09:44:42.000Z</time>
      </trkpt>
      <trkpt lat="45.82601" lon="1.25488">
        <ele>236</ele>
        <time>2020-09-19T09:44:43.000Z</time>
      </trkpt>
      <trkpt lat="45.82603" lon="1.25484">
        <ele>236</ele>
        <time>2020-09-19T09:44:44.000Z</time>
      </trkpt>
      <trkpt lat="45.82604" lon="1.2548">
        <ele>236</ele>
        <time>2020-09-19T09:44:45.000Z</time>
      </trkpt>
      <trkpt lat="45.82604" lon="1.25475">
        <ele>236</ele>
        <time>2020-09-19T09:44:46.000Z</time>
      </trkpt>
      <trkpt lat="45.82605" lon="1.2547">
        <ele>236</ele>
        <time>2020-09-19T09:44:47.000Z</time>
      </trkpt>
      <trkpt lat="45.82606" lon="1.25466">
        <ele>237</ele>
        <time>2020-09-19T09:44:48.000Z</time>
      </trkpt>
      <trkpt lat="45.82606" lon="1.25462">
        <ele>237</ele>
        <time>2020-09-19T09:44:49.000Z</time>
      </trkpt>
      <trkpt lat="45.82606" lon="1.25459">
        <ele>236</ele>
        <time>2020-09-19T09:44:50.000Z</time>
      </trkpt>
      <trkpt lat="45.82606" lon="1.25455">
        <ele>236</ele>
        <time>2020-09-19T09:44:51.000Z</time>
      </trkpt>
      <trkpt lat="45.82607" lon="1.25451">
        <ele>235</ele>
        <time>2020-09-19T09:44:52.000Z</time>
      </trkpt>
      <trkpt lat="45.82607" lon="1.25448">
        <ele>236</ele>
        <time>2020-09-19T09:44:53.000Z</time>
      </trkpt>
      <trkpt lat="45.82607" lon="1.25444">
        <ele>236</ele>
        <time>2020-09-19T09:44:54.000Z</time>
      </trkpt>
      <trkpt lat="45.82607" lon="1.2544">
        <ele>237</ele>
        <time>2020-09-19T09:44:55.000Z</time>
      </trkpt>
      <trkpt lat="45.82608" lon="1.25435">
        <ele>238</ele>
        <time>2020-09-19T09:44:56.000Z</time>
      </trkpt>
      <trkpt lat="45.82607" lon="1.25431">
        <ele>238</ele>
        <time>2020-09-19T09:44:57.000Z</time>
      </trkpt>
      <trkpt lat="45.82607" lon="1.25426">
        <ele>238</ele>
        <time>2020-09-19T09:44:58.000Z</time>
      </trkpt>
      <trkpt lat="45.82607" lon="1.25422">
        <ele>238</ele>
        <time>2020-09-19T09:44:59.000Z</time>
      </trkpt>
      <trkpt lat="45.82606" lon="1.25417">
        <ele>238</ele>
        <time>2020-09-19T09:45:00.000Z</time>
      </trkpt>
      <trkpt lat="45.82606" lon="1.25413">
        <ele>237</ele>
        <time>2020-09-19T09:45:01.000Z</time>
      </trkpt>
      <trkpt lat="45.82606" lon="1.25409">
        <ele>237</ele>
        <time>2020-09-19T09:45:02.000Z</time>
      </trkpt>
      <trkpt lat="45.82606" lon="1.25406">
        <ele>237</ele>
        <time>2020-09-19T09:45:03.000Z</time>
      </trkpt>
      <trkpt lat="45.82606" lon="1.25403">
        <ele>238</ele>
        <time>2020-09-19T09:45:04.000Z</time>
      </trkpt>
      <trkpt lat="45.82605" lon="1.25399">
        <ele>237</ele>
        <time>2020-09-19T09:45:05.000Z</time>
      </trkpt>
      <trkpt lat="45.82604" lon="1.25395">
        <ele>237</ele>
        <time>2020-09-19T09:45:06.000Z</time>
      </trkpt>
      <trkpt lat="45.82603" lon="1.2539">
        <ele>236</ele>
        <time>2020-09-19T09:45:07.000Z</time>
      </trkpt>
      <trkpt lat="45.82602" lon="1.25386">
        <ele>235</ele>
        <time>2020-09-19T09:45:08.000Z</time>
      </trkpt>
      <trkpt lat="45.826" lon="1.2538">
        <ele>234</ele>
        <time>2020-09-19T09:45:09.000Z</time>
      </trkpt>
      <trkpt lat="45.82599" lon="1.25376">
        <ele>233</ele>
        <time>2020-09-19T09:45:10.000Z</time>
      </trkpt>
      <trkpt lat="45.82598" lon="1.25372">
        <ele>235</ele>
        <time>2020-09-19T09:45:11.000Z</time>
      </trkpt>
      <trkpt lat="45.82598" lon="1.25368">
        <ele>236</ele>
        <time>2020-09-19T09:45:12.000Z</time>
      </trkpt>
      <trkpt lat="45.82598" lon="1.25364">
        <ele>236</ele>
        <time>2020-09-19T09:45:13.000Z</time>
      </trkpt>
      <trkpt lat="45.82598" lon="1.2536">
        <ele>236</ele>
        <time>2020-09-19T09:45:14.000Z</time>
      </trkpt>
      <trkpt lat="45.82598" lon="1.25355">
        <ele>236</ele>
        <time>2020-09-19T09:45:15.000Z</time>
      </trkpt>
      <trkpt lat="45.82597" lon="1.25351">
        <ele>237</ele>
        <time>2020-09-19T09:45:16.000Z</time>
      </trkpt>
      <trkpt lat="45.82596" lon="1.25347">
        <ele>237</ele>
        <time>2020-09-19T09:45:17.000Z</time>
      </trkpt>
      <trkpt lat="45.82595" lon="1.25344">
        <ele>238</ele>
        <time>2020-09-19T09:45:18.000Z</time>
      </trkpt>
      <trkpt lat="45.82594" lon="1.25341">
        <ele>240</ele>
        <time>2020-09-19T09:45:19.000Z</time>
      </trkpt>
      <trkpt lat="45.82593" lon="1.25338">
        <ele>240</ele>
        <time>2020-09-19T09:45:20.000Z</time>
      </trkpt>
      <trkpt lat="45.82591" lon="1.25334">
        <ele>240</ele>
        <time>2020-09-19T09:45:21.000Z</time>
      </trkpt>
      <trkpt lat="45.82589" lon="1.25332">
        <ele>240</ele>
        <time>2020-09-19T09:45:22.000Z</time>
      </trkpt>
      <trkpt lat="45.82588" lon="1.25329">
        <ele>241</ele>
        <time>2020-09-19T09:45:23.000Z</time>
      </trkpt>
      <trkpt lat="45.82587" lon="1.25325">
        <ele>241</ele>
        <time>2020-09-19T09:45:24.000Z</time>
      </trkpt>
      <trkpt lat="45.82586" lon="1.25322">
        <ele>242</ele>
        <time>2020-09-19T09:45:25.000Z</time>
      </trkpt>
      <trkpt lat="45.82585" lon="1.25318">
        <ele>242</ele>
        <time>2020-09-19T09:45:26.000Z</time>
      </trkpt>
      <trkpt lat="45.82584" lon="1.25313">
        <ele>241</ele>
        <time>2020-09-19T09:45:27.000Z</time>
      </trkpt>
      <trkpt lat="45.82586" lon="1.25309">
        <ele>244</ele>
        <time>2020-09-19T09:45:28.000Z</time>
      </trkpt>
      <trkpt lat="45.8259" lon="1.25304">
        <ele>245</ele>
        <time>2020-09-19T09:45:29.000Z</time>
      </trkpt>
      <trkpt lat="45.82595" lon="1.25301">
        <ele>246</ele>
        <time>2020-09-19T09:45:30.000Z</time>
      </trkpt>
      <trkpt lat="45.82598" lon="1.25297">
        <ele>246</ele>
        <time>2020-09-19T09:45:31.000Z</time>
      </trkpt>
      <trkpt lat="45.82601" lon="1.25295">
        <ele>246</ele>
        <time>2020-09-19T09:45:32.000Z</time>
      </trkpt>
      <trkpt lat="45.82602" lon="1.25292">
        <ele>246</ele>
        <time>2020-09-19T09:45:33.000Z</time>
      </trkpt>
      <trkpt lat="45.82604" lon="1.25289">
        <ele>246</ele>
        <time>2020-09-19T09:45:34.000Z</time>
      </trkpt>
      <trkpt lat="45.82605" lon="1.25286">
        <ele>247</ele>
        <time>2020-09-19T09:45:35.000Z</time>
      </trkpt>
      <trkpt lat="45.82606" lon="1.25281">
        <ele>246</ele>
        <time>2020-09-19T09:45:36.000Z</time>
      </trkpt>
      <trkpt lat="45.82606" lon="1.25277">
        <ele>246</ele>
        <time>2020-09-19T09:45:37.000Z</time>
      </trkpt>
      <trkpt lat="45.82607" lon="1.25273">
        <ele>246</ele>
        <time>2020-09-19T09:45:38.000Z</time>
      </trkpt>
      <trkpt lat="45.82608" lon="1.2527">
        <ele>246</ele>
        <time>2020-09-19T09:45:39.000Z</time>
      </trkpt>
      <trkpt lat="45.82609" lon="1.25266">
        <ele>247</ele>
        <time>2020-09-19T09:45:40.000Z</time>
      </trkpt>
      <trkpt lat="45.82612" lon="1.25263">
        <ele>248</ele>
        <time>2020-09-19T09:45:41.000Z</time>
      </trkpt>
      <trkpt lat="45.82614" lon="1.25259">
        <ele>248</ele>
        <time>2020-09-19T09:45:42.000Z</time>
      </trkpt>
      <trkpt lat="45.82617" lon="1.25256">
        <ele>248</ele>
        <time>2020-09-19T09:45:43.000Z</time>
      </trkpt>
      <trkpt lat="45.8262" lon="1.25252">
        <ele>249</ele>
        <time>2020-09-19T09:45:44.000Z</time>
      </trkpt>
      <trkpt lat="45.82622" lon="1.25249">
        <ele>249</ele>
        <time>2020-09-19T09:45:45.000Z</time>
      </trkpt>
      <trkpt lat="45.82624" lon="1.25245">
        <ele>250</ele>
        <time>2020-09-19T09:45:46.000Z</time>
      </trkpt>
      <trkpt lat="45.82625" lon="1.2524">
        <ele>250</ele>
        <time>2020-09-19T09:45:47.000Z</time>
      </trkpt>
      <trkpt lat="45.82626" lon="1.25236">
        <ele>251</ele>
        <time>2020-09-19T09:45:48.000Z</time>
      </trkpt>
      <trkpt lat="45.82627" lon="1.25232">
        <ele>251</ele>
        <time>2020-09-19T09:45:49.000Z</time>
      </trkpt>
      <trkpt lat="45.82628" lon="1.25229">
        <ele>251</ele>
        <time>2020-09-19T09:45:50.000Z</time>
      </trkpt>
      <trkpt lat="45.8263" lon="1.25225">
        <ele>252</ele>
        <time>2020-09-19T09:45:51.000Z</time>
      </trkpt>
      <trkpt lat="45.82631" lon="1.25221">
        <ele>252</ele>
        <time>2020-09-19T09:45:52.000Z</time>
      </trkpt>
      <trkpt lat="45.82633" lon="1.25217">
        <ele>252</ele>
        <time>2020-09-19T09:45:53.000Z</time>
      </trkpt>
      <trkpt lat="45.82635" lon="1.25214">
        <ele>253</ele>
        <time>2020-09-19T09:45:54.000Z</time>
      </trkpt>
      <trkpt lat="45.82636" lon="1.2521">
        <ele>253</ele>
        <time>2020-09-19T09:45:55.000Z</time>
      </trkpt>
      <trkpt lat="45.82638" lon="1.25206">
        <ele>254</ele>
        <time>2020-09-19T09:45:56.000Z</time>
      </trkpt>
      <trkpt lat="45.8264" lon="1.25203">
        <ele>254</ele>
        <time>2020-09-19T09:45:57.000Z</time>
      </trkpt>
      <trkpt lat="45.82642" lon="1.25199">
        <ele>254</ele>
        <time>2020-09-19T09:45:58.000Z</time>
      </trkpt>
      <trkpt lat="45.82644" lon="1.25195">
        <ele>255</ele>
        <time>2020-09-19T09:45:59.000Z</time>
      </trkpt>
      <trkpt lat="45.82646" lon="1.25192">
        <ele>255</ele>
        <time>2020-09-19T09:46:00.000Z</time>
      </trkpt>
      <trkpt lat="45.82648" lon="1.25189">
        <ele>258</ele>
        <time>2020-09-19T09:46:01.000Z</time>
      </trkpt>
      <trkpt lat="45.82651" lon="1.25186">
        <ele>259</ele>
        <time>2020-09-19T09:46:02.000Z</time>
      </trkpt>
      <trkpt lat="45.82653" lon="1.25183">
        <ele>258</ele>
        <time>2020-09-19T09:46:03.000Z</time>
      </trkpt>
      <trkpt lat="45.82655" lon="1.25181">
        <ele>259</ele>
        <time>2020-09-19T09:46:04.000Z</time>
      </trkpt>
      <trkpt lat="45.82657" lon="1.25179">
        <ele>259</ele>
        <time>2020-09-19T09:46:05.000Z</time>
      </trkpt>
      <trkpt lat="45.82659" lon="1.25176">
        <ele>260</ele>
        <time>2020-09-19T09:46:06.000Z</time>
      </trkpt>
      <trkpt lat="45.82662" lon="1.25174">
        <ele>260</ele>
        <time>2020-09-19T09:46:07.000Z</time>
      </trkpt>
      <trkpt lat="45.82664" lon="1.25173">
        <ele>261</ele>
        <time>2020-09-19T09:46:08.000Z</time>
      </trkpt>
      <trkpt lat="45.82666" lon="1.25172">
        <ele>261</ele>
        <time>2020-09-19T09:46:09.000Z</time>
      </trkpt>
      <trkpt lat="45.82668" lon="1.25172">
        <ele>262</ele>
        <time>2020-09-19T09:46:10.000Z</time>
      </trkpt>
      <trkpt lat="45.82671" lon="1.25172">
        <ele>263</ele>
        <time>2020-09-19T09:46:11.000Z</time>
      </trkpt>
      <trkpt lat="45.82673" lon="1.25172">
        <ele>264</ele>
        <time>2020-09-19T09:46:12.000Z</time>
      </trkpt>
      <trkpt lat="45.82676" lon="1.25172">
        <ele>265</ele>
        <time>2020-09-19T09:46:13.000Z</time>
      </trkpt>
      <trkpt lat="45.82678" lon="1.25172">
        <ele>265</ele>
        <time>2020-09-19T09:46:14.000Z</time>
      </trkpt>
      <trkpt lat="45.82681" lon="1.25172">
        <ele>266</ele>
        <time>2020-09-19T09:46:15.000Z</time>
      </trkpt>
      <trkpt lat="45.82683" lon="1.25172">
        <ele>267</ele>
        <time>2020-09-19T09:46:16.000Z</time>
      </trkpt>
      <trkpt lat="45.82685" lon="1.25171">
        <ele>268</ele>
        <time>2020-09-19T09:46:17.000Z</time>
      </trkpt>
      <trkpt lat="45.82688" lon="1.2517">
        <ele>268</ele>
        <time>2020-09-19T09:46:18.000Z</time>
      </trkpt>
      <trkpt lat="45.8269" lon="1.2517">
        <ele>269</ele>
        <time>2020-09-19T09:46:19.000Z</time>
      </trkpt>
      <trkpt lat="45.82692" lon="1.2517">
        <ele>269</ele>
        <time>2020-09-19T09:46:20.000Z</time>
      </trkpt>
      <trkpt lat="45.82695" lon="1.25169">
        <ele>270</ele>
        <time>2020-09-19T09:46:21.000Z</time>
      </trkpt>
      <trkpt lat="45.82698" lon="1.25168">
        <ele>270</ele>
        <time>2020-09-19T09:46:22.000Z</time>
      </trkpt>
      <trkpt lat="45.827" lon="1.25168">
        <ele>271</ele>
        <time>2020-09-19T09:46:23.000Z</time>
      </trkpt>
      <trkpt lat="45.82703" lon="1.25167">
        <ele>272</ele>
        <time>2020-09-19T09:46:24.000Z</time>
      </trkpt>
      <trkpt lat="45.82705" lon="1.25167">
        <ele>272</ele>
        <time>2020-09-19T09:46:25.000Z</time>
      </trkpt>
      <trkpt lat="45.82708" lon="1.25166">
        <ele>272</ele>
        <time>2020-09-19T09:46:26.000Z</time>
      </trkpt>
      <trkpt lat="45.82711" lon="1.25165">
        <ele>273</ele>
        <time>2020-09-19T09:46:27.000Z</time>
      </trkpt>
      <trkpt lat="45.82714" lon="1.25165">
        <ele>273</ele>
        <time>2020-09-19T09:46:28.000Z</time>
      </trkpt>
      <trkpt lat="45.82716" lon="1.25164">
        <ele>273</ele>
        <time>2020-09-19T09:46:29.000Z</time>
      </trkpt>
      <trkpt lat="45.82718" lon="1.25164">
        <ele>273</ele>
        <time>2020-09-19T09:46:30.000Z</time>
      </trkpt>
      <trkpt lat="45.82721" lon="1.25164">
        <ele>273</ele>
        <time>2020-09-19T09:46:31.000Z</time>
      </trkpt>
      <trkpt lat="45.82723" lon="1.25163">
        <ele>274</ele>
        <time>2020-09-19T09:46:32.000Z</time>
      </trkpt>
      <trkpt lat="45.82726" lon="1.25163">
        <ele>274</ele>
        <time>2020-09-19T09:46:33.000Z</time>
      </trkpt>
      <trkpt lat="45.82728" lon="1.25162">
        <ele>275</ele>
        <time>2020-09-19T09:46:34.000Z</time>
      </trkpt>
      <trkpt lat="45.82729" lon="1.25161">
        <ele>275</ele>
        <time>2020-09-19T09:46:35.000Z</time>
      </trkpt>
      <trkpt lat="45.82732" lon="1.2516">
        <ele>275</ele>
        <time>2020-09-19T09:46:36.000Z</time>
      </trkpt>
      <trkpt lat="45.82734" lon="1.2516">
        <ele>276</ele>
        <time>2020-09-19T09:46:37.000Z</time>
      </trkpt>
      <trkpt lat="45.82737" lon="1.25159">
        <ele>276</ele>
        <time>2020-09-19T09:46:38.000Z</time>
      </trkpt>
      <trkpt lat="45.82739" lon="1.25158">
        <ele>277</ele>
        <time>2020-09-19T09:46:39.000Z</time>
      </trkpt>
      <trkpt lat="45.82741" lon="1.25158">
        <ele>278</ele>
        <time>2020-09-19T09:46:40.000Z</time>
      </trkpt>
      <trkpt lat="45.82743" lon="1.25158">
        <ele>279</ele>
        <time>2020-09-19T09:46:41.000Z</time>
      </trkpt>
      <trkpt lat="45.82745" lon="1.25157">
        <ele>279</ele>
        <time>2020-09-19T09:46:42.000Z</time>
      </trkpt>
      <trkpt lat="45.82747" lon="1.25156">
        <ele>279</ele>
        <time>2020-09-19T09:46:43.000Z</time>
      </trkpt>
      <trkpt lat="45.82749" lon="1.25156">
        <ele>280</ele>
        <time>2020-09-19T09:46:44.000Z</time>
      </trkpt>
      <trkpt lat="45.82752" lon="1.25155">
        <ele>280</ele>
        <time>2020-09-19T09:46:45.000Z</time>
      </trkpt>
      <trkpt lat="45.82752" lon="1.25155">
        <ele>279</ele>
        <time>2020-09-19T09:46:47.000Z</time>
      </trkpt>
      <trkpt lat="45.82752" lon="1.25155">
        <ele>280</ele>
        <time>2020-09-19T09:46:48.000Z</time>
      </trkpt>
      <trkpt lat="45.82752" lon="1.25155">
        <ele>279</ele>
        <time>2020-09-19T09:46:50.000Z</time>
      </trkpt>
      <trkpt lat="45.82752" lon="1.25155">
        <ele>278</ele>
        <time>2020-09-19T09:46:51.000Z</time>
      </trkpt>
      <trkpt lat="45.8276" lon="1.25152">
        <ele>278</ele>
        <time>2020-09-19T09:46:52.000Z</time>
      </trkpt>
      <trkpt lat="45.82768" lon="1.25149">
        <ele>278</ele>
        <time>2020-09-19T09:46:53.000Z</time>
      </trkpt>
      <trkpt lat="45.82775" lon="1.25146">
        <ele>278</ele>
        <time>2020-09-19T09:46:54.000Z</time>
      </trkpt>
      <trkpt lat="45.82777" lon="1.25146">
        <ele>279</ele>
        <time>2020-09-19T09:46:55.000Z</time>
      </trkpt>
      <trkpt lat="45.8278" lon="1.25145">
        <ele>279</ele>
        <time>2020-09-19T09:46:56.000Z</time>
      </trkpt>
      <trkpt lat="45.82782" lon="1.25145">
        <ele>279</ele>
        <time>2020-09-19T09:46:57.000Z</time>
      </trkpt>
      <trkpt lat="45.82785" lon="1.25144">
        <ele>278</ele>
        <time>2020-09-19T09:46:58.000Z</time>
      </trkpt>
      <trkpt lat="45.82787" lon="1.25142">
        <ele>277</ele>
        <time>2020-09-19T09:46:59.000Z</time>
      </trkpt>
      <trkpt lat="45.8279" lon="1.25141">
        <ele>278</ele>
        <time>2020-09-19T09:47:00.000Z</time>
      </trkpt>
      <trkpt lat="45.82793" lon="1.2514">
        <ele>279</ele>
        <time>2020-09-19T09:47:01.000Z</time>
      </trkpt>
      <trkpt lat="45.82796" lon="1.2514">
        <ele>279</ele>
        <time>2020-09-19T09:47:02.000Z</time>
      </trkpt>
      <trkpt lat="45.82799" lon="1.2514">
        <ele>280</ele>
        <time>2020-09-19T09:47:03.000Z</time>
      </trkpt>
      <trkpt lat="45.82802" lon="1.2514">
        <ele>280</ele>
        <time>2020-09-19T09:47:04.000Z</time>
      </trkpt>
      <trkpt lat="45.82805" lon="1.25141">
        <ele>280</ele>
        <time>2020-09-19T09:47:05.000Z</time>
      </trkpt>
      <trkpt lat="45.82807" lon="1.25141">
        <ele>280</ele>
        <time>2020-09-19T09:47:06.000Z</time>
      </trkpt>
      <trkpt lat="45.8281" lon="1.25141">
        <ele>281</ele>
        <time>2020-09-19T09:47:07.000Z</time>
      </trkpt>
      <trkpt lat="45.82813" lon="1.25141">
        <ele>281</ele>
        <time>2020-09-19T09:47:08.000Z</time>
      </trkpt>
      <trkpt lat="45.82816" lon="1.25142">
        <ele>281</ele>
        <time>2020-09-19T09:47:09.000Z</time>
      </trkpt>
      <trkpt lat="45.82819" lon="1.25143">
        <ele>281</ele>
        <time>2020-09-19T09:47:10.000Z</time>
      </trkpt>
      <trkpt lat="45.82819" lon="1.25143">
        <ele>282</ele>
        <time>2020-09-19T09:47:14.000Z</time>
      </trkpt>
      <trkpt lat="45.82819" lon="1.25143">
        <ele>282</ele>
        <time>2020-09-19T09:47:15.000Z</time>
      </trkpt>
      <trkpt lat="45.82828" lon="1.25144">
        <ele>282</ele>
        <time>2020-09-19T09:47:16.000Z</time>
      </trkpt>
      <trkpt lat="45.82836" lon="1.25144">
        <ele>281</ele>
        <time>2020-09-19T09:47:17.000Z</time>
      </trkpt>
      <trkpt lat="45.82845" lon="1.25144">
        <ele>281</ele>
        <time>2020-09-19T09:47:18.000Z</time>
      </trkpt>
      <trkpt lat="45.82848" lon="1.25145">
        <ele>284</ele>
        <time>2020-09-19T09:47:19.000Z</time>
      </trkpt>
      <trkpt lat="45.82851" lon="1.25145">
        <ele>287</ele>
        <time>2020-09-19T09:47:20.000Z</time>
      </trkpt>
      <trkpt lat="45.82853" lon="1.25145">
        <ele>291</ele>
        <time>2020-09-19T09:47:21.000Z</time>
      </trkpt>
      <trkpt lat="45.82854" lon="1.25146">
        <ele>292</ele>
        <time>2020-09-19T09:47:22.000Z</time>
      </trkpt>
      <trkpt lat="45.82857" lon="1.25147">
        <ele>293</ele>
        <time>2020-09-19T09:47:23.000Z</time>
      </trkpt>
      <trkpt lat="45.82859" lon="1.25147">
        <ele>294</ele>
        <time>2020-09-19T09:47:24.000Z</time>
      </trkpt>
      <trkpt lat="45.8286" lon="1.25146">
        <ele>295</ele>
        <time>2020-09-19T09:47:25.000Z</time>
      </trkpt>
      <trkpt lat="45.82861" lon="1.25144">
        <ele>297</ele>
        <time>2020-09-19T09:47:26.000Z</time>
      </trkpt>
      <trkpt lat="45.82863" lon="1.25142">
        <ele>297</ele>
        <time>2020-09-19T09:47:27.000Z</time>
      </trkpt>
      <trkpt lat="45.82866" lon="1.25141">
        <ele>298</ele>
        <time>2020-09-19T09:47:28.000Z</time>
      </trkpt>
      <trkpt lat="45.82868" lon="1.25139">
        <ele>298</ele>
        <time>2020-09-19T09:47:29.000Z</time>
      </trkpt>
      <trkpt lat="45.82871" lon="1.25138">
        <ele>298</ele>
        <time>2020-09-19T09:47:30.000Z</time>
      </trkpt>
      <trkpt lat="45.82874" lon="1.25138">
        <ele>299</ele>
        <time>2020-09-19T09:47:31.000Z</time>
      </trkpt>
      <trkpt lat="45.82877" lon="1.25137">
        <ele>298</ele>
        <time>2020-09-19T09:47:32.000Z</time>
      </trkpt>
      <trkpt lat="45.8288" lon="1.25137">
        <ele>298</ele>
        <time>2020-09-19T09:47:33.000Z</time>
      </trkpt>
      <trkpt lat="45.82883" lon="1.25138">
        <ele>298</ele>
        <time>2020-09-19T09:47:34.000Z</time>
      </trkpt>
      <trkpt lat="45.82885" lon="1.25139">
        <ele>296</ele>
        <time>2020-09-19T09:47:35.000Z</time>
      </trkpt>
      <trkpt lat="45.82887" lon="1.25141">
        <ele>296</ele>
        <time>2020-09-19T09:47:36.000Z</time>
      </trkpt>
      <trkpt lat="45.82889" lon="1.25142">
        <ele>296</ele>
        <time>2020-09-19T09:47:37.000Z</time>
      </trkpt>
      <trkpt lat="45.82892" lon="1.25142">
        <ele>296</ele>
        <time>2020-09-19T09:47:38.000Z</time>
      </trkpt>
      <trkpt lat="45.82895" lon="1.25143">
        <ele>295</ele>
        <time>2020-09-19T09:47:39.000Z</time>
      </trkpt>
      <trkpt lat="45.82898" lon="1.25143">
        <ele>295</ele>
        <time>2020-09-19T09:47:40.000Z</time>
      </trkpt>
      <trkpt lat="45.82899" lon="1.25144">
        <ele>294</ele>
        <time>2020-09-19T09:47:41.000Z</time>
      </trkpt>
      <trkpt lat="45.82901" lon="1.25146">
        <ele>292</ele>
        <time>2020-09-19T09:47:42.000Z</time>
      </trkpt>
      <trkpt lat="45.82904" lon="1.25148">
        <ele>291</ele>
        <time>2020-09-19T09:47:43.000Z</time>
      </trkpt>
      <trkpt lat="45.82908" lon="1.25147">
        <ele>290</ele>
        <time>2020-09-19T09:47:44.000Z</time>
      </trkpt>
      <trkpt lat="45.82912" lon="1.25146">
        <ele>290</ele>
        <time>2020-09-19T09:47:45.000Z</time>
      </trkpt>
      <trkpt lat="45.82916" lon="1.25145">
        <ele>289</ele>
        <time>2020-09-19T09:47:46.000Z</time>
      </trkpt>
      <trkpt lat="45.82919" lon="1.25144">
        <ele>289</ele>
        <time>2020-09-19T09:47:47.000Z</time>
      </trkpt>
      <trkpt lat="45.82922" lon="1.25144">
        <ele>289</ele>
        <time>2020-09-19T09:47:48.000Z</time>
      </trkpt>
      <trkpt lat="45.82925" lon="1.25144">
        <ele>289</ele>
        <time>2020-09-19T09:47:49.000Z</time>
      </trkpt>
      <trkpt lat="45.82928" lon="1.25145">
        <ele>289</ele>
        <time>2020-09-19T09:47:50.000Z</time>
      </trkpt>
      <trkpt lat="45.82931" lon="1.25146">
        <ele>290</ele>
        <time>2020-09-19T09:47:51.000Z</time>
      </trkpt>
      <trkpt lat="45.82934" lon="1.25146">
        <ele>290</ele>
        <time>2020-09-19T09:47:52.000Z</time>
      </trkpt>
      <trkpt lat="45.82937" lon="1.25146">
        <ele>290</ele>
        <time>2020-09-19T09:47:53.000Z</time>
      </trkpt>
      <trkpt lat="45.8294" lon="1.25145">
        <ele>290</ele>
        <time>2020-09-19T09:47:54.000Z</time>
      </trkpt>
      <trkpt lat="45.82943" lon="1.25145">
        <ele>289</ele>
        <time>2020-09-19T09:47:55.000Z</time>
      </trkpt>
      <trkpt lat="45.82946" lon="1.25144">
        <ele>289</ele>
        <time>2020-09-19T09:47:56.000Z</time>
      </trkpt>
      <trkpt lat="45.82949" lon="1.25144">
        <ele>291</ele>
        <time>2020-09-19T09:47:57.000Z</time>
      </trkpt>
      <trkpt lat="45.82952" lon="1.25143">
        <ele>290</ele>
        <time>2020-09-19T09:47:58.000Z</time>
      </trkpt>
      <trkpt lat="45.82954" lon="1.25142">
        <ele>289</ele>
        <time>2020-09-19T09:47:59.000Z</time>
      </trkpt>
      <trkpt lat="45.82957" lon="1.25141">
        <ele>288</ele>
        <time>2020-09-19T09:48:00.000Z</time>
      </trkpt>
      <trkpt lat="45.82961" lon="1.2514">
        <ele>288</ele>
        <time>2020-09-19T09:48:01.000Z</time>
      </trkpt>
      <trkpt lat="45.82964" lon="1.25139">
        <ele>289</ele>
        <time>2020-09-19T09:48:02.000Z</time>
      </trkpt>
      <trkpt lat="45.82967" lon="1.25139">
        <ele>289</ele>
        <time>2020-09-19T09:48:03.000Z</time>
      </trkpt>
      <trkpt lat="45.82971" lon="1.2514">
        <ele>290</ele>
        <time>2020-09-19T09:48:04.000Z</time>
      </trkpt>
      <trkpt lat="45.82974" lon="1.2514">
        <ele>291</ele>
        <time>2020-09-19T09:48:05.000Z</time>
      </trkpt>
      <trkpt lat="45.82977" lon="1.2514">
        <ele>291</ele>
        <time>2020-09-19T09:48:06.000Z</time>
      </trkpt>
      <trkpt lat="45.82979" lon="1.2514">
        <ele>291</ele>
        <time>2020-09-19T09:48:07.000Z</time>
      </trkpt>
      <trkpt lat="45.82982" lon="1.2514">
        <ele>291</ele>
        <time>2020-09-19T09:48:08.000Z</time>
      </trkpt>
      <trkpt lat="45.82984" lon="1.25139">
        <ele>292</ele>
        <time>2020-09-19T09:48:09.000Z</time>
      </trkpt>
      <trkpt lat="45.82986" lon="1.25139">
        <ele>293</ele>
        <time>2020-09-19T09:48:10.000Z</time>
      </trkpt>
      <trkpt lat="45.82988" lon="1.25138">
        <ele>292</ele>
        <time>2020-09-19T09:48:11.000Z</time>
      </trkpt>
      <trkpt lat="45.8299" lon="1.25135">
        <ele>292</ele>
        <time>2020-09-19T09:48:12.000Z</time>
      </trkpt>
      <trkpt lat="45.82991" lon="1.25132">
        <ele>292</ele>
        <time>2020-09-19T09:48:13.000Z</time>
      </trkpt>
      <trkpt lat="45.82993" lon="1.25129">
        <ele>292</ele>
        <time>2020-09-19T09:48:14.000Z</time>
      </trkpt>
      <trkpt lat="45.82994" lon="1.25126">
        <ele>292</ele>
        <time>2020-09-19T09:48:15.000Z</time>
      </trkpt>
      <trkpt lat="45.82995" lon="1.25123">
        <ele>292</ele>
        <time>2020-09-19T09:48:16.000Z</time>
      </trkpt>
      <trkpt lat="45.82996" lon="1.25121">
        <ele>292</ele>
        <time>2020-09-19T09:48:17.000Z</time>
      </trkpt>
      <trkpt lat="45.82997" lon="1.25117">
        <ele>292</ele>
        <time>2020-09-19T09:48:18.000Z</time>
      </trkpt>
      <trkpt lat="45.82998" lon="1.25113">
        <ele>292</ele>
        <time>2020-09-19T09:48:19.000Z</time>
      </trkpt>
      <trkpt lat="45.82998" lon="1.2511">
        <ele>292</ele>
        <time>2020-09-19T09:48:20.000Z</time>
      </trkpt>
      <trkpt lat="45.82999" lon="1.25106">
        <ele>291</ele>
        <time>2020-09-19T09:48:21.000Z</time>
      </trkpt>
      <trkpt lat="45.82998" lon="1.25103">
        <ele>291</ele>
        <time>2020-09-19T09:48:22.000Z</time>
      </trkpt>
      <trkpt lat="45.82998" lon="1.251">
        <ele>291</ele>
        <time>2020-09-19T09:48:23.000Z</time>
      </trkpt>
      <trkpt lat="45.82997" lon="1.25096">
        <ele>291</ele>
        <time>2020-09-19T09:48:24.000Z</time>
      </trkpt>
      <trkpt lat="45.82997" lon="1.25093">
        <ele>291</ele>
        <time>2020-09-19T09:48:25.000Z</time>
      </trkpt>
      <trkpt lat="45.82997" lon="1.25089">
        <ele>291</ele>
        <time>2020-09-19T09:48:26.000Z</time>
      </trkpt>
      <trkpt lat="45.82997" lon="1.25085">
        <ele>290</ele>
        <time>2020-09-19T09:48:27.000Z</time>
      </trkpt>
      <trkpt lat="45.82997" lon="1.25081">
        <ele>290</ele>
        <time>2020-09-19T09:48:28.000Z</time>
      </trkpt>
      <trkpt lat="45.82997" lon="1.25076">
        <ele>290</ele>
        <time>2020-09-19T09:48:29.000Z</time>
      </trkpt>
      <trkpt lat="45.82997" lon="1.25073">
        <ele>289</ele>
        <time>2020-09-19T09:48:30.000Z</time>
      </trkpt>
      <trkpt lat="45.82998" lon="1.25069">
        <ele>288</ele>
        <time>2020-09-19T09:48:31.000Z</time>
      </trkpt>
      <trkpt lat="45.82998" lon="1.25064">
        <ele>288</ele>
        <time>2020-09-19T09:48:32.000Z</time>
      </trkpt>
      <trkpt lat="45.82999" lon="1.2506">
        <ele>287</ele>
        <time>2020-09-19T09:48:33.000Z</time>
      </trkpt>
      <trkpt lat="45.82999" lon="1.25056">
        <ele>287</ele>
        <time>2020-09-19T09:48:34.000Z</time>
      </trkpt>
      <trkpt lat="45.83" lon="1.25052">
        <ele>287</ele>
        <time>2020-09-19T09:48:35.000Z</time>
      </trkpt>
      <trkpt lat="45.83001" lon="1.25048">
        <ele>287</ele>
        <time>2020-09-19T09:48:36.000Z</time>
      </trkpt>
      <trkpt lat="45.83001" lon="1.25044">
        <ele>286</ele>
        <time>2020-09-19T09:48:37.000Z</time>
      </trkpt>
      <trkpt lat="45.83001" lon="1.25041">
        <ele>286</ele>
        <time>2020-09-19T09:48:38.000Z</time>
      </trkpt>
      <trkpt lat="45.83001" lon="1.25037">
        <ele>285</ele>
        <time>2020-09-19T09:48:39.000Z</time>
      </trkpt>
      <trkpt lat="45.83001" lon="1.25033">
        <ele>285</ele>
        <time>2020-09-19T09:48:40.000Z</time>
      </trkpt>
      <trkpt lat="45.83001" lon="1.25029">
        <ele>285</ele>
        <time>2020-09-19T09:48:41.000Z</time>
      </trkpt>
      <trkpt lat="45.83001" lon="1.25024">
        <ele>284</ele>
        <time>2020-09-19T09:48:42.000Z</time>
      </trkpt>
      <trkpt lat="45.83001" lon="1.25019">
        <ele>284</ele>
        <time>2020-09-19T09:48:43.000Z</time>
      </trkpt>
      <trkpt lat="45.83001" lon="1.25013">
        <ele>284</ele>
        <time>2020-09-19T09:48:44.000Z</time>
      </trkpt>
      <trkpt lat="45.83001" lon="1.25008">
        <ele>284</ele>
        <time>2020-09-19T09:48:45.000Z</time>
      </trkpt>
      <trkpt lat="45.83001" lon="1.25003">
        <ele>284</ele>
        <time>2020-09-19T09:48:46.000Z</time>
      </trkpt>
      <trkpt lat="45.83001" lon="1.24999">
        <ele>283</ele>
        <time>2020-09-19T09:48:47.000Z</time>
      </trkpt>
      <trkpt lat="45.83" lon="1.24995">
        <ele>283</ele>
        <time>2020-09-19T09:48:48.000Z</time>
      </trkpt>
      <trkpt lat="45.83" lon="1.24991">
        <ele>283</ele>
        <time>2020-09-19T09:48:49.000Z</time>
      </trkpt>
      <trkpt lat="45.83" lon="1.24987">
        <ele>282</ele>
        <time>2020-09-19T09:48:50.000Z</time>
      </trkpt>
      <trkpt lat="45.82999" lon="1.24983">
        <ele>282</ele>
        <time>2020-09-19T09:48:51.000Z</time>
      </trkpt>
      <trkpt lat="45.82999" lon="1.24979">
        <ele>282</ele>
        <time>2020-09-19T09:48:52.000Z</time>
      </trkpt>
      <trkpt lat="45.82998" lon="1.24975">
        <ele>282</ele>
        <time>2020-09-19T09:48:53.000Z</time>
      </trkpt>
      <trkpt lat="45.82998" lon="1.24971">
        <ele>282</ele>
        <time>2020-09-19T09:48:54.000Z</time>
      </trkpt>
      <trkpt lat="45.82998" lon="1.24967">
        <ele>281</ele>
        <time>2020-09-19T09:48:55.000Z</time>
      </trkpt>
      <trkpt lat="45.82999" lon="1.24963">
        <ele>280</ele>
        <time>2020-09-19T09:48:56.000Z</time>
      </trkpt>
      <trkpt lat="45.83" lon="1.24958">
        <ele>281</ele>
        <time>2020-09-19T09:48:57.000Z</time>
      </trkpt>
      <trkpt lat="45.83" lon="1.24954">
        <ele>278</ele>
        <time>2020-09-19T09:48:58.000Z</time>
      </trkpt>
      <trkpt lat="45.83" lon="1.24951">
        <ele>277</ele>
        <time>2020-09-19T09:48:59.000Z</time>
      </trkpt>
      <trkpt lat="45.83" lon="1.24948">
        <ele>276</ele>
        <time>2020-09-19T09:49:00.000Z</time>
      </trkpt>
      <trkpt lat="45.83001" lon="1.24944">
        <ele>275</ele>
        <time>2020-09-19T09:49:01.000Z</time>
      </trkpt>
      <trkpt lat="45.83002" lon="1.2494">
        <ele>275</ele>
        <time>2020-09-19T09:49:02.000Z</time>
      </trkpt>
      <trkpt lat="45.83002" lon="1.24937">
        <ele>274</ele>
        <time>2020-09-19T09:49:03.000Z</time>
      </trkpt>
      <trkpt lat="45.83002" lon="1.24933">
        <ele>274</ele>
        <time>2020-09-19T09:49:04.000Z</time>
      </trkpt>
      <trkpt lat="45.83001" lon="1.24928">
        <ele>274</ele>
        <time>2020-09-19T09:49:05.000Z</time>
      </trkpt>
      <trkpt lat="45.83001" lon="1.24924">
        <ele>274</ele>
        <time>2020-09-19T09:49:06.000Z</time>
      </trkpt>
      <trkpt lat="45.83001" lon="1.2492">
        <ele>273</ele>
        <time>2020-09-19T09:49:07.000Z</time>
      </trkpt>
      <trkpt lat="45.83001" lon="1.24915">
        <ele>273</ele>
        <time>2020-09-19T09:49:08.000Z</time>
      </trkpt>
      <trkpt lat="45.83001" lon="1.2491">
        <ele>273</ele>
        <time>2020-09-19T09:49:09.000Z</time>
      </trkpt>
      <trkpt lat="45.83001" lon="1.24906">
        <ele>272</ele>
        <time>2020-09-19T09:49:10.000Z</time>
      </trkpt>
      <trkpt lat="45.83001" lon="1.24901">
        <ele>273</ele>
        <time>2020-09-19T09:49:11.000Z</time>
      </trkpt>
      <trkpt lat="45.83001" lon="1.24897">
        <ele>272</ele>
        <time>2020-09-19T09:49:12.000Z</time>
      </trkpt>
      <trkpt lat="45.83001" lon="1.24892">
        <ele>272</ele>
        <time>2020-09-19T09:49:13.000Z</time>
      </trkpt>
      <trkpt lat="45.83002" lon="1.24888">
        <ele>272</ele>
        <time>2020-09-19T09:49:14.000Z</time>
      </trkpt>
      <trkpt lat="45.83002" lon="1.24884">
        <ele>271</ele>
        <time>2020-09-19T09:49:15.000Z</time>
      </trkpt>
      <trkpt lat="45.83003" lon="1.2488">
        <ele>269</ele>
        <time>2020-09-19T09:49:16.000Z</time>
      </trkpt>
      <trkpt lat="45.83003" lon="1.24876">
        <ele>269</ele>
        <time>2020-09-19T09:49:17.000Z</time>
      </trkpt>
      <trkpt lat="45.83003" lon="1.24872">
        <ele>270</ele>
        <time>2020-09-19T09:49:18.000Z</time>
      </trkpt>
      <trkpt lat="45.83003" lon="1.24869">
        <ele>272</ele>
        <time>2020-09-19T09:49:19.000Z</time>
      </trkpt>
      <trkpt lat="45.83003" lon="1.24864">
        <ele>272</ele>
        <time>2020-09-19T09:49:20.000Z</time>
      </trkpt>
      <trkpt lat="45.83003" lon="1.2486">
        <ele>271</ele>
        <time>2020-09-19T09:49:21.000Z</time>
      </trkpt>
      <trkpt lat="45.83003" lon="1.24856">
        <ele>271</ele>
        <time>2020-09-19T09:49:22.000Z</time>
      </trkpt>
      <trkpt lat="45.83003" lon="1.24852">
        <ele>272</ele>
        <time>2020-09-19T09:49:23.000Z</time>
      </trkpt>
      <trkpt lat="45.83003" lon="1.24847">
        <ele>272</ele>
        <time>2020-09-19T09:49:24.000Z</time>
      </trkpt>
      <trkpt lat="45.83003" lon="1.24843">
        <ele>271</ele>
        <time>2020-09-19T09:49:25.000Z</time>
      </trkpt>
      <trkpt lat="45.83003" lon="1.24839">
        <ele>271</ele>
        <time>2020-09-19T09:49:26.000Z</time>
      </trkpt>
      <trkpt lat="45.83002" lon="1.24835">
        <ele>271</ele>
        <time>2020-09-19T09:49:27.000Z</time>
      </trkpt>
      <trkpt lat="45.83001" lon="1.2483">
        <ele>271</ele>
        <time>2020-09-19T09:49:28.000Z</time>
      </trkpt>
      <trkpt lat="45.83001" lon="1.24826">
        <ele>270</ele>
        <time>2020-09-19T09:49:29.000Z</time>
      </trkpt>
      <trkpt lat="45.83" lon="1.24821">
        <ele>270</ele>
        <time>2020-09-19T09:49:30.000Z</time>
      </trkpt>
      <trkpt lat="45.82999" lon="1.24816">
        <ele>269</ele>
        <time>2020-09-19T09:49:31.000Z</time>
      </trkpt>
      <trkpt lat="45.82999" lon="1.24812">
        <ele>267</ele>
        <time>2020-09-19T09:49:32.000Z</time>
      </trkpt>
      <trkpt lat="45.82998" lon="1.24808">
        <ele>266</ele>
        <time>2020-09-19T09:49:33.000Z</time>
      </trkpt>
      <trkpt lat="45.82998" lon="1.24805">
        <ele>267</ele>
        <time>2020-09-19T09:49:34.000Z</time>
      </trkpt>
      <trkpt lat="45.82997" lon="1.248">
        <ele>266</ele>
        <time>2020-09-19T09:49:35.000Z</time>
      </trkpt>
      <trkpt lat="45.82996" lon="1.24796">
        <ele>266</ele>
        <time>2020-09-19T09:49:36.000Z</time>
      </trkpt>
      <trkpt lat="45.82995" lon="1.24792">
        <ele>266</ele>
        <time>2020-09-19T09:49:37.000Z</time>
      </trkpt>
      <trkpt lat="45.82994" lon="1.24788">
        <ele>266</ele>
        <time>2020-09-19T09:49:38.000Z</time>
      </trkpt>
      <trkpt lat="45.82993" lon="1.24783">
        <ele>266</ele>
        <time>2020-09-19T09:49:39.000Z</time>
      </trkpt>
      <trkpt lat="45.82993" lon="1.24779">
        <ele>265</ele>
        <time>2020-09-19T09:49:40.000Z</time>
      </trkpt>
      <trkpt lat="45.82993" lon="1.24774">
        <ele>264</ele>
        <time>2020-09-19T09:49:41.000Z</time>
      </trkpt>
      <trkpt lat="45.82993" lon="1.2477">
        <ele>263</ele>
        <time>2020-09-19T09:49:42.000Z</time>
      </trkpt>
      <trkpt lat="45.82992" lon="1.24765">
        <ele>263</ele>
        <time>2020-09-19T09:49:43.000Z</time>
      </trkpt>
      <trkpt lat="45.82991" lon="1.24761">
        <ele>262</ele>
        <time>2020-09-19T09:49:44.000Z</time>
      </trkpt>
      <trkpt lat="45.8299" lon="1.24756">
        <ele>261</ele>
        <time>2020-09-19T09:49:45.000Z</time>
      </trkpt>
      <trkpt lat="45.82987" lon="1.24752">
        <ele>259</ele>
        <time>2020-09-19T09:49:46.000Z</time>
      </trkpt>
      <trkpt lat="45.82984" lon="1.24748">
        <ele>260</ele>
        <time>2020-09-19T09:49:47.000Z</time>
      </trkpt>
      <trkpt lat="45.82982" lon="1.24744">
        <ele>259</ele>
        <time>2020-09-19T09:49:48.000Z</time>
      </trkpt>
      <trkpt lat="45.8298" lon="1.24742">
        <ele>261</ele>
        <time>2020-09-19T09:49:49.000Z</time>
      </trkpt>
      <trkpt lat="45.8298" lon="1.24739">
        <ele>260</ele>
        <time>2020-09-19T09:49:50.000Z</time>
      </trkpt>
      <trkpt lat="45.82979" lon="1.24736">
        <ele>260</ele>
        <time>2020-09-19T09:49:51.000Z</time>
      </trkpt>
      <trkpt lat="45.82978" lon="1.24732">
        <ele>259</ele>
        <time>2020-09-19T09:49:52.000Z</time>
      </trkpt>
      <trkpt lat="45.82978" lon="1.24728">
        <ele>261</ele>
        <time>2020-09-19T09:49:53.000Z</time>
      </trkpt>
      <trkpt lat="45.82978" lon="1.24724">
        <ele>262</ele>
        <time>2020-09-19T09:49:54.000Z</time>
      </trkpt>
      <trkpt lat="45.82978" lon="1.2472">
        <ele>262</ele>
        <time>2020-09-19T09:49:55.000Z</time>
      </trkpt>
      <trkpt lat="45.82977" lon="1.24716">
        <ele>262</ele>
        <time>2020-09-19T09:49:56.000Z</time>
      </trkpt>
      <trkpt lat="45.82977" lon="1.24711">
        <ele>263</ele>
        <time>2020-09-19T09:49:57.000Z</time>
      </trkpt>
      <trkpt lat="45.82976" lon="1.24705">
        <ele>263</ele>
        <time>2020-09-19T09:49:58.000Z</time>
      </trkpt>
      <trkpt lat="45.82975" lon="1.247">
        <ele>263</ele>
        <time>2020-09-19T09:49:59.000Z</time>
      </trkpt>
      <trkpt lat="45.82974" lon="1.24695">
        <ele>262</ele>
        <time>2020-09-19T09:50:00.000Z</time>
      </trkpt>
      <trkpt lat="45.82973" lon="1.24691">
        <ele>262</ele>
        <time>2020-09-19T09:50:01.000Z</time>
      </trkpt>
      <trkpt lat="45.82972" lon="1.24687">
        <ele>261</ele>
        <time>2020-09-19T09:50:02.000Z</time>
      </trkpt>
      <trkpt lat="45.82972" lon="1.24682">
        <ele>262</ele>
        <time>2020-09-19T09:50:03.000Z</time>
      </trkpt>
      <trkpt lat="45.82971" lon="1.24678">
        <ele>262</ele>
        <time>2020-09-19T09:50:04.000Z</time>
      </trkpt>
      <trkpt lat="45.82971" lon="1.24673">
        <ele>261</ele>
        <time>2020-09-19T09:50:05.000Z</time>
      </trkpt>
      <trkpt lat="45.8297" lon="1.24668">
        <ele>262</ele>
        <time>2020-09-19T09:50:06.000Z</time>
      </trkpt>
      <trkpt lat="45.8297" lon="1.24663">
        <ele>262</ele>
        <time>2020-09-19T09:50:07.000Z</time>
      </trkpt>
      <trkpt lat="45.82969" lon="1.24658">
        <ele>261</ele>
        <time>2020-09-19T09:50:08.000Z</time>
      </trkpt>
      <trkpt lat="45.82969" lon="1.24654">
        <ele>261</ele>
        <time>2020-09-19T09:50:09.000Z</time>
      </trkpt>
      <trkpt lat="45.82968" lon="1.2465">
        <ele>261</ele>
        <time>2020-09-19T09:50:10.000Z</time>
      </trkpt>
      <trkpt lat="45.82967" lon="1.24646">
        <ele>262</ele>
        <time>2020-09-19T09:50:11.000Z</time>
      </trkpt>
      <trkpt lat="45.82967" lon="1.24642">
        <ele>261</ele>
        <time>2020-09-19T09:50:12.000Z</time>
      </trkpt>
      <trkpt lat="45.82967" lon="1.24637">
        <ele>261</ele>
        <time>2020-09-19T09:50:13.000Z</time>
      </trkpt>
      <trkpt lat="45.82967" lon="1.24633">
        <ele>260</ele>
        <time>2020-09-19T09:50:14.000Z</time>
      </trkpt>
      <trkpt lat="45.82967" lon="1.24629">
        <ele>259</ele>
        <time>2020-09-19T09:50:15.000Z</time>
      </trkpt>
      <trkpt lat="45.82967" lon="1.24625">
        <ele>259</ele>
        <time>2020-09-19T09:50:16.000Z</time>
      </trkpt>
      <trkpt lat="45.82967" lon="1.2462">
        <ele>258</ele>
        <time>2020-09-19T09:50:17.000Z</time>
      </trkpt>
      <trkpt lat="45.82967" lon="1.24616">
        <ele>258</ele>
        <time>2020-09-19T09:50:18.000Z</time>
      </trkpt>
      <trkpt lat="45.82966" lon="1.24611">
        <ele>258</ele>
        <time>2020-09-19T09:50:19.000Z</time>
      </trkpt>
      <trkpt lat="45.82966" lon="1.24607">
        <ele>257</ele>
        <time>2020-09-19T09:50:20.000Z</time>
      </trkpt>
      <trkpt lat="45.82965" lon="1.24602">
        <ele>256</ele>
        <time>2020-09-19T09:50:21.000Z</time>
      </trkpt>
      <trkpt lat="45.82964" lon="1.24598">
        <ele>255</ele>
        <time>2020-09-19T09:50:22.000Z</time>
      </trkpt>
      <trkpt lat="45.82963" lon="1.24593">
        <ele>255</ele>
        <time>2020-09-19T09:50:23.000Z</time>
      </trkpt>
      <trkpt lat="45.82963" lon="1.24589">
        <ele>255</ele>
        <time>2020-09-19T09:50:24.000Z</time>
      </trkpt>
      <trkpt lat="45.82962" lon="1.24584">
        <ele>255</ele>
        <time>2020-09-19T09:50:25.000Z</time>
      </trkpt>
      <trkpt lat="45.82962" lon="1.2458">
        <ele>256</ele>
        <time>2020-09-19T09:50:26.000Z</time>
      </trkpt>
      <trkpt lat="45.8296" lon="1.24575">
        <ele>257</ele>
        <time>2020-09-19T09:50:27.000Z</time>
      </trkpt>
      <trkpt lat="45.82958" lon="1.2457">
        <ele>258</ele>
        <time>2020-09-19T09:50:28.000Z</time>
      </trkpt>
      <trkpt lat="45.82957" lon="1.24565">
        <ele>258</ele>
        <time>2020-09-19T09:50:29.000Z</time>
      </trkpt>
      <trkpt lat="45.82957" lon="1.24561">
        <ele>257</ele>
        <time>2020-09-19T09:50:30.000Z</time>
      </trkpt>
      <trkpt lat="45.82957" lon="1.24556">
        <ele>257</ele>
        <time>2020-09-19T09:50:31.000Z</time>
      </trkpt>
      <trkpt lat="45.82957" lon="1.24553">
        <ele>257</ele>
        <time>2020-09-19T09:50:32.000Z</time>
      </trkpt>
      <trkpt lat="45.82957" lon="1.24549">
        <ele>257</ele>
        <time>2020-09-19T09:50:33.000Z</time>
      </trkpt>
      <trkpt lat="45.82956" lon="1.24546">
        <ele>258</ele>
        <time>2020-09-19T09:50:34.000Z</time>
      </trkpt>
      <trkpt lat="45.82956" lon="1.24542">
        <ele>258</ele>
        <time>2020-09-19T09:50:35.000Z</time>
      </trkpt>
      <trkpt lat="45.82956" lon="1.24538">
        <ele>258</ele>
        <time>2020-09-19T09:50:36.000Z</time>
      </trkpt>
      <trkpt lat="45.82955" lon="1.24534">
        <ele>259</ele>
        <time>2020-09-19T09:50:37.000Z</time>
      </trkpt>
      <trkpt lat="45.82955" lon="1.2453">
        <ele>259</ele>
        <time>2020-09-19T09:50:38.000Z</time>
      </trkpt>
      <trkpt lat="45.82955" lon="1.24526">
        <ele>257</ele>
        <time>2020-09-19T09:50:39.000Z</time>
      </trkpt>
      <trkpt lat="45.82955" lon="1.24522">
        <ele>258</ele>
        <time>2020-09-19T09:50:40.000Z</time>
      </trkpt>
      <trkpt lat="45.82955" lon="1.24518">
        <ele>258</ele>
        <time>2020-09-19T09:50:41.000Z</time>
      </trkpt>
      <trkpt lat="45.82954" lon="1.24513">
        <ele>258</ele>
        <time>2020-09-19T09:50:42.000Z</time>
      </trkpt>
      <trkpt lat="45.82953" lon="1.24508">
        <ele>259</ele>
        <time>2020-09-19T09:50:43.000Z</time>
      </trkpt>
      <trkpt lat="45.82953" lon="1.24503">
        <ele>258</ele>
        <time>2020-09-19T09:50:44.000Z</time>
      </trkpt>
      <trkpt lat="45.82952" lon="1.24498">
        <ele>259</ele>
        <time>2020-09-19T09:50:45.000Z</time>
      </trkpt>
      <trkpt lat="45.82951" lon="1.24494">
        <ele>260</ele>
        <time>2020-09-19T09:50:46.000Z</time>
      </trkpt>
      <trkpt lat="45.82949" lon="1.2449">
        <ele>261</ele>
        <time>2020-09-19T09:50:47.000Z</time>
      </trkpt>
      <trkpt lat="45.82947" lon="1.24486">
        <ele>261</ele>
        <time>2020-09-19T09:50:48.000Z</time>
      </trkpt>
      <trkpt lat="45.82945" lon="1.24482">
        <ele>261</ele>
        <time>2020-09-19T09:50:49.000Z</time>
      </trkpt>
      <trkpt lat="45.82944" lon="1.24477">
        <ele>260</ele>
        <time>2020-09-19T09:50:50.000Z</time>
      </trkpt>
      <trkpt lat="45.82943" lon="1.24473">
        <ele>262</ele>
        <time>2020-09-19T09:50:51.000Z</time>
      </trkpt>
      <trkpt lat="45.82943" lon="1.24469">
        <ele>262</ele>
        <time>2020-09-19T09:50:52.000Z</time>
      </trkpt>
      <trkpt lat="45.82941" lon="1.24465">
        <ele>262</ele>
        <time>2020-09-19T09:50:53.000Z</time>
      </trkpt>
      <trkpt lat="45.8294" lon="1.2446">
        <ele>264</ele>
        <time>2020-09-19T09:50:54.000Z</time>
      </trkpt>
      <trkpt lat="45.82938" lon="1.24455">
        <ele>264</ele>
        <time>2020-09-19T09:50:55.000Z</time>
      </trkpt>
      <trkpt lat="45.82937" lon="1.2445">
        <ele>264</ele>
        <time>2020-09-19T09:50:56.000Z</time>
      </trkpt>
      <trkpt lat="45.82936" lon="1.24446">
        <ele>263</ele>
        <time>2020-09-19T09:50:57.000Z</time>
      </trkpt>
      <trkpt lat="45.82934" lon="1.24442">
        <ele>264</ele>
        <time>2020-09-19T09:50:58.000Z</time>
      </trkpt>
      <trkpt lat="45.82933" lon="1.24438">
        <ele>264</ele>
        <time>2020-09-19T09:50:59.000Z</time>
      </trkpt>
      <trkpt lat="45.82931" lon="1.24434">
        <ele>265</ele>
        <time>2020-09-19T09:51:00.000Z</time>
      </trkpt>
      <trkpt lat="45.8293" lon="1.24429">
        <ele>264</ele>
        <time>2020-09-19T09:51:01.000Z</time>
      </trkpt>
      <trkpt lat="45.82928" lon="1.24425">
        <ele>264</ele>
        <time>2020-09-19T09:51:02.000Z</time>
      </trkpt>
      <trkpt lat="45.82927" lon="1.2442">
        <ele>264</ele>
        <time>2020-09-19T09:51:03.000Z</time>
      </trkpt>
      <trkpt lat="45.82925" lon="1.24415">
        <ele>264</ele>
        <time>2020-09-19T09:51:04.000Z</time>
      </trkpt>
      <trkpt lat="45.82924" lon="1.24411">
        <ele>264</ele>
        <time>2020-09-19T09:51:05.000Z</time>
      </trkpt>
      <trkpt lat="45.82924" lon="1.24407">
        <ele>264</ele>
        <time>2020-09-19T09:51:06.000Z</time>
      </trkpt>
      <trkpt lat="45.82923" lon="1.24402">
        <ele>265</ele>
        <time>2020-09-19T09:51:07.000Z</time>
      </trkpt>
      <trkpt lat="45.82921" lon="1.24398">
        <ele>266</ele>
        <time>2020-09-19T09:51:08.000Z</time>
      </trkpt>
      <trkpt lat="45.82919" lon="1.24394">
        <ele>266</ele>
        <time>2020-09-19T09:51:09.000Z</time>
      </trkpt>
      <trkpt lat="45.82917" lon="1.2439">
        <ele>266</ele>
        <time>2020-09-19T09:51:10.000Z</time>
      </trkpt>
      <trkpt lat="45.82915" lon="1.24386">
        <ele>266</ele>
        <time>2020-09-19T09:51:11.000Z</time>
      </trkpt>
      <trkpt lat="45.82913" lon="1.24383">
        <ele>265</ele>
        <time>2020-09-19T09:51:12.000Z</time>
      </trkpt>
      <trkpt lat="45.82911" lon="1.24379">
        <ele>266</ele>
        <time>2020-09-19T09:51:13.000Z</time>
      </trkpt>
      <trkpt lat="45.8291" lon="1.24375">
        <ele>266</ele>
        <time>2020-09-19T09:51:14.000Z</time>
      </trkpt>
      <trkpt lat="45.82908" lon="1.24371">
        <ele>266</ele>
        <time>2020-09-19T09:51:15.000Z</time>
      </trkpt>
      <trkpt lat="45.82907" lon="1.24368">
        <ele>266</ele>
        <time>2020-09-19T09:51:16.000Z</time>
      </trkpt>
      <trkpt lat="45.82905" lon="1.24363">
        <ele>266</ele>
        <time>2020-09-19T09:51:17.000Z</time>
      </trkpt>
      <trkpt lat="45.82903" lon="1.24359">
        <ele>267</ele>
        <time>2020-09-19T09:51:18.000Z</time>
      </trkpt>
      <trkpt lat="45.82902" lon="1.24355">
        <ele>267</ele>
        <time>2020-09-19T09:51:19.000Z</time>
      </trkpt>
      <trkpt lat="45.829" lon="1.2435">
        <ele>266</ele>
        <time>2020-09-19T09:51:20.000Z</time>
      </trkpt>
      <trkpt lat="45.82898" lon="1.24346">
        <ele>267</ele>
        <time>2020-09-19T09:51:21.000Z</time>
      </trkpt>
      <trkpt lat="45.82895" lon="1.24343">
        <ele>268</ele>
        <time>2020-09-19T09:51:22.000Z</time>
      </trkpt>
      <trkpt lat="45.82894" lon="1.24339">
        <ele>268</ele>
        <time>2020-09-19T09:51:23.000Z</time>
      </trkpt>
      <trkpt lat="45.82893" lon="1.24336">
        <ele>268</ele>
        <time>2020-09-19T09:51:24.000Z</time>
      </trkpt>
      <trkpt lat="45.82892" lon="1.24332">
        <ele>267</ele>
        <time>2020-09-19T09:51:25.000Z</time>
      </trkpt>
      <trkpt lat="45.82891" lon="1.24328">
        <ele>267</ele>
        <time>2020-09-19T09:51:26.000Z</time>
      </trkpt>
      <trkpt lat="45.82889" lon="1.24324">
        <ele>268</ele>
        <time>2020-09-19T09:51:27.000Z</time>
      </trkpt>
      <trkpt lat="45.82888" lon="1.2432">
        <ele>268</ele>
        <time>2020-09-19T09:51:28.000Z</time>
      </trkpt>
      <trkpt lat="45.82887" lon="1.24316">
        <ele>268</ele>
        <time>2020-09-19T09:51:29.000Z</time>
      </trkpt>
      <trkpt lat="45.82885" lon="1.24312">
        <ele>268</ele>
        <time>2020-09-19T09:51:30.000Z</time>
      </trkpt>
      <trkpt lat="45.82884" lon="1.24309">
        <ele>269</ele>
        <time>2020-09-19T09:51:31.000Z</time>
      </trkpt>
      <trkpt lat="45.82883" lon="1.24305">
        <ele>269</ele>
        <time>2020-09-19T09:51:32.000Z</time>
      </trkpt>
      <trkpt lat="45.82882" lon="1.24301">
        <ele>269</ele>
        <time>2020-09-19T09:51:33.000Z</time>
      </trkpt>
      <trkpt lat="45.82881" lon="1.24297">
        <ele>268</ele>
        <time>2020-09-19T09:51:34.000Z</time>
      </trkpt>
      <trkpt lat="45.8288" lon="1.24294">
        <ele>269</ele>
        <time>2020-09-19T09:51:35.000Z</time>
      </trkpt>
      <trkpt lat="45.82879" lon="1.2429">
        <ele>271</ele>
        <time>2020-09-19T09:51:36.000Z</time>
      </trkpt>
      <trkpt lat="45.82877" lon="1.24286">
        <ele>271</ele>
        <time>2020-09-19T09:51:37.000Z</time>
      </trkpt>
      <trkpt lat="45.82876" lon="1.24282">
        <ele>271</ele>
        <time>2020-09-19T09:51:38.000Z</time>
      </trkpt>
      <trkpt lat="45.82875" lon="1.24278">
        <ele>272</ele>
        <time>2020-09-19T09:51:39.000Z</time>
      </trkpt>
      <trkpt lat="45.82874" lon="1.24273">
        <ele>272</ele>
        <time>2020-09-19T09:51:40.000Z</time>
      </trkpt>
      <trkpt lat="45.82873" lon="1.2427">
        <ele>271</ele>
        <time>2020-09-19T09:51:41.000Z</time>
      </trkpt>
      <trkpt lat="45.82871" lon="1.24266">
        <ele>270</ele>
        <time>2020-09-19T09:51:42.000Z</time>
      </trkpt>
      <trkpt lat="45.8287" lon="1.24263">
        <ele>270</ele>
        <time>2020-09-19T09:51:43.000Z</time>
      </trkpt>
      <trkpt lat="45.82869" lon="1.24259">
        <ele>270</ele>
        <time>2020-09-19T09:51:44.000Z</time>
      </trkpt>
      <trkpt lat="45.82867" lon="1.24255">
        <ele>271</ele>
        <time>2020-09-19T09:51:45.000Z</time>
      </trkpt>
      <trkpt lat="45.82866" lon="1.24251">
        <ele>271</ele>
        <time>2020-09-19T09:51:46.000Z</time>
      </trkpt>
      <trkpt lat="45.82865" lon="1.24247">
        <ele>271</ele>
        <time>2020-09-19T09:51:47.000Z</time>
      </trkpt>
      <trkpt lat="45.82863" lon="1.24243">
        <ele>271</ele>
        <time>2020-09-19T09:51:48.000Z</time>
      </trkpt>
      <trkpt lat="45.82862" lon="1.24238">
        <ele>271</ele>
        <time>2020-09-19T09:51:49.000Z</time>
      </trkpt>
      <trkpt lat="45.8286" lon="1.24234">
        <ele>271</ele>
        <time>2020-09-19T09:51:50.000Z</time>
      </trkpt>
      <trkpt lat="45.82857" lon="1.2423">
        <ele>271</ele>
        <time>2020-09-19T09:51:51.000Z</time>
      </trkpt>
      <trkpt lat="45.82856" lon="1.24226">
        <ele>272</ele>
        <time>2020-09-19T09:51:52.000Z</time>
      </trkpt>
      <trkpt lat="45.82854" lon="1.24223">
        <ele>273</ele>
        <time>2020-09-19T09:51:53.000Z</time>
      </trkpt>
      <trkpt lat="45.82852" lon="1.24219">
        <ele>273</ele>
        <time>2020-09-19T09:51:54.000Z</time>
      </trkpt>
      <trkpt lat="45.82851" lon="1.24216">
        <ele>272</ele>
        <time>2020-09-19T09:51:55.000Z</time>
      </trkpt>
      <trkpt lat="45.82849" lon="1.24213">
        <ele>271</ele>
        <time>2020-09-19T09:51:56.000Z</time>
      </trkpt>
      <trkpt lat="45.82848" lon="1.24209">
        <ele>272</ele>
        <time>2020-09-19T09:51:57.000Z</time>
      </trkpt>
      <trkpt lat="45.82846" lon="1.24206">
        <ele>272</ele>
        <time>2020-09-19T09:51:58.000Z</time>
      </trkpt>
      <trkpt lat="45.82844" lon="1.24202">
        <ele>272</ele>
        <time>2020-09-19T09:51:59.000Z</time>
      </trkpt>
      <trkpt lat="45.82842" lon="1.24199">
        <ele>272</ele>
        <time>2020-09-19T09:52:00.000Z</time>
      </trkpt>
      <trkpt lat="45.8284" lon="1.24195">
        <ele>273</ele>
        <time>2020-09-19T09:52:01.000Z</time>
      </trkpt>
      <trkpt lat="45.82838" lon="1.24191">
        <ele>274</ele>
        <time>2020-09-19T09:52:02.000Z</time>
      </trkpt>
      <trkpt lat="45.82837" lon="1.24186">
        <ele>274</ele>
        <time>2020-09-19T09:52:03.000Z</time>
      </trkpt>
      <trkpt lat="45.82835" lon="1.24182">
        <ele>274</ele>
        <time>2020-09-19T09:52:04.000Z</time>
      </trkpt>
      <trkpt lat="45.82833" lon="1.24178">
        <ele>273</ele>
        <time>2020-09-19T09:52:05.000Z</time>
      </trkpt>
      <trkpt lat="45.8283" lon="1.24174">
        <ele>272</ele>
        <time>2020-09-19T09:52:06.000Z</time>
      </trkpt>
      <trkpt lat="45.82828" lon="1.2417">
        <ele>272</ele>
        <time>2020-09-19T09:52:07.000Z</time>
      </trkpt>
      <trkpt lat="45.82827" lon="1.24167">
        <ele>271</ele>
        <time>2020-09-19T09:52:08.000Z</time>
      </trkpt>
      <trkpt lat="45.82825" lon="1.24163">
        <ele>270</ele>
        <time>2020-09-19T09:52:09.000Z</time>
      </trkpt>
      <trkpt lat="45.82822" lon="1.2416">
        <ele>271</ele>
        <time>2020-09-19T09:52:10.000Z</time>
      </trkpt>
      <trkpt lat="45.82819" lon="1.24157">
        <ele>270</ele>
        <time>2020-09-19T09:52:11.000Z</time>
      </trkpt>
      <trkpt lat="45.82817" lon="1.24153">
        <ele>271</ele>
        <time>2020-09-19T09:52:12.000Z</time>
      </trkpt>
      <trkpt lat="45.82815" lon="1.24149">
        <ele>271</ele>
        <time>2020-09-19T09:52:13.000Z</time>
      </trkpt>
      <trkpt lat="45.82812" lon="1.24144">
        <ele>271</ele>
        <time>2020-09-19T09:52:14.000Z</time>
      </trkpt>
      <trkpt lat="45.82811" lon="1.24141">
        <ele>272</ele>
        <time>2020-09-19T09:52:15.000Z</time>
      </trkpt>
      <trkpt lat="45.82809" lon="1.24136">
        <ele>271</ele>
        <time>2020-09-19T09:52:16.000Z</time>
      </trkpt>
      <trkpt lat="45.82807" lon="1.24132">
        <ele>270</ele>
        <time>2020-09-19T09:52:17.000Z</time>
      </trkpt>
      <trkpt lat="45.82805" lon="1.24129">
        <ele>270</ele>
        <time>2020-09-19T09:52:18.000Z</time>
      </trkpt>
      <trkpt lat="45.82803" lon="1.24125">
        <ele>270</ele>
        <time>2020-09-19T09:52:19.000Z</time>
      </trkpt>
      <trkpt lat="45.82801" lon="1.24121">
        <ele>270</ele>
        <time>2020-09-19T09:52:20.000Z</time>
      </trkpt>
      <trkpt lat="45.82801" lon="1.24117">
        <ele>269</ele>
        <time>2020-09-19T09:52:21.000Z</time>
      </trkpt>
      <trkpt lat="45.82802" lon="1.24112">
        <ele>268</ele>
        <time>2020-09-19T09:52:22.000Z</time>
      </trkpt>
      <trkpt lat="45.82803" lon="1.24106">
        <ele>268</ele>
        <time>2020-09-19T09:52:23.000Z</time>
      </trkpt>
      <trkpt lat="45.82803" lon="1.24102">
        <ele>267</ele>
        <time>2020-09-19T09:52:24.000Z</time>
      </trkpt>
      <trkpt lat="45.82802" lon="1.24098">
        <ele>267</ele>
        <time>2020-09-19T09:52:25.000Z</time>
      </trkpt>
      <trkpt lat="45.82801" lon="1.24094">
        <ele>266</ele>
        <time>2020-09-19T09:52:26.000Z</time>
      </trkpt>
      <trkpt lat="45.828" lon="1.24091">
        <ele>266</ele>
        <time>2020-09-19T09:52:27.000Z</time>
      </trkpt>
      <trkpt lat="45.82799" lon="1.24087">
        <ele>266</ele>
        <time>2020-09-19T09:52:28.000Z</time>
      </trkpt>
      <trkpt lat="45.82799" lon="1.24083">
        <ele>267</ele>
        <time>2020-09-19T09:52:29.000Z</time>
      </trkpt>
      <trkpt lat="45.82798" lon="1.24079">
        <ele>267</ele>
        <time>2020-09-19T09:52:30.000Z</time>
      </trkpt>
      <trkpt lat="45.82796" lon="1.24075">
        <ele>267</ele>
        <time>2020-09-19T09:52:31.000Z</time>
      </trkpt>
      <trkpt lat="45.82794" lon="1.24072">
        <ele>267</ele>
        <time>2020-09-19T09:52:32.000Z</time>
      </trkpt>
      <trkpt lat="45.82792" lon="1.24069">
        <ele>267</ele>
        <time>2020-09-19T09:52:33.000Z</time>
      </trkpt>
      <trkpt lat="45.8279" lon="1.24066">
        <ele>268</ele>
        <time>2020-09-19T09:52:34.000Z</time>
      </trkpt>
      <trkpt lat="45.82787" lon="1.24062">
        <ele>268</ele>
        <time>2020-09-19T09:52:35.000Z</time>
      </trkpt>
      <trkpt lat="45.82785" lon="1.24059">
        <ele>269</ele>
        <time>2020-09-19T09:52:36.000Z</time>
      </trkpt>
      <trkpt lat="45.82783" lon="1.24056">
        <ele>269</ele>
        <time>2020-09-19T09:52:37.000Z</time>
      </trkpt>
      <trkpt lat="45.82781" lon="1.24053">
        <ele>270</ele>
        <time>2020-09-19T09:52:38.000Z</time>
      </trkpt>
      <trkpt lat="45.82779" lon="1.24049">
        <ele>270</ele>
        <time>2020-09-19T09:52:39.000Z</time>
      </trkpt>
      <trkpt lat="45.82777" lon="1.24046">
        <ele>270</ele>
        <time>2020-09-19T09:52:40.000Z</time>
      </trkpt>
      <trkpt lat="45.82775" lon="1.24043">
        <ele>270</ele>
        <time>2020-09-19T09:52:41.000Z</time>
      </trkpt>
      <trkpt lat="45.82772" lon="1.24039">
        <ele>270</ele>
        <time>2020-09-19T09:52:42.000Z</time>
      </trkpt>
      <trkpt lat="45.8277" lon="1.24035">
        <ele>271</ele>
        <time>2020-09-19T09:52:43.000Z</time>
      </trkpt>
      <trkpt lat="45.82768" lon="1.24031">
        <ele>271</ele>
        <time>2020-09-19T09:52:44.000Z</time>
      </trkpt>
      <trkpt lat="45.82766" lon="1.24028">
        <ele>272</ele>
        <time>2020-09-19T09:52:45.000Z</time>
      </trkpt>
      <trkpt lat="45.82764" lon="1.24024">
        <ele>272</ele>
        <time>2020-09-19T09:52:46.000Z</time>
      </trkpt>
      <trkpt lat="45.82763" lon="1.2402">
        <ele>272</ele>
        <time>2020-09-19T09:52:47.000Z</time>
      </trkpt>
      <trkpt lat="45.8276" lon="1.24016">
        <ele>271</ele>
        <time>2020-09-19T09:52:48.000Z</time>
      </trkpt>
      <trkpt lat="45.82758" lon="1.24012">
        <ele>270</ele>
        <time>2020-09-19T09:52:49.000Z</time>
      </trkpt>
      <trkpt lat="45.82756" lon="1.24008">
        <ele>271</ele>
        <time>2020-09-19T09:52:50.000Z</time>
      </trkpt>
      <trkpt lat="45.82754" lon="1.24004">
        <ele>273</ele>
        <time>2020-09-19T09:52:51.000Z</time>
      </trkpt>
      <trkpt lat="45.82753" lon="1.24">
        <ele>273</ele>
        <time>2020-09-19T09:52:52.000Z</time>
      </trkpt>
      <trkpt lat="45.82751" lon="1.23995">
        <ele>273</ele>
        <time>2020-09-19T09:52:53.000Z</time>
      </trkpt>
      <trkpt lat="45.82749" lon="1.2399">
        <ele>273</ele>
        <time>2020-09-19T09:52:54.000Z</time>
      </trkpt>
      <trkpt lat="45.82747" lon="1.23985">
        <ele>274</ele>
        <time>2020-09-19T09:52:55.000Z</time>
      </trkpt>
      <trkpt lat="45.82745" lon="1.23981">
        <ele>273</ele>
        <time>2020-09-19T09:52:56.000Z</time>
      </trkpt>
      <trkpt lat="45.82744" lon="1.23978">
        <ele>273</ele>
        <time>2020-09-19T09:52:57.000Z</time>
      </trkpt>
      <trkpt lat="45.82742" lon="1.23975">
        <ele>273</ele>
        <time>2020-09-19T09:52:58.000Z</time>
      </trkpt>
      <trkpt lat="45.82739" lon="1.23972">
        <ele>273</ele>
        <time>2020-09-19T09:52:59.000Z</time>
      </trkpt>
      <trkpt lat="45.82737" lon="1.23969">
        <ele>273</ele>
        <time>2020-09-19T09:53:00.000Z</time>
      </trkpt>
      <trkpt lat="45.82736" lon="1.23966">
        <ele>272</ele>
        <time>2020-09-19T09:53:01.000Z</time>
      </trkpt>
      <trkpt lat="45.82735" lon="1.23963">
        <ele>273</ele>
        <time>2020-09-19T09:53:02.000Z</time>
      </trkpt>
      <trkpt lat="45.82733" lon="1.2396">
        <ele>273</ele>
        <time>2020-09-19T09:53:03.000Z</time>
      </trkpt>
      <trkpt lat="45.82731" lon="1.23956">
        <ele>273</ele>
        <time>2020-09-19T09:53:04.000Z</time>
      </trkpt>
      <trkpt lat="45.82729" lon="1.23952">
        <ele>273</ele>
        <time>2020-09-19T09:53:05.000Z</time>
      </trkpt>
      <trkpt lat="45.82727" lon="1.23949">
        <ele>272</ele>
        <time>2020-09-19T09:53:06.000Z</time>
      </trkpt>
      <trkpt lat="45.82726" lon="1.23945">
        <ele>271</ele>
        <time>2020-09-19T09:53:07.000Z</time>
      </trkpt>
      <trkpt lat="45.82724" lon="1.23941">
        <ele>270</ele>
        <time>2020-09-19T09:53:08.000Z</time>
      </trkpt>
      <trkpt lat="45.82723" lon="1.23937">
        <ele>270</ele>
        <time>2020-09-19T09:53:09.000Z</time>
      </trkpt>
      <trkpt lat="45.82722" lon="1.23933">
        <ele>271</ele>
        <time>2020-09-19T09:53:10.000Z</time>
      </trkpt>
      <trkpt lat="45.8272" lon="1.23929">
        <ele>271</ele>
        <time>2020-09-19T09:53:11.000Z</time>
      </trkpt>
      <trkpt lat="45.82719" lon="1.23924">
        <ele>273</ele>
        <time>2020-09-19T09:53:12.000Z</time>
      </trkpt>
      <trkpt lat="45.82717" lon="1.2392">
        <ele>273</ele>
        <time>2020-09-19T09:53:13.000Z</time>
      </trkpt>
      <trkpt lat="45.82716" lon="1.23916">
        <ele>274</ele>
        <time>2020-09-19T09:53:14.000Z</time>
      </trkpt>
      <trkpt lat="45.82714" lon="1.23912">
        <ele>273</ele>
        <time>2020-09-19T09:53:15.000Z</time>
      </trkpt>
      <trkpt lat="45.82712" lon="1.23908">
        <ele>274</ele>
        <time>2020-09-19T09:53:16.000Z</time>
      </trkpt>
      <trkpt lat="45.8271" lon="1.23905">
        <ele>273</ele>
        <time>2020-09-19T09:53:17.000Z</time>
      </trkpt>
      <trkpt lat="45.82709" lon="1.23901">
        <ele>273</ele>
        <time>2020-09-19T09:53:18.000Z</time>
      </trkpt>
      <trkpt lat="45.82708" lon="1.23898">
        <ele>273</ele>
        <time>2020-09-19T09:53:19.000Z</time>
      </trkpt>
      <trkpt lat="45.82707" lon="1.23894">
        <ele>273</ele>
        <time>2020-09-19T09:53:20.000Z</time>
      </trkpt>
      <trkpt lat="45.82706" lon="1.2389">
        <ele>273</ele>
        <time>2020-09-19T09:53:21.000Z</time>
      </trkpt>
      <trkpt lat="45.82705" lon="1.23886">
        <ele>273</ele>
        <time>2020-09-19T09:53:22.000Z</time>
      </trkpt>
      <trkpt lat="45.82704" lon="1.23882">
        <ele>274</ele>
        <time>2020-09-19T09:53:23.000Z</time>
      </trkpt>
      <trkpt lat="45.82703" lon="1.23878">
        <ele>273</ele>
        <time>2020-09-19T09:53:24.000Z</time>
      </trkpt>
      <trkpt lat="45.82701" lon="1.23874">
        <ele>273</ele>
        <time>2020-09-19T09:53:25.000Z</time>
      </trkpt>
      <trkpt lat="45.827" lon="1.23871">
        <ele>272</ele>
        <time>2020-09-19T09:53:26.000Z</time>
      </trkpt>
      <trkpt lat="45.82699" lon="1.23867">
        <ele>272</ele>
        <time>2020-09-19T09:53:27.000Z</time>
      </trkpt>
      <trkpt lat="45.82697" lon="1.23862">
        <ele>273</ele>
        <time>2020-09-19T09:53:28.000Z</time>
      </trkpt>
      <trkpt lat="45.82696" lon="1.23858">
        <ele>273</ele>
        <time>2020-09-19T09:53:29.000Z</time>
      </trkpt>
      <trkpt lat="45.82694" lon="1.23854">
        <ele>274</ele>
        <time>2020-09-19T09:53:30.000Z</time>
      </trkpt>
      <trkpt lat="45.82692" lon="1.2385">
        <ele>274</ele>
        <time>2020-09-19T09:53:31.000Z</time>
      </trkpt>
      <trkpt lat="45.82691" lon="1.23845">
        <ele>275</ele>
        <time>2020-09-19T09:53:32.000Z</time>
      </trkpt>
      <trkpt lat="45.82689" lon="1.23841">
        <ele>275</ele>
        <time>2020-09-19T09:53:33.000Z</time>
      </trkpt>
      <trkpt lat="45.82687" lon="1.23837">
        <ele>275</ele>
        <time>2020-09-19T09:53:34.000Z</time>
      </trkpt>
      <trkpt lat="45.82686" lon="1.23833">
        <ele>276</ele>
        <time>2020-09-19T09:53:35.000Z</time>
      </trkpt>
      <trkpt lat="45.82684" lon="1.2383">
        <ele>276</ele>
        <time>2020-09-19T09:53:36.000Z</time>
      </trkpt>
      <trkpt lat="45.82682" lon="1.23826">
        <ele>277</ele>
        <time>2020-09-19T09:53:37.000Z</time>
      </trkpt>
      <trkpt lat="45.8268" lon="1.23822">
        <ele>277</ele>
        <time>2020-09-19T09:53:38.000Z</time>
      </trkpt>
      <trkpt lat="45.82679" lon="1.23818">
        <ele>277</ele>
        <time>2020-09-19T09:53:39.000Z</time>
      </trkpt>
      <trkpt lat="45.82677" lon="1.23814">
        <ele>277</ele>
        <time>2020-09-19T09:53:40.000Z</time>
      </trkpt>
      <trkpt lat="45.82676" lon="1.2381">
        <ele>277</ele>
        <time>2020-09-19T09:53:41.000Z</time>
      </trkpt>
      <trkpt lat="45.82674" lon="1.23806">
        <ele>275</ele>
        <time>2020-09-19T09:53:42.000Z</time>
      </trkpt>
      <trkpt lat="45.82673" lon="1.23802">
        <ele>274</ele>
        <time>2020-09-19T09:53:43.000Z</time>
      </trkpt>
      <trkpt lat="45.82671" lon="1.23799">
        <ele>273</ele>
        <time>2020-09-19T09:53:44.000Z</time>
      </trkpt>
      <trkpt lat="45.8267" lon="1.23795">
        <ele>273</ele>
        <time>2020-09-19T09:53:45.000Z</time>
      </trkpt>
      <trkpt lat="45.82669" lon="1.23792">
        <ele>274</ele>
        <time>2020-09-19T09:53:46.000Z</time>
      </trkpt>
      <trkpt lat="45.82667" lon="1.23788">
        <ele>274</ele>
        <time>2020-09-19T09:53:47.000Z</time>
      </trkpt>
      <trkpt lat="45.82666" lon="1.23784">
        <ele>276</ele>
        <time>2020-09-19T09:53:48.000Z</time>
      </trkpt>
      <trkpt lat="45.82664" lon="1.2378">
        <ele>276</ele>
        <time>2020-09-19T09:53:49.000Z</time>
      </trkpt>
      <trkpt lat="45.82663" lon="1.23776">
        <ele>274</ele>
        <time>2020-09-19T09:53:50.000Z</time>
      </trkpt>
      <trkpt lat="45.82662" lon="1.23772">
        <ele>274</ele>
        <time>2020-09-19T09:53:51.000Z</time>
      </trkpt>
      <trkpt lat="45.8266" lon="1.23768">
        <ele>274</ele>
        <time>2020-09-19T09:53:52.000Z</time>
      </trkpt>
      <trkpt lat="45.82659" lon="1.23765">
        <ele>274</ele>
        <time>2020-09-19T09:53:53.000Z</time>
      </trkpt>
      <trkpt lat="45.82657" lon="1.23761">
        <ele>276</ele>
        <time>2020-09-19T09:53:54.000Z</time>
      </trkpt>
      <trkpt lat="45.82655" lon="1.23757">
        <ele>277</ele>
        <time>2020-09-19T09:53:55.000Z</time>
      </trkpt>
      <trkpt lat="45.82653" lon="1.23753">
        <ele>277</ele>
        <time>2020-09-19T09:53:56.000Z</time>
      </trkpt>
      <trkpt lat="45.82652" lon="1.23749">
        <ele>277</ele>
        <time>2020-09-19T09:53:57.000Z</time>
      </trkpt>
      <trkpt lat="45.82651" lon="1.23746">
        <ele>276</ele>
        <time>2020-09-19T09:53:58.000Z</time>
      </trkpt>
      <trkpt lat="45.82649" lon="1.23742">
        <ele>275</ele>
        <time>2020-09-19T09:53:59.000Z</time>
      </trkpt>
      <trkpt lat="45.82648" lon="1.23738">
        <ele>276</ele>
        <time>2020-09-19T09:54:00.000Z</time>
      </trkpt>
      <trkpt lat="45.82647" lon="1.23734">
        <ele>277</ele>
        <time>2020-09-19T09:54:01.000Z</time>
      </trkpt>
      <trkpt lat="45.82646" lon="1.2373">
        <ele>277</ele>
        <time>2020-09-19T09:54:02.000Z</time>
      </trkpt>
      <trkpt lat="45.82645" lon="1.23726">
        <ele>277</ele>
        <time>2020-09-19T09:54:03.000Z</time>
      </trkpt>
      <trkpt lat="45.82643" lon="1.23723">
        <ele>277</ele>
        <time>2020-09-19T09:54:04.000Z</time>
      </trkpt>
      <trkpt lat="45.82643" lon="1.23719">
        <ele>277</ele>
        <time>2020-09-19T09:54:05.000Z</time>
      </trkpt>
      <trkpt lat="45.82642" lon="1.23714">
        <ele>276</ele>
        <time>2020-09-19T09:54:06.000Z</time>
      </trkpt>
      <trkpt lat="45.82642" lon="1.2371">
        <ele>276</ele>
        <time>2020-09-19T09:54:07.000Z</time>
      </trkpt>
      <trkpt lat="45.82642" lon="1.23706">
        <ele>276</ele>
        <time>2020-09-19T09:54:08.000Z</time>
      </trkpt>
      <trkpt lat="45.82641" lon="1.23702">
        <ele>276</ele>
        <time>2020-09-19T09:54:09.000Z</time>
      </trkpt>
      <trkpt lat="45.8264" lon="1.23699">
        <ele>276</ele>
        <time>2020-09-19T09:54:10.000Z</time>
      </trkpt>
      <trkpt lat="45.82639" lon="1.23696">
        <ele>276</ele>
        <time>2020-09-19T09:54:11.000Z</time>
      </trkpt>
      <trkpt lat="45.82638" lon="1.23692">
        <ele>275</ele>
        <time>2020-09-19T09:54:12.000Z</time>
      </trkpt>
      <trkpt lat="45.82636" lon="1.23689">
        <ele>275</ele>
        <time>2020-09-19T09:54:13.000Z</time>
      </trkpt>
      <trkpt lat="45.82635" lon="1.23685">
        <ele>276</ele>
        <time>2020-09-19T09:54:14.000Z</time>
      </trkpt>
      <trkpt lat="45.82635" lon="1.23681">
        <ele>278</ele>
        <time>2020-09-19T09:54:15.000Z</time>
      </trkpt>
      <trkpt lat="45.82634" lon="1.23677">
        <ele>278</ele>
        <time>2020-09-19T09:54:16.000Z</time>
      </trkpt>
      <trkpt lat="45.82633" lon="1.23673">
        <ele>277</ele>
        <time>2020-09-19T09:54:17.000Z</time>
      </trkpt>
      <trkpt lat="45.82632" lon="1.23669">
        <ele>277</ele>
        <time>2020-09-19T09:54:18.000Z</time>
      </trkpt>
      <trkpt lat="45.82631" lon="1.23666">
        <ele>279</ele>
        <time>2020-09-19T09:54:19.000Z</time>
      </trkpt>
      <trkpt lat="45.8263" lon="1.23663">
        <ele>280</ele>
        <time>2020-09-19T09:54:20.000Z</time>
      </trkpt>
      <trkpt lat="45.82628" lon="1.23659">
        <ele>281</ele>
        <time>2020-09-19T09:54:21.000Z</time>
      </trkpt>
      <trkpt lat="45.82626" lon="1.23655">
        <ele>282</ele>
        <time>2020-09-19T09:54:22.000Z</time>
      </trkpt>
      <trkpt lat="45.82625" lon="1.23651">
        <ele>282</ele>
        <time>2020-09-19T09:54:23.000Z</time>
      </trkpt>
      <trkpt lat="45.82624" lon="1.23647">
        <ele>281</ele>
        <time>2020-09-19T09:54:24.000Z</time>
      </trkpt>
      <trkpt lat="45.82624" lon="1.23643">
        <ele>280</ele>
        <time>2020-09-19T09:54:25.000Z</time>
      </trkpt>
      <trkpt lat="45.82624" lon="1.23639">
        <ele>279</ele>
        <time>2020-09-19T09:54:26.000Z</time>
      </trkpt>
      <trkpt lat="45.82624" lon="1.23636">
        <ele>279</ele>
        <time>2020-09-19T09:54:27.000Z</time>
      </trkpt>
      <trkpt lat="45.82624" lon="1.23633">
        <ele>279</ele>
        <time>2020-09-19T09:54:28.000Z</time>
      </trkpt>
      <trkpt lat="45.82624" lon="1.23629">
        <ele>278</ele>
        <time>2020-09-19T09:54:29.000Z</time>
      </trkpt>
      <trkpt lat="45.82623" lon="1.23625">
        <ele>278</ele>
        <time>2020-09-19T09:54:30.000Z</time>
      </trkpt>
      <trkpt lat="45.82622" lon="1.23621">
        <ele>279</ele>
        <time>2020-09-19T09:54:31.000Z</time>
      </trkpt>
      <trkpt lat="45.82621" lon="1.23617">
        <ele>280</ele>
        <time>2020-09-19T09:54:32.000Z</time>
      </trkpt>
      <trkpt lat="45.8262" lon="1.23613">
        <ele>280</ele>
        <time>2020-09-19T09:54:33.000Z</time>
      </trkpt>
      <trkpt lat="45.82619" lon="1.23609">
        <ele>280</ele>
        <time>2020-09-19T09:54:34.000Z</time>
      </trkpt>
      <trkpt lat="45.82618" lon="1.23605">
        <ele>279</ele>
        <time>2020-09-19T09:54:35.000Z</time>
      </trkpt>
      <trkpt lat="45.82618" lon="1.23601">
        <ele>278</ele>
        <time>2020-09-19T09:54:36.000Z</time>
      </trkpt>
      <trkpt lat="45.82616" lon="1.23598">
        <ele>279</ele>
        <time>2020-09-19T09:54:37.000Z</time>
      </trkpt>
      <trkpt lat="45.82616" lon="1.23594">
        <ele>280</ele>
        <time>2020-09-19T09:54:38.000Z</time>
      </trkpt>
      <trkpt lat="45.82614" lon="1.2359">
        <ele>280</ele>
        <time>2020-09-19T09:54:39.000Z</time>
      </trkpt>
      <trkpt lat="45.82613" lon="1.23587">
        <ele>279</ele>
        <time>2020-09-19T09:54:40.000Z</time>
      </trkpt>
      <trkpt lat="45.82612" lon="1.23583">
        <ele>279</ele>
        <time>2020-09-19T09:54:41.000Z</time>
      </trkpt>
      <trkpt lat="45.8261" lon="1.23579">
        <ele>278</ele>
        <time>2020-09-19T09:54:42.000Z</time>
      </trkpt>
      <trkpt lat="45.82609" lon="1.23575">
        <ele>278</ele>
        <time>2020-09-19T09:54:43.000Z</time>
      </trkpt>
      <trkpt lat="45.82609" lon="1.2357">
        <ele>277</ele>
        <time>2020-09-19T09:54:44.000Z</time>
      </trkpt>
      <trkpt lat="45.82608" lon="1.23566">
        <ele>276</ele>
        <time>2020-09-19T09:54:45.000Z</time>
      </trkpt>
      <trkpt lat="45.82607" lon="1.23562">
        <ele>276</ele>
        <time>2020-09-19T09:54:46.000Z</time>
      </trkpt>
      <trkpt lat="45.82606" lon="1.23558">
        <ele>276</ele>
        <time>2020-09-19T09:54:47.000Z</time>
      </trkpt>
      <trkpt lat="45.82605" lon="1.23554">
        <ele>275</ele>
        <time>2020-09-19T09:54:48.000Z</time>
      </trkpt>
      <trkpt lat="45.82604" lon="1.2355">
        <ele>275</ele>
        <time>2020-09-19T09:54:49.000Z</time>
      </trkpt>
      <trkpt lat="45.82603" lon="1.23546">
        <ele>275</ele>
        <time>2020-09-19T09:54:50.000Z</time>
      </trkpt>
      <trkpt lat="45.82602" lon="1.23543">
        <ele>274</ele>
        <time>2020-09-19T09:54:51.000Z</time>
      </trkpt>
      <trkpt lat="45.826" lon="1.23539">
        <ele>273</ele>
        <time>2020-09-19T09:54:52.000Z</time>
      </trkpt>
      <trkpt lat="45.82599" lon="1.23535">
        <ele>274</ele>
        <time>2020-09-19T09:54:53.000Z</time>
      </trkpt>
      <trkpt lat="45.82598" lon="1.23531">
        <ele>274</ele>
        <time>2020-09-19T09:54:54.000Z</time>
      </trkpt>
      <trkpt lat="45.82597" lon="1.23528">
        <ele>274</ele>
        <time>2020-09-19T09:54:55.000Z</time>
      </trkpt>
      <trkpt lat="45.82596" lon="1.23524">
        <ele>274</ele>
        <time>2020-09-19T09:54:56.000Z</time>
      </trkpt>
      <trkpt lat="45.82596" lon="1.2352">
        <ele>274</ele>
        <time>2020-09-19T09:54:57.000Z</time>
      </trkpt>
      <trkpt lat="45.82595" lon="1.23516">
        <ele>274</ele>
        <time>2020-09-19T09:54:58.000Z</time>
      </trkpt>
      <trkpt lat="45.82594" lon="1.23513">
        <ele>274</ele>
        <time>2020-09-19T09:54:59.000Z</time>
      </trkpt>
      <trkpt lat="45.82592" lon="1.23509">
        <ele>273</ele>
        <time>2020-09-19T09:55:00.000Z</time>
      </trkpt>
      <trkpt lat="45.8259" lon="1.23505">
        <ele>274</ele>
        <time>2020-09-19T09:55:01.000Z</time>
      </trkpt>
      <trkpt lat="45.82588" lon="1.23501">
        <ele>273</ele>
        <time>2020-09-19T09:55:02.000Z</time>
      </trkpt>
      <trkpt lat="45.82587" lon="1.23496">
        <ele>272</ele>
        <time>2020-09-19T09:55:03.000Z</time>
      </trkpt>
      <trkpt lat="45.82586" lon="1.23492">
        <ele>273</ele>
        <time>2020-09-19T09:55:04.000Z</time>
      </trkpt>
      <trkpt lat="45.82585" lon="1.23489">
        <ele>274</ele>
        <time>2020-09-19T09:55:05.000Z</time>
      </trkpt>
      <trkpt lat="45.82584" lon="1.23485">
        <ele>274</ele>
        <time>2020-09-19T09:55:06.000Z</time>
      </trkpt>
      <trkpt lat="45.82583" lon="1.23481">
        <ele>274</ele>
        <time>2020-09-19T09:55:07.000Z</time>
      </trkpt>
      <trkpt lat="45.82582" lon="1.23477">
        <ele>275</ele>
        <time>2020-09-19T09:55:08.000Z</time>
      </trkpt>
      <trkpt lat="45.82581" lon="1.23472">
        <ele>276</ele>
        <time>2020-09-19T09:55:09.000Z</time>
      </trkpt>
      <trkpt lat="45.8258" lon="1.23468">
        <ele>276</ele>
        <time>2020-09-19T09:55:10.000Z</time>
      </trkpt>
      <trkpt lat="45.82578" lon="1.23464">
        <ele>275</ele>
        <time>2020-09-19T09:55:11.000Z</time>
      </trkpt>
      <trkpt lat="45.82578" lon="1.23459">
        <ele>276</ele>
        <time>2020-09-19T09:55:12.000Z</time>
      </trkpt>
      <trkpt lat="45.82578" lon="1.23454">
        <ele>276</ele>
        <time>2020-09-19T09:55:13.000Z</time>
      </trkpt>
      <trkpt lat="45.82578" lon="1.23449">
        <ele>276</ele>
        <time>2020-09-19T09:55:14.000Z</time>
      </trkpt>
      <trkpt lat="45.82578" lon="1.23445">
        <ele>275</ele>
        <time>2020-09-19T09:55:15.000Z</time>
      </trkpt>
      <trkpt lat="45.82578" lon="1.23441">
        <ele>275</ele>
        <time>2020-09-19T09:55:16.000Z</time>
      </trkpt>
      <trkpt lat="45.82577" lon="1.23436">
        <ele>275</ele>
        <time>2020-09-19T09:55:17.000Z</time>
      </trkpt>
      <trkpt lat="45.82576" lon="1.23432">
        <ele>277</ele>
        <time>2020-09-19T09:55:18.000Z</time>
      </trkpt>
      <trkpt lat="45.82576" lon="1.23427">
        <ele>277</ele>
        <time>2020-09-19T09:55:19.000Z</time>
      </trkpt>
      <trkpt lat="45.82576" lon="1.23423">
        <ele>278</ele>
        <time>2020-09-19T09:55:20.000Z</time>
      </trkpt>
      <trkpt lat="45.82576" lon="1.23419">
        <ele>280</ele>
        <time>2020-09-19T09:55:21.000Z</time>
      </trkpt>
      <trkpt lat="45.82576" lon="1.23415">
        <ele>281</ele>
        <time>2020-09-19T09:55:22.000Z</time>
      </trkpt>
      <trkpt lat="45.82575" lon="1.23412">
        <ele>281</ele>
        <time>2020-09-19T09:55:23.000Z</time>
      </trkpt>
      <trkpt lat="45.82575" lon="1.23408">
        <ele>281</ele>
        <time>2020-09-19T09:55:24.000Z</time>
      </trkpt>
      <trkpt lat="45.82574" lon="1.23404">
        <ele>282</ele>
        <time>2020-09-19T09:55:25.000Z</time>
      </trkpt>
      <trkpt lat="45.82573" lon="1.234">
        <ele>283</ele>
        <time>2020-09-19T09:55:26.000Z</time>
      </trkpt>
      <trkpt lat="45.82572" lon="1.23396">
        <ele>283</ele>
        <time>2020-09-19T09:55:27.000Z</time>
      </trkpt>
      <trkpt lat="45.82572" lon="1.23391">
        <ele>283</ele>
        <time>2020-09-19T09:55:28.000Z</time>
      </trkpt>
      <trkpt lat="45.82571" lon="1.23387">
        <ele>282</ele>
        <time>2020-09-19T09:55:29.000Z</time>
      </trkpt>
      <trkpt lat="45.8257" lon="1.23384">
        <ele>282</ele>
        <time>2020-09-19T09:55:30.000Z</time>
      </trkpt>
      <trkpt lat="45.82569" lon="1.2338">
        <ele>282</ele>
        <time>2020-09-19T09:55:31.000Z</time>
      </trkpt>
      <trkpt lat="45.82568" lon="1.23376">
        <ele>282</ele>
        <time>2020-09-19T09:55:32.000Z</time>
      </trkpt>
      <trkpt lat="45.82567" lon="1.23372">
        <ele>283</ele>
        <time>2020-09-19T09:55:33.000Z</time>
      </trkpt>
      <trkpt lat="45.82566" lon="1.23368">
        <ele>284</ele>
        <time>2020-09-19T09:55:34.000Z</time>
      </trkpt>
      <trkpt lat="45.82566" lon="1.23363">
        <ele>287</ele>
        <time>2020-09-19T09:55:35.000Z</time>
      </trkpt>
      <trkpt lat="45.82565" lon="1.23358">
        <ele>288</ele>
        <time>2020-09-19T09:55:36.000Z</time>
      </trkpt>
      <trkpt lat="45.82563" lon="1.23353">
        <ele>290</ele>
        <time>2020-09-19T09:55:37.000Z</time>
      </trkpt>
      <trkpt lat="45.82562" lon="1.23348">
        <ele>291</ele>
        <time>2020-09-19T09:55:38.000Z</time>
      </trkpt>
      <trkpt lat="45.8256" lon="1.23344">
        <ele>292</ele>
        <time>2020-09-19T09:55:39.000Z</time>
      </trkpt>
      <trkpt lat="45.82559" lon="1.2334">
        <ele>292</ele>
        <time>2020-09-19T09:55:40.000Z</time>
      </trkpt>
      <trkpt lat="45.82558" lon="1.23336">
        <ele>292</ele>
        <time>2020-09-19T09:55:41.000Z</time>
      </trkpt>
      <trkpt lat="45.82557" lon="1.23332">
        <ele>292</ele>
        <time>2020-09-19T09:55:42.000Z</time>
      </trkpt>
      <trkpt lat="45.82555" lon="1.23328">
        <ele>291</ele>
        <time>2020-09-19T09:55:43.000Z</time>
      </trkpt>
      <trkpt lat="45.82554" lon="1.23325">
        <ele>291</ele>
        <time>2020-09-19T09:55:44.000Z</time>
      </trkpt>
      <trkpt lat="45.82552" lon="1.23321">
        <ele>292</ele>
        <time>2020-09-19T09:55:45.000Z</time>
      </trkpt>
      <trkpt lat="45.8255" lon="1.23317">
        <ele>292</ele>
        <time>2020-09-19T09:55:46.000Z</time>
      </trkpt>
      <trkpt lat="45.8255" lon="1.23313">
        <ele>294</ele>
        <time>2020-09-19T09:55:47.000Z</time>
      </trkpt>
      <trkpt lat="45.8255" lon="1.23308">
        <ele>294</ele>
        <time>2020-09-19T09:55:48.000Z</time>
      </trkpt>
      <trkpt lat="45.8255" lon="1.23303">
        <ele>295</ele>
        <time>2020-09-19T09:55:49.000Z</time>
      </trkpt>
      <trkpt lat="45.8255" lon="1.23299">
        <ele>296</ele>
        <time>2020-09-19T09:55:50.000Z</time>
      </trkpt>
      <trkpt lat="45.82548" lon="1.23294">
        <ele>297</ele>
        <time>2020-09-19T09:55:51.000Z</time>
      </trkpt>
      <trkpt lat="45.82547" lon="1.2329">
        <ele>298</ele>
        <time>2020-09-19T09:55:52.000Z</time>
      </trkpt>
      <trkpt lat="45.82546" lon="1.23286">
        <ele>299</ele>
        <time>2020-09-19T09:55:53.000Z</time>
      </trkpt>
      <trkpt lat="45.82544" lon="1.23282">
        <ele>299</ele>
        <time>2020-09-19T09:55:54.000Z</time>
      </trkpt>
      <trkpt lat="45.82543" lon="1.23278">
        <ele>299</ele>
        <time>2020-09-19T09:55:55.000Z</time>
      </trkpt>
      <trkpt lat="45.82541" lon="1.23275">
        <ele>300</ele>
        <time>2020-09-19T09:55:56.000Z</time>
      </trkpt>
      <trkpt lat="45.82539" lon="1.23271">
        <ele>300</ele>
        <time>2020-09-19T09:55:57.000Z</time>
      </trkpt>
      <trkpt lat="45.82537" lon="1.23268">
        <ele>300</ele>
        <time>2020-09-19T09:55:58.000Z</time>
      </trkpt>
      <trkpt lat="45.82535" lon="1.23264">
        <ele>300</ele>
        <time>2020-09-19T09:55:59.000Z</time>
      </trkpt>
      <trkpt lat="45.82534" lon="1.23261">
        <ele>300</ele>
        <time>2020-09-19T09:56:00.000Z</time>
      </trkpt>
      <trkpt lat="45.82533" lon="1.23257">
        <ele>300</ele>
        <time>2020-09-19T09:56:01.000Z</time>
      </trkpt>
      <trkpt lat="45.82533" lon="1.23253">
        <ele>300</ele>
        <time>2020-09-19T09:56:02.000Z</time>
      </trkpt>
      <trkpt lat="45.82532" lon="1.23249">
        <ele>300</ele>
        <time>2020-09-19T09:56:03.000Z</time>
      </trkpt>
      <trkpt lat="45.82532" lon="1.23245">
        <ele>300</ele>
        <time>2020-09-19T09:56:04.000Z</time>
      </trkpt>
      <trkpt lat="45.82531" lon="1.23241">
        <ele>301</ele>
        <time>2020-09-19T09:56:05.000Z</time>
      </trkpt>
      <trkpt lat="45.82531" lon="1.23237">
        <ele>302</ele>
        <time>2020-09-19T09:56:06.000Z</time>
      </trkpt>
      <trkpt lat="45.8253" lon="1.23232">
        <ele>303</ele>
        <time>2020-09-19T09:56:07.000Z</time>
      </trkpt>
      <trkpt lat="45.82529" lon="1.23226">
        <ele>304</ele>
        <time>2020-09-19T09:56:08.000Z</time>
      </trkpt>
      <trkpt lat="45.82528" lon="1.2322">
        <ele>304</ele>
        <time>2020-09-19T09:56:09.000Z</time>
      </trkpt>
      <trkpt lat="45.82528" lon="1.23215">
        <ele>304</ele>
        <time>2020-09-19T09:56:10.000Z</time>
      </trkpt>
      <trkpt lat="45.82527" lon="1.2321">
        <ele>305</ele>
        <time>2020-09-19T09:56:11.000Z</time>
      </trkpt>
      <trkpt lat="45.82527" lon="1.23206">
        <ele>305</ele>
        <time>2020-09-19T09:56:12.000Z</time>
      </trkpt>
      <trkpt lat="45.82527" lon="1.23201">
        <ele>305</ele>
        <time>2020-09-19T09:56:13.000Z</time>
      </trkpt>
      <trkpt lat="45.82526" lon="1.23197">
        <ele>305</ele>
        <time>2020-09-19T09:56:14.000Z</time>
      </trkpt>
      <trkpt lat="45.82526" lon="1.23192">
        <ele>304</ele>
        <time>2020-09-19T09:56:15.000Z</time>
      </trkpt>
      <trkpt lat="45.82525" lon="1.23188">
        <ele>303</ele>
        <time>2020-09-19T09:56:16.000Z</time>
      </trkpt>
      <trkpt lat="45.82525" lon="1.23184">
        <ele>301</ele>
        <time>2020-09-19T09:56:17.000Z</time>
      </trkpt>
      <trkpt lat="45.82525" lon="1.2318">
        <ele>300</ele>
        <time>2020-09-19T09:56:18.000Z</time>
      </trkpt>
      <trkpt lat="45.82524" lon="1.23176">
        <ele>299</ele>
        <time>2020-09-19T09:56:19.000Z</time>
      </trkpt>
      <trkpt lat="45.82523" lon="1.23172">
        <ele>299</ele>
        <time>2020-09-19T09:56:20.000Z</time>
      </trkpt>
      <trkpt lat="45.82521" lon="1.23167">
        <ele>299</ele>
        <time>2020-09-19T09:56:21.000Z</time>
      </trkpt>
      <trkpt lat="45.8252" lon="1.23162">
        <ele>301</ele>
        <time>2020-09-19T09:56:22.000Z</time>
      </trkpt>
      <trkpt lat="45.82518" lon="1.23158">
        <ele>301</ele>
        <time>2020-09-19T09:56:23.000Z</time>
      </trkpt>
      <trkpt lat="45.82516" lon="1.23153">
        <ele>301</ele>
        <time>2020-09-19T09:56:24.000Z</time>
      </trkpt>
      <trkpt lat="45.82515" lon="1.23148">
        <ele>300</ele>
        <time>2020-09-19T09:56:25.000Z</time>
      </trkpt>
      <trkpt lat="45.82514" lon="1.23144">
        <ele>299</ele>
        <time>2020-09-19T09:56:26.000Z</time>
      </trkpt>
      <trkpt lat="45.82513" lon="1.2314">
        <ele>299</ele>
        <time>2020-09-19T09:56:27.000Z</time>
      </trkpt>
      <trkpt lat="45.82512" lon="1.23136">
        <ele>299</ele>
        <time>2020-09-19T09:56:28.000Z</time>
      </trkpt>
      <trkpt lat="45.82511" lon="1.23132">
        <ele>298</ele>
        <time>2020-09-19T09:56:29.000Z</time>
      </trkpt>
      <trkpt lat="45.8251" lon="1.23128">
        <ele>298</ele>
        <time>2020-09-19T09:56:30.000Z</time>
      </trkpt>
      <trkpt lat="45.82509" lon="1.23123">
        <ele>297</ele>
        <time>2020-09-19T09:56:31.000Z</time>
      </trkpt>
      <trkpt lat="45.82509" lon="1.23119">
        <ele>297</ele>
        <time>2020-09-19T09:56:32.000Z</time>
      </trkpt>
      <trkpt lat="45.82508" lon="1.23115">
        <ele>294</ele>
        <time>2020-09-19T09:56:33.000Z</time>
      </trkpt>
      <trkpt lat="45.82508" lon="1.2311">
        <ele>294</ele>
        <time>2020-09-19T09:56:34.000Z</time>
      </trkpt>
      <trkpt lat="45.82507" lon="1.23106">
        <ele>293</ele>
        <time>2020-09-19T09:56:35.000Z</time>
      </trkpt>
      <trkpt lat="45.82507" lon="1.23102">
        <ele>292</ele>
        <time>2020-09-19T09:56:36.000Z</time>
      </trkpt>
      <trkpt lat="45.82507" lon="1.23099">
        <ele>291</ele>
        <time>2020-09-19T09:56:37.000Z</time>
      </trkpt>
      <trkpt lat="45.82507" lon="1.23095">
        <ele>290</ele>
        <time>2020-09-19T09:56:38.000Z</time>
      </trkpt>
      <trkpt lat="45.82506" lon="1.23091">
        <ele>291</ele>
        <time>2020-09-19T09:56:39.000Z</time>
      </trkpt>
      <trkpt lat="45.82506" lon="1.23087">
        <ele>291</ele>
        <time>2020-09-19T09:56:40.000Z</time>
      </trkpt>
      <trkpt lat="45.82505" lon="1.23082">
        <ele>291</ele>
        <time>2020-09-19T09:56:41.000Z</time>
      </trkpt>
      <trkpt lat="45.82504" lon="1.23078">
        <ele>291</ele>
        <time>2020-09-19T09:56:42.000Z</time>
      </trkpt>
      <trkpt lat="45.82504" lon="1.23073">
        <ele>292</ele>
        <time>2020-09-19T09:56:43.000Z</time>
      </trkpt>
      <trkpt lat="45.82504" lon="1.23069">
        <ele>292</ele>
        <time>2020-09-19T09:56:44.000Z</time>
      </trkpt>
      <trkpt lat="45.82504" lon="1.23064">
        <ele>291</ele>
        <time>2020-09-19T09:56:45.000Z</time>
      </trkpt>
      <trkpt lat="45.82503" lon="1.2306">
        <ele>291</ele>
        <time>2020-09-19T09:56:46.000Z</time>
      </trkpt>
      <trkpt lat="45.82503" lon="1.23056">
        <ele>292</ele>
        <time>2020-09-19T09:56:47.000Z</time>
      </trkpt>
      <trkpt lat="45.82502" lon="1.23051">
        <ele>292</ele>
        <time>2020-09-19T09:56:48.000Z</time>
      </trkpt>
      <trkpt lat="45.82501" lon="1.23046">
        <ele>292</ele>
        <time>2020-09-19T09:56:49.000Z</time>
      </trkpt>
      <trkpt lat="45.82501" lon="1.23042">
        <ele>293</ele>
        <time>2020-09-19T09:56:50.000Z</time>
      </trkpt>
      <trkpt lat="45.82501" lon="1.23037">
        <ele>292</ele>
        <time>2020-09-19T09:56:51.000Z</time>
      </trkpt>
      <trkpt lat="45.82502" lon="1.23032">
        <ele>291</ele>
        <time>2020-09-19T09:56:52.000Z</time>
      </trkpt>
      <trkpt lat="45.82502" lon="1.23027">
        <ele>292</ele>
        <time>2020-09-19T09:56:53.000Z</time>
      </trkpt>
      <trkpt lat="45.82502" lon="1.23023">
        <ele>293</ele>
        <time>2020-09-19T09:56:54.000Z</time>
      </trkpt>
      <trkpt lat="45.82502" lon="1.23019">
        <ele>293</ele>
        <time>2020-09-19T09:56:55.000Z</time>
      </trkpt>
      <trkpt lat="45.82503" lon="1.23014">
        <ele>295</ele>
        <time>2020-09-19T09:56:56.000Z</time>
      </trkpt>
      <trkpt lat="45.82504" lon="1.23009">
        <ele>296</ele>
        <time>2020-09-19T09:56:57.000Z</time>
      </trkpt>
      <trkpt lat="45.82504" lon="1.23004">
        <ele>295</ele>
        <time>2020-09-19T09:56:58.000Z</time>
      </trkpt>
      <trkpt lat="45.82505" lon="1.22999">
        <ele>295</ele>
        <time>2020-09-19T09:56:59.000Z</time>
      </trkpt>
      <trkpt lat="45.82505" lon="1.22994">
        <ele>295</ele>
        <time>2020-09-19T09:57:00.000Z</time>
      </trkpt>
      <trkpt lat="45.82505" lon="1.2299">
        <ele>295</ele>
        <time>2020-09-19T09:57:01.000Z</time>
      </trkpt>
      <trkpt lat="45.82505" lon="1.22985">
        <ele>295</ele>
        <time>2020-09-19T09:57:02.000Z</time>
      </trkpt>
      <trkpt lat="45.82505" lon="1.2298">
        <ele>296</ele>
        <time>2020-09-19T09:57:03.000Z</time>
      </trkpt>
      <trkpt lat="45.82505" lon="1.22975">
        <ele>296</ele>
        <time>2020-09-19T09:57:04.000Z</time>
      </trkpt>
      <trkpt lat="45.82505" lon="1.2297">
        <ele>296</ele>
        <time>2020-09-19T09:57:05.000Z</time>
      </trkpt>
      <trkpt lat="45.82505" lon="1.22965">
        <ele>295</ele>
        <time>2020-09-19T09:57:06.000Z</time>
      </trkpt>
      <trkpt lat="45.82504" lon="1.2296">
        <ele>294</ele>
        <time>2020-09-19T09:57:07.000Z</time>
      </trkpt>
      <trkpt lat="45.82504" lon="1.22955">
        <ele>292</ele>
        <time>2020-09-19T09:57:08.000Z</time>
      </trkpt>
      <trkpt lat="45.82504" lon="1.2295">
        <ele>292</ele>
        <time>2020-09-19T09:57:09.000Z</time>
      </trkpt>
      <trkpt lat="45.82504" lon="1.22945">
        <ele>291</ele>
        <time>2020-09-19T09:57:10.000Z</time>
      </trkpt>
      <trkpt lat="45.82502" lon="1.2294">
        <ele>290</ele>
        <time>2020-09-19T09:57:11.000Z</time>
      </trkpt>
      <trkpt lat="45.82501" lon="1.22936">
        <ele>289</ele>
        <time>2020-09-19T09:57:12.000Z</time>
      </trkpt>
      <trkpt lat="45.825" lon="1.22932">
        <ele>291</ele>
        <time>2020-09-19T09:57:13.000Z</time>
      </trkpt>
      <trkpt lat="45.82498" lon="1.22928">
        <ele>289</ele>
        <time>2020-09-19T09:57:14.000Z</time>
      </trkpt>
      <trkpt lat="45.82497" lon="1.22924">
        <ele>288</ele>
        <time>2020-09-19T09:57:15.000Z</time>
      </trkpt>
      <trkpt lat="45.82495" lon="1.2292">
        <ele>287</ele>
        <time>2020-09-19T09:57:16.000Z</time>
      </trkpt>
      <trkpt lat="45.82494" lon="1.22915">
        <ele>287</ele>
        <time>2020-09-19T09:57:17.000Z</time>
      </trkpt>
      <trkpt lat="45.82494" lon="1.2291">
        <ele>288</ele>
        <time>2020-09-19T09:57:18.000Z</time>
      </trkpt>
      <trkpt lat="45.82494" lon="1.22905">
        <ele>288</ele>
        <time>2020-09-19T09:57:19.000Z</time>
      </trkpt>
      <trkpt lat="45.82493" lon="1.22901">
        <ele>289</ele>
        <time>2020-09-19T09:57:20.000Z</time>
      </trkpt>
      <trkpt lat="45.82492" lon="1.22896">
        <ele>290</ele>
        <time>2020-09-19T09:57:21.000Z</time>
      </trkpt>
      <trkpt lat="45.82491" lon="1.22891">
        <ele>292</ele>
        <time>2020-09-19T09:57:22.000Z</time>
      </trkpt>
      <trkpt lat="45.82489" lon="1.22887">
        <ele>293</ele>
        <time>2020-09-19T09:57:23.000Z</time>
      </trkpt>
      <trkpt lat="45.82488" lon="1.22883">
        <ele>293</ele>
        <time>2020-09-19T09:57:24.000Z</time>
      </trkpt>
      <trkpt lat="45.82487" lon="1.22879">
        <ele>293</ele>
        <time>2020-09-19T09:57:25.000Z</time>
      </trkpt>
      <trkpt lat="45.82487" lon="1.22875">
        <ele>293</ele>
        <time>2020-09-19T09:57:26.000Z</time>
      </trkpt>
      <trkpt lat="45.82486" lon="1.22871">
        <ele>293</ele>
        <time>2020-09-19T09:57:27.000Z</time>
      </trkpt>
      <trkpt lat="45.82485" lon="1.22866">
        <ele>293</ele>
        <time>2020-09-19T09:57:28.000Z</time>
      </trkpt>
      <trkpt lat="45.82485" lon="1.22861">
        <ele>292</ele>
        <time>2020-09-19T09:57:29.000Z</time>
      </trkpt>
      <trkpt lat="45.82483" lon="1.22856">
        <ele>292</ele>
        <time>2020-09-19T09:57:30.000Z</time>
      </trkpt>
      <trkpt lat="45.82482" lon="1.22851">
        <ele>292</ele>
        <time>2020-09-19T09:57:31.000Z</time>
      </trkpt>
      <trkpt lat="45.82481" lon="1.22846">
        <ele>292</ele>
        <time>2020-09-19T09:57:32.000Z</time>
      </trkpt>
      <trkpt lat="45.8248" lon="1.22842">
        <ele>291</ele>
        <time>2020-09-19T09:57:33.000Z</time>
      </trkpt>
      <trkpt lat="45.8248" lon="1.22837">
        <ele>292</ele>
        <time>2020-09-19T09:57:34.000Z</time>
      </trkpt>
      <trkpt lat="45.82479" lon="1.22832">
        <ele>292</ele>
        <time>2020-09-19T09:57:35.000Z</time>
      </trkpt>
      <trkpt lat="45.82478" lon="1.22828">
        <ele>292</ele>
        <time>2020-09-19T09:57:36.000Z</time>
      </trkpt>
      <trkpt lat="45.82477" lon="1.22824">
        <ele>291</ele>
        <time>2020-09-19T09:57:37.000Z</time>
      </trkpt>
      <trkpt lat="45.82475" lon="1.22819">
        <ele>291</ele>
        <time>2020-09-19T09:57:38.000Z</time>
      </trkpt>
      <trkpt lat="45.82473" lon="1.22815">
        <ele>291</ele>
        <time>2020-09-19T09:57:39.000Z</time>
      </trkpt>
      <trkpt lat="45.82471" lon="1.22811">
        <ele>291</ele>
        <time>2020-09-19T09:57:40.000Z</time>
      </trkpt>
      <trkpt lat="45.8247" lon="1.22806">
        <ele>291</ele>
        <time>2020-09-19T09:57:41.000Z</time>
      </trkpt>
      <trkpt lat="45.82469" lon="1.22802">
        <ele>291</ele>
        <time>2020-09-19T09:57:42.000Z</time>
      </trkpt>
      <trkpt lat="45.82468" lon="1.22798">
        <ele>291</ele>
        <time>2020-09-19T09:57:43.000Z</time>
      </trkpt>
      <trkpt lat="45.82467" lon="1.22794">
        <ele>291</ele>
        <time>2020-09-19T09:57:44.000Z</time>
      </trkpt>
      <trkpt lat="45.82466" lon="1.22789">
        <ele>291</ele>
        <time>2020-09-19T09:57:45.000Z</time>
      </trkpt>
      <trkpt lat="45.82465" lon="1.22784">
        <ele>291</ele>
        <time>2020-09-19T09:57:46.000Z</time>
      </trkpt>
      <trkpt lat="45.82464" lon="1.2278">
        <ele>290</ele>
        <time>2020-09-19T09:57:47.000Z</time>
      </trkpt>
      <trkpt lat="45.82462" lon="1.22775">
        <ele>290</ele>
        <time>2020-09-19T09:57:48.000Z</time>
      </trkpt>
      <trkpt lat="45.82461" lon="1.22771">
        <ele>288</ele>
        <time>2020-09-19T09:57:49.000Z</time>
      </trkpt>
      <trkpt lat="45.82459" lon="1.22766">
        <ele>288</ele>
        <time>2020-09-19T09:57:50.000Z</time>
      </trkpt>
      <trkpt lat="45.82459" lon="1.22762">
        <ele>288</ele>
        <time>2020-09-19T09:57:51.000Z</time>
      </trkpt>
      <trkpt lat="45.82458" lon="1.22758">
        <ele>287</ele>
        <time>2020-09-19T09:57:52.000Z</time>
      </trkpt>
      <trkpt lat="45.82457" lon="1.22754">
        <ele>286</ele>
        <time>2020-09-19T09:57:53.000Z</time>
      </trkpt>
      <trkpt lat="45.82455" lon="1.2275">
        <ele>287</ele>
        <time>2020-09-19T09:57:54.000Z</time>
      </trkpt>
      <trkpt lat="45.82454" lon="1.22745">
        <ele>286</ele>
        <time>2020-09-19T09:57:55.000Z</time>
      </trkpt>
      <trkpt lat="45.82452" lon="1.22741">
        <ele>287</ele>
        <time>2020-09-19T09:57:56.000Z</time>
      </trkpt>
      <trkpt lat="45.82451" lon="1.22737">
        <ele>287</ele>
        <time>2020-09-19T09:57:57.000Z</time>
      </trkpt>
      <trkpt lat="45.8245" lon="1.22733">
        <ele>287</ele>
        <time>2020-09-19T09:57:58.000Z</time>
      </trkpt>
      <trkpt lat="45.82448" lon="1.22729">
        <ele>286</ele>
        <time>2020-09-19T09:57:59.000Z</time>
      </trkpt>
      <trkpt lat="45.82447" lon="1.22725">
        <ele>286</ele>
        <time>2020-09-19T09:58:00.000Z</time>
      </trkpt>
      <trkpt lat="45.82447" lon="1.22721">
        <ele>285</ele>
        <time>2020-09-19T09:58:01.000Z</time>
      </trkpt>
      <trkpt lat="45.82446" lon="1.22717">
        <ele>285</ele>
        <time>2020-09-19T09:58:02.000Z</time>
      </trkpt>
      <trkpt lat="45.82445" lon="1.22713">
        <ele>284</ele>
        <time>2020-09-19T09:58:03.000Z</time>
      </trkpt>
      <trkpt lat="45.82444" lon="1.22708">
        <ele>284</ele>
        <time>2020-09-19T09:58:04.000Z</time>
      </trkpt>
      <trkpt lat="45.82443" lon="1.22704">
        <ele>285</ele>
        <time>2020-09-19T09:58:05.000Z</time>
      </trkpt>
      <trkpt lat="45.82442" lon="1.22699">
        <ele>285</ele>
        <time>2020-09-19T09:58:06.000Z</time>
      </trkpt>
      <trkpt lat="45.82441" lon="1.22695">
        <ele>285</ele>
        <time>2020-09-19T09:58:07.000Z</time>
      </trkpt>
      <trkpt lat="45.8244" lon="1.22691">
        <ele>284</ele>
        <time>2020-09-19T09:58:08.000Z</time>
      </trkpt>
      <trkpt lat="45.82439" lon="1.22687">
        <ele>284</ele>
        <time>2020-09-19T09:58:09.000Z</time>
      </trkpt>
      <trkpt lat="45.82438" lon="1.22682">
        <ele>284</ele>
        <time>2020-09-19T09:58:10.000Z</time>
      </trkpt>
      <trkpt lat="45.82437" lon="1.22677">
        <ele>285</ele>
        <time>2020-09-19T09:58:11.000Z</time>
      </trkpt>
      <trkpt lat="45.82436" lon="1.22671">
        <ele>285</ele>
        <time>2020-09-19T09:58:12.000Z</time>
      </trkpt>
      <trkpt lat="45.82435" lon="1.22666">
        <ele>285</ele>
        <time>2020-09-19T09:58:13.000Z</time>
      </trkpt>
      <trkpt lat="45.82434" lon="1.22661">
        <ele>285</ele>
        <time>2020-09-19T09:58:14.000Z</time>
      </trkpt>
      <trkpt lat="45.82433" lon="1.22656">
        <ele>285</ele>
        <time>2020-09-19T09:58:15.000Z</time>
      </trkpt>
      <trkpt lat="45.82431" lon="1.22652">
        <ele>284</ele>
        <time>2020-09-19T09:58:16.000Z</time>
      </trkpt>
      <trkpt lat="45.8243" lon="1.22649">
        <ele>285</ele>
        <time>2020-09-19T09:58:17.000Z</time>
      </trkpt>
      <trkpt lat="45.82428" lon="1.22646">
        <ele>285</ele>
        <time>2020-09-19T09:58:18.000Z</time>
      </trkpt>
      <trkpt lat="45.82425" lon="1.22644">
        <ele>285</ele>
        <time>2020-09-19T09:58:19.000Z</time>
      </trkpt>
      <trkpt lat="45.82423" lon="1.22642">
        <ele>286</ele>
        <time>2020-09-19T09:58:20.000Z</time>
      </trkpt>
      <trkpt lat="45.8242" lon="1.2264">
        <ele>286</ele>
        <time>2020-09-19T09:58:21.000Z</time>
      </trkpt>
      <trkpt lat="45.82418" lon="1.22637">
        <ele>287</ele>
        <time>2020-09-19T09:58:22.000Z</time>
      </trkpt>
      <trkpt lat="45.82415" lon="1.22633">
        <ele>288</ele>
        <time>2020-09-19T09:58:23.000Z</time>
      </trkpt>
      <trkpt lat="45.82413" lon="1.2263">
        <ele>289</ele>
        <time>2020-09-19T09:58:24.000Z</time>
      </trkpt>
      <trkpt lat="45.82412" lon="1.22625">
        <ele>289</ele>
        <time>2020-09-19T09:58:25.000Z</time>
      </trkpt>
      <trkpt lat="45.82411" lon="1.22621">
        <ele>289</ele>
        <time>2020-09-19T09:58:26.000Z</time>
      </trkpt>
      <trkpt lat="45.82409" lon="1.22617">
        <ele>290</ele>
        <time>2020-09-19T09:58:27.000Z</time>
      </trkpt>
      <trkpt lat="45.82408" lon="1.22612">
        <ele>291</ele>
        <time>2020-09-19T09:58:28.000Z</time>
      </trkpt>
      <trkpt lat="45.82408" lon="1.22607">
        <ele>291</ele>
        <time>2020-09-19T09:58:29.000Z</time>
      </trkpt>
      <trkpt lat="45.82408" lon="1.22603">
        <ele>292</ele>
        <time>2020-09-19T09:58:30.000Z</time>
      </trkpt>
      <trkpt lat="45.82409" lon="1.22598">
        <ele>291</ele>
        <time>2020-09-19T09:58:31.000Z</time>
      </trkpt>
      <trkpt lat="45.82411" lon="1.22594">
        <ele>291</ele>
        <time>2020-09-19T09:58:32.000Z</time>
      </trkpt>
      <trkpt lat="45.82413" lon="1.22591">
        <ele>291</ele>
        <time>2020-09-19T09:58:33.000Z</time>
      </trkpt>
      <trkpt lat="45.82414" lon="1.22587">
        <ele>294</ele>
        <time>2020-09-19T09:58:34.000Z</time>
      </trkpt>
      <trkpt lat="45.82415" lon="1.22583">
        <ele>294</ele>
        <time>2020-09-19T09:58:35.000Z</time>
      </trkpt>
      <trkpt lat="45.82415" lon="1.22578">
        <ele>295</ele>
        <time>2020-09-19T09:58:36.000Z</time>
      </trkpt>
      <trkpt lat="45.82414" lon="1.22574">
        <ele>296</ele>
        <time>2020-09-19T09:58:37.000Z</time>
      </trkpt>
      <trkpt lat="45.82414" lon="1.2257">
        <ele>295</ele>
        <time>2020-09-19T09:58:38.000Z</time>
      </trkpt>
      <trkpt lat="45.82413" lon="1.22565">
        <ele>293</ele>
        <time>2020-09-19T09:58:39.000Z</time>
      </trkpt>
      <trkpt lat="45.82413" lon="1.2256">
        <ele>293</ele>
        <time>2020-09-19T09:58:40.000Z</time>
      </trkpt>
      <trkpt lat="45.82412" lon="1.22555">
        <ele>294</ele>
        <time>2020-09-19T09:58:41.000Z</time>
      </trkpt>
      <trkpt lat="45.82411" lon="1.22551">
        <ele>294</ele>
        <time>2020-09-19T09:58:42.000Z</time>
      </trkpt>
      <trkpt lat="45.82409" lon="1.22546">
        <ele>294</ele>
        <time>2020-09-19T09:58:43.000Z</time>
      </trkpt>
      <trkpt lat="45.82408" lon="1.22542">
        <ele>295</ele>
        <time>2020-09-19T09:58:44.000Z</time>
      </trkpt>
      <trkpt lat="45.82407" lon="1.22538">
        <ele>294</ele>
        <time>2020-09-19T09:58:45.000Z</time>
      </trkpt>
      <trkpt lat="45.82406" lon="1.22533">
        <ele>294</ele>
        <time>2020-09-19T09:58:46.000Z</time>
      </trkpt>
      <trkpt lat="45.82405" lon="1.22528">
        <ele>293</ele>
        <time>2020-09-19T09:58:47.000Z</time>
      </trkpt>
      <trkpt lat="45.82405" lon="1.22523">
        <ele>292</ele>
        <time>2020-09-19T09:58:48.000Z</time>
      </trkpt>
      <trkpt lat="45.82404" lon="1.22519">
        <ele>292</ele>
        <time>2020-09-19T09:58:49.000Z</time>
      </trkpt>
      <trkpt lat="45.82404" lon="1.22514">
        <ele>292</ele>
        <time>2020-09-19T09:58:50.000Z</time>
      </trkpt>
      <trkpt lat="45.82403" lon="1.2251">
        <ele>291</ele>
        <time>2020-09-19T09:58:51.000Z</time>
      </trkpt>
      <trkpt lat="45.82402" lon="1.22506">
        <ele>291</ele>
        <time>2020-09-19T09:58:52.000Z</time>
      </trkpt>
      <trkpt lat="45.82402" lon="1.22502">
        <ele>290</ele>
        <time>2020-09-19T09:58:53.000Z</time>
      </trkpt>
      <trkpt lat="45.82401" lon="1.22497">
        <ele>290</ele>
        <time>2020-09-19T09:58:54.000Z</time>
      </trkpt>
      <trkpt lat="45.824" lon="1.22492">
        <ele>290</ele>
        <time>2020-09-19T09:58:55.000Z</time>
      </trkpt>
      <trkpt lat="45.824" lon="1.22488">
        <ele>289</ele>
        <time>2020-09-19T09:58:56.000Z</time>
      </trkpt>
      <trkpt lat="45.82399" lon="1.22483">
        <ele>288</ele>
        <time>2020-09-19T09:58:57.000Z</time>
      </trkpt>
      <trkpt lat="45.82398" lon="1.22479">
        <ele>289</ele>
        <time>2020-09-19T09:58:58.000Z</time>
      </trkpt>
      <trkpt lat="45.82398" lon="1.22474">
        <ele>288</ele>
        <time>2020-09-19T09:58:59.000Z</time>
      </trkpt>
      <trkpt lat="45.82398" lon="1.2247">
        <ele>287</ele>
        <time>2020-09-19T09:59:00.000Z</time>
      </trkpt>
      <trkpt lat="45.82397" lon="1.22465">
        <ele>287</ele>
        <time>2020-09-19T09:59:01.000Z</time>
      </trkpt>
      <trkpt lat="45.82396" lon="1.2246">
        <ele>287</ele>
        <time>2020-09-19T09:59:02.000Z</time>
      </trkpt>
      <trkpt lat="45.82395" lon="1.22456">
        <ele>287</ele>
        <time>2020-09-19T09:59:03.000Z</time>
      </trkpt>
      <trkpt lat="45.82394" lon="1.22451">
        <ele>287</ele>
        <time>2020-09-19T09:59:04.000Z</time>
      </trkpt>
      <trkpt lat="45.82392" lon="1.22446">
        <ele>287</ele>
        <time>2020-09-19T09:59:05.000Z</time>
      </trkpt>
      <trkpt lat="45.82391" lon="1.22442">
        <ele>287</ele>
        <time>2020-09-19T09:59:06.000Z</time>
      </trkpt>
      <trkpt lat="45.8239" lon="1.22438">
        <ele>286</ele>
        <time>2020-09-19T09:59:07.000Z</time>
      </trkpt>
      <trkpt lat="45.82388" lon="1.22434">
        <ele>287</ele>
        <time>2020-09-19T09:59:08.000Z</time>
      </trkpt>
      <trkpt lat="45.82387" lon="1.22429">
        <ele>286</ele>
        <time>2020-09-19T09:59:09.000Z</time>
      </trkpt>
      <trkpt lat="45.82385" lon="1.22425">
        <ele>287</ele>
        <time>2020-09-19T09:59:10.000Z</time>
      </trkpt>
      <trkpt lat="45.82383" lon="1.2242">
        <ele>287</ele>
        <time>2020-09-19T09:59:11.000Z</time>
      </trkpt>
      <trkpt lat="45.82382" lon="1.22416">
        <ele>287</ele>
        <time>2020-09-19T09:59:12.000Z</time>
      </trkpt>
      <trkpt lat="45.82381" lon="1.22412">
        <ele>287</ele>
        <time>2020-09-19T09:59:13.000Z</time>
      </trkpt>
      <trkpt lat="45.8238" lon="1.22408">
        <ele>287</ele>
        <time>2020-09-19T09:59:14.000Z</time>
      </trkpt>
      <trkpt lat="45.82379" lon="1.22404">
        <ele>287</ele>
        <time>2020-09-19T09:59:15.000Z</time>
      </trkpt>
      <trkpt lat="45.82379" lon="1.224">
        <ele>287</ele>
        <time>2020-09-19T09:59:16.000Z</time>
      </trkpt>
      <trkpt lat="45.82378" lon="1.22395">
        <ele>287</ele>
        <time>2020-09-19T09:59:17.000Z</time>
      </trkpt>
      <trkpt lat="45.82378" lon="1.22391">
        <ele>287</ele>
        <time>2020-09-19T09:59:18.000Z</time>
      </trkpt>
      <trkpt lat="45.82377" lon="1.22386">
        <ele>286</ele>
        <time>2020-09-19T09:59:19.000Z</time>
      </trkpt>
      <trkpt lat="45.82377" lon="1.22381">
        <ele>286</ele>
        <time>2020-09-19T09:59:20.000Z</time>
      </trkpt>
      <trkpt lat="45.82376" lon="1.22376">
        <ele>287</ele>
        <time>2020-09-19T09:59:21.000Z</time>
      </trkpt>
      <trkpt lat="45.82375" lon="1.22371">
        <ele>286</ele>
        <time>2020-09-19T09:59:22.000Z</time>
      </trkpt>
      <trkpt lat="45.82374" lon="1.22366">
        <ele>286</ele>
        <time>2020-09-19T09:59:23.000Z</time>
      </trkpt>
      <trkpt lat="45.82373" lon="1.22362">
        <ele>286</ele>
        <time>2020-09-19T09:59:24.000Z</time>
      </trkpt>
      <trkpt lat="45.82372" lon="1.22358">
        <ele>287</ele>
        <time>2020-09-19T09:59:25.000Z</time>
      </trkpt>
      <trkpt lat="45.82371" lon="1.22354">
        <ele>287</ele>
        <time>2020-09-19T09:59:26.000Z</time>
      </trkpt>
      <trkpt lat="45.8237" lon="1.2235">
        <ele>286</ele>
        <time>2020-09-19T09:59:27.000Z</time>
      </trkpt>
      <trkpt lat="45.82368" lon="1.22345">
        <ele>287</ele>
        <time>2020-09-19T09:59:28.000Z</time>
      </trkpt>
      <trkpt lat="45.82368" lon="1.22341">
        <ele>287</ele>
        <time>2020-09-19T09:59:29.000Z</time>
      </trkpt>
      <trkpt lat="45.82367" lon="1.22336">
        <ele>287</ele>
        <time>2020-09-19T09:59:30.000Z</time>
      </trkpt>
      <trkpt lat="45.82366" lon="1.22332">
        <ele>287</ele>
        <time>2020-09-19T09:59:31.000Z</time>
      </trkpt>
      <trkpt lat="45.82366" lon="1.22327">
        <ele>288</ele>
        <time>2020-09-19T09:59:32.000Z</time>
      </trkpt>
      <trkpt lat="45.82366" lon="1.22322">
        <ele>288</ele>
        <time>2020-09-19T09:59:33.000Z</time>
      </trkpt>
      <trkpt lat="45.82366" lon="1.22318">
        <ele>288</ele>
        <time>2020-09-19T09:59:34.000Z</time>
      </trkpt>
      <trkpt lat="45.82366" lon="1.22313">
        <ele>287</ele>
        <time>2020-09-19T09:59:35.000Z</time>
      </trkpt>
      <trkpt lat="45.82366" lon="1.22308">
        <ele>286</ele>
        <time>2020-09-19T09:59:36.000Z</time>
      </trkpt>
      <trkpt lat="45.82366" lon="1.22303">
        <ele>286</ele>
        <time>2020-09-19T09:59:37.000Z</time>
      </trkpt>
      <trkpt lat="45.82366" lon="1.22298">
        <ele>286</ele>
        <time>2020-09-19T09:59:38.000Z</time>
      </trkpt>
      <trkpt lat="45.82365" lon="1.22294">
        <ele>287</ele>
        <time>2020-09-19T09:59:39.000Z</time>
      </trkpt>
      <trkpt lat="45.82363" lon="1.22289">
        <ele>289</ele>
        <time>2020-09-19T09:59:40.000Z</time>
      </trkpt>
      <trkpt lat="45.82361" lon="1.22284">
        <ele>290</ele>
        <time>2020-09-19T09:59:41.000Z</time>
      </trkpt>
      <trkpt lat="45.82359" lon="1.22279">
        <ele>289</ele>
        <time>2020-09-19T09:59:42.000Z</time>
      </trkpt>
      <trkpt lat="45.82358" lon="1.22275">
        <ele>289</ele>
        <time>2020-09-19T09:59:43.000Z</time>
      </trkpt>
      <trkpt lat="45.82356" lon="1.2227">
        <ele>288</ele>
        <time>2020-09-19T09:59:44.000Z</time>
      </trkpt>
      <trkpt lat="45.82355" lon="1.22266">
        <ele>287</ele>
        <time>2020-09-19T09:59:45.000Z</time>
      </trkpt>
      <trkpt lat="45.82355" lon="1.22262">
        <ele>285</ele>
        <time>2020-09-19T09:59:46.000Z</time>
      </trkpt>
      <trkpt lat="45.82354" lon="1.22257">
        <ele>284</ele>
        <time>2020-09-19T09:59:47.000Z</time>
      </trkpt>
      <trkpt lat="45.82354" lon="1.22252">
        <ele>284</ele>
        <time>2020-09-19T09:59:48.000Z</time>
      </trkpt>
      <trkpt lat="45.82354" lon="1.22248">
        <ele>283</ele>
        <time>2020-09-19T09:59:49.000Z</time>
      </trkpt>
      <trkpt lat="45.82353" lon="1.22244">
        <ele>282</ele>
        <time>2020-09-19T09:59:50.000Z</time>
      </trkpt>
      <trkpt lat="45.82353" lon="1.2224">
        <ele>281</ele>
        <time>2020-09-19T09:59:51.000Z</time>
      </trkpt>
      <trkpt lat="45.82352" lon="1.22235">
        <ele>282</ele>
        <time>2020-09-19T09:59:52.000Z</time>
      </trkpt>
      <trkpt lat="45.82351" lon="1.22231">
        <ele>282</ele>
        <time>2020-09-19T09:59:53.000Z</time>
      </trkpt>
      <trkpt lat="45.8235" lon="1.22226">
        <ele>281</ele>
        <time>2020-09-19T09:59:54.000Z</time>
      </trkpt>
      <trkpt lat="45.82349" lon="1.22221">
        <ele>281</ele>
        <time>2020-09-19T09:59:55.000Z</time>
      </trkpt>
      <trkpt lat="45.82348" lon="1.22216">
        <ele>281</ele>
        <time>2020-09-19T09:59:56.000Z</time>
      </trkpt>
      <trkpt lat="45.82348" lon="1.22212">
        <ele>280</ele>
        <time>2020-09-19T09:59:57.000Z</time>
      </trkpt>
      <trkpt lat="45.82347" lon="1.22208">
        <ele>280</ele>
        <time>2020-09-19T09:59:58.000Z</time>
      </trkpt>
      <trkpt lat="45.82346" lon="1.22203">
        <ele>279</ele>
        <time>2020-09-19T09:59:59.000Z</time>
      </trkpt>
      <trkpt lat="45.82345" lon="1.22198">
        <ele>279</ele>
        <time>2020-09-19T10:00:00.000Z</time>
      </trkpt>
      <trkpt lat="45.82345" lon="1.22194">
        <ele>279</ele>
        <time>2020-09-19T10:00:01.000Z</time>
      </trkpt>
      <trkpt lat="45.82345" lon="1.22189">
        <ele>277</ele>
        <time>2020-09-19T10:00:02.000Z</time>
      </trkpt>
      <trkpt lat="45.82344" lon="1.22184">
        <ele>277</ele>
        <time>2020-09-19T10:00:03.000Z</time>
      </trkpt>
      <trkpt lat="45.82343" lon="1.22179">
        <ele>276</ele>
        <time>2020-09-19T10:00:04.000Z</time>
      </trkpt>
      <trkpt lat="45.82342" lon="1.22175">
        <ele>276</ele>
        <time>2020-09-19T10:00:05.000Z</time>
      </trkpt>
      <trkpt lat="45.82341" lon="1.2217">
        <ele>275</ele>
        <time>2020-09-19T10:00:06.000Z</time>
      </trkpt>
      <trkpt lat="45.8234" lon="1.22166">
        <ele>275</ele>
        <time>2020-09-19T10:00:07.000Z</time>
      </trkpt>
      <trkpt lat="45.8234" lon="1.22161">
        <ele>275</ele>
        <time>2020-09-19T10:00:08.000Z</time>
      </trkpt>
      <trkpt lat="45.82339" lon="1.22156">
        <ele>275</ele>
        <time>2020-09-19T10:00:09.000Z</time>
      </trkpt>
      <trkpt lat="45.82338" lon="1.22151">
        <ele>275</ele>
        <time>2020-09-19T10:00:10.000Z</time>
      </trkpt>
      <trkpt lat="45.82337" lon="1.22147">
        <ele>275</ele>
        <time>2020-09-19T10:00:11.000Z</time>
      </trkpt>
      <trkpt lat="45.82336" lon="1.22142">
        <ele>275</ele>
        <time>2020-09-19T10:00:12.000Z</time>
      </trkpt>
      <trkpt lat="45.82335" lon="1.22137">
        <ele>275</ele>
        <time>2020-09-19T10:00:13.000Z</time>
      </trkpt>
      <trkpt lat="45.82334" lon="1.22131">
        <ele>276</ele>
        <time>2020-09-19T10:00:14.000Z</time>
      </trkpt>
      <trkpt lat="45.82333" lon="1.22126">
        <ele>275</ele>
        <time>2020-09-19T10:00:15.000Z</time>
      </trkpt>
      <trkpt lat="45.82332" lon="1.2212">
        <ele>275</ele>
        <time>2020-09-19T10:00:16.000Z</time>
      </trkpt>
      <trkpt lat="45.82332" lon="1.22116">
        <ele>275</ele>
        <time>2020-09-19T10:00:17.000Z</time>
      </trkpt>
      <trkpt lat="45.82331" lon="1.22111">
        <ele>274</ele>
        <time>2020-09-19T10:00:18.000Z</time>
      </trkpt>
      <trkpt lat="45.8233" lon="1.22107">
        <ele>273</ele>
        <time>2020-09-19T10:00:19.000Z</time>
      </trkpt>
      <trkpt lat="45.8233" lon="1.22103">
        <ele>272</ele>
        <time>2020-09-19T10:00:20.000Z</time>
      </trkpt>
      <trkpt lat="45.82329" lon="1.22099">
        <ele>272</ele>
        <time>2020-09-19T10:00:21.000Z</time>
      </trkpt>
      <trkpt lat="45.82329" lon="1.22094">
        <ele>271</ele>
        <time>2020-09-19T10:00:22.000Z</time>
      </trkpt>
      <trkpt lat="45.82328" lon="1.22089">
        <ele>271</ele>
        <time>2020-09-19T10:00:23.000Z</time>
      </trkpt>
      <trkpt lat="45.82328" lon="1.22085">
        <ele>270</ele>
        <time>2020-09-19T10:00:24.000Z</time>
      </trkpt>
      <trkpt lat="45.82328" lon="1.2208">
        <ele>269</ele>
        <time>2020-09-19T10:00:25.000Z</time>
      </trkpt>
      <trkpt lat="45.82327" lon="1.22074">
        <ele>269</ele>
        <time>2020-09-19T10:00:26.000Z</time>
      </trkpt>
      <trkpt lat="45.82326" lon="1.22069">
        <ele>269</ele>
        <time>2020-09-19T10:00:27.000Z</time>
      </trkpt>
      <trkpt lat="45.82326" lon="1.22064">
        <ele>270</ele>
        <time>2020-09-19T10:00:28.000Z</time>
      </trkpt>
      <trkpt lat="45.82325" lon="1.22059">
        <ele>271</ele>
        <time>2020-09-19T10:00:29.000Z</time>
      </trkpt>
      <trkpt lat="45.82324" lon="1.22054">
        <ele>271</ele>
        <time>2020-09-19T10:00:30.000Z</time>
      </trkpt>
      <trkpt lat="45.82323" lon="1.22049">
        <ele>271</ele>
        <time>2020-09-19T10:00:31.000Z</time>
      </trkpt>
      <trkpt lat="45.82322" lon="1.22045">
        <ele>271</ele>
        <time>2020-09-19T10:00:32.000Z</time>
      </trkpt>
      <trkpt lat="45.82322" lon="1.22041">
        <ele>269</ele>
        <time>2020-09-19T10:00:33.000Z</time>
      </trkpt>
      <trkpt lat="45.82321" lon="1.22037">
        <ele>269</ele>
        <time>2020-09-19T10:00:34.000Z</time>
      </trkpt>
      <trkpt lat="45.82321" lon="1.22033">
        <ele>268</ele>
        <time>2020-09-19T10:00:35.000Z</time>
      </trkpt>
      <trkpt lat="45.82321" lon="1.22028">
        <ele>270</ele>
        <time>2020-09-19T10:00:36.000Z</time>
      </trkpt>
      <trkpt lat="45.82322" lon="1.22022">
        <ele>270</ele>
        <time>2020-09-19T10:00:37.000Z</time>
      </trkpt>
      <trkpt lat="45.82322" lon="1.22017">
        <ele>270</ele>
        <time>2020-09-19T10:00:38.000Z</time>
      </trkpt>
      <trkpt lat="45.82321" lon="1.22012">
        <ele>270</ele>
        <time>2020-09-19T10:00:39.000Z</time>
      </trkpt>
      <trkpt lat="45.82321" lon="1.22007">
        <ele>270</ele>
        <time>2020-09-19T10:00:40.000Z</time>
      </trkpt>
      <trkpt lat="45.8232" lon="1.22002">
        <ele>269</ele>
        <time>2020-09-19T10:00:41.000Z</time>
      </trkpt>
      <trkpt lat="45.8232" lon="1.21998">
        <ele>268</ele>
        <time>2020-09-19T10:00:42.000Z</time>
      </trkpt>
      <trkpt lat="45.8232" lon="1.21994">
        <ele>268</ele>
        <time>2020-09-19T10:00:43.000Z</time>
      </trkpt>
      <trkpt lat="45.8232" lon="1.21989">
        <ele>268</ele>
        <time>2020-09-19T10:00:44.000Z</time>
      </trkpt>
      <trkpt lat="45.82319" lon="1.21985">
        <ele>268</ele>
        <time>2020-09-19T10:00:45.000Z</time>
      </trkpt>
      <trkpt lat="45.82318" lon="1.21981">
        <ele>268</ele>
        <time>2020-09-19T10:00:46.000Z</time>
      </trkpt>
      <trkpt lat="45.82317" lon="1.21976">
        <ele>268</ele>
        <time>2020-09-19T10:00:47.000Z</time>
      </trkpt>
      <trkpt lat="45.82316" lon="1.21972">
        <ele>267</ele>
        <time>2020-09-19T10:00:48.000Z</time>
      </trkpt>
      <trkpt lat="45.82315" lon="1.21967">
        <ele>267</ele>
        <time>2020-09-19T10:00:49.000Z</time>
      </trkpt>
      <trkpt lat="45.82314" lon="1.21964">
        <ele>266</ele>
        <time>2020-09-19T10:00:50.000Z</time>
      </trkpt>
      <trkpt lat="45.82313" lon="1.2196">
        <ele>266</ele>
        <time>2020-09-19T10:00:51.000Z</time>
      </trkpt>
      <trkpt lat="45.82312" lon="1.21955">
        <ele>265</ele>
        <time>2020-09-19T10:00:52.000Z</time>
      </trkpt>
      <trkpt lat="45.82311" lon="1.21951">
        <ele>264</ele>
        <time>2020-09-19T10:00:53.000Z</time>
      </trkpt>
      <trkpt lat="45.8231" lon="1.21947">
        <ele>264</ele>
        <time>2020-09-19T10:00:54.000Z</time>
      </trkpt>
      <trkpt lat="45.82309" lon="1.21943">
        <ele>264</ele>
        <time>2020-09-19T10:00:55.000Z</time>
      </trkpt>
      <trkpt lat="45.82307" lon="1.21939">
        <ele>264</ele>
        <time>2020-09-19T10:00:56.000Z</time>
      </trkpt>
      <trkpt lat="45.82306" lon="1.21934">
        <ele>264</ele>
        <time>2020-09-19T10:00:57.000Z</time>
      </trkpt>
      <trkpt lat="45.82303" lon="1.21929">
        <ele>264</ele>
        <time>2020-09-19T10:00:58.000Z</time>
      </trkpt>
      <trkpt lat="45.82302" lon="1.21924">
        <ele>264</ele>
        <time>2020-09-19T10:00:59.000Z</time>
      </trkpt>
      <trkpt lat="45.823" lon="1.2192">
        <ele>264</ele>
        <time>2020-09-19T10:01:00.000Z</time>
      </trkpt>
      <trkpt lat="45.82299" lon="1.21915">
        <ele>263</ele>
        <time>2020-09-19T10:01:01.000Z</time>
      </trkpt>
      <trkpt lat="45.82297" lon="1.21911">
        <ele>263</ele>
        <time>2020-09-19T10:01:02.000Z</time>
      </trkpt>
      <trkpt lat="45.82296" lon="1.21906">
        <ele>263</ele>
        <time>2020-09-19T10:01:03.000Z</time>
      </trkpt>
      <trkpt lat="45.82295" lon="1.21902">
        <ele>263</ele>
        <time>2020-09-19T10:01:04.000Z</time>
      </trkpt>
      <trkpt lat="45.82293" lon="1.21898">
        <ele>263</ele>
        <time>2020-09-19T10:01:05.000Z</time>
      </trkpt>
      <trkpt lat="45.82292" lon="1.21893">
        <ele>262</ele>
        <time>2020-09-19T10:01:06.000Z</time>
      </trkpt>
      <trkpt lat="45.8229" lon="1.21888">
        <ele>262</ele>
        <time>2020-09-19T10:01:07.000Z</time>
      </trkpt>
      <trkpt lat="45.82289" lon="1.21884">
        <ele>262</ele>
        <time>2020-09-19T10:01:08.000Z</time>
      </trkpt>
      <trkpt lat="45.82288" lon="1.21879">
        <ele>262</ele>
        <time>2020-09-19T10:01:09.000Z</time>
      </trkpt>
      <trkpt lat="45.82287" lon="1.21874">
        <ele>262</ele>
        <time>2020-09-19T10:01:10.000Z</time>
      </trkpt>
      <trkpt lat="45.82285" lon="1.21869">
        <ele>262</ele>
        <time>2020-09-19T10:01:11.000Z</time>
      </trkpt>
      <trkpt lat="45.82284" lon="1.21864">
        <ele>260</ele>
        <time>2020-09-19T10:01:12.000Z</time>
      </trkpt>
      <trkpt lat="45.82282" lon="1.2186">
        <ele>259</ele>
        <time>2020-09-19T10:01:13.000Z</time>
      </trkpt>
      <trkpt lat="45.82281" lon="1.21857">
        <ele>259</ele>
        <time>2020-09-19T10:01:14.000Z</time>
      </trkpt>
      <trkpt lat="45.82279" lon="1.21853">
        <ele>259</ele>
        <time>2020-09-19T10:01:15.000Z</time>
      </trkpt>
      <trkpt lat="45.82278" lon="1.21848">
        <ele>258</ele>
        <time>2020-09-19T10:01:16.000Z</time>
      </trkpt>
      <trkpt lat="45.82276" lon="1.21844">
        <ele>259</ele>
        <time>2020-09-19T10:01:17.000Z</time>
      </trkpt>
      <trkpt lat="45.82275" lon="1.2184">
        <ele>259</ele>
        <time>2020-09-19T10:01:18.000Z</time>
      </trkpt>
      <trkpt lat="45.82275" lon="1.21835">
        <ele>259</ele>
        <time>2020-09-19T10:01:19.000Z</time>
      </trkpt>
      <trkpt lat="45.82275" lon="1.21831">
        <ele>259</ele>
        <time>2020-09-19T10:01:20.000Z</time>
      </trkpt>
      <trkpt lat="45.82275" lon="1.21827">
        <ele>259</ele>
        <time>2020-09-19T10:01:21.000Z</time>
      </trkpt>
      <trkpt lat="45.82274" lon="1.21824">
        <ele>259</ele>
        <time>2020-09-19T10:01:22.000Z</time>
      </trkpt>
      <trkpt lat="45.82273" lon="1.2182">
        <ele>258</ele>
        <time>2020-09-19T10:01:23.000Z</time>
      </trkpt>
      <trkpt lat="45.82272" lon="1.21816">
        <ele>258</ele>
        <time>2020-09-19T10:01:24.000Z</time>
      </trkpt>
      <trkpt lat="45.82271" lon="1.21812">
        <ele>259</ele>
        <time>2020-09-19T10:01:25.000Z</time>
      </trkpt>
      <trkpt lat="45.82269" lon="1.21809">
        <ele>259</ele>
        <time>2020-09-19T10:01:26.000Z</time>
      </trkpt>
      <trkpt lat="45.82267" lon="1.21804">
        <ele>259</ele>
        <time>2020-09-19T10:01:27.000Z</time>
      </trkpt>
      <trkpt lat="45.82265" lon="1.218">
        <ele>259</ele>
        <time>2020-09-19T10:01:28.000Z</time>
      </trkpt>
      <trkpt lat="45.82263" lon="1.21797">
        <ele>259</ele>
        <time>2020-09-19T10:01:29.000Z</time>
      </trkpt>
      <trkpt lat="45.82261" lon="1.21793">
        <ele>259</ele>
        <time>2020-09-19T10:01:30.000Z</time>
      </trkpt>
      <trkpt lat="45.82258" lon="1.21789">
        <ele>258</ele>
        <time>2020-09-19T10:01:31.000Z</time>
      </trkpt>
      <trkpt lat="45.82257" lon="1.21784">
        <ele>258</ele>
        <time>2020-09-19T10:01:32.000Z</time>
      </trkpt>
      <trkpt lat="45.82255" lon="1.21779">
        <ele>257</ele>
        <time>2020-09-19T10:01:33.000Z</time>
      </trkpt>
      <trkpt lat="45.82253" lon="1.21774">
        <ele>258</ele>
        <time>2020-09-19T10:01:34.000Z</time>
      </trkpt>
      <trkpt lat="45.82251" lon="1.21769">
        <ele>258</ele>
        <time>2020-09-19T10:01:35.000Z</time>
      </trkpt>
      <trkpt lat="45.8225" lon="1.21764">
        <ele>259</ele>
        <time>2020-09-19T10:01:36.000Z</time>
      </trkpt>
      <trkpt lat="45.82248" lon="1.21759">
        <ele>258</ele>
        <time>2020-09-19T10:01:37.000Z</time>
      </trkpt>
      <trkpt lat="45.82247" lon="1.21755">
        <ele>258</ele>
        <time>2020-09-19T10:01:38.000Z</time>
      </trkpt>
      <trkpt lat="45.82245" lon="1.21751">
        <ele>259</ele>
        <time>2020-09-19T10:01:39.000Z</time>
      </trkpt>
      <trkpt lat="45.82243" lon="1.21747">
        <ele>259</ele>
        <time>2020-09-19T10:01:40.000Z</time>
      </trkpt>
      <trkpt lat="45.82241" lon="1.21743">
        <ele>260</ele>
        <time>2020-09-19T10:01:41.000Z</time>
      </trkpt>
      <trkpt lat="45.82239" lon="1.21739">
        <ele>261</ele>
        <time>2020-09-19T10:01:42.000Z</time>
      </trkpt>
      <trkpt lat="45.82237" lon="1.21734">
        <ele>261</ele>
        <time>2020-09-19T10:01:43.000Z</time>
      </trkpt>
      <trkpt lat="45.82235" lon="1.2173">
        <ele>261</ele>
        <time>2020-09-19T10:01:44.000Z</time>
      </trkpt>
      <trkpt lat="45.82233" lon="1.21725">
        <ele>261</ele>
        <time>2020-09-19T10:01:45.000Z</time>
      </trkpt>
      <trkpt lat="45.82231" lon="1.21721">
        <ele>260</ele>
        <time>2020-09-19T10:01:46.000Z</time>
      </trkpt>
      <trkpt lat="45.82229" lon="1.21716">
        <ele>261</ele>
        <time>2020-09-19T10:01:47.000Z</time>
      </trkpt>
      <trkpt lat="45.82227" lon="1.21711">
        <ele>260</ele>
        <time>2020-09-19T10:01:48.000Z</time>
      </trkpt>
      <trkpt lat="45.82225" lon="1.21707">
        <ele>260</ele>
        <time>2020-09-19T10:01:49.000Z</time>
      </trkpt>
      <trkpt lat="45.82223" lon="1.21703">
        <ele>260</ele>
        <time>2020-09-19T10:01:50.000Z</time>
      </trkpt>
      <trkpt lat="45.82221" lon="1.21699">
        <ele>260</ele>
        <time>2020-09-19T10:01:51.000Z</time>
      </trkpt>
      <trkpt lat="45.82219" lon="1.21695">
        <ele>260</ele>
        <time>2020-09-19T10:01:52.000Z</time>
      </trkpt>
      <trkpt lat="45.82216" lon="1.2169">
        <ele>260</ele>
        <time>2020-09-19T10:01:53.000Z</time>
      </trkpt>
      <trkpt lat="45.82214" lon="1.21686">
        <ele>260</ele>
        <time>2020-09-19T10:01:54.000Z</time>
      </trkpt>
      <trkpt lat="45.82212" lon="1.21681">
        <ele>260</ele>
        <time>2020-09-19T10:01:55.000Z</time>
      </trkpt>
      <trkpt lat="45.82211" lon="1.21677">
        <ele>259</ele>
        <time>2020-09-19T10:01:56.000Z</time>
      </trkpt>
      <trkpt lat="45.82209" lon="1.21674">
        <ele>259</ele>
        <time>2020-09-19T10:01:57.000Z</time>
      </trkpt>
      <trkpt lat="45.82207" lon="1.2167">
        <ele>258</ele>
        <time>2020-09-19T10:01:58.000Z</time>
      </trkpt>
      <trkpt lat="45.82205" lon="1.21666">
        <ele>258</ele>
        <time>2020-09-19T10:01:59.000Z</time>
      </trkpt>
      <trkpt lat="45.82203" lon="1.21661">
        <ele>258</ele>
        <time>2020-09-19T10:02:00.000Z</time>
      </trkpt>
      <trkpt lat="45.82202" lon="1.21657">
        <ele>258</ele>
        <time>2020-09-19T10:02:01.000Z</time>
      </trkpt>
      <trkpt lat="45.822" lon="1.21652">
        <ele>258</ele>
        <time>2020-09-19T10:02:02.000Z</time>
      </trkpt>
      <trkpt lat="45.82199" lon="1.21647">
        <ele>259</ele>
        <time>2020-09-19T10:02:03.000Z</time>
      </trkpt>
      <trkpt lat="45.82198" lon="1.21643">
        <ele>259</ele>
        <time>2020-09-19T10:02:04.000Z</time>
      </trkpt>
      <trkpt lat="45.82197" lon="1.21638">
        <ele>259</ele>
        <time>2020-09-19T10:02:05.000Z</time>
      </trkpt>
      <trkpt lat="45.82195" lon="1.21634">
        <ele>261</ele>
        <time>2020-09-19T10:02:06.000Z</time>
      </trkpt>
      <trkpt lat="45.82193" lon="1.2163">
        <ele>261</ele>
        <time>2020-09-19T10:02:07.000Z</time>
      </trkpt>
      <trkpt lat="45.82192" lon="1.21626">
        <ele>261</ele>
        <time>2020-09-19T10:02:08.000Z</time>
      </trkpt>
      <trkpt lat="45.8219" lon="1.21622">
        <ele>261</ele>
        <time>2020-09-19T10:02:09.000Z</time>
      </trkpt>
      <trkpt lat="45.82189" lon="1.21617">
        <ele>262</ele>
        <time>2020-09-19T10:02:10.000Z</time>
      </trkpt>
      <trkpt lat="45.82187" lon="1.21613">
        <ele>261</ele>
        <time>2020-09-19T10:02:11.000Z</time>
      </trkpt>
      <trkpt lat="45.82185" lon="1.21609">
        <ele>262</ele>
        <time>2020-09-19T10:02:12.000Z</time>
      </trkpt>
      <trkpt lat="45.82184" lon="1.21604">
        <ele>261</ele>
        <time>2020-09-19T10:02:13.000Z</time>
      </trkpt>
      <trkpt lat="45.82182" lon="1.216">
        <ele>260</ele>
        <time>2020-09-19T10:02:14.000Z</time>
      </trkpt>
      <trkpt lat="45.8218" lon="1.21595">
        <ele>259</ele>
        <time>2020-09-19T10:02:15.000Z</time>
      </trkpt>
      <trkpt lat="45.82179" lon="1.21591">
        <ele>258</ele>
        <time>2020-09-19T10:02:16.000Z</time>
      </trkpt>
      <trkpt lat="45.82177" lon="1.21586">
        <ele>257</ele>
        <time>2020-09-19T10:02:17.000Z</time>
      </trkpt>
      <trkpt lat="45.82175" lon="1.21582">
        <ele>257</ele>
        <time>2020-09-19T10:02:18.000Z</time>
      </trkpt>
      <trkpt lat="45.82174" lon="1.21578">
        <ele>256</ele>
        <time>2020-09-19T10:02:19.000Z</time>
      </trkpt>
      <trkpt lat="45.82172" lon="1.21574">
        <ele>255</ele>
        <time>2020-09-19T10:02:20.000Z</time>
      </trkpt>
      <trkpt lat="45.8217" lon="1.2157">
        <ele>254</ele>
        <time>2020-09-19T10:02:21.000Z</time>
      </trkpt>
      <trkpt lat="45.82169" lon="1.21566">
        <ele>254</ele>
        <time>2020-09-19T10:02:22.000Z</time>
      </trkpt>
      <trkpt lat="45.82167" lon="1.21561">
        <ele>253</ele>
        <time>2020-09-19T10:02:23.000Z</time>
      </trkpt>
      <trkpt lat="45.82166" lon="1.21557">
        <ele>252</ele>
        <time>2020-09-19T10:02:24.000Z</time>
      </trkpt>
      <trkpt lat="45.82165" lon="1.21552">
        <ele>251</ele>
        <time>2020-09-19T10:02:25.000Z</time>
      </trkpt>
      <trkpt lat="45.82164" lon="1.21547">
        <ele>251</ele>
        <time>2020-09-19T10:02:26.000Z</time>
      </trkpt>
      <trkpt lat="45.82164" lon="1.21543">
        <ele>250</ele>
        <time>2020-09-19T10:02:27.000Z</time>
      </trkpt>
      <trkpt lat="45.82163" lon="1.21538">
        <ele>249</ele>
        <time>2020-09-19T10:02:28.000Z</time>
      </trkpt>
      <trkpt lat="45.82162" lon="1.21534">
        <ele>249</ele>
        <time>2020-09-19T10:02:29.000Z</time>
      </trkpt>
      <trkpt lat="45.82161" lon="1.2153">
        <ele>249</ele>
        <time>2020-09-19T10:02:30.000Z</time>
      </trkpt>
      <trkpt lat="45.82161" lon="1.21525">
        <ele>248</ele>
        <time>2020-09-19T10:02:31.000Z</time>
      </trkpt>
      <trkpt lat="45.8216" lon="1.2152">
        <ele>247</ele>
        <time>2020-09-19T10:02:32.000Z</time>
      </trkpt>
      <trkpt lat="45.8216" lon="1.21516">
        <ele>246</ele>
        <time>2020-09-19T10:02:33.000Z</time>
      </trkpt>
      <trkpt lat="45.82159" lon="1.21512">
        <ele>245</ele>
        <time>2020-09-19T10:02:34.000Z</time>
      </trkpt>
      <trkpt lat="45.82158" lon="1.21508">
        <ele>244</ele>
        <time>2020-09-19T10:02:35.000Z</time>
      </trkpt>
      <trkpt lat="45.82157" lon="1.21504">
        <ele>244</ele>
        <time>2020-09-19T10:02:36.000Z</time>
      </trkpt>
      <trkpt lat="45.82157" lon="1.215">
        <ele>244</ele>
        <time>2020-09-19T10:02:37.000Z</time>
      </trkpt>
      <trkpt lat="45.82156" lon="1.21496">
        <ele>243</ele>
        <time>2020-09-19T10:02:38.000Z</time>
      </trkpt>
      <trkpt lat="45.82156" lon="1.21492">
        <ele>243</ele>
        <time>2020-09-19T10:02:39.000Z</time>
      </trkpt>
      <trkpt lat="45.82155" lon="1.21488">
        <ele>242</ele>
        <time>2020-09-19T10:02:40.000Z</time>
      </trkpt>
      <trkpt lat="45.82154" lon="1.21484">
        <ele>241</ele>
        <time>2020-09-19T10:02:41.000Z</time>
      </trkpt>
      <trkpt lat="45.82154" lon="1.2148">
        <ele>240</ele>
        <time>2020-09-19T10:02:42.000Z</time>
      </trkpt>
      <trkpt lat="45.82153" lon="1.21475">
        <ele>239</ele>
        <time>2020-09-19T10:02:43.000Z</time>
      </trkpt>
      <trkpt lat="45.82153" lon="1.21471">
        <ele>238</ele>
        <time>2020-09-19T10:02:44.000Z</time>
      </trkpt>
      <trkpt lat="45.82152" lon="1.21466">
        <ele>238</ele>
        <time>2020-09-19T10:02:45.000Z</time>
      </trkpt>
      <trkpt lat="45.82152" lon="1.21461">
        <ele>238</ele>
        <time>2020-09-19T10:02:46.000Z</time>
      </trkpt>
      <trkpt lat="45.82152" lon="1.21457">
        <ele>239</ele>
        <time>2020-09-19T10:02:47.000Z</time>
      </trkpt>
      <trkpt lat="45.82152" lon="1.21452">
        <ele>240</ele>
        <time>2020-09-19T10:02:48.000Z</time>
      </trkpt>
      <trkpt lat="45.82153" lon="1.21447">
        <ele>241</ele>
        <time>2020-09-19T10:02:49.000Z</time>
      </trkpt>
      <trkpt lat="45.82154" lon="1.21443">
        <ele>242</ele>
        <time>2020-09-19T10:02:50.000Z</time>
      </trkpt>
      <trkpt lat="45.82155" lon="1.21438">
        <ele>242</ele>
        <time>2020-09-19T10:02:51.000Z</time>
      </trkpt>
      <trkpt lat="45.82155" lon="1.21433">
        <ele>242</ele>
        <time>2020-09-19T10:02:52.000Z</time>
      </trkpt>
      <trkpt lat="45.82155" lon="1.21428">
        <ele>242</ele>
        <time>2020-09-19T10:02:53.000Z</time>
      </trkpt>
      <trkpt lat="45.82156" lon="1.21425">
        <ele>238</ele>
        <time>2020-09-19T10:02:54.000Z</time>
      </trkpt>
      <trkpt lat="45.82158" lon="1.21421">
        <ele>237</ele>
        <time>2020-09-19T10:02:55.000Z</time>
      </trkpt>
      <trkpt lat="45.82159" lon="1.21417">
        <ele>237</ele>
        <time>2020-09-19T10:02:56.000Z</time>
      </trkpt>
      <trkpt lat="45.8216" lon="1.21413">
        <ele>237</ele>
        <time>2020-09-19T10:02:57.000Z</time>
      </trkpt>
      <trkpt lat="45.8216" lon="1.21408">
        <ele>237</ele>
        <time>2020-09-19T10:02:58.000Z</time>
      </trkpt>
      <trkpt lat="45.8216" lon="1.21402">
        <ele>237</ele>
        <time>2020-09-19T10:02:59.000Z</time>
      </trkpt>
      <trkpt lat="45.8216" lon="1.21397">
        <ele>238</ele>
        <time>2020-09-19T10:03:00.000Z</time>
      </trkpt>
      <trkpt lat="45.8216" lon="1.21392">
        <ele>237</ele>
        <time>2020-09-19T10:03:01.000Z</time>
      </trkpt>
      <trkpt lat="45.8216" lon="1.21388">
        <ele>237</ele>
        <time>2020-09-19T10:03:02.000Z</time>
      </trkpt>
      <trkpt lat="45.82161" lon="1.21383">
        <ele>237</ele>
        <time>2020-09-19T10:03:03.000Z</time>
      </trkpt>
      <trkpt lat="45.82162" lon="1.21379">
        <ele>236</ele>
        <time>2020-09-19T10:03:04.000Z</time>
      </trkpt>
      <trkpt lat="45.82162" lon="1.21375">
        <ele>234</ele>
        <time>2020-09-19T10:03:05.000Z</time>
      </trkpt>
      <trkpt lat="45.82162" lon="1.21371">
        <ele>233</ele>
        <time>2020-09-19T10:03:06.000Z</time>
      </trkpt>
      <trkpt lat="45.8216" lon="1.21367">
        <ele>232</ele>
        <time>2020-09-19T10:03:07.000Z</time>
      </trkpt>
      <trkpt lat="45.82158" lon="1.21363">
        <ele>231</ele>
        <time>2020-09-19T10:03:08.000Z</time>
      </trkpt>
      <trkpt lat="45.82157" lon="1.21359">
        <ele>231</ele>
        <time>2020-09-19T10:03:09.000Z</time>
      </trkpt>
      <trkpt lat="45.82157" lon="1.21354">
        <ele>231</ele>
        <time>2020-09-19T10:03:10.000Z</time>
      </trkpt>
      <trkpt lat="45.82157" lon="1.2135">
        <ele>230</ele>
        <time>2020-09-19T10:03:11.000Z</time>
      </trkpt>
      <trkpt lat="45.82156" lon="1.21346">
        <ele>229</ele>
        <time>2020-09-19T10:03:12.000Z</time>
      </trkpt>
      <trkpt lat="45.82156" lon="1.21342">
        <ele>229</ele>
        <time>2020-09-19T10:03:13.000Z</time>
      </trkpt>
      <trkpt lat="45.82156" lon="1.21338">
        <ele>228</ele>
        <time>2020-09-19T10:03:14.000Z</time>
      </trkpt>
      <trkpt lat="45.82156" lon="1.21334">
        <ele>227</ele>
        <time>2020-09-19T10:03:15.000Z</time>
      </trkpt>
      <trkpt lat="45.82156" lon="1.2133">
        <ele>226</ele>
        <time>2020-09-19T10:03:16.000Z</time>
      </trkpt>
      <trkpt lat="45.82156" lon="1.21325">
        <ele>226</ele>
        <time>2020-09-19T10:03:17.000Z</time>
      </trkpt>
      <trkpt lat="45.82156" lon="1.2132">
        <ele>226</ele>
        <time>2020-09-19T10:03:18.000Z</time>
      </trkpt>
      <trkpt lat="45.82156" lon="1.21315">
        <ele>227</ele>
        <time>2020-09-19T10:03:19.000Z</time>
      </trkpt>
      <trkpt lat="45.82157" lon="1.2131">
        <ele>226</ele>
        <time>2020-09-19T10:03:20.000Z</time>
      </trkpt>
      <trkpt lat="45.82157" lon="1.21305">
        <ele>226</ele>
        <time>2020-09-19T10:03:21.000Z</time>
      </trkpt>
      <trkpt lat="45.82157" lon="1.213">
        <ele>227</ele>
        <time>2020-09-19T10:03:22.000Z</time>
      </trkpt>
      <trkpt lat="45.82157" lon="1.21295">
        <ele>226</ele>
        <time>2020-09-19T10:03:23.000Z</time>
      </trkpt>
      <trkpt lat="45.82157" lon="1.2129">
        <ele>226</ele>
        <time>2020-09-19T10:03:24.000Z</time>
      </trkpt>
      <trkpt lat="45.82157" lon="1.21286">
        <ele>226</ele>
        <time>2020-09-19T10:03:25.000Z</time>
      </trkpt>
      <trkpt lat="45.82157" lon="1.21281">
        <ele>225</ele>
        <time>2020-09-19T10:03:26.000Z</time>
      </trkpt>
      <trkpt lat="45.82158" lon="1.21277">
        <ele>225</ele>
        <time>2020-09-19T10:03:27.000Z</time>
      </trkpt>
      <trkpt lat="45.82158" lon="1.21272">
        <ele>223</ele>
        <time>2020-09-19T10:03:28.000Z</time>
      </trkpt>
      <trkpt lat="45.82158" lon="1.21267">
        <ele>223</ele>
        <time>2020-09-19T10:03:29.000Z</time>
      </trkpt>
      <trkpt lat="45.82158" lon="1.21262">
        <ele>223</ele>
        <time>2020-09-19T10:03:30.000Z</time>
      </trkpt>
      <trkpt lat="45.82158" lon="1.21257">
        <ele>223</ele>
        <time>2020-09-19T10:03:31.000Z</time>
      </trkpt>
      <trkpt lat="45.82158" lon="1.21251">
        <ele>223</ele>
        <time>2020-09-19T10:03:32.000Z</time>
      </trkpt>
      <trkpt lat="45.82157" lon="1.21246">
        <ele>223</ele>
        <time>2020-09-19T10:03:33.000Z</time>
      </trkpt>
      <trkpt lat="45.82156" lon="1.21241">
        <ele>222</ele>
        <time>2020-09-19T10:03:34.000Z</time>
      </trkpt>
      <trkpt lat="45.82155" lon="1.21236">
        <ele>223</ele>
        <time>2020-09-19T10:03:35.000Z</time>
      </trkpt>
      <trkpt lat="45.82154" lon="1.21231">
        <ele>223</ele>
        <time>2020-09-19T10:03:36.000Z</time>
      </trkpt>
      <trkpt lat="45.82153" lon="1.21226">
        <ele>223</ele>
        <time>2020-09-19T10:03:37.000Z</time>
      </trkpt>
      <trkpt lat="45.82152" lon="1.21222">
        <ele>222</ele>
        <time>2020-09-19T10:03:38.000Z</time>
      </trkpt>
      <trkpt lat="45.82151" lon="1.21218">
        <ele>222</ele>
        <time>2020-09-19T10:03:39.000Z</time>
      </trkpt>
      <trkpt lat="45.8215" lon="1.21214">
        <ele>223</ele>
        <time>2020-09-19T10:03:40.000Z</time>
      </trkpt>
      <trkpt lat="45.82149" lon="1.21209">
        <ele>222</ele>
        <time>2020-09-19T10:03:41.000Z</time>
      </trkpt>
      <trkpt lat="45.82149" lon="1.21205">
        <ele>222</ele>
        <time>2020-09-19T10:03:42.000Z</time>
      </trkpt>
      <trkpt lat="45.82148" lon="1.212">
        <ele>222</ele>
        <time>2020-09-19T10:03:43.000Z</time>
      </trkpt>
      <trkpt lat="45.82148" lon="1.21196">
        <ele>223</ele>
        <time>2020-09-19T10:03:44.000Z</time>
      </trkpt>
      <trkpt lat="45.82147" lon="1.21191">
        <ele>223</ele>
        <time>2020-09-19T10:03:45.000Z</time>
      </trkpt>
      <trkpt lat="45.82146" lon="1.21186">
        <ele>223</ele>
        <time>2020-09-19T10:03:46.000Z</time>
      </trkpt>
      <trkpt lat="45.82146" lon="1.21181">
        <ele>224</ele>
        <time>2020-09-19T10:03:47.000Z</time>
      </trkpt>
      <trkpt lat="45.82145" lon="1.21176">
        <ele>225</ele>
        <time>2020-09-19T10:03:48.000Z</time>
      </trkpt>
      <trkpt lat="45.82144" lon="1.21171">
        <ele>225</ele>
        <time>2020-09-19T10:03:49.000Z</time>
      </trkpt>
      <trkpt lat="45.82143" lon="1.21165">
        <ele>226</ele>
        <time>2020-09-19T10:03:50.000Z</time>
      </trkpt>
      <trkpt lat="45.82142" lon="1.2116">
        <ele>226</ele>
        <time>2020-09-19T10:03:51.000Z</time>
      </trkpt>
      <trkpt lat="45.82141" lon="1.21154">
        <ele>226</ele>
        <time>2020-09-19T10:03:52.000Z</time>
      </trkpt>
      <trkpt lat="45.82141" lon="1.21149">
        <ele>226</ele>
        <time>2020-09-19T10:03:53.000Z</time>
      </trkpt>
      <trkpt lat="45.8214" lon="1.21145">
        <ele>226</ele>
        <time>2020-09-19T10:03:54.000Z</time>
      </trkpt>
      <trkpt lat="45.8214" lon="1.2114">
        <ele>225</ele>
        <time>2020-09-19T10:03:55.000Z</time>
      </trkpt>
      <trkpt lat="45.82139" lon="1.21135">
        <ele>225</ele>
        <time>2020-09-19T10:03:56.000Z</time>
      </trkpt>
      <trkpt lat="45.82138" lon="1.2113">
        <ele>225</ele>
        <time>2020-09-19T10:03:57.000Z</time>
      </trkpt>
      <trkpt lat="45.82138" lon="1.21125">
        <ele>225</ele>
        <time>2020-09-19T10:03:58.000Z</time>
      </trkpt>
      <trkpt lat="45.82137" lon="1.21121">
        <ele>225</ele>
        <time>2020-09-19T10:03:59.000Z</time>
      </trkpt>
      <trkpt lat="45.82136" lon="1.21117">
        <ele>225</ele>
        <time>2020-09-19T10:04:00.000Z</time>
      </trkpt>
      <trkpt lat="45.82136" lon="1.21113">
        <ele>224</ele>
        <time>2020-09-19T10:04:01.000Z</time>
      </trkpt>
      <trkpt lat="45.82135" lon="1.21108">
        <ele>224</ele>
        <time>2020-09-19T10:04:02.000Z</time>
      </trkpt>
      <trkpt lat="45.82134" lon="1.21104">
        <ele>224</ele>
        <time>2020-09-19T10:04:03.000Z</time>
      </trkpt>
      <trkpt lat="45.82134" lon="1.21099">
        <ele>223</ele>
        <time>2020-09-19T10:04:04.000Z</time>
      </trkpt>
      <trkpt lat="45.82133" lon="1.21094">
        <ele>222</ele>
        <time>2020-09-19T10:04:05.000Z</time>
      </trkpt>
      <trkpt lat="45.82132" lon="1.21089">
        <ele>222</ele>
        <time>2020-09-19T10:04:06.000Z</time>
      </trkpt>
      <trkpt lat="45.82131" lon="1.21084">
        <ele>221</ele>
        <time>2020-09-19T10:04:07.000Z</time>
      </trkpt>
      <trkpt lat="45.8213" lon="1.21079">
        <ele>222</ele>
        <time>2020-09-19T10:04:08.000Z</time>
      </trkpt>
      <trkpt lat="45.82129" lon="1.21074">
        <ele>223</ele>
        <time>2020-09-19T10:04:09.000Z</time>
      </trkpt>
      <trkpt lat="45.82128" lon="1.21068">
        <ele>224</ele>
        <time>2020-09-19T10:04:10.000Z</time>
      </trkpt>
      <trkpt lat="45.82127" lon="1.21063">
        <ele>224</ele>
        <time>2020-09-19T10:04:11.000Z</time>
      </trkpt>
      <trkpt lat="45.82126" lon="1.21058">
        <ele>224</ele>
        <time>2020-09-19T10:04:12.000Z</time>
      </trkpt>
      <trkpt lat="45.82125" lon="1.21054">
        <ele>225</ele>
        <time>2020-09-19T10:04:13.000Z</time>
      </trkpt>
      <trkpt lat="45.82124" lon="1.21049">
        <ele>226</ele>
        <time>2020-09-19T10:04:14.000Z</time>
      </trkpt>
      <trkpt lat="45.82123" lon="1.21044">
        <ele>225</ele>
        <time>2020-09-19T10:04:15.000Z</time>
      </trkpt>
      <trkpt lat="45.82122" lon="1.2104">
        <ele>226</ele>
        <time>2020-09-19T10:04:16.000Z</time>
      </trkpt>
      <trkpt lat="45.82121" lon="1.21035">
        <ele>227</ele>
        <time>2020-09-19T10:04:17.000Z</time>
      </trkpt>
      <trkpt lat="45.82121" lon="1.2103">
        <ele>227</ele>
        <time>2020-09-19T10:04:18.000Z</time>
      </trkpt>
      <trkpt lat="45.8212" lon="1.21026">
        <ele>226</ele>
        <time>2020-09-19T10:04:19.000Z</time>
      </trkpt>
      <trkpt lat="45.82119" lon="1.21021">
        <ele>226</ele>
        <time>2020-09-19T10:04:20.000Z</time>
      </trkpt>
      <trkpt lat="45.82118" lon="1.21016">
        <ele>227</ele>
        <time>2020-09-19T10:04:21.000Z</time>
      </trkpt>
      <trkpt lat="45.82117" lon="1.21011">
        <ele>226</ele>
        <time>2020-09-19T10:04:22.000Z</time>
      </trkpt>
      <trkpt lat="45.82116" lon="1.21006">
        <ele>226</ele>
        <time>2020-09-19T10:04:23.000Z</time>
      </trkpt>
      <trkpt lat="45.82116" lon="1.21001">
        <ele>225</ele>
        <time>2020-09-19T10:04:24.000Z</time>
      </trkpt>
      <trkpt lat="45.82115" lon="1.20996">
        <ele>224</ele>
        <time>2020-09-19T10:04:25.000Z</time>
      </trkpt>
      <trkpt lat="45.82115" lon="1.20991">
        <ele>224</ele>
        <time>2020-09-19T10:04:26.000Z</time>
      </trkpt>
      <trkpt lat="45.82114" lon="1.20987">
        <ele>224</ele>
        <time>2020-09-19T10:04:27.000Z</time>
      </trkpt>
      <trkpt lat="45.82113" lon="1.20982">
        <ele>224</ele>
        <time>2020-09-19T10:04:28.000Z</time>
      </trkpt>
      <trkpt lat="45.82112" lon="1.20978">
        <ele>224</ele>
        <time>2020-09-19T10:04:29.000Z</time>
      </trkpt>
      <trkpt lat="45.82111" lon="1.20973">
        <ele>224</ele>
        <time>2020-09-19T10:04:30.000Z</time>
      </trkpt>
      <trkpt lat="45.8211" lon="1.20968">
        <ele>224</ele>
        <time>2020-09-19T10:04:31.000Z</time>
      </trkpt>
      <trkpt lat="45.82109" lon="1.20964">
        <ele>224</ele>
        <time>2020-09-19T10:04:32.000Z</time>
      </trkpt>
      <trkpt lat="45.82108" lon="1.20959">
        <ele>224</ele>
        <time>2020-09-19T10:04:33.000Z</time>
      </trkpt>
      <trkpt lat="45.82107" lon="1.20955">
        <ele>224</ele>
        <time>2020-09-19T10:04:34.000Z</time>
      </trkpt>
      <trkpt lat="45.82106" lon="1.2095">
        <ele>225</ele>
        <time>2020-09-19T10:04:35.000Z</time>
      </trkpt>
      <trkpt lat="45.82105" lon="1.20945">
        <ele>225</ele>
        <time>2020-09-19T10:04:36.000Z</time>
      </trkpt>
      <trkpt lat="45.82103" lon="1.20941">
        <ele>224</ele>
        <time>2020-09-19T10:04:37.000Z</time>
      </trkpt>
      <trkpt lat="45.82102" lon="1.20936">
        <ele>224</ele>
        <time>2020-09-19T10:04:38.000Z</time>
      </trkpt>
      <trkpt lat="45.82101" lon="1.20932">
        <ele>223</ele>
        <time>2020-09-19T10:04:39.000Z</time>
      </trkpt>
      <trkpt lat="45.821" lon="1.20928">
        <ele>222</ele>
        <time>2020-09-19T10:04:40.000Z</time>
      </trkpt>
      <trkpt lat="45.82098" lon="1.20924">
        <ele>223</ele>
        <time>2020-09-19T10:04:41.000Z</time>
      </trkpt>
      <trkpt lat="45.82096" lon="1.2092">
        <ele>223</ele>
        <time>2020-09-19T10:04:42.000Z</time>
      </trkpt>
      <trkpt lat="45.82094" lon="1.20917">
        <ele>223</ele>
        <time>2020-09-19T10:04:43.000Z</time>
      </trkpt>
      <trkpt lat="45.82091" lon="1.20914">
        <ele>224</ele>
        <time>2020-09-19T10:04:44.000Z</time>
      </trkpt>
      <trkpt lat="45.82088" lon="1.20911">
        <ele>223</ele>
        <time>2020-09-19T10:04:45.000Z</time>
      </trkpt>
      <trkpt lat="45.82086" lon="1.20908">
        <ele>224</ele>
        <time>2020-09-19T10:04:46.000Z</time>
      </trkpt>
      <trkpt lat="45.82083" lon="1.20906">
        <ele>225</ele>
        <time>2020-09-19T10:04:47.000Z</time>
      </trkpt>
      <trkpt lat="45.82081" lon="1.20905">
        <ele>225</ele>
        <time>2020-09-19T10:04:48.000Z</time>
      </trkpt>
      <trkpt lat="45.82078" lon="1.20905">
        <ele>226</ele>
        <time>2020-09-19T10:04:49.000Z</time>
      </trkpt>
      <trkpt lat="45.82075" lon="1.20905">
        <ele>226</ele>
        <time>2020-09-19T10:04:50.000Z</time>
      </trkpt>
      <trkpt lat="45.82072" lon="1.20905">
        <ele>226</ele>
        <time>2020-09-19T10:04:51.000Z</time>
      </trkpt>
      <trkpt lat="45.82069" lon="1.20904">
        <ele>226</ele>
        <time>2020-09-19T10:04:52.000Z</time>
      </trkpt>
      <trkpt lat="45.82066" lon="1.20904">
        <ele>226</ele>
        <time>2020-09-19T10:04:53.000Z</time>
      </trkpt>
      <trkpt lat="45.82063" lon="1.20904">
        <ele>225</ele>
        <time>2020-09-19T10:04:54.000Z</time>
      </trkpt>
      <trkpt lat="45.8206" lon="1.20903">
        <ele>226</ele>
        <time>2020-09-19T10:04:55.000Z</time>
      </trkpt>
      <trkpt lat="45.82058" lon="1.20902">
        <ele>226</ele>
        <time>2020-09-19T10:04:56.000Z</time>
      </trkpt>
      <trkpt lat="45.82035" lon="1.20906">
        <ele>233</ele>
        <time>2020-09-19T10:06:03.750Z</time>
      </trkpt>
      <trkpt lat="45.82035" lon="1.20907">
        <ele>233</ele>
        <time>2020-09-19T10:06:04.750Z</time>
      </trkpt>
      <trkpt lat="45.82035" lon="1.20907">
        <ele>233</ele>
        <time>2020-09-19T10:06:05.750Z</time>
      </trkpt>
      <trkpt lat="45.82034" lon="1.20907">
        <ele>234</ele>
        <time>2020-09-19T10:06:06.750Z</time>
      </trkpt>
      <trkpt lat="45.82034" lon="1.20907">
        <ele>234</ele>
        <time>2020-09-19T10:06:07.750Z</time>
      </trkpt>
      <trkpt lat="45.82033" lon="1.20907">
        <ele>234</ele>
        <time>2020-09-19T10:06:08.750Z</time>
      </trkpt>
      <trkpt lat="45.82032" lon="1.20907">
        <ele>234</ele>
        <time>2020-09-19T10:06:09.750Z</time>
      </trkpt>
      <trkpt lat="45.82031" lon="1.20907">
        <ele>234</ele>
        <time>2020-09-19T10:06:10.750Z</time>
      </trkpt>
      <trkpt lat="45.82029" lon="1.20906">
        <ele>234</ele>
        <time>2020-09-19T10:06:11.750Z</time>
      </trkpt>
      <trkpt lat="45.82027" lon="1.20906">
        <ele>233</ele>
        <time>2020-09-19T10:06:12.750Z</time>
      </trkpt>
      <trkpt lat="45.82025" lon="1.20906">
        <ele>233</ele>
        <time>2020-09-19T10:06:13.750Z</time>
      </trkpt>
      <trkpt lat="45.82022" lon="1.20906">
        <ele>232</ele>
        <time>2020-09-19T10:06:14.750Z</time>
      </trkpt>
      <trkpt lat="45.8202" lon="1.20906">
        <ele>232</ele>
        <time>2020-09-19T10:06:15.750Z</time>
      </trkpt>
      <trkpt lat="45.82017" lon="1.20906">
        <ele>232</ele>
        <time>2020-09-19T10:06:16.750Z</time>
      </trkpt>
      <trkpt lat="45.82015" lon="1.20905">
        <ele>232</ele>
        <time>2020-09-19T10:06:17.750Z</time>
      </trkpt>
      <trkpt lat="45.82011" lon="1.20906">
        <ele>232</ele>
        <time>2020-09-19T10:06:18.750Z</time>
      </trkpt>
      <trkpt lat="45.82008" lon="1.20906">
        <ele>232</ele>
        <time>2020-09-19T10:06:19.750Z</time>
      </trkpt>
      <trkpt lat="45.82005" lon="1.20906">
        <ele>233</ele>
        <time>2020-09-19T10:06:20.750Z</time>
      </trkpt>
      <trkpt lat="45.82001" lon="1.20907">
        <ele>233</ele>
        <time>2020-09-19T10:06:21.750Z</time>
      </trkpt>
      <trkpt lat="45.81998" lon="1.20907">
        <ele>233</ele>
        <time>2020-09-19T10:06:22.750Z</time>
      </trkpt>
      <trkpt lat="45.81995" lon="1.20907">
        <ele>232</ele>
        <time>2020-09-19T10:06:23.750Z</time>
      </trkpt>
      <trkpt lat="45.81992" lon="1.20907">
        <ele>234</ele>
        <time>2020-09-19T10:06:24.750Z</time>
      </trkpt>
      <trkpt lat="45.81988" lon="1.20908">
        <ele>234</ele>
        <time>2020-09-19T10:06:25.750Z</time>
      </trkpt>
      <trkpt lat="45.81985" lon="1.20908">
        <ele>234</ele>
        <time>2020-09-19T10:06:26.750Z</time>
      </trkpt>
      <trkpt lat="45.81982" lon="1.20908">
        <ele>234</ele>
        <time>2020-09-19T10:06:27.750Z</time>
      </trkpt>
      <trkpt lat="45.81979" lon="1.20909">
        <ele>234</ele>
        <time>2020-09-19T10:06:28.750Z</time>
      </trkpt>
      <trkpt lat="45.81976" lon="1.20909">
        <ele>234</ele>
        <time>2020-09-19T10:06:29.750Z</time>
      </trkpt>
      <trkpt lat="45.81972" lon="1.20909">
        <ele>234</ele>
        <time>2020-09-19T10:06:30.750Z</time>
      </trkpt>
      <trkpt lat="45.81969" lon="1.2091">
        <ele>234</ele>
        <time>2020-09-19T10:06:31.750Z</time>
      </trkpt>
      <trkpt lat="45.81966" lon="1.2091">
        <ele>234</ele>
        <time>2020-09-19T10:06:32.750Z</time>
      </trkpt>
      <trkpt lat="45.81963" lon="1.2091">
        <ele>234</ele>
        <time>2020-09-19T10:06:33.750Z</time>
      </trkpt>
      <trkpt lat="45.8196" lon="1.2091">
        <ele>234</ele>
        <time>2020-09-19T10:06:34.750Z</time>
      </trkpt>
      <trkpt lat="45.81956" lon="1.20911">
        <ele>235</ele>
        <time>2020-09-19T10:06:35.750Z</time>
      </trkpt>
      <trkpt lat="45.81953" lon="1.20911">
        <ele>236</ele>
        <time>2020-09-19T10:06:36.750Z</time>
      </trkpt>
      <trkpt lat="45.8195" lon="1.2091">
        <ele>236</ele>
        <time>2020-09-19T10:06:37.750Z</time>
      </trkpt>
      <trkpt lat="45.81947" lon="1.20909">
        <ele>236</ele>
        <time>2020-09-19T10:06:38.750Z</time>
      </trkpt>
      <trkpt lat="45.81944" lon="1.20909">
        <ele>235</ele>
        <time>2020-09-19T10:06:39.750Z</time>
      </trkpt>
      <trkpt lat="45.81941" lon="1.20909">
        <ele>235</ele>
        <time>2020-09-19T10:06:40.750Z</time>
      </trkpt>
      <trkpt lat="45.81938" lon="1.20909">
        <ele>235</ele>
        <time>2020-09-19T10:06:41.750Z</time>
      </trkpt>
      <trkpt lat="45.81935" lon="1.20909">
        <ele>234</ele>
        <time>2020-09-19T10:06:42.750Z</time>
      </trkpt>
      <trkpt lat="45.81932" lon="1.2091">
        <ele>235</ele>
        <time>2020-09-19T10:06:43.750Z</time>
      </trkpt>
      <trkpt lat="45.81929" lon="1.20911">
        <ele>235</ele>
        <time>2020-09-19T10:06:44.750Z</time>
      </trkpt>
      <trkpt lat="45.81926" lon="1.20911">
        <ele>235</ele>
        <time>2020-09-19T10:06:45.750Z</time>
      </trkpt>
      <trkpt lat="45.81923" lon="1.20911">
        <ele>236</ele>
        <time>2020-09-19T10:06:46.750Z</time>
      </trkpt>
      <trkpt lat="45.8192" lon="1.20912">
        <ele>236</ele>
        <time>2020-09-19T10:06:47.750Z</time>
      </trkpt>
      <trkpt lat="45.81917" lon="1.20913">
        <ele>236</ele>
        <time>2020-09-19T10:06:48.750Z</time>
      </trkpt>
      <trkpt lat="45.81914" lon="1.20913">
        <ele>237</ele>
        <time>2020-09-19T10:06:49.750Z</time>
      </trkpt>
      <trkpt lat="45.81911" lon="1.20914">
        <ele>237</ele>
        <time>2020-09-19T10:06:50.750Z</time>
      </trkpt>
      <trkpt lat="45.81908" lon="1.20915">
        <ele>237</ele>
        <time>2020-09-19T10:06:51.750Z</time>
      </trkpt>
      <trkpt lat="45.81905" lon="1.20915">
        <ele>236</ele>
        <time>2020-09-19T10:06:52.750Z</time>
      </trkpt>
      <trkpt lat="45.81903" lon="1.20916">
        <ele>237</ele>
        <time>2020-09-19T10:06:53.750Z</time>
      </trkpt>
      <trkpt lat="45.81901" lon="1.20916">
        <ele>238</ele>
        <time>2020-09-19T10:06:54.750Z</time>
      </trkpt>
      <trkpt lat="45.81898" lon="1.20916">
        <ele>238</ele>
        <time>2020-09-19T10:06:55.750Z</time>
      </trkpt>
      <trkpt lat="45.81895" lon="1.20916">
        <ele>238</ele>
        <time>2020-09-19T10:06:56.750Z</time>
      </trkpt>
      <trkpt lat="45.81892" lon="1.20916">
        <ele>238</ele>
        <time>2020-09-19T10:06:57.750Z</time>
      </trkpt>
      <trkpt lat="45.81889" lon="1.20916">
        <ele>239</ele>
        <time>2020-09-19T10:06:58.750Z</time>
      </trkpt>
      <trkpt lat="45.81886" lon="1.20917">
        <ele>238</ele>
        <time>2020-09-19T10:06:59.750Z</time>
      </trkpt>
      <trkpt lat="45.81883" lon="1.20918">
        <ele>238</ele>
        <time>2020-09-19T10:07:00.750Z</time>
      </trkpt>
      <trkpt lat="45.8188" lon="1.20919">
        <ele>239</ele>
        <time>2020-09-19T10:07:01.750Z</time>
      </trkpt>
      <trkpt lat="45.81877" lon="1.2092">
        <ele>238</ele>
        <time>2020-09-19T10:07:02.750Z</time>
      </trkpt>
      <trkpt lat="45.81874" lon="1.20921">
        <ele>239</ele>
        <time>2020-09-19T10:07:03.750Z</time>
      </trkpt>
      <trkpt lat="45.81871" lon="1.20921">
        <ele>240</ele>
        <time>2020-09-19T10:07:04.750Z</time>
      </trkpt>
      <trkpt lat="45.81868" lon="1.20921">
        <ele>239</ele>
        <time>2020-09-19T10:07:05.750Z</time>
      </trkpt>
      <trkpt lat="45.81866" lon="1.20921">
        <ele>240</ele>
        <time>2020-09-19T10:07:06.750Z</time>
      </trkpt>
      <trkpt lat="45.81863" lon="1.20922">
        <ele>241</ele>
        <time>2020-09-19T10:07:07.750Z</time>
      </trkpt>
      <trkpt lat="45.8186" lon="1.20922">
        <ele>241</ele>
        <time>2020-09-19T10:07:08.750Z</time>
      </trkpt>
      <trkpt lat="45.81857" lon="1.20922">
        <ele>241</ele>
        <time>2020-09-19T10:07:09.750Z</time>
      </trkpt>
      <trkpt lat="45.81855" lon="1.20922">
        <ele>241</ele>
        <time>2020-09-19T10:07:10.750Z</time>
      </trkpt>
      <trkpt lat="45.81852" lon="1.20922">
        <ele>239</ele>
        <time>2020-09-19T10:07:11.750Z</time>
      </trkpt>
      <trkpt lat="45.8185" lon="1.20921">
        <ele>240</ele>
        <time>2020-09-19T10:07:12.750Z</time>
      </trkpt>
      <trkpt lat="45.81848" lon="1.20921">
        <ele>239</ele>
        <time>2020-09-19T10:07:13.750Z</time>
      </trkpt>
      <trkpt lat="45.81845" lon="1.2092">
        <ele>240</ele>
        <time>2020-09-19T10:07:14.750Z</time>
      </trkpt>
      <trkpt lat="45.81842" lon="1.2092">
        <ele>240</ele>
        <time>2020-09-19T10:07:15.750Z</time>
      </trkpt>
      <trkpt lat="45.81839" lon="1.2092">
        <ele>241</ele>
        <time>2020-09-19T10:07:16.750Z</time>
      </trkpt>
      <trkpt lat="45.81836" lon="1.20921">
        <ele>241</ele>
        <time>2020-09-19T10:07:17.750Z</time>
      </trkpt>
      <trkpt lat="45.81833" lon="1.20921">
        <ele>242</ele>
        <time>2020-09-19T10:07:18.750Z</time>
      </trkpt>
      <trkpt lat="45.8183" lon="1.20921">
        <ele>242</ele>
        <time>2020-09-19T10:07:19.750Z</time>
      </trkpt>
      <trkpt lat="45.81827" lon="1.20922">
        <ele>243</ele>
        <time>2020-09-19T10:07:20.750Z</time>
      </trkpt>
      <trkpt lat="45.81823" lon="1.20922">
        <ele>243</ele>
        <time>2020-09-19T10:07:21.750Z</time>
      </trkpt>
      <trkpt lat="45.8182" lon="1.20923">
        <ele>243</ele>
        <time>2020-09-19T10:07:22.750Z</time>
      </trkpt>
      <trkpt lat="45.81817" lon="1.20923">
        <ele>243</ele>
        <time>2020-09-19T10:07:23.750Z</time>
      </trkpt>
      <trkpt lat="45.81814" lon="1.20924">
        <ele>243</ele>
        <time>2020-09-19T10:07:24.750Z</time>
      </trkpt>
      <trkpt lat="45.81811" lon="1.20924">
        <ele>243</ele>
        <time>2020-09-19T10:07:25.750Z</time>
      </trkpt>
      <trkpt lat="45.81807" lon="1.20924">
        <ele>243</ele>
        <time>2020-09-19T10:07:26.750Z</time>
      </trkpt>
      <trkpt lat="45.81804" lon="1.20924">
        <ele>242</ele>
        <time>2020-09-19T10:07:27.750Z</time>
      </trkpt>
      <trkpt lat="45.81802" lon="1.20924">
        <ele>242</ele>
        <time>2020-09-19T10:07:28.750Z</time>
      </trkpt>
      <trkpt lat="45.81799" lon="1.20924">
        <ele>243</ele>
        <time>2020-09-19T10:07:29.750Z</time>
      </trkpt>
      <trkpt lat="45.81795" lon="1.20924">
        <ele>244</ele>
        <time>2020-09-19T10:07:30.750Z</time>
      </trkpt>
      <trkpt lat="45.81792" lon="1.20924">
        <ele>245</ele>
        <time>2020-09-19T10:07:31.750Z</time>
      </trkpt>
      <trkpt lat="45.81788" lon="1.20924">
        <ele>248</ele>
        <time>2020-09-19T10:07:32.750Z</time>
      </trkpt>
      <trkpt lat="45.81785" lon="1.20925">
        <ele>249</ele>
        <time>2020-09-19T10:07:33.750Z</time>
      </trkpt>
      <trkpt lat="45.81781" lon="1.20925">
        <ele>250</ele>
        <time>2020-09-19T10:07:34.750Z</time>
      </trkpt>
      <trkpt lat="45.81778" lon="1.20926">
        <ele>250</ele>
        <time>2020-09-19T10:07:35.750Z</time>
      </trkpt>
      <trkpt lat="45.81774" lon="1.20926">
        <ele>252</ele>
        <time>2020-09-19T10:07:36.750Z</time>
      </trkpt>
      <trkpt lat="45.81771" lon="1.20927">
        <ele>253</ele>
        <time>2020-09-19T10:07:37.750Z</time>
      </trkpt>
      <trkpt lat="45.81767" lon="1.20927">
        <ele>254</ele>
        <time>2020-09-19T10:07:38.750Z</time>
      </trkpt>
      <trkpt lat="45.81764" lon="1.20927">
        <ele>255</ele>
        <time>2020-09-19T10:07:39.750Z</time>
      </trkpt>
      <trkpt lat="45.81761" lon="1.20927">
        <ele>256</ele>
        <time>2020-09-19T10:07:40.750Z</time>
      </trkpt>
      <trkpt lat="45.81757" lon="1.20927">
        <ele>257</ele>
        <time>2020-09-19T10:07:41.750Z</time>
      </trkpt>
      <trkpt lat="45.81755" lon="1.20927">
        <ele>257</ele>
        <time>2020-09-19T10:07:42.750Z</time>
      </trkpt>
      <trkpt lat="45.81752" lon="1.20928">
        <ele>259</ele>
        <time>2020-09-19T10:07:43.750Z</time>
      </trkpt>
      <trkpt lat="45.81749" lon="1.20928">
        <ele>259</ele>
        <time>2020-09-19T10:07:44.750Z</time>
      </trkpt>
      <trkpt lat="45.81746" lon="1.20928">
        <ele>260</ele>
        <time>2020-09-19T10:07:45.750Z</time>
      </trkpt>
      <trkpt lat="45.81743" lon="1.20928">
        <ele>260</ele>
        <time>2020-09-19T10:07:46.750Z</time>
      </trkpt>
      <trkpt lat="45.8174" lon="1.20928">
        <ele>260</ele>
        <time>2020-09-19T10:07:47.750Z</time>
      </trkpt>
      <trkpt lat="45.81737" lon="1.20928">
        <ele>261</ele>
        <time>2020-09-19T10:07:48.750Z</time>
      </trkpt>
      <trkpt lat="45.81734" lon="1.20928">
        <ele>260</ele>
        <time>2020-09-19T10:07:49.750Z</time>
      </trkpt>
      <trkpt lat="45.81731" lon="1.20928">
        <ele>260</ele>
        <time>2020-09-19T10:07:50.750Z</time>
      </trkpt>
      <trkpt lat="45.81728" lon="1.20929">
        <ele>259</ele>
        <time>2020-09-19T10:07:51.750Z</time>
      </trkpt>
      <trkpt lat="45.81726" lon="1.20929">
        <ele>259</ele>
        <time>2020-09-19T10:07:52.750Z</time>
      </trkpt>
      <trkpt lat="45.81723" lon="1.2093">
        <ele>259</ele>
        <time>2020-09-19T10:07:53.750Z</time>
      </trkpt>
      <trkpt lat="45.8172" lon="1.20931">
        <ele>258</ele>
        <time>2020-09-19T10:07:54.750Z</time>
      </trkpt>
      <trkpt lat="45.81716" lon="1.20933">
        <ele>258</ele>
        <time>2020-09-19T10:07:55.750Z</time>
      </trkpt>
      <trkpt lat="45.81713" lon="1.20934">
        <ele>259</ele>
        <time>2020-09-19T10:07:56.750Z</time>
      </trkpt>
      <trkpt lat="45.8171" lon="1.20934">
        <ele>259</ele>
        <time>2020-09-19T10:07:57.750Z</time>
      </trkpt>
      <trkpt lat="45.81707" lon="1.20934">
        <ele>260</ele>
        <time>2020-09-19T10:07:58.750Z</time>
      </trkpt>
      <trkpt lat="45.81704" lon="1.20934">
        <ele>261</ele>
        <time>2020-09-19T10:07:59.750Z</time>
      </trkpt>
      <trkpt lat="45.81702" lon="1.20935">
        <ele>261</ele>
        <time>2020-09-19T10:08:00.750Z</time>
      </trkpt>
      <trkpt lat="45.81699" lon="1.20936">
        <ele>261</ele>
        <time>2020-09-19T10:08:01.750Z</time>
      </trkpt>
      <trkpt lat="45.81696" lon="1.20936">
        <ele>261</ele>
        <time>2020-09-19T10:08:02.750Z</time>
      </trkpt>
      <trkpt lat="45.81693" lon="1.20936">
        <ele>261</ele>
        <time>2020-09-19T10:08:03.750Z</time>
      </trkpt>
      <trkpt lat="45.8169" lon="1.20936">
        <ele>261</ele>
        <time>2020-09-19T10:08:04.750Z</time>
      </trkpt>
      <trkpt lat="45.81687" lon="1.20937">
        <ele>261</ele>
        <time>2020-09-19T10:08:05.750Z</time>
      </trkpt>
      <trkpt lat="45.81684" lon="1.20937">
        <ele>261</ele>
        <time>2020-09-19T10:08:06.750Z</time>
      </trkpt>
      <trkpt lat="45.81681" lon="1.20937">
        <ele>261</ele>
        <time>2020-09-19T10:08:07.750Z</time>
      </trkpt>
      <trkpt lat="45.81679" lon="1.20938">
        <ele>261</ele>
        <time>2020-09-19T10:08:08.750Z</time>
      </trkpt>
      <trkpt lat="45.81676" lon="1.20938">
        <ele>261</ele>
        <time>2020-09-19T10:08:09.750Z</time>
      </trkpt>
      <trkpt lat="45.81673" lon="1.20939">
        <ele>261</ele>
        <time>2020-09-19T10:08:10.750Z</time>
      </trkpt>
      <trkpt lat="45.8167" lon="1.20939">
        <ele>261</ele>
        <time>2020-09-19T10:08:11.750Z</time>
      </trkpt>
      <trkpt lat="45.81668" lon="1.2094">
        <ele>261</ele>
        <time>2020-09-19T10:08:12.750Z</time>
      </trkpt>
      <trkpt lat="45.81665" lon="1.20941">
        <ele>261</ele>
        <time>2020-09-19T10:08:13.750Z</time>
      </trkpt>
      <trkpt lat="45.81662" lon="1.20942">
        <ele>261</ele>
        <time>2020-09-19T10:08:14.750Z</time>
      </trkpt>
      <trkpt lat="45.8166" lon="1.20944">
        <ele>262</ele>
        <time>2020-09-19T10:08:15.750Z</time>
      </trkpt>
      <trkpt lat="45.81657" lon="1.20945">
        <ele>262</ele>
        <time>2020-09-19T10:08:16.750Z</time>
      </trkpt>
      <trkpt lat="45.81655" lon="1.20947">
        <ele>262</ele>
        <time>2020-09-19T10:08:17.750Z</time>
      </trkpt>
      <trkpt lat="45.81652" lon="1.20949">
        <ele>262</ele>
        <time>2020-09-19T10:08:18.750Z</time>
      </trkpt>
      <trkpt lat="45.8165" lon="1.20951">
        <ele>262</ele>
        <time>2020-09-19T10:08:19.750Z</time>
      </trkpt>
      <trkpt lat="45.81648" lon="1.20954">
        <ele>261</ele>
        <time>2020-09-19T10:08:20.750Z</time>
      </trkpt>
      <trkpt lat="45.81646" lon="1.20958">
        <ele>261</ele>
        <time>2020-09-19T10:08:21.750Z</time>
      </trkpt>
      <trkpt lat="45.81644" lon="1.20961">
        <ele>261</ele>
        <time>2020-09-19T10:08:22.750Z</time>
      </trkpt>
      <trkpt lat="45.81643" lon="1.20964">
        <ele>261</ele>
        <time>2020-09-19T10:08:23.750Z</time>
      </trkpt>
      <trkpt lat="45.81641" lon="1.20968">
        <ele>262</ele>
        <time>2020-09-19T10:08:24.750Z</time>
      </trkpt>
      <trkpt lat="45.81639" lon="1.20971">
        <ele>262</ele>
        <time>2020-09-19T10:08:25.750Z</time>
      </trkpt>
      <trkpt lat="45.81638" lon="1.20975">
        <ele>261</ele>
        <time>2020-09-19T10:08:26.750Z</time>
      </trkpt>
      <trkpt lat="45.81637" lon="1.20979">
        <ele>262</ele>
        <time>2020-09-19T10:08:27.750Z</time>
      </trkpt>
      <trkpt lat="45.81636" lon="1.20982">
        <ele>262</ele>
        <time>2020-09-19T10:08:28.750Z</time>
      </trkpt>
      <trkpt lat="45.81634" lon="1.20986">
        <ele>263</ele>
        <time>2020-09-19T10:08:29.750Z</time>
      </trkpt>
      <trkpt lat="45.81633" lon="1.20989">
        <ele>264</ele>
        <time>2020-09-19T10:08:30.750Z</time>
      </trkpt>
      <trkpt lat="45.81631" lon="1.20993">
        <ele>264</ele>
        <time>2020-09-19T10:08:31.750Z</time>
      </trkpt>
      <trkpt lat="45.8163" lon="1.20996">
        <ele>265</ele>
        <time>2020-09-19T10:08:32.750Z</time>
      </trkpt>
      <trkpt lat="45.81628" lon="1.21">
        <ele>265</ele>
        <time>2020-09-19T10:08:33.750Z</time>
      </trkpt>
      <trkpt lat="45.81627" lon="1.21003">
        <ele>265</ele>
        <time>2020-09-19T10:08:34.750Z</time>
      </trkpt>
      <trkpt lat="45.81626" lon="1.21007">
        <ele>265</ele>
        <time>2020-09-19T10:08:35.750Z</time>
      </trkpt>
      <trkpt lat="45.81624" lon="1.2101">
        <ele>265</ele>
        <time>2020-09-19T10:08:36.750Z</time>
      </trkpt>
      <trkpt lat="45.81622" lon="1.21012">
        <ele>265</ele>
        <time>2020-09-19T10:08:37.750Z</time>
      </trkpt>
      <trkpt lat="45.8162" lon="1.21014">
        <ele>264</ele>
        <time>2020-09-19T10:08:38.750Z</time>
      </trkpt>
      <trkpt lat="45.81617" lon="1.21014">
        <ele>264</ele>
        <time>2020-09-19T10:08:39.750Z</time>
      </trkpt>
      <trkpt lat="45.81614" lon="1.21015">
        <ele>264</ele>
        <time>2020-09-19T10:08:40.750Z</time>
      </trkpt>
      <trkpt lat="45.81612" lon="1.21016">
        <ele>264</ele>
        <time>2020-09-19T10:08:41.750Z</time>
      </trkpt>
      <trkpt lat="45.8161" lon="1.21018">
        <ele>263</ele>
        <time>2020-09-19T10:08:42.750Z</time>
      </trkpt>
      <trkpt lat="45.81609" lon="1.2102">
        <ele>263</ele>
        <time>2020-09-19T10:08:43.750Z</time>
      </trkpt>
      <trkpt lat="45.81608" lon="1.21023">
        <ele>263</ele>
        <time>2020-09-19T10:08:44.750Z</time>
      </trkpt>
      <trkpt lat="45.81607" lon="1.21026">
        <ele>263</ele>
        <time>2020-09-19T10:08:45.750Z</time>
      </trkpt>
      <trkpt lat="45.81606" lon="1.2103">
        <ele>262</ele>
        <time>2020-09-19T10:08:46.750Z</time>
      </trkpt>
      <trkpt lat="45.81605" lon="1.21033">
        <ele>263</ele>
        <time>2020-09-19T10:08:47.750Z</time>
      </trkpt>
      <trkpt lat="45.81604" lon="1.21037">
        <ele>263</ele>
        <time>2020-09-19T10:08:48.750Z</time>
      </trkpt>
      <trkpt lat="45.81603" lon="1.2104">
        <ele>264</ele>
        <time>2020-09-19T10:08:49.750Z</time>
      </trkpt>
      <trkpt lat="45.81602" lon="1.21043">
        <ele>264</ele>
        <time>2020-09-19T10:08:50.750Z</time>
      </trkpt>
      <trkpt lat="45.81601" lon="1.21047">
        <ele>265</ele>
        <time>2020-09-19T10:08:51.750Z</time>
      </trkpt>
      <trkpt lat="45.816" lon="1.2105">
        <ele>265</ele>
        <time>2020-09-19T10:08:52.750Z</time>
      </trkpt>
      <trkpt lat="45.81599" lon="1.21054">
        <ele>265</ele>
        <time>2020-09-19T10:08:53.750Z</time>
      </trkpt>
      <trkpt lat="45.81598" lon="1.21057">
        <ele>266</ele>
        <time>2020-09-19T10:08:54.750Z</time>
      </trkpt>
      <trkpt lat="45.81598" lon="1.21061">
        <ele>267</ele>
        <time>2020-09-19T10:08:55.750Z</time>
      </trkpt>
      <trkpt lat="45.81598" lon="1.21064">
        <ele>267</ele>
        <time>2020-09-19T10:08:56.750Z</time>
      </trkpt>
      <trkpt lat="45.81598" lon="1.21067">
        <ele>267</ele>
        <time>2020-09-19T10:08:57.750Z</time>
      </trkpt>
      <trkpt lat="45.81598" lon="1.21071">
        <ele>267</ele>
        <time>2020-09-19T10:08:58.750Z</time>
      </trkpt>
      <trkpt lat="45.81599" lon="1.21075">
        <ele>268</ele>
        <time>2020-09-19T10:08:59.750Z</time>
      </trkpt>
      <trkpt lat="45.81599" lon="1.21078">
        <ele>268</ele>
        <time>2020-09-19T10:09:00.750Z</time>
      </trkpt>
      <trkpt lat="45.81599" lon="1.21082">
        <ele>269</ele>
        <time>2020-09-19T10:09:01.750Z</time>
      </trkpt>
      <trkpt lat="45.816" lon="1.21086">
        <ele>269</ele>
        <time>2020-09-19T10:09:02.750Z</time>
      </trkpt>
      <trkpt lat="45.816" lon="1.2109">
        <ele>270</ele>
        <time>2020-09-19T10:09:03.750Z</time>
      </trkpt>
      <trkpt lat="45.81601" lon="1.21094">
        <ele>270</ele>
        <time>2020-09-19T10:09:04.750Z</time>
      </trkpt>
      <trkpt lat="45.81602" lon="1.21098">
        <ele>271</ele>
        <time>2020-09-19T10:09:05.750Z</time>
      </trkpt>
      <trkpt lat="45.81602" lon="1.21102">
        <ele>271</ele>
        <time>2020-09-19T10:09:06.750Z</time>
      </trkpt>
      <trkpt lat="45.81602" lon="1.21107">
        <ele>272</ele>
        <time>2020-09-19T10:09:07.750Z</time>
      </trkpt>
      <trkpt lat="45.81603" lon="1.21111">
        <ele>272</ele>
        <time>2020-09-19T10:09:08.750Z</time>
      </trkpt>
      <trkpt lat="45.81604" lon="1.21114">
        <ele>272</ele>
        <time>2020-09-19T10:09:09.750Z</time>
      </trkpt>
      <trkpt lat="45.81606" lon="1.21119">
        <ele>272</ele>
        <time>2020-09-19T10:09:10.750Z</time>
      </trkpt>
      <trkpt lat="45.81607" lon="1.21123">
        <ele>272</ele>
        <time>2020-09-19T10:09:11.750Z</time>
      </trkpt>
      <trkpt lat="45.81607" lon="1.21127">
        <ele>271</ele>
        <time>2020-09-19T10:09:12.750Z</time>
      </trkpt>
      <trkpt lat="45.81608" lon="1.21132">
        <ele>272</ele>
        <time>2020-09-19T10:09:13.750Z</time>
      </trkpt>
      <trkpt lat="45.81609" lon="1.21137">
        <ele>272</ele>
        <time>2020-09-19T10:09:14.750Z</time>
      </trkpt>
      <trkpt lat="45.8161" lon="1.21142">
        <ele>272</ele>
        <time>2020-09-19T10:09:15.750Z</time>
      </trkpt>
      <trkpt lat="45.8161" lon="1.21146">
        <ele>272</ele>
        <time>2020-09-19T10:09:16.750Z</time>
      </trkpt>
      <trkpt lat="45.81611" lon="1.21151">
        <ele>273</ele>
        <time>2020-09-19T10:09:17.750Z</time>
      </trkpt>
      <trkpt lat="45.81612" lon="1.21156">
        <ele>273</ele>
        <time>2020-09-19T10:09:18.750Z</time>
      </trkpt>
      <trkpt lat="45.81612" lon="1.2116">
        <ele>272</ele>
        <time>2020-09-19T10:09:19.750Z</time>
      </trkpt>
      <trkpt lat="45.81613" lon="1.21165">
        <ele>272</ele>
        <time>2020-09-19T10:09:20.750Z</time>
      </trkpt>
      <trkpt lat="45.81614" lon="1.21169">
        <ele>273</ele>
        <time>2020-09-19T10:09:21.750Z</time>
      </trkpt>
      <trkpt lat="45.81614" lon="1.21173">
        <ele>273</ele>
        <time>2020-09-19T10:09:22.750Z</time>
      </trkpt>
      <trkpt lat="45.81615" lon="1.21178">
        <ele>272</ele>
        <time>2020-09-19T10:09:23.750Z</time>
      </trkpt>
      <trkpt lat="45.81615" lon="1.21182">
        <ele>272</ele>
        <time>2020-09-19T10:09:24.750Z</time>
      </trkpt>
      <trkpt lat="45.81616" lon="1.21186">
        <ele>272</ele>
        <time>2020-09-19T10:09:25.750Z</time>
      </trkpt>
      <trkpt lat="45.81616" lon="1.21191">
        <ele>273</ele>
        <time>2020-09-19T10:09:26.750Z</time>
      </trkpt>
      <trkpt lat="45.81616" lon="1.21195">
        <ele>273</ele>
        <time>2020-09-19T10:09:27.750Z</time>
      </trkpt>
      <trkpt lat="45.81617" lon="1.212">
        <ele>272</ele>
        <time>2020-09-19T10:09:28.750Z</time>
      </trkpt>
      <trkpt lat="45.81617" lon="1.21204">
        <ele>272</ele>
        <time>2020-09-19T10:09:29.750Z</time>
      </trkpt>
      <trkpt lat="45.81617" lon="1.21209">
        <ele>272</ele>
        <time>2020-09-19T10:09:30.750Z</time>
      </trkpt>
      <trkpt lat="45.81618" lon="1.21213">
        <ele>273</ele>
        <time>2020-09-19T10:09:31.750Z</time>
      </trkpt>
      <trkpt lat="45.81618" lon="1.21218">
        <ele>274</ele>
        <time>2020-09-19T10:09:32.750Z</time>
      </trkpt>
      <trkpt lat="45.81619" lon="1.21222">
        <ele>274</ele>
        <time>2020-09-19T10:09:33.750Z</time>
      </trkpt>
      <trkpt lat="45.8162" lon="1.21226">
        <ele>274</ele>
        <time>2020-09-19T10:09:34.750Z</time>
      </trkpt>
      <trkpt lat="45.81621" lon="1.21231">
        <ele>274</ele>
        <time>2020-09-19T10:09:35.750Z</time>
      </trkpt>
      <trkpt lat="45.81622" lon="1.21235">
        <ele>274</ele>
        <time>2020-09-19T10:09:36.750Z</time>
      </trkpt>
      <trkpt lat="45.81623" lon="1.21239">
        <ele>274</ele>
        <time>2020-09-19T10:09:37.750Z</time>
      </trkpt>
      <trkpt lat="45.81623" lon="1.21244">
        <ele>274</ele>
        <time>2020-09-19T10:09:38.750Z</time>
      </trkpt>
      <trkpt lat="45.81624" lon="1.21248">
        <ele>274</ele>
        <time>2020-09-19T10:09:39.750Z</time>
      </trkpt>
      <trkpt lat="45.81624" lon="1.21253">
        <ele>273</ele>
        <time>2020-09-19T10:09:40.750Z</time>
      </trkpt>
      <trkpt lat="45.81625" lon="1.21258">
        <ele>274</ele>
        <time>2020-09-19T10:09:41.750Z</time>
      </trkpt>
      <trkpt lat="45.81625" lon="1.21262">
        <ele>274</ele>
        <time>2020-09-19T10:09:42.750Z</time>
      </trkpt>
      <trkpt lat="45.81626" lon="1.21267">
        <ele>274</ele>
        <time>2020-09-19T10:09:43.750Z</time>
      </trkpt>
      <trkpt lat="45.81626" lon="1.21271">
        <ele>274</ele>
        <time>2020-09-19T10:09:44.750Z</time>
      </trkpt>
      <trkpt lat="45.81627" lon="1.21275">
        <ele>275</ele>
        <time>2020-09-19T10:09:45.750Z</time>
      </trkpt>
      <trkpt lat="45.81628" lon="1.21279">
        <ele>275</ele>
        <time>2020-09-19T10:09:46.750Z</time>
      </trkpt>
      <trkpt lat="45.81628" lon="1.21283">
        <ele>276</ele>
        <time>2020-09-19T10:09:47.750Z</time>
      </trkpt>
      <trkpt lat="45.81629" lon="1.21288">
        <ele>276</ele>
        <time>2020-09-19T10:09:48.750Z</time>
      </trkpt>
      <trkpt lat="45.8163" lon="1.21292">
        <ele>277</ele>
        <time>2020-09-19T10:09:49.750Z</time>
      </trkpt>
      <trkpt lat="45.8163" lon="1.21296">
        <ele>277</ele>
        <time>2020-09-19T10:09:50.750Z</time>
      </trkpt>
      <trkpt lat="45.81631" lon="1.21301">
        <ele>277</ele>
        <time>2020-09-19T10:09:51.750Z</time>
      </trkpt>
      <trkpt lat="45.81631" lon="1.21305">
        <ele>278</ele>
        <time>2020-09-19T10:09:52.750Z</time>
      </trkpt>
      <trkpt lat="45.81631" lon="1.2131">
        <ele>277</ele>
        <time>2020-09-19T10:09:53.750Z</time>
      </trkpt>
      <trkpt lat="45.81632" lon="1.21314">
        <ele>277</ele>
        <time>2020-09-19T10:09:54.750Z</time>
      </trkpt>
      <trkpt lat="45.81632" lon="1.21319">
        <ele>277</ele>
        <time>2020-09-19T10:09:55.750Z</time>
      </trkpt>
      <trkpt lat="45.81633" lon="1.21323">
        <ele>277</ele>
        <time>2020-09-19T10:09:56.750Z</time>
      </trkpt>
      <trkpt lat="45.81633" lon="1.21328">
        <ele>277</ele>
        <time>2020-09-19T10:09:57.750Z</time>
      </trkpt>
      <trkpt lat="45.81633" lon="1.21332">
        <ele>277</ele>
        <time>2020-09-19T10:09:58.750Z</time>
      </trkpt>
      <trkpt lat="45.81633" lon="1.21336">
        <ele>277</ele>
        <time>2020-09-19T10:09:59.750Z</time>
      </trkpt>
      <trkpt lat="45.81633" lon="1.21341">
        <ele>277</ele>
        <time>2020-09-19T10:10:00.750Z</time>
      </trkpt>
      <trkpt lat="45.81634" lon="1.21345">
        <ele>278</ele>
        <time>2020-09-19T10:10:01.750Z</time>
      </trkpt>
      <trkpt lat="45.81634" lon="1.2135">
        <ele>278</ele>
        <time>2020-09-19T10:10:02.750Z</time>
      </trkpt>
      <trkpt lat="45.81634" lon="1.21355">
        <ele>278</ele>
        <time>2020-09-19T10:10:03.750Z</time>
      </trkpt>
      <trkpt lat="45.81634" lon="1.2136">
        <ele>278</ele>
        <time>2020-09-19T10:10:04.750Z</time>
      </trkpt>
      <trkpt lat="45.81634" lon="1.21364">
        <ele>279</ele>
        <time>2020-09-19T10:10:05.750Z</time>
      </trkpt>
      <trkpt lat="45.81635" lon="1.21368">
        <ele>279</ele>
        <time>2020-09-19T10:10:06.750Z</time>
      </trkpt>
      <trkpt lat="45.81635" lon="1.21372">
        <ele>279</ele>
        <time>2020-09-19T10:10:07.750Z</time>
      </trkpt>
      <trkpt lat="45.81636" lon="1.21376">
        <ele>279</ele>
        <time>2020-09-19T10:10:08.750Z</time>
      </trkpt>
      <trkpt lat="45.81636" lon="1.2138">
        <ele>279</ele>
        <time>2020-09-19T10:10:09.750Z</time>
      </trkpt>
      <trkpt lat="45.81637" lon="1.21384">
        <ele>280</ele>
        <time>2020-09-19T10:10:10.750Z</time>
      </trkpt>
      <trkpt lat="45.81637" lon="1.21388">
        <ele>280</ele>
        <time>2020-09-19T10:10:11.750Z</time>
      </trkpt>
      <trkpt lat="45.81637" lon="1.21393">
        <ele>281</ele>
        <time>2020-09-19T10:10:12.750Z</time>
      </trkpt>
      <trkpt lat="45.81637" lon="1.21397">
        <ele>282</ele>
        <time>2020-09-19T10:10:13.750Z</time>
      </trkpt>
      <trkpt lat="45.81638" lon="1.21401">
        <ele>282</ele>
        <time>2020-09-19T10:10:14.750Z</time>
      </trkpt>
      <trkpt lat="45.81638" lon="1.21405">
        <ele>282</ele>
        <time>2020-09-19T10:10:15.750Z</time>
      </trkpt>
      <trkpt lat="45.81638" lon="1.2141">
        <ele>283</ele>
        <time>2020-09-19T10:10:16.750Z</time>
      </trkpt>
      <trkpt lat="45.81637" lon="1.21414">
        <ele>282</ele>
        <time>2020-09-19T10:10:17.750Z</time>
      </trkpt>
      <trkpt lat="45.81637" lon="1.21418">
        <ele>283</ele>
        <time>2020-09-19T10:10:18.750Z</time>
      </trkpt>
      <trkpt lat="45.81637" lon="1.21422">
        <ele>282</ele>
        <time>2020-09-19T10:10:19.750Z</time>
      </trkpt>
      <trkpt lat="45.81637" lon="1.21425">
        <ele>283</ele>
        <time>2020-09-19T10:10:20.750Z</time>
      </trkpt>
      <trkpt lat="45.81637" lon="1.21429">
        <ele>283</ele>
        <time>2020-09-19T10:10:21.750Z</time>
      </trkpt>
      <trkpt lat="45.81636" lon="1.21433">
        <ele>283</ele>
        <time>2020-09-19T10:10:22.750Z</time>
      </trkpt>
      <trkpt lat="45.81635" lon="1.21437">
        <ele>283</ele>
        <time>2020-09-19T10:10:23.750Z</time>
      </trkpt>
      <trkpt lat="45.81634" lon="1.2144">
        <ele>283</ele>
        <time>2020-09-19T10:10:24.750Z</time>
      </trkpt>
      <trkpt lat="45.81634" lon="1.21444">
        <ele>283</ele>
        <time>2020-09-19T10:10:25.750Z</time>
      </trkpt>
      <trkpt lat="45.81633" lon="1.21448">
        <ele>283</ele>
        <time>2020-09-19T10:10:26.750Z</time>
      </trkpt>
      <trkpt lat="45.81632" lon="1.21451">
        <ele>283</ele>
        <time>2020-09-19T10:10:27.750Z</time>
      </trkpt>
      <trkpt lat="45.8163" lon="1.21455">
        <ele>284</ele>
        <time>2020-09-19T10:10:28.750Z</time>
      </trkpt>
      <trkpt lat="45.81629" lon="1.21459">
        <ele>284</ele>
        <time>2020-09-19T10:10:29.750Z</time>
      </trkpt>
      <trkpt lat="45.81627" lon="1.21463">
        <ele>284</ele>
        <time>2020-09-19T10:10:30.750Z</time>
      </trkpt>
      <trkpt lat="45.81626" lon="1.21467">
        <ele>284</ele>
        <time>2020-09-19T10:10:31.750Z</time>
      </trkpt>
      <trkpt lat="45.81624" lon="1.21471">
        <ele>284</ele>
        <time>2020-09-19T10:10:32.750Z</time>
      </trkpt>
      <trkpt lat="45.81622" lon="1.21474">
        <ele>285</ele>
        <time>2020-09-19T10:10:33.750Z</time>
      </trkpt>
      <trkpt lat="45.8162" lon="1.21477">
        <ele>285</ele>
        <time>2020-09-19T10:10:34.750Z</time>
      </trkpt>
      <trkpt lat="45.81618" lon="1.2148">
        <ele>285</ele>
        <time>2020-09-19T10:10:35.750Z</time>
      </trkpt>
      <trkpt lat="45.81615" lon="1.21482">
        <ele>285</ele>
        <time>2020-09-19T10:10:36.750Z</time>
      </trkpt>
      <trkpt lat="45.81612" lon="1.21484">
        <ele>286</ele>
        <time>2020-09-19T10:10:37.750Z</time>
      </trkpt>
      <trkpt lat="45.81609" lon="1.21485">
        <ele>286</ele>
        <time>2020-09-19T10:10:38.750Z</time>
      </trkpt>
      <trkpt lat="45.81605" lon="1.21487">
        <ele>286</ele>
        <time>2020-09-19T10:10:39.750Z</time>
      </trkpt>
      <trkpt lat="45.81602" lon="1.21487">
        <ele>287</ele>
        <time>2020-09-19T10:10:40.750Z</time>
      </trkpt>
      <trkpt lat="45.81598" lon="1.21487">
        <ele>287</ele>
        <time>2020-09-19T10:10:41.750Z</time>
      </trkpt>
      <trkpt lat="45.81595" lon="1.21486">
        <ele>288</ele>
        <time>2020-09-19T10:10:42.750Z</time>
      </trkpt>
      <trkpt lat="45.81592" lon="1.21486">
        <ele>288</ele>
        <time>2020-09-19T10:10:43.750Z</time>
      </trkpt>
      <trkpt lat="45.81589" lon="1.21486">
        <ele>288</ele>
        <time>2020-09-19T10:10:44.750Z</time>
      </trkpt>
      <trkpt lat="45.81586" lon="1.21486">
        <ele>288</ele>
        <time>2020-09-19T10:10:45.750Z</time>
      </trkpt>
      <trkpt lat="45.81583" lon="1.21485">
        <ele>289</ele>
        <time>2020-09-19T10:10:46.750Z</time>
      </trkpt>
      <trkpt lat="45.8158" lon="1.21485">
        <ele>288</ele>
        <time>2020-09-19T10:10:47.750Z</time>
      </trkpt>
      <trkpt lat="45.81577" lon="1.21484">
        <ele>289</ele>
        <time>2020-09-19T10:10:48.750Z</time>
      </trkpt>
      <trkpt lat="45.81574" lon="1.21483">
        <ele>289</ele>
        <time>2020-09-19T10:10:49.750Z</time>
      </trkpt>
      <trkpt lat="45.81571" lon="1.21482">
        <ele>290</ele>
        <time>2020-09-19T10:10:50.750Z</time>
      </trkpt>
      <trkpt lat="45.81568" lon="1.21482">
        <ele>291</ele>
        <time>2020-09-19T10:10:51.750Z</time>
      </trkpt>
      <trkpt lat="45.81565" lon="1.21481">
        <ele>292</ele>
        <time>2020-09-19T10:10:52.750Z</time>
      </trkpt>
      <trkpt lat="45.81562" lon="1.2148">
        <ele>292</ele>
        <time>2020-09-19T10:10:53.750Z</time>
      </trkpt>
      <trkpt lat="45.81559" lon="1.21479">
        <ele>292</ele>
        <time>2020-09-19T10:10:54.750Z</time>
      </trkpt>
      <trkpt lat="45.81556" lon="1.21478">
        <ele>292</ele>
        <time>2020-09-19T10:10:55.750Z</time>
      </trkpt>
      <trkpt lat="45.81554" lon="1.21477">
        <ele>293</ele>
        <time>2020-09-19T10:10:56.750Z</time>
      </trkpt>
      <trkpt lat="45.81551" lon="1.21475">
        <ele>293</ele>
        <time>2020-09-19T10:10:57.750Z</time>
      </trkpt>
      <trkpt lat="45.81549" lon="1.21474">
        <ele>294</ele>
        <time>2020-09-19T10:10:58.750Z</time>
      </trkpt>
      <trkpt lat="45.81546" lon="1.21472">
        <ele>294</ele>
        <time>2020-09-19T10:10:59.750Z</time>
      </trkpt>
      <trkpt lat="45.81544" lon="1.21471">
        <ele>294</ele>
        <time>2020-09-19T10:11:00.750Z</time>
      </trkpt>
      <trkpt lat="45.81541" lon="1.2147">
        <ele>295</ele>
        <time>2020-09-19T10:11:01.750Z</time>
      </trkpt>
      <trkpt lat="45.81538" lon="1.21469">
        <ele>295</ele>
        <time>2020-09-19T10:11:02.750Z</time>
      </trkpt>
      <trkpt lat="45.81536" lon="1.21468">
        <ele>296</ele>
        <time>2020-09-19T10:11:03.750Z</time>
      </trkpt>
      <trkpt lat="45.81533" lon="1.21467">
        <ele>296</ele>
        <time>2020-09-19T10:11:04.750Z</time>
      </trkpt>
      <trkpt lat="45.81531" lon="1.21466">
        <ele>296</ele>
        <time>2020-09-19T10:11:05.750Z</time>
      </trkpt>
      <trkpt lat="45.81528" lon="1.21465">
        <ele>296</ele>
        <time>2020-09-19T10:11:06.750Z</time>
      </trkpt>
      <trkpt lat="45.81525" lon="1.21464">
        <ele>296</ele>
        <time>2020-09-19T10:11:07.750Z</time>
      </trkpt>
      <trkpt lat="45.81523" lon="1.21463">
        <ele>296</ele>
        <time>2020-09-19T10:11:08.750Z</time>
      </trkpt>
      <trkpt lat="45.8152" lon="1.21462">
        <ele>296</ele>
        <time>2020-09-19T10:11:09.750Z</time>
      </trkpt>
      <trkpt lat="45.81517" lon="1.21461">
        <ele>297</ele>
        <time>2020-09-19T10:11:10.750Z</time>
      </trkpt>
      <trkpt lat="45.81514" lon="1.2146">
        <ele>297</ele>
        <time>2020-09-19T10:11:11.750Z</time>
      </trkpt>
      <trkpt lat="45.81511" lon="1.21459">
        <ele>297</ele>
        <time>2020-09-19T10:11:12.750Z</time>
      </trkpt>
      <trkpt lat="45.81509" lon="1.21458">
        <ele>297</ele>
        <time>2020-09-19T10:11:13.750Z</time>
      </trkpt>
      <trkpt lat="45.81506" lon="1.21457">
        <ele>297</ele>
        <time>2020-09-19T10:11:14.750Z</time>
      </trkpt>
      <trkpt lat="45.81504" lon="1.21456">
        <ele>297</ele>
        <time>2020-09-19T10:11:15.750Z</time>
      </trkpt>
      <trkpt lat="45.81502" lon="1.21456">
        <ele>298</ele>
        <time>2020-09-19T10:11:16.750Z</time>
      </trkpt>
      <trkpt lat="45.81499" lon="1.21455">
        <ele>299</ele>
        <time>2020-09-19T10:11:17.750Z</time>
      </trkpt>
      <trkpt lat="45.81496" lon="1.21454">
        <ele>299</ele>
        <time>2020-09-19T10:11:18.750Z</time>
      </trkpt>
      <trkpt lat="45.81493" lon="1.21452">
        <ele>300</ele>
        <time>2020-09-19T10:11:19.750Z</time>
      </trkpt>
      <trkpt lat="45.81491" lon="1.21451">
        <ele>299</ele>
        <time>2020-09-19T10:11:20.750Z</time>
      </trkpt>
      <trkpt lat="45.81488" lon="1.21449">
        <ele>300</ele>
        <time>2020-09-19T10:11:21.750Z</time>
      </trkpt>
      <trkpt lat="45.81485" lon="1.21448">
        <ele>300</ele>
        <time>2020-09-19T10:11:22.750Z</time>
      </trkpt>
      <trkpt lat="45.81482" lon="1.21447">
        <ele>300</ele>
        <time>2020-09-19T10:11:23.750Z</time>
      </trkpt>
      <trkpt lat="45.81479" lon="1.21446">
        <ele>300</ele>
        <time>2020-09-19T10:11:24.750Z</time>
      </trkpt>
      <trkpt lat="45.81477" lon="1.21445">
        <ele>300</ele>
        <time>2020-09-19T10:11:25.750Z</time>
      </trkpt>
      <trkpt lat="45.81474" lon="1.21444">
        <ele>301</ele>
        <time>2020-09-19T10:11:26.750Z</time>
      </trkpt>
      <trkpt lat="45.81471" lon="1.21443">
        <ele>301</ele>
        <time>2020-09-19T10:11:27.750Z</time>
      </trkpt>
      <trkpt lat="45.81467" lon="1.21442">
        <ele>302</ele>
        <time>2020-09-19T10:11:28.750Z</time>
      </trkpt>
      <trkpt lat="45.81464" lon="1.21441">
        <ele>301</ele>
        <time>2020-09-19T10:11:29.750Z</time>
      </trkpt>
      <trkpt lat="45.81461" lon="1.2144">
        <ele>302</ele>
        <time>2020-09-19T10:11:30.750Z</time>
      </trkpt>
      <trkpt lat="45.81458" lon="1.21439">
        <ele>303</ele>
        <time>2020-09-19T10:11:31.750Z</time>
      </trkpt>
      <trkpt lat="45.81455" lon="1.21438">
        <ele>303</ele>
        <time>2020-09-19T10:11:32.750Z</time>
      </trkpt>
      <trkpt lat="45.81452" lon="1.21437">
        <ele>303</ele>
        <time>2020-09-19T10:11:33.750Z</time>
      </trkpt>
      <trkpt lat="45.81449" lon="1.21436">
        <ele>303</ele>
        <time>2020-09-19T10:11:34.750Z</time>
      </trkpt>
      <trkpt lat="45.81446" lon="1.21435">
        <ele>304</ele>
        <time>2020-09-19T10:11:35.750Z</time>
      </trkpt>
      <trkpt lat="45.81443" lon="1.21434">
        <ele>304</ele>
        <time>2020-09-19T10:11:36.750Z</time>
      </trkpt>
      <trkpt lat="45.8144" lon="1.21433">
        <ele>304</ele>
        <time>2020-09-19T10:11:37.750Z</time>
      </trkpt>
      <trkpt lat="45.81437" lon="1.21432">
        <ele>304</ele>
        <time>2020-09-19T10:11:38.750Z</time>
      </trkpt>
      <trkpt lat="45.81434" lon="1.21431">
        <ele>305</ele>
        <time>2020-09-19T10:11:39.750Z</time>
      </trkpt>
      <trkpt lat="45.81431" lon="1.2143">
        <ele>305</ele>
        <time>2020-09-19T10:11:40.750Z</time>
      </trkpt>
      <trkpt lat="45.81428" lon="1.21429">
        <ele>306</ele>
        <time>2020-09-19T10:11:41.750Z</time>
      </trkpt>
      <trkpt lat="45.81425" lon="1.21427">
        <ele>306</ele>
        <time>2020-09-19T10:11:42.750Z</time>
      </trkpt>
      <trkpt lat="45.81421" lon="1.21426">
        <ele>307</ele>
        <time>2020-09-19T10:11:43.750Z</time>
      </trkpt>
      <trkpt lat="45.81418" lon="1.21425">
        <ele>307</ele>
        <time>2020-09-19T10:11:44.750Z</time>
      </trkpt>
      <trkpt lat="45.81415" lon="1.21424">
        <ele>307</ele>
        <time>2020-09-19T10:11:45.750Z</time>
      </trkpt>
      <trkpt lat="45.81412" lon="1.21424">
        <ele>307</ele>
        <time>2020-09-19T10:11:46.750Z</time>
      </trkpt>
      <trkpt lat="45.8141" lon="1.21423">
        <ele>306</ele>
        <time>2020-09-19T10:11:47.750Z</time>
      </trkpt>
      <trkpt lat="45.81407" lon="1.21422">
        <ele>306</ele>
        <time>2020-09-19T10:11:48.750Z</time>
      </trkpt>
      <trkpt lat="45.81404" lon="1.21421">
        <ele>306</ele>
        <time>2020-09-19T10:11:49.750Z</time>
      </trkpt>
      <trkpt lat="45.81401" lon="1.21421">
        <ele>306</ele>
        <time>2020-09-19T10:11:50.750Z</time>
      </trkpt>
      <trkpt lat="45.81398" lon="1.2142">
        <ele>305</ele>
        <time>2020-09-19T10:11:51.750Z</time>
      </trkpt>
      <trkpt lat="45.81394" lon="1.21419">
        <ele>306</ele>
        <time>2020-09-19T10:11:52.750Z</time>
      </trkpt>
      <trkpt lat="45.81391" lon="1.21419">
        <ele>306</ele>
        <time>2020-09-19T10:11:53.750Z</time>
      </trkpt>
      <trkpt lat="45.81388" lon="1.21418">
        <ele>306</ele>
        <time>2020-09-19T10:11:54.750Z</time>
      </trkpt>
      <trkpt lat="45.81386" lon="1.21418">
        <ele>307</ele>
        <time>2020-09-19T10:11:55.750Z</time>
      </trkpt>
      <trkpt lat="45.81383" lon="1.21418">
        <ele>306</ele>
        <time>2020-09-19T10:11:56.750Z</time>
      </trkpt>
      <trkpt lat="45.8138" lon="1.21417">
        <ele>306</ele>
        <time>2020-09-19T10:11:57.750Z</time>
      </trkpt>
      <trkpt lat="45.81377" lon="1.21417">
        <ele>305</ele>
        <time>2020-09-19T10:11:58.750Z</time>
      </trkpt>
      <trkpt lat="45.81374" lon="1.21417">
        <ele>305</ele>
        <time>2020-09-19T10:11:59.750Z</time>
      </trkpt>
      <trkpt lat="45.81371" lon="1.21417">
        <ele>306</ele>
        <time>2020-09-19T10:12:00.750Z</time>
      </trkpt>
      <trkpt lat="45.81368" lon="1.21417">
        <ele>305</ele>
        <time>2020-09-19T10:12:01.750Z</time>
      </trkpt>
      <trkpt lat="45.81364" lon="1.21417">
        <ele>306</ele>
        <time>2020-09-19T10:12:02.750Z</time>
      </trkpt>
      <trkpt lat="45.81361" lon="1.21418">
        <ele>306</ele>
        <time>2020-09-19T10:12:03.750Z</time>
      </trkpt>
      <trkpt lat="45.81358" lon="1.21419">
        <ele>307</ele>
        <time>2020-09-19T10:12:04.750Z</time>
      </trkpt>
      <trkpt lat="45.81355" lon="1.2142">
        <ele>307</ele>
        <time>2020-09-19T10:12:05.750Z</time>
      </trkpt>
      <trkpt lat="45.81352" lon="1.2142">
        <ele>307</ele>
        <time>2020-09-19T10:12:06.750Z</time>
      </trkpt>
      <trkpt lat="45.8135" lon="1.21421">
        <ele>307</ele>
        <time>2020-09-19T10:12:07.750Z</time>
      </trkpt>
      <trkpt lat="45.81347" lon="1.21422">
        <ele>306</ele>
        <time>2020-09-19T10:12:08.750Z</time>
      </trkpt>
      <trkpt lat="45.81345" lon="1.21423">
        <ele>306</ele>
        <time>2020-09-19T10:12:09.750Z</time>
      </trkpt>
      <trkpt lat="45.81343" lon="1.21424">
        <ele>307</ele>
        <time>2020-09-19T10:12:10.750Z</time>
      </trkpt>
      <trkpt lat="45.81341" lon="1.21426">
        <ele>306</ele>
        <time>2020-09-19T10:12:11.750Z</time>
      </trkpt>
      <trkpt lat="45.81338" lon="1.21428">
        <ele>306</ele>
        <time>2020-09-19T10:12:12.750Z</time>
      </trkpt>
      <trkpt lat="45.81335" lon="1.2143">
        <ele>307</ele>
        <time>2020-09-19T10:12:13.750Z</time>
      </trkpt>
      <trkpt lat="45.81332" lon="1.21433">
        <ele>307</ele>
        <time>2020-09-19T10:12:14.750Z</time>
      </trkpt>
      <trkpt lat="45.8133" lon="1.21436">
        <ele>307</ele>
        <time>2020-09-19T10:12:15.750Z</time>
      </trkpt>
      <trkpt lat="45.81327" lon="1.21438">
        <ele>307</ele>
        <time>2020-09-19T10:12:16.750Z</time>
      </trkpt>
      <trkpt lat="45.81325" lon="1.2144">
        <ele>307</ele>
        <time>2020-09-19T10:12:17.750Z</time>
      </trkpt>
      <trkpt lat="45.81322" lon="1.21443">
        <ele>307</ele>
        <time>2020-09-19T10:12:18.750Z</time>
      </trkpt>
      <trkpt lat="45.8132" lon="1.21446">
        <ele>306</ele>
        <time>2020-09-19T10:12:19.750Z</time>
      </trkpt>
      <trkpt lat="45.81318" lon="1.21448">
        <ele>307</ele>
        <time>2020-09-19T10:12:20.750Z</time>
      </trkpt>
      <trkpt lat="45.81316" lon="1.21451">
        <ele>307</ele>
        <time>2020-09-19T10:12:21.750Z</time>
      </trkpt>
      <trkpt lat="45.81314" lon="1.21454">
        <ele>308</ele>
        <time>2020-09-19T10:12:22.750Z</time>
      </trkpt>
      <trkpt lat="45.81311" lon="1.21457">
        <ele>308</ele>
        <time>2020-09-19T10:12:23.750Z</time>
      </trkpt>
      <trkpt lat="45.81309" lon="1.21459">
        <ele>309</ele>
        <time>2020-09-19T10:12:24.750Z</time>
      </trkpt>
      <trkpt lat="45.81306" lon="1.21462">
        <ele>309</ele>
        <time>2020-09-19T10:12:25.750Z</time>
      </trkpt>
      <trkpt lat="45.81304" lon="1.21464">
        <ele>309</ele>
        <time>2020-09-19T10:12:26.750Z</time>
      </trkpt>
      <trkpt lat="45.81302" lon="1.21467">
        <ele>310</ele>
        <time>2020-09-19T10:12:27.750Z</time>
      </trkpt>
      <trkpt lat="45.813" lon="1.21469">
        <ele>310</ele>
        <time>2020-09-19T10:12:28.750Z</time>
      </trkpt>
      <trkpt lat="45.81298" lon="1.21471">
        <ele>310</ele>
        <time>2020-09-19T10:12:29.750Z</time>
      </trkpt>
      <trkpt lat="45.81297" lon="1.21473">
        <ele>310</ele>
        <time>2020-09-19T10:12:30.750Z</time>
      </trkpt>
      <trkpt lat="45.81296" lon="1.21476">
        <ele>311</ele>
        <time>2020-09-19T10:12:31.750Z</time>
      </trkpt>
      <trkpt lat="45.81294" lon="1.21478">
        <ele>311</ele>
        <time>2020-09-19T10:12:32.750Z</time>
      </trkpt>
      <trkpt lat="45.81293" lon="1.2148">
        <ele>310</ele>
        <time>2020-09-19T10:12:33.750Z</time>
      </trkpt>
      <trkpt lat="45.81291" lon="1.21483">
        <ele>310</ele>
        <time>2020-09-19T10:12:34.750Z</time>
      </trkpt>
      <trkpt lat="45.81291" lon="1.21486">
        <ele>309</ele>
        <time>2020-09-19T10:12:35.750Z</time>
      </trkpt>
      <trkpt lat="45.8129" lon="1.21489">
        <ele>308</ele>
        <time>2020-09-19T10:12:36.750Z</time>
      </trkpt>
      <trkpt lat="45.81289" lon="1.21493">
        <ele>308</ele>
        <time>2020-09-19T10:12:37.750Z</time>
      </trkpt>
      <trkpt lat="45.81288" lon="1.21497">
        <ele>308</ele>
        <time>2020-09-19T10:12:38.750Z</time>
      </trkpt>
      <trkpt lat="45.81287" lon="1.21501">
        <ele>308</ele>
        <time>2020-09-19T10:12:39.750Z</time>
      </trkpt>
      <trkpt lat="45.81287" lon="1.21506">
        <ele>307</ele>
        <time>2020-09-19T10:12:40.750Z</time>
      </trkpt>
      <trkpt lat="45.81285" lon="1.2151">
        <ele>307</ele>
        <time>2020-09-19T10:12:41.750Z</time>
      </trkpt>
      <trkpt lat="45.81284" lon="1.21515">
        <ele>307</ele>
        <time>2020-09-19T10:12:42.750Z</time>
      </trkpt>
      <trkpt lat="45.81282" lon="1.21519">
        <ele>307</ele>
        <time>2020-09-19T10:12:43.750Z</time>
      </trkpt>
      <trkpt lat="45.81279" lon="1.21522">
        <ele>306</ele>
        <time>2020-09-19T10:12:44.750Z</time>
      </trkpt>
      <trkpt lat="45.81277" lon="1.21524">
        <ele>306</ele>
        <time>2020-09-19T10:12:45.750Z</time>
      </trkpt>
      <trkpt lat="45.81275" lon="1.21525">
        <ele>306</ele>
        <time>2020-09-19T10:12:46.750Z</time>
      </trkpt>
      <trkpt lat="45.81273" lon="1.21526">
        <ele>306</ele>
        <time>2020-09-19T10:12:47.750Z</time>
      </trkpt>
      <trkpt lat="45.81271" lon="1.21528">
        <ele>307</ele>
        <time>2020-09-19T10:12:48.750Z</time>
      </trkpt>
      <trkpt lat="45.81268" lon="1.2153">
        <ele>308</ele>
        <time>2020-09-19T10:12:49.750Z</time>
      </trkpt>
      <trkpt lat="45.81265" lon="1.21532">
        <ele>308</ele>
        <time>2020-09-19T10:12:50.750Z</time>
      </trkpt>
      <trkpt lat="45.81262" lon="1.21534">
        <ele>308</ele>
        <time>2020-09-19T10:12:51.750Z</time>
      </trkpt>
      <trkpt lat="45.81259" lon="1.21536">
        <ele>308</ele>
        <time>2020-09-19T10:12:52.750Z</time>
      </trkpt>
      <trkpt lat="45.81257" lon="1.21537">
        <ele>309</ele>
        <time>2020-09-19T10:12:53.750Z</time>
      </trkpt>
      <trkpt lat="45.81254" lon="1.21538">
        <ele>310</ele>
        <time>2020-09-19T10:12:54.750Z</time>
      </trkpt>
      <trkpt lat="45.81251" lon="1.2154">
        <ele>311</ele>
        <time>2020-09-19T10:12:55.750Z</time>
      </trkpt>
      <trkpt lat="45.81249" lon="1.21542">
        <ele>311</ele>
        <time>2020-09-19T10:12:56.750Z</time>
      </trkpt>
      <trkpt lat="45.81246" lon="1.21544">
        <ele>312</ele>
        <time>2020-09-19T10:12:57.750Z</time>
      </trkpt>
      <trkpt lat="45.81243" lon="1.21545">
        <ele>313</ele>
        <time>2020-09-19T10:12:58.750Z</time>
      </trkpt>
      <trkpt lat="45.81241" lon="1.21547">
        <ele>314</ele>
        <time>2020-09-19T10:12:59.750Z</time>
      </trkpt>
      <trkpt lat="45.81238" lon="1.21548">
        <ele>315</ele>
        <time>2020-09-19T10:13:00.750Z</time>
      </trkpt>
      <trkpt lat="45.81235" lon="1.2155">
        <ele>315</ele>
        <time>2020-09-19T10:13:01.750Z</time>
      </trkpt>
      <trkpt lat="45.81232" lon="1.21551">
        <ele>316</ele>
        <time>2020-09-19T10:13:02.750Z</time>
      </trkpt>
      <trkpt lat="45.81229" lon="1.21552">
        <ele>316</ele>
        <time>2020-09-19T10:13:03.750Z</time>
      </trkpt>
      <trkpt lat="45.81226" lon="1.21554">
        <ele>317</ele>
        <time>2020-09-19T10:13:04.750Z</time>
      </trkpt>
      <trkpt lat="45.81224" lon="1.21555">
        <ele>317</ele>
        <time>2020-09-19T10:13:05.750Z</time>
      </trkpt>
      <trkpt lat="45.81221" lon="1.21556">
        <ele>317</ele>
        <time>2020-09-19T10:13:06.750Z</time>
      </trkpt>
      <trkpt lat="45.81218" lon="1.21557">
        <ele>318</ele>
        <time>2020-09-19T10:13:07.750Z</time>
      </trkpt>
      <trkpt lat="45.81215" lon="1.21558">
        <ele>318</ele>
        <time>2020-09-19T10:13:08.750Z</time>
      </trkpt>
      <trkpt lat="45.81213" lon="1.21559">
        <ele>319</ele>
        <time>2020-09-19T10:13:09.750Z</time>
      </trkpt>
      <trkpt lat="45.81211" lon="1.2156">
        <ele>320</ele>
        <time>2020-09-19T10:13:10.750Z</time>
      </trkpt>
      <trkpt lat="45.81211" lon="1.21558">
        <ele>320</ele>
        <time>2020-09-19T10:13:11.750Z</time>
      </trkpt>
      <trkpt lat="45.81211" lon="1.21556">
        <ele>321</ele>
        <time>2020-09-19T10:13:12.750Z</time>
      </trkpt>
      <trkpt lat="45.81213" lon="1.21554">
        <ele>321</ele>
        <time>2020-09-19T10:13:13.750Z</time>
      </trkpt>
      <trkpt lat="45.81213" lon="1.21553">
        <ele>320</ele>
        <time>2020-09-19T10:13:14.750Z</time>
      </trkpt>
      <trkpt lat="45.81215" lon="1.21552">
        <ele>319</ele>
        <time>2020-09-19T10:13:15.750Z</time>
      </trkpt>
      <trkpt lat="45.81216" lon="1.21551">
        <ele>319</ele>
        <time>2020-09-19T10:13:16.750Z</time>
      </trkpt>
      <trkpt lat="45.81218" lon="1.2155">
        <ele>319</ele>
        <time>2020-09-19T10:13:17.750Z</time>
      </trkpt>
      <trkpt lat="45.8122" lon="1.2155">
        <ele>319</ele>
        <time>2020-09-19T10:13:18.750Z</time>
      </trkpt>
      <trkpt lat="45.81221" lon="1.21549">
        <ele>319</ele>
        <time>2020-09-19T10:13:19.750Z</time>
      </trkpt>
      <trkpt lat="45.81223" lon="1.21548">
        <ele>319</ele>
        <time>2020-09-19T10:13:20.750Z</time>
      </trkpt>
      <trkpt lat="45.81224" lon="1.21547">
        <ele>320</ele>
        <time>2020-09-19T10:13:21.750Z</time>
      </trkpt>
      <trkpt lat="45.81226" lon="1.21546">
        <ele>320</ele>
        <time>2020-09-19T10:13:22.750Z</time>
      </trkpt>
      <trkpt lat="45.81229" lon="1.21545">
        <ele>319</ele>
        <time>2020-09-19T10:13:23.750Z</time>
      </trkpt>
      <trkpt lat="45.81232" lon="1.21543">
        <ele>319</ele>
        <time>2020-09-19T10:13:24.750Z</time>
      </trkpt>
      <trkpt lat="45.81235" lon="1.21542">
        <ele>318</ele>
        <time>2020-09-19T10:13:25.750Z</time>
      </trkpt>
      <trkpt lat="45.81238" lon="1.2154">
        <ele>318</ele>
        <time>2020-09-19T10:13:26.750Z</time>
      </trkpt>
      <trkpt lat="45.81241" lon="1.21538">
        <ele>317</ele>
        <time>2020-09-19T10:13:27.750Z</time>
      </trkpt>
      <trkpt lat="45.81245" lon="1.21537">
        <ele>316</ele>
        <time>2020-09-19T10:13:28.750Z</time>
      </trkpt>
      <trkpt lat="45.81248" lon="1.21535">
        <ele>315</ele>
        <time>2020-09-19T10:13:29.750Z</time>
      </trkpt>
      <trkpt lat="45.81251" lon="1.21533">
        <ele>314</ele>
        <time>2020-09-19T10:13:30.750Z</time>
      </trkpt>
      <trkpt lat="45.81254" lon="1.21531">
        <ele>314</ele>
        <time>2020-09-19T10:13:31.750Z</time>
      </trkpt>
      <trkpt lat="45.81258" lon="1.2153">
        <ele>313</ele>
        <time>2020-09-19T10:13:32.750Z</time>
      </trkpt>
      <trkpt lat="45.81261" lon="1.21528">
        <ele>312</ele>
        <time>2020-09-19T10:13:33.750Z</time>
      </trkpt>
      <trkpt lat="45.81264" lon="1.21527">
        <ele>311</ele>
        <time>2020-09-19T10:13:34.750Z</time>
      </trkpt>
      <trkpt lat="45.81267" lon="1.21525">
        <ele>311</ele>
        <time>2020-09-19T10:13:35.750Z</time>
      </trkpt>
      <trkpt lat="45.8127" lon="1.21524">
        <ele>310</ele>
        <time>2020-09-19T10:13:36.750Z</time>
      </trkpt>
      <trkpt lat="45.81272" lon="1.21521">
        <ele>309</ele>
        <time>2020-09-19T10:13:37.750Z</time>
      </trkpt>
      <trkpt lat="45.81275" lon="1.21518">
        <ele>308</ele>
        <time>2020-09-19T10:13:38.750Z</time>
      </trkpt>
      <trkpt lat="45.81277" lon="1.21515">
        <ele>308</ele>
        <time>2020-09-19T10:13:39.750Z</time>
      </trkpt>
      <trkpt lat="45.81278" lon="1.21512">
        <ele>307</ele>
        <time>2020-09-19T10:13:40.750Z</time>
      </trkpt>
      <trkpt lat="45.8128" lon="1.21509">
        <ele>307</ele>
        <time>2020-09-19T10:13:41.750Z</time>
      </trkpt>
      <trkpt lat="45.81281" lon="1.21506">
        <ele>307</ele>
        <time>2020-09-19T10:13:42.750Z</time>
      </trkpt>
      <trkpt lat="45.81282" lon="1.21503">
        <ele>306</ele>
        <time>2020-09-19T10:13:43.750Z</time>
      </trkpt>
      <trkpt lat="45.81283" lon="1.215">
        <ele>305</ele>
        <time>2020-09-19T10:13:44.750Z</time>
      </trkpt>
      <trkpt lat="45.81285" lon="1.21496">
        <ele>304</ele>
        <time>2020-09-19T10:13:45.750Z</time>
      </trkpt>
      <trkpt lat="45.81287" lon="1.21493">
        <ele>303</ele>
        <time>2020-09-19T10:13:46.750Z</time>
      </trkpt>
      <trkpt lat="45.81289" lon="1.2149">
        <ele>302</ele>
        <time>2020-09-19T10:13:47.750Z</time>
      </trkpt>
      <trkpt lat="45.81291" lon="1.21486">
        <ele>302</ele>
        <time>2020-09-19T10:13:48.750Z</time>
      </trkpt>
      <trkpt lat="45.81292" lon="1.21482">
        <ele>300</ele>
        <time>2020-09-19T10:13:49.750Z</time>
      </trkpt>
      <trkpt lat="45.81294" lon="1.21478">
        <ele>300</ele>
        <time>2020-09-19T10:13:50.750Z</time>
      </trkpt>
      <trkpt lat="45.81297" lon="1.21474">
        <ele>299</ele>
        <time>2020-09-19T10:13:51.750Z</time>
      </trkpt>
      <trkpt lat="45.81299" lon="1.2147">
        <ele>298</ele>
        <time>2020-09-19T10:13:52.750Z</time>
      </trkpt>
      <trkpt lat="45.81302" lon="1.21466">
        <ele>299</ele>
        <time>2020-09-19T10:13:53.750Z</time>
      </trkpt>
      <trkpt lat="45.81305" lon="1.21462">
        <ele>299</ele>
        <time>2020-09-19T10:13:54.750Z</time>
      </trkpt>
      <trkpt lat="45.81307" lon="1.21459">
        <ele>297</ele>
        <time>2020-09-19T10:13:55.750Z</time>
      </trkpt>
      <trkpt lat="45.8131" lon="1.21455">
        <ele>297</ele>
        <time>2020-09-19T10:13:56.750Z</time>
      </trkpt>
      <trkpt lat="45.81313" lon="1.21452">
        <ele>296</ele>
        <time>2020-09-19T10:13:57.750Z</time>
      </trkpt>
      <trkpt lat="45.81316" lon="1.21448">
        <ele>295</ele>
        <time>2020-09-19T10:13:58.750Z</time>
      </trkpt>
      <trkpt lat="45.81319" lon="1.21445">
        <ele>295</ele>
        <time>2020-09-19T10:13:59.750Z</time>
      </trkpt>
      <trkpt lat="45.81322" lon="1.21441">
        <ele>295</ele>
        <time>2020-09-19T10:14:00.750Z</time>
      </trkpt>
      <trkpt lat="45.81326" lon="1.21438">
        <ele>294</ele>
        <time>2020-09-19T10:14:01.750Z</time>
      </trkpt>
      <trkpt lat="45.81329" lon="1.21435">
        <ele>294</ele>
        <time>2020-09-19T10:14:02.750Z</time>
      </trkpt>
      <trkpt lat="45.81333" lon="1.21432">
        <ele>294</ele>
        <time>2020-09-19T10:14:03.750Z</time>
      </trkpt>
      <trkpt lat="45.81336" lon="1.21429">
        <ele>293</ele>
        <time>2020-09-19T10:14:04.750Z</time>
      </trkpt>
      <trkpt lat="45.8134" lon="1.21427">
        <ele>293</ele>
        <time>2020-09-19T10:14:05.750Z</time>
      </trkpt>
      <trkpt lat="45.81343" lon="1.21425">
        <ele>292</ele>
        <time>2020-09-19T10:14:06.750Z</time>
      </trkpt>
      <trkpt lat="45.81346" lon="1.21423">
        <ele>292</ele>
        <time>2020-09-19T10:14:07.750Z</time>
      </trkpt>
      <trkpt lat="45.8135" lon="1.21421">
        <ele>291</ele>
        <time>2020-09-19T10:14:08.750Z</time>
      </trkpt>
      <trkpt lat="45.81353" lon="1.21419">
        <ele>291</ele>
        <time>2020-09-19T10:14:09.750Z</time>
      </trkpt>
      <trkpt lat="45.81356" lon="1.21417">
        <ele>292</ele>
        <time>2020-09-19T10:14:10.750Z</time>
      </trkpt>
      <trkpt lat="45.81359" lon="1.21416">
        <ele>292</ele>
        <time>2020-09-19T10:14:11.750Z</time>
      </trkpt>
      <trkpt lat="45.81362" lon="1.21414">
        <ele>292</ele>
        <time>2020-09-19T10:14:12.750Z</time>
      </trkpt>
      <trkpt lat="45.81366" lon="1.21413">
        <ele>292</ele>
        <time>2020-09-19T10:14:13.750Z</time>
      </trkpt>
      <trkpt lat="45.81369" lon="1.21412">
        <ele>292</ele>
        <time>2020-09-19T10:14:14.750Z</time>
      </trkpt>
      <trkpt lat="45.81373" lon="1.21411">
        <ele>293</ele>
        <time>2020-09-19T10:14:15.750Z</time>
      </trkpt>
      <trkpt lat="45.81376" lon="1.21409">
        <ele>293</ele>
        <time>2020-09-19T10:14:16.750Z</time>
      </trkpt>
      <trkpt lat="45.81379" lon="1.21409">
        <ele>293</ele>
        <time>2020-09-19T10:14:17.750Z</time>
      </trkpt>
      <trkpt lat="45.81383" lon="1.21408">
        <ele>294</ele>
        <time>2020-09-19T10:14:18.750Z</time>
      </trkpt>
      <trkpt lat="45.81386" lon="1.21407">
        <ele>294</ele>
        <time>2020-09-19T10:14:19.750Z</time>
      </trkpt>
      <trkpt lat="45.81389" lon="1.21407">
        <ele>294</ele>
        <time>2020-09-19T10:14:20.750Z</time>
      </trkpt>
      <trkpt lat="45.81393" lon="1.21406">
        <ele>295</ele>
        <time>2020-09-19T10:14:21.750Z</time>
      </trkpt>
      <trkpt lat="45.81396" lon="1.21407">
        <ele>294</ele>
        <time>2020-09-19T10:14:22.750Z</time>
      </trkpt>
      <trkpt lat="45.81399" lon="1.21407">
        <ele>295</ele>
        <time>2020-09-19T10:14:23.750Z</time>
      </trkpt>
      <trkpt lat="45.81403" lon="1.21408">
        <ele>295</ele>
        <time>2020-09-19T10:14:24.750Z</time>
      </trkpt>
      <trkpt lat="45.81406" lon="1.21408">
        <ele>296</ele>
        <time>2020-09-19T10:14:25.750Z</time>
      </trkpt>
      <trkpt lat="45.8141" lon="1.21409">
        <ele>297</ele>
        <time>2020-09-19T10:14:26.750Z</time>
      </trkpt>
      <trkpt lat="45.81413" lon="1.2141">
        <ele>298</ele>
        <time>2020-09-19T10:14:27.750Z</time>
      </trkpt>
      <trkpt lat="45.81416" lon="1.2141">
        <ele>298</ele>
        <time>2020-09-19T10:14:28.750Z</time>
      </trkpt>
      <trkpt lat="45.81419" lon="1.21411">
        <ele>297</ele>
        <time>2020-09-19T10:14:29.750Z</time>
      </trkpt>
      <trkpt lat="45.81423" lon="1.21412">
        <ele>297</ele>
        <time>2020-09-19T10:14:30.750Z</time>
      </trkpt>
      <trkpt lat="45.81426" lon="1.21412">
        <ele>297</ele>
        <time>2020-09-19T10:14:31.750Z</time>
      </trkpt>
      <trkpt lat="45.81429" lon="1.21413">
        <ele>297</ele>
        <time>2020-09-19T10:14:32.750Z</time>
      </trkpt>
      <trkpt lat="45.81433" lon="1.21414">
        <ele>297</ele>
        <time>2020-09-19T10:14:33.750Z</time>
      </trkpt>
      <trkpt lat="45.81436" lon="1.21416">
        <ele>297</ele>
        <time>2020-09-19T10:14:34.750Z</time>
      </trkpt>
      <trkpt lat="45.8144" lon="1.21417">
        <ele>295</ele>
        <time>2020-09-19T10:14:35.750Z</time>
      </trkpt>
      <trkpt lat="45.81443" lon="1.21419">
        <ele>294</ele>
        <time>2020-09-19T10:14:36.750Z</time>
      </trkpt>
      <trkpt lat="45.81447" lon="1.2142">
        <ele>294</ele>
        <time>2020-09-19T10:14:37.750Z</time>
      </trkpt>
      <trkpt lat="45.8145" lon="1.21422">
        <ele>294</ele>
        <time>2020-09-19T10:14:38.750Z</time>
      </trkpt>
      <trkpt lat="45.81453" lon="1.21424">
        <ele>294</ele>
        <time>2020-09-19T10:14:39.750Z</time>
      </trkpt>
      <trkpt lat="45.81456" lon="1.21425">
        <ele>294</ele>
        <time>2020-09-19T10:14:40.750Z</time>
      </trkpt>
      <trkpt lat="45.81459" lon="1.21427">
        <ele>295</ele>
        <time>2020-09-19T10:14:41.750Z</time>
      </trkpt>
      <trkpt lat="45.81462" lon="1.21428">
        <ele>295</ele>
        <time>2020-09-19T10:14:42.750Z</time>
      </trkpt>
      <trkpt lat="45.81465" lon="1.21429">
        <ele>295</ele>
        <time>2020-09-19T10:14:43.750Z</time>
      </trkpt>
      <trkpt lat="45.81468" lon="1.2143">
        <ele>295</ele>
        <time>2020-09-19T10:14:44.750Z</time>
      </trkpt>
      <trkpt lat="45.81471" lon="1.21432">
        <ele>295</ele>
        <time>2020-09-19T10:14:45.750Z</time>
      </trkpt>
      <trkpt lat="45.81474" lon="1.21433">
        <ele>295</ele>
        <time>2020-09-19T10:14:46.750Z</time>
      </trkpt>
      <trkpt lat="45.81477" lon="1.21434">
        <ele>295</ele>
        <time>2020-09-19T10:14:47.750Z</time>
      </trkpt>
      <trkpt lat="45.8148" lon="1.21436">
        <ele>294</ele>
        <time>2020-09-19T10:14:48.750Z</time>
      </trkpt>
      <trkpt lat="45.81483" lon="1.21437">
        <ele>293</ele>
        <time>2020-09-19T10:14:49.750Z</time>
      </trkpt>
      <trkpt lat="45.81487" lon="1.21438">
        <ele>292</ele>
        <time>2020-09-19T10:14:50.750Z</time>
      </trkpt>
      <trkpt lat="45.8149" lon="1.21439">
        <ele>293</ele>
        <time>2020-09-19T10:14:51.750Z</time>
      </trkpt>
      <trkpt lat="45.81493" lon="1.2144">
        <ele>292</ele>
        <time>2020-09-19T10:14:52.750Z</time>
      </trkpt>
      <trkpt lat="45.81496" lon="1.21442">
        <ele>292</ele>
        <time>2020-09-19T10:14:53.750Z</time>
      </trkpt>
      <trkpt lat="45.815" lon="1.21443">
        <ele>291</ele>
        <time>2020-09-19T10:14:54.750Z</time>
      </trkpt>
      <trkpt lat="45.81503" lon="1.21445">
        <ele>291</ele>
        <time>2020-09-19T10:14:55.750Z</time>
      </trkpt>
      <trkpt lat="45.81506" lon="1.21447">
        <ele>291</ele>
        <time>2020-09-19T10:14:56.750Z</time>
      </trkpt>
      <trkpt lat="45.81509" lon="1.21449">
        <ele>291</ele>
        <time>2020-09-19T10:14:57.750Z</time>
      </trkpt>
      <trkpt lat="45.81512" lon="1.21451">
        <ele>291</ele>
        <time>2020-09-19T10:14:58.750Z</time>
      </trkpt>
      <trkpt lat="45.81516" lon="1.21452">
        <ele>290</ele>
        <time>2020-09-19T10:14:59.750Z</time>
      </trkpt>
      <trkpt lat="45.81519" lon="1.21454">
        <ele>288</ele>
        <time>2020-09-19T10:15:00.750Z</time>
      </trkpt>
      <trkpt lat="45.81523" lon="1.21456">
        <ele>288</ele>
        <time>2020-09-19T10:15:01.750Z</time>
      </trkpt>
      <trkpt lat="45.81526" lon="1.21458">
        <ele>287</ele>
        <time>2020-09-19T10:15:02.750Z</time>
      </trkpt>
      <trkpt lat="45.81529" lon="1.21459">
        <ele>288</ele>
        <time>2020-09-19T10:15:03.750Z</time>
      </trkpt>
      <trkpt lat="45.81532" lon="1.2146">
        <ele>288</ele>
        <time>2020-09-19T10:15:04.750Z</time>
      </trkpt>
      <trkpt lat="45.81535" lon="1.21462">
        <ele>288</ele>
        <time>2020-09-19T10:15:05.750Z</time>
      </trkpt>
      <trkpt lat="45.81538" lon="1.21463">
        <ele>288</ele>
        <time>2020-09-19T10:15:06.750Z</time>
      </trkpt>
      <trkpt lat="45.81541" lon="1.21464">
        <ele>289</ele>
        <time>2020-09-19T10:15:07.750Z</time>
      </trkpt>
      <trkpt lat="45.81545" lon="1.21465">
        <ele>288</ele>
        <time>2020-09-19T10:15:08.750Z</time>
      </trkpt>
      <trkpt lat="45.81548" lon="1.21467">
        <ele>288</ele>
        <time>2020-09-19T10:15:09.750Z</time>
      </trkpt>
      <trkpt lat="45.81552" lon="1.21468">
        <ele>288</ele>
        <time>2020-09-19T10:15:10.750Z</time>
      </trkpt>
      <trkpt lat="45.81555" lon="1.21469">
        <ele>287</ele>
        <time>2020-09-19T10:15:11.750Z</time>
      </trkpt>
      <trkpt lat="45.81558" lon="1.21471">
        <ele>287</ele>
        <time>2020-09-19T10:15:12.750Z</time>
      </trkpt>
      <trkpt lat="45.81562" lon="1.21472">
        <ele>287</ele>
        <time>2020-09-19T10:15:13.750Z</time>
      </trkpt>
      <trkpt lat="45.81565" lon="1.21474">
        <ele>287</ele>
        <time>2020-09-19T10:15:14.750Z</time>
      </trkpt>
      <trkpt lat="45.81569" lon="1.21475">
        <ele>286</ele>
        <time>2020-09-19T10:15:15.750Z</time>
      </trkpt>
      <trkpt lat="45.81572" lon="1.21476">
        <ele>286</ele>
        <time>2020-09-19T10:15:16.750Z</time>
      </trkpt>
      <trkpt lat="45.81576" lon="1.21477">
        <ele>285</ele>
        <time>2020-09-19T10:15:17.750Z</time>
      </trkpt>
      <trkpt lat="45.81579" lon="1.21478">
        <ele>284</ele>
        <time>2020-09-19T10:15:18.750Z</time>
      </trkpt>
      <trkpt lat="45.81583" lon="1.21478">
        <ele>284</ele>
        <time>2020-09-19T10:15:19.750Z</time>
      </trkpt>
      <trkpt lat="45.81586" lon="1.21479">
        <ele>283</ele>
        <time>2020-09-19T10:15:20.750Z</time>
      </trkpt>
      <trkpt lat="45.8159" lon="1.2148">
        <ele>283</ele>
        <time>2020-09-19T10:15:21.750Z</time>
      </trkpt>
      <trkpt lat="45.81593" lon="1.21481">
        <ele>283</ele>
        <time>2020-09-19T10:15:22.750Z</time>
      </trkpt>
      <trkpt lat="45.81596" lon="1.21481">
        <ele>283</ele>
        <time>2020-09-19T10:15:23.750Z</time>
      </trkpt>
      <trkpt lat="45.816" lon="1.21481">
        <ele>283</ele>
        <time>2020-09-19T10:15:24.750Z</time>
      </trkpt>
      <trkpt lat="45.81603" lon="1.2148">
        <ele>282</ele>
        <time>2020-09-19T10:15:25.750Z</time>
      </trkpt>
      <trkpt lat="45.81607" lon="1.21479">
        <ele>282</ele>
        <time>2020-09-19T10:15:26.750Z</time>
      </trkpt>
      <trkpt lat="45.81611" lon="1.21476">
        <ele>281</ele>
        <time>2020-09-19T10:15:27.750Z</time>
      </trkpt>
      <trkpt lat="45.81614" lon="1.21474">
        <ele>280</ele>
        <time>2020-09-19T10:15:28.750Z</time>
      </trkpt>
      <trkpt lat="45.81617" lon="1.21471">
        <ele>280</ele>
        <time>2020-09-19T10:15:29.750Z</time>
      </trkpt>
      <trkpt lat="45.8162" lon="1.21468">
        <ele>280</ele>
        <time>2020-09-19T10:15:30.750Z</time>
      </trkpt>
      <trkpt lat="45.81623" lon="1.21465">
        <ele>279</ele>
        <time>2020-09-19T10:15:31.750Z</time>
      </trkpt>
      <trkpt lat="45.81625" lon="1.21462">
        <ele>278</ele>
        <time>2020-09-19T10:15:32.750Z</time>
      </trkpt>
      <trkpt lat="45.81627" lon="1.21458">
        <ele>278</ele>
        <time>2020-09-19T10:15:33.750Z</time>
      </trkpt>
      <trkpt lat="45.8163" lon="1.21455">
        <ele>278</ele>
        <time>2020-09-19T10:15:34.750Z</time>
      </trkpt>
      <trkpt lat="45.81631" lon="1.21451">
        <ele>276</ele>
        <time>2020-09-19T10:15:35.750Z</time>
      </trkpt>
      <trkpt lat="45.81633" lon="1.21446">
        <ele>276</ele>
        <time>2020-09-19T10:15:36.750Z</time>
      </trkpt>
      <trkpt lat="45.81635" lon="1.21441">
        <ele>274</ele>
        <time>2020-09-19T10:15:37.750Z</time>
      </trkpt>
      <trkpt lat="45.81636" lon="1.21436">
        <ele>274</ele>
        <time>2020-09-19T10:15:38.750Z</time>
      </trkpt>
      <trkpt lat="45.81637" lon="1.21431">
        <ele>273</ele>
        <time>2020-09-19T10:15:39.750Z</time>
      </trkpt>
      <trkpt lat="45.81638" lon="1.21427">
        <ele>272</ele>
        <time>2020-09-19T10:15:40.750Z</time>
      </trkpt>
      <trkpt lat="45.81639" lon="1.21422">
        <ele>272</ele>
        <time>2020-09-19T10:15:41.750Z</time>
      </trkpt>
      <trkpt lat="45.81639" lon="1.21417">
        <ele>273</ele>
        <time>2020-09-19T10:15:42.750Z</time>
      </trkpt>
      <trkpt lat="45.8164" lon="1.21412">
        <ele>273</ele>
        <time>2020-09-19T10:15:43.750Z</time>
      </trkpt>
      <trkpt lat="45.8164" lon="1.21408">
        <ele>273</ele>
        <time>2020-09-19T10:15:44.750Z</time>
      </trkpt>
      <trkpt lat="45.8164" lon="1.21403">
        <ele>273</ele>
        <time>2020-09-19T10:15:45.750Z</time>
      </trkpt>
      <trkpt lat="45.8164" lon="1.21398">
        <ele>273</ele>
        <time>2020-09-19T10:15:46.750Z</time>
      </trkpt>
      <trkpt lat="45.81639" lon="1.21393">
        <ele>273</ele>
        <time>2020-09-19T10:15:47.750Z</time>
      </trkpt>
      <trkpt lat="45.81638" lon="1.21388">
        <ele>273</ele>
        <time>2020-09-19T10:15:48.750Z</time>
      </trkpt>
      <trkpt lat="45.81637" lon="1.21383">
        <ele>272</ele>
        <time>2020-09-19T10:15:49.750Z</time>
      </trkpt>
      <trkpt lat="45.81637" lon="1.21378">
        <ele>273</ele>
        <time>2020-09-19T10:15:50.750Z</time>
      </trkpt>
      <trkpt lat="45.81636" lon="1.21373">
        <ele>273</ele>
        <time>2020-09-19T10:15:51.750Z</time>
      </trkpt>
      <trkpt lat="45.81636" lon="1.21368">
        <ele>273</ele>
        <time>2020-09-19T10:15:52.750Z</time>
      </trkpt>
      <trkpt lat="45.81635" lon="1.21363">
        <ele>273</ele>
        <time>2020-09-19T10:15:53.750Z</time>
      </trkpt>
      <trkpt lat="45.81634" lon="1.21358">
        <ele>274</ele>
        <time>2020-09-19T10:15:54.750Z</time>
      </trkpt>
      <trkpt lat="45.81634" lon="1.21353">
        <ele>273</ele>
        <time>2020-09-19T10:15:55.750Z</time>
      </trkpt>
      <trkpt lat="45.81633" lon="1.21348">
        <ele>272</ele>
        <time>2020-09-19T10:15:56.750Z</time>
      </trkpt>
      <trkpt lat="45.81633" lon="1.21343">
        <ele>273</ele>
        <time>2020-09-19T10:15:57.750Z</time>
      </trkpt>
      <trkpt lat="45.81632" lon="1.21338">
        <ele>272</ele>
        <time>2020-09-19T10:15:58.750Z</time>
      </trkpt>
      <trkpt lat="45.81632" lon="1.21333">
        <ele>272</ele>
        <time>2020-09-19T10:15:59.750Z</time>
      </trkpt>
      <trkpt lat="45.81631" lon="1.21328">
        <ele>273</ele>
        <time>2020-09-19T10:16:00.750Z</time>
      </trkpt>
      <trkpt lat="45.81631" lon="1.21323">
        <ele>273</ele>
        <time>2020-09-19T10:16:01.750Z</time>
      </trkpt>
      <trkpt lat="45.8163" lon="1.21318">
        <ele>273</ele>
        <time>2020-09-19T10:16:02.750Z</time>
      </trkpt>
      <trkpt lat="45.8163" lon="1.21313">
        <ele>272</ele>
        <time>2020-09-19T10:16:03.750Z</time>
      </trkpt>
      <trkpt lat="45.81629" lon="1.21309">
        <ele>273</ele>
        <time>2020-09-19T10:16:04.750Z</time>
      </trkpt>
      <trkpt lat="45.81628" lon="1.21304">
        <ele>273</ele>
        <time>2020-09-19T10:16:05.750Z</time>
      </trkpt>
      <trkpt lat="45.81628" lon="1.21299">
        <ele>272</ele>
        <time>2020-09-19T10:16:06.750Z</time>
      </trkpt>
      <trkpt lat="45.81627" lon="1.21294">
        <ele>271</ele>
        <time>2020-09-19T10:16:07.750Z</time>
      </trkpt>
      <trkpt lat="45.81627" lon="1.21289">
        <ele>272</ele>
        <time>2020-09-19T10:16:08.750Z</time>
      </trkpt>
      <trkpt lat="45.81626" lon="1.21284">
        <ele>271</ele>
        <time>2020-09-19T10:16:09.750Z</time>
      </trkpt>
      <trkpt lat="45.81625" lon="1.21279">
        <ele>271</ele>
        <time>2020-09-19T10:16:10.750Z</time>
      </trkpt>
      <trkpt lat="45.81625" lon="1.21274">
        <ele>271</ele>
        <time>2020-09-19T10:16:11.750Z</time>
      </trkpt>
      <trkpt lat="45.81624" lon="1.2127">
        <ele>271</ele>
        <time>2020-09-19T10:16:12.750Z</time>
      </trkpt>
      <trkpt lat="45.81623" lon="1.21265">
        <ele>272</ele>
        <time>2020-09-19T10:16:13.750Z</time>
      </trkpt>
      <trkpt lat="45.81622" lon="1.2126">
        <ele>272</ele>
        <time>2020-09-19T10:16:14.750Z</time>
      </trkpt>
      <trkpt lat="45.81621" lon="1.21255">
        <ele>272</ele>
        <time>2020-09-19T10:16:15.750Z</time>
      </trkpt>
      <trkpt lat="45.81621" lon="1.2125">
        <ele>272</ele>
        <time>2020-09-19T10:16:16.750Z</time>
      </trkpt>
      <trkpt lat="45.8162" lon="1.21246">
        <ele>272</ele>
        <time>2020-09-19T10:16:17.750Z</time>
      </trkpt>
      <trkpt lat="45.8162" lon="1.21241">
        <ele>271</ele>
        <time>2020-09-19T10:16:18.750Z</time>
      </trkpt>
      <trkpt lat="45.81619" lon="1.21236">
        <ele>271</ele>
        <time>2020-09-19T10:16:19.750Z</time>
      </trkpt>
      <trkpt lat="45.81619" lon="1.21232">
        <ele>270</ele>
        <time>2020-09-19T10:16:20.750Z</time>
      </trkpt>
      <trkpt lat="45.81618" lon="1.21227">
        <ele>270</ele>
        <time>2020-09-19T10:16:21.750Z</time>
      </trkpt>
      <trkpt lat="45.81618" lon="1.21222">
        <ele>269</ele>
        <time>2020-09-19T10:16:22.750Z</time>
      </trkpt>
      <trkpt lat="45.81617" lon="1.21217">
        <ele>269</ele>
        <time>2020-09-19T10:16:23.750Z</time>
      </trkpt>
      <trkpt lat="45.81617" lon="1.21212">
        <ele>269</ele>
        <time>2020-09-19T10:16:24.750Z</time>
      </trkpt>
      <trkpt lat="45.81616" lon="1.21207">
        <ele>268</ele>
        <time>2020-09-19T10:16:25.750Z</time>
      </trkpt>
      <trkpt lat="45.81616" lon="1.21203">
        <ele>268</ele>
        <time>2020-09-19T10:16:26.750Z</time>
      </trkpt>
      <trkpt lat="45.81615" lon="1.21198">
        <ele>268</ele>
        <time>2020-09-19T10:16:27.750Z</time>
      </trkpt>
      <trkpt lat="45.81614" lon="1.21193">
        <ele>268</ele>
        <time>2020-09-19T10:16:28.750Z</time>
      </trkpt>
      <trkpt lat="45.81613" lon="1.21189">
        <ele>268</ele>
        <time>2020-09-19T10:16:29.750Z</time>
      </trkpt>
      <trkpt lat="45.81612" lon="1.21184">
        <ele>268</ele>
        <time>2020-09-19T10:16:30.750Z</time>
      </trkpt>
      <trkpt lat="45.81612" lon="1.21179">
        <ele>268</ele>
        <time>2020-09-19T10:16:31.750Z</time>
      </trkpt>
      <trkpt lat="45.81611" lon="1.21175">
        <ele>267</ele>
        <time>2020-09-19T10:16:32.750Z</time>
      </trkpt>
      <trkpt lat="45.81611" lon="1.2117">
        <ele>267</ele>
        <time>2020-09-19T10:16:33.750Z</time>
      </trkpt>
      <trkpt lat="45.8161" lon="1.21165">
        <ele>267</ele>
        <time>2020-09-19T10:16:34.750Z</time>
      </trkpt>
      <trkpt lat="45.81609" lon="1.2116">
        <ele>267</ele>
        <time>2020-09-19T10:16:35.750Z</time>
      </trkpt>
      <trkpt lat="45.81608" lon="1.21156">
        <ele>267</ele>
        <time>2020-09-19T10:16:36.750Z</time>
      </trkpt>
      <trkpt lat="45.81608" lon="1.21152">
        <ele>267</ele>
        <time>2020-09-19T10:16:37.750Z</time>
      </trkpt>
      <trkpt lat="45.81607" lon="1.21147">
        <ele>267</ele>
        <time>2020-09-19T10:16:38.750Z</time>
      </trkpt>
      <trkpt lat="45.81606" lon="1.21142">
        <ele>268</ele>
        <time>2020-09-19T10:16:39.750Z</time>
      </trkpt>
      <trkpt lat="45.81605" lon="1.21138">
        <ele>268</ele>
        <time>2020-09-19T10:16:40.750Z</time>
      </trkpt>
      <trkpt lat="45.81604" lon="1.21133">
        <ele>269</ele>
        <time>2020-09-19T10:16:41.750Z</time>
      </trkpt>
      <trkpt lat="45.81603" lon="1.21128">
        <ele>269</ele>
        <time>2020-09-19T10:16:42.750Z</time>
      </trkpt>
      <trkpt lat="45.81602" lon="1.21123">
        <ele>268</ele>
        <time>2020-09-19T10:16:43.750Z</time>
      </trkpt>
      <trkpt lat="45.81602" lon="1.21119">
        <ele>268</ele>
        <time>2020-09-19T10:16:44.750Z</time>
      </trkpt>
      <trkpt lat="45.81601" lon="1.21114">
        <ele>268</ele>
        <time>2020-09-19T10:16:45.750Z</time>
      </trkpt>
      <trkpt lat="45.81601" lon="1.21109">
        <ele>267</ele>
        <time>2020-09-19T10:16:46.750Z</time>
      </trkpt>
      <trkpt lat="45.81601" lon="1.21104">
        <ele>266</ele>
        <time>2020-09-19T10:16:47.750Z</time>
      </trkpt>
      <trkpt lat="45.81601" lon="1.211">
        <ele>266</ele>
        <time>2020-09-19T10:16:48.750Z</time>
      </trkpt>
      <trkpt lat="45.81601" lon="1.21096">
        <ele>266</ele>
        <time>2020-09-19T10:16:49.750Z</time>
      </trkpt>
      <trkpt lat="45.81601" lon="1.21091">
        <ele>266</ele>
        <time>2020-09-19T10:16:50.750Z</time>
      </trkpt>
      <trkpt lat="45.816" lon="1.21086">
        <ele>265</ele>
        <time>2020-09-19T10:16:51.750Z</time>
      </trkpt>
      <trkpt lat="45.816" lon="1.21081">
        <ele>265</ele>
        <time>2020-09-19T10:16:52.750Z</time>
      </trkpt>
      <trkpt lat="45.816" lon="1.21076">
        <ele>264</ele>
        <time>2020-09-19T10:16:53.750Z</time>
      </trkpt>
      <trkpt lat="45.816" lon="1.21071">
        <ele>263</ele>
        <time>2020-09-19T10:16:54.750Z</time>
      </trkpt>
      <trkpt lat="45.81601" lon="1.21066">
        <ele>263</ele>
        <time>2020-09-19T10:16:55.750Z</time>
      </trkpt>
      <trkpt lat="45.81601" lon="1.21061">
        <ele>262</ele>
        <time>2020-09-19T10:16:56.750Z</time>
      </trkpt>
      <trkpt lat="45.81602" lon="1.21056">
        <ele>261</ele>
        <time>2020-09-19T10:16:57.750Z</time>
      </trkpt>
      <trkpt lat="45.81603" lon="1.21051">
        <ele>260</ele>
        <time>2020-09-19T10:16:58.750Z</time>
      </trkpt>
      <trkpt lat="45.81604" lon="1.21046">
        <ele>259</ele>
        <time>2020-09-19T10:16:59.750Z</time>
      </trkpt>
      <trkpt lat="45.81605" lon="1.21041">
        <ele>259</ele>
        <time>2020-09-19T10:17:00.750Z</time>
      </trkpt>
      <trkpt lat="45.81607" lon="1.21036">
        <ele>257</ele>
        <time>2020-09-19T10:17:01.750Z</time>
      </trkpt>
      <trkpt lat="45.81608" lon="1.21031">
        <ele>257</ele>
        <time>2020-09-19T10:17:02.750Z</time>
      </trkpt>
      <trkpt lat="45.81609" lon="1.21026">
        <ele>257</ele>
        <time>2020-09-19T10:17:03.750Z</time>
      </trkpt>
      <trkpt lat="45.81611" lon="1.21021">
        <ele>256</ele>
        <time>2020-09-19T10:17:04.750Z</time>
      </trkpt>
      <trkpt lat="45.81612" lon="1.21016">
        <ele>255</ele>
        <time>2020-09-19T10:17:05.750Z</time>
      </trkpt>
      <trkpt lat="45.81614" lon="1.21012">
        <ele>254</ele>
        <time>2020-09-19T10:17:06.750Z</time>
      </trkpt>
      <trkpt lat="45.81617" lon="1.21008">
        <ele>254</ele>
        <time>2020-09-19T10:17:07.750Z</time>
      </trkpt>
      <trkpt lat="45.81619" lon="1.21004">
        <ele>253</ele>
        <time>2020-09-19T10:17:08.750Z</time>
      </trkpt>
      <trkpt lat="45.81622" lon="1.21001">
        <ele>253</ele>
        <time>2020-09-19T10:17:09.750Z</time>
      </trkpt>
      <trkpt lat="45.81624" lon="1.20998">
        <ele>253</ele>
        <time>2020-09-19T10:17:10.750Z</time>
      </trkpt>
      <trkpt lat="45.81627" lon="1.20995">
        <ele>253</ele>
        <time>2020-09-19T10:17:11.750Z</time>
      </trkpt>
      <trkpt lat="45.81629" lon="1.20991">
        <ele>252</ele>
        <time>2020-09-19T10:17:12.750Z</time>
      </trkpt>
      <trkpt lat="45.81632" lon="1.20988">
        <ele>252</ele>
        <time>2020-09-19T10:17:13.750Z</time>
      </trkpt>
      <trkpt lat="45.81634" lon="1.20984">
        <ele>251</ele>
        <time>2020-09-19T10:17:14.750Z</time>
      </trkpt>
      <trkpt lat="45.81637" lon="1.2098">
        <ele>252</ele>
        <time>2020-09-19T10:17:15.750Z</time>
      </trkpt>
      <trkpt lat="45.81639" lon="1.20976">
        <ele>251</ele>
        <time>2020-09-19T10:17:16.750Z</time>
      </trkpt>
      <trkpt lat="45.81641" lon="1.20971">
        <ele>252</ele>
        <time>2020-09-19T10:17:17.750Z</time>
      </trkpt>
      <trkpt lat="45.81643" lon="1.20967">
        <ele>252</ele>
        <time>2020-09-19T10:17:18.750Z</time>
      </trkpt>
      <trkpt lat="45.81645" lon="1.20962">
        <ele>252</ele>
        <time>2020-09-19T10:17:19.750Z</time>
      </trkpt>
      <trkpt lat="45.81647" lon="1.20958">
        <ele>252</ele>
        <time>2020-09-19T10:17:20.750Z</time>
      </trkpt>
      <trkpt lat="45.81649" lon="1.20954">
        <ele>253</ele>
        <time>2020-09-19T10:17:21.750Z</time>
      </trkpt>
      <trkpt lat="45.81651" lon="1.2095">
        <ele>253</ele>
        <time>2020-09-19T10:17:22.750Z</time>
      </trkpt>
      <trkpt lat="45.81654" lon="1.20946">
        <ele>253</ele>
        <time>2020-09-19T10:17:23.750Z</time>
      </trkpt>
      <trkpt lat="45.81657" lon="1.20942">
        <ele>253</ele>
        <time>2020-09-19T10:17:24.750Z</time>
      </trkpt>
      <trkpt lat="45.81659" lon="1.20939">
        <ele>252</ele>
        <time>2020-09-19T10:17:25.750Z</time>
      </trkpt>
      <trkpt lat="45.81662" lon="1.20937">
        <ele>251</ele>
        <time>2020-09-19T10:17:26.750Z</time>
      </trkpt>
      <trkpt lat="45.81665" lon="1.20934">
        <ele>252</ele>
        <time>2020-09-19T10:17:27.750Z</time>
      </trkpt>
      <trkpt lat="45.81669" lon="1.20932">
        <ele>251</ele>
        <time>2020-09-19T10:17:28.750Z</time>
      </trkpt>
      <trkpt lat="45.81672" lon="1.2093">
        <ele>251</ele>
        <time>2020-09-19T10:17:29.750Z</time>
      </trkpt>
      <trkpt lat="45.81675" lon="1.20928">
        <ele>251</ele>
        <time>2020-09-19T10:17:30.750Z</time>
      </trkpt>
      <trkpt lat="45.81678" lon="1.20926">
        <ele>251</ele>
        <time>2020-09-19T10:17:31.750Z</time>
      </trkpt>
      <trkpt lat="45.81681" lon="1.20926">
        <ele>251</ele>
        <time>2020-09-19T10:17:32.750Z</time>
      </trkpt>
      <trkpt lat="45.81684" lon="1.20925">
        <ele>253</ele>
        <time>2020-09-19T10:17:33.750Z</time>
      </trkpt>
      <trkpt lat="45.81687" lon="1.20925">
        <ele>253</ele>
        <time>2020-09-19T10:17:34.750Z</time>
      </trkpt>
      <trkpt lat="45.81691" lon="1.20924">
        <ele>253</ele>
        <time>2020-09-19T10:17:35.750Z</time>
      </trkpt>
      <trkpt lat="45.81694" lon="1.20923">
        <ele>253</ele>
        <time>2020-09-19T10:17:36.750Z</time>
      </trkpt>
      <trkpt lat="45.81697" lon="1.20923">
        <ele>252</ele>
        <time>2020-09-19T10:17:37.750Z</time>
      </trkpt>
      <trkpt lat="45.81701" lon="1.20922">
        <ele>252</ele>
        <time>2020-09-19T10:17:38.750Z</time>
      </trkpt>
      <trkpt lat="45.81705" lon="1.20922">
        <ele>252</ele>
        <time>2020-09-19T10:17:39.750Z</time>
      </trkpt>
      <trkpt lat="45.81708" lon="1.20922">
        <ele>252</ele>
        <time>2020-09-19T10:17:40.750Z</time>
      </trkpt>
      <trkpt lat="45.81712" lon="1.20921">
        <ele>251</ele>
        <time>2020-09-19T10:17:41.750Z</time>
      </trkpt>
      <trkpt lat="45.81716" lon="1.20921">
        <ele>251</ele>
        <time>2020-09-19T10:17:42.750Z</time>
      </trkpt>
      <trkpt lat="45.81719" lon="1.2092">
        <ele>251</ele>
        <time>2020-09-19T10:17:43.750Z</time>
      </trkpt>
      <trkpt lat="45.81723" lon="1.2092">
        <ele>252</ele>
        <time>2020-09-19T10:17:44.750Z</time>
      </trkpt>
      <trkpt lat="45.81726" lon="1.2092">
        <ele>253</ele>
        <time>2020-09-19T10:17:45.750Z</time>
      </trkpt>
      <trkpt lat="45.81729" lon="1.2092">
        <ele>253</ele>
        <time>2020-09-19T10:17:46.750Z</time>
      </trkpt>
      <trkpt lat="45.81732" lon="1.2092">
        <ele>253</ele>
        <time>2020-09-19T10:17:47.750Z</time>
      </trkpt>
      <trkpt lat="45.81735" lon="1.2092">
        <ele>253</ele>
        <time>2020-09-19T10:17:48.750Z</time>
      </trkpt>
      <trkpt lat="45.81739" lon="1.2092">
        <ele>253</ele>
        <time>2020-09-19T10:17:49.750Z</time>
      </trkpt>
      <trkpt lat="45.81742" lon="1.2092">
        <ele>254</ele>
        <time>2020-09-19T10:17:50.750Z</time>
      </trkpt>
      <trkpt lat="45.81745" lon="1.20919">
        <ele>253</ele>
        <time>2020-09-19T10:17:51.750Z</time>
      </trkpt>
      <trkpt lat="45.81748" lon="1.20919">
        <ele>254</ele>
        <time>2020-09-19T10:17:52.750Z</time>
      </trkpt>
      <trkpt lat="45.81751" lon="1.20919">
        <ele>253</ele>
        <time>2020-09-19T10:17:53.750Z</time>
      </trkpt>
      <trkpt lat="45.81755" lon="1.20919">
        <ele>254</ele>
        <time>2020-09-19T10:17:54.750Z</time>
      </trkpt>
      <trkpt lat="45.81758" lon="1.2092">
        <ele>252</ele>
        <time>2020-09-19T10:17:55.750Z</time>
      </trkpt>
      <trkpt lat="45.81762" lon="1.2092">
        <ele>252</ele>
        <time>2020-09-19T10:17:56.750Z</time>
      </trkpt>
      <trkpt lat="45.81765" lon="1.2092">
        <ele>251</ele>
        <time>2020-09-19T10:17:57.750Z</time>
      </trkpt>
      <trkpt lat="45.81769" lon="1.20919">
        <ele>251</ele>
        <time>2020-09-19T10:17:58.750Z</time>
      </trkpt>
      <trkpt lat="45.81772" lon="1.20918">
        <ele>251</ele>
        <time>2020-09-19T10:17:59.750Z</time>
      </trkpt>
      <trkpt lat="45.81776" lon="1.20918">
        <ele>251</ele>
        <time>2020-09-19T10:18:00.750Z</time>
      </trkpt>
      <trkpt lat="45.81779" lon="1.20918">
        <ele>251</ele>
        <time>2020-09-19T10:18:01.750Z</time>
      </trkpt>
      <trkpt lat="45.81782" lon="1.20918">
        <ele>251</ele>
        <time>2020-09-19T10:18:02.750Z</time>
      </trkpt>
      <trkpt lat="45.81786" lon="1.20918">
        <ele>251</ele>
        <time>2020-09-19T10:18:03.750Z</time>
      </trkpt>
      <trkpt lat="45.81789" lon="1.20918">
        <ele>252</ele>
        <time>2020-09-19T10:18:04.750Z</time>
      </trkpt>
      <trkpt lat="45.81792" lon="1.20918">
        <ele>252</ele>
        <time>2020-09-19T10:18:05.750Z</time>
      </trkpt>
      <trkpt lat="45.81795" lon="1.20918">
        <ele>253</ele>
        <time>2020-09-19T10:18:06.750Z</time>
      </trkpt>
      <trkpt lat="45.81798" lon="1.20918">
        <ele>253</ele>
        <time>2020-09-19T10:18:07.750Z</time>
      </trkpt>
      <trkpt lat="45.81801" lon="1.20918">
        <ele>253</ele>
        <time>2020-09-19T10:18:08.750Z</time>
      </trkpt>
      <trkpt lat="45.81804" lon="1.20917">
        <ele>252</ele>
        <time>2020-09-19T10:18:09.750Z</time>
      </trkpt>
      <trkpt lat="45.81808" lon="1.20916">
        <ele>252</ele>
        <time>2020-09-19T10:18:10.750Z</time>
      </trkpt>
      <trkpt lat="45.81811" lon="1.20915">
        <ele>253</ele>
        <time>2020-09-19T10:18:11.750Z</time>
      </trkpt>
      <trkpt lat="45.81814" lon="1.20915">
        <ele>254</ele>
        <time>2020-09-19T10:18:12.750Z</time>
      </trkpt>
      <trkpt lat="45.81817" lon="1.20914">
        <ele>254</ele>
        <time>2020-09-19T10:18:13.750Z</time>
      </trkpt>
      <trkpt lat="45.81821" lon="1.20914">
        <ele>254</ele>
        <time>2020-09-19T10:18:14.750Z</time>
      </trkpt>
      <trkpt lat="45.81824" lon="1.20914">
        <ele>253</ele>
        <time>2020-09-19T10:18:15.750Z</time>
      </trkpt>
      <trkpt lat="45.81828" lon="1.20914">
        <ele>252</ele>
        <time>2020-09-19T10:18:16.750Z</time>
      </trkpt>
      <trkpt lat="45.81832" lon="1.20914">
        <ele>252</ele>
        <time>2020-09-19T10:18:17.750Z</time>
      </trkpt>
      <trkpt lat="45.81836" lon="1.20913">
        <ele>252</ele>
        <time>2020-09-19T10:18:18.750Z</time>
      </trkpt>
      <trkpt lat="45.8184" lon="1.20913">
        <ele>253</ele>
        <time>2020-09-19T10:18:19.750Z</time>
      </trkpt>
      <trkpt lat="45.81844" lon="1.20913">
        <ele>253</ele>
        <time>2020-09-19T10:18:20.750Z</time>
      </trkpt>
      <trkpt lat="45.81847" lon="1.20912">
        <ele>254</ele>
        <time>2020-09-19T10:18:21.750Z</time>
      </trkpt>
      <trkpt lat="45.8185" lon="1.20912">
        <ele>254</ele>
        <time>2020-09-19T10:18:22.750Z</time>
      </trkpt>
      <trkpt lat="45.81853" lon="1.20911">
        <ele>254</ele>
        <time>2020-09-19T10:18:23.750Z</time>
      </trkpt>
      <trkpt lat="45.81856" lon="1.20911">
        <ele>253</ele>
        <time>2020-09-19T10:18:24.750Z</time>
      </trkpt>
      <trkpt lat="45.8186" lon="1.2091">
        <ele>253</ele>
        <time>2020-09-19T10:18:25.750Z</time>
      </trkpt>
      <trkpt lat="45.81864" lon="1.20911">
        <ele>252</ele>
        <time>2020-09-19T10:18:26.750Z</time>
      </trkpt>
      <trkpt lat="45.81868" lon="1.20911">
        <ele>251</ele>
        <time>2020-09-19T10:18:27.750Z</time>
      </trkpt>
      <trkpt lat="45.81871" lon="1.20911">
        <ele>251</ele>
        <time>2020-09-19T10:18:28.750Z</time>
      </trkpt>
      <trkpt lat="45.81875" lon="1.20911">
        <ele>251</ele>
        <time>2020-09-19T10:18:29.750Z</time>
      </trkpt>
      <trkpt lat="45.81879" lon="1.20911">
        <ele>250</ele>
        <time>2020-09-19T10:18:30.750Z</time>
      </trkpt>
      <trkpt lat="45.81882" lon="1.2091">
        <ele>251</ele>
        <time>2020-09-19T10:18:31.750Z</time>
      </trkpt>
      <trkpt lat="45.81885" lon="1.20909">
        <ele>252</ele>
        <time>2020-09-19T10:18:32.750Z</time>
      </trkpt>
      <trkpt lat="45.81888" lon="1.20909">
        <ele>252</ele>
        <time>2020-09-19T10:18:33.750Z</time>
      </trkpt>
      <trkpt lat="45.81892" lon="1.20908">
        <ele>252</ele>
        <time>2020-09-19T10:18:34.750Z</time>
      </trkpt>
      <trkpt lat="45.81895" lon="1.20908">
        <ele>252</ele>
        <time>2020-09-19T10:18:35.750Z</time>
      </trkpt>
      <trkpt lat="45.81898" lon="1.20907">
        <ele>252</ele>
        <time>2020-09-19T10:18:36.750Z</time>
      </trkpt>
      <trkpt lat="45.81901" lon="1.20907">
        <ele>252</ele>
        <time>2020-09-19T10:18:37.750Z</time>
      </trkpt>
      <trkpt lat="45.81904" lon="1.20907">
        <ele>251</ele>
        <time>2020-09-19T10:18:38.750Z</time>
      </trkpt>
      <trkpt lat="45.81908" lon="1.20907">
        <ele>251</ele>
        <time>2020-09-19T10:18:39.750Z</time>
      </trkpt>
      <trkpt lat="45.81912" lon="1.20907">
        <ele>251</ele>
        <time>2020-09-19T10:18:40.750Z</time>
      </trkpt>
      <trkpt lat="45.81915" lon="1.20906">
        <ele>250</ele>
        <time>2020-09-19T10:18:41.750Z</time>
      </trkpt>
      <trkpt lat="45.81919" lon="1.20906">
        <ele>249</ele>
        <time>2020-09-19T10:18:42.750Z</time>
      </trkpt>
      <trkpt lat="45.81923" lon="1.20905">
        <ele>249</ele>
        <time>2020-09-19T10:18:43.750Z</time>
      </trkpt>
      <trkpt lat="45.81926" lon="1.20905">
        <ele>249</ele>
        <time>2020-09-19T10:18:44.750Z</time>
      </trkpt>
      <trkpt lat="45.8193" lon="1.20905">
        <ele>248</ele>
        <time>2020-09-19T10:18:45.750Z</time>
      </trkpt>
      <trkpt lat="45.81933" lon="1.20904">
        <ele>248</ele>
        <time>2020-09-19T10:18:46.750Z</time>
      </trkpt>
      <trkpt lat="45.81937" lon="1.20904">
        <ele>246</ele>
        <time>2020-09-19T10:18:47.750Z</time>
      </trkpt>
      <trkpt lat="45.81941" lon="1.20904">
        <ele>245</ele>
        <time>2020-09-19T10:18:48.750Z</time>
      </trkpt>
      <trkpt lat="45.81945" lon="1.20904">
        <ele>246</ele>
        <time>2020-09-19T10:18:49.750Z</time>
      </trkpt>
      <trkpt lat="45.81949" lon="1.20904">
        <ele>246</ele>
        <time>2020-09-19T10:18:50.750Z</time>
      </trkpt>
      <trkpt lat="45.81952" lon="1.20904">
        <ele>245</ele>
        <time>2020-09-19T10:18:51.750Z</time>
      </trkpt>
      <trkpt lat="45.81956" lon="1.20904">
        <ele>245</ele>
        <time>2020-09-19T10:18:52.750Z</time>
      </trkpt>
      <trkpt lat="45.81959" lon="1.20904">
        <ele>245</ele>
        <time>2020-09-19T10:18:53.750Z</time>
      </trkpt>
      <trkpt lat="45.81963" lon="1.20904">
        <ele>245</ele>
        <time>2020-09-19T10:18:54.750Z</time>
      </trkpt>
      <trkpt lat="45.81967" lon="1.20903">
        <ele>245</ele>
        <time>2020-09-19T10:18:55.750Z</time>
      </trkpt>
      <trkpt lat="45.8197" lon="1.20904">
        <ele>244</ele>
        <time>2020-09-19T10:18:56.750Z</time>
      </trkpt>
      <trkpt lat="45.81974" lon="1.20904">
        <ele>244</ele>
        <time>2020-09-19T10:18:57.750Z</time>
      </trkpt>
      <trkpt lat="45.81978" lon="1.20904">
        <ele>244</ele>
        <time>2020-09-19T10:18:58.750Z</time>
      </trkpt>
      <trkpt lat="45.81981" lon="1.20904">
        <ele>245</ele>
        <time>2020-09-19T10:18:59.750Z</time>
      </trkpt>
      <trkpt lat="45.81984" lon="1.20905">
        <ele>245</ele>
        <time>2020-09-19T10:19:00.750Z</time>
      </trkpt>
      <trkpt lat="45.81987" lon="1.20905">
        <ele>244</ele>
        <time>2020-09-19T10:19:01.750Z</time>
      </trkpt>
      <trkpt lat="45.81991" lon="1.20905">
        <ele>244</ele>
        <time>2020-09-19T10:19:02.750Z</time>
      </trkpt>
      <trkpt lat="45.81994" lon="1.20904">
        <ele>244</ele>
        <time>2020-09-19T10:19:03.750Z</time>
      </trkpt>
      <trkpt lat="45.81997" lon="1.20904">
        <ele>244</ele>
        <time>2020-09-19T10:19:04.750Z</time>
      </trkpt>
      <trkpt lat="45.82" lon="1.20904">
        <ele>244</ele>
        <time>2020-09-19T10:19:05.750Z</time>
      </trkpt>
      <trkpt lat="45.82003" lon="1.20904">
        <ele>243</ele>
        <time>2020-09-19T10:19:06.750Z</time>
      </trkpt>
      <trkpt lat="45.82006" lon="1.20903">
        <ele>242</ele>
        <time>2020-09-19T10:19:07.750Z</time>
      </trkpt>
      <trkpt lat="45.82008" lon="1.20902">
        <ele>242</ele>
        <time>2020-09-19T10:19:08.750Z</time>
      </trkpt>
      <trkpt lat="45.82006" lon="1.20903">
        <ele>242</ele>
        <time>2020-09-19T10:19:09.750Z</time>
      </trkpt>
      <trkpt lat="45.82003" lon="1.20904">
        <ele>242</ele>
        <time>2020-09-19T10:19:10.750Z</time>
      </trkpt>
      <trkpt lat="45.82" lon="1.20905">
        <ele>242</ele>
        <time>2020-09-19T10:19:11.750Z</time>
      </trkpt>
      <trkpt lat="45.81999" lon="1.20905">
        <ele>242</ele>
        <time>2020-09-19T10:19:12.750Z</time>
      </trkpt>
      <trkpt lat="45.81997" lon="1.20905">
        <ele>240</ele>
        <time>2020-09-19T10:19:13.750Z</time>
      </trkpt>
      <trkpt lat="45.81995" lon="1.20906">
        <ele>241</ele>
        <time>2020-09-19T10:19:14.750Z</time>
      </trkpt>
      <trkpt lat="45.81993" lon="1.20907">
        <ele>241</ele>
        <time>2020-09-19T10:19:15.750Z</time>
      </trkpt>
      <trkpt lat="45.81991" lon="1.20908">
        <ele>240</ele>
        <time>2020-09-19T10:19:16.750Z</time>
      </trkpt>
      <trkpt lat="45.81989" lon="1.20908">
        <ele>239</ele>
        <time>2020-09-19T10:19:17.750Z</time>
      </trkpt>
      <trkpt lat="45.81986" lon="1.20908">
        <ele>239</ele>
        <time>2020-09-19T10:19:18.750Z</time>
      </trkpt>
      <trkpt lat="45.81984" lon="1.20908">
        <ele>238</ele>
        <time>2020-09-19T10:19:19.750Z</time>
      </trkpt>
      <trkpt lat="45.81981" lon="1.20908">
        <ele>237</ele>
        <time>2020-09-19T10:19:20.750Z</time>
      </trkpt>
      <trkpt lat="45.81978" lon="1.20909">
        <ele>236</ele>
        <time>2020-09-19T10:19:21.750Z</time>
      </trkpt>
      <trkpt lat="45.81976" lon="1.20909">
        <ele>236</ele>
        <time>2020-09-19T10:19:22.750Z</time>
      </trkpt>
      <trkpt lat="45.81973" lon="1.20909">
        <ele>236</ele>
        <time>2020-09-19T10:19:23.750Z</time>
      </trkpt>
      <trkpt lat="45.8197" lon="1.2091">
        <ele>236</ele>
        <time>2020-09-19T10:19:24.750Z</time>
      </trkpt>
      <trkpt lat="45.81967" lon="1.2091">
        <ele>235</ele>
        <time>2020-09-19T10:19:25.750Z</time>
      </trkpt>
      <trkpt lat="45.81964" lon="1.20911">
        <ele>236</ele>
        <time>2020-09-19T10:19:26.750Z</time>
      </trkpt>
      <trkpt lat="45.8196" lon="1.20912">
        <ele>236</ele>
        <time>2020-09-19T10:19:27.750Z</time>
      </trkpt>
      <trkpt lat="45.81957" lon="1.20912">
        <ele>236</ele>
        <time>2020-09-19T10:19:28.750Z</time>
      </trkpt>
      <trkpt lat="45.81955" lon="1.20913">
        <ele>236</ele>
        <time>2020-09-19T10:19:29.750Z</time>
      </trkpt>
      <trkpt lat="45.81952" lon="1.20914">
        <ele>237</ele>
        <time>2020-09-19T10:19:30.750Z</time>
      </trkpt>
      <trkpt lat="45.81949" lon="1.20914">
        <ele>237</ele>
        <time>2020-09-19T10:19:31.750Z</time>
      </trkpt>
      <trkpt lat="45.81946" lon="1.20914">
        <ele>237</ele>
        <time>2020-09-19T10:19:32.750Z</time>
      </trkpt>
      <trkpt lat="45.81943" lon="1.20914">
        <ele>237</ele>
        <time>2020-09-19T10:19:33.750Z</time>
      </trkpt>
      <trkpt lat="45.8194" lon="1.20914">
        <ele>237</ele>
        <time>2020-09-19T10:19:34.750Z</time>
      </trkpt>
      <trkpt lat="45.81937" lon="1.20914">
        <ele>238</ele>
        <time>2020-09-19T10:19:35.750Z</time>
      </trkpt>
      <trkpt lat="45.81934" lon="1.20914">
        <ele>238</ele>
        <time>2020-09-19T10:19:36.750Z</time>
      </trkpt>
      <trkpt lat="45.81931" lon="1.20914">
        <ele>238</ele>
        <time>2020-09-19T10:19:37.750Z</time>
      </trkpt>
      <trkpt lat="45.81929" lon="1.20914">
        <ele>238</ele>
        <time>2020-09-19T10:19:38.750Z</time>
      </trkpt>
      <trkpt lat="45.81925" lon="1.20914">
        <ele>239</ele>
        <time>2020-09-19T10:19:39.750Z</time>
      </trkpt>
      <trkpt lat="45.81922" lon="1.20913">
        <ele>240</ele>
        <time>2020-09-19T10:19:40.750Z</time>
      </trkpt>
      <trkpt lat="45.81918" lon="1.20913">
        <ele>240</ele>
        <time>2020-09-19T10:19:41.750Z</time>
      </trkpt>
      <trkpt lat="45.81915" lon="1.20914">
        <ele>240</ele>
        <time>2020-09-19T10:19:42.750Z</time>
      </trkpt>
      <trkpt lat="45.81912" lon="1.20914">
        <ele>240</ele>
        <time>2020-09-19T10:19:43.750Z</time>
      </trkpt>
      <trkpt lat="45.81909" lon="1.20915">
        <ele>241</ele>
        <time>2020-09-19T10:19:44.750Z</time>
      </trkpt>
      <trkpt lat="45.81906" lon="1.20915">
        <ele>241</ele>
        <time>2020-09-19T10:19:45.750Z</time>
      </trkpt>
      <trkpt lat="45.81903" lon="1.20916">
        <ele>242</ele>
        <time>2020-09-19T10:19:46.750Z</time>
      </trkpt>
      <trkpt lat="45.819" lon="1.20916">
        <ele>242</ele>
        <time>2020-09-19T10:19:47.750Z</time>
      </trkpt>
      <trkpt lat="45.81896" lon="1.20916">
        <ele>242</ele>
        <time>2020-09-19T10:19:48.750Z</time>
      </trkpt>
      <trkpt lat="45.81893" lon="1.20916">
        <ele>242</ele>
        <time>2020-09-19T10:19:49.750Z</time>
      </trkpt>
      <trkpt lat="45.8189" lon="1.20917">
        <ele>242</ele>
        <time>2020-09-19T10:19:50.750Z</time>
      </trkpt>
      <trkpt lat="45.81887" lon="1.20917">
        <ele>242</ele>
        <time>2020-09-19T10:19:51.750Z</time>
      </trkpt>
      <trkpt lat="45.81883" lon="1.20918">
        <ele>242</ele>
        <time>2020-09-19T10:19:52.750Z</time>
      </trkpt>
      <trkpt lat="45.8188" lon="1.20918">
        <ele>243</ele>
        <time>2020-09-19T10:19:53.750Z</time>
      </trkpt>
      <trkpt lat="45.81877" lon="1.20919">
        <ele>244</ele>
        <time>2020-09-19T10:19:54.750Z</time>
      </trkpt>
      <trkpt lat="45.81874" lon="1.20919">
        <ele>244</ele>
        <time>2020-09-19T10:19:55.750Z</time>
      </trkpt>
      <trkpt lat="45.81871" lon="1.2092">
        <ele>245</ele>
        <time>2020-09-19T10:19:56.750Z</time>
      </trkpt>
      <trkpt lat="45.81868" lon="1.2092">
        <ele>245</ele>
        <time>2020-09-19T10:19:57.750Z</time>
      </trkpt>
      <trkpt lat="45.81865" lon="1.2092">
        <ele>246</ele>
        <time>2020-09-19T10:19:58.750Z</time>
      </trkpt>
      <trkpt lat="45.81861" lon="1.2092">
        <ele>247</ele>
        <time>2020-09-19T10:19:59.750Z</time>
      </trkpt>
      <trkpt lat="45.81858" lon="1.2092">
        <ele>247</ele>
        <time>2020-09-19T10:20:00.750Z</time>
      </trkpt>
      <trkpt lat="45.81855" lon="1.20921">
        <ele>247</ele>
        <time>2020-09-19T10:20:01.750Z</time>
      </trkpt>
      <trkpt lat="45.81852" lon="1.20921">
        <ele>248</ele>
        <time>2020-09-19T10:20:02.750Z</time>
      </trkpt>
      <trkpt lat="45.81849" lon="1.20922">
        <ele>249</ele>
        <time>2020-09-19T10:20:03.750Z</time>
      </trkpt>
      <trkpt lat="45.81846" lon="1.20923">
        <ele>248</ele>
        <time>2020-09-19T10:20:04.750Z</time>
      </trkpt>
      <trkpt lat="45.81844" lon="1.20923">
        <ele>246</ele>
        <time>2020-09-19T10:20:05.750Z</time>
      </trkpt>
      <trkpt lat="45.81841" lon="1.20923">
        <ele>247</ele>
        <time>2020-09-19T10:20:06.750Z</time>
      </trkpt>
      <trkpt lat="45.81838" lon="1.20923">
        <ele>247</ele>
        <time>2020-09-19T10:20:07.750Z</time>
      </trkpt>
      <trkpt lat="45.81835" lon="1.20923">
        <ele>248</ele>
        <time>2020-09-19T10:20:08.750Z</time>
      </trkpt>
      <trkpt lat="45.81833" lon="1.20923">
        <ele>248</ele>
        <time>2020-09-19T10:20:09.750Z</time>
      </trkpt>
      <trkpt lat="45.8183" lon="1.20923">
        <ele>249</ele>
        <time>2020-09-19T10:20:10.750Z</time>
      </trkpt>
      <trkpt lat="45.81827" lon="1.20923">
        <ele>250</ele>
        <time>2020-09-19T10:20:11.750Z</time>
      </trkpt>
      <trkpt lat="45.81823" lon="1.20924">
        <ele>251</ele>
        <time>2020-09-19T10:20:12.750Z</time>
      </trkpt>
      <trkpt lat="45.8182" lon="1.20924">
        <ele>251</ele>
        <time>2020-09-19T10:20:13.750Z</time>
      </trkpt>
      <trkpt lat="45.81817" lon="1.20924">
        <ele>252</ele>
        <time>2020-09-19T10:20:14.750Z</time>
      </trkpt>
      <trkpt lat="45.81813" lon="1.20924">
        <ele>253</ele>
        <time>2020-09-19T10:20:15.750Z</time>
      </trkpt>
      <trkpt lat="45.8181" lon="1.20924">
        <ele>252</ele>
        <time>2020-09-19T10:20:16.750Z</time>
      </trkpt>
      <trkpt lat="45.81807" lon="1.20925">
        <ele>252</ele>
        <time>2020-09-19T10:20:17.750Z</time>
      </trkpt>
      <trkpt lat="45.81803" lon="1.20925">
        <ele>253</ele>
        <time>2020-09-19T10:20:18.750Z</time>
      </trkpt>
      <trkpt lat="45.81801" lon="1.20925">
        <ele>253</ele>
        <time>2020-09-19T10:20:19.750Z</time>
      </trkpt>
      <trkpt lat="45.81798" lon="1.20925">
        <ele>253</ele>
        <time>2020-09-19T10:20:20.750Z</time>
      </trkpt>
      <trkpt lat="45.81795" lon="1.20925">
        <ele>252</ele>
        <time>2020-09-19T10:20:21.750Z</time>
      </trkpt>
      <trkpt lat="45.81793" lon="1.20926">
        <ele>252</ele>
        <time>2020-09-19T10:20:22.750Z</time>
      </trkpt>
      <trkpt lat="45.8179" lon="1.20926">
        <ele>252</ele>
        <time>2020-09-19T10:20:23.750Z</time>
      </trkpt>
      <trkpt lat="45.81787" lon="1.20927">
        <ele>251</ele>
        <time>2020-09-19T10:20:24.750Z</time>
      </trkpt>
      <trkpt lat="45.81785" lon="1.20927">
        <ele>252</ele>
        <time>2020-09-19T10:20:25.750Z</time>
      </trkpt>
      <trkpt lat="45.81782" lon="1.20927">
        <ele>253</ele>
        <time>2020-09-19T10:20:26.750Z</time>
      </trkpt>
      <trkpt lat="45.81779" lon="1.20928">
        <ele>252</ele>
        <time>2020-09-19T10:20:27.750Z</time>
      </trkpt>
      <trkpt lat="45.81776" lon="1.20928">
        <ele>252</ele>
        <time>2020-09-19T10:20:28.750Z</time>
      </trkpt>
      <trkpt lat="45.81773" lon="1.20928">
        <ele>253</ele>
        <time>2020-09-19T10:20:29.750Z</time>
      </trkpt>
      <trkpt lat="45.8177" lon="1.20928">
        <ele>253</ele>
        <time>2020-09-19T10:20:30.750Z</time>
      </trkpt>
      <trkpt lat="45.81767" lon="1.20928">
        <ele>254</ele>
        <time>2020-09-19T10:20:31.750Z</time>
      </trkpt>
      <trkpt lat="45.81764" lon="1.20929">
        <ele>253</ele>
        <time>2020-09-19T10:20:32.750Z</time>
      </trkpt>
      <trkpt lat="45.81762" lon="1.20929">
        <ele>253</ele>
        <time>2020-09-19T10:20:33.750Z</time>
      </trkpt>
      <trkpt lat="45.81759" lon="1.20929">
        <ele>253</ele>
        <time>2020-09-19T10:20:34.750Z</time>
      </trkpt>
      <trkpt lat="45.81755" lon="1.2093">
        <ele>254</ele>
        <time>2020-09-19T10:20:35.750Z</time>
      </trkpt>
      <trkpt lat="45.81752" lon="1.2093">
        <ele>256</ele>
        <time>2020-09-19T10:20:36.750Z</time>
      </trkpt>
      <trkpt lat="45.81749" lon="1.20931">
        <ele>257</ele>
        <time>2020-09-19T10:20:37.750Z</time>
      </trkpt>
      <trkpt lat="45.81746" lon="1.20931">
        <ele>258</ele>
        <time>2020-09-19T10:20:38.750Z</time>
      </trkpt>
      <trkpt lat="45.81744" lon="1.20931">
        <ele>258</ele>
        <time>2020-09-19T10:20:39.750Z</time>
      </trkpt>
      <trkpt lat="45.81741" lon="1.20931">
        <ele>258</ele>
        <time>2020-09-19T10:20:40.750Z</time>
      </trkpt>
      <trkpt lat="45.81738" lon="1.20931">
        <ele>258</ele>
        <time>2020-09-19T10:20:41.750Z</time>
      </trkpt>
      <trkpt lat="45.81735" lon="1.20931">
        <ele>258</ele>
        <time>2020-09-19T10:20:42.750Z</time>
      </trkpt>
      <trkpt lat="45.81733" lon="1.20931">
        <ele>258</ele>
        <time>2020-09-19T10:20:43.750Z</time>
      </trkpt>
      <trkpt lat="45.8173" lon="1.20931">
        <ele>258</ele>
        <time>2020-09-19T10:20:44.750Z</time>
      </trkpt>
      <trkpt lat="45.81726" lon="1.20932">
        <ele>259</ele>
        <time>2020-09-19T10:20:45.750Z</time>
      </trkpt>
      <trkpt lat="45.81723" lon="1.20932">
        <ele>259</ele>
        <time>2020-09-19T10:20:46.750Z</time>
      </trkpt>
      <trkpt lat="45.8172" lon="1.20932">
        <ele>259</ele>
        <time>2020-09-19T10:20:47.750Z</time>
      </trkpt>
      <trkpt lat="45.81716" lon="1.20933">
        <ele>260</ele>
        <time>2020-09-19T10:20:48.750Z</time>
      </trkpt>
      <trkpt lat="45.81713" lon="1.20933">
        <ele>260</ele>
        <time>2020-09-19T10:20:49.750Z</time>
      </trkpt>
      <trkpt lat="45.8171" lon="1.20933">
        <ele>260</ele>
        <time>2020-09-19T10:20:50.750Z</time>
      </trkpt>
      <trkpt lat="45.81707" lon="1.20933">
        <ele>260</ele>
        <time>2020-09-19T10:20:51.750Z</time>
      </trkpt>
      <trkpt lat="45.81704" lon="1.20932">
        <ele>261</ele>
        <time>2020-09-19T10:20:52.750Z</time>
      </trkpt>
      <trkpt lat="45.81701" lon="1.20933">
        <ele>261</ele>
        <time>2020-09-19T10:20:53.750Z</time>
      </trkpt>
      <trkpt lat="45.81697" lon="1.20933">
        <ele>261</ele>
        <time>2020-09-19T10:20:54.750Z</time>
      </trkpt>
      <trkpt lat="45.81694" lon="1.20933">
        <ele>261</ele>
        <time>2020-09-19T10:20:55.750Z</time>
      </trkpt>
      <trkpt lat="45.81691" lon="1.20933">
        <ele>261</ele>
        <time>2020-09-19T10:20:56.750Z</time>
      </trkpt>
      <trkpt lat="45.81688" lon="1.20933">
        <ele>261</ele>
        <time>2020-09-19T10:20:57.750Z</time>
      </trkpt>
      <trkpt lat="45.81685" lon="1.20933">
        <ele>261</ele>
        <time>2020-09-19T10:20:58.750Z</time>
      </trkpt>
      <trkpt lat="45.81682" lon="1.20934">
        <ele>261</ele>
        <time>2020-09-19T10:20:59.750Z</time>
      </trkpt>
      <trkpt lat="45.81679" lon="1.20934">
        <ele>261</ele>
        <time>2020-09-19T10:21:00.750Z</time>
      </trkpt>
      <trkpt lat="45.81676" lon="1.20935">
        <ele>262</ele>
        <time>2020-09-19T10:21:01.750Z</time>
      </trkpt>
      <trkpt lat="45.81673" lon="1.20935">
        <ele>262</ele>
        <time>2020-09-19T10:21:02.750Z</time>
      </trkpt>
      <trkpt lat="45.8167" lon="1.20936">
        <ele>262</ele>
        <time>2020-09-19T10:21:03.750Z</time>
      </trkpt>
      <trkpt lat="45.81667" lon="1.20937">
        <ele>262</ele>
        <time>2020-09-19T10:21:04.750Z</time>
      </trkpt>
      <trkpt lat="45.81664" lon="1.20938">
        <ele>263</ele>
        <time>2020-09-19T10:21:05.750Z</time>
      </trkpt>
      <trkpt lat="45.81661" lon="1.2094">
        <ele>264</ele>
        <time>2020-09-19T10:21:06.750Z</time>
      </trkpt>
      <trkpt lat="45.81658" lon="1.20942">
        <ele>264</ele>
        <time>2020-09-19T10:21:07.750Z</time>
      </trkpt>
      <trkpt lat="45.81655" lon="1.20945">
        <ele>264</ele>
        <time>2020-09-19T10:21:08.750Z</time>
      </trkpt>
      <trkpt lat="45.81653" lon="1.20947">
        <ele>265</ele>
        <time>2020-09-19T10:21:09.750Z</time>
      </trkpt>
      <trkpt lat="45.8165" lon="1.20949">
        <ele>266</ele>
        <time>2020-09-19T10:21:10.750Z</time>
      </trkpt>
      <trkpt lat="45.81648" lon="1.20951">
        <ele>266</ele>
        <time>2020-09-19T10:21:11.750Z</time>
      </trkpt>
      <trkpt lat="45.81646" lon="1.20954">
        <ele>265</ele>
        <time>2020-09-19T10:21:12.750Z</time>
      </trkpt>
      <trkpt lat="45.81644" lon="1.20958">
        <ele>266</ele>
        <time>2020-09-19T10:21:13.750Z</time>
      </trkpt>
      <trkpt lat="45.81643" lon="1.20961">
        <ele>266</ele>
        <time>2020-09-19T10:21:14.750Z</time>
      </trkpt>
      <trkpt lat="45.81641" lon="1.20965">
        <ele>267</ele>
        <time>2020-09-19T10:21:15.750Z</time>
      </trkpt>
      <trkpt lat="45.8164" lon="1.20968">
        <ele>268</ele>
        <time>2020-09-19T10:21:16.750Z</time>
      </trkpt>
      <trkpt lat="45.81638" lon="1.20972">
        <ele>268</ele>
        <time>2020-09-19T10:21:17.750Z</time>
      </trkpt>
      <trkpt lat="45.81637" lon="1.20975">
        <ele>268</ele>
        <time>2020-09-19T10:21:18.750Z</time>
      </trkpt>
      <trkpt lat="45.81635" lon="1.20979">
        <ele>267</ele>
        <time>2020-09-19T10:21:19.750Z</time>
      </trkpt>
      <trkpt lat="45.81634" lon="1.20983">
        <ele>267</ele>
        <time>2020-09-19T10:21:20.750Z</time>
      </trkpt>
      <trkpt lat="45.81633" lon="1.20987">
        <ele>268</ele>
        <time>2020-09-19T10:21:21.750Z</time>
      </trkpt>
      <trkpt lat="45.81631" lon="1.2099">
        <ele>268</ele>
        <time>2020-09-19T10:21:22.750Z</time>
      </trkpt>
      <trkpt lat="45.8163" lon="1.20994">
        <ele>269</ele>
        <time>2020-09-19T10:21:23.750Z</time>
      </trkpt>
      <trkpt lat="45.81628" lon="1.20998">
        <ele>269</ele>
        <time>2020-09-19T10:21:24.750Z</time>
      </trkpt>
      <trkpt lat="45.81627" lon="1.21002">
        <ele>269</ele>
        <time>2020-09-19T10:21:25.750Z</time>
      </trkpt>
      <trkpt lat="45.81624" lon="1.21005">
        <ele>270</ele>
        <time>2020-09-19T10:21:26.750Z</time>
      </trkpt>
      <trkpt lat="45.81622" lon="1.21008">
        <ele>270</ele>
        <time>2020-09-19T10:21:27.750Z</time>
      </trkpt>
      <trkpt lat="45.81619" lon="1.2101">
        <ele>270</ele>
        <time>2020-09-19T10:21:28.750Z</time>
      </trkpt>
      <trkpt lat="45.81616" lon="1.21011">
        <ele>270</ele>
        <time>2020-09-19T10:21:29.750Z</time>
      </trkpt>
      <trkpt lat="45.81614" lon="1.21012">
        <ele>270</ele>
        <time>2020-09-19T10:21:30.750Z</time>
      </trkpt>
      <trkpt lat="45.81611" lon="1.21014">
        <ele>271</ele>
        <time>2020-09-19T10:21:31.750Z</time>
      </trkpt>
      <trkpt lat="45.81609" lon="1.21016">
        <ele>271</ele>
        <time>2020-09-19T10:21:32.750Z</time>
      </trkpt>
      <trkpt lat="45.81607" lon="1.21019">
        <ele>271</ele>
        <time>2020-09-19T10:21:33.750Z</time>
      </trkpt>
      <trkpt lat="45.81606" lon="1.21022">
        <ele>271</ele>
        <time>2020-09-19T10:21:34.750Z</time>
      </trkpt>
      <trkpt lat="45.81605" lon="1.21026">
        <ele>270</ele>
        <time>2020-09-19T10:21:35.750Z</time>
      </trkpt>
      <trkpt lat="45.81604" lon="1.21029">
        <ele>270</ele>
        <time>2020-09-19T10:21:36.750Z</time>
      </trkpt>
      <trkpt lat="45.81603" lon="1.21033">
        <ele>270</ele>
        <time>2020-09-19T10:21:37.750Z</time>
      </trkpt>
      <trkpt lat="45.81602" lon="1.21037">
        <ele>270</ele>
        <time>2020-09-19T10:21:38.750Z</time>
      </trkpt>
      <trkpt lat="45.81601" lon="1.2104">
        <ele>270</ele>
        <time>2020-09-19T10:21:39.750Z</time>
      </trkpt>
      <trkpt lat="45.816" lon="1.21044">
        <ele>270</ele>
        <time>2020-09-19T10:21:40.750Z</time>
      </trkpt>
      <trkpt lat="45.81599" lon="1.21047">
        <ele>270</ele>
        <time>2020-09-19T10:21:41.750Z</time>
      </trkpt>
      <trkpt lat="45.81598" lon="1.2105">
        <ele>270</ele>
        <time>2020-09-19T10:21:42.750Z</time>
      </trkpt>
      <trkpt lat="45.81598" lon="1.21053">
        <ele>269</ele>
        <time>2020-09-19T10:21:43.750Z</time>
      </trkpt>
      <trkpt lat="45.81597" lon="1.21056">
        <ele>269</ele>
        <time>2020-09-19T10:21:44.750Z</time>
      </trkpt>
      <trkpt lat="45.81597" lon="1.21059">
        <ele>270</ele>
        <time>2020-09-19T10:21:45.750Z</time>
      </trkpt>
      <trkpt lat="45.81596" lon="1.21063">
        <ele>270</ele>
        <time>2020-09-19T10:21:46.750Z</time>
      </trkpt>
      <trkpt lat="45.81596" lon="1.21067">
        <ele>271</ele>
        <time>2020-09-19T10:21:47.750Z</time>
      </trkpt>
      <trkpt lat="45.81596" lon="1.21071">
        <ele>270</ele>
        <time>2020-09-19T10:21:48.750Z</time>
      </trkpt>
      <trkpt lat="45.81596" lon="1.21075">
        <ele>270</ele>
        <time>2020-09-19T10:21:49.750Z</time>
      </trkpt>
      <trkpt lat="45.81596" lon="1.21079">
        <ele>271</ele>
        <time>2020-09-19T10:21:50.750Z</time>
      </trkpt>
      <trkpt lat="45.81596" lon="1.21083">
        <ele>271</ele>
        <time>2020-09-19T10:21:51.750Z</time>
      </trkpt>
      <trkpt lat="45.81597" lon="1.21087">
        <ele>270</ele>
        <time>2020-09-19T10:21:52.750Z</time>
      </trkpt>
      <trkpt lat="45.81597" lon="1.21091">
        <ele>270</ele>
        <time>2020-09-19T10:21:53.750Z</time>
      </trkpt>
      <trkpt lat="45.81598" lon="1.21095">
        <ele>270</ele>
        <time>2020-09-19T10:21:54.750Z</time>
      </trkpt>
      <trkpt lat="45.81598" lon="1.21099">
        <ele>271</ele>
        <time>2020-09-19T10:21:55.750Z</time>
      </trkpt>
      <trkpt lat="45.81599" lon="1.21104">
        <ele>271</ele>
        <time>2020-09-19T10:21:56.750Z</time>
      </trkpt>
      <trkpt lat="45.81599" lon="1.21109">
        <ele>270</ele>
        <time>2020-09-19T10:21:57.750Z</time>
      </trkpt>
      <trkpt lat="45.816" lon="1.21113">
        <ele>270</ele>
        <time>2020-09-19T10:21:58.750Z</time>
      </trkpt>
      <trkpt lat="45.81602" lon="1.21118">
        <ele>270</ele>
        <time>2020-09-19T10:21:59.750Z</time>
      </trkpt>
      <trkpt lat="45.81603" lon="1.21122">
        <ele>271</ele>
        <time>2020-09-19T10:22:00.750Z</time>
      </trkpt>
      <trkpt lat="45.81603" lon="1.21127">
        <ele>271</ele>
        <time>2020-09-19T10:22:01.750Z</time>
      </trkpt>
      <trkpt lat="45.81604" lon="1.21131">
        <ele>270</ele>
        <time>2020-09-19T10:22:02.750Z</time>
      </trkpt>
      <trkpt lat="45.81605" lon="1.21136">
        <ele>270</ele>
        <time>2020-09-19T10:22:03.750Z</time>
      </trkpt>
      <trkpt lat="45.81606" lon="1.2114">
        <ele>271</ele>
        <time>2020-09-19T10:22:04.750Z</time>
      </trkpt>
      <trkpt lat="45.81607" lon="1.21145">
        <ele>270</ele>
        <time>2020-09-19T10:22:05.750Z</time>
      </trkpt>
      <trkpt lat="45.81607" lon="1.2115">
        <ele>271</ele>
        <time>2020-09-19T10:22:06.750Z</time>
      </trkpt>
      <trkpt lat="45.81608" lon="1.21155">
        <ele>271</ele>
        <time>2020-09-19T10:22:07.750Z</time>
      </trkpt>
      <trkpt lat="45.81609" lon="1.2116">
        <ele>271</ele>
        <time>2020-09-19T10:22:08.750Z</time>
      </trkpt>
      <trkpt lat="45.81609" lon="1.21165">
        <ele>272</ele>
        <time>2020-09-19T10:22:09.750Z</time>
      </trkpt>
      <trkpt lat="45.8161" lon="1.2117">
        <ele>272</ele>
        <time>2020-09-19T10:22:10.750Z</time>
      </trkpt>
      <trkpt lat="45.81611" lon="1.21175">
        <ele>272</ele>
        <time>2020-09-19T10:22:11.750Z</time>
      </trkpt>
      <trkpt lat="45.81612" lon="1.2118">
        <ele>272</ele>
        <time>2020-09-19T10:22:12.750Z</time>
      </trkpt>
      <trkpt lat="45.81613" lon="1.21184">
        <ele>272</ele>
        <time>2020-09-19T10:22:13.750Z</time>
      </trkpt>
      <trkpt lat="45.81613" lon="1.21189">
        <ele>272</ele>
        <time>2020-09-19T10:22:14.750Z</time>
      </trkpt>
      <trkpt lat="45.81614" lon="1.21193">
        <ele>272</ele>
        <time>2020-09-19T10:22:15.750Z</time>
      </trkpt>
      <trkpt lat="45.81615" lon="1.21197">
        <ele>272</ele>
        <time>2020-09-19T10:22:16.750Z</time>
      </trkpt>
      <trkpt lat="45.81615" lon="1.21202">
        <ele>271</ele>
        <time>2020-09-19T10:22:17.750Z</time>
      </trkpt>
      <trkpt lat="45.81616" lon="1.21206">
        <ele>271</ele>
        <time>2020-09-19T10:22:18.750Z</time>
      </trkpt>
      <trkpt lat="45.81617" lon="1.2121">
        <ele>272</ele>
        <time>2020-09-19T10:22:19.750Z</time>
      </trkpt>
      <trkpt lat="45.81617" lon="1.21214">
        <ele>272</ele>
        <time>2020-09-19T10:22:20.750Z</time>
      </trkpt>
      <trkpt lat="45.81618" lon="1.21219">
        <ele>272</ele>
        <time>2020-09-19T10:22:21.750Z</time>
      </trkpt>
      <trkpt lat="45.81619" lon="1.21223">
        <ele>272</ele>
        <time>2020-09-19T10:22:22.750Z</time>
      </trkpt>
      <trkpt lat="45.8162" lon="1.21227">
        <ele>272</ele>
        <time>2020-09-19T10:22:23.750Z</time>
      </trkpt>
      <trkpt lat="45.8162" lon="1.21232">
        <ele>272</ele>
        <time>2020-09-19T10:22:24.750Z</time>
      </trkpt>
      <trkpt lat="45.81621" lon="1.21236">
        <ele>272</ele>
        <time>2020-09-19T10:22:25.750Z</time>
      </trkpt>
      <trkpt lat="45.81621" lon="1.21241">
        <ele>272</ele>
        <time>2020-09-19T10:22:26.750Z</time>
      </trkpt>
      <trkpt lat="45.81622" lon="1.21246">
        <ele>273</ele>
        <time>2020-09-19T10:22:27.750Z</time>
      </trkpt>
      <trkpt lat="45.81622" lon="1.2125">
        <ele>273</ele>
        <time>2020-09-19T10:22:28.750Z</time>
      </trkpt>
      <trkpt lat="45.81623" lon="1.21255">
        <ele>275</ele>
        <time>2020-09-19T10:22:29.750Z</time>
      </trkpt>
      <trkpt lat="45.81623" lon="1.21259">
        <ele>274</ele>
        <time>2020-09-19T10:22:30.750Z</time>
      </trkpt>
      <trkpt lat="45.81624" lon="1.21263">
        <ele>274</ele>
        <time>2020-09-19T10:22:31.750Z</time>
      </trkpt>
      <trkpt lat="45.81624" lon="1.21268">
        <ele>275</ele>
        <time>2020-09-19T10:22:32.750Z</time>
      </trkpt>
      <trkpt lat="45.81624" lon="1.21272">
        <ele>275</ele>
        <time>2020-09-19T10:22:33.750Z</time>
      </trkpt>
      <trkpt lat="45.81625" lon="1.21277">
        <ele>275</ele>
        <time>2020-09-19T10:22:34.750Z</time>
      </trkpt>
      <trkpt lat="45.81626" lon="1.21281">
        <ele>275</ele>
        <time>2020-09-19T10:22:35.750Z</time>
      </trkpt>
      <trkpt lat="45.81626" lon="1.21286">
        <ele>275</ele>
        <time>2020-09-19T10:22:36.750Z</time>
      </trkpt>
      <trkpt lat="45.81626" lon="1.21291">
        <ele>275</ele>
        <time>2020-09-19T10:22:37.750Z</time>
      </trkpt>
      <trkpt lat="45.81626" lon="1.21295">
        <ele>275</ele>
        <time>2020-09-19T10:22:38.750Z</time>
      </trkpt>
      <trkpt lat="45.81627" lon="1.213">
        <ele>275</ele>
        <time>2020-09-19T10:22:39.750Z</time>
      </trkpt>
      <trkpt lat="45.81627" lon="1.21305">
        <ele>275</ele>
        <time>2020-09-19T10:22:40.750Z</time>
      </trkpt>
      <trkpt lat="45.81627" lon="1.21309">
        <ele>274</ele>
        <time>2020-09-19T10:22:41.750Z</time>
      </trkpt>
      <trkpt lat="45.81628" lon="1.21314">
        <ele>275</ele>
        <time>2020-09-19T10:22:42.750Z</time>
      </trkpt>
      <trkpt lat="45.81628" lon="1.21318">
        <ele>276</ele>
        <time>2020-09-19T10:22:43.750Z</time>
      </trkpt>
      <trkpt lat="45.81629" lon="1.21322">
        <ele>275</ele>
        <time>2020-09-19T10:22:44.750Z</time>
      </trkpt>
      <trkpt lat="45.81629" lon="1.21327">
        <ele>275</ele>
        <time>2020-09-19T10:22:45.750Z</time>
      </trkpt>
      <trkpt lat="45.8163" lon="1.21331">
        <ele>275</ele>
        <time>2020-09-19T10:22:46.750Z</time>
      </trkpt>
      <trkpt lat="45.81631" lon="1.21335">
        <ele>275</ele>
        <time>2020-09-19T10:22:47.750Z</time>
      </trkpt>
      <trkpt lat="45.81632" lon="1.21339">
        <ele>276</ele>
        <time>2020-09-19T10:22:48.750Z</time>
      </trkpt>
      <trkpt lat="45.81633" lon="1.21343">
        <ele>277</ele>
        <time>2020-09-19T10:22:49.750Z</time>
      </trkpt>
      <trkpt lat="45.81633" lon="1.21347">
        <ele>278</ele>
        <time>2020-09-19T10:22:50.750Z</time>
      </trkpt>
      <trkpt lat="45.81634" lon="1.21351">
        <ele>277</ele>
        <time>2020-09-19T10:22:51.750Z</time>
      </trkpt>
      <trkpt lat="45.81634" lon="1.21356">
        <ele>277</ele>
        <time>2020-09-19T10:22:52.750Z</time>
      </trkpt>
      <trkpt lat="45.81634" lon="1.2136">
        <ele>277</ele>
        <time>2020-09-19T10:22:53.750Z</time>
      </trkpt>
      <trkpt lat="45.81635" lon="1.21365">
        <ele>278</ele>
        <time>2020-09-19T10:22:54.750Z</time>
      </trkpt>
      <trkpt lat="45.81636" lon="1.21369">
        <ele>278</ele>
        <time>2020-09-19T10:22:55.750Z</time>
      </trkpt>
      <trkpt lat="45.81636" lon="1.21374">
        <ele>278</ele>
        <time>2020-09-19T10:22:56.750Z</time>
      </trkpt>
      <trkpt lat="45.81636" lon="1.21378">
        <ele>278</ele>
        <time>2020-09-19T10:22:57.750Z</time>
      </trkpt>
      <trkpt lat="45.81636" lon="1.21383">
        <ele>279</ele>
        <time>2020-09-19T10:22:58.750Z</time>
      </trkpt>
      <trkpt lat="45.81637" lon="1.21387">
        <ele>278</ele>
        <time>2020-09-19T10:22:59.750Z</time>
      </trkpt>
      <trkpt lat="45.81637" lon="1.21392">
        <ele>279</ele>
        <time>2020-09-19T10:23:00.750Z</time>
      </trkpt>
      <trkpt lat="45.81637" lon="1.21396">
        <ele>280</ele>
        <time>2020-09-19T10:23:01.750Z</time>
      </trkpt>
      <trkpt lat="45.81638" lon="1.214">
        <ele>279</ele>
        <time>2020-09-19T10:23:02.750Z</time>
      </trkpt>
      <trkpt lat="45.81638" lon="1.21404">
        <ele>279</ele>
        <time>2020-09-19T10:23:03.750Z</time>
      </trkpt>
      <trkpt lat="45.81638" lon="1.21408">
        <ele>280</ele>
        <time>2020-09-19T10:23:04.750Z</time>
      </trkpt>
      <trkpt lat="45.81637" lon="1.21413">
        <ele>279</ele>
        <time>2020-09-19T10:23:05.750Z</time>
      </trkpt>
      <trkpt lat="45.81637" lon="1.21417">
        <ele>280</ele>
        <time>2020-09-19T10:23:06.750Z</time>
      </trkpt>
      <trkpt lat="45.81637" lon="1.21421">
        <ele>280</ele>
        <time>2020-09-19T10:23:07.750Z</time>
      </trkpt>
      <trkpt lat="45.81636" lon="1.21426">
        <ele>280</ele>
        <time>2020-09-19T10:23:08.750Z</time>
      </trkpt>
      <trkpt lat="45.81635" lon="1.21431">
        <ele>280</ele>
        <time>2020-09-19T10:23:09.750Z</time>
      </trkpt>
      <trkpt lat="45.81635" lon="1.21436">
        <ele>282</ele>
        <time>2020-09-19T10:23:10.750Z</time>
      </trkpt>
      <trkpt lat="45.81634" lon="1.2144">
        <ele>282</ele>
        <time>2020-09-19T10:23:11.750Z</time>
      </trkpt>
      <trkpt lat="45.81633" lon="1.21444">
        <ele>283</ele>
        <time>2020-09-19T10:23:12.750Z</time>
      </trkpt>
      <trkpt lat="45.81632" lon="1.21448">
        <ele>283</ele>
        <time>2020-09-19T10:23:13.750Z</time>
      </trkpt>
      <trkpt lat="45.8163" lon="1.21452">
        <ele>283</ele>
        <time>2020-09-19T10:23:14.750Z</time>
      </trkpt>
      <trkpt lat="45.81629" lon="1.21457">
        <ele>283</ele>
        <time>2020-09-19T10:23:15.750Z</time>
      </trkpt>
      <trkpt lat="45.81627" lon="1.21461">
        <ele>283</ele>
        <time>2020-09-19T10:23:16.750Z</time>
      </trkpt>
      <trkpt lat="45.81626" lon="1.21464">
        <ele>282</ele>
        <time>2020-09-19T10:23:17.750Z</time>
      </trkpt>
      <trkpt lat="45.81624" lon="1.21468">
        <ele>282</ele>
        <time>2020-09-19T10:23:18.750Z</time>
      </trkpt>
      <trkpt lat="45.81622" lon="1.21472">
        <ele>282</ele>
        <time>2020-09-19T10:23:19.750Z</time>
      </trkpt>
      <trkpt lat="45.8162" lon="1.21475">
        <ele>283</ele>
        <time>2020-09-19T10:23:20.750Z</time>
      </trkpt>
      <trkpt lat="45.81617" lon="1.21478">
        <ele>283</ele>
        <time>2020-09-19T10:23:21.750Z</time>
      </trkpt>
      <trkpt lat="45.81614" lon="1.21481">
        <ele>284</ele>
        <time>2020-09-19T10:23:22.750Z</time>
      </trkpt>
      <trkpt lat="45.81611" lon="1.21484">
        <ele>284</ele>
        <time>2020-09-19T10:23:23.750Z</time>
      </trkpt>
      <trkpt lat="45.81608" lon="1.21486">
        <ele>284</ele>
        <time>2020-09-19T10:23:24.750Z</time>
      </trkpt>
      <trkpt lat="45.81604" lon="1.21487">
        <ele>285</ele>
        <time>2020-09-19T10:23:25.750Z</time>
      </trkpt>
      <trkpt lat="45.81601" lon="1.21487">
        <ele>286</ele>
        <time>2020-09-19T10:23:26.750Z</time>
      </trkpt>
      <trkpt lat="45.81598" lon="1.21487">
        <ele>287</ele>
        <time>2020-09-19T10:23:27.750Z</time>
      </trkpt>
      <trkpt lat="45.81594" lon="1.21487">
        <ele>287</ele>
        <time>2020-09-19T10:23:28.750Z</time>
      </trkpt>
      <trkpt lat="45.8159" lon="1.21487">
        <ele>287</ele>
        <time>2020-09-19T10:23:29.750Z</time>
      </trkpt>
      <trkpt lat="45.81588" lon="1.21487">
        <ele>287</ele>
        <time>2020-09-19T10:23:30.750Z</time>
      </trkpt>
      <trkpt lat="45.81585" lon="1.21487">
        <ele>288</ele>
        <time>2020-09-19T10:23:31.750Z</time>
      </trkpt>
      <trkpt lat="45.81582" lon="1.21486">
        <ele>288</ele>
        <time>2020-09-19T10:23:32.750Z</time>
      </trkpt>
      <trkpt lat="45.81578" lon="1.21485">
        <ele>288</ele>
        <time>2020-09-19T10:23:33.750Z</time>
      </trkpt>
      <trkpt lat="45.81575" lon="1.21485">
        <ele>289</ele>
        <time>2020-09-19T10:23:34.750Z</time>
      </trkpt>
      <trkpt lat="45.81572" lon="1.21484">
        <ele>290</ele>
        <time>2020-09-19T10:23:35.750Z</time>
      </trkpt>
      <trkpt lat="45.81569" lon="1.21483">
        <ele>291</ele>
        <time>2020-09-19T10:23:36.750Z</time>
      </trkpt>
      <trkpt lat="45.81565" lon="1.21482">
        <ele>291</ele>
        <time>2020-09-19T10:23:37.750Z</time>
      </trkpt>
      <trkpt lat="45.81562" lon="1.21481">
        <ele>291</ele>
        <time>2020-09-19T10:23:38.750Z</time>
      </trkpt>
      <trkpt lat="45.8156" lon="1.2148">
        <ele>291</ele>
        <time>2020-09-19T10:23:39.750Z</time>
      </trkpt>
      <trkpt lat="45.81556" lon="1.21479">
        <ele>291</ele>
        <time>2020-09-19T10:23:40.750Z</time>
      </trkpt>
      <trkpt lat="45.81554" lon="1.21478">
        <ele>291</ele>
        <time>2020-09-19T10:23:41.750Z</time>
      </trkpt>
      <trkpt lat="45.81551" lon="1.21477">
        <ele>292</ele>
        <time>2020-09-19T10:23:42.750Z</time>
      </trkpt>
      <trkpt lat="45.81548" lon="1.21476">
        <ele>293</ele>
        <time>2020-09-19T10:23:43.750Z</time>
      </trkpt>
      <trkpt lat="45.81545" lon="1.21474">
        <ele>293</ele>
        <time>2020-09-19T10:23:44.750Z</time>
      </trkpt>
      <trkpt lat="45.81543" lon="1.21473">
        <ele>293</ele>
        <time>2020-09-19T10:23:45.750Z</time>
      </trkpt>
      <trkpt lat="45.8154" lon="1.21472">
        <ele>292</ele>
        <time>2020-09-19T10:23:46.750Z</time>
      </trkpt>
      <trkpt lat="45.81537" lon="1.21471">
        <ele>292</ele>
        <time>2020-09-19T10:23:47.750Z</time>
      </trkpt>
      <trkpt lat="45.81534" lon="1.2147">
        <ele>292</ele>
        <time>2020-09-19T10:23:48.750Z</time>
      </trkpt>
      <trkpt lat="45.81531" lon="1.21469">
        <ele>292</ele>
        <time>2020-09-19T10:23:49.750Z</time>
      </trkpt>
      <trkpt lat="45.81528" lon="1.21468">
        <ele>293</ele>
        <time>2020-09-19T10:23:50.750Z</time>
      </trkpt>
      <trkpt lat="45.81525" lon="1.21467">
        <ele>293</ele>
        <time>2020-09-19T10:23:51.750Z</time>
      </trkpt>
      <trkpt lat="45.81522" lon="1.21466">
        <ele>293</ele>
        <time>2020-09-19T10:23:52.750Z</time>
      </trkpt>
      <trkpt lat="45.8152" lon="1.21465">
        <ele>294</ele>
        <time>2020-09-19T10:23:53.750Z</time>
      </trkpt>
      <trkpt lat="45.81517" lon="1.21465">
        <ele>294</ele>
        <time>2020-09-19T10:23:54.750Z</time>
      </trkpt>
      <trkpt lat="45.81514" lon="1.21463">
        <ele>295</ele>
        <time>2020-09-19T10:23:55.750Z</time>
      </trkpt>
      <trkpt lat="45.81512" lon="1.21462">
        <ele>295</ele>
        <time>2020-09-19T10:23:56.750Z</time>
      </trkpt>
      <trkpt lat="45.81509" lon="1.2146">
        <ele>295</ele>
        <time>2020-09-19T10:23:57.750Z</time>
      </trkpt>
      <trkpt lat="45.81506" lon="1.21459">
        <ele>295</ele>
        <time>2020-09-19T10:23:58.750Z</time>
      </trkpt>
      <trkpt lat="45.81504" lon="1.21458">
        <ele>295</ele>
        <time>2020-09-19T10:23:59.750Z</time>
      </trkpt>
      <trkpt lat="45.81501" lon="1.21457">
        <ele>296</ele>
        <time>2020-09-19T10:24:00.750Z</time>
      </trkpt>
      <trkpt lat="45.81498" lon="1.21456">
        <ele>295</ele>
        <time>2020-09-19T10:24:01.750Z</time>
      </trkpt>
      <trkpt lat="45.81496" lon="1.21455">
        <ele>295</ele>
        <time>2020-09-19T10:24:02.750Z</time>
      </trkpt>
      <trkpt lat="45.81493" lon="1.21454">
        <ele>295</ele>
        <time>2020-09-19T10:24:03.750Z</time>
      </trkpt>
      <trkpt lat="45.81491" lon="1.21453">
        <ele>296</ele>
        <time>2020-09-19T10:24:04.750Z</time>
      </trkpt>
      <trkpt lat="45.81488" lon="1.21451">
        <ele>297</ele>
        <time>2020-09-19T10:24:05.750Z</time>
      </trkpt>
      <trkpt lat="45.81485" lon="1.2145">
        <ele>296</ele>
        <time>2020-09-19T10:24:06.750Z</time>
      </trkpt>
      <trkpt lat="45.81482" lon="1.21449">
        <ele>296</ele>
        <time>2020-09-19T10:24:07.750Z</time>
      </trkpt>
      <trkpt lat="45.81479" lon="1.21447">
        <ele>296</ele>
        <time>2020-09-19T10:24:08.750Z</time>
      </trkpt>
      <trkpt lat="45.81477" lon="1.21446">
        <ele>296</ele>
        <time>2020-09-19T10:24:09.750Z</time>
      </trkpt>
      <trkpt lat="45.81474" lon="1.21444">
        <ele>297</ele>
        <time>2020-09-19T10:24:10.750Z</time>
      </trkpt>
      <trkpt lat="45.8147" lon="1.21443">
        <ele>298</ele>
        <time>2020-09-19T10:24:11.750Z</time>
      </trkpt>
      <trkpt lat="45.81467" lon="1.21442">
        <ele>299</ele>
        <time>2020-09-19T10:24:12.750Z</time>
      </trkpt>
      <trkpt lat="45.81464" lon="1.2144">
        <ele>299</ele>
        <time>2020-09-19T10:24:13.750Z</time>
      </trkpt>
      <trkpt lat="45.81461" lon="1.21439">
        <ele>298</ele>
        <time>2020-09-19T10:24:14.750Z</time>
      </trkpt>
      <trkpt lat="45.81459" lon="1.21438">
        <ele>298</ele>
        <time>2020-09-19T10:24:15.750Z</time>
      </trkpt>
      <trkpt lat="45.81456" lon="1.21436">
        <ele>298</ele>
        <time>2020-09-19T10:24:16.750Z</time>
      </trkpt>
      <trkpt lat="45.81453" lon="1.21435">
        <ele>299</ele>
        <time>2020-09-19T10:24:17.750Z</time>
      </trkpt>
      <trkpt lat="45.8145" lon="1.21434">
        <ele>300</ele>
        <time>2020-09-19T10:24:18.750Z</time>
      </trkpt>
      <trkpt lat="45.81447" lon="1.21433">
        <ele>300</ele>
        <time>2020-09-19T10:24:19.750Z</time>
      </trkpt>
      <trkpt lat="45.81444" lon="1.21431">
        <ele>300</ele>
        <time>2020-09-19T10:24:20.750Z</time>
      </trkpt>
      <trkpt lat="45.81441" lon="1.2143">
        <ele>299</ele>
        <time>2020-09-19T10:24:21.750Z</time>
      </trkpt>
      <trkpt lat="45.81437" lon="1.21429">
        <ele>299</ele>
        <time>2020-09-19T10:24:22.750Z</time>
      </trkpt>
      <trkpt lat="45.81434" lon="1.21427">
        <ele>300</ele>
        <time>2020-09-19T10:24:23.750Z</time>
      </trkpt>
      <trkpt lat="45.81431" lon="1.21426">
        <ele>300</ele>
        <time>2020-09-19T10:24:24.750Z</time>
      </trkpt>
      <trkpt lat="45.81428" lon="1.21425">
        <ele>300</ele>
        <time>2020-09-19T10:24:25.750Z</time>
      </trkpt>
      <trkpt lat="45.81424" lon="1.21424">
        <ele>300</ele>
        <time>2020-09-19T10:24:26.750Z</time>
      </trkpt>
      <trkpt lat="45.81421" lon="1.21422">
        <ele>301</ele>
        <time>2020-09-19T10:24:27.750Z</time>
      </trkpt>
      <trkpt lat="45.81418" lon="1.21421">
        <ele>302</ele>
        <time>2020-09-19T10:24:28.750Z</time>
      </trkpt>
      <trkpt lat="45.81415" lon="1.2142">
        <ele>301</ele>
        <time>2020-09-19T10:24:29.750Z</time>
      </trkpt>
      <trkpt lat="45.81411" lon="1.21419">
        <ele>301</ele>
        <time>2020-09-19T10:24:30.750Z</time>
      </trkpt>
      <trkpt lat="45.81408" lon="1.21418">
        <ele>301</ele>
        <time>2020-09-19T10:24:31.750Z</time>
      </trkpt>
      <trkpt lat="45.81405" lon="1.21418">
        <ele>301</ele>
        <time>2020-09-19T10:24:32.750Z</time>
      </trkpt>
      <trkpt lat="45.81402" lon="1.21417">
        <ele>302</ele>
        <time>2020-09-19T10:24:33.750Z</time>
      </trkpt>
      <trkpt lat="45.81398" lon="1.21416">
        <ele>303</ele>
        <time>2020-09-19T10:24:34.750Z</time>
      </trkpt>
      <trkpt lat="45.81395" lon="1.21415">
        <ele>303</ele>
        <time>2020-09-19T10:24:35.750Z</time>
      </trkpt>
      <trkpt lat="45.81391" lon="1.21414">
        <ele>303</ele>
        <time>2020-09-19T10:24:36.750Z</time>
      </trkpt>
      <trkpt lat="45.81388" lon="1.21414">
        <ele>303</ele>
        <time>2020-09-19T10:24:37.750Z</time>
      </trkpt>
      <trkpt lat="45.81385" lon="1.21414">
        <ele>301</ele>
        <time>2020-09-19T10:24:38.750Z</time>
      </trkpt>
      <trkpt lat="45.81382" lon="1.21414">
        <ele>302</ele>
        <time>2020-09-19T10:24:39.750Z</time>
      </trkpt>
      <trkpt lat="45.81378" lon="1.21414">
        <ele>302</ele>
        <time>2020-09-19T10:24:40.750Z</time>
      </trkpt>
      <trkpt lat="45.81375" lon="1.21414">
        <ele>302</ele>
        <time>2020-09-19T10:24:41.750Z</time>
      </trkpt>
      <trkpt lat="45.81372" lon="1.21415">
        <ele>302</ele>
        <time>2020-09-19T10:24:42.750Z</time>
      </trkpt>
      <trkpt lat="45.81369" lon="1.21415">
        <ele>303</ele>
        <time>2020-09-19T10:24:43.750Z</time>
      </trkpt>
      <trkpt lat="45.81365" lon="1.21415">
        <ele>303</ele>
        <time>2020-09-19T10:24:44.750Z</time>
      </trkpt>
      <trkpt lat="45.81362" lon="1.21416">
        <ele>303</ele>
        <time>2020-09-19T10:24:45.750Z</time>
      </trkpt>
      <trkpt lat="45.81359" lon="1.21417">
        <ele>304</ele>
        <time>2020-09-19T10:24:46.750Z</time>
      </trkpt>
      <trkpt lat="45.81356" lon="1.21418">
        <ele>305</ele>
        <time>2020-09-19T10:24:47.750Z</time>
      </trkpt>
      <trkpt lat="45.81352" lon="1.21419">
        <ele>304</ele>
        <time>2020-09-19T10:24:48.750Z</time>
      </trkpt>
      <trkpt lat="45.81349" lon="1.21421">
        <ele>304</ele>
        <time>2020-09-19T10:24:49.750Z</time>
      </trkpt>
      <trkpt lat="45.81346" lon="1.21422">
        <ele>305</ele>
        <time>2020-09-19T10:24:50.750Z</time>
      </trkpt>
      <trkpt lat="45.81344" lon="1.21424">
        <ele>305</ele>
        <time>2020-09-19T10:24:51.750Z</time>
      </trkpt>
      <trkpt lat="45.81341" lon="1.21427">
        <ele>305</ele>
        <time>2020-09-19T10:24:52.750Z</time>
      </trkpt>
      <trkpt lat="45.81338" lon="1.21429">
        <ele>305</ele>
        <time>2020-09-19T10:24:53.750Z</time>
      </trkpt>
      <trkpt lat="45.81336" lon="1.21431">
        <ele>306</ele>
        <time>2020-09-19T10:24:54.750Z</time>
      </trkpt>
      <trkpt lat="45.81333" lon="1.21433">
        <ele>306</ele>
        <time>2020-09-19T10:24:55.750Z</time>
      </trkpt>
      <trkpt lat="45.81331" lon="1.21436">
        <ele>306</ele>
        <time>2020-09-19T10:24:56.750Z</time>
      </trkpt>
      <trkpt lat="45.81328" lon="1.21438">
        <ele>306</ele>
        <time>2020-09-19T10:24:57.750Z</time>
      </trkpt>
      <trkpt lat="45.81325" lon="1.21441">
        <ele>306</ele>
        <time>2020-09-19T10:24:58.750Z</time>
      </trkpt>
      <trkpt lat="45.81323" lon="1.21444">
        <ele>306</ele>
        <time>2020-09-19T10:24:59.750Z</time>
      </trkpt>
      <trkpt lat="45.8132" lon="1.21447">
        <ele>307</ele>
        <time>2020-09-19T10:25:00.750Z</time>
      </trkpt>
      <trkpt lat="45.81317" lon="1.2145">
        <ele>308</ele>
        <time>2020-09-19T10:25:01.750Z</time>
      </trkpt>
      <trkpt lat="45.81314" lon="1.21453">
        <ele>309</ele>
        <time>2020-09-19T10:25:02.750Z</time>
      </trkpt>
      <trkpt lat="45.81312" lon="1.21456">
        <ele>309</ele>
        <time>2020-09-19T10:25:03.750Z</time>
      </trkpt>
      <trkpt lat="45.81309" lon="1.21459">
        <ele>311</ele>
        <time>2020-09-19T10:25:04.750Z</time>
      </trkpt>
      <trkpt lat="45.81306" lon="1.21461">
        <ele>311</ele>
        <time>2020-09-19T10:25:05.750Z</time>
      </trkpt>
      <trkpt lat="45.81304" lon="1.21464">
        <ele>311</ele>
        <time>2020-09-19T10:25:06.750Z</time>
      </trkpt>
      <trkpt lat="45.81301" lon="1.21467">
        <ele>311</ele>
        <time>2020-09-19T10:25:07.750Z</time>
      </trkpt>
      <trkpt lat="45.81299" lon="1.21469">
        <ele>312</ele>
        <time>2020-09-19T10:25:08.750Z</time>
      </trkpt>
      <trkpt lat="45.81297" lon="1.21472">
        <ele>312</ele>
        <time>2020-09-19T10:25:09.750Z</time>
      </trkpt>
      <trkpt lat="45.81294" lon="1.21475">
        <ele>312</ele>
        <time>2020-09-19T10:25:10.750Z</time>
      </trkpt>
      <trkpt lat="45.81292" lon="1.21478">
        <ele>312</ele>
        <time>2020-09-19T10:25:11.750Z</time>
      </trkpt>
      <trkpt lat="45.8129" lon="1.21481">
        <ele>312</ele>
        <time>2020-09-19T10:25:12.750Z</time>
      </trkpt>
      <trkpt lat="45.81289" lon="1.21484">
        <ele>312</ele>
        <time>2020-09-19T10:25:13.750Z</time>
      </trkpt>
      <trkpt lat="45.81287" lon="1.21486">
        <ele>312</ele>
        <time>2020-09-19T10:25:14.750Z</time>
      </trkpt>
      <trkpt lat="45.81285" lon="1.2149">
        <ele>313</ele>
        <time>2020-09-19T10:25:15.750Z</time>
      </trkpt>
      <trkpt lat="45.81284" lon="1.21493">
        <ele>312</ele>
        <time>2020-09-19T10:25:16.750Z</time>
      </trkpt>
      <trkpt lat="45.81282" lon="1.21497">
        <ele>312</ele>
        <time>2020-09-19T10:25:17.750Z</time>
      </trkpt>
      <trkpt lat="45.81281" lon="1.215">
        <ele>312</ele>
        <time>2020-09-19T10:25:18.750Z</time>
      </trkpt>
      <trkpt lat="45.8128" lon="1.21504">
        <ele>311</ele>
        <time>2020-09-19T10:25:19.750Z</time>
      </trkpt>
      <trkpt lat="45.81279" lon="1.21508">
        <ele>311</ele>
        <time>2020-09-19T10:25:20.750Z</time>
      </trkpt>
      <trkpt lat="45.81278" lon="1.21512">
        <ele>311</ele>
        <time>2020-09-19T10:25:21.750Z</time>
      </trkpt>
      <trkpt lat="45.81276" lon="1.21515">
        <ele>311</ele>
        <time>2020-09-19T10:25:22.750Z</time>
      </trkpt>
      <trkpt lat="45.81275" lon="1.21518">
        <ele>312</ele>
        <time>2020-09-19T10:25:23.750Z</time>
      </trkpt>
      <trkpt lat="45.81273" lon="1.21522">
        <ele>311</ele>
        <time>2020-09-19T10:25:24.750Z</time>
      </trkpt>
      <trkpt lat="45.81272" lon="1.21524">
        <ele>310</ele>
        <time>2020-09-19T10:25:25.750Z</time>
      </trkpt>
      <trkpt lat="45.8127" lon="1.21526">
        <ele>309</ele>
        <time>2020-09-19T10:25:26.750Z</time>
      </trkpt>
      <trkpt lat="45.81268" lon="1.21527">
        <ele>308</ele>
        <time>2020-09-19T10:25:27.750Z</time>
      </trkpt>
      <trkpt lat="45.81266" lon="1.21529">
        <ele>308</ele>
        <time>2020-09-19T10:25:28.750Z</time>
      </trkpt>
      <trkpt lat="45.81264" lon="1.2153">
        <ele>308</ele>
        <time>2020-09-19T10:25:29.750Z</time>
      </trkpt>
      <trkpt lat="45.81263" lon="1.21532">
        <ele>309</ele>
        <time>2020-09-19T10:25:30.750Z</time>
      </trkpt>
      <trkpt lat="45.81261" lon="1.21533">
        <ele>309</ele>
        <time>2020-09-19T10:25:31.750Z</time>
      </trkpt>
      <trkpt lat="45.81258" lon="1.21535">
        <ele>308</ele>
        <time>2020-09-19T10:25:32.750Z</time>
      </trkpt>
      <trkpt lat="45.81256" lon="1.21537">
        <ele>310</ele>
        <time>2020-09-19T10:25:33.750Z</time>
      </trkpt>
      <trkpt lat="45.81254" lon="1.21539">
        <ele>311</ele>
        <time>2020-09-19T10:25:34.750Z</time>
      </trkpt>
      <trkpt lat="45.81252" lon="1.21541">
        <ele>312</ele>
        <time>2020-09-19T10:25:35.750Z</time>
      </trkpt>
      <trkpt lat="45.81249" lon="1.21543">
        <ele>312</ele>
        <time>2020-09-19T10:25:36.750Z</time>
      </trkpt>
      <trkpt lat="45.81247" lon="1.21544">
        <ele>313</ele>
        <time>2020-09-19T10:25:37.750Z</time>
      </trkpt>
      <trkpt lat="45.81244" lon="1.21545">
        <ele>313</ele>
        <time>2020-09-19T10:25:38.750Z</time>
      </trkpt>
      <trkpt lat="45.81242" lon="1.21547">
        <ele>313</ele>
        <time>2020-09-19T10:25:39.750Z</time>
      </trkpt>
      <trkpt lat="45.8124" lon="1.21548">
        <ele>313</ele>
        <time>2020-09-19T10:25:40.750Z</time>
      </trkpt>
      <trkpt lat="45.81238" lon="1.2155">
        <ele>314</ele>
        <time>2020-09-19T10:25:41.750Z</time>
      </trkpt>
      <trkpt lat="45.81236" lon="1.21551">
        <ele>315</ele>
        <time>2020-09-19T10:25:42.750Z</time>
      </trkpt>
      <trkpt lat="45.81233" lon="1.21552">
        <ele>317</ele>
        <time>2020-09-19T10:25:43.750Z</time>
      </trkpt>
      <trkpt lat="45.8123" lon="1.21553">
        <ele>318</ele>
        <time>2020-09-19T10:25:44.750Z</time>
      </trkpt>
      <trkpt lat="45.81226" lon="1.21554">
        <ele>320</ele>
        <time>2020-09-19T10:25:45.750Z</time>
      </trkpt>
      <trkpt lat="45.81223" lon="1.21556">
        <ele>320</ele>
        <time>2020-09-19T10:25:46.750Z</time>
      </trkpt>
      <trkpt lat="45.8122" lon="1.21557">
        <ele>320</ele>
        <time>2020-09-19T10:25:47.750Z</time>
      </trkpt>
      <trkpt lat="45.81218" lon="1.21558">
        <ele>321</ele>
        <time>2020-09-19T10:25:48.750Z</time>
      </trkpt>
      <trkpt lat="45.81215" lon="1.21558">
        <ele>321</ele>
        <time>2020-09-19T10:25:49.750Z</time>
      </trkpt>
      <trkpt lat="45.81213" lon="1.21559">
        <ele>323</ele>
        <time>2020-09-19T10:25:50.750Z</time>
      </trkpt>
      <trkpt lat="45.81211" lon="1.21558">
        <ele>323</ele>
        <time>2020-09-19T10:25:51.750Z</time>
      </trkpt>
      <trkpt lat="45.81211" lon="1.21557">
        <ele>322</ele>
        <time>2020-09-19T10:25:52.750Z</time>
      </trkpt>
      <trkpt lat="45.81212" lon="1.21555">
        <ele>321</ele>
        <time>2020-09-19T10:25:53.750Z</time>
      </trkpt>
      <trkpt lat="45.81213" lon="1.21553">
        <ele>320</ele>
        <time>2020-09-19T10:25:54.750Z</time>
      </trkpt>
      <trkpt lat="45.81215" lon="1.21551">
        <ele>319</ele>
        <time>2020-09-19T10:25:55.750Z</time>
      </trkpt>
      <trkpt lat="45.81217" lon="1.2155">
        <ele>319</ele>
        <time>2020-09-19T10:25:56.750Z</time>
      </trkpt>
      <trkpt lat="45.81218" lon="1.21549">
        <ele>319</ele>
        <time>2020-09-19T10:25:57.750Z</time>
      </trkpt>
      <trkpt lat="45.81219" lon="1.21548">
        <ele>319</ele>
        <time>2020-09-19T10:25:58.750Z</time>
      </trkpt>
      <trkpt lat="45.81221" lon="1.21548">
        <ele>319</ele>
        <time>2020-09-19T10:25:59.750Z</time>
      </trkpt>
      <trkpt lat="45.81222" lon="1.21547">
        <ele>318</ele>
        <time>2020-09-19T10:26:00.750Z</time>
      </trkpt>
      <trkpt lat="45.81224" lon="1.21547">
        <ele>317</ele>
        <time>2020-09-19T10:26:01.750Z</time>
      </trkpt>
      <trkpt lat="45.81226" lon="1.21546">
        <ele>317</ele>
        <time>2020-09-19T10:26:02.750Z</time>
      </trkpt>
      <trkpt lat="45.81228" lon="1.21545">
        <ele>316</ele>
        <time>2020-09-19T10:26:03.750Z</time>
      </trkpt>
      <trkpt lat="45.81231" lon="1.21543">
        <ele>315</ele>
        <time>2020-09-19T10:26:04.750Z</time>
      </trkpt>
      <trkpt lat="45.81235" lon="1.21542">
        <ele>314</ele>
        <time>2020-09-19T10:26:05.750Z</time>
      </trkpt>
      <trkpt lat="45.81238" lon="1.21541">
        <ele>314</ele>
        <time>2020-09-19T10:26:06.750Z</time>
      </trkpt>
      <trkpt lat="45.81241" lon="1.2154">
        <ele>313</ele>
        <time>2020-09-19T10:26:07.750Z</time>
      </trkpt>
      <trkpt lat="45.81244" lon="1.21538">
        <ele>313</ele>
        <time>2020-09-19T10:26:08.750Z</time>
      </trkpt>
      <trkpt lat="45.81247" lon="1.21537">
        <ele>311</ele>
        <time>2020-09-19T10:26:09.750Z</time>
      </trkpt>
      <trkpt lat="45.8125" lon="1.21535">
        <ele>310</ele>
        <time>2020-09-19T10:26:10.750Z</time>
      </trkpt>
      <trkpt lat="45.81253" lon="1.21534">
        <ele>308</ele>
        <time>2020-09-19T10:26:11.750Z</time>
      </trkpt>
      <trkpt lat="45.81256" lon="1.21533">
        <ele>307</ele>
        <time>2020-09-19T10:26:12.750Z</time>
      </trkpt>
      <trkpt lat="45.81258" lon="1.21533">
        <ele>306</ele>
        <time>2020-09-19T10:26:13.750Z</time>
      </trkpt>
      <trkpt lat="45.8126" lon="1.21531">
        <ele>306</ele>
        <time>2020-09-19T10:26:14.750Z</time>
      </trkpt>
      <trkpt lat="45.81262" lon="1.2153">
        <ele>306</ele>
        <time>2020-09-19T10:26:15.750Z</time>
      </trkpt>
      <trkpt lat="45.81263" lon="1.21528">
        <ele>306</ele>
        <time>2020-09-19T10:26:16.750Z</time>
      </trkpt>
      <trkpt lat="45.81265" lon="1.21525">
        <ele>305</ele>
        <time>2020-09-19T10:26:17.750Z</time>
      </trkpt>
      <trkpt lat="45.81267" lon="1.21523">
        <ele>305</ele>
        <time>2020-09-19T10:26:18.750Z</time>
      </trkpt>
      <trkpt lat="45.81269" lon="1.2152">
        <ele>304</ele>
        <time>2020-09-19T10:26:19.750Z</time>
      </trkpt>
      <trkpt lat="45.81271" lon="1.21517">
        <ele>304</ele>
        <time>2020-09-19T10:26:20.750Z</time>
      </trkpt>
      <trkpt lat="45.81272" lon="1.21513">
        <ele>302</ele>
        <time>2020-09-19T10:26:21.750Z</time>
      </trkpt>
      <trkpt lat="45.81273" lon="1.2151">
        <ele>300</ele>
        <time>2020-09-19T10:26:22.750Z</time>
      </trkpt>
      <trkpt lat="45.81275" lon="1.21506">
        <ele>299</ele>
        <time>2020-09-19T10:26:23.750Z</time>
      </trkpt>
      <trkpt lat="45.81277" lon="1.21502">
        <ele>298</ele>
        <time>2020-09-19T10:26:24.750Z</time>
      </trkpt>
      <trkpt lat="45.81278" lon="1.21498">
        <ele>296</ele>
        <time>2020-09-19T10:26:25.750Z</time>
      </trkpt>
      <trkpt lat="45.8128" lon="1.21494">
        <ele>296</ele>
        <time>2020-09-19T10:26:26.750Z</time>
      </trkpt>
      <trkpt lat="45.81283" lon="1.21491">
        <ele>296</ele>
        <time>2020-09-19T10:26:27.750Z</time>
      </trkpt>
      <trkpt lat="45.81285" lon="1.21487">
        <ele>296</ele>
        <time>2020-09-19T10:26:28.750Z</time>
      </trkpt>
      <trkpt lat="45.81288" lon="1.21483">
        <ele>296</ele>
        <time>2020-09-19T10:26:29.750Z</time>
      </trkpt>
      <trkpt lat="45.8129" lon="1.21479">
        <ele>295</ele>
        <time>2020-09-19T10:26:30.750Z</time>
      </trkpt>
      <trkpt lat="45.81294" lon="1.21476">
        <ele>295</ele>
        <time>2020-09-19T10:26:31.750Z</time>
      </trkpt>
      <trkpt lat="45.81297" lon="1.21472">
        <ele>295</ele>
        <time>2020-09-19T10:26:32.750Z</time>
      </trkpt>
      <trkpt lat="45.813" lon="1.21468">
        <ele>294</ele>
        <time>2020-09-19T10:26:33.750Z</time>
      </trkpt>
      <trkpt lat="45.81303" lon="1.21464">
        <ele>294</ele>
        <time>2020-09-19T10:26:34.750Z</time>
      </trkpt>
      <trkpt lat="45.81306" lon="1.2146">
        <ele>294</ele>
        <time>2020-09-19T10:26:35.750Z</time>
      </trkpt>
      <trkpt lat="45.81309" lon="1.21457">
        <ele>294</ele>
        <time>2020-09-19T10:26:36.750Z</time>
      </trkpt>
      <trkpt lat="45.81312" lon="1.21453">
        <ele>294</ele>
        <time>2020-09-19T10:26:37.750Z</time>
      </trkpt>
      <trkpt lat="45.81315" lon="1.21449">
        <ele>293</ele>
        <time>2020-09-19T10:26:38.750Z</time>
      </trkpt>
      <trkpt lat="45.81318" lon="1.21446">
        <ele>294</ele>
        <time>2020-09-19T10:26:39.750Z</time>
      </trkpt>
      <trkpt lat="45.81322" lon="1.21442">
        <ele>295</ele>
        <time>2020-09-19T10:26:40.750Z</time>
      </trkpt>
      <trkpt lat="45.81325" lon="1.21438">
        <ele>294</ele>
        <time>2020-09-19T10:26:41.750Z</time>
      </trkpt>
      <trkpt lat="45.81328" lon="1.21435">
        <ele>294</ele>
        <time>2020-09-19T10:26:42.750Z</time>
      </trkpt>
      <trkpt lat="45.81331" lon="1.21432">
        <ele>294</ele>
        <time>2020-09-19T10:26:43.750Z</time>
      </trkpt>
      <trkpt lat="45.81335" lon="1.21429">
        <ele>293</ele>
        <time>2020-09-19T10:26:44.750Z</time>
      </trkpt>
      <trkpt lat="45.81338" lon="1.21426">
        <ele>293</ele>
        <time>2020-09-19T10:26:45.750Z</time>
      </trkpt>
      <trkpt lat="45.81342" lon="1.21424">
        <ele>293</ele>
        <time>2020-09-19T10:26:46.750Z</time>
      </trkpt>
      <trkpt lat="45.81345" lon="1.21422">
        <ele>293</ele>
        <time>2020-09-19T10:26:47.750Z</time>
      </trkpt>
      <trkpt lat="45.81349" lon="1.21419">
        <ele>293</ele>
        <time>2020-09-19T10:26:48.750Z</time>
      </trkpt>
      <trkpt lat="45.81352" lon="1.21417">
        <ele>294</ele>
        <time>2020-09-19T10:26:49.750Z</time>
      </trkpt>
      <trkpt lat="45.81355" lon="1.21415">
        <ele>294</ele>
        <time>2020-09-19T10:26:50.750Z</time>
      </trkpt>
      <trkpt lat="45.81359" lon="1.21413">
        <ele>294</ele>
        <time>2020-09-19T10:26:51.750Z</time>
      </trkpt>
      <trkpt lat="45.81362" lon="1.21412">
        <ele>294</ele>
        <time>2020-09-19T10:26:52.750Z</time>
      </trkpt>
      <trkpt lat="45.81365" lon="1.21411">
        <ele>294</ele>
        <time>2020-09-19T10:26:53.750Z</time>
      </trkpt>
      <trkpt lat="45.81369" lon="1.2141">
        <ele>295</ele>
        <time>2020-09-19T10:26:54.750Z</time>
      </trkpt>
      <trkpt lat="45.81372" lon="1.2141">
        <ele>296</ele>
        <time>2020-09-19T10:26:55.750Z</time>
      </trkpt>
      <trkpt lat="45.81376" lon="1.21409">
        <ele>296</ele>
        <time>2020-09-19T10:26:56.750Z</time>
      </trkpt>
      <trkpt lat="45.81379" lon="1.21409">
        <ele>297</ele>
        <time>2020-09-19T10:26:57.750Z</time>
      </trkpt>
      <trkpt lat="45.81383" lon="1.21409">
        <ele>296</ele>
        <time>2020-09-19T10:26:58.750Z</time>
      </trkpt>
      <trkpt lat="45.81386" lon="1.21409">
        <ele>296</ele>
        <time>2020-09-19T10:26:59.750Z</time>
      </trkpt>
      <trkpt lat="45.8139" lon="1.21408">
        <ele>296</ele>
        <time>2020-09-19T10:27:00.750Z</time>
      </trkpt>
      <trkpt lat="45.81393" lon="1.21408">
        <ele>297</ele>
        <time>2020-09-19T10:27:01.750Z</time>
      </trkpt>
      <trkpt lat="45.81396" lon="1.21408">
        <ele>297</ele>
        <time>2020-09-19T10:27:02.750Z</time>
      </trkpt>
      <trkpt lat="45.814" lon="1.21407">
        <ele>297</ele>
        <time>2020-09-19T10:27:03.750Z</time>
      </trkpt>
      <trkpt lat="45.81403" lon="1.21408">
        <ele>298</ele>
        <time>2020-09-19T10:27:04.750Z</time>
      </trkpt>
      <trkpt lat="45.81406" lon="1.21409">
        <ele>298</ele>
        <time>2020-09-19T10:27:05.750Z</time>
      </trkpt>
      <trkpt lat="45.8141" lon="1.2141">
        <ele>299</ele>
        <time>2020-09-19T10:27:06.750Z</time>
      </trkpt>
      <trkpt lat="45.81413" lon="1.21411">
        <ele>299</ele>
        <time>2020-09-19T10:27:07.750Z</time>
      </trkpt>
      <trkpt lat="45.81416" lon="1.21412">
        <ele>299</ele>
        <time>2020-09-19T10:27:08.750Z</time>
      </trkpt>
      <trkpt lat="45.81419" lon="1.21413">
        <ele>299</ele>
        <time>2020-09-19T10:27:09.750Z</time>
      </trkpt>
      <trkpt lat="45.81422" lon="1.21415">
        <ele>299</ele>
        <time>2020-09-19T10:27:10.750Z</time>
      </trkpt>
      <trkpt lat="45.81425" lon="1.21416">
        <ele>300</ele>
        <time>2020-09-19T10:27:11.750Z</time>
      </trkpt>
      <trkpt lat="45.81428" lon="1.21418">
        <ele>300</ele>
        <time>2020-09-19T10:27:12.750Z</time>
      </trkpt>
      <trkpt lat="45.81431" lon="1.21419">
        <ele>300</ele>
        <time>2020-09-19T10:27:13.750Z</time>
      </trkpt>
      <trkpt lat="45.81435" lon="1.2142">
        <ele>301</ele>
        <time>2020-09-19T10:27:14.750Z</time>
      </trkpt>
      <trkpt lat="45.81438" lon="1.21421">
        <ele>301</ele>
        <time>2020-09-19T10:27:15.750Z</time>
      </trkpt>
      <trkpt lat="45.8144" lon="1.21423">
        <ele>301</ele>
        <time>2020-09-19T10:27:16.750Z</time>
      </trkpt>
      <trkpt lat="45.81443" lon="1.21424">
        <ele>300</ele>
        <time>2020-09-19T10:27:17.750Z</time>
      </trkpt>
      <trkpt lat="45.81446" lon="1.21426">
        <ele>300</ele>
        <time>2020-09-19T10:27:18.750Z</time>
      </trkpt>
      <trkpt lat="45.81449" lon="1.21427">
        <ele>300</ele>
        <time>2020-09-19T10:27:19.750Z</time>
      </trkpt>
      <trkpt lat="45.81453" lon="1.21428">
        <ele>300</ele>
        <time>2020-09-19T10:27:20.750Z</time>
      </trkpt>
      <trkpt lat="45.81456" lon="1.2143">
        <ele>300</ele>
        <time>2020-09-19T10:27:21.750Z</time>
      </trkpt>
      <trkpt lat="45.81459" lon="1.21431">
        <ele>300</ele>
        <time>2020-09-19T10:27:22.750Z</time>
      </trkpt>
      <trkpt lat="45.81462" lon="1.21433">
        <ele>298</ele>
        <time>2020-09-19T10:27:23.750Z</time>
      </trkpt>
      <trkpt lat="45.81465" lon="1.21434">
        <ele>299</ele>
        <time>2020-09-19T10:27:24.750Z</time>
      </trkpt>
      <trkpt lat="45.81469" lon="1.21436">
        <ele>299</ele>
        <time>2020-09-19T10:27:25.750Z</time>
      </trkpt>
      <trkpt lat="45.81472" lon="1.21437">
        <ele>298</ele>
        <time>2020-09-19T10:27:26.750Z</time>
      </trkpt>
      <trkpt lat="45.81475" lon="1.21439">
        <ele>298</ele>
        <time>2020-09-19T10:27:27.750Z</time>
      </trkpt>
      <trkpt lat="45.81478" lon="1.2144">
        <ele>298</ele>
        <time>2020-09-19T10:27:28.750Z</time>
      </trkpt>
      <trkpt lat="45.81481" lon="1.21442">
        <ele>298</ele>
        <time>2020-09-19T10:27:29.750Z</time>
      </trkpt>
      <trkpt lat="45.81485" lon="1.21443">
        <ele>297</ele>
        <time>2020-09-19T10:27:30.750Z</time>
      </trkpt>
      <trkpt lat="45.81488" lon="1.21445">
        <ele>297</ele>
        <time>2020-09-19T10:27:31.750Z</time>
      </trkpt>
      <trkpt lat="45.81492" lon="1.21447">
        <ele>298</ele>
        <time>2020-09-19T10:27:32.750Z</time>
      </trkpt>
      <trkpt lat="45.81495" lon="1.21448">
        <ele>297</ele>
        <time>2020-09-19T10:27:33.750Z</time>
      </trkpt>
      <trkpt lat="45.81498" lon="1.21449">
        <ele>297</ele>
        <time>2020-09-19T10:27:34.750Z</time>
      </trkpt>
      <trkpt lat="45.81502" lon="1.2145">
        <ele>297</ele>
        <time>2020-09-19T10:27:35.750Z</time>
      </trkpt>
      <trkpt lat="45.81505" lon="1.21452">
        <ele>298</ele>
        <time>2020-09-19T10:27:36.750Z</time>
      </trkpt>
      <trkpt lat="45.81508" lon="1.21453">
        <ele>297</ele>
        <time>2020-09-19T10:27:37.750Z</time>
      </trkpt>
      <trkpt lat="45.81512" lon="1.21455">
        <ele>296</ele>
        <time>2020-09-19T10:27:38.750Z</time>
      </trkpt>
      <trkpt lat="45.81516" lon="1.21457">
        <ele>297</ele>
        <time>2020-09-19T10:27:39.750Z</time>
      </trkpt>
      <trkpt lat="45.81519" lon="1.21458">
        <ele>297</ele>
        <time>2020-09-19T10:27:40.750Z</time>
      </trkpt>
      <trkpt lat="45.81523" lon="1.2146">
        <ele>296</ele>
        <time>2020-09-19T10:27:41.750Z</time>
      </trkpt>
      <trkpt lat="45.81526" lon="1.21461">
        <ele>296</ele>
        <time>2020-09-19T10:27:42.750Z</time>
      </trkpt>
      <trkpt lat="45.81529" lon="1.21463">
        <ele>296</ele>
        <time>2020-09-19T10:27:43.750Z</time>
      </trkpt>
      <trkpt lat="45.81533" lon="1.21465">
        <ele>295</ele>
        <time>2020-09-19T10:27:44.750Z</time>
      </trkpt>
      <trkpt lat="45.81537" lon="1.21467">
        <ele>295</ele>
        <time>2020-09-19T10:27:45.750Z</time>
      </trkpt>
      <trkpt lat="45.8154" lon="1.21468">
        <ele>294</ele>
        <time>2020-09-19T10:27:46.750Z</time>
      </trkpt>
      <trkpt lat="45.81544" lon="1.2147">
        <ele>293</ele>
        <time>2020-09-19T10:27:47.750Z</time>
      </trkpt>
      <trkpt lat="45.81549" lon="1.21471">
        <ele>292</ele>
        <time>2020-09-19T10:27:48.750Z</time>
      </trkpt>
      <trkpt lat="45.81553" lon="1.21472">
        <ele>292</ele>
        <time>2020-09-19T10:27:49.750Z</time>
      </trkpt>
      <trkpt lat="45.81557" lon="1.21474">
        <ele>291</ele>
        <time>2020-09-19T10:27:50.750Z</time>
      </trkpt>
      <trkpt lat="45.81561" lon="1.21475">
        <ele>292</ele>
        <time>2020-09-19T10:27:51.750Z</time>
      </trkpt>
      <trkpt lat="45.81564" lon="1.21476">
        <ele>290</ele>
        <time>2020-09-19T10:27:52.750Z</time>
      </trkpt>
      <trkpt lat="45.81568" lon="1.21477">
        <ele>290</ele>
        <time>2020-09-19T10:27:53.750Z</time>
      </trkpt>
      <trkpt lat="45.81572" lon="1.21478">
        <ele>289</ele>
        <time>2020-09-19T10:27:54.750Z</time>
      </trkpt>
      <trkpt lat="45.81575" lon="1.21479">
        <ele>290</ele>
        <time>2020-09-19T10:27:55.750Z</time>
      </trkpt>
      <trkpt lat="45.81578" lon="1.2148">
        <ele>289</ele>
        <time>2020-09-19T10:27:56.750Z</time>
      </trkpt>
      <trkpt lat="45.81582" lon="1.21481">
        <ele>288</ele>
        <time>2020-09-19T10:27:57.750Z</time>
      </trkpt>
      <trkpt lat="45.81586" lon="1.21482">
        <ele>287</ele>
        <time>2020-09-19T10:27:58.750Z</time>
      </trkpt>
      <trkpt lat="45.81589" lon="1.21483">
        <ele>287</ele>
        <time>2020-09-19T10:27:59.750Z</time>
      </trkpt>
      <trkpt lat="45.81593" lon="1.21484">
        <ele>286</ele>
        <time>2020-09-19T10:28:00.750Z</time>
      </trkpt>
      <trkpt lat="45.81596" lon="1.21485">
        <ele>287</ele>
        <time>2020-09-19T10:28:01.750Z</time>
      </trkpt>
      <trkpt lat="45.81599" lon="1.21486">
        <ele>287</ele>
        <time>2020-09-19T10:28:02.750Z</time>
      </trkpt>
      <trkpt lat="45.81603" lon="1.21486">
        <ele>287</ele>
        <time>2020-09-19T10:28:03.750Z</time>
      </trkpt>
      <trkpt lat="45.81606" lon="1.21485">
        <ele>286</ele>
        <time>2020-09-19T10:28:04.750Z</time>
      </trkpt>
      <trkpt lat="45.81609" lon="1.21484">
        <ele>285</ele>
        <time>2020-09-19T10:28:05.750Z</time>
      </trkpt>
      <trkpt lat="45.81613" lon="1.21481">
        <ele>283</ele>
        <time>2020-09-19T10:28:06.750Z</time>
      </trkpt>
      <trkpt lat="45.81616" lon="1.21477">
        <ele>282</ele>
        <time>2020-09-19T10:28:07.750Z</time>
      </trkpt>
      <trkpt lat="45.8162" lon="1.21474">
        <ele>281</ele>
        <time>2020-09-19T10:28:08.750Z</time>
      </trkpt>
      <trkpt lat="45.81623" lon="1.2147">
        <ele>280</ele>
        <time>2020-09-19T10:28:09.750Z</time>
      </trkpt>
      <trkpt lat="45.81625" lon="1.21466">
        <ele>279</ele>
        <time>2020-09-19T10:28:10.750Z</time>
      </trkpt>
      <trkpt lat="45.81628" lon="1.21462">
        <ele>278</ele>
        <time>2020-09-19T10:28:11.750Z</time>
      </trkpt>
      <trkpt lat="45.8163" lon="1.21458">
        <ele>277</ele>
        <time>2020-09-19T10:28:12.750Z</time>
      </trkpt>
      <trkpt lat="45.81632" lon="1.21454">
        <ele>277</ele>
        <time>2020-09-19T10:28:13.750Z</time>
      </trkpt>
      <trkpt lat="45.81634" lon="1.21449">
        <ele>276</ele>
        <time>2020-09-19T10:28:14.750Z</time>
      </trkpt>
      <trkpt lat="45.81636" lon="1.21445">
        <ele>275</ele>
        <time>2020-09-19T10:28:15.750Z</time>
      </trkpt>
      <trkpt lat="45.81638" lon="1.2144">
        <ele>275</ele>
        <time>2020-09-19T10:28:16.750Z</time>
      </trkpt>
      <trkpt lat="45.81639" lon="1.21435">
        <ele>275</ele>
        <time>2020-09-19T10:28:17.750Z</time>
      </trkpt>
      <trkpt lat="45.8164" lon="1.2143">
        <ele>275</ele>
        <time>2020-09-19T10:28:18.750Z</time>
      </trkpt>
      <trkpt lat="45.8164" lon="1.21424">
        <ele>274</ele>
        <time>2020-09-19T10:28:19.750Z</time>
      </trkpt>
      <trkpt lat="45.8164" lon="1.21419">
        <ele>274</ele>
        <time>2020-09-19T10:28:20.750Z</time>
      </trkpt>
      <trkpt lat="45.81641" lon="1.21413">
        <ele>274</ele>
        <time>2020-09-19T10:28:21.750Z</time>
      </trkpt>
      <trkpt lat="45.81641" lon="1.21408">
        <ele>274</ele>
        <time>2020-09-19T10:28:22.750Z</time>
      </trkpt>
      <trkpt lat="45.81641" lon="1.21403">
        <ele>273</ele>
        <time>2020-09-19T10:28:23.750Z</time>
      </trkpt>
      <trkpt lat="45.81641" lon="1.21398">
        <ele>273</ele>
        <time>2020-09-19T10:28:24.750Z</time>
      </trkpt>
      <trkpt lat="45.8164" lon="1.21393">
        <ele>274</ele>
        <time>2020-09-19T10:28:25.750Z</time>
      </trkpt>
      <trkpt lat="45.8164" lon="1.21388">
        <ele>274</ele>
        <time>2020-09-19T10:28:26.750Z</time>
      </trkpt>
      <trkpt lat="45.81639" lon="1.21384">
        <ele>274</ele>
        <time>2020-09-19T10:28:27.750Z</time>
      </trkpt>
      <trkpt lat="45.81638" lon="1.21379">
        <ele>274</ele>
        <time>2020-09-19T10:28:28.750Z</time>
      </trkpt>
      <trkpt lat="45.81638" lon="1.21374">
        <ele>273</ele>
        <time>2020-09-19T10:28:29.750Z</time>
      </trkpt>
      <trkpt lat="45.81637" lon="1.21369">
        <ele>274</ele>
        <time>2020-09-19T10:28:30.750Z</time>
      </trkpt>
      <trkpt lat="45.81637" lon="1.21364">
        <ele>274</ele>
        <time>2020-09-19T10:28:31.750Z</time>
      </trkpt>
      <trkpt lat="45.81636" lon="1.21359">
        <ele>274</ele>
        <time>2020-09-19T10:28:32.750Z</time>
      </trkpt>
      <trkpt lat="45.81635" lon="1.21354">
        <ele>274</ele>
        <time>2020-09-19T10:28:33.750Z</time>
      </trkpt>
      <trkpt lat="45.81635" lon="1.21349">
        <ele>274</ele>
        <time>2020-09-19T10:28:34.750Z</time>
      </trkpt>
      <trkpt lat="45.81634" lon="1.21344">
        <ele>274</ele>
        <time>2020-09-19T10:28:35.750Z</time>
      </trkpt>
      <trkpt lat="45.81633" lon="1.21339">
        <ele>274</ele>
        <time>2020-09-19T10:28:36.750Z</time>
      </trkpt>
      <trkpt lat="45.81633" lon="1.21334">
        <ele>273</ele>
        <time>2020-09-19T10:28:37.750Z</time>
      </trkpt>
      <trkpt lat="45.81632" lon="1.21329">
        <ele>273</ele>
        <time>2020-09-19T10:28:38.750Z</time>
      </trkpt>
      <trkpt lat="45.81631" lon="1.21324">
        <ele>273</ele>
        <time>2020-09-19T10:28:39.750Z</time>
      </trkpt>
      <trkpt lat="45.81631" lon="1.2132">
        <ele>273</ele>
        <time>2020-09-19T10:28:40.750Z</time>
      </trkpt>
      <trkpt lat="45.8163" lon="1.21315">
        <ele>273</ele>
        <time>2020-09-19T10:28:41.750Z</time>
      </trkpt>
      <trkpt lat="45.8163" lon="1.2131">
        <ele>272</ele>
        <time>2020-09-19T10:28:42.750Z</time>
      </trkpt>
      <trkpt lat="45.81629" lon="1.21305">
        <ele>273</ele>
        <time>2020-09-19T10:28:43.750Z</time>
      </trkpt>
      <trkpt lat="45.81629" lon="1.213">
        <ele>272</ele>
        <time>2020-09-19T10:28:44.750Z</time>
      </trkpt>
      <trkpt lat="45.81628" lon="1.21295">
        <ele>272</ele>
        <time>2020-09-19T10:28:45.750Z</time>
      </trkpt>
      <trkpt lat="45.81627" lon="1.2129">
        <ele>273</ele>
        <time>2020-09-19T10:28:46.750Z</time>
      </trkpt>
      <trkpt lat="45.81626" lon="1.21286">
        <ele>273</ele>
        <time>2020-09-19T10:28:47.750Z</time>
      </trkpt>
      <trkpt lat="45.81626" lon="1.21281">
        <ele>272</ele>
        <time>2020-09-19T10:28:48.750Z</time>
      </trkpt>
      <trkpt lat="45.81625" lon="1.21276">
        <ele>273</ele>
        <time>2020-09-19T10:28:49.750Z</time>
      </trkpt>
      <trkpt lat="45.81624" lon="1.21272">
        <ele>272</ele>
        <time>2020-09-19T10:28:50.750Z</time>
      </trkpt>
      <trkpt lat="45.81623" lon="1.21267">
        <ele>272</ele>
        <time>2020-09-19T10:28:51.750Z</time>
      </trkpt>
      <trkpt lat="45.81623" lon="1.21263">
        <ele>271</ele>
        <time>2020-09-19T10:28:52.750Z</time>
      </trkpt>
      <trkpt lat="45.81622" lon="1.21258">
        <ele>272</ele>
        <time>2020-09-19T10:28:53.750Z</time>
      </trkpt>
      <trkpt lat="45.81621" lon="1.21253">
        <ele>271</ele>
        <time>2020-09-19T10:28:54.750Z</time>
      </trkpt>
      <trkpt lat="45.81621" lon="1.21248">
        <ele>272</ele>
        <time>2020-09-19T10:28:55.750Z</time>
      </trkpt>
      <trkpt lat="45.81621" lon="1.21243">
        <ele>271</ele>
        <time>2020-09-19T10:28:56.750Z</time>
      </trkpt>
      <trkpt lat="45.8162" lon="1.21238">
        <ele>271</ele>
        <time>2020-09-19T10:28:57.750Z</time>
      </trkpt>
      <trkpt lat="45.8162" lon="1.21233">
        <ele>271</ele>
        <time>2020-09-19T10:28:58.750Z</time>
      </trkpt>
      <trkpt lat="45.81619" lon="1.21229">
        <ele>271</ele>
        <time>2020-09-19T10:28:59.750Z</time>
      </trkpt>
      <trkpt lat="45.81618" lon="1.21224">
        <ele>271</ele>
        <time>2020-09-19T10:29:00.750Z</time>
      </trkpt>
      <trkpt lat="45.81617" lon="1.2122">
        <ele>272</ele>
        <time>2020-09-19T10:29:01.750Z</time>
      </trkpt>
      <trkpt lat="45.81616" lon="1.21215">
        <ele>273</ele>
        <time>2020-09-19T10:29:02.750Z</time>
      </trkpt>
      <trkpt lat="45.81615" lon="1.2121">
        <ele>274</ele>
        <time>2020-09-19T10:29:03.750Z</time>
      </trkpt>
      <trkpt lat="45.81614" lon="1.21206">
        <ele>275</ele>
        <time>2020-09-19T10:29:04.750Z</time>
      </trkpt>
      <trkpt lat="45.81613" lon="1.21201">
        <ele>276</ele>
        <time>2020-09-19T10:29:05.750Z</time>
      </trkpt>
      <trkpt lat="45.81612" lon="1.21196">
        <ele>278</ele>
        <time>2020-09-19T10:29:06.750Z</time>
      </trkpt>
      <trkpt lat="45.81611" lon="1.21191">
        <ele>278</ele>
        <time>2020-09-19T10:29:07.750Z</time>
      </trkpt>
      <trkpt lat="45.8161" lon="1.21187">
        <ele>278</ele>
        <time>2020-09-19T10:29:08.750Z</time>
      </trkpt>
      <trkpt lat="45.81609" lon="1.21182">
        <ele>278</ele>
        <time>2020-09-19T10:29:09.750Z</time>
      </trkpt>
      <trkpt lat="45.81608" lon="1.21177">
        <ele>277</ele>
        <time>2020-09-19T10:29:10.750Z</time>
      </trkpt>
      <trkpt lat="45.81608" lon="1.21172">
        <ele>278</ele>
        <time>2020-09-19T10:29:11.750Z</time>
      </trkpt>
      <trkpt lat="45.81607" lon="1.21168">
        <ele>278</ele>
        <time>2020-09-19T10:29:12.750Z</time>
      </trkpt>
      <trkpt lat="45.81606" lon="1.21163">
        <ele>277</ele>
        <time>2020-09-19T10:29:13.750Z</time>
      </trkpt>
      <trkpt lat="45.81605" lon="1.21159">
        <ele>277</ele>
        <time>2020-09-19T10:29:14.750Z</time>
      </trkpt>
      <trkpt lat="45.81604" lon="1.21154">
        <ele>277</ele>
        <time>2020-09-19T10:29:15.750Z</time>
      </trkpt>
      <trkpt lat="45.81604" lon="1.21149">
        <ele>278</ele>
        <time>2020-09-19T10:29:16.750Z</time>
      </trkpt>
      <trkpt lat="45.81603" lon="1.21144">
        <ele>278</ele>
        <time>2020-09-19T10:29:17.750Z</time>
      </trkpt>
      <trkpt lat="45.81602" lon="1.2114">
        <ele>278</ele>
        <time>2020-09-19T10:29:18.750Z</time>
      </trkpt>
      <trkpt lat="45.81602" lon="1.21135">
        <ele>279</ele>
        <time>2020-09-19T10:29:19.750Z</time>
      </trkpt>
      <trkpt lat="45.81601" lon="1.21131">
        <ele>279</ele>
        <time>2020-09-19T10:29:20.750Z</time>
      </trkpt>
      <trkpt lat="45.816" lon="1.21126">
        <ele>279</ele>
        <time>2020-09-19T10:29:21.750Z</time>
      </trkpt>
      <trkpt lat="45.816" lon="1.21122">
        <ele>279</ele>
        <time>2020-09-19T10:29:22.750Z</time>
      </trkpt>
      <trkpt lat="45.81599" lon="1.21117">
        <ele>279</ele>
        <time>2020-09-19T10:29:23.750Z</time>
      </trkpt>
      <trkpt lat="45.81599" lon="1.21113">
        <ele>279</ele>
        <time>2020-09-19T10:29:24.750Z</time>
      </trkpt>
      <trkpt lat="45.81598" lon="1.21108">
        <ele>279</ele>
        <time>2020-09-19T10:29:25.750Z</time>
      </trkpt>
      <trkpt lat="45.81598" lon="1.21104">
        <ele>278</ele>
        <time>2020-09-19T10:29:26.750Z</time>
      </trkpt>
      <trkpt lat="45.81598" lon="1.21099">
        <ele>278</ele>
        <time>2020-09-19T10:29:27.750Z</time>
      </trkpt>
      <trkpt lat="45.81598" lon="1.21094">
        <ele>277</ele>
        <time>2020-09-19T10:29:28.750Z</time>
      </trkpt>
      <trkpt lat="45.81598" lon="1.2109">
        <ele>278</ele>
        <time>2020-09-19T10:29:29.750Z</time>
      </trkpt>
      <trkpt lat="45.81597" lon="1.21085">
        <ele>278</ele>
        <time>2020-09-19T10:29:30.750Z</time>
      </trkpt>
      <trkpt lat="45.81597" lon="1.2108">
        <ele>278</ele>
        <time>2020-09-19T10:29:31.750Z</time>
      </trkpt>
      <trkpt lat="45.81596" lon="1.21075">
        <ele>278</ele>
        <time>2020-09-19T10:29:32.750Z</time>
      </trkpt>
      <trkpt lat="45.81596" lon="1.2107">
        <ele>279</ele>
        <time>2020-09-19T10:29:33.750Z</time>
      </trkpt>
      <trkpt lat="45.81596" lon="1.21065">
        <ele>278</ele>
        <time>2020-09-19T10:29:34.750Z</time>
      </trkpt>
      <trkpt lat="45.81596" lon="1.2106">
        <ele>278</ele>
        <time>2020-09-19T10:29:35.750Z</time>
      </trkpt>
      <trkpt lat="45.81596" lon="1.21055">
        <ele>278</ele>
        <time>2020-09-19T10:29:36.750Z</time>
      </trkpt>
      <trkpt lat="45.81597" lon="1.2105">
        <ele>277</ele>
        <time>2020-09-19T10:29:37.750Z</time>
      </trkpt>
      <trkpt lat="45.81597" lon="1.21045">
        <ele>276</ele>
        <time>2020-09-19T10:29:38.750Z</time>
      </trkpt>
      <trkpt lat="45.81598" lon="1.2104">
        <ele>276</ele>
        <time>2020-09-19T10:29:39.750Z</time>
      </trkpt>
      <trkpt lat="45.81599" lon="1.21035">
        <ele>277</ele>
        <time>2020-09-19T10:29:40.750Z</time>
      </trkpt>
      <trkpt lat="45.816" lon="1.2103">
        <ele>277</ele>
        <time>2020-09-19T10:29:41.750Z</time>
      </trkpt>
      <trkpt lat="45.816" lon="1.21025">
        <ele>277</ele>
        <time>2020-09-19T10:29:42.750Z</time>
      </trkpt>
      <trkpt lat="45.81602" lon="1.2102">
        <ele>276</ele>
        <time>2020-09-19T10:29:43.750Z</time>
      </trkpt>
      <trkpt lat="45.81603" lon="1.21016">
        <ele>276</ele>
        <time>2020-09-19T10:29:44.750Z</time>
      </trkpt>
      <trkpt lat="45.81605" lon="1.21011">
        <ele>275</ele>
        <time>2020-09-19T10:29:45.750Z</time>
      </trkpt>
      <trkpt lat="45.81607" lon="1.21007">
        <ele>276</ele>
        <time>2020-09-19T10:29:46.750Z</time>
      </trkpt>
      <trkpt lat="45.81609" lon="1.21004">
        <ele>276</ele>
        <time>2020-09-19T10:29:47.750Z</time>
      </trkpt>
      <trkpt lat="45.81612" lon="1.21001">
        <ele>276</ele>
        <time>2020-09-19T10:29:48.750Z</time>
      </trkpt>
      <trkpt lat="45.81614" lon="1.20999">
        <ele>275</ele>
        <time>2020-09-19T10:29:49.750Z</time>
      </trkpt>
      <trkpt lat="45.81617" lon="1.20996">
        <ele>275</ele>
        <time>2020-09-19T10:29:50.750Z</time>
      </trkpt>
      <trkpt lat="45.8162" lon="1.20993">
        <ele>274</ele>
        <time>2020-09-19T10:29:51.750Z</time>
      </trkpt>
      <trkpt lat="45.81623" lon="1.20989">
        <ele>275</ele>
        <time>2020-09-19T10:29:52.750Z</time>
      </trkpt>
      <trkpt lat="45.81625" lon="1.20985">
        <ele>274</ele>
        <time>2020-09-19T10:29:53.750Z</time>
      </trkpt>
      <trkpt lat="45.81627" lon="1.2098">
        <ele>274</ele>
        <time>2020-09-19T10:29:54.750Z</time>
      </trkpt>
      <trkpt lat="45.81629" lon="1.20976">
        <ele>273</ele>
        <time>2020-09-19T10:29:55.750Z</time>
      </trkpt>
      <trkpt lat="45.81631" lon="1.20972">
        <ele>273</ele>
        <time>2020-09-19T10:29:56.750Z</time>
      </trkpt>
      <trkpt lat="45.81632" lon="1.20967">
        <ele>273</ele>
        <time>2020-09-19T10:29:57.750Z</time>
      </trkpt>
      <trkpt lat="45.81634" lon="1.20962">
        <ele>273</ele>
        <time>2020-09-19T10:29:58.750Z</time>
      </trkpt>
      <trkpt lat="45.81637" lon="1.20958">
        <ele>272</ele>
        <time>2020-09-19T10:29:59.750Z</time>
      </trkpt>
      <trkpt lat="45.81639" lon="1.20954">
        <ele>271</ele>
        <time>2020-09-19T10:30:00.750Z</time>
      </trkpt>
      <trkpt lat="45.81641" lon="1.2095">
        <ele>271</ele>
        <time>2020-09-19T10:30:01.750Z</time>
      </trkpt>
      <trkpt lat="45.81644" lon="1.20946">
        <ele>270</ele>
        <time>2020-09-19T10:30:02.750Z</time>
      </trkpt>
      <trkpt lat="45.81646" lon="1.20943">
        <ele>271</ele>
        <time>2020-09-19T10:30:03.750Z</time>
      </trkpt>
      <trkpt lat="45.81649" lon="1.2094">
        <ele>271</ele>
        <time>2020-09-19T10:30:04.750Z</time>
      </trkpt>
      <trkpt lat="45.81652" lon="1.20937">
        <ele>269</ele>
        <time>2020-09-19T10:30:05.750Z</time>
      </trkpt>
      <trkpt lat="45.81655" lon="1.20935">
        <ele>269</ele>
        <time>2020-09-19T10:30:06.750Z</time>
      </trkpt>
      <trkpt lat="45.81659" lon="1.20933">
        <ele>268</ele>
        <time>2020-09-19T10:30:07.750Z</time>
      </trkpt>
      <trkpt lat="45.81662" lon="1.20931">
        <ele>267</ele>
        <time>2020-09-19T10:30:08.750Z</time>
      </trkpt>
      <trkpt lat="45.81666" lon="1.2093">
        <ele>267</ele>
        <time>2020-09-19T10:30:09.750Z</time>
      </trkpt>
      <trkpt lat="45.8167" lon="1.20929">
        <ele>267</ele>
        <time>2020-09-19T10:30:10.750Z</time>
      </trkpt>
      <trkpt lat="45.81673" lon="1.20928">
        <ele>267</ele>
        <time>2020-09-19T10:30:11.750Z</time>
      </trkpt>
      <trkpt lat="45.81677" lon="1.20928">
        <ele>267</ele>
        <time>2020-09-19T10:30:12.750Z</time>
      </trkpt>
      <trkpt lat="45.8168" lon="1.20928">
        <ele>267</ele>
        <time>2020-09-19T10:30:13.750Z</time>
      </trkpt>
      <trkpt lat="45.81684" lon="1.20928">
        <ele>267</ele>
        <time>2020-09-19T10:30:14.750Z</time>
      </trkpt>
      <trkpt lat="45.81687" lon="1.20928">
        <ele>267</ele>
        <time>2020-09-19T10:30:15.750Z</time>
      </trkpt>
      <trkpt lat="45.81691" lon="1.20927">
        <ele>266</ele>
        <time>2020-09-19T10:30:16.750Z</time>
      </trkpt>
      <trkpt lat="45.81695" lon="1.20927">
        <ele>266</ele>
        <time>2020-09-19T10:30:17.750Z</time>
      </trkpt>
      <trkpt lat="45.81699" lon="1.20927">
        <ele>266</ele>
        <time>2020-09-19T10:30:18.750Z</time>
      </trkpt>
      <trkpt lat="45.81703" lon="1.20927">
        <ele>266</ele>
        <time>2020-09-19T10:30:19.750Z</time>
      </trkpt>
      <trkpt lat="45.81707" lon="1.20926">
        <ele>266</ele>
        <time>2020-09-19T10:30:20.750Z</time>
      </trkpt>
      <trkpt lat="45.8171" lon="1.20926">
        <ele>266</ele>
        <time>2020-09-19T10:30:21.750Z</time>
      </trkpt>
      <trkpt lat="45.81714" lon="1.20926">
        <ele>266</ele>
        <time>2020-09-19T10:30:22.750Z</time>
      </trkpt>
      <trkpt lat="45.81717" lon="1.20925">
        <ele>266</ele>
        <time>2020-09-19T10:30:23.750Z</time>
      </trkpt>
      <trkpt lat="45.81721" lon="1.20925">
        <ele>265</ele>
        <time>2020-09-19T10:30:24.750Z</time>
      </trkpt>
      <trkpt lat="45.81724" lon="1.20925">
        <ele>265</ele>
        <time>2020-09-19T10:30:25.750Z</time>
      </trkpt>
      <trkpt lat="45.81728" lon="1.20924">
        <ele>264</ele>
        <time>2020-09-19T10:30:26.750Z</time>
      </trkpt>
      <trkpt lat="45.81731" lon="1.20924">
        <ele>265</ele>
        <time>2020-09-19T10:30:27.750Z</time>
      </trkpt>
      <trkpt lat="45.81735" lon="1.20924">
        <ele>265</ele>
        <time>2020-09-19T10:30:28.750Z</time>
      </trkpt>
      <trkpt lat="45.81739" lon="1.20925">
        <ele>265</ele>
        <time>2020-09-19T10:30:29.750Z</time>
      </trkpt>
      <trkpt lat="45.81743" lon="1.20925">
        <ele>265</ele>
        <time>2020-09-19T10:30:30.750Z</time>
      </trkpt>
      <trkpt lat="45.81746" lon="1.20924">
        <ele>265</ele>
        <time>2020-09-19T10:30:31.750Z</time>
      </trkpt>
      <trkpt lat="45.8175" lon="1.20924">
        <ele>265</ele>
        <time>2020-09-19T10:30:32.750Z</time>
      </trkpt>
      <trkpt lat="45.81753" lon="1.20924">
        <ele>265</ele>
        <time>2020-09-19T10:30:33.750Z</time>
      </trkpt>
      <trkpt lat="45.81757" lon="1.20924">
        <ele>265</ele>
        <time>2020-09-19T10:30:34.750Z</time>
      </trkpt>
      <trkpt lat="45.8176" lon="1.20924">
        <ele>264</ele>
        <time>2020-09-19T10:30:35.750Z</time>
      </trkpt>
      <trkpt lat="45.81764" lon="1.20924">
        <ele>264</ele>
        <time>2020-09-19T10:30:36.750Z</time>
      </trkpt>
      <trkpt lat="45.81767" lon="1.20923">
        <ele>264</ele>
        <time>2020-09-19T10:30:37.750Z</time>
      </trkpt>
      <trkpt lat="45.8177" lon="1.20923">
        <ele>265</ele>
        <time>2020-09-19T10:30:38.750Z</time>
      </trkpt>
      <trkpt lat="45.81774" lon="1.20923">
        <ele>265</ele>
        <time>2020-09-19T10:30:39.750Z</time>
      </trkpt>
      <trkpt lat="45.81777" lon="1.20923">
        <ele>265</ele>
        <time>2020-09-19T10:30:40.750Z</time>
      </trkpt>
      <trkpt lat="45.8178" lon="1.20922">
        <ele>264</ele>
        <time>2020-09-19T10:30:41.750Z</time>
      </trkpt>
      <trkpt lat="45.81784" lon="1.20922">
        <ele>263</ele>
        <time>2020-09-19T10:30:42.750Z</time>
      </trkpt>
      <trkpt lat="45.81787" lon="1.20921">
        <ele>264</ele>
        <time>2020-09-19T10:30:43.750Z</time>
      </trkpt>
      <trkpt lat="45.81791" lon="1.2092">
        <ele>264</ele>
        <time>2020-09-19T10:30:44.750Z</time>
      </trkpt>
      <trkpt lat="45.81794" lon="1.20919">
        <ele>264</ele>
        <time>2020-09-19T10:30:45.750Z</time>
      </trkpt>
      <trkpt lat="45.81798" lon="1.20919">
        <ele>263</ele>
        <time>2020-09-19T10:30:46.750Z</time>
      </trkpt>
      <trkpt lat="45.81801" lon="1.20917">
        <ele>262</ele>
        <time>2020-09-19T10:30:47.750Z</time>
      </trkpt>
      <trkpt lat="45.81805" lon="1.20917">
        <ele>262</ele>
        <time>2020-09-19T10:30:48.750Z</time>
      </trkpt>
      <trkpt lat="45.81808" lon="1.20917">
        <ele>261</ele>
        <time>2020-09-19T10:30:49.750Z</time>
      </trkpt>
      <trkpt lat="45.81812" lon="1.20917">
        <ele>261</ele>
        <time>2020-09-19T10:30:50.750Z</time>
      </trkpt>
      <trkpt lat="45.81815" lon="1.20918">
        <ele>260</ele>
        <time>2020-09-19T10:30:51.750Z</time>
      </trkpt>
      <trkpt lat="45.81819" lon="1.20919">
        <ele>260</ele>
        <time>2020-09-19T10:30:52.750Z</time>
      </trkpt>
      <trkpt lat="45.81822" lon="1.20919">
        <ele>260</ele>
        <time>2020-09-19T10:30:53.750Z</time>
      </trkpt>
      <trkpt lat="45.81826" lon="1.20919">
        <ele>260</ele>
        <time>2020-09-19T10:30:54.750Z</time>
      </trkpt>
      <trkpt lat="45.8183" lon="1.20919">
        <ele>259</ele>
        <time>2020-09-19T10:30:55.750Z</time>
      </trkpt>
      <trkpt lat="45.81833" lon="1.20919">
        <ele>260</ele>
        <time>2020-09-19T10:30:56.750Z</time>
      </trkpt>
      <trkpt lat="45.81837" lon="1.20919">
        <ele>259</ele>
        <time>2020-09-19T10:30:57.750Z</time>
      </trkpt>
      <trkpt lat="45.8184" lon="1.20919">
        <ele>258</ele>
        <time>2020-09-19T10:30:58.750Z</time>
      </trkpt>
      <trkpt lat="45.81844" lon="1.20919">
        <ele>257</ele>
        <time>2020-09-19T10:30:59.750Z</time>
      </trkpt>
      <trkpt lat="45.81847" lon="1.20919">
        <ele>257</ele>
        <time>2020-09-19T10:31:00.750Z</time>
      </trkpt>
      <trkpt lat="45.8185" lon="1.20919">
        <ele>257</ele>
        <time>2020-09-19T10:31:01.750Z</time>
      </trkpt>
      <trkpt lat="45.81854" lon="1.20919">
        <ele>256</ele>
        <time>2020-09-19T10:31:02.750Z</time>
      </trkpt>
      <trkpt lat="45.81857" lon="1.20919">
        <ele>255</ele>
        <time>2020-09-19T10:31:03.750Z</time>
      </trkpt>
      <trkpt lat="45.8186" lon="1.20918">
        <ele>255</ele>
        <time>2020-09-19T10:31:04.750Z</time>
      </trkpt>
      <trkpt lat="45.81864" lon="1.20918">
        <ele>254</ele>
        <time>2020-09-19T10:31:05.750Z</time>
      </trkpt>
      <trkpt lat="45.81867" lon="1.20917">
        <ele>254</ele>
        <time>2020-09-19T10:31:06.750Z</time>
      </trkpt>
      <trkpt lat="45.81871" lon="1.20917">
        <ele>254</ele>
        <time>2020-09-19T10:31:07.750Z</time>
      </trkpt>
      <trkpt lat="45.81875" lon="1.20917">
        <ele>253</ele>
        <time>2020-09-19T10:31:08.750Z</time>
      </trkpt>
      <trkpt lat="45.81879" lon="1.20916">
        <ele>253</ele>
        <time>2020-09-19T10:31:09.750Z</time>
      </trkpt>
      <trkpt lat="45.81882" lon="1.20916">
        <ele>253</ele>
        <time>2020-09-19T10:31:10.750Z</time>
      </trkpt>
      <trkpt lat="45.81886" lon="1.20915">
        <ele>253</ele>
        <time>2020-09-19T10:31:11.750Z</time>
      </trkpt>
      <trkpt lat="45.81889" lon="1.20914">
        <ele>254</ele>
        <time>2020-09-19T10:31:12.750Z</time>
      </trkpt>
      <trkpt lat="45.81893" lon="1.20914">
        <ele>255</ele>
        <time>2020-09-19T10:31:13.750Z</time>
      </trkpt>
      <trkpt lat="45.81896" lon="1.20913">
        <ele>254</ele>
        <time>2020-09-19T10:31:14.750Z</time>
      </trkpt>
      <trkpt lat="45.819" lon="1.20913">
        <ele>253</ele>
        <time>2020-09-19T10:31:15.750Z</time>
      </trkpt>
      <trkpt lat="45.81903" lon="1.20913">
        <ele>253</ele>
        <time>2020-09-19T10:31:16.750Z</time>
      </trkpt>
      <trkpt lat="45.81907" lon="1.20912">
        <ele>253</ele>
        <time>2020-09-19T10:31:17.750Z</time>
      </trkpt>
      <trkpt lat="45.8191" lon="1.20911">
        <ele>254</ele>
        <time>2020-09-19T10:31:18.750Z</time>
      </trkpt>
      <trkpt lat="45.81914" lon="1.20911">
        <ele>254</ele>
        <time>2020-09-19T10:31:19.750Z</time>
      </trkpt>
      <trkpt lat="45.81917" lon="1.2091">
        <ele>254</ele>
        <time>2020-09-19T10:31:20.750Z</time>
      </trkpt>
      <trkpt lat="45.81921" lon="1.2091">
        <ele>255</ele>
        <time>2020-09-19T10:31:21.750Z</time>
      </trkpt>
      <trkpt lat="45.81924" lon="1.20909">
        <ele>254</ele>
        <time>2020-09-19T10:31:22.750Z</time>
      </trkpt>
      <trkpt lat="45.81928" lon="1.20909">
        <ele>255</ele>
        <time>2020-09-19T10:31:23.750Z</time>
      </trkpt>
      <trkpt lat="45.81932" lon="1.20909">
        <ele>255</ele>
        <time>2020-09-19T10:31:24.750Z</time>
      </trkpt>
      <trkpt lat="45.81935" lon="1.20908">
        <ele>255</ele>
        <time>2020-09-19T10:31:25.750Z</time>
      </trkpt>
      <trkpt lat="45.81939" lon="1.20908">
        <ele>256</ele>
        <time>2020-09-19T10:31:26.750Z</time>
      </trkpt>
      <trkpt lat="45.81943" lon="1.20908">
        <ele>255</ele>
        <time>2020-09-19T10:31:27.750Z</time>
      </trkpt>
      <trkpt lat="45.81946" lon="1.20908">
        <ele>255</ele>
        <time>2020-09-19T10:31:28.750Z</time>
      </trkpt>
      <trkpt lat="45.8195" lon="1.20908">
        <ele>254</ele>
        <time>2020-09-19T10:31:29.750Z</time>
      </trkpt>
      <trkpt lat="45.81953" lon="1.20909">
        <ele>253</ele>
        <time>2020-09-19T10:31:30.750Z</time>
      </trkpt>
      <trkpt lat="45.81957" lon="1.20908">
        <ele>253</ele>
        <time>2020-09-19T10:31:31.750Z</time>
      </trkpt>
      <trkpt lat="45.8196" lon="1.20908">
        <ele>252</ele>
        <time>2020-09-19T10:31:32.750Z</time>
      </trkpt>
      <trkpt lat="45.81964" lon="1.20908">
        <ele>252</ele>
        <time>2020-09-19T10:31:33.750Z</time>
      </trkpt>
      <trkpt lat="45.81967" lon="1.20908">
        <ele>251</ele>
        <time>2020-09-19T10:31:34.750Z</time>
      </trkpt>
      <trkpt lat="45.81971" lon="1.20907">
        <ele>251</ele>
        <time>2020-09-19T10:31:35.750Z</time>
      </trkpt>
      <trkpt lat="45.81974" lon="1.20908">
        <ele>251</ele>
        <time>2020-09-19T10:31:36.750Z</time>
      </trkpt>
      <trkpt lat="45.81977" lon="1.20908">
        <ele>250</ele>
        <time>2020-09-19T10:31:37.750Z</time>
      </trkpt>
      <trkpt lat="45.81981" lon="1.20908">
        <ele>249</ele>
        <time>2020-09-19T10:31:38.750Z</time>
      </trkpt>
      <trkpt lat="45.81984" lon="1.20907">
        <ele>249</ele>
        <time>2020-09-19T10:31:39.750Z</time>
      </trkpt>
      <trkpt lat="45.81987" lon="1.20907">
        <ele>248</ele>
        <time>2020-09-19T10:31:40.750Z</time>
      </trkpt>
      <trkpt lat="45.8199" lon="1.20906">
        <ele>248</ele>
        <time>2020-09-19T10:31:41.750Z</time>
      </trkpt>
      <trkpt lat="45.81993" lon="1.20905">
        <ele>248</ele>
        <time>2020-09-19T10:31:42.750Z</time>
      </trkpt>
      <trkpt lat="45.81996" lon="1.20905">
        <ele>247</ele>
        <time>2020-09-19T10:31:43.750Z</time>
      </trkpt>
      <trkpt lat="45.81998" lon="1.20905">
        <ele>247</ele>
        <time>2020-09-19T10:31:44.750Z</time>
      </trkpt>
      <trkpt lat="45.82001" lon="1.20905">
        <ele>246</ele>
        <time>2020-09-19T10:31:45.750Z</time>
      </trkpt>
      <trkpt lat="45.82003" lon="1.20904">
        <ele>245</ele>
        <time>2020-09-19T10:31:46.750Z</time>
      </trkpt>
      <trkpt lat="45.82005" lon="1.20903">
        <ele>243</ele>
        <time>2020-09-19T10:31:47.750Z</time>
      </trkpt>
      <trkpt lat="45.82005" lon="1.20903">
        <ele>241</ele>
        <time>2020-09-19T10:31:48.750Z</time>
      </trkpt>
      <trkpt lat="45.82005" lon="1.20904">
        <ele>240</ele>
        <time>2020-09-19T10:31:49.750Z</time>
      </trkpt>
      <trkpt lat="45.82003" lon="1.20906">
        <ele>239</ele>
        <time>2020-09-19T10:31:50.750Z</time>
      </trkpt>
      <trkpt lat="45.82002" lon="1.20907">
        <ele>239</ele>
        <time>2020-09-19T10:31:51.750Z</time>
      </trkpt>
      <trkpt lat="45.81999" lon="1.20908">
        <ele>238</ele>
        <time>2020-09-19T10:31:52.750Z</time>
      </trkpt>
      <trkpt lat="45.81996" lon="1.20909">
        <ele>238</ele>
        <time>2020-09-19T10:31:53.750Z</time>
      </trkpt>
      <trkpt lat="45.81993" lon="1.20909">
        <ele>238</ele>
        <time>2020-09-19T10:31:54.750Z</time>
      </trkpt>
      <trkpt lat="45.8199" lon="1.20909">
        <ele>237</ele>
        <time>2020-09-19T10:31:55.750Z</time>
      </trkpt>
      <trkpt lat="45.81987" lon="1.20909">
        <ele>237</ele>
        <time>2020-09-19T10:31:56.750Z</time>
      </trkpt>
      <trkpt lat="45.81984" lon="1.20909">
        <ele>237</ele>
        <time>2020-09-19T10:31:57.750Z</time>
      </trkpt>
      <trkpt lat="45.81981" lon="1.20909">
        <ele>237</ele>
        <time>2020-09-19T10:31:58.750Z</time>
      </trkpt>
      <trkpt lat="45.81978" lon="1.2091">
        <ele>238</ele>
        <time>2020-09-19T10:31:59.750Z</time>
      </trkpt>
      <trkpt lat="45.81975" lon="1.2091">
        <ele>238</ele>
        <time>2020-09-19T10:32:00.750Z</time>
      </trkpt>
      <trkpt lat="45.81972" lon="1.20911">
        <ele>238</ele>
        <time>2020-09-19T10:32:01.750Z</time>
      </trkpt>
      <trkpt lat="45.81969" lon="1.20911">
        <ele>239</ele>
        <time>2020-09-19T10:32:02.750Z</time>
      </trkpt>
      <trkpt lat="45.81966" lon="1.20911">
        <ele>239</ele>
        <time>2020-09-19T10:32:03.750Z</time>
      </trkpt>
      <trkpt lat="45.81963" lon="1.20911">
        <ele>240</ele>
        <time>2020-09-19T10:32:04.750Z</time>
      </trkpt>
      <trkpt lat="45.8196" lon="1.20912">
        <ele>240</ele>
        <time>2020-09-19T10:32:05.750Z</time>
      </trkpt>
      <trkpt lat="45.81957" lon="1.20912">
        <ele>239</ele>
        <time>2020-09-19T10:32:06.750Z</time>
      </trkpt>
      <trkpt lat="45.81954" lon="1.20913">
        <ele>240</ele>
        <time>2020-09-19T10:32:07.750Z</time>
      </trkpt>
      <trkpt lat="45.81951" lon="1.20914">
        <ele>240</ele>
        <time>2020-09-19T10:32:08.750Z</time>
      </trkpt>
      <trkpt lat="45.81948" lon="1.20914">
        <ele>240</ele>
        <time>2020-09-19T10:32:09.750Z</time>
      </trkpt>
      <trkpt lat="45.81945" lon="1.20915">
        <ele>241</ele>
        <time>2020-09-19T10:32:10.750Z</time>
      </trkpt>
      <trkpt lat="45.81941" lon="1.20915">
        <ele>241</ele>
        <time>2020-09-19T10:32:11.750Z</time>
      </trkpt>
      <trkpt lat="45.81938" lon="1.20915">
        <ele>240</ele>
        <time>2020-09-19T10:32:12.750Z</time>
      </trkpt>
      <trkpt lat="45.81934" lon="1.20914">
        <ele>240</ele>
        <time>2020-09-19T10:32:13.750Z</time>
      </trkpt>
      <trkpt lat="45.81931" lon="1.20915">
        <ele>240</ele>
        <time>2020-09-19T10:32:14.750Z</time>
      </trkpt>
      <trkpt lat="45.81928" lon="1.20915">
        <ele>240</ele>
        <time>2020-09-19T10:32:15.750Z</time>
      </trkpt>
      <trkpt lat="45.81925" lon="1.20915">
        <ele>240</ele>
        <time>2020-09-19T10:32:16.750Z</time>
      </trkpt>
      <trkpt lat="45.81922" lon="1.20916">
        <ele>241</ele>
        <time>2020-09-19T10:32:17.750Z</time>
      </trkpt>
      <trkpt lat="45.81918" lon="1.20916">
        <ele>241</ele>
        <time>2020-09-19T10:32:18.750Z</time>
      </trkpt>
      <trkpt lat="45.81915" lon="1.20917">
        <ele>241</ele>
        <time>2020-09-19T10:32:19.750Z</time>
      </trkpt>
      <trkpt lat="45.81912" lon="1.20918">
        <ele>242</ele>
        <time>2020-09-19T10:32:20.750Z</time>
      </trkpt>
      <trkpt lat="45.81908" lon="1.20919">
        <ele>242</ele>
        <time>2020-09-19T10:32:21.750Z</time>
      </trkpt>
      <trkpt lat="45.81905" lon="1.2092">
        <ele>242</ele>
        <time>2020-09-19T10:32:22.750Z</time>
      </trkpt>
      <trkpt lat="45.81902" lon="1.2092">
        <ele>242</ele>
        <time>2020-09-19T10:32:23.750Z</time>
      </trkpt>
      <trkpt lat="45.81899" lon="1.2092">
        <ele>243</ele>
        <time>2020-09-19T10:32:24.750Z</time>
      </trkpt>
      <trkpt lat="45.81896" lon="1.2092">
        <ele>243</ele>
        <time>2020-09-19T10:32:25.750Z</time>
      </trkpt>
      <trkpt lat="45.81892" lon="1.20921">
        <ele>243</ele>
        <time>2020-09-19T10:32:26.750Z</time>
      </trkpt>
      <trkpt lat="45.81889" lon="1.20921">
        <ele>243</ele>
        <time>2020-09-19T10:32:27.750Z</time>
      </trkpt>
      <trkpt lat="45.81886" lon="1.20922">
        <ele>243</ele>
        <time>2020-09-19T10:32:28.750Z</time>
      </trkpt>
      <trkpt lat="45.81883" lon="1.20922">
        <ele>244</ele>
        <time>2020-09-19T10:32:29.750Z</time>
      </trkpt>
      <trkpt lat="45.8188" lon="1.20922">
        <ele>244</ele>
        <time>2020-09-19T10:32:30.750Z</time>
      </trkpt>
      <trkpt lat="45.81877" lon="1.20923">
        <ele>244</ele>
        <time>2020-09-19T10:32:31.750Z</time>
      </trkpt>
      <trkpt lat="45.81874" lon="1.20923">
        <ele>244</ele>
        <time>2020-09-19T10:32:32.750Z</time>
      </trkpt>
      <trkpt lat="45.81871" lon="1.20924">
        <ele>244</ele>
        <time>2020-09-19T10:32:33.750Z</time>
      </trkpt>
      <trkpt lat="45.81868" lon="1.20924">
        <ele>245</ele>
        <time>2020-09-19T10:32:34.750Z</time>
      </trkpt>
      <trkpt lat="45.81865" lon="1.20925">
        <ele>245</ele>
        <time>2020-09-19T10:32:35.750Z</time>
      </trkpt>
      <trkpt lat="45.81862" lon="1.20925">
        <ele>245</ele>
        <time>2020-09-19T10:32:36.750Z</time>
      </trkpt>
      <trkpt lat="45.81859" lon="1.20925">
        <ele>246</ele>
        <time>2020-09-19T10:32:37.750Z</time>
      </trkpt>
      <trkpt lat="45.81856" lon="1.20925">
        <ele>247</ele>
        <time>2020-09-19T10:32:38.750Z</time>
      </trkpt>
      <trkpt lat="45.81853" lon="1.20925">
        <ele>247</ele>
        <time>2020-09-19T10:32:39.750Z</time>
      </trkpt>
      <trkpt lat="45.8185" lon="1.20926">
        <ele>248</ele>
        <time>2020-09-19T10:32:40.750Z</time>
      </trkpt>
      <trkpt lat="45.81848" lon="1.20927">
        <ele>248</ele>
        <time>2020-09-19T10:32:41.750Z</time>
      </trkpt>
      <trkpt lat="45.81845" lon="1.20927">
        <ele>248</ele>
        <time>2020-09-19T10:32:42.750Z</time>
      </trkpt>
      <trkpt lat="45.81841" lon="1.20927">
        <ele>249</ele>
        <time>2020-09-19T10:32:43.750Z</time>
      </trkpt>
      <trkpt lat="45.81838" lon="1.20927">
        <ele>249</ele>
        <time>2020-09-19T10:32:44.750Z</time>
      </trkpt>
      <trkpt lat="45.81835" lon="1.20926">
        <ele>248</ele>
        <time>2020-09-19T10:32:45.750Z</time>
      </trkpt>
      <trkpt lat="45.81833" lon="1.20926">
        <ele>248</ele>
        <time>2020-09-19T10:32:46.750Z</time>
      </trkpt>
      <trkpt lat="45.8183" lon="1.20926">
        <ele>248</ele>
        <time>2020-09-19T10:32:47.750Z</time>
      </trkpt>
      <trkpt lat="45.81826" lon="1.20926">
        <ele>248</ele>
        <time>2020-09-19T10:32:48.750Z</time>
      </trkpt>
      <trkpt lat="45.81823" lon="1.20926">
        <ele>249</ele>
        <time>2020-09-19T10:32:49.750Z</time>
      </trkpt>
      <trkpt lat="45.8182" lon="1.20925">
        <ele>250</ele>
        <time>2020-09-19T10:32:50.750Z</time>
      </trkpt>
      <trkpt lat="45.81817" lon="1.20925">
        <ele>250</ele>
        <time>2020-09-19T10:32:51.750Z</time>
      </trkpt>
      <trkpt lat="45.81814" lon="1.20924">
        <ele>251</ele>
        <time>2020-09-19T10:32:52.750Z</time>
      </trkpt>
      <trkpt lat="45.81811" lon="1.20924">
        <ele>251</ele>
        <time>2020-09-19T10:32:53.750Z</time>
      </trkpt>
      <trkpt lat="45.81808" lon="1.20923">
        <ele>252</ele>
        <time>2020-09-19T10:32:54.750Z</time>
      </trkpt>
      <trkpt lat="45.81804" lon="1.20923">
        <ele>252</ele>
        <time>2020-09-19T10:32:55.750Z</time>
      </trkpt>
      <trkpt lat="45.81801" lon="1.20922">
        <ele>252</ele>
        <time>2020-09-19T10:32:56.750Z</time>
      </trkpt>
      <trkpt lat="45.81798" lon="1.20922">
        <ele>252</ele>
        <time>2020-09-19T10:32:57.750Z</time>
      </trkpt>
      <trkpt lat="45.81796" lon="1.20922">
        <ele>252</ele>
        <time>2020-09-19T10:32:58.750Z</time>
      </trkpt>
      <trkpt lat="45.81793" lon="1.20922">
        <ele>250</ele>
        <time>2020-09-19T10:32:59.750Z</time>
      </trkpt>
      <trkpt lat="45.8179" lon="1.20923">
        <ele>250</ele>
        <time>2020-09-19T10:33:00.750Z</time>
      </trkpt>
      <trkpt lat="45.81788" lon="1.20923">
        <ele>250</ele>
        <time>2020-09-19T10:33:01.750Z</time>
      </trkpt>
      <trkpt lat="45.81785" lon="1.20923">
        <ele>250</ele>
        <time>2020-09-19T10:33:02.750Z</time>
      </trkpt>
      <trkpt lat="45.81781" lon="1.20924">
        <ele>252</ele>
        <time>2020-09-19T10:33:03.750Z</time>
      </trkpt>
      <trkpt lat="45.81778" lon="1.20924">
        <ele>253</ele>
        <time>2020-09-19T10:33:04.750Z</time>
      </trkpt>
      <trkpt lat="45.81775" lon="1.20925">
        <ele>254</ele>
        <time>2020-09-19T10:33:05.750Z</time>
      </trkpt>
      <trkpt lat="45.81771" lon="1.20926">
        <ele>255</ele>
        <time>2020-09-19T10:33:06.750Z</time>
      </trkpt>
      <trkpt lat="45.81768" lon="1.20926">
        <ele>254</ele>
        <time>2020-09-19T10:33:07.750Z</time>
      </trkpt>
      <trkpt lat="45.81765" lon="1.20927">
        <ele>253</ele>
        <time>2020-09-19T10:33:08.750Z</time>
      </trkpt>
      <trkpt lat="45.81762" lon="1.20927">
        <ele>253</ele>
        <time>2020-09-19T10:33:09.750Z</time>
      </trkpt>
      <trkpt lat="45.81759" lon="1.20927">
        <ele>253</ele>
        <time>2020-09-19T10:33:10.750Z</time>
      </trkpt>
      <trkpt lat="45.81757" lon="1.20927">
        <ele>253</ele>
        <time>2020-09-19T10:33:11.750Z</time>
      </trkpt>
      <trkpt lat="45.81754" lon="1.20927">
        <ele>253</ele>
        <time>2020-09-19T10:33:12.750Z</time>
      </trkpt>
      <trkpt lat="45.81751" lon="1.20928">
        <ele>254</ele>
        <time>2020-09-19T10:33:13.750Z</time>
      </trkpt>
      <trkpt lat="45.81747" lon="1.20929">
        <ele>255</ele>
        <time>2020-09-19T10:33:14.750Z</time>
      </trkpt>
      <trkpt lat="45.81744" lon="1.2093">
        <ele>256</ele>
        <time>2020-09-19T10:33:15.750Z</time>
      </trkpt>
      <trkpt lat="45.81741" lon="1.20931">
        <ele>256</ele>
        <time>2020-09-19T10:33:16.750Z</time>
      </trkpt>
      <trkpt lat="45.81738" lon="1.20931">
        <ele>256</ele>
        <time>2020-09-19T10:33:17.750Z</time>
      </trkpt>
      <trkpt lat="45.81735" lon="1.20931">
        <ele>256</ele>
        <time>2020-09-19T10:33:18.750Z</time>
      </trkpt>
      <trkpt lat="45.81732" lon="1.20932">
        <ele>256</ele>
        <time>2020-09-19T10:33:19.750Z</time>
      </trkpt>
      <trkpt lat="45.81729" lon="1.20932">
        <ele>256</ele>
        <time>2020-09-19T10:33:20.750Z</time>
      </trkpt>
      <trkpt lat="45.81726" lon="1.20932">
        <ele>257</ele>
        <time>2020-09-19T10:33:21.750Z</time>
      </trkpt>
      <trkpt lat="45.81723" lon="1.20933">
        <ele>258</ele>
        <time>2020-09-19T10:33:22.750Z</time>
      </trkpt>
      <trkpt lat="45.8172" lon="1.20933">
        <ele>259</ele>
        <time>2020-09-19T10:33:23.750Z</time>
      </trkpt>
      <trkpt lat="45.81717" lon="1.20933">
        <ele>258</ele>
        <time>2020-09-19T10:33:24.750Z</time>
      </trkpt>
      <trkpt lat="45.81714" lon="1.20933">
        <ele>259</ele>
        <time>2020-09-19T10:33:25.750Z</time>
      </trkpt>
      <trkpt lat="45.81711" lon="1.20933">
        <ele>259</ele>
        <time>2020-09-19T10:33:26.750Z</time>
      </trkpt>
      <trkpt lat="45.81708" lon="1.20933">
        <ele>259</ele>
        <time>2020-09-19T10:33:27.750Z</time>
      </trkpt>
      <trkpt lat="45.81705" lon="1.20934">
        <ele>259</ele>
        <time>2020-09-19T10:33:28.750Z</time>
      </trkpt>
      <trkpt lat="45.81702" lon="1.20934">
        <ele>259</ele>
        <time>2020-09-19T10:33:29.750Z</time>
      </trkpt>
      <trkpt lat="45.81699" lon="1.20934">
        <ele>259</ele>
        <time>2020-09-19T10:33:30.750Z</time>
      </trkpt>
      <trkpt lat="45.81696" lon="1.20935">
        <ele>259</ele>
        <time>2020-09-19T10:33:31.750Z</time>
      </trkpt>
      <trkpt lat="45.81693" lon="1.20935">
        <ele>259</ele>
        <time>2020-09-19T10:33:32.750Z</time>
      </trkpt>
      <trkpt lat="45.8169" lon="1.20936">
        <ele>260</ele>
        <time>2020-09-19T10:33:33.750Z</time>
      </trkpt>
      <trkpt lat="45.81687" lon="1.20936">
        <ele>261</ele>
        <time>2020-09-19T10:33:34.750Z</time>
      </trkpt>
      <trkpt lat="45.81684" lon="1.20936">
        <ele>262</ele>
        <time>2020-09-19T10:33:35.750Z</time>
      </trkpt>
      <trkpt lat="45.81681" lon="1.20937">
        <ele>262</ele>
        <time>2020-09-19T10:33:36.750Z</time>
      </trkpt>
      <trkpt lat="45.81678" lon="1.20937">
        <ele>263</ele>
        <time>2020-09-19T10:33:37.750Z</time>
      </trkpt>
      <trkpt lat="45.81674" lon="1.20937">
        <ele>263</ele>
        <time>2020-09-19T10:33:38.750Z</time>
      </trkpt>
      <trkpt lat="45.81671" lon="1.20937">
        <ele>263</ele>
        <time>2020-09-19T10:33:39.750Z</time>
      </trkpt>
      <trkpt lat="45.81668" lon="1.20938">
        <ele>264</ele>
        <time>2020-09-19T10:33:40.750Z</time>
      </trkpt>
      <trkpt lat="45.81665" lon="1.20939">
        <ele>264</ele>
        <time>2020-09-19T10:33:41.750Z</time>
      </trkpt>
      <trkpt lat="45.81663" lon="1.2094">
        <ele>265</ele>
        <time>2020-09-19T10:33:42.750Z</time>
      </trkpt>
      <trkpt lat="45.8166" lon="1.20941">
        <ele>265</ele>
        <time>2020-09-19T10:33:43.750Z</time>
      </trkpt>
      <trkpt lat="45.81657" lon="1.20943">
        <ele>265</ele>
        <time>2020-09-19T10:33:44.750Z</time>
      </trkpt>
      <trkpt lat="45.81654" lon="1.20945">
        <ele>266</ele>
        <time>2020-09-19T10:33:45.750Z</time>
      </trkpt>
      <trkpt lat="45.81651" lon="1.20947">
        <ele>266</ele>
        <time>2020-09-19T10:33:46.750Z</time>
      </trkpt>
      <trkpt lat="45.81648" lon="1.2095">
        <ele>267</ele>
        <time>2020-09-19T10:33:47.750Z</time>
      </trkpt>
      <trkpt lat="45.81646" lon="1.20952">
        <ele>268</ele>
        <time>2020-09-19T10:33:48.750Z</time>
      </trkpt>
      <trkpt lat="45.81644" lon="1.20955">
        <ele>267</ele>
        <time>2020-09-19T10:33:49.750Z</time>
      </trkpt>
      <trkpt lat="45.81642" lon="1.20958">
        <ele>267</ele>
        <time>2020-09-19T10:33:50.750Z</time>
      </trkpt>
      <trkpt lat="45.81641" lon="1.20961">
        <ele>268</ele>
        <time>2020-09-19T10:33:51.750Z</time>
      </trkpt>
      <trkpt lat="45.81639" lon="1.20965">
        <ele>268</ele>
        <time>2020-09-19T10:33:52.750Z</time>
      </trkpt>
      <trkpt lat="45.81638" lon="1.20969">
        <ele>269</ele>
        <time>2020-09-19T10:33:53.750Z</time>
      </trkpt>
      <trkpt lat="45.81637" lon="1.20972">
        <ele>269</ele>
        <time>2020-09-19T10:33:54.750Z</time>
      </trkpt>
      <trkpt lat="45.81636" lon="1.20976">
        <ele>269</ele>
        <time>2020-09-19T10:33:55.750Z</time>
      </trkpt>
      <trkpt lat="45.81634" lon="1.20979">
        <ele>269</ele>
        <time>2020-09-19T10:33:56.750Z</time>
      </trkpt>
      <trkpt lat="45.81633" lon="1.20983">
        <ele>270</ele>
        <time>2020-09-19T10:33:57.750Z</time>
      </trkpt>
      <trkpt lat="45.81631" lon="1.20987">
        <ele>270</ele>
        <time>2020-09-19T10:33:58.750Z</time>
      </trkpt>
      <trkpt lat="45.8163" lon="1.20991">
        <ele>269</ele>
        <time>2020-09-19T10:33:59.750Z</time>
      </trkpt>
      <trkpt lat="45.81628" lon="1.20995">
        <ele>270</ele>
        <time>2020-09-19T10:34:00.750Z</time>
      </trkpt>
      <trkpt lat="45.81626" lon="1.20999">
        <ele>270</ele>
        <time>2020-09-19T10:34:01.750Z</time>
      </trkpt>
      <trkpt lat="45.81625" lon="1.21003">
        <ele>270</ele>
        <time>2020-09-19T10:34:02.750Z</time>
      </trkpt>
      <trkpt lat="45.81623" lon="1.21006">
        <ele>270</ele>
        <time>2020-09-19T10:34:03.750Z</time>
      </trkpt>
      <trkpt lat="45.81622" lon="1.2101">
        <ele>270</ele>
        <time>2020-09-19T10:34:04.750Z</time>
      </trkpt>
      <trkpt lat="45.8162" lon="1.21013">
        <ele>269</ele>
        <time>2020-09-19T10:34:05.750Z</time>
      </trkpt>
      <trkpt lat="45.81617" lon="1.21014">
        <ele>269</ele>
        <time>2020-09-19T10:34:06.750Z</time>
      </trkpt>
      <trkpt lat="45.81614" lon="1.21015">
        <ele>269</ele>
        <time>2020-09-19T10:34:07.750Z</time>
      </trkpt>
      <trkpt lat="45.81611" lon="1.21016">
        <ele>269</ele>
        <time>2020-09-19T10:34:08.750Z</time>
      </trkpt>
      <trkpt lat="45.81608" lon="1.21017">
        <ele>270</ele>
        <time>2020-09-19T10:34:09.750Z</time>
      </trkpt>
      <trkpt lat="45.81606" lon="1.21019">
        <ele>270</ele>
        <time>2020-09-19T10:34:10.750Z</time>
      </trkpt>
      <trkpt lat="45.81605" lon="1.21021">
        <ele>270</ele>
        <time>2020-09-19T10:34:11.750Z</time>
      </trkpt>
      <trkpt lat="45.81603" lon="1.21024">
        <ele>270</ele>
        <time>2020-09-19T10:34:12.750Z</time>
      </trkpt>
      <trkpt lat="45.81602" lon="1.21028">
        <ele>271</ele>
        <time>2020-09-19T10:34:13.750Z</time>
      </trkpt>
      <trkpt lat="45.81601" lon="1.21031">
        <ele>271</ele>
        <time>2020-09-19T10:34:14.750Z</time>
      </trkpt>
      <trkpt lat="45.816" lon="1.21034">
        <ele>271</ele>
        <time>2020-09-19T10:34:15.750Z</time>
      </trkpt>
      <trkpt lat="45.81599" lon="1.21038">
        <ele>271</ele>
        <time>2020-09-19T10:34:16.750Z</time>
      </trkpt>
      <trkpt lat="45.81598" lon="1.21041">
        <ele>272</ele>
        <time>2020-09-19T10:34:17.750Z</time>
      </trkpt>
      <trkpt lat="45.81597" lon="1.21045">
        <ele>271</ele>
        <time>2020-09-19T10:34:18.750Z</time>
      </trkpt>
      <trkpt lat="45.81596" lon="1.21049">
        <ele>272</ele>
        <time>2020-09-19T10:34:19.750Z</time>
      </trkpt>
      <trkpt lat="45.81596" lon="1.21052">
        <ele>272</ele>
        <time>2020-09-19T10:34:20.750Z</time>
      </trkpt>
      <trkpt lat="45.81595" lon="1.21056">
        <ele>273</ele>
        <time>2020-09-19T10:34:21.750Z</time>
      </trkpt>
      <trkpt lat="45.81594" lon="1.2106">
        <ele>273</ele>
        <time>2020-09-19T10:34:22.750Z</time>
      </trkpt>
      <trkpt lat="45.81593" lon="1.21063">
        <ele>274</ele>
        <time>2020-09-19T10:34:23.750Z</time>
      </trkpt>
      <trkpt lat="45.81593" lon="1.21067">
        <ele>274</ele>
        <time>2020-09-19T10:34:24.750Z</time>
      </trkpt>
      <trkpt lat="45.81593" lon="1.2107">
        <ele>275</ele>
        <time>2020-09-19T10:34:25.750Z</time>
      </trkpt>
      <trkpt lat="45.81594" lon="1.21074">
        <ele>276</ele>
        <time>2020-09-19T10:34:26.750Z</time>
      </trkpt>
      <trkpt lat="45.81594" lon="1.21078">
        <ele>276</ele>
        <time>2020-09-19T10:34:27.750Z</time>
      </trkpt>
      <trkpt lat="45.81594" lon="1.21081">
        <ele>276</ele>
        <time>2020-09-19T10:34:28.750Z</time>
      </trkpt>
      <trkpt lat="45.81594" lon="1.21085">
        <ele>276</ele>
        <time>2020-09-19T10:34:29.750Z</time>
      </trkpt>
      <trkpt lat="45.81595" lon="1.21089">
        <ele>276</ele>
        <time>2020-09-19T10:34:30.750Z</time>
      </trkpt>
      <trkpt lat="45.81595" lon="1.21094">
        <ele>275</ele>
        <time>2020-09-19T10:34:31.750Z</time>
      </trkpt>
      <trkpt lat="45.81596" lon="1.21098">
        <ele>275</ele>
        <time>2020-09-19T10:34:32.750Z</time>
      </trkpt>
      <trkpt lat="45.81596" lon="1.21102">
        <ele>275</ele>
        <time>2020-09-19T10:34:33.750Z</time>
      </trkpt>
      <trkpt lat="45.81596" lon="1.21107">
        <ele>276</ele>
        <time>2020-09-19T10:34:34.750Z</time>
      </trkpt>
      <trkpt lat="45.81597" lon="1.21112">
        <ele>276</ele>
        <time>2020-09-19T10:34:35.750Z</time>
      </trkpt>
      <trkpt lat="45.81598" lon="1.21117">
        <ele>276</ele>
        <time>2020-09-19T10:34:36.750Z</time>
      </trkpt>
      <trkpt lat="45.81599" lon="1.21121">
        <ele>276</ele>
        <time>2020-09-19T10:34:37.750Z</time>
      </trkpt>
      <trkpt lat="45.81599" lon="1.21126">
        <ele>276</ele>
        <time>2020-09-19T10:34:38.750Z</time>
      </trkpt>
      <trkpt lat="45.816" lon="1.21132">
        <ele>276</ele>
        <time>2020-09-19T10:34:39.750Z</time>
      </trkpt>
      <trkpt lat="45.816" lon="1.21137">
        <ele>276</ele>
        <time>2020-09-19T10:34:40.750Z</time>
      </trkpt>
      <trkpt lat="45.816" lon="1.21142">
        <ele>276</ele>
        <time>2020-09-19T10:34:41.750Z</time>
      </trkpt>
      <trkpt lat="45.81601" lon="1.21147">
        <ele>276</ele>
        <time>2020-09-19T10:34:42.750Z</time>
      </trkpt>
      <trkpt lat="45.81602" lon="1.21152">
        <ele>277</ele>
        <time>2020-09-19T10:34:43.750Z</time>
      </trkpt>
      <trkpt lat="45.81602" lon="1.21157">
        <ele>277</ele>
        <time>2020-09-19T10:34:44.750Z</time>
      </trkpt>
      <trkpt lat="45.81603" lon="1.21162">
        <ele>278</ele>
        <time>2020-09-19T10:34:45.750Z</time>
      </trkpt>
      <trkpt lat="45.81604" lon="1.21167">
        <ele>277</ele>
        <time>2020-09-19T10:34:46.750Z</time>
      </trkpt>
      <trkpt lat="45.81605" lon="1.21172">
        <ele>277</ele>
        <time>2020-09-19T10:34:47.750Z</time>
      </trkpt>
      <trkpt lat="45.81605" lon="1.21177">
        <ele>277</ele>
        <time>2020-09-19T10:34:48.750Z</time>
      </trkpt>
      <trkpt lat="45.81606" lon="1.21182">
        <ele>277</ele>
        <time>2020-09-19T10:34:49.750Z</time>
      </trkpt>
      <trkpt lat="45.81607" lon="1.21186">
        <ele>277</ele>
        <time>2020-09-19T10:34:50.750Z</time>
      </trkpt>
      <trkpt lat="45.81607" lon="1.21191">
        <ele>277</ele>
        <time>2020-09-19T10:34:51.750Z</time>
      </trkpt>
      <trkpt lat="45.81608" lon="1.21196">
        <ele>277</ele>
        <time>2020-09-19T10:34:52.750Z</time>
      </trkpt>
      <trkpt lat="45.81608" lon="1.21201">
        <ele>279</ele>
        <time>2020-09-19T10:34:53.750Z</time>
      </trkpt>
      <trkpt lat="45.81609" lon="1.21205">
        <ele>279</ele>
        <time>2020-09-19T10:34:54.750Z</time>
      </trkpt>
      <trkpt lat="45.8161" lon="1.2121">
        <ele>279</ele>
        <time>2020-09-19T10:34:55.750Z</time>
      </trkpt>
      <trkpt lat="45.8161" lon="1.21215">
        <ele>280</ele>
        <time>2020-09-19T10:34:56.750Z</time>
      </trkpt>
      <trkpt lat="45.81611" lon="1.21219">
        <ele>280</ele>
        <time>2020-09-19T10:34:57.750Z</time>
      </trkpt>
      <trkpt lat="45.81612" lon="1.21224">
        <ele>281</ele>
        <time>2020-09-19T10:34:58.750Z</time>
      </trkpt>
      <trkpt lat="45.81612" lon="1.21228">
        <ele>280</ele>
        <time>2020-09-19T10:34:59.750Z</time>
      </trkpt>
      <trkpt lat="45.81613" lon="1.21233">
        <ele>280</ele>
        <time>2020-09-19T10:35:00.750Z</time>
      </trkpt>
      <trkpt lat="45.81614" lon="1.21237">
        <ele>280</ele>
        <time>2020-09-19T10:35:01.750Z</time>
      </trkpt>
      <trkpt lat="45.81614" lon="1.21242">
        <ele>280</ele>
        <time>2020-09-19T10:35:02.750Z</time>
      </trkpt>
      <trkpt lat="45.81615" lon="1.21246">
        <ele>280</ele>
        <time>2020-09-19T10:35:03.750Z</time>
      </trkpt>
      <trkpt lat="45.81615" lon="1.21251">
        <ele>279</ele>
        <time>2020-09-19T10:35:04.750Z</time>
      </trkpt>
      <trkpt lat="45.81616" lon="1.21256">
        <ele>280</ele>
        <time>2020-09-19T10:35:05.750Z</time>
      </trkpt>
      <trkpt lat="45.81616" lon="1.21261">
        <ele>280</ele>
        <time>2020-09-19T10:35:06.750Z</time>
      </trkpt>
      <trkpt lat="45.81617" lon="1.21266">
        <ele>280</ele>
        <time>2020-09-19T10:35:07.750Z</time>
      </trkpt>
      <trkpt lat="45.81617" lon="1.2127">
        <ele>281</ele>
        <time>2020-09-19T10:35:08.750Z</time>
      </trkpt>
      <trkpt lat="45.81618" lon="1.21275">
        <ele>281</ele>
        <time>2020-09-19T10:35:09.750Z</time>
      </trkpt>
      <trkpt lat="45.81619" lon="1.21279">
        <ele>282</ele>
        <time>2020-09-19T10:35:10.750Z</time>
      </trkpt>
      <trkpt lat="45.8162" lon="1.21284">
        <ele>282</ele>
        <time>2020-09-19T10:35:11.750Z</time>
      </trkpt>
      <trkpt lat="45.8162" lon="1.21288">
        <ele>283</ele>
        <time>2020-09-19T10:35:12.750Z</time>
      </trkpt>
      <trkpt lat="45.81621" lon="1.21292">
        <ele>284</ele>
        <time>2020-09-19T10:35:13.750Z</time>
      </trkpt>
      <trkpt lat="45.81622" lon="1.21297">
        <ele>284</ele>
        <time>2020-09-19T10:35:14.750Z</time>
      </trkpt>
      <trkpt lat="45.81622" lon="1.21301">
        <ele>283</ele>
        <time>2020-09-19T10:35:15.750Z</time>
      </trkpt>
      <trkpt lat="45.81623" lon="1.21305">
        <ele>283</ele>
        <time>2020-09-19T10:35:16.750Z</time>
      </trkpt>
      <trkpt lat="45.81624" lon="1.21309">
        <ele>283</ele>
        <time>2020-09-19T10:35:17.750Z</time>
      </trkpt>
      <trkpt lat="45.81624" lon="1.21313">
        <ele>283</ele>
        <time>2020-09-19T10:35:18.750Z</time>
      </trkpt>
      <trkpt lat="45.81625" lon="1.21318">
        <ele>283</ele>
        <time>2020-09-19T10:35:19.750Z</time>
      </trkpt>
      <trkpt lat="45.81625" lon="1.21322">
        <ele>282</ele>
        <time>2020-09-19T10:35:20.750Z</time>
      </trkpt>
      <trkpt lat="45.81626" lon="1.21327">
        <ele>281</ele>
        <time>2020-09-19T10:35:21.750Z</time>
      </trkpt>
      <trkpt lat="45.81626" lon="1.21331">
        <ele>282</ele>
        <time>2020-09-19T10:35:22.750Z</time>
      </trkpt>
      <trkpt lat="45.81627" lon="1.21336">
        <ele>282</ele>
        <time>2020-09-19T10:35:23.750Z</time>
      </trkpt>
      <trkpt lat="45.81627" lon="1.21341">
        <ele>282</ele>
        <time>2020-09-19T10:35:24.750Z</time>
      </trkpt>
      <trkpt lat="45.81627" lon="1.21346">
        <ele>283</ele>
        <time>2020-09-19T10:35:25.750Z</time>
      </trkpt>
      <trkpt lat="45.81628" lon="1.21351">
        <ele>284</ele>
        <time>2020-09-19T10:35:26.750Z</time>
      </trkpt>
      <trkpt lat="45.81628" lon="1.21356">
        <ele>284</ele>
        <time>2020-09-19T10:35:27.750Z</time>
      </trkpt>
      <trkpt lat="45.81628" lon="1.2136">
        <ele>284</ele>
        <time>2020-09-19T10:35:28.750Z</time>
      </trkpt>
      <trkpt lat="45.81628" lon="1.21365">
        <ele>284</ele>
        <time>2020-09-19T10:35:29.750Z</time>
      </trkpt>
      <trkpt lat="45.81629" lon="1.21369">
        <ele>284</ele>
        <time>2020-09-19T10:35:30.750Z</time>
      </trkpt>
      <trkpt lat="45.81629" lon="1.21374">
        <ele>284</ele>
        <time>2020-09-19T10:35:31.750Z</time>
      </trkpt>
      <trkpt lat="45.81629" lon="1.21378">
        <ele>285</ele>
        <time>2020-09-19T10:35:32.750Z</time>
      </trkpt>
      <trkpt lat="45.8163" lon="1.21383">
        <ele>285</ele>
        <time>2020-09-19T10:35:33.750Z</time>
      </trkpt>
      <trkpt lat="45.8163" lon="1.21387">
        <ele>285</ele>
        <time>2020-09-19T10:35:34.750Z</time>
      </trkpt>
      <trkpt lat="45.81631" lon="1.21392">
        <ele>285</ele>
        <time>2020-09-19T10:35:35.750Z</time>
      </trkpt>
      <trkpt lat="45.81631" lon="1.21396">
        <ele>285</ele>
        <time>2020-09-19T10:35:36.750Z</time>
      </trkpt>
      <trkpt lat="45.81631" lon="1.214">
        <ele>286</ele>
        <time>2020-09-19T10:35:37.750Z</time>
      </trkpt>
      <trkpt lat="45.81631" lon="1.21404">
        <ele>286</ele>
        <time>2020-09-19T10:35:38.750Z</time>
      </trkpt>
      <trkpt lat="45.81631" lon="1.21408">
        <ele>286</ele>
        <time>2020-09-19T10:35:39.750Z</time>
      </trkpt>
      <trkpt lat="45.81632" lon="1.21413">
        <ele>286</ele>
        <time>2020-09-19T10:35:40.750Z</time>
      </trkpt>
      <trkpt lat="45.81632" lon="1.21417">
        <ele>286</ele>
        <time>2020-09-19T10:35:41.750Z</time>
      </trkpt>
      <trkpt lat="45.81632" lon="1.21421">
        <ele>286</ele>
        <time>2020-09-19T10:35:42.750Z</time>
      </trkpt>
      <trkpt lat="45.81632" lon="1.21425">
        <ele>286</ele>
        <time>2020-09-19T10:35:43.750Z</time>
      </trkpt>
      <trkpt lat="45.81631" lon="1.21429">
        <ele>286</ele>
        <time>2020-09-19T10:35:44.750Z</time>
      </trkpt>
      <trkpt lat="45.81631" lon="1.21434">
        <ele>286</ele>
        <time>2020-09-19T10:35:45.750Z</time>
      </trkpt>
      <trkpt lat="45.8163" lon="1.21438">
        <ele>286</ele>
        <time>2020-09-19T10:35:46.750Z</time>
      </trkpt>
      <trkpt lat="45.8163" lon="1.21443">
        <ele>286</ele>
        <time>2020-09-19T10:35:47.750Z</time>
      </trkpt>
      <trkpt lat="45.81629" lon="1.21448">
        <ele>286</ele>
        <time>2020-09-19T10:35:48.750Z</time>
      </trkpt>
      <trkpt lat="45.81629" lon="1.21452">
        <ele>286</ele>
        <time>2020-09-19T10:35:49.750Z</time>
      </trkpt>
      <trkpt lat="45.81628" lon="1.21456">
        <ele>286</ele>
        <time>2020-09-19T10:35:50.750Z</time>
      </trkpt>
      <trkpt lat="45.81626" lon="1.2146">
        <ele>286</ele>
        <time>2020-09-19T10:35:51.750Z</time>
      </trkpt>
      <trkpt lat="45.81625" lon="1.21464">
        <ele>286</ele>
        <time>2020-09-19T10:35:52.750Z</time>
      </trkpt>
      <trkpt lat="45.81623" lon="1.21468">
        <ele>287</ele>
        <time>2020-09-19T10:35:53.750Z</time>
      </trkpt>
      <trkpt lat="45.81621" lon="1.21472">
        <ele>288</ele>
        <time>2020-09-19T10:35:54.750Z</time>
      </trkpt>
      <trkpt lat="45.81619" lon="1.21475">
        <ele>288</ele>
        <time>2020-09-19T10:35:55.750Z</time>
      </trkpt>
      <trkpt lat="45.81616" lon="1.21479">
        <ele>288</ele>
        <time>2020-09-19T10:35:56.750Z</time>
      </trkpt>
      <trkpt lat="45.81614" lon="1.21482">
        <ele>289</ele>
        <time>2020-09-19T10:35:57.750Z</time>
      </trkpt>
      <trkpt lat="45.81611" lon="1.21485">
        <ele>290</ele>
        <time>2020-09-19T10:35:58.750Z</time>
      </trkpt>
      <trkpt lat="45.81607" lon="1.21488">
        <ele>291</ele>
        <time>2020-09-19T10:35:59.750Z</time>
      </trkpt>
      <trkpt lat="45.81604" lon="1.21489">
        <ele>292</ele>
        <time>2020-09-19T10:36:00.750Z</time>
      </trkpt>
      <trkpt lat="45.816" lon="1.2149">
        <ele>292</ele>
        <time>2020-09-19T10:36:01.750Z</time>
      </trkpt>
      <trkpt lat="45.81597" lon="1.21491">
        <ele>292</ele>
        <time>2020-09-19T10:36:02.750Z</time>
      </trkpt>
      <trkpt lat="45.81594" lon="1.21491">
        <ele>292</ele>
        <time>2020-09-19T10:36:03.750Z</time>
      </trkpt>
      <trkpt lat="45.81591" lon="1.21491">
        <ele>292</ele>
        <time>2020-09-19T10:36:04.750Z</time>
      </trkpt>
      <trkpt lat="45.81587" lon="1.21491">
        <ele>293</ele>
        <time>2020-09-19T10:36:05.750Z</time>
      </trkpt>
      <trkpt lat="45.81584" lon="1.21491">
        <ele>294</ele>
        <time>2020-09-19T10:36:06.750Z</time>
      </trkpt>
      <trkpt lat="45.81581" lon="1.21491">
        <ele>294</ele>
        <time>2020-09-19T10:36:07.750Z</time>
      </trkpt>
      <trkpt lat="45.81578" lon="1.2149">
        <ele>294</ele>
        <time>2020-09-19T10:36:08.750Z</time>
      </trkpt>
      <trkpt lat="45.81574" lon="1.21489">
        <ele>295</ele>
        <time>2020-09-19T10:36:09.750Z</time>
      </trkpt>
      <trkpt lat="45.81571" lon="1.21489">
        <ele>295</ele>
        <time>2020-09-19T10:36:10.750Z</time>
      </trkpt>
      <trkpt lat="45.81568" lon="1.21488">
        <ele>296</ele>
        <time>2020-09-19T10:36:11.750Z</time>
      </trkpt>
      <trkpt lat="45.81565" lon="1.21487">
        <ele>297</ele>
        <time>2020-09-19T10:36:12.750Z</time>
      </trkpt>
      <trkpt lat="45.81562" lon="1.21485">
        <ele>297</ele>
        <time>2020-09-19T10:36:13.750Z</time>
      </trkpt>
      <trkpt lat="45.81559" lon="1.21484">
        <ele>298</ele>
        <time>2020-09-19T10:36:14.750Z</time>
      </trkpt>
      <trkpt lat="45.81556" lon="1.21483">
        <ele>298</ele>
        <time>2020-09-19T10:36:15.750Z</time>
      </trkpt>
      <trkpt lat="45.81553" lon="1.21481">
        <ele>298</ele>
        <time>2020-09-19T10:36:16.750Z</time>
      </trkpt>
      <trkpt lat="45.8155" lon="1.2148">
        <ele>299</ele>
        <time>2020-09-19T10:36:17.750Z</time>
      </trkpt>
      <trkpt lat="45.81546" lon="1.21479">
        <ele>299</ele>
        <time>2020-09-19T10:36:18.750Z</time>
      </trkpt>
      <trkpt lat="45.81543" lon="1.21478">
        <ele>299</ele>
        <time>2020-09-19T10:36:19.750Z</time>
      </trkpt>
      <trkpt lat="45.8154" lon="1.21477">
        <ele>300</ele>
        <time>2020-09-19T10:36:20.750Z</time>
      </trkpt>
      <trkpt lat="45.81537" lon="1.21475">
        <ele>300</ele>
        <time>2020-09-19T10:36:21.750Z</time>
      </trkpt>
      <trkpt lat="45.81534" lon="1.21474">
        <ele>300</ele>
        <time>2020-09-19T10:36:22.750Z</time>
      </trkpt>
      <trkpt lat="45.81532" lon="1.21474">
        <ele>301</ele>
        <time>2020-09-19T10:36:23.750Z</time>
      </trkpt>
      <trkpt lat="45.81529" lon="1.21473">
        <ele>302</ele>
        <time>2020-09-19T10:36:24.750Z</time>
      </trkpt>
      <trkpt lat="45.81526" lon="1.21472">
        <ele>302</ele>
        <time>2020-09-19T10:36:25.750Z</time>
      </trkpt>
      <trkpt lat="45.81524" lon="1.21471">
        <ele>303</ele>
        <time>2020-09-19T10:36:26.750Z</time>
      </trkpt>
      <trkpt lat="45.81521" lon="1.2147">
        <ele>303</ele>
        <time>2020-09-19T10:36:27.750Z</time>
      </trkpt>
      <trkpt lat="45.81518" lon="1.21468">
        <ele>303</ele>
        <time>2020-09-19T10:36:28.750Z</time>
      </trkpt>
      <trkpt lat="45.81515" lon="1.21467">
        <ele>303</ele>
        <time>2020-09-19T10:36:29.750Z</time>
      </trkpt>
      <trkpt lat="45.81512" lon="1.21465">
        <ele>304</ele>
        <time>2020-09-19T10:36:30.750Z</time>
      </trkpt>
      <trkpt lat="45.81509" lon="1.21464">
        <ele>304</ele>
        <time>2020-09-19T10:36:31.750Z</time>
      </trkpt>
      <trkpt lat="45.81507" lon="1.21463">
        <ele>304</ele>
        <time>2020-09-19T10:36:32.750Z</time>
      </trkpt>
      <trkpt lat="45.81504" lon="1.21462">
        <ele>304</ele>
        <time>2020-09-19T10:36:33.750Z</time>
      </trkpt>
      <trkpt lat="45.81502" lon="1.21461">
        <ele>304</ele>
        <time>2020-09-19T10:36:34.750Z</time>
      </trkpt>
      <trkpt lat="45.81499" lon="1.21461">
        <ele>304</ele>
        <time>2020-09-19T10:36:35.750Z</time>
      </trkpt>
      <trkpt lat="45.81497" lon="1.2146">
        <ele>303</ele>
        <time>2020-09-19T10:36:36.750Z</time>
      </trkpt>
      <trkpt lat="45.81494" lon="1.21459">
        <ele>302</ele>
        <time>2020-09-19T10:36:37.750Z</time>
      </trkpt>
      <trkpt lat="45.81492" lon="1.21457">
        <ele>303</ele>
        <time>2020-09-19T10:36:38.750Z</time>
      </trkpt>
      <trkpt lat="45.81489" lon="1.21456">
        <ele>303</ele>
        <time>2020-09-19T10:36:39.750Z</time>
      </trkpt>
      <trkpt lat="45.81486" lon="1.21455">
        <ele>304</ele>
        <time>2020-09-19T10:36:40.750Z</time>
      </trkpt>
      <trkpt lat="45.81482" lon="1.21454">
        <ele>303</ele>
        <time>2020-09-19T10:36:41.750Z</time>
      </trkpt>
      <trkpt lat="45.81479" lon="1.21452">
        <ele>303</ele>
        <time>2020-09-19T10:36:42.750Z</time>
      </trkpt>
      <trkpt lat="45.81477" lon="1.21451">
        <ele>303</ele>
        <time>2020-09-19T10:36:43.750Z</time>
      </trkpt>
      <trkpt lat="45.81474" lon="1.2145">
        <ele>303</ele>
        <time>2020-09-19T10:36:44.750Z</time>
      </trkpt>
      <trkpt lat="45.81471" lon="1.21449">
        <ele>303</ele>
        <time>2020-09-19T10:36:45.750Z</time>
      </trkpt>
      <trkpt lat="45.81468" lon="1.21448">
        <ele>303</ele>
        <time>2020-09-19T10:36:46.750Z</time>
      </trkpt>
      <trkpt lat="45.81465" lon="1.21446">
        <ele>304</ele>
        <time>2020-09-19T10:36:47.750Z</time>
      </trkpt>
      <trkpt lat="45.81462" lon="1.21445">
        <ele>304</ele>
        <time>2020-09-19T10:36:48.750Z</time>
      </trkpt>
      <trkpt lat="45.81459" lon="1.21443">
        <ele>305</ele>
        <time>2020-09-19T10:36:49.750Z</time>
      </trkpt>
      <trkpt lat="45.81456" lon="1.21442">
        <ele>305</ele>
        <time>2020-09-19T10:36:50.750Z</time>
      </trkpt>
      <trkpt lat="45.81453" lon="1.21441">
        <ele>305</ele>
        <time>2020-09-19T10:36:51.750Z</time>
      </trkpt>
      <trkpt lat="45.8145" lon="1.21439">
        <ele>305</ele>
        <time>2020-09-19T10:36:52.750Z</time>
      </trkpt>
      <trkpt lat="45.81447" lon="1.21438">
        <ele>305</ele>
        <time>2020-09-19T10:36:53.750Z</time>
      </trkpt>
      <trkpt lat="45.81444" lon="1.21437">
        <ele>304</ele>
        <time>2020-09-19T10:36:54.750Z</time>
      </trkpt>
      <trkpt lat="45.81441" lon="1.21436">
        <ele>305</ele>
        <time>2020-09-19T10:36:55.750Z</time>
      </trkpt>
      <trkpt lat="45.81438" lon="1.21434">
        <ele>306</ele>
        <time>2020-09-19T10:36:56.750Z</time>
      </trkpt>
      <trkpt lat="45.81435" lon="1.21433">
        <ele>306</ele>
        <time>2020-09-19T10:36:57.750Z</time>
      </trkpt>
      <trkpt lat="45.81432" lon="1.21431">
        <ele>305</ele>
        <time>2020-09-19T10:36:58.750Z</time>
      </trkpt>
      <trkpt lat="45.8143" lon="1.21429">
        <ele>306</ele>
        <time>2020-09-19T10:36:59.750Z</time>
      </trkpt>
      <trkpt lat="45.81427" lon="1.21427">
        <ele>306</ele>
        <time>2020-09-19T10:37:00.750Z</time>
      </trkpt>
      <trkpt lat="45.81424" lon="1.21426">
        <ele>305</ele>
        <time>2020-09-19T10:37:01.750Z</time>
      </trkpt>
      <trkpt lat="45.8142" lon="1.21424">
        <ele>306</ele>
        <time>2020-09-19T10:37:02.750Z</time>
      </trkpt>
      <trkpt lat="45.81417" lon="1.21423">
        <ele>306</ele>
        <time>2020-09-19T10:37:03.750Z</time>
      </trkpt>
      <trkpt lat="45.81414" lon="1.21422">
        <ele>306</ele>
        <time>2020-09-19T10:37:04.750Z</time>
      </trkpt>
      <trkpt lat="45.8141" lon="1.21421">
        <ele>306</ele>
        <time>2020-09-19T10:37:05.750Z</time>
      </trkpt>
      <trkpt lat="45.81407" lon="1.2142">
        <ele>305</ele>
        <time>2020-09-19T10:37:06.750Z</time>
      </trkpt>
      <trkpt lat="45.81403" lon="1.2142">
        <ele>305</ele>
        <time>2020-09-19T10:37:07.750Z</time>
      </trkpt>
      <trkpt lat="45.814" lon="1.21419">
        <ele>305</ele>
        <time>2020-09-19T10:37:08.750Z</time>
      </trkpt>
      <trkpt lat="45.81397" lon="1.21419">
        <ele>305</ele>
        <time>2020-09-19T10:37:09.750Z</time>
      </trkpt>
      <trkpt lat="45.81393" lon="1.21418">
        <ele>305</ele>
        <time>2020-09-19T10:37:10.750Z</time>
      </trkpt>
      <trkpt lat="45.8139" lon="1.21418">
        <ele>306</ele>
        <time>2020-09-19T10:37:11.750Z</time>
      </trkpt>
      <trkpt lat="45.81387" lon="1.21418">
        <ele>306</ele>
        <time>2020-09-19T10:37:12.750Z</time>
      </trkpt>
      <trkpt lat="45.81383" lon="1.21418">
        <ele>306</ele>
        <time>2020-09-19T10:37:13.750Z</time>
      </trkpt>
      <trkpt lat="45.8138" lon="1.21418">
        <ele>306</ele>
        <time>2020-09-19T10:37:14.750Z</time>
      </trkpt>
      <trkpt lat="45.81377" lon="1.21418">
        <ele>306</ele>
        <time>2020-09-19T10:37:15.750Z</time>
      </trkpt>
      <trkpt lat="45.81374" lon="1.21417">
        <ele>306</ele>
        <time>2020-09-19T10:37:16.750Z</time>
      </trkpt>
      <trkpt lat="45.81371" lon="1.21417">
        <ele>306</ele>
        <time>2020-09-19T10:37:17.750Z</time>
      </trkpt>
      <trkpt lat="45.81368" lon="1.21418">
        <ele>307</ele>
        <time>2020-09-19T10:37:18.750Z</time>
      </trkpt>
      <trkpt lat="45.81365" lon="1.21419">
        <ele>306</ele>
        <time>2020-09-19T10:37:19.750Z</time>
      </trkpt>
      <trkpt lat="45.81362" lon="1.2142">
        <ele>307</ele>
        <time>2020-09-19T10:37:20.750Z</time>
      </trkpt>
      <trkpt lat="45.81359" lon="1.2142">
        <ele>307</ele>
        <time>2020-09-19T10:37:21.750Z</time>
      </trkpt>
      <trkpt lat="45.81355" lon="1.21421">
        <ele>306</ele>
        <time>2020-09-19T10:37:22.750Z</time>
      </trkpt>
      <trkpt lat="45.81352" lon="1.21423">
        <ele>307</ele>
        <time>2020-09-19T10:37:23.750Z</time>
      </trkpt>
      <trkpt lat="45.81349" lon="1.21424">
        <ele>308</ele>
        <time>2020-09-19T10:37:24.750Z</time>
      </trkpt>
      <trkpt lat="45.81346" lon="1.21424">
        <ele>309</ele>
        <time>2020-09-19T10:37:25.750Z</time>
      </trkpt>
      <trkpt lat="45.81343" lon="1.21426">
        <ele>309</ele>
        <time>2020-09-19T10:37:26.750Z</time>
      </trkpt>
      <trkpt lat="45.8134" lon="1.21427">
        <ele>310</ele>
        <time>2020-09-19T10:37:27.750Z</time>
      </trkpt>
      <trkpt lat="45.81338" lon="1.21428">
        <ele>310</ele>
        <time>2020-09-19T10:37:28.750Z</time>
      </trkpt>
      <trkpt lat="45.81335" lon="1.2143">
        <ele>311</ele>
        <time>2020-09-19T10:37:29.750Z</time>
      </trkpt>
      <trkpt lat="45.81332" lon="1.21433">
        <ele>311</ele>
        <time>2020-09-19T10:37:30.750Z</time>
      </trkpt>
      <trkpt lat="45.8133" lon="1.21435">
        <ele>312</ele>
        <time>2020-09-19T10:37:31.750Z</time>
      </trkpt>
      <trkpt lat="45.81327" lon="1.21437">
        <ele>312</ele>
        <time>2020-09-19T10:37:32.750Z</time>
      </trkpt>
      <trkpt lat="45.81325" lon="1.2144">
        <ele>312</ele>
        <time>2020-09-19T10:37:33.750Z</time>
      </trkpt>
      <trkpt lat="45.81322" lon="1.21442">
        <ele>312</ele>
        <time>2020-09-19T10:37:34.750Z</time>
      </trkpt>
      <trkpt lat="45.8132" lon="1.21445">
        <ele>312</ele>
        <time>2020-09-19T10:37:35.750Z</time>
      </trkpt>
      <trkpt lat="45.81317" lon="1.21448">
        <ele>313</ele>
        <time>2020-09-19T10:37:36.750Z</time>
      </trkpt>
      <trkpt lat="45.81315" lon="1.21451">
        <ele>313</ele>
        <time>2020-09-19T10:37:37.750Z</time>
      </trkpt>
      <trkpt lat="45.81312" lon="1.21454">
        <ele>314</ele>
        <time>2020-09-19T10:37:38.750Z</time>
      </trkpt>
      <trkpt lat="45.81309" lon="1.21457">
        <ele>315</ele>
        <time>2020-09-19T10:37:39.750Z</time>
      </trkpt>
      <trkpt lat="45.81306" lon="1.21459">
        <ele>316</ele>
        <time>2020-09-19T10:37:40.750Z</time>
      </trkpt>
      <trkpt lat="45.81303" lon="1.21462">
        <ele>316</ele>
        <time>2020-09-19T10:37:41.750Z</time>
      </trkpt>
      <trkpt lat="45.81301" lon="1.21465">
        <ele>317</ele>
        <time>2020-09-19T10:37:42.750Z</time>
      </trkpt>
      <trkpt lat="45.81298" lon="1.21468">
        <ele>317</ele>
        <time>2020-09-19T10:37:43.750Z</time>
      </trkpt>
      <trkpt lat="45.81296" lon="1.2147">
        <ele>318</ele>
        <time>2020-09-19T10:37:44.750Z</time>
      </trkpt>
      <trkpt lat="45.81294" lon="1.21473">
        <ele>317</ele>
        <time>2020-09-19T10:37:45.750Z</time>
      </trkpt>
      <trkpt lat="45.81291" lon="1.21476">
        <ele>318</ele>
        <time>2020-09-19T10:37:46.750Z</time>
      </trkpt>
      <trkpt lat="45.81289" lon="1.21479">
        <ele>319</ele>
        <time>2020-09-19T10:37:47.750Z</time>
      </trkpt>
      <trkpt lat="45.81287" lon="1.21482">
        <ele>320</ele>
        <time>2020-09-19T10:37:48.750Z</time>
      </trkpt>
      <trkpt lat="45.81285" lon="1.21485">
        <ele>320</ele>
        <time>2020-09-19T10:37:49.750Z</time>
      </trkpt>
      <trkpt lat="45.81283" lon="1.21487">
        <ele>320</ele>
        <time>2020-09-19T10:37:50.750Z</time>
      </trkpt>
      <trkpt lat="45.81282" lon="1.2149">
        <ele>319</ele>
        <time>2020-09-19T10:37:51.750Z</time>
      </trkpt>
      <trkpt lat="45.81281" lon="1.21493">
        <ele>319</ele>
        <time>2020-09-19T10:37:52.750Z</time>
      </trkpt>
      <trkpt lat="45.81281" lon="1.21497">
        <ele>320</ele>
        <time>2020-09-19T10:37:53.750Z</time>
      </trkpt>
      <trkpt lat="45.8128" lon="1.215">
        <ele>319</ele>
        <time>2020-09-19T10:37:54.750Z</time>
      </trkpt>
      <trkpt lat="45.81279" lon="1.21505">
        <ele>317</ele>
        <time>2020-09-19T10:37:55.750Z</time>
      </trkpt>
      <trkpt lat="45.81279" lon="1.21509">
        <ele>317</ele>
        <time>2020-09-19T10:37:56.750Z</time>
      </trkpt>
      <trkpt lat="45.81278" lon="1.21513">
        <ele>316</ele>
        <time>2020-09-19T10:37:57.750Z</time>
      </trkpt>
      <trkpt lat="45.81276" lon="1.21517">
        <ele>316</ele>
        <time>2020-09-19T10:37:58.750Z</time>
      </trkpt>
      <trkpt lat="45.81274" lon="1.21521">
        <ele>316</ele>
        <time>2020-09-19T10:37:59.750Z</time>
      </trkpt>
      <trkpt lat="45.81273" lon="1.21525">
        <ele>316</ele>
        <time>2020-09-19T10:38:00.750Z</time>
      </trkpt>
      <trkpt lat="45.8127" lon="1.21528">
        <ele>317</ele>
        <time>2020-09-19T10:38:01.750Z</time>
      </trkpt>
      <trkpt lat="45.81268" lon="1.21531">
        <ele>317</ele>
        <time>2020-09-19T10:38:02.750Z</time>
      </trkpt>
      <trkpt lat="45.81266" lon="1.21534">
        <ele>318</ele>
        <time>2020-09-19T10:38:03.750Z</time>
      </trkpt>
      <trkpt lat="45.81264" lon="1.21536">
        <ele>319</ele>
        <time>2020-09-19T10:38:04.750Z</time>
      </trkpt>
      <trkpt lat="45.81261" lon="1.21537">
        <ele>319</ele>
        <time>2020-09-19T10:38:05.750Z</time>
      </trkpt>
      <trkpt lat="45.81259" lon="1.21539">
        <ele>319</ele>
        <time>2020-09-19T10:38:06.750Z</time>
      </trkpt>
      <trkpt lat="45.81257" lon="1.21541">
        <ele>319</ele>
        <time>2020-09-19T10:38:07.750Z</time>
      </trkpt>
      <trkpt lat="45.81254" lon="1.21543">
        <ele>321</ele>
        <time>2020-09-19T10:38:08.750Z</time>
      </trkpt>
      <trkpt lat="45.81252" lon="1.21544">
        <ele>321</ele>
        <time>2020-09-19T10:38:09.750Z</time>
      </trkpt>
      <trkpt lat="45.81249" lon="1.21546">
        <ele>321</ele>
        <time>2020-09-19T10:38:10.750Z</time>
      </trkpt>
      <trkpt lat="45.81247" lon="1.21547">
        <ele>321</ele>
        <time>2020-09-19T10:38:11.750Z</time>
      </trkpt>
      <trkpt lat="45.81244" lon="1.21549">
        <ele>321</ele>
        <time>2020-09-19T10:38:12.750Z</time>
      </trkpt>
      <trkpt lat="45.81241" lon="1.21549">
        <ele>322</ele>
        <time>2020-09-19T10:38:13.750Z</time>
      </trkpt>
      <trkpt lat="45.81239" lon="1.21551">
        <ele>323</ele>
        <time>2020-09-19T10:38:14.750Z</time>
      </trkpt>
      <trkpt lat="45.81236" lon="1.21552">
        <ele>324</ele>
        <time>2020-09-19T10:38:15.750Z</time>
      </trkpt>
      <trkpt lat="45.81233" lon="1.21553">
        <ele>324</ele>
        <time>2020-09-19T10:38:16.750Z</time>
      </trkpt>
      <trkpt lat="45.8123" lon="1.21554">
        <ele>325</ele>
        <time>2020-09-19T10:38:17.750Z</time>
      </trkpt>
      <trkpt lat="45.81227" lon="1.21555">
        <ele>325</ele>
        <time>2020-09-19T10:38:18.750Z</time>
      </trkpt>
      <trkpt lat="45.81223" lon="1.21556">
        <ele>325</ele>
        <time>2020-09-19T10:38:19.750Z</time>
      </trkpt>
      <trkpt lat="45.8122" lon="1.21556">
        <ele>325</ele>
        <time>2020-09-19T10:38:20.750Z</time>
      </trkpt>
      <trkpt lat="45.81217" lon="1.21557">
        <ele>324</ele>
        <time>2020-09-19T10:38:21.750Z</time>
      </trkpt>
      <trkpt lat="45.81214" lon="1.21558">
        <ele>324</ele>
        <time>2020-09-19T10:38:22.750Z</time>
      </trkpt>
      <trkpt lat="45.81211" lon="1.2156">
        <ele>325</ele>
        <time>2020-09-19T10:38:23.750Z</time>
      </trkpt>
      <trkpt lat="45.81208" lon="1.21561">
        <ele>325</ele>
        <time>2020-09-19T10:38:24.750Z</time>
      </trkpt>
      <trkpt lat="45.81206" lon="1.21562">
        <ele>326</ele>
        <time>2020-09-19T10:38:25.750Z</time>
      </trkpt>
      <trkpt lat="45.81203" lon="1.21563">
        <ele>325</ele>
        <time>2020-09-19T10:38:26.750Z</time>
      </trkpt>
      <trkpt lat="45.81203" lon="1.21561">
        <ele>325</ele>
        <time>2020-09-19T10:38:27.750Z</time>
      </trkpt>
      <trkpt lat="45.81203" lon="1.21557">
        <ele>327</ele>
        <time>2020-09-19T10:38:28.750Z</time>
      </trkpt>
      <trkpt lat="45.81204" lon="1.21552">
        <ele>327</ele>
        <time>2020-09-19T10:38:29.750Z</time>
      </trkpt>
      <trkpt lat="45.81205" lon="1.2155">
        <ele>326</ele>
        <time>2020-09-19T10:38:30.750Z</time>
      </trkpt>
      <trkpt lat="45.81206" lon="1.21549">
        <ele>326</ele>
        <time>2020-09-19T10:38:31.750Z</time>
      </trkpt>
      <trkpt lat="45.81208" lon="1.21548">
        <ele>325</ele>
        <time>2020-09-19T10:38:32.750Z</time>
      </trkpt>
      <trkpt lat="45.8121" lon="1.21548">
        <ele>324</ele>
        <time>2020-09-19T10:38:33.750Z</time>
      </trkpt>
      <trkpt lat="45.81213" lon="1.21548">
        <ele>322</ele>
        <time>2020-09-19T10:38:34.750Z</time>
      </trkpt>
      <trkpt lat="45.81215" lon="1.21547">
        <ele>321</ele>
        <time>2020-09-19T10:38:35.750Z</time>
      </trkpt>
      <trkpt lat="45.81218" lon="1.21546">
        <ele>320</ele>
        <time>2020-09-19T10:38:36.750Z</time>
      </trkpt>
      <trkpt lat="45.81221" lon="1.21546">
        <ele>320</ele>
        <time>2020-09-19T10:38:37.750Z</time>
      </trkpt>
      <trkpt lat="45.81225" lon="1.21545">
        <ele>319</ele>
        <time>2020-09-19T10:38:38.750Z</time>
      </trkpt>
      <trkpt lat="45.81228" lon="1.21544">
        <ele>318</ele>
        <time>2020-09-19T10:38:39.750Z</time>
      </trkpt>
      <trkpt lat="45.8123" lon="1.21543">
        <ele>316</ele>
        <time>2020-09-19T10:38:40.750Z</time>
      </trkpt>
      <trkpt lat="45.81233" lon="1.21542">
        <ele>316</ele>
        <time>2020-09-19T10:38:41.750Z</time>
      </trkpt>
      <trkpt lat="45.81236" lon="1.21542">
        <ele>315</ele>
        <time>2020-09-19T10:38:42.750Z</time>
      </trkpt>
      <trkpt lat="45.81239" lon="1.21541">
        <ele>314</ele>
        <time>2020-09-19T10:38:43.750Z</time>
      </trkpt>
      <trkpt lat="45.81242" lon="1.2154">
        <ele>314</ele>
        <time>2020-09-19T10:38:44.750Z</time>
      </trkpt>
      <trkpt lat="45.81244" lon="1.21539">
        <ele>313</ele>
        <time>2020-09-19T10:38:45.750Z</time>
      </trkpt>
      <trkpt lat="45.81247" lon="1.21538">
        <ele>313</ele>
        <time>2020-09-19T10:38:46.750Z</time>
      </trkpt>
      <trkpt lat="45.8125" lon="1.21536">
        <ele>311</ele>
        <time>2020-09-19T10:38:47.750Z</time>
      </trkpt>
      <trkpt lat="45.81253" lon="1.21535">
        <ele>311</ele>
        <time>2020-09-19T10:38:48.750Z</time>
      </trkpt>
      <trkpt lat="45.81256" lon="1.21533">
        <ele>310</ele>
        <time>2020-09-19T10:38:49.750Z</time>
      </trkpt>
      <trkpt lat="45.81258" lon="1.21531">
        <ele>310</ele>
        <time>2020-09-19T10:38:50.750Z</time>
      </trkpt>
      <trkpt lat="45.8126" lon="1.21529">
        <ele>311</ele>
        <time>2020-09-19T10:38:51.750Z</time>
      </trkpt>
      <trkpt lat="45.81262" lon="1.21526">
        <ele>311</ele>
        <time>2020-09-19T10:38:52.750Z</time>
      </trkpt>
      <trkpt lat="45.81264" lon="1.21524">
        <ele>311</ele>
        <time>2020-09-19T10:38:53.750Z</time>
      </trkpt>
      <trkpt lat="45.81266" lon="1.21521">
        <ele>310</ele>
        <time>2020-09-19T10:38:54.750Z</time>
      </trkpt>
      <trkpt lat="45.81267" lon="1.21517">
        <ele>310</ele>
        <time>2020-09-19T10:38:55.750Z</time>
      </trkpt>
      <trkpt lat="45.81268" lon="1.21514">
        <ele>309</ele>
        <time>2020-09-19T10:38:56.750Z</time>
      </trkpt>
      <trkpt lat="45.8127" lon="1.2151">
        <ele>309</ele>
        <time>2020-09-19T10:38:57.750Z</time>
      </trkpt>
      <trkpt lat="45.81271" lon="1.21506">
        <ele>309</ele>
        <time>2020-09-19T10:38:58.750Z</time>
      </trkpt>
      <trkpt lat="45.81273" lon="1.21503">
        <ele>309</ele>
        <time>2020-09-19T10:38:59.750Z</time>
      </trkpt>
      <trkpt lat="45.81273" lon="1.21499">
        <ele>308</ele>
        <time>2020-09-19T10:39:00.750Z</time>
      </trkpt>
      <trkpt lat="45.81275" lon="1.21496">
        <ele>308</ele>
        <time>2020-09-19T10:39:01.750Z</time>
      </trkpt>
      <trkpt lat="45.81276" lon="1.21492">
        <ele>307</ele>
        <time>2020-09-19T10:39:02.750Z</time>
      </trkpt>
      <trkpt lat="45.81278" lon="1.21489">
        <ele>307</ele>
        <time>2020-09-19T10:39:03.750Z</time>
      </trkpt>
      <trkpt lat="45.8128" lon="1.21485">
        <ele>308</ele>
        <time>2020-09-19T10:39:04.750Z</time>
      </trkpt>
      <trkpt lat="45.81282" lon="1.21481">
        <ele>309</ele>
        <time>2020-09-19T10:39:05.750Z</time>
      </trkpt>
      <trkpt lat="45.81285" lon="1.21477">
        <ele>309</ele>
        <time>2020-09-19T10:39:06.750Z</time>
      </trkpt>
      <trkpt lat="45.81287" lon="1.21473">
        <ele>308</ele>
        <time>2020-09-19T10:39:07.750Z</time>
      </trkpt>
      <trkpt lat="45.8129" lon="1.21469">
        <ele>308</ele>
        <time>2020-09-19T10:39:08.750Z</time>
      </trkpt>
      <trkpt lat="45.81293" lon="1.21465">
        <ele>308</ele>
        <time>2020-09-19T10:39:09.750Z</time>
      </trkpt>
      <trkpt lat="45.81296" lon="1.21462">
        <ele>308</ele>
        <time>2020-09-19T10:39:10.750Z</time>
      </trkpt>
      <trkpt lat="45.81299" lon="1.21458">
        <ele>308</ele>
        <time>2020-09-19T10:39:11.750Z</time>
      </trkpt>
      <trkpt lat="45.81302" lon="1.21455">
        <ele>309</ele>
        <time>2020-09-19T10:39:12.750Z</time>
      </trkpt>
      <trkpt lat="45.81304" lon="1.21452">
        <ele>309</ele>
        <time>2020-09-19T10:39:13.750Z</time>
      </trkpt>
      <trkpt lat="45.81307" lon="1.21449">
        <ele>309</ele>
        <time>2020-09-19T10:39:14.750Z</time>
      </trkpt>
      <trkpt lat="45.81309" lon="1.21445">
        <ele>309</ele>
        <time>2020-09-19T10:39:15.750Z</time>
      </trkpt>
      <trkpt lat="45.81312" lon="1.21442">
        <ele>309</ele>
        <time>2020-09-19T10:39:16.750Z</time>
      </trkpt>
      <trkpt lat="45.81315" lon="1.21439">
        <ele>309</ele>
        <time>2020-09-19T10:39:17.750Z</time>
      </trkpt>
      <trkpt lat="45.81318" lon="1.21436">
        <ele>310</ele>
        <time>2020-09-19T10:39:18.750Z</time>
      </trkpt>
      <trkpt lat="45.81321" lon="1.21433">
        <ele>310</ele>
        <time>2020-09-19T10:39:19.750Z</time>
      </trkpt>
      <trkpt lat="45.81324" lon="1.2143">
        <ele>310</ele>
        <time>2020-09-19T10:39:20.750Z</time>
      </trkpt>
      <trkpt lat="45.81327" lon="1.21427">
        <ele>310</ele>
        <time>2020-09-19T10:39:21.750Z</time>
      </trkpt>
      <trkpt lat="45.8133" lon="1.21424">
        <ele>311</ele>
        <time>2020-09-19T10:39:22.750Z</time>
      </trkpt>
      <trkpt lat="45.81333" lon="1.21422">
        <ele>310</ele>
        <time>2020-09-19T10:39:23.750Z</time>
      </trkpt>
      <trkpt lat="45.81336" lon="1.2142">
        <ele>311</ele>
        <time>2020-09-19T10:39:24.750Z</time>
      </trkpt>
      <trkpt lat="45.81339" lon="1.21417">
        <ele>311</ele>
        <time>2020-09-19T10:39:25.750Z</time>
      </trkpt>
      <trkpt lat="45.81343" lon="1.21416">
        <ele>311</ele>
        <time>2020-09-19T10:39:26.750Z</time>
      </trkpt>
      <trkpt lat="45.81346" lon="1.21414">
        <ele>310</ele>
        <time>2020-09-19T10:39:27.750Z</time>
      </trkpt>
      <trkpt lat="45.8135" lon="1.21413">
        <ele>310</ele>
        <time>2020-09-19T10:39:28.750Z</time>
      </trkpt>
      <trkpt lat="45.81354" lon="1.21411">
        <ele>310</ele>
        <time>2020-09-19T10:39:29.750Z</time>
      </trkpt>
      <trkpt lat="45.81358" lon="1.21409">
        <ele>311</ele>
        <time>2020-09-19T10:39:30.750Z</time>
      </trkpt>
      <trkpt lat="45.81361" lon="1.21409">
        <ele>311</ele>
        <time>2020-09-19T10:39:31.750Z</time>
      </trkpt>
      <trkpt lat="45.81365" lon="1.21408">
        <ele>311</ele>
        <time>2020-09-19T10:39:32.750Z</time>
      </trkpt>
      <trkpt lat="45.81369" lon="1.21409">
        <ele>310</ele>
        <time>2020-09-19T10:39:33.750Z</time>
      </trkpt>
      <trkpt lat="45.81373" lon="1.21409">
        <ele>310</ele>
        <time>2020-09-19T10:39:34.750Z</time>
      </trkpt>
      <trkpt lat="45.81377" lon="1.2141">
        <ele>310</ele>
        <time>2020-09-19T10:39:35.750Z</time>
      </trkpt>
      <trkpt lat="45.8138" lon="1.2141">
        <ele>310</ele>
        <time>2020-09-19T10:39:36.750Z</time>
      </trkpt>
      <trkpt lat="45.81384" lon="1.2141">
        <ele>310</ele>
        <time>2020-09-19T10:39:37.750Z</time>
      </trkpt>
      <trkpt lat="45.81388" lon="1.21411">
        <ele>311</ele>
        <time>2020-09-19T10:39:38.750Z</time>
      </trkpt>
      <trkpt lat="45.81391" lon="1.21411">
        <ele>311</ele>
        <time>2020-09-19T10:39:39.750Z</time>
      </trkpt>
      <trkpt lat="45.81394" lon="1.21412">
        <ele>311</ele>
        <time>2020-09-19T10:39:40.750Z</time>
      </trkpt>
      <trkpt lat="45.81397" lon="1.21413">
        <ele>311</ele>
        <time>2020-09-19T10:39:41.750Z</time>
      </trkpt>
      <trkpt lat="45.81401" lon="1.21414">
        <ele>311</ele>
        <time>2020-09-19T10:39:42.750Z</time>
      </trkpt>
      <trkpt lat="45.81404" lon="1.21416">
        <ele>311</ele>
        <time>2020-09-19T10:39:43.750Z</time>
      </trkpt>
      <trkpt lat="45.81407" lon="1.21417">
        <ele>310</ele>
        <time>2020-09-19T10:39:44.750Z</time>
      </trkpt>
      <trkpt lat="45.8141" lon="1.21419">
        <ele>310</ele>
        <time>2020-09-19T10:39:45.750Z</time>
      </trkpt>
      <trkpt lat="45.81414" lon="1.21421">
        <ele>310</ele>
        <time>2020-09-19T10:39:46.750Z</time>
      </trkpt>
      <trkpt lat="45.81417" lon="1.21422">
        <ele>310</ele>
        <time>2020-09-19T10:39:47.750Z</time>
      </trkpt>
      <trkpt lat="45.81421" lon="1.21424">
        <ele>309</ele>
        <time>2020-09-19T10:39:48.750Z</time>
      </trkpt>
      <trkpt lat="45.81424" lon="1.21426">
        <ele>309</ele>
        <time>2020-09-19T10:39:49.750Z</time>
      </trkpt>
      <trkpt lat="45.81427" lon="1.21428">
        <ele>309</ele>
        <time>2020-09-19T10:39:50.750Z</time>
      </trkpt>
      <trkpt lat="45.81431" lon="1.21429">
        <ele>309</ele>
        <time>2020-09-19T10:39:51.750Z</time>
      </trkpt>
      <trkpt lat="45.81434" lon="1.21431">
        <ele>309</ele>
        <time>2020-09-19T10:39:52.750Z</time>
      </trkpt>
      <trkpt lat="45.81437" lon="1.21432">
        <ele>308</ele>
        <time>2020-09-19T10:39:53.750Z</time>
      </trkpt>
      <trkpt lat="45.81441" lon="1.21433">
        <ele>308</ele>
        <time>2020-09-19T10:39:54.750Z</time>
      </trkpt>
      <trkpt lat="45.81444" lon="1.21435">
        <ele>308</ele>
        <time>2020-09-19T10:39:55.750Z</time>
      </trkpt>
      <trkpt lat="45.81447" lon="1.21436">
        <ele>308</ele>
        <time>2020-09-19T10:39:56.750Z</time>
      </trkpt>
      <trkpt lat="45.8145" lon="1.21438">
        <ele>308</ele>
        <time>2020-09-19T10:39:57.750Z</time>
      </trkpt>
      <trkpt lat="45.81453" lon="1.21439">
        <ele>307</ele>
        <time>2020-09-19T10:39:58.750Z</time>
      </trkpt>
      <trkpt lat="45.81456" lon="1.2144">
        <ele>307</ele>
        <time>2020-09-19T10:39:59.750Z</time>
      </trkpt>
      <trkpt lat="45.8146" lon="1.21441">
        <ele>308</ele>
        <time>2020-09-19T10:40:00.750Z</time>
      </trkpt>
      <trkpt lat="45.81464" lon="1.21443">
        <ele>307</ele>
        <time>2020-09-19T10:40:01.750Z</time>
      </trkpt>
      <trkpt lat="45.81468" lon="1.21445">
        <ele>310</ele>
        <time>2020-09-19T10:40:02.750Z</time>
      </trkpt>
      <trkpt lat="45.81472" lon="1.21446">
        <ele>310</ele>
        <time>2020-09-19T10:40:03.750Z</time>
      </trkpt>
      <trkpt lat="45.81477" lon="1.21447">
        <ele>311</ele>
        <time>2020-09-19T10:40:04.750Z</time>
      </trkpt>
      <trkpt lat="45.8148" lon="1.21448">
        <ele>310</ele>
        <time>2020-09-19T10:40:05.750Z</time>
      </trkpt>
      <trkpt lat="45.81484" lon="1.2145">
        <ele>310</ele>
        <time>2020-09-19T10:40:06.750Z</time>
      </trkpt>
      <trkpt lat="45.81487" lon="1.21451">
        <ele>309</ele>
        <time>2020-09-19T10:40:07.750Z</time>
      </trkpt>
      <trkpt lat="45.8149" lon="1.21453">
        <ele>310</ele>
        <time>2020-09-19T10:40:08.750Z</time>
      </trkpt>
      <trkpt lat="45.81493" lon="1.21454">
        <ele>309</ele>
        <time>2020-09-19T10:40:09.750Z</time>
      </trkpt>
      <trkpt lat="45.81497" lon="1.21455">
        <ele>309</ele>
        <time>2020-09-19T10:40:10.750Z</time>
      </trkpt>
      <trkpt lat="45.815" lon="1.21457">
        <ele>309</ele>
        <time>2020-09-19T10:40:11.750Z</time>
      </trkpt>
      <trkpt lat="45.81504" lon="1.21458">
        <ele>308</ele>
        <time>2020-09-19T10:40:12.750Z</time>
      </trkpt>
      <trkpt lat="45.81508" lon="1.21459">
        <ele>307</ele>
        <time>2020-09-19T10:40:13.750Z</time>
      </trkpt>
      <trkpt lat="45.81511" lon="1.21461">
        <ele>307</ele>
        <time>2020-09-19T10:40:14.750Z</time>
      </trkpt>
      <trkpt lat="45.81515" lon="1.21462">
        <ele>307</ele>
        <time>2020-09-19T10:40:15.750Z</time>
      </trkpt>
      <trkpt lat="45.81518" lon="1.21464">
        <ele>306</ele>
        <time>2020-09-19T10:40:16.750Z</time>
      </trkpt>
      <trkpt lat="45.81522" lon="1.21465">
        <ele>305</ele>
        <time>2020-09-19T10:40:17.750Z</time>
      </trkpt>
      <trkpt lat="45.81525" lon="1.21466">
        <ele>304</ele>
        <time>2020-09-19T10:40:18.750Z</time>
      </trkpt>
      <trkpt lat="45.81528" lon="1.21468">
        <ele>304</ele>
        <time>2020-09-19T10:40:19.750Z</time>
      </trkpt>
      <trkpt lat="45.81532" lon="1.21469">
        <ele>304</ele>
        <time>2020-09-19T10:40:20.750Z</time>
      </trkpt>
      <trkpt lat="45.81535" lon="1.21471">
        <ele>303</ele>
        <time>2020-09-19T10:40:21.750Z</time>
      </trkpt>
      <trkpt lat="45.81539" lon="1.21473">
        <ele>303</ele>
        <time>2020-09-19T10:40:22.750Z</time>
      </trkpt>
      <trkpt lat="45.81543" lon="1.21474">
        <ele>302</ele>
        <time>2020-09-19T10:40:23.750Z</time>
      </trkpt>
      <trkpt lat="45.81546" lon="1.21475">
        <ele>302</ele>
        <time>2020-09-19T10:40:24.750Z</time>
      </trkpt>
      <trkpt lat="45.8155" lon="1.21477">
        <ele>301</ele>
        <time>2020-09-19T10:40:25.750Z</time>
      </trkpt>
      <trkpt lat="45.81553" lon="1.21478">
        <ele>301</ele>
        <time>2020-09-19T10:40:26.750Z</time>
      </trkpt>
      <trkpt lat="45.81557" lon="1.21479">
        <ele>301</ele>
        <time>2020-09-19T10:40:27.750Z</time>
      </trkpt>
      <trkpt lat="45.8156" lon="1.21481">
        <ele>299</ele>
        <time>2020-09-19T10:40:28.750Z</time>
      </trkpt>
      <trkpt lat="45.81564" lon="1.21482">
        <ele>299</ele>
        <time>2020-09-19T10:40:29.750Z</time>
      </trkpt>
      <trkpt lat="45.81567" lon="1.21484">
        <ele>299</ele>
        <time>2020-09-19T10:40:30.750Z</time>
      </trkpt>
      <trkpt lat="45.81571" lon="1.21485">
        <ele>298</ele>
        <time>2020-09-19T10:40:31.750Z</time>
      </trkpt>
      <trkpt lat="45.81574" lon="1.21487">
        <ele>298</ele>
        <time>2020-09-19T10:40:32.750Z</time>
      </trkpt>
      <trkpt lat="45.81578" lon="1.21488">
        <ele>297</ele>
        <time>2020-09-19T10:40:33.750Z</time>
      </trkpt>
      <trkpt lat="45.81581" lon="1.21489">
        <ele>297</ele>
        <time>2020-09-19T10:40:34.750Z</time>
      </trkpt>
      <trkpt lat="45.81585" lon="1.2149">
        <ele>296</ele>
        <time>2020-09-19T10:40:35.750Z</time>
      </trkpt>
      <trkpt lat="45.81588" lon="1.2149">
        <ele>296</ele>
        <time>2020-09-19T10:40:36.750Z</time>
      </trkpt>
      <trkpt lat="45.81592" lon="1.2149">
        <ele>295</ele>
        <time>2020-09-19T10:40:37.750Z</time>
      </trkpt>
      <trkpt lat="45.81595" lon="1.2149">
        <ele>294</ele>
        <time>2020-09-19T10:40:38.750Z</time>
      </trkpt>
      <trkpt lat="45.81598" lon="1.2149">
        <ele>294</ele>
        <time>2020-09-19T10:40:39.750Z</time>
      </trkpt>
      <trkpt lat="45.81601" lon="1.21489">
        <ele>294</ele>
        <time>2020-09-19T10:40:40.750Z</time>
      </trkpt>
      <trkpt lat="45.81605" lon="1.21487">
        <ele>294</ele>
        <time>2020-09-19T10:40:41.750Z</time>
      </trkpt>
      <trkpt lat="45.81608" lon="1.21485">
        <ele>295</ele>
        <time>2020-09-19T10:40:42.750Z</time>
      </trkpt>
      <trkpt lat="45.81611" lon="1.21482">
        <ele>295</ele>
        <time>2020-09-19T10:40:43.750Z</time>
      </trkpt>
      <trkpt lat="45.81614" lon="1.21479">
        <ele>295</ele>
        <time>2020-09-19T10:40:44.750Z</time>
      </trkpt>
      <trkpt lat="45.81616" lon="1.21475">
        <ele>294</ele>
        <time>2020-09-19T10:40:45.750Z</time>
      </trkpt>
      <trkpt lat="45.81619" lon="1.21472">
        <ele>294</ele>
        <time>2020-09-19T10:40:46.750Z</time>
      </trkpt>
      <trkpt lat="45.81622" lon="1.21468">
        <ele>294</ele>
        <time>2020-09-19T10:40:47.750Z</time>
      </trkpt>
      <trkpt lat="45.81624" lon="1.21463">
        <ele>293</ele>
        <time>2020-09-19T10:40:48.750Z</time>
      </trkpt>
      <trkpt lat="45.81626" lon="1.21459">
        <ele>292</ele>
        <time>2020-09-19T10:40:49.750Z</time>
      </trkpt>
      <trkpt lat="45.81627" lon="1.21454">
        <ele>292</ele>
        <time>2020-09-19T10:40:50.750Z</time>
      </trkpt>
      <trkpt lat="45.81628" lon="1.21449">
        <ele>291</ele>
        <time>2020-09-19T10:40:51.750Z</time>
      </trkpt>
      <trkpt lat="45.81629" lon="1.21444">
        <ele>290</ele>
        <time>2020-09-19T10:40:52.750Z</time>
      </trkpt>
      <trkpt lat="45.81629" lon="1.21438">
        <ele>290</ele>
        <time>2020-09-19T10:40:53.750Z</time>
      </trkpt>
      <trkpt lat="45.8163" lon="1.21433">
        <ele>289</ele>
        <time>2020-09-19T10:40:54.750Z</time>
      </trkpt>
      <trkpt lat="45.8163" lon="1.21428">
        <ele>288</ele>
        <time>2020-09-19T10:40:55.750Z</time>
      </trkpt>
      <trkpt lat="45.81631" lon="1.21423">
        <ele>288</ele>
        <time>2020-09-19T10:40:56.750Z</time>
      </trkpt>
      <trkpt lat="45.81631" lon="1.21418">
        <ele>287</ele>
        <time>2020-09-19T10:40:57.750Z</time>
      </trkpt>
      <trkpt lat="45.81632" lon="1.21413">
        <ele>287</ele>
        <time>2020-09-19T10:40:58.750Z</time>
      </trkpt>
      <trkpt lat="45.81632" lon="1.21407">
        <ele>288</ele>
        <time>2020-09-19T10:40:59.750Z</time>
      </trkpt>
      <trkpt lat="45.81632" lon="1.21402">
        <ele>288</ele>
        <time>2020-09-19T10:41:00.750Z</time>
      </trkpt>
      <trkpt lat="45.81631" lon="1.21397">
        <ele>288</ele>
        <time>2020-09-19T10:41:01.750Z</time>
      </trkpt>
      <trkpt lat="45.81631" lon="1.21392">
        <ele>288</ele>
        <time>2020-09-19T10:41:02.750Z</time>
      </trkpt>
      <trkpt lat="45.81631" lon="1.21387">
        <ele>287</ele>
        <time>2020-09-19T10:41:03.750Z</time>
      </trkpt>
      <trkpt lat="45.8163" lon="1.21382">
        <ele>287</ele>
        <time>2020-09-19T10:41:04.750Z</time>
      </trkpt>
      <trkpt lat="45.8163" lon="1.21377">
        <ele>286</ele>
        <time>2020-09-19T10:41:05.750Z</time>
      </trkpt>
      <trkpt lat="45.81629" lon="1.21372">
        <ele>286</ele>
        <time>2020-09-19T10:41:06.750Z</time>
      </trkpt>
      <trkpt lat="45.81628" lon="1.21368">
        <ele>286</ele>
        <time>2020-09-19T10:41:07.750Z</time>
      </trkpt>
      <trkpt lat="45.81627" lon="1.21363">
        <ele>286</ele>
        <time>2020-09-19T10:41:08.750Z</time>
      </trkpt>
      <trkpt lat="45.81627" lon="1.21359">
        <ele>286</ele>
        <time>2020-09-19T10:41:09.750Z</time>
      </trkpt>
      <trkpt lat="45.81626" lon="1.21354">
        <ele>287</ele>
        <time>2020-09-19T10:41:10.750Z</time>
      </trkpt>
      <trkpt lat="45.81625" lon="1.21349">
        <ele>287</ele>
        <time>2020-09-19T10:41:11.750Z</time>
      </trkpt>
      <trkpt lat="45.81624" lon="1.21345">
        <ele>287</ele>
        <time>2020-09-19T10:41:12.750Z</time>
      </trkpt>
      <trkpt lat="45.81624" lon="1.2134">
        <ele>287</ele>
        <time>2020-09-19T10:41:13.750Z</time>
      </trkpt>
      <trkpt lat="45.81623" lon="1.21335">
        <ele>286</ele>
        <time>2020-09-19T10:41:14.750Z</time>
      </trkpt>
      <trkpt lat="45.81623" lon="1.2133">
        <ele>286</ele>
        <time>2020-09-19T10:41:15.750Z</time>
      </trkpt>
      <trkpt lat="45.81622" lon="1.21325">
        <ele>286</ele>
        <time>2020-09-19T10:41:16.750Z</time>
      </trkpt>
      <trkpt lat="45.81621" lon="1.21321">
        <ele>286</ele>
        <time>2020-09-19T10:41:17.750Z</time>
      </trkpt>
      <trkpt lat="45.81621" lon="1.21316">
        <ele>287</ele>
        <time>2020-09-19T10:41:18.750Z</time>
      </trkpt>
      <trkpt lat="45.8162" lon="1.21311">
        <ele>287</ele>
        <time>2020-09-19T10:41:19.750Z</time>
      </trkpt>
      <trkpt lat="45.8162" lon="1.21306">
        <ele>285</ele>
        <time>2020-09-19T10:41:20.750Z</time>
      </trkpt>
      <trkpt lat="45.81619" lon="1.21302">
        <ele>286</ele>
        <time>2020-09-19T10:41:21.750Z</time>
      </trkpt>
      <trkpt lat="45.81619" lon="1.21298">
        <ele>286</ele>
        <time>2020-09-19T10:41:22.750Z</time>
      </trkpt>
      <trkpt lat="45.81618" lon="1.21293">
        <ele>286</ele>
        <time>2020-09-19T10:41:23.750Z</time>
      </trkpt>
      <trkpt lat="45.81617" lon="1.21288">
        <ele>286</ele>
        <time>2020-09-19T10:41:24.750Z</time>
      </trkpt>
      <trkpt lat="45.81617" lon="1.21284">
        <ele>285</ele>
        <time>2020-09-19T10:41:25.750Z</time>
      </trkpt>
      <trkpt lat="45.81616" lon="1.21279">
        <ele>285</ele>
        <time>2020-09-19T10:41:26.750Z</time>
      </trkpt>
      <trkpt lat="45.81615" lon="1.21274">
        <ele>284</ele>
        <time>2020-09-19T10:41:27.750Z</time>
      </trkpt>
      <trkpt lat="45.81614" lon="1.21269">
        <ele>284</ele>
        <time>2020-09-19T10:41:28.750Z</time>
      </trkpt>
      <trkpt lat="45.81614" lon="1.21265">
        <ele>284</ele>
        <time>2020-09-19T10:41:29.750Z</time>
      </trkpt>
      <trkpt lat="45.81614" lon="1.2126">
        <ele>285</ele>
        <time>2020-09-19T10:41:30.750Z</time>
      </trkpt>
      <trkpt lat="45.81613" lon="1.21255">
        <ele>285</ele>
        <time>2020-09-19T10:41:31.750Z</time>
      </trkpt>
      <trkpt lat="45.81613" lon="1.2125">
        <ele>284</ele>
        <time>2020-09-19T10:41:32.750Z</time>
      </trkpt>
      <trkpt lat="45.81612" lon="1.21245">
        <ele>284</ele>
        <time>2020-09-19T10:41:33.750Z</time>
      </trkpt>
      <trkpt lat="45.81612" lon="1.2124">
        <ele>284</ele>
        <time>2020-09-19T10:41:34.750Z</time>
      </trkpt>
      <trkpt lat="45.81611" lon="1.21236">
        <ele>284</ele>
        <time>2020-09-19T10:41:35.750Z</time>
      </trkpt>
      <trkpt lat="45.81611" lon="1.21231">
        <ele>284</ele>
        <time>2020-09-19T10:41:36.750Z</time>
      </trkpt>
      <trkpt lat="45.8161" lon="1.21226">
        <ele>284</ele>
        <time>2020-09-19T10:41:37.750Z</time>
      </trkpt>
      <trkpt lat="45.81609" lon="1.21221">
        <ele>284</ele>
        <time>2020-09-19T10:41:38.750Z</time>
      </trkpt>
      <trkpt lat="45.81609" lon="1.21216">
        <ele>284</ele>
        <time>2020-09-19T10:41:39.750Z</time>
      </trkpt>
      <trkpt lat="45.81608" lon="1.21211">
        <ele>283</ele>
        <time>2020-09-19T10:41:40.750Z</time>
      </trkpt>
      <trkpt lat="45.81608" lon="1.21206">
        <ele>283</ele>
        <time>2020-09-19T10:41:41.750Z</time>
      </trkpt>
      <trkpt lat="45.81607" lon="1.21201">
        <ele>283</ele>
        <time>2020-09-19T10:41:42.750Z</time>
      </trkpt>
      <trkpt lat="45.81606" lon="1.21197">
        <ele>283</ele>
        <time>2020-09-19T10:41:43.750Z</time>
      </trkpt>
      <trkpt lat="45.81605" lon="1.21192">
        <ele>283</ele>
        <time>2020-09-19T10:41:44.750Z</time>
      </trkpt>
      <trkpt lat="45.81605" lon="1.21187">
        <ele>283</ele>
        <time>2020-09-19T10:41:45.750Z</time>
      </trkpt>
      <trkpt lat="45.81604" lon="1.21182">
        <ele>283</ele>
        <time>2020-09-19T10:41:46.750Z</time>
      </trkpt>
      <trkpt lat="45.81604" lon="1.21177">
        <ele>283</ele>
        <time>2020-09-19T10:41:47.750Z</time>
      </trkpt>
      <trkpt lat="45.81603" lon="1.21172">
        <ele>282</ele>
        <time>2020-09-19T10:41:48.750Z</time>
      </trkpt>
      <trkpt lat="45.81603" lon="1.21168">
        <ele>282</ele>
        <time>2020-09-19T10:41:49.750Z</time>
      </trkpt>
      <trkpt lat="45.81602" lon="1.21163">
        <ele>283</ele>
        <time>2020-09-19T10:41:50.750Z</time>
      </trkpt>
      <trkpt lat="45.81601" lon="1.21159">
        <ele>283</ele>
        <time>2020-09-19T10:41:51.750Z</time>
      </trkpt>
      <trkpt lat="45.81601" lon="1.21154">
        <ele>283</ele>
        <time>2020-09-19T10:41:52.750Z</time>
      </trkpt>
      <trkpt lat="45.816" lon="1.2115">
        <ele>283</ele>
        <time>2020-09-19T10:41:53.750Z</time>
      </trkpt>
      <trkpt lat="45.81599" lon="1.21145">
        <ele>283</ele>
        <time>2020-09-19T10:41:54.750Z</time>
      </trkpt>
      <trkpt lat="45.81598" lon="1.2114">
        <ele>283</ele>
        <time>2020-09-19T10:41:55.750Z</time>
      </trkpt>
      <trkpt lat="45.81597" lon="1.21136">
        <ele>283</ele>
        <time>2020-09-19T10:41:56.750Z</time>
      </trkpt>
      <trkpt lat="45.81597" lon="1.21131">
        <ele>283</ele>
        <time>2020-09-19T10:41:57.750Z</time>
      </trkpt>
      <trkpt lat="45.81597" lon="1.21126">
        <ele>283</ele>
        <time>2020-09-19T10:41:58.750Z</time>
      </trkpt>
      <trkpt lat="45.81596" lon="1.21121">
        <ele>283</ele>
        <time>2020-09-19T10:41:59.750Z</time>
      </trkpt>
      <trkpt lat="45.81595" lon="1.21116">
        <ele>284</ele>
        <time>2020-09-19T10:42:00.750Z</time>
      </trkpt>
      <trkpt lat="45.81595" lon="1.21111">
        <ele>283</ele>
        <time>2020-09-19T10:42:01.750Z</time>
      </trkpt>
      <trkpt lat="45.81594" lon="1.21106">
        <ele>283</ele>
        <time>2020-09-19T10:42:02.750Z</time>
      </trkpt>
      <trkpt lat="45.81594" lon="1.21101">
        <ele>283</ele>
        <time>2020-09-19T10:42:03.750Z</time>
      </trkpt>
      <trkpt lat="45.81593" lon="1.21097">
        <ele>284</ele>
        <time>2020-09-19T10:42:04.750Z</time>
      </trkpt>
      <trkpt lat="45.81593" lon="1.21092">
        <ele>283</ele>
        <time>2020-09-19T10:42:05.750Z</time>
      </trkpt>
      <trkpt lat="45.81592" lon="1.21087">
        <ele>283</ele>
        <time>2020-09-19T10:42:06.750Z</time>
      </trkpt>
      <trkpt lat="45.81592" lon="1.21082">
        <ele>283</ele>
        <time>2020-09-19T10:42:07.750Z</time>
      </trkpt>
      <trkpt lat="45.81592" lon="1.21076">
        <ele>283</ele>
        <time>2020-09-19T10:42:08.750Z</time>
      </trkpt>
      <trkpt lat="45.81591" lon="1.21071">
        <ele>283</ele>
        <time>2020-09-19T10:42:09.750Z</time>
      </trkpt>
      <trkpt lat="45.81591" lon="1.21066">
        <ele>282</ele>
        <time>2020-09-19T10:42:10.750Z</time>
      </trkpt>
      <trkpt lat="45.81591" lon="1.21061">
        <ele>282</ele>
        <time>2020-09-19T10:42:11.750Z</time>
      </trkpt>
      <trkpt lat="45.81592" lon="1.21056">
        <ele>282</ele>
        <time>2020-09-19T10:42:12.750Z</time>
      </trkpt>
      <trkpt lat="45.81592" lon="1.21051">
        <ele>281</ele>
        <time>2020-09-19T10:42:13.750Z</time>
      </trkpt>
      <trkpt lat="45.81593" lon="1.21046">
        <ele>281</ele>
        <time>2020-09-19T10:42:14.750Z</time>
      </trkpt>
      <trkpt lat="45.81593" lon="1.21041">
        <ele>280</ele>
        <time>2020-09-19T10:42:15.750Z</time>
      </trkpt>
      <trkpt lat="45.81594" lon="1.21036">
        <ele>279</ele>
        <time>2020-09-19T10:42:16.750Z</time>
      </trkpt>
      <trkpt lat="45.81595" lon="1.21032">
        <ele>278</ele>
        <time>2020-09-19T10:42:17.750Z</time>
      </trkpt>
      <trkpt lat="45.81596" lon="1.21027">
        <ele>278</ele>
        <time>2020-09-19T10:42:18.750Z</time>
      </trkpt>
      <trkpt lat="45.81598" lon="1.21023">
        <ele>278</ele>
        <time>2020-09-19T10:42:19.750Z</time>
      </trkpt>
      <trkpt lat="45.816" lon="1.21019">
        <ele>277</ele>
        <time>2020-09-19T10:42:20.750Z</time>
      </trkpt>
      <trkpt lat="45.81602" lon="1.21015">
        <ele>276</ele>
        <time>2020-09-19T10:42:21.750Z</time>
      </trkpt>
      <trkpt lat="45.81604" lon="1.21011">
        <ele>275</ele>
        <time>2020-09-19T10:42:22.750Z</time>
      </trkpt>
      <trkpt lat="45.81606" lon="1.21007">
        <ele>274</ele>
        <time>2020-09-19T10:42:23.750Z</time>
      </trkpt>
      <trkpt lat="45.81608" lon="1.21003">
        <ele>273</ele>
        <time>2020-09-19T10:42:24.750Z</time>
      </trkpt>
      <trkpt lat="45.81611" lon="1.20999">
        <ele>273</ele>
        <time>2020-09-19T10:42:25.750Z</time>
      </trkpt>
      <trkpt lat="45.81613" lon="1.20995">
        <ele>271</ele>
        <time>2020-09-19T10:42:26.750Z</time>
      </trkpt>
      <trkpt lat="45.81615" lon="1.20992">
        <ele>272</ele>
        <time>2020-09-19T10:42:27.750Z</time>
      </trkpt>
      <trkpt lat="45.81618" lon="1.20989">
        <ele>272</ele>
        <time>2020-09-19T10:42:28.750Z</time>
      </trkpt>
      <trkpt lat="45.81621" lon="1.20986">
        <ele>271</ele>
        <time>2020-09-19T10:42:29.750Z</time>
      </trkpt>
      <trkpt lat="45.81623" lon="1.20982">
        <ele>271</ele>
        <time>2020-09-19T10:42:30.750Z</time>
      </trkpt>
      <trkpt lat="45.81626" lon="1.20978">
        <ele>272</ele>
        <time>2020-09-19T10:42:31.750Z</time>
      </trkpt>
      <trkpt lat="45.81628" lon="1.20974">
        <ele>272</ele>
        <time>2020-09-19T10:42:32.750Z</time>
      </trkpt>
      <trkpt lat="45.8163" lon="1.2097">
        <ele>271</ele>
        <time>2020-09-19T10:42:33.750Z</time>
      </trkpt>
      <trkpt lat="45.81632" lon="1.20966">
        <ele>271</ele>
        <time>2020-09-19T10:42:34.750Z</time>
      </trkpt>
      <trkpt lat="45.81634" lon="1.20961">
        <ele>271</ele>
        <time>2020-09-19T10:42:35.750Z</time>
      </trkpt>
      <trkpt lat="45.81637" lon="1.20957">
        <ele>270</ele>
        <time>2020-09-19T10:42:36.750Z</time>
      </trkpt>
      <trkpt lat="45.81639" lon="1.20953">
        <ele>270</ele>
        <time>2020-09-19T10:42:37.750Z</time>
      </trkpt>
      <trkpt lat="45.81642" lon="1.2095">
        <ele>270</ele>
        <time>2020-09-19T10:42:38.750Z</time>
      </trkpt>
      <trkpt lat="45.81645" lon="1.20946">
        <ele>270</ele>
        <time>2020-09-19T10:42:39.750Z</time>
      </trkpt>
      <trkpt lat="45.81648" lon="1.20943">
        <ele>270</ele>
        <time>2020-09-19T10:42:40.750Z</time>
      </trkpt>
      <trkpt lat="45.81651" lon="1.2094">
        <ele>269</ele>
        <time>2020-09-19T10:42:41.750Z</time>
      </trkpt>
      <trkpt lat="45.81655" lon="1.20937">
        <ele>269</ele>
        <time>2020-09-19T10:42:42.750Z</time>
      </trkpt>
      <trkpt lat="45.81659" lon="1.20935">
        <ele>269</ele>
        <time>2020-09-19T10:42:43.750Z</time>
      </trkpt>
      <trkpt lat="45.81663" lon="1.20933">
        <ele>269</ele>
        <time>2020-09-19T10:42:44.750Z</time>
      </trkpt>
      <trkpt lat="45.81666" lon="1.20932">
        <ele>269</ele>
        <time>2020-09-19T10:42:45.750Z</time>
      </trkpt>
      <trkpt lat="45.8167" lon="1.20931">
        <ele>269</ele>
        <time>2020-09-19T10:42:46.750Z</time>
      </trkpt>
      <trkpt lat="45.81673" lon="1.20931">
        <ele>268</ele>
        <time>2020-09-19T10:42:47.750Z</time>
      </trkpt>
      <trkpt lat="45.81677" lon="1.2093">
        <ele>268</ele>
        <time>2020-09-19T10:42:48.750Z</time>
      </trkpt>
      <trkpt lat="45.8168" lon="1.2093">
        <ele>267</ele>
        <time>2020-09-19T10:42:49.750Z</time>
      </trkpt>
      <trkpt lat="45.81684" lon="1.20929">
        <ele>267</ele>
        <time>2020-09-19T10:42:50.750Z</time>
      </trkpt>
      <trkpt lat="45.81687" lon="1.20928">
        <ele>266</ele>
        <time>2020-09-19T10:42:51.750Z</time>
      </trkpt>
      <trkpt lat="45.81691" lon="1.20928">
        <ele>266</ele>
        <time>2020-09-19T10:42:52.750Z</time>
      </trkpt>
      <trkpt lat="45.81695" lon="1.20928">
        <ele>265</ele>
        <time>2020-09-19T10:42:53.750Z</time>
      </trkpt>
      <trkpt lat="45.81698" lon="1.20927">
        <ele>265</ele>
        <time>2020-09-19T10:42:54.750Z</time>
      </trkpt>
      <trkpt lat="45.81702" lon="1.20927">
        <ele>265</ele>
        <time>2020-09-19T10:42:55.750Z</time>
      </trkpt>
      <trkpt lat="45.81706" lon="1.20927">
        <ele>266</ele>
        <time>2020-09-19T10:42:56.750Z</time>
      </trkpt>
      <trkpt lat="45.81709" lon="1.20927">
        <ele>266</ele>
        <time>2020-09-19T10:42:57.750Z</time>
      </trkpt>
      <trkpt lat="45.81713" lon="1.20927">
        <ele>265</ele>
        <time>2020-09-19T10:42:58.750Z</time>
      </trkpt>
      <trkpt lat="45.81716" lon="1.20926">
        <ele>266</ele>
        <time>2020-09-19T10:42:59.750Z</time>
      </trkpt>
      <trkpt lat="45.8172" lon="1.20926">
        <ele>265</ele>
        <time>2020-09-19T10:43:00.750Z</time>
      </trkpt>
      <trkpt lat="45.81724" lon="1.20925">
        <ele>265</ele>
        <time>2020-09-19T10:43:01.750Z</time>
      </trkpt>
      <trkpt lat="45.81728" lon="1.20925">
        <ele>265</ele>
        <time>2020-09-19T10:43:02.750Z</time>
      </trkpt>
      <trkpt lat="45.81731" lon="1.20925">
        <ele>265</ele>
        <time>2020-09-19T10:43:03.750Z</time>
      </trkpt>
      <trkpt lat="45.81735" lon="1.20925">
        <ele>264</ele>
        <time>2020-09-19T10:43:04.750Z</time>
      </trkpt>
      <trkpt lat="45.81738" lon="1.20925">
        <ele>264</ele>
        <time>2020-09-19T10:43:05.750Z</time>
      </trkpt>
      <trkpt lat="45.81742" lon="1.20925">
        <ele>263</ele>
        <time>2020-09-19T10:43:06.750Z</time>
      </trkpt>
      <trkpt lat="45.81746" lon="1.20925">
        <ele>263</ele>
        <time>2020-09-19T10:43:07.750Z</time>
      </trkpt>
      <trkpt lat="45.81749" lon="1.20924">
        <ele>262</ele>
        <time>2020-09-19T10:43:08.750Z</time>
      </trkpt>
      <trkpt lat="45.81753" lon="1.20924">
        <ele>262</ele>
        <time>2020-09-19T10:43:09.750Z</time>
      </trkpt>
      <trkpt lat="45.81756" lon="1.20924">
        <ele>263</ele>
        <time>2020-09-19T10:43:10.750Z</time>
      </trkpt>
      <trkpt lat="45.8176" lon="1.20924">
        <ele>262</ele>
        <time>2020-09-19T10:43:11.750Z</time>
      </trkpt>
      <trkpt lat="45.81763" lon="1.20923">
        <ele>262</ele>
        <time>2020-09-19T10:43:12.750Z</time>
      </trkpt>
      <trkpt lat="45.81766" lon="1.20923">
        <ele>262</ele>
        <time>2020-09-19T10:43:13.750Z</time>
      </trkpt>
      <trkpt lat="45.8177" lon="1.20923">
        <ele>262</ele>
        <time>2020-09-19T10:43:14.750Z</time>
      </trkpt>
      <trkpt lat="45.81773" lon="1.20923">
        <ele>261</ele>
        <time>2020-09-19T10:43:15.750Z</time>
      </trkpt>
      <trkpt lat="45.81777" lon="1.20923">
        <ele>260</ele>
        <time>2020-09-19T10:43:16.750Z</time>
      </trkpt>
      <trkpt lat="45.8178" lon="1.20923">
        <ele>261</ele>
        <time>2020-09-19T10:43:17.750Z</time>
      </trkpt>
      <trkpt lat="45.81784" lon="1.20923">
        <ele>261</ele>
        <time>2020-09-19T10:43:18.750Z</time>
      </trkpt>
      <trkpt lat="45.81788" lon="1.20923">
        <ele>261</ele>
        <time>2020-09-19T10:43:19.750Z</time>
      </trkpt>
      <trkpt lat="45.81792" lon="1.20923">
        <ele>261</ele>
        <time>2020-09-19T10:43:20.750Z</time>
      </trkpt>
      <trkpt lat="45.81796" lon="1.20923">
        <ele>260</ele>
        <time>2020-09-19T10:43:21.750Z</time>
      </trkpt>
      <trkpt lat="45.818" lon="1.20922">
        <ele>260</ele>
        <time>2020-09-19T10:43:22.750Z</time>
      </trkpt>
      <trkpt lat="45.81803" lon="1.20922">
        <ele>260</ele>
        <time>2020-09-19T10:43:23.750Z</time>
      </trkpt>
      <trkpt lat="45.81807" lon="1.20922">
        <ele>260</ele>
        <time>2020-09-19T10:43:24.750Z</time>
      </trkpt>
      <trkpt lat="45.81811" lon="1.20923">
        <ele>260</ele>
        <time>2020-09-19T10:43:25.750Z</time>
      </trkpt>
      <trkpt lat="45.81815" lon="1.20923">
        <ele>259</ele>
        <time>2020-09-19T10:43:26.750Z</time>
      </trkpt>
      <trkpt lat="45.81818" lon="1.20923">
        <ele>259</ele>
        <time>2020-09-19T10:43:27.750Z</time>
      </trkpt>
      <trkpt lat="45.81822" lon="1.20922">
        <ele>259</ele>
        <time>2020-09-19T10:43:28.750Z</time>
      </trkpt>
      <trkpt lat="45.81826" lon="1.20923">
        <ele>259</ele>
        <time>2020-09-19T10:43:29.750Z</time>
      </trkpt>
      <trkpt lat="45.8183" lon="1.20922">
        <ele>258</ele>
        <time>2020-09-19T10:43:30.750Z</time>
      </trkpt>
      <trkpt lat="45.81833" lon="1.20922">
        <ele>257</ele>
        <time>2020-09-19T10:43:31.750Z</time>
      </trkpt>
      <trkpt lat="45.81837" lon="1.20922">
        <ele>257</ele>
        <time>2020-09-19T10:43:32.750Z</time>
      </trkpt>
      <trkpt lat="45.81841" lon="1.20922">
        <ele>257</ele>
        <time>2020-09-19T10:43:33.750Z</time>
      </trkpt>
      <trkpt lat="45.81845" lon="1.20922">
        <ele>256</ele>
        <time>2020-09-19T10:43:34.750Z</time>
      </trkpt>
      <trkpt lat="45.81848" lon="1.20922">
        <ele>256</ele>
        <time>2020-09-19T10:43:35.750Z</time>
      </trkpt>
      <trkpt lat="45.81852" lon="1.20922">
        <ele>256</ele>
        <time>2020-09-19T10:43:36.750Z</time>
      </trkpt>
      <trkpt lat="45.81855" lon="1.20921">
        <ele>256</ele>
        <time>2020-09-19T10:43:37.750Z</time>
      </trkpt>
      <trkpt lat="45.81859" lon="1.20921">
        <ele>256</ele>
        <time>2020-09-19T10:43:38.750Z</time>
      </trkpt>
      <trkpt lat="45.81862" lon="1.2092">
        <ele>256</ele>
        <time>2020-09-19T10:43:39.750Z</time>
      </trkpt>
      <trkpt lat="45.81866" lon="1.2092">
        <ele>255</ele>
        <time>2020-09-19T10:43:40.750Z</time>
      </trkpt>
      <trkpt lat="45.81869" lon="1.2092">
        <ele>254</ele>
        <time>2020-09-19T10:43:41.750Z</time>
      </trkpt>
      <trkpt lat="45.81873" lon="1.2092">
        <ele>254</ele>
        <time>2020-09-19T10:43:42.750Z</time>
      </trkpt>
      <trkpt lat="45.81877" lon="1.2092">
        <ele>254</ele>
        <time>2020-09-19T10:43:43.750Z</time>
      </trkpt>
      <trkpt lat="45.8188" lon="1.20919">
        <ele>254</ele>
        <time>2020-09-19T10:43:44.750Z</time>
      </trkpt>
      <trkpt lat="45.81884" lon="1.20919">
        <ele>253</ele>
        <time>2020-09-19T10:43:45.750Z</time>
      </trkpt>
      <trkpt lat="45.81887" lon="1.20918">
        <ele>253</ele>
        <time>2020-09-19T10:43:46.750Z</time>
      </trkpt>
      <trkpt lat="45.81891" lon="1.20918">
        <ele>253</ele>
        <time>2020-09-19T10:43:47.750Z</time>
      </trkpt>
      <trkpt lat="45.81894" lon="1.20918">
        <ele>254</ele>
        <time>2020-09-19T10:43:48.750Z</time>
      </trkpt>
      <trkpt lat="45.81898" lon="1.20917">
        <ele>253</ele>
        <time>2020-09-19T10:43:49.750Z</time>
      </trkpt>
      <trkpt lat="45.81901" lon="1.20917">
        <ele>252</ele>
        <time>2020-09-19T10:43:50.750Z</time>
      </trkpt>
      <trkpt lat="45.81905" lon="1.20917">
        <ele>252</ele>
        <time>2020-09-19T10:43:51.750Z</time>
      </trkpt>
      <trkpt lat="45.81909" lon="1.20916">
        <ele>252</ele>
        <time>2020-09-19T10:43:52.750Z</time>
      </trkpt>
      <trkpt lat="45.81912" lon="1.20916">
        <ele>251</ele>
        <time>2020-09-19T10:43:53.750Z</time>
      </trkpt>
      <trkpt lat="45.81916" lon="1.20915">
        <ele>251</ele>
        <time>2020-09-19T10:43:54.750Z</time>
      </trkpt>
      <trkpt lat="45.8192" lon="1.20915">
        <ele>250</ele>
        <time>2020-09-19T10:43:55.750Z</time>
      </trkpt>
      <trkpt lat="45.81923" lon="1.20915">
        <ele>249</ele>
        <time>2020-09-19T10:43:56.750Z</time>
      </trkpt>
      <trkpt lat="45.81927" lon="1.20915">
        <ele>250</ele>
        <time>2020-09-19T10:43:57.750Z</time>
      </trkpt>
      <trkpt lat="45.81931" lon="1.20915">
        <ele>250</ele>
        <time>2020-09-19T10:43:58.750Z</time>
      </trkpt>
      <trkpt lat="45.81934" lon="1.20916">
        <ele>250</ele>
        <time>2020-09-19T10:43:59.750Z</time>
      </trkpt>
      <trkpt lat="45.81938" lon="1.20916">
        <ele>249</ele>
        <time>2020-09-19T10:44:00.750Z</time>
      </trkpt>
      <trkpt lat="45.81942" lon="1.20916">
        <ele>249</ele>
        <time>2020-09-19T10:44:01.750Z</time>
      </trkpt>
      <trkpt lat="45.81945" lon="1.20915">
        <ele>248</ele>
        <time>2020-09-19T10:44:02.750Z</time>
      </trkpt>
      <trkpt lat="45.81949" lon="1.20915">
        <ele>248</ele>
        <time>2020-09-19T10:44:03.750Z</time>
      </trkpt>
      <trkpt lat="45.81952" lon="1.20915">
        <ele>247</ele>
        <time>2020-09-19T10:44:04.750Z</time>
      </trkpt>
      <trkpt lat="45.81956" lon="1.20914">
        <ele>247</ele>
        <time>2020-09-19T10:44:05.750Z</time>
      </trkpt>
      <trkpt lat="45.8196" lon="1.20914">
        <ele>247</ele>
        <time>2020-09-19T10:44:06.750Z</time>
      </trkpt>
      <trkpt lat="45.81963" lon="1.20914">
        <ele>247</ele>
        <time>2020-09-19T10:44:07.750Z</time>
      </trkpt>
      <trkpt lat="45.81967" lon="1.20915">
        <ele>247</ele>
        <time>2020-09-19T10:44:08.750Z</time>
      </trkpt>
      <trkpt lat="45.8197" lon="1.20915">
        <ele>247</ele>
        <time>2020-09-19T10:44:09.750Z</time>
      </trkpt>
      <trkpt lat="45.81974" lon="1.20915">
        <ele>247</ele>
        <time>2020-09-19T10:44:10.750Z</time>
      </trkpt>
      <trkpt lat="45.81977" lon="1.20914">
        <ele>246</ele>
        <time>2020-09-19T10:44:11.750Z</time>
      </trkpt>
      <trkpt lat="45.81981" lon="1.20914">
        <ele>246</ele>
        <time>2020-09-19T10:44:12.750Z</time>
      </trkpt>
      <trkpt lat="45.81984" lon="1.20914">
        <ele>245</ele>
        <time>2020-09-19T10:44:13.750Z</time>
      </trkpt>
      <trkpt lat="45.81987" lon="1.20914">
        <ele>244</ele>
        <time>2020-09-19T10:44:14.750Z</time>
      </trkpt>
      <trkpt lat="45.8199" lon="1.20913">
        <ele>244</ele>
        <time>2020-09-19T10:44:15.750Z</time>
      </trkpt>
      <trkpt lat="45.81993" lon="1.20913">
        <ele>244</ele>
        <time>2020-09-19T10:44:16.750Z</time>
      </trkpt>
      <trkpt lat="45.81997" lon="1.20913">
        <ele>244</ele>
        <time>2020-09-19T10:44:17.750Z</time>
      </trkpt>
      <trkpt lat="45.82" lon="1.20913">
        <ele>244</ele>
        <time>2020-09-19T10:44:18.750Z</time>
      </trkpt>
      <trkpt lat="45.82003" lon="1.20913">
        <ele>243</ele>
        <time>2020-09-19T10:44:19.750Z</time>
      </trkpt>
      <trkpt lat="45.82006" lon="1.20912">
        <ele>243</ele>
        <time>2020-09-19T10:44:20.750Z</time>
      </trkpt>
      <trkpt lat="45.82007" lon="1.20911">
        <ele>241</ele>
        <time>2020-09-19T10:44:21.750Z</time>
      </trkpt>
      <trkpt lat="45.82007" lon="1.2091">
        <ele>240</ele>
        <time>2020-09-19T10:44:22.750Z</time>
      </trkpt>
      <trkpt lat="45.82007" lon="1.20911">
        <ele>238</ele>
        <time>2020-09-19T10:44:23.750Z</time>
      </trkpt>
      <trkpt lat="45.82006" lon="1.20912">
        <ele>238</ele>
        <time>2020-09-19T10:44:24.750Z</time>
      </trkpt>
      <trkpt lat="45.82004" lon="1.20914">
        <ele>239</ele>
        <time>2020-09-19T10:44:25.750Z</time>
      </trkpt>
      <trkpt lat="45.82002" lon="1.20915">
        <ele>239</ele>
        <time>2020-09-19T10:44:26.750Z</time>
      </trkpt>
      <trkpt lat="45.81999" lon="1.20915">
        <ele>239</ele>
        <time>2020-09-19T10:44:27.750Z</time>
      </trkpt>
      <trkpt lat="45.81997" lon="1.20915">
        <ele>238</ele>
        <time>2020-09-19T10:44:28.750Z</time>
      </trkpt>
      <trkpt lat="45.81994" lon="1.20916">
        <ele>238</ele>
        <time>2020-09-19T10:44:29.750Z</time>
      </trkpt>
      <trkpt lat="45.8199" lon="1.20917">
        <ele>239</ele>
        <time>2020-09-19T10:44:30.750Z</time>
      </trkpt>
      <trkpt lat="45.81987" lon="1.20917">
        <ele>239</ele>
        <time>2020-09-19T10:44:31.750Z</time>
      </trkpt>
      <trkpt lat="45.81983" lon="1.20918">
        <ele>239</ele>
        <time>2020-09-19T10:44:32.750Z</time>
      </trkpt>
      <trkpt lat="45.81979" lon="1.20918">
        <ele>239</ele>
        <time>2020-09-19T10:44:33.750Z</time>
      </trkpt>
      <trkpt lat="45.81976" lon="1.20918">
        <ele>239</ele>
        <time>2020-09-19T10:44:34.750Z</time>
      </trkpt>
      <trkpt lat="45.81972" lon="1.20918">
        <ele>239</ele>
        <time>2020-09-19T10:44:35.750Z</time>
      </trkpt>
      <trkpt lat="45.81969" lon="1.20918">
        <ele>239</ele>
        <time>2020-09-19T10:44:36.750Z</time>
      </trkpt>
      <trkpt lat="45.81966" lon="1.20919">
        <ele>240</ele>
        <time>2020-09-19T10:44:37.750Z</time>
      </trkpt>
      <trkpt lat="45.81962" lon="1.20919">
        <ele>240</ele>
        <time>2020-09-19T10:44:38.750Z</time>
      </trkpt>
      <trkpt lat="45.81959" lon="1.20919">
        <ele>241</ele>
        <time>2020-09-19T10:44:39.750Z</time>
      </trkpt>
      <trkpt lat="45.81956" lon="1.20919">
        <ele>241</ele>
        <time>2020-09-19T10:44:40.750Z</time>
      </trkpt>
      <trkpt lat="45.81952" lon="1.2092">
        <ele>241</ele>
        <time>2020-09-19T10:44:41.750Z</time>
      </trkpt>
      <trkpt lat="45.81949" lon="1.2092">
        <ele>241</ele>
        <time>2020-09-19T10:44:42.750Z</time>
      </trkpt>
      <trkpt lat="45.81946" lon="1.2092">
        <ele>242</ele>
        <time>2020-09-19T10:44:43.750Z</time>
      </trkpt>
      <trkpt lat="45.81943" lon="1.2092">
        <ele>243</ele>
        <time>2020-09-19T10:44:44.750Z</time>
      </trkpt>
      <trkpt lat="45.81939" lon="1.2092">
        <ele>242</ele>
        <time>2020-09-19T10:44:45.750Z</time>
      </trkpt>
      <trkpt lat="45.81936" lon="1.20921">
        <ele>243</ele>
        <time>2020-09-19T10:44:46.750Z</time>
      </trkpt>
      <trkpt lat="45.81932" lon="1.20921">
        <ele>242</ele>
        <time>2020-09-19T10:44:47.750Z</time>
      </trkpt>
      <trkpt lat="45.81929" lon="1.20921">
        <ele>242</ele>
        <time>2020-09-19T10:44:48.750Z</time>
      </trkpt>
      <trkpt lat="45.81926" lon="1.20922">
        <ele>243</ele>
        <time>2020-09-19T10:44:49.750Z</time>
      </trkpt>
      <trkpt lat="45.81923" lon="1.20922">
        <ele>242</ele>
        <time>2020-09-19T10:44:50.750Z</time>
      </trkpt>
      <trkpt lat="45.8192" lon="1.20922">
        <ele>242</ele>
        <time>2020-09-19T10:44:51.750Z</time>
      </trkpt>
      <trkpt lat="45.81917" lon="1.20923">
        <ele>241</ele>
        <time>2020-09-19T10:44:52.750Z</time>
      </trkpt>
      <trkpt lat="45.81914" lon="1.20923">
        <ele>241</ele>
        <time>2020-09-19T10:44:53.750Z</time>
      </trkpt>
      <trkpt lat="45.8191" lon="1.20924">
        <ele>241</ele>
        <time>2020-09-19T10:44:54.750Z</time>
      </trkpt>
      <trkpt lat="45.81907" lon="1.20924">
        <ele>241</ele>
        <time>2020-09-19T10:44:55.750Z</time>
      </trkpt>
      <trkpt lat="45.81904" lon="1.20924">
        <ele>241</ele>
        <time>2020-09-19T10:44:56.750Z</time>
      </trkpt>
      <trkpt lat="45.81901" lon="1.20924">
        <ele>242</ele>
        <time>2020-09-19T10:44:57.750Z</time>
      </trkpt>
      <trkpt lat="45.81898" lon="1.20924">
        <ele>243</ele>
        <time>2020-09-19T10:44:58.750Z</time>
      </trkpt>
      <trkpt lat="45.81895" lon="1.20924">
        <ele>243</ele>
        <time>2020-09-19T10:44:59.750Z</time>
      </trkpt>
      <trkpt lat="45.81892" lon="1.20925">
        <ele>243</ele>
        <time>2020-09-19T10:45:00.750Z</time>
      </trkpt>
      <trkpt lat="45.81889" lon="1.20925">
        <ele>242</ele>
        <time>2020-09-19T10:45:01.750Z</time>
      </trkpt>
      <trkpt lat="45.81886" lon="1.20926">
        <ele>242</ele>
        <time>2020-09-19T10:45:02.750Z</time>
      </trkpt>
      <trkpt lat="45.81883" lon="1.20926">
        <ele>242</ele>
        <time>2020-09-19T10:45:03.750Z</time>
      </trkpt>
      <trkpt lat="45.8188" lon="1.20927">
        <ele>242</ele>
        <time>2020-09-19T10:45:04.750Z</time>
      </trkpt>
      <trkpt lat="45.81877" lon="1.20927">
        <ele>242</ele>
        <time>2020-09-19T10:45:05.750Z</time>
      </trkpt>
      <trkpt lat="45.81874" lon="1.20927">
        <ele>241</ele>
        <time>2020-09-19T10:45:06.750Z</time>
      </trkpt>
      <trkpt lat="45.81871" lon="1.20927">
        <ele>242</ele>
        <time>2020-09-19T10:45:07.750Z</time>
      </trkpt>
      <trkpt lat="45.81868" lon="1.20928">
        <ele>242</ele>
        <time>2020-09-19T10:45:08.750Z</time>
      </trkpt>
      <trkpt lat="45.81865" lon="1.20928">
        <ele>243</ele>
        <time>2020-09-19T10:45:09.750Z</time>
      </trkpt>
      <trkpt lat="45.81862" lon="1.20928">
        <ele>242</ele>
        <time>2020-09-19T10:45:10.750Z</time>
      </trkpt>
      <trkpt lat="45.81859" lon="1.20929">
        <ele>242</ele>
        <time>2020-09-19T10:45:11.750Z</time>
      </trkpt>
      <trkpt lat="45.81856" lon="1.20929">
        <ele>242</ele>
        <time>2020-09-19T10:45:12.750Z</time>
      </trkpt>
      <trkpt lat="45.81853" lon="1.20929">
        <ele>242</ele>
        <time>2020-09-19T10:45:13.750Z</time>
      </trkpt>
      <trkpt lat="45.8185" lon="1.20929">
        <ele>242</ele>
        <time>2020-09-19T10:45:14.750Z</time>
      </trkpt>
      <trkpt lat="45.81847" lon="1.2093">
        <ele>243</ele>
        <time>2020-09-19T10:45:15.750Z</time>
      </trkpt>
      <trkpt lat="45.81844" lon="1.2093">
        <ele>243</ele>
        <time>2020-09-19T10:45:16.750Z</time>
      </trkpt>
      <trkpt lat="45.81841" lon="1.20929">
        <ele>242</ele>
        <time>2020-09-19T10:45:17.750Z</time>
      </trkpt>
      <trkpt lat="45.81838" lon="1.20929">
        <ele>241</ele>
        <time>2020-09-19T10:45:18.750Z</time>
      </trkpt>
      <trkpt lat="45.81836" lon="1.20929">
        <ele>241</ele>
        <time>2020-09-19T10:45:19.750Z</time>
      </trkpt>
      <trkpt lat="45.81833" lon="1.20929">
        <ele>240</ele>
        <time>2020-09-19T10:45:20.750Z</time>
      </trkpt>
      <trkpt lat="45.8183" lon="1.20929">
        <ele>241</ele>
        <time>2020-09-19T10:45:21.750Z</time>
      </trkpt>
      <trkpt lat="45.81827" lon="1.2093">
        <ele>241</ele>
        <time>2020-09-19T10:45:22.750Z</time>
      </trkpt>
      <trkpt lat="45.81824" lon="1.2093">
        <ele>242</ele>
        <time>2020-09-19T10:45:23.750Z</time>
      </trkpt>
      <trkpt lat="45.8182" lon="1.20931">
        <ele>243</ele>
        <time>2020-09-19T10:45:24.750Z</time>
      </trkpt>
      <trkpt lat="45.81817" lon="1.20931">
        <ele>244</ele>
        <time>2020-09-19T10:45:25.750Z</time>
      </trkpt>
      <trkpt lat="45.81813" lon="1.2093">
        <ele>245</ele>
        <time>2020-09-19T10:45:26.750Z</time>
      </trkpt>
      <trkpt lat="45.8181" lon="1.2093">
        <ele>246</ele>
        <time>2020-09-19T10:45:27.750Z</time>
      </trkpt>
      <trkpt lat="45.81807" lon="1.20931">
        <ele>246</ele>
        <time>2020-09-19T10:45:28.750Z</time>
      </trkpt>
      <trkpt lat="45.81804" lon="1.20931">
        <ele>246</ele>
        <time>2020-09-19T10:45:29.750Z</time>
      </trkpt>
      <trkpt lat="45.81801" lon="1.20931">
        <ele>246</ele>
        <time>2020-09-19T10:45:30.750Z</time>
      </trkpt>
      <trkpt lat="45.81798" lon="1.20932">
        <ele>246</ele>
        <time>2020-09-19T10:45:31.750Z</time>
      </trkpt>
      <trkpt lat="45.81795" lon="1.20932">
        <ele>247</ele>
        <time>2020-09-19T10:45:32.750Z</time>
      </trkpt>
      <trkpt lat="45.81792" lon="1.20932">
        <ele>247</ele>
        <time>2020-09-19T10:45:33.750Z</time>
      </trkpt>
      <trkpt lat="45.81789" lon="1.20932">
        <ele>247</ele>
        <time>2020-09-19T10:45:34.750Z</time>
      </trkpt>
      <trkpt lat="45.81786" lon="1.20932">
        <ele>247</ele>
        <time>2020-09-19T10:45:35.750Z</time>
      </trkpt>
      <trkpt lat="45.81782" lon="1.20932">
        <ele>249</ele>
        <time>2020-09-19T10:45:36.750Z</time>
      </trkpt>
      <trkpt lat="45.81779" lon="1.20932">
        <ele>251</ele>
        <time>2020-09-19T10:45:37.750Z</time>
      </trkpt>
      <trkpt lat="45.81775" lon="1.20933">
        <ele>251</ele>
        <time>2020-09-19T10:45:38.750Z</time>
      </trkpt>
      <trkpt lat="45.81772" lon="1.20933">
        <ele>252</ele>
        <time>2020-09-19T10:45:39.750Z</time>
      </trkpt>
      <trkpt lat="45.81768" lon="1.20933">
        <ele>253</ele>
        <time>2020-09-19T10:45:40.750Z</time>
      </trkpt>
      <trkpt lat="45.81765" lon="1.20934">
        <ele>253</ele>
        <time>2020-09-19T10:45:41.750Z</time>
      </trkpt>
      <trkpt lat="45.81762" lon="1.20934">
        <ele>254</ele>
        <time>2020-09-19T10:45:42.750Z</time>
      </trkpt>
      <trkpt lat="45.81759" lon="1.20934">
        <ele>254</ele>
        <time>2020-09-19T10:45:43.750Z</time>
      </trkpt>
      <trkpt lat="45.81756" lon="1.20934">
        <ele>253</ele>
        <time>2020-09-19T10:45:44.750Z</time>
      </trkpt>
      <trkpt lat="45.81753" lon="1.20934">
        <ele>254</ele>
        <time>2020-09-19T10:45:45.750Z</time>
      </trkpt>
      <trkpt lat="45.8175" lon="1.20934">
        <ele>254</ele>
        <time>2020-09-19T10:45:46.750Z</time>
      </trkpt>
      <trkpt lat="45.81747" lon="1.20934">
        <ele>255</ele>
        <time>2020-09-19T10:45:47.750Z</time>
      </trkpt>
      <trkpt lat="45.81744" lon="1.20935">
        <ele>255</ele>
        <time>2020-09-19T10:45:48.750Z</time>
      </trkpt>
      <trkpt lat="45.81741" lon="1.20936">
        <ele>255</ele>
        <time>2020-09-19T10:45:49.750Z</time>
      </trkpt>
      <trkpt lat="45.81738" lon="1.20936">
        <ele>255</ele>
        <time>2020-09-19T10:45:50.750Z</time>
      </trkpt>
      <trkpt lat="45.81736" lon="1.20937">
        <ele>255</ele>
        <time>2020-09-19T10:45:51.750Z</time>
      </trkpt>
      <trkpt lat="45.81733" lon="1.20936">
        <ele>255</ele>
        <time>2020-09-19T10:45:52.750Z</time>
      </trkpt>
      <trkpt lat="45.8173" lon="1.20936">
        <ele>255</ele>
        <time>2020-09-19T10:45:53.750Z</time>
      </trkpt>
      <trkpt lat="45.81727" lon="1.20936">
        <ele>255</ele>
        <time>2020-09-19T10:45:54.750Z</time>
      </trkpt>
      <trkpt lat="45.81724" lon="1.20937">
        <ele>255</ele>
        <time>2020-09-19T10:45:55.750Z</time>
      </trkpt>
      <trkpt lat="45.81721" lon="1.20937">
        <ele>255</ele>
        <time>2020-09-19T10:45:56.750Z</time>
      </trkpt>
      <trkpt lat="45.81718" lon="1.20937">
        <ele>256</ele>
        <time>2020-09-19T10:45:57.750Z</time>
      </trkpt>
      <trkpt lat="45.81715" lon="1.20937">
        <ele>256</ele>
        <time>2020-09-19T10:45:58.750Z</time>
      </trkpt>
      <trkpt lat="45.81712" lon="1.20937">
        <ele>256</ele>
        <time>2020-09-19T10:45:59.750Z</time>
      </trkpt>
      <trkpt lat="45.81709" lon="1.20937">
        <ele>257</ele>
        <time>2020-09-19T10:46:00.750Z</time>
      </trkpt>
      <trkpt lat="45.81706" lon="1.20938">
        <ele>256</ele>
        <time>2020-09-19T10:46:01.750Z</time>
      </trkpt>
      <trkpt lat="45.81704" lon="1.20938">
        <ele>255</ele>
        <time>2020-09-19T10:46:02.750Z</time>
      </trkpt>
      <trkpt lat="45.81701" lon="1.20939">
        <ele>255</ele>
        <time>2020-09-19T10:46:03.750Z</time>
      </trkpt>
      <trkpt lat="45.81698" lon="1.20939">
        <ele>256</ele>
        <time>2020-09-19T10:46:04.750Z</time>
      </trkpt>
      <trkpt lat="45.81695" lon="1.20939">
        <ele>256</ele>
        <time>2020-09-19T10:46:05.750Z</time>
      </trkpt>
      <trkpt lat="45.81692" lon="1.20939">
        <ele>256</ele>
        <time>2020-09-19T10:46:06.750Z</time>
      </trkpt>
      <trkpt lat="45.81689" lon="1.20939">
        <ele>257</ele>
        <time>2020-09-19T10:46:07.750Z</time>
      </trkpt>
      <trkpt lat="45.81686" lon="1.20939">
        <ele>258</ele>
        <time>2020-09-19T10:46:08.750Z</time>
      </trkpt>
      <trkpt lat="45.81683" lon="1.20939">
        <ele>259</ele>
        <time>2020-09-19T10:46:09.750Z</time>
      </trkpt>
      <trkpt lat="45.81679" lon="1.20939">
        <ele>259</ele>
        <time>2020-09-19T10:46:10.750Z</time>
      </trkpt>
      <trkpt lat="45.81676" lon="1.2094">
        <ele>260</ele>
        <time>2020-09-19T10:46:11.750Z</time>
      </trkpt>
      <trkpt lat="45.81673" lon="1.2094">
        <ele>261</ele>
        <time>2020-09-19T10:46:12.750Z</time>
      </trkpt>
      <trkpt lat="45.8167" lon="1.20941">
        <ele>261</ele>
        <time>2020-09-19T10:46:13.750Z</time>
      </trkpt>
      <trkpt lat="45.81667" lon="1.20941">
        <ele>261</ele>
        <time>2020-09-19T10:46:14.750Z</time>
      </trkpt>
      <trkpt lat="45.81664" lon="1.20942">
        <ele>262</ele>
        <time>2020-09-19T10:46:15.750Z</time>
      </trkpt>
      <trkpt lat="45.81661" lon="1.20943">
        <ele>263</ele>
        <time>2020-09-19T10:46:16.750Z</time>
      </trkpt>
      <trkpt lat="45.81658" lon="1.20944">
        <ele>263</ele>
        <time>2020-09-19T10:46:17.750Z</time>
      </trkpt>
      <trkpt lat="45.81656" lon="1.20946">
        <ele>264</ele>
        <time>2020-09-19T10:46:18.750Z</time>
      </trkpt>
      <trkpt lat="45.81653" lon="1.20948">
        <ele>264</ele>
        <time>2020-09-19T10:46:19.750Z</time>
      </trkpt>
      <trkpt lat="45.8165" lon="1.2095">
        <ele>265</ele>
        <time>2020-09-19T10:46:20.750Z</time>
      </trkpt>
      <trkpt lat="45.81648" lon="1.20952">
        <ele>265</ele>
        <time>2020-09-19T10:46:21.750Z</time>
      </trkpt>
      <trkpt lat="45.81645" lon="1.20955">
        <ele>264</ele>
        <time>2020-09-19T10:46:22.750Z</time>
      </trkpt>
      <trkpt lat="45.81643" lon="1.20957">
        <ele>265</ele>
        <time>2020-09-19T10:46:23.750Z</time>
      </trkpt>
      <trkpt lat="45.81641" lon="1.2096">
        <ele>265</ele>
        <time>2020-09-19T10:46:24.750Z</time>
      </trkpt>
      <trkpt lat="45.81639" lon="1.20964">
        <ele>266</ele>
        <time>2020-09-19T10:46:25.750Z</time>
      </trkpt>
      <trkpt lat="45.81637" lon="1.20967">
        <ele>267</ele>
        <time>2020-09-19T10:46:26.750Z</time>
      </trkpt>
      <trkpt lat="45.81636" lon="1.20971">
        <ele>267</ele>
        <time>2020-09-19T10:46:27.750Z</time>
      </trkpt>
      <trkpt lat="45.81634" lon="1.20975">
        <ele>268</ele>
        <time>2020-09-19T10:46:28.750Z</time>
      </trkpt>
      <trkpt lat="45.81633" lon="1.20978">
        <ele>269</ele>
        <time>2020-09-19T10:46:29.750Z</time>
      </trkpt>
      <trkpt lat="45.81631" lon="1.20982">
        <ele>269</ele>
        <time>2020-09-19T10:46:30.750Z</time>
      </trkpt>
      <trkpt lat="45.81629" lon="1.20986">
        <ele>269</ele>
        <time>2020-09-19T10:46:31.750Z</time>
      </trkpt>
      <trkpt lat="45.81627" lon="1.20989">
        <ele>269</ele>
        <time>2020-09-19T10:46:32.750Z</time>
      </trkpt>
      <trkpt lat="45.81626" lon="1.20993">
        <ele>270</ele>
        <time>2020-09-19T10:46:33.750Z</time>
      </trkpt>
      <trkpt lat="45.81625" lon="1.20997">
        <ele>270</ele>
        <time>2020-09-19T10:46:34.750Z</time>
      </trkpt>
      <trkpt lat="45.81623" lon="1.21">
        <ele>270</ele>
        <time>2020-09-19T10:46:35.750Z</time>
      </trkpt>
      <trkpt lat="45.81622" lon="1.21003">
        <ele>270</ele>
        <time>2020-09-19T10:46:36.750Z</time>
      </trkpt>
      <trkpt lat="45.81621" lon="1.21007">
        <ele>270</ele>
        <time>2020-09-19T10:46:37.750Z</time>
      </trkpt>
      <trkpt lat="45.81619" lon="1.2101">
        <ele>271</ele>
        <time>2020-09-19T10:46:38.750Z</time>
      </trkpt>
      <trkpt lat="45.81617" lon="1.21012">
        <ele>271</ele>
        <time>2020-09-19T10:46:39.750Z</time>
      </trkpt>
      <trkpt lat="45.81614" lon="1.21013">
        <ele>270</ele>
        <time>2020-09-19T10:46:40.750Z</time>
      </trkpt>
      <trkpt lat="45.81612" lon="1.21014">
        <ele>272</ele>
        <time>2020-09-19T10:46:41.750Z</time>
      </trkpt>
      <trkpt lat="45.81609" lon="1.21016">
        <ele>272</ele>
        <time>2020-09-19T10:46:42.750Z</time>
      </trkpt>
      <trkpt lat="45.81607" lon="1.21018">
        <ele>272</ele>
        <time>2020-09-19T10:46:43.750Z</time>
      </trkpt>
      <trkpt lat="45.81605" lon="1.2102">
        <ele>273</ele>
        <time>2020-09-19T10:46:44.750Z</time>
      </trkpt>
      <trkpt lat="45.81603" lon="1.21023">
        <ele>274</ele>
        <time>2020-09-19T10:46:45.750Z</time>
      </trkpt>
      <trkpt lat="45.81602" lon="1.21027">
        <ele>274</ele>
        <time>2020-09-19T10:46:46.750Z</time>
      </trkpt>
      <trkpt lat="45.81601" lon="1.21031">
        <ele>274</ele>
        <time>2020-09-19T10:46:47.750Z</time>
      </trkpt>
      <trkpt lat="45.816" lon="1.21034">
        <ele>275</ele>
        <time>2020-09-19T10:46:48.750Z</time>
      </trkpt>
      <trkpt lat="45.81599" lon="1.21038">
        <ele>275</ele>
        <time>2020-09-19T10:46:49.750Z</time>
      </trkpt>
      <trkpt lat="45.81598" lon="1.21042">
        <ele>276</ele>
        <time>2020-09-19T10:46:50.750Z</time>
      </trkpt>
      <trkpt lat="45.81597" lon="1.21046">
        <ele>276</ele>
        <time>2020-09-19T10:46:51.750Z</time>
      </trkpt>
      <trkpt lat="45.81596" lon="1.21049">
        <ele>276</ele>
        <time>2020-09-19T10:46:52.750Z</time>
      </trkpt>
      <trkpt lat="45.81595" lon="1.21053">
        <ele>276</ele>
        <time>2020-09-19T10:46:53.750Z</time>
      </trkpt>
      <trkpt lat="45.81595" lon="1.21056">
        <ele>276</ele>
        <time>2020-09-19T10:46:54.750Z</time>
      </trkpt>
      <trkpt lat="45.81594" lon="1.2106">
        <ele>276</ele>
        <time>2020-09-19T10:46:55.750Z</time>
      </trkpt>
      <trkpt lat="45.81593" lon="1.21063">
        <ele>277</ele>
        <time>2020-09-19T10:46:56.750Z</time>
      </trkpt>
      <trkpt lat="45.81593" lon="1.21067">
        <ele>277</ele>
        <time>2020-09-19T10:46:57.750Z</time>
      </trkpt>
      <trkpt lat="45.81593" lon="1.21071">
        <ele>277</ele>
        <time>2020-09-19T10:46:58.750Z</time>
      </trkpt>
      <trkpt lat="45.81593" lon="1.21074">
        <ele>278</ele>
        <time>2020-09-19T10:46:59.750Z</time>
      </trkpt>
      <trkpt lat="45.81593" lon="1.21078">
        <ele>279</ele>
        <time>2020-09-19T10:47:00.750Z</time>
      </trkpt>
      <trkpt lat="45.81593" lon="1.21082">
        <ele>278</ele>
        <time>2020-09-19T10:47:01.750Z</time>
      </trkpt>
      <trkpt lat="45.81593" lon="1.21086">
        <ele>278</ele>
        <time>2020-09-19T10:47:02.750Z</time>
      </trkpt>
      <trkpt lat="45.81594" lon="1.2109">
        <ele>279</ele>
        <time>2020-09-19T10:47:03.750Z</time>
      </trkpt>
      <trkpt lat="45.81594" lon="1.21094">
        <ele>279</ele>
        <time>2020-09-19T10:47:04.750Z</time>
      </trkpt>
      <trkpt lat="45.81594" lon="1.21098">
        <ele>279</ele>
        <time>2020-09-19T10:47:05.750Z</time>
      </trkpt>
      <trkpt lat="45.81595" lon="1.21102">
        <ele>279</ele>
        <time>2020-09-19T10:47:06.750Z</time>
      </trkpt>
      <trkpt lat="45.81595" lon="1.21107">
        <ele>279</ele>
        <time>2020-09-19T10:47:07.750Z</time>
      </trkpt>
      <trkpt lat="45.81595" lon="1.21111">
        <ele>279</ele>
        <time>2020-09-19T10:47:08.750Z</time>
      </trkpt>
      <trkpt lat="45.81595" lon="1.21116">
        <ele>279</ele>
        <time>2020-09-19T10:47:09.750Z</time>
      </trkpt>
      <trkpt lat="45.81596" lon="1.21121">
        <ele>279</ele>
        <time>2020-09-19T10:47:10.750Z</time>
      </trkpt>
      <trkpt lat="45.81596" lon="1.21126">
        <ele>279</ele>
        <time>2020-09-19T10:47:11.750Z</time>
      </trkpt>
      <trkpt lat="45.81597" lon="1.2113">
        <ele>280</ele>
        <time>2020-09-19T10:47:12.750Z</time>
      </trkpt>
      <trkpt lat="45.81598" lon="1.21135">
        <ele>280</ele>
        <time>2020-09-19T10:47:13.750Z</time>
      </trkpt>
      <trkpt lat="45.81599" lon="1.2114">
        <ele>280</ele>
        <time>2020-09-19T10:47:14.750Z</time>
      </trkpt>
      <trkpt lat="45.816" lon="1.21145">
        <ele>279</ele>
        <time>2020-09-19T10:47:15.750Z</time>
      </trkpt>
      <trkpt lat="45.816" lon="1.2115">
        <ele>280</ele>
        <time>2020-09-19T10:47:16.750Z</time>
      </trkpt>
      <trkpt lat="45.81601" lon="1.21155">
        <ele>280</ele>
        <time>2020-09-19T10:47:17.750Z</time>
      </trkpt>
      <trkpt lat="45.81602" lon="1.2116">
        <ele>280</ele>
        <time>2020-09-19T10:47:18.750Z</time>
      </trkpt>
      <trkpt lat="45.81603" lon="1.21165">
        <ele>280</ele>
        <time>2020-09-19T10:47:19.750Z</time>
      </trkpt>
      <trkpt lat="45.81604" lon="1.2117">
        <ele>280</ele>
        <time>2020-09-19T10:47:20.750Z</time>
      </trkpt>
      <trkpt lat="45.81604" lon="1.21175">
        <ele>281</ele>
        <time>2020-09-19T10:47:21.750Z</time>
      </trkpt>
      <trkpt lat="45.81605" lon="1.21179">
        <ele>281</ele>
        <time>2020-09-19T10:47:22.750Z</time>
      </trkpt>
      <trkpt lat="45.81606" lon="1.21184">
        <ele>282</ele>
        <time>2020-09-19T10:47:23.750Z</time>
      </trkpt>
      <trkpt lat="45.81607" lon="1.21189">
        <ele>282</ele>
        <time>2020-09-19T10:47:24.750Z</time>
      </trkpt>
      <trkpt lat="45.81608" lon="1.21193">
        <ele>283</ele>
        <time>2020-09-19T10:47:25.750Z</time>
      </trkpt>
      <trkpt lat="45.81609" lon="1.21198">
        <ele>283</ele>
        <time>2020-09-19T10:47:26.750Z</time>
      </trkpt>
      <trkpt lat="45.8161" lon="1.21202">
        <ele>283</ele>
        <time>2020-09-19T10:47:27.750Z</time>
      </trkpt>
      <trkpt lat="45.8161" lon="1.21206">
        <ele>283</ele>
        <time>2020-09-19T10:47:28.750Z</time>
      </trkpt>
      <trkpt lat="45.81611" lon="1.21211">
        <ele>284</ele>
        <time>2020-09-19T10:47:29.750Z</time>
      </trkpt>
      <trkpt lat="45.81612" lon="1.21215">
        <ele>283</ele>
        <time>2020-09-19T10:47:30.750Z</time>
      </trkpt>
      <trkpt lat="45.81613" lon="1.21219">
        <ele>284</ele>
        <time>2020-09-19T10:47:31.750Z</time>
      </trkpt>
      <trkpt lat="45.81614" lon="1.21224">
        <ele>285</ele>
        <time>2020-09-19T10:47:32.750Z</time>
      </trkpt>
      <trkpt lat="45.81614" lon="1.21228">
        <ele>284</ele>
        <time>2020-09-19T10:47:33.750Z</time>
      </trkpt>
      <trkpt lat="45.81615" lon="1.21232">
        <ele>285</ele>
        <time>2020-09-19T10:47:34.750Z</time>
      </trkpt>
      <trkpt lat="45.81616" lon="1.21237">
        <ele>285</ele>
        <time>2020-09-19T10:47:35.750Z</time>
      </trkpt>
      <trkpt lat="45.81617" lon="1.21241">
        <ele>286</ele>
        <time>2020-09-19T10:47:36.750Z</time>
      </trkpt>
      <trkpt lat="45.81617" lon="1.21246">
        <ele>286</ele>
        <time>2020-09-19T10:47:37.750Z</time>
      </trkpt>
      <trkpt lat="45.81618" lon="1.21251">
        <ele>286</ele>
        <time>2020-09-19T10:47:38.750Z</time>
      </trkpt>
      <trkpt lat="45.81619" lon="1.21255">
        <ele>286</ele>
        <time>2020-09-19T10:47:39.750Z</time>
      </trkpt>
      <trkpt lat="45.8162" lon="1.2126">
        <ele>286</ele>
        <time>2020-09-19T10:47:40.750Z</time>
      </trkpt>
      <trkpt lat="45.8162" lon="1.21265">
        <ele>286</ele>
        <time>2020-09-19T10:47:41.750Z</time>
      </trkpt>
      <trkpt lat="45.81621" lon="1.2127">
        <ele>286</ele>
        <time>2020-09-19T10:47:42.750Z</time>
      </trkpt>
      <trkpt lat="45.81621" lon="1.21274">
        <ele>286</ele>
        <time>2020-09-19T10:47:43.750Z</time>
      </trkpt>
      <trkpt lat="45.81622" lon="1.21279">
        <ele>286</ele>
        <time>2020-09-19T10:47:44.750Z</time>
      </trkpt>
      <trkpt lat="45.81622" lon="1.21283">
        <ele>286</ele>
        <time>2020-09-19T10:47:45.750Z</time>
      </trkpt>
      <trkpt lat="45.81623" lon="1.21288">
        <ele>286</ele>
        <time>2020-09-19T10:47:46.750Z</time>
      </trkpt>
      <trkpt lat="45.81623" lon="1.21292">
        <ele>287</ele>
        <time>2020-09-19T10:47:47.750Z</time>
      </trkpt>
      <trkpt lat="45.81624" lon="1.21297">
        <ele>287</ele>
        <time>2020-09-19T10:47:48.750Z</time>
      </trkpt>
      <trkpt lat="45.81625" lon="1.21301">
        <ele>287</ele>
        <time>2020-09-19T10:47:49.750Z</time>
      </trkpt>
      <trkpt lat="45.81625" lon="1.21306">
        <ele>287</ele>
        <time>2020-09-19T10:47:50.750Z</time>
      </trkpt>
      <trkpt lat="45.81625" lon="1.2131">
        <ele>287</ele>
        <time>2020-09-19T10:47:51.750Z</time>
      </trkpt>
      <trkpt lat="45.81626" lon="1.21314">
        <ele>288</ele>
        <time>2020-09-19T10:47:52.750Z</time>
      </trkpt>
      <trkpt lat="45.81626" lon="1.21319">
        <ele>288</ele>
        <time>2020-09-19T10:47:53.750Z</time>
      </trkpt>
      <trkpt lat="45.81626" lon="1.21324">
        <ele>288</ele>
        <time>2020-09-19T10:47:54.750Z</time>
      </trkpt>
      <trkpt lat="45.81627" lon="1.21328">
        <ele>288</ele>
        <time>2020-09-19T10:47:55.750Z</time>
      </trkpt>
      <trkpt lat="45.81627" lon="1.21333">
        <ele>288</ele>
        <time>2020-09-19T10:47:56.750Z</time>
      </trkpt>
      <trkpt lat="45.81627" lon="1.21338">
        <ele>288</ele>
        <time>2020-09-19T10:47:57.750Z</time>
      </trkpt>
      <trkpt lat="45.81628" lon="1.21342">
        <ele>288</ele>
        <time>2020-09-19T10:47:58.750Z</time>
      </trkpt>
      <trkpt lat="45.81628" lon="1.21346">
        <ele>288</ele>
        <time>2020-09-19T10:47:59.750Z</time>
      </trkpt>
      <trkpt lat="45.81629" lon="1.21351">
        <ele>289</ele>
        <time>2020-09-19T10:48:00.750Z</time>
      </trkpt>
      <trkpt lat="45.81629" lon="1.21355">
        <ele>289</ele>
        <time>2020-09-19T10:48:01.750Z</time>
      </trkpt>
      <trkpt lat="45.8163" lon="1.2136">
        <ele>289</ele>
        <time>2020-09-19T10:48:02.750Z</time>
      </trkpt>
      <trkpt lat="45.8163" lon="1.21364">
        <ele>289</ele>
        <time>2020-09-19T10:48:03.750Z</time>
      </trkpt>
      <trkpt lat="45.81631" lon="1.21368">
        <ele>289</ele>
        <time>2020-09-19T10:48:04.750Z</time>
      </trkpt>
      <trkpt lat="45.81631" lon="1.21372">
        <ele>289</ele>
        <time>2020-09-19T10:48:05.750Z</time>
      </trkpt>
      <trkpt lat="45.81632" lon="1.21376">
        <ele>288</ele>
        <time>2020-09-19T10:48:06.750Z</time>
      </trkpt>
      <trkpt lat="45.81632" lon="1.21381">
        <ele>288</ele>
        <time>2020-09-19T10:48:07.750Z</time>
      </trkpt>
      <trkpt lat="45.81632" lon="1.21385">
        <ele>288</ele>
        <time>2020-09-19T10:48:08.750Z</time>
      </trkpt>
      <trkpt lat="45.81633" lon="1.21389">
        <ele>287</ele>
        <time>2020-09-19T10:48:09.750Z</time>
      </trkpt>
      <trkpt lat="45.81633" lon="1.21393">
        <ele>287</ele>
        <time>2020-09-19T10:48:10.750Z</time>
      </trkpt>
      <trkpt lat="45.81633" lon="1.21397">
        <ele>286</ele>
        <time>2020-09-19T10:48:11.750Z</time>
      </trkpt>
      <trkpt lat="45.81633" lon="1.21401">
        <ele>286</ele>
        <time>2020-09-19T10:48:12.750Z</time>
      </trkpt>
      <trkpt lat="45.81633" lon="1.21405">
        <ele>286</ele>
        <time>2020-09-19T10:48:13.750Z</time>
      </trkpt>
      <trkpt lat="45.81633" lon="1.2141">
        <ele>286</ele>
        <time>2020-09-19T10:48:14.750Z</time>
      </trkpt>
      <trkpt lat="45.81633" lon="1.21414">
        <ele>287</ele>
        <time>2020-09-19T10:48:15.750Z</time>
      </trkpt>
      <trkpt lat="45.81633" lon="1.21418">
        <ele>286</ele>
        <time>2020-09-19T10:48:16.750Z</time>
      </trkpt>
      <trkpt lat="45.81632" lon="1.21422">
        <ele>286</ele>
        <time>2020-09-19T10:48:17.750Z</time>
      </trkpt>
      <trkpt lat="45.81632" lon="1.21425">
        <ele>287</ele>
        <time>2020-09-19T10:48:18.750Z</time>
      </trkpt>
      <trkpt lat="45.81632" lon="1.21429">
        <ele>286</ele>
        <time>2020-09-19T10:48:19.750Z</time>
      </trkpt>
      <trkpt lat="45.81631" lon="1.21433">
        <ele>286</ele>
        <time>2020-09-19T10:48:20.750Z</time>
      </trkpt>
      <trkpt lat="45.81631" lon="1.21437">
        <ele>286</ele>
        <time>2020-09-19T10:48:21.750Z</time>
      </trkpt>
      <trkpt lat="45.8163" lon="1.21441">
        <ele>285</ele>
        <time>2020-09-19T10:48:22.750Z</time>
      </trkpt>
      <trkpt lat="45.81629" lon="1.21446">
        <ele>285</ele>
        <time>2020-09-19T10:48:23.750Z</time>
      </trkpt>
      <trkpt lat="45.81629" lon="1.2145">
        <ele>285</ele>
        <time>2020-09-19T10:48:24.750Z</time>
      </trkpt>
      <trkpt lat="45.81628" lon="1.21455">
        <ele>285</ele>
        <time>2020-09-19T10:48:25.750Z</time>
      </trkpt>
      <trkpt lat="45.81626" lon="1.21459">
        <ele>286</ele>
        <time>2020-09-19T10:48:26.750Z</time>
      </trkpt>
      <trkpt lat="45.81625" lon="1.21464">
        <ele>286</ele>
        <time>2020-09-19T10:48:27.750Z</time>
      </trkpt>
      <trkpt lat="45.81623" lon="1.21468">
        <ele>287</ele>
        <time>2020-09-19T10:48:28.750Z</time>
      </trkpt>
      <trkpt lat="45.81621" lon="1.21471">
        <ele>289</ele>
        <time>2020-09-19T10:48:29.750Z</time>
      </trkpt>
      <trkpt lat="45.81619" lon="1.21474">
        <ele>290</ele>
        <time>2020-09-19T10:48:30.750Z</time>
      </trkpt>
      <trkpt lat="45.81617" lon="1.21477">
        <ele>291</ele>
        <time>2020-09-19T10:48:31.750Z</time>
      </trkpt>
      <trkpt lat="45.81614" lon="1.2148">
        <ele>291</ele>
        <time>2020-09-19T10:48:32.750Z</time>
      </trkpt>
      <trkpt lat="45.81611" lon="1.21483">
        <ele>292</ele>
        <time>2020-09-19T10:48:33.750Z</time>
      </trkpt>
      <trkpt lat="45.81608" lon="1.21486">
        <ele>293</ele>
        <time>2020-09-19T10:48:34.750Z</time>
      </trkpt>
      <trkpt lat="45.81606" lon="1.21488">
        <ele>293</ele>
        <time>2020-09-19T10:48:35.750Z</time>
      </trkpt>
      <trkpt lat="45.81602" lon="1.2149">
        <ele>292</ele>
        <time>2020-09-19T10:48:36.750Z</time>
      </trkpt>
      <trkpt lat="45.81599" lon="1.21491">
        <ele>292</ele>
        <time>2020-09-19T10:48:37.750Z</time>
      </trkpt>
      <trkpt lat="45.81596" lon="1.21492">
        <ele>293</ele>
        <time>2020-09-19T10:48:38.750Z</time>
      </trkpt>
      <trkpt lat="45.81593" lon="1.21492">
        <ele>293</ele>
        <time>2020-09-19T10:48:39.750Z</time>
      </trkpt>
      <trkpt lat="45.8159" lon="1.21492">
        <ele>293</ele>
        <time>2020-09-19T10:48:40.750Z</time>
      </trkpt>
      <trkpt lat="45.81587" lon="1.21491">
        <ele>292</ele>
        <time>2020-09-19T10:48:41.750Z</time>
      </trkpt>
      <trkpt lat="45.81583" lon="1.21491">
        <ele>292</ele>
        <time>2020-09-19T10:48:42.750Z</time>
      </trkpt>
      <trkpt lat="45.8158" lon="1.21489">
        <ele>294</ele>
        <time>2020-09-19T10:48:43.750Z</time>
      </trkpt>
      <trkpt lat="45.81577" lon="1.21489">
        <ele>294</ele>
        <time>2020-09-19T10:48:44.750Z</time>
      </trkpt>
      <trkpt lat="45.81574" lon="1.21488">
        <ele>294</ele>
        <time>2020-09-19T10:48:45.750Z</time>
      </trkpt>
      <trkpt lat="45.81571" lon="1.21487">
        <ele>294</ele>
        <time>2020-09-19T10:48:46.750Z</time>
      </trkpt>
      <trkpt lat="45.81568" lon="1.21486">
        <ele>295</ele>
        <time>2020-09-19T10:48:47.750Z</time>
      </trkpt>
      <trkpt lat="45.81565" lon="1.21486">
        <ele>296</ele>
        <time>2020-09-19T10:48:48.750Z</time>
      </trkpt>
      <trkpt lat="45.81562" lon="1.21485">
        <ele>296</ele>
        <time>2020-09-19T10:48:49.750Z</time>
      </trkpt>
      <trkpt lat="45.81559" lon="1.21484">
        <ele>297</ele>
        <time>2020-09-19T10:48:50.750Z</time>
      </trkpt>
      <trkpt lat="45.81557" lon="1.21483">
        <ele>297</ele>
        <time>2020-09-19T10:48:51.750Z</time>
      </trkpt>
      <trkpt lat="45.81554" lon="1.21482">
        <ele>297</ele>
        <time>2020-09-19T10:48:52.750Z</time>
      </trkpt>
      <trkpt lat="45.81551" lon="1.21481">
        <ele>298</ele>
        <time>2020-09-19T10:48:53.750Z</time>
      </trkpt>
      <trkpt lat="45.81549" lon="1.2148">
        <ele>298</ele>
        <time>2020-09-19T10:48:54.750Z</time>
      </trkpt>
      <trkpt lat="45.81546" lon="1.21479">
        <ele>298</ele>
        <time>2020-09-19T10:48:55.750Z</time>
      </trkpt>
      <trkpt lat="45.81543" lon="1.21478">
        <ele>298</ele>
        <time>2020-09-19T10:48:56.750Z</time>
      </trkpt>
      <trkpt lat="45.8154" lon="1.21477">
        <ele>298</ele>
        <time>2020-09-19T10:48:57.750Z</time>
      </trkpt>
      <trkpt lat="45.81538" lon="1.21476">
        <ele>299</ele>
        <time>2020-09-19T10:48:58.750Z</time>
      </trkpt>
      <trkpt lat="45.81535" lon="1.21474">
        <ele>299</ele>
        <time>2020-09-19T10:48:59.750Z</time>
      </trkpt>
      <trkpt lat="45.81532" lon="1.21473">
        <ele>300</ele>
        <time>2020-09-19T10:49:00.750Z</time>
      </trkpt>
      <trkpt lat="45.81529" lon="1.21471">
        <ele>301</ele>
        <time>2020-09-19T10:49:01.750Z</time>
      </trkpt>
      <trkpt lat="45.81526" lon="1.2147">
        <ele>301</ele>
        <time>2020-09-19T10:49:02.750Z</time>
      </trkpt>
      <trkpt lat="45.81523" lon="1.21469">
        <ele>302</ele>
        <time>2020-09-19T10:49:03.750Z</time>
      </trkpt>
      <trkpt lat="45.8152" lon="1.21467">
        <ele>302</ele>
        <time>2020-09-19T10:49:04.750Z</time>
      </trkpt>
      <trkpt lat="45.81517" lon="1.21466">
        <ele>302</ele>
        <time>2020-09-19T10:49:05.750Z</time>
      </trkpt>
      <trkpt lat="45.81514" lon="1.21465">
        <ele>302</ele>
        <time>2020-09-19T10:49:06.750Z</time>
      </trkpt>
      <trkpt lat="45.81512" lon="1.21464">
        <ele>303</ele>
        <time>2020-09-19T10:49:07.750Z</time>
      </trkpt>
      <trkpt lat="45.81509" lon="1.21462">
        <ele>303</ele>
        <time>2020-09-19T10:49:08.750Z</time>
      </trkpt>
      <trkpt lat="45.81506" lon="1.21462">
        <ele>303</ele>
        <time>2020-09-19T10:49:09.750Z</time>
      </trkpt>
      <trkpt lat="45.81503" lon="1.21461">
        <ele>303</ele>
        <time>2020-09-19T10:49:10.750Z</time>
      </trkpt>
      <trkpt lat="45.81501" lon="1.21461">
        <ele>303</ele>
        <time>2020-09-19T10:49:11.750Z</time>
      </trkpt>
      <trkpt lat="45.81498" lon="1.2146">
        <ele>304</ele>
        <time>2020-09-19T10:49:12.750Z</time>
      </trkpt>
      <trkpt lat="45.81495" lon="1.21458">
        <ele>304</ele>
        <time>2020-09-19T10:49:13.750Z</time>
      </trkpt>
      <trkpt lat="45.81493" lon="1.21457">
        <ele>304</ele>
        <time>2020-09-19T10:49:14.750Z</time>
      </trkpt>
      <trkpt lat="45.8149" lon="1.21456">
        <ele>305</ele>
        <time>2020-09-19T10:49:15.750Z</time>
      </trkpt>
      <trkpt lat="45.81487" lon="1.21455">
        <ele>306</ele>
        <time>2020-09-19T10:49:16.750Z</time>
      </trkpt>
      <trkpt lat="45.81484" lon="1.21454">
        <ele>306</ele>
        <time>2020-09-19T10:49:17.750Z</time>
      </trkpt>
      <trkpt lat="45.81481" lon="1.21453">
        <ele>306</ele>
        <time>2020-09-19T10:49:18.750Z</time>
      </trkpt>
      <trkpt lat="45.81479" lon="1.21452">
        <ele>306</ele>
        <time>2020-09-19T10:49:19.750Z</time>
      </trkpt>
      <trkpt lat="45.81476" lon="1.21451">
        <ele>306</ele>
        <time>2020-09-19T10:49:20.750Z</time>
      </trkpt>
      <trkpt lat="45.81473" lon="1.2145">
        <ele>306</ele>
        <time>2020-09-19T10:49:21.750Z</time>
      </trkpt>
      <trkpt lat="45.8147" lon="1.21448">
        <ele>306</ele>
        <time>2020-09-19T10:49:22.750Z</time>
      </trkpt>
      <trkpt lat="45.81467" lon="1.21447">
        <ele>305</ele>
        <time>2020-09-19T10:49:23.750Z</time>
      </trkpt>
      <trkpt lat="45.81465" lon="1.21446">
        <ele>305</ele>
        <time>2020-09-19T10:49:24.750Z</time>
      </trkpt>
      <trkpt lat="45.81462" lon="1.21445">
        <ele>305</ele>
        <time>2020-09-19T10:49:25.750Z</time>
      </trkpt>
      <trkpt lat="45.81459" lon="1.21444">
        <ele>305</ele>
        <time>2020-09-19T10:49:26.750Z</time>
      </trkpt>
      <trkpt lat="45.81456" lon="1.21443">
        <ele>305</ele>
        <time>2020-09-19T10:49:27.750Z</time>
      </trkpt>
      <trkpt lat="45.81453" lon="1.21442">
        <ele>305</ele>
        <time>2020-09-19T10:49:28.750Z</time>
      </trkpt>
      <trkpt lat="45.8145" lon="1.2144">
        <ele>305</ele>
        <time>2020-09-19T10:49:29.750Z</time>
      </trkpt>
      <trkpt lat="45.81447" lon="1.21439">
        <ele>305</ele>
        <time>2020-09-19T10:49:30.750Z</time>
      </trkpt>
      <trkpt lat="45.81444" lon="1.21437">
        <ele>305</ele>
        <time>2020-09-19T10:49:31.750Z</time>
      </trkpt>
      <trkpt lat="45.81441" lon="1.21436">
        <ele>305</ele>
        <time>2020-09-19T10:49:32.750Z</time>
      </trkpt>
      <trkpt lat="45.81437" lon="1.21435">
        <ele>305</ele>
        <time>2020-09-19T10:49:33.750Z</time>
      </trkpt>
      <trkpt lat="45.81434" lon="1.21433">
        <ele>305</ele>
        <time>2020-09-19T10:49:34.750Z</time>
      </trkpt>
      <trkpt lat="45.8143" lon="1.21432">
        <ele>305</ele>
        <time>2020-09-19T10:49:35.750Z</time>
      </trkpt>
      <trkpt lat="45.81427" lon="1.21431">
        <ele>305</ele>
        <time>2020-09-19T10:49:36.750Z</time>
      </trkpt>
      <trkpt lat="45.81424" lon="1.21429">
        <ele>304</ele>
        <time>2020-09-19T10:49:37.750Z</time>
      </trkpt>
      <trkpt lat="45.81421" lon="1.21428">
        <ele>304</ele>
        <time>2020-09-19T10:49:38.750Z</time>
      </trkpt>
      <trkpt lat="45.81418" lon="1.21427">
        <ele>305</ele>
        <time>2020-09-19T10:49:39.750Z</time>
      </trkpt>
      <trkpt lat="45.81415" lon="1.21425">
        <ele>304</ele>
        <time>2020-09-19T10:49:40.750Z</time>
      </trkpt>
      <trkpt lat="45.81412" lon="1.21424">
        <ele>304</ele>
        <time>2020-09-19T10:49:41.750Z</time>
      </trkpt>
      <trkpt lat="45.81409" lon="1.21423">
        <ele>303</ele>
        <time>2020-09-19T10:49:42.750Z</time>
      </trkpt>
      <trkpt lat="45.81406" lon="1.21422">
        <ele>304</ele>
        <time>2020-09-19T10:49:43.750Z</time>
      </trkpt>
      <trkpt lat="45.81403" lon="1.21421">
        <ele>304</ele>
        <time>2020-09-19T10:49:44.750Z</time>
      </trkpt>
      <trkpt lat="45.814" lon="1.2142">
        <ele>304</ele>
        <time>2020-09-19T10:49:45.750Z</time>
      </trkpt>
      <trkpt lat="45.81397" lon="1.21419">
        <ele>304</ele>
        <time>2020-09-19T10:49:46.750Z</time>
      </trkpt>
      <trkpt lat="45.81394" lon="1.21419">
        <ele>304</ele>
        <time>2020-09-19T10:49:47.750Z</time>
      </trkpt>
      <trkpt lat="45.8139" lon="1.21419">
        <ele>304</ele>
        <time>2020-09-19T10:49:48.750Z</time>
      </trkpt>
      <trkpt lat="45.81387" lon="1.21418">
        <ele>305</ele>
        <time>2020-09-19T10:49:49.750Z</time>
      </trkpt>
      <trkpt lat="45.81384" lon="1.21418">
        <ele>303</ele>
        <time>2020-09-19T10:49:50.750Z</time>
      </trkpt>
      <trkpt lat="45.81382" lon="1.21417">
        <ele>303</ele>
        <time>2020-09-19T10:49:51.750Z</time>
      </trkpt>
      <trkpt lat="45.81379" lon="1.21417">
        <ele>303</ele>
        <time>2020-09-19T10:49:52.750Z</time>
      </trkpt>
      <trkpt lat="45.81376" lon="1.21417">
        <ele>303</ele>
        <time>2020-09-19T10:49:53.750Z</time>
      </trkpt>
      <trkpt lat="45.81373" lon="1.21418">
        <ele>303</ele>
        <time>2020-09-19T10:49:54.750Z</time>
      </trkpt>
      <trkpt lat="45.8137" lon="1.21418">
        <ele>303</ele>
        <time>2020-09-19T10:49:55.750Z</time>
      </trkpt>
      <trkpt lat="45.81367" lon="1.21419">
        <ele>303</ele>
        <time>2020-09-19T10:49:56.750Z</time>
      </trkpt>
      <trkpt lat="45.81364" lon="1.2142">
        <ele>304</ele>
        <time>2020-09-19T10:49:57.750Z</time>
      </trkpt>
      <trkpt lat="45.81361" lon="1.21422">
        <ele>304</ele>
        <time>2020-09-19T10:49:58.750Z</time>
      </trkpt>
      <trkpt lat="45.81358" lon="1.21423">
        <ele>305</ele>
        <time>2020-09-19T10:49:59.750Z</time>
      </trkpt>
      <trkpt lat="45.81355" lon="1.21424">
        <ele>305</ele>
        <time>2020-09-19T10:50:00.750Z</time>
      </trkpt>
      <trkpt lat="45.81352" lon="1.21426">
        <ele>306</ele>
        <time>2020-09-19T10:50:01.750Z</time>
      </trkpt>
      <trkpt lat="45.81349" lon="1.21427">
        <ele>306</ele>
        <time>2020-09-19T10:50:02.750Z</time>
      </trkpt>
      <trkpt lat="45.81346" lon="1.21429">
        <ele>308</ele>
        <time>2020-09-19T10:50:03.750Z</time>
      </trkpt>
      <trkpt lat="45.81343" lon="1.2143">
        <ele>308</ele>
        <time>2020-09-19T10:50:04.750Z</time>
      </trkpt>
      <trkpt lat="45.8134" lon="1.21432">
        <ele>308</ele>
        <time>2020-09-19T10:50:05.750Z</time>
      </trkpt>
      <trkpt lat="45.81337" lon="1.21435">
        <ele>309</ele>
        <time>2020-09-19T10:50:06.750Z</time>
      </trkpt>
      <trkpt lat="45.81334" lon="1.21437">
        <ele>310</ele>
        <time>2020-09-19T10:50:07.750Z</time>
      </trkpt>
      <trkpt lat="45.81331" lon="1.21439">
        <ele>309</ele>
        <time>2020-09-19T10:50:08.750Z</time>
      </trkpt>
      <trkpt lat="45.81328" lon="1.21441">
        <ele>310</ele>
        <time>2020-09-19T10:50:09.750Z</time>
      </trkpt>
      <trkpt lat="45.81325" lon="1.21444">
        <ele>311</ele>
        <time>2020-09-19T10:50:10.750Z</time>
      </trkpt>
      <trkpt lat="45.81322" lon="1.21446">
        <ele>310</ele>
        <time>2020-09-19T10:50:11.750Z</time>
      </trkpt>
      <trkpt lat="45.81319" lon="1.21449">
        <ele>311</ele>
        <time>2020-09-19T10:50:12.750Z</time>
      </trkpt>
      <trkpt lat="45.81317" lon="1.21452">
        <ele>310</ele>
        <time>2020-09-19T10:50:13.750Z</time>
      </trkpt>
      <trkpt lat="45.81314" lon="1.21455">
        <ele>311</ele>
        <time>2020-09-19T10:50:14.750Z</time>
      </trkpt>
      <trkpt lat="45.81311" lon="1.21458">
        <ele>311</ele>
        <time>2020-09-19T10:50:15.750Z</time>
      </trkpt>
      <trkpt lat="45.81308" lon="1.21461">
        <ele>311</ele>
        <time>2020-09-19T10:50:16.750Z</time>
      </trkpt>
      <trkpt lat="45.81305" lon="1.21464">
        <ele>311</ele>
        <time>2020-09-19T10:50:17.750Z</time>
      </trkpt>
      <trkpt lat="45.81302" lon="1.21467">
        <ele>311</ele>
        <time>2020-09-19T10:50:18.750Z</time>
      </trkpt>
      <trkpt lat="45.81299" lon="1.2147">
        <ele>312</ele>
        <time>2020-09-19T10:50:19.750Z</time>
      </trkpt>
      <trkpt lat="45.81297" lon="1.21472">
        <ele>312</ele>
        <time>2020-09-19T10:50:20.750Z</time>
      </trkpt>
      <trkpt lat="45.81294" lon="1.21475">
        <ele>313</ele>
        <time>2020-09-19T10:50:21.750Z</time>
      </trkpt>
      <trkpt lat="45.81291" lon="1.21478">
        <ele>313</ele>
        <time>2020-09-19T10:50:22.750Z</time>
      </trkpt>
      <trkpt lat="45.81289" lon="1.21481">
        <ele>313</ele>
        <time>2020-09-19T10:50:23.750Z</time>
      </trkpt>
      <trkpt lat="45.81287" lon="1.21483">
        <ele>314</ele>
        <time>2020-09-19T10:50:24.750Z</time>
      </trkpt>
      <trkpt lat="45.81285" lon="1.21486">
        <ele>314</ele>
        <time>2020-09-19T10:50:25.750Z</time>
      </trkpt>
      <trkpt lat="45.81283" lon="1.21489">
        <ele>314</ele>
        <time>2020-09-19T10:50:26.750Z</time>
      </trkpt>
      <trkpt lat="45.81281" lon="1.21493">
        <ele>314</ele>
        <time>2020-09-19T10:50:27.750Z</time>
      </trkpt>
      <trkpt lat="45.81279" lon="1.21497">
        <ele>315</ele>
        <time>2020-09-19T10:50:28.750Z</time>
      </trkpt>
      <trkpt lat="45.81277" lon="1.215">
        <ele>315</ele>
        <time>2020-09-19T10:50:29.750Z</time>
      </trkpt>
      <trkpt lat="45.81276" lon="1.21503">
        <ele>315</ele>
        <time>2020-09-19T10:50:30.750Z</time>
      </trkpt>
      <trkpt lat="45.81275" lon="1.21507">
        <ele>315</ele>
        <time>2020-09-19T10:50:31.750Z</time>
      </trkpt>
      <trkpt lat="45.81274" lon="1.21511">
        <ele>315</ele>
        <time>2020-09-19T10:50:32.750Z</time>
      </trkpt>
      <trkpt lat="45.81274" lon="1.21516">
        <ele>314</ele>
        <time>2020-09-19T10:50:33.750Z</time>
      </trkpt>
      <trkpt lat="45.81273" lon="1.2152">
        <ele>314</ele>
        <time>2020-09-19T10:50:34.750Z</time>
      </trkpt>
      <trkpt lat="45.81272" lon="1.21523">
        <ele>314</ele>
        <time>2020-09-19T10:50:35.750Z</time>
      </trkpt>
      <trkpt lat="45.8127" lon="1.21526">
        <ele>313</ele>
        <time>2020-09-19T10:50:36.750Z</time>
      </trkpt>
      <trkpt lat="45.81269" lon="1.2153">
        <ele>313</ele>
        <time>2020-09-19T10:50:37.750Z</time>
      </trkpt>
      <trkpt lat="45.81266" lon="1.21534">
        <ele>313</ele>
        <time>2020-09-19T10:50:38.750Z</time>
      </trkpt>
      <trkpt lat="45.81265" lon="1.21536">
        <ele>313</ele>
        <time>2020-09-19T10:50:39.750Z</time>
      </trkpt>
      <trkpt lat="45.81263" lon="1.21539">
        <ele>314</ele>
        <time>2020-09-19T10:50:40.750Z</time>
      </trkpt>
      <trkpt lat="45.81261" lon="1.21541">
        <ele>315</ele>
        <time>2020-09-19T10:50:41.750Z</time>
      </trkpt>
      <trkpt lat="45.81259" lon="1.21543">
        <ele>315</ele>
        <time>2020-09-19T10:50:42.750Z</time>
      </trkpt>
      <trkpt lat="45.81257" lon="1.21544">
        <ele>317</ele>
        <time>2020-09-19T10:50:43.750Z</time>
      </trkpt>
      <trkpt lat="45.81255" lon="1.21546">
        <ele>317</ele>
        <time>2020-09-19T10:50:44.750Z</time>
      </trkpt>
      <trkpt lat="45.81253" lon="1.21547">
        <ele>317</ele>
        <time>2020-09-19T10:50:45.750Z</time>
      </trkpt>
      <trkpt lat="45.8125" lon="1.21549">
        <ele>317</ele>
        <time>2020-09-19T10:50:46.750Z</time>
      </trkpt>
      <trkpt lat="45.81248" lon="1.2155">
        <ele>317</ele>
        <time>2020-09-19T10:50:47.750Z</time>
      </trkpt>
      <trkpt lat="45.81246" lon="1.21551">
        <ele>317</ele>
        <time>2020-09-19T10:50:48.750Z</time>
      </trkpt>
      <trkpt lat="45.81244" lon="1.21553">
        <ele>318</ele>
        <time>2020-09-19T10:50:49.750Z</time>
      </trkpt>
      <trkpt lat="45.81241" lon="1.21554">
        <ele>318</ele>
        <time>2020-09-19T10:50:50.750Z</time>
      </trkpt>
      <trkpt lat="45.81239" lon="1.21556">
        <ele>318</ele>
        <time>2020-09-19T10:50:51.750Z</time>
      </trkpt>
      <trkpt lat="45.81237" lon="1.21557">
        <ele>319</ele>
        <time>2020-09-19T10:50:52.750Z</time>
      </trkpt>
      <trkpt lat="45.81234" lon="1.21558">
        <ele>319</ele>
        <time>2020-09-19T10:50:53.750Z</time>
      </trkpt>
      <trkpt lat="45.81232" lon="1.21559">
        <ele>320</ele>
        <time>2020-09-19T10:50:54.750Z</time>
      </trkpt>
      <trkpt lat="45.81229" lon="1.2156">
        <ele>320</ele>
        <time>2020-09-19T10:50:55.750Z</time>
      </trkpt>
      <trkpt lat="45.81226" lon="1.21561">
        <ele>320</ele>
        <time>2020-09-19T10:50:56.750Z</time>
      </trkpt>
      <trkpt lat="45.81223" lon="1.21562">
        <ele>320</ele>
        <time>2020-09-19T10:50:57.750Z</time>
      </trkpt>
      <trkpt lat="45.8122" lon="1.21563">
        <ele>321</ele>
        <time>2020-09-19T10:50:58.750Z</time>
      </trkpt>
      <trkpt lat="45.81217" lon="1.21564">
        <ele>321</ele>
        <time>2020-09-19T10:50:59.750Z</time>
      </trkpt>
      <trkpt lat="45.81214" lon="1.21565">
        <ele>322</ele>
        <time>2020-09-19T10:51:00.750Z</time>
      </trkpt>
      <trkpt lat="45.81212" lon="1.21566">
        <ele>323</ele>
        <time>2020-09-19T10:51:01.750Z</time>
      </trkpt>
      <trkpt lat="45.8121" lon="1.21567">
        <ele>323</ele>
        <time>2020-09-19T10:51:02.750Z</time>
      </trkpt>
      <trkpt lat="45.81207" lon="1.21567">
        <ele>324</ele>
        <time>2020-09-19T10:51:03.750Z</time>
      </trkpt>
      <trkpt lat="45.81206" lon="1.21567">
        <ele>324</ele>
        <time>2020-09-19T10:51:04.750Z</time>
      </trkpt>
      <trkpt lat="45.81208" lon="1.21565">
        <ele>325</ele>
        <time>2020-09-19T10:51:05.750Z</time>
      </trkpt>
      <trkpt lat="45.8121" lon="1.21562">
        <ele>327</ele>
        <time>2020-09-19T10:51:06.750Z</time>
      </trkpt>
      <trkpt lat="45.81213" lon="1.2156">
        <ele>326</ele>
        <time>2020-09-19T10:51:07.750Z</time>
      </trkpt>
      <trkpt lat="45.81214" lon="1.21559">
        <ele>324</ele>
        <time>2020-09-19T10:51:08.750Z</time>
      </trkpt>
      <trkpt lat="45.81215" lon="1.21557">
        <ele>322</ele>
        <time>2020-09-19T10:51:09.750Z</time>
      </trkpt>
      <trkpt lat="45.81217" lon="1.21556">
        <ele>322</ele>
        <time>2020-09-19T10:51:10.750Z</time>
      </trkpt>
      <trkpt lat="45.8122" lon="1.21554">
        <ele>321</ele>
        <time>2020-09-19T10:51:11.750Z</time>
      </trkpt>
      <trkpt lat="45.81223" lon="1.21553">
        <ele>321</ele>
        <time>2020-09-19T10:51:12.750Z</time>
      </trkpt>
      <trkpt lat="45.81225" lon="1.21551">
        <ele>321</ele>
        <time>2020-09-19T10:51:13.750Z</time>
      </trkpt>
      <trkpt lat="45.81228" lon="1.2155">
        <ele>322</ele>
        <time>2020-09-19T10:51:14.750Z</time>
      </trkpt>
      <trkpt lat="45.81231" lon="1.21549">
        <ele>320</ele>
        <time>2020-09-19T10:51:15.750Z</time>
      </trkpt>
      <trkpt lat="45.81234" lon="1.21548">
        <ele>319</ele>
        <time>2020-09-19T10:51:16.750Z</time>
      </trkpt>
      <trkpt lat="45.81237" lon="1.21547">
        <ele>319</ele>
        <time>2020-09-19T10:51:17.750Z</time>
      </trkpt>
      <trkpt lat="45.8124" lon="1.21546">
        <ele>319</ele>
        <time>2020-09-19T10:51:18.750Z</time>
      </trkpt>
      <trkpt lat="45.81243" lon="1.21545">
        <ele>320</ele>
        <time>2020-09-19T10:51:19.750Z</time>
      </trkpt>
      <trkpt lat="45.81246" lon="1.21543">
        <ele>319</ele>
        <time>2020-09-19T10:51:20.750Z</time>
      </trkpt>
      <trkpt lat="45.81249" lon="1.21542">
        <ele>319</ele>
        <time>2020-09-19T10:51:21.750Z</time>
      </trkpt>
      <trkpt lat="45.81252" lon="1.2154">
        <ele>318</ele>
        <time>2020-09-19T10:51:22.750Z</time>
      </trkpt>
      <trkpt lat="45.81254" lon="1.21538">
        <ele>318</ele>
        <time>2020-09-19T10:51:23.750Z</time>
      </trkpt>
      <trkpt lat="45.81257" lon="1.21537">
        <ele>316</ele>
        <time>2020-09-19T10:51:24.750Z</time>
      </trkpt>
      <trkpt lat="45.81259" lon="1.21536">
        <ele>315</ele>
        <time>2020-09-19T10:51:25.750Z</time>
      </trkpt>
      <trkpt lat="45.81262" lon="1.21535">
        <ele>314</ele>
        <time>2020-09-19T10:51:26.750Z</time>
      </trkpt>
      <trkpt lat="45.81265" lon="1.21533">
        <ele>314</ele>
        <time>2020-09-19T10:51:27.750Z</time>
      </trkpt>
      <trkpt lat="45.81267" lon="1.21531">
        <ele>314</ele>
        <time>2020-09-19T10:51:28.750Z</time>
      </trkpt>
      <trkpt lat="45.81269" lon="1.21528">
        <ele>313</ele>
        <time>2020-09-19T10:51:29.750Z</time>
      </trkpt>
      <trkpt lat="45.8127" lon="1.21525">
        <ele>313</ele>
        <time>2020-09-19T10:51:30.750Z</time>
      </trkpt>
      <trkpt lat="45.81272" lon="1.21522">
        <ele>312</ele>
        <time>2020-09-19T10:51:31.750Z</time>
      </trkpt>
      <trkpt lat="45.81273" lon="1.21518">
        <ele>312</ele>
        <time>2020-09-19T10:51:32.750Z</time>
      </trkpt>
      <trkpt lat="45.81273" lon="1.21515">
        <ele>312</ele>
        <time>2020-09-19T10:51:33.750Z</time>
      </trkpt>
      <trkpt lat="45.81274" lon="1.21511">
        <ele>311</ele>
        <time>2020-09-19T10:51:34.750Z</time>
      </trkpt>
      <trkpt lat="45.81275" lon="1.21508">
        <ele>310</ele>
        <time>2020-09-19T10:51:35.750Z</time>
      </trkpt>
      <trkpt lat="45.81276" lon="1.21504">
        <ele>309</ele>
        <time>2020-09-19T10:51:36.750Z</time>
      </trkpt>
      <trkpt lat="45.81278" lon="1.21501">
        <ele>309</ele>
        <time>2020-09-19T10:51:37.750Z</time>
      </trkpt>
      <trkpt lat="45.8128" lon="1.21498">
        <ele>309</ele>
        <time>2020-09-19T10:51:38.750Z</time>
      </trkpt>
      <trkpt lat="45.81282" lon="1.21494">
        <ele>310</ele>
        <time>2020-09-19T10:51:39.750Z</time>
      </trkpt>
      <trkpt lat="45.81284" lon="1.21489">
        <ele>311</ele>
        <time>2020-09-19T10:51:40.750Z</time>
      </trkpt>
      <trkpt lat="45.81286" lon="1.21485">
        <ele>311</ele>
        <time>2020-09-19T10:51:41.750Z</time>
      </trkpt>
      <trkpt lat="45.81288" lon="1.2148">
        <ele>311</ele>
        <time>2020-09-19T10:51:42.750Z</time>
      </trkpt>
      <trkpt lat="45.8129" lon="1.21476">
        <ele>312</ele>
        <time>2020-09-19T10:51:43.750Z</time>
      </trkpt>
      <trkpt lat="45.81293" lon="1.21472">
        <ele>311</ele>
        <time>2020-09-19T10:51:44.750Z</time>
      </trkpt>
      <trkpt lat="45.81295" lon="1.21468">
        <ele>312</ele>
        <time>2020-09-19T10:51:45.750Z</time>
      </trkpt>
      <trkpt lat="45.81298" lon="1.21464">
        <ele>312</ele>
        <time>2020-09-19T10:51:46.750Z</time>
      </trkpt>
      <trkpt lat="45.81301" lon="1.2146">
        <ele>313</ele>
        <time>2020-09-19T10:51:47.750Z</time>
      </trkpt>
      <trkpt lat="45.81303" lon="1.21456">
        <ele>313</ele>
        <time>2020-09-19T10:51:48.750Z</time>
      </trkpt>
      <trkpt lat="45.81306" lon="1.21452">
        <ele>313</ele>
        <time>2020-09-19T10:51:49.750Z</time>
      </trkpt>
      <trkpt lat="45.81309" lon="1.21448">
        <ele>313</ele>
        <time>2020-09-19T10:51:50.750Z</time>
      </trkpt>
      <trkpt lat="45.81312" lon="1.21444">
        <ele>314</ele>
        <time>2020-09-19T10:51:51.750Z</time>
      </trkpt>
      <trkpt lat="45.81314" lon="1.21441">
        <ele>313</ele>
        <time>2020-09-19T10:51:52.750Z</time>
      </trkpt>
      <trkpt lat="45.81317" lon="1.21437">
        <ele>314</ele>
        <time>2020-09-19T10:51:53.750Z</time>
      </trkpt>
      <trkpt lat="45.8132" lon="1.21434">
        <ele>314</ele>
        <time>2020-09-19T10:51:54.750Z</time>
      </trkpt>
      <trkpt lat="45.81323" lon="1.21431">
        <ele>314</ele>
        <time>2020-09-19T10:51:55.750Z</time>
      </trkpt>
      <trkpt lat="45.81326" lon="1.21428">
        <ele>313</ele>
        <time>2020-09-19T10:51:56.750Z</time>
      </trkpt>
      <trkpt lat="45.81329" lon="1.21425">
        <ele>314</ele>
        <time>2020-09-19T10:51:57.750Z</time>
      </trkpt>
      <trkpt lat="45.81332" lon="1.21423">
        <ele>313</ele>
        <time>2020-09-19T10:51:58.750Z</time>
      </trkpt>
      <trkpt lat="45.81335" lon="1.21421">
        <ele>313</ele>
        <time>2020-09-19T10:51:59.750Z</time>
      </trkpt>
      <trkpt lat="45.81339" lon="1.21419">
        <ele>313</ele>
        <time>2020-09-19T10:52:00.750Z</time>
      </trkpt>
      <trkpt lat="45.81342" lon="1.21417">
        <ele>312</ele>
        <time>2020-09-19T10:52:01.750Z</time>
      </trkpt>
      <trkpt lat="45.81345" lon="1.21416">
        <ele>311</ele>
        <time>2020-09-19T10:52:02.750Z</time>
      </trkpt>
      <trkpt lat="45.81349" lon="1.21414">
        <ele>310</ele>
        <time>2020-09-19T10:52:03.750Z</time>
      </trkpt>
      <trkpt lat="45.81352" lon="1.21413">
        <ele>310</ele>
        <time>2020-09-19T10:52:04.750Z</time>
      </trkpt>
      <trkpt lat="45.81356" lon="1.21413">
        <ele>310</ele>
        <time>2020-09-19T10:52:05.750Z</time>
      </trkpt>
      <trkpt lat="45.81359" lon="1.21412">
        <ele>311</ele>
        <time>2020-09-19T10:52:06.750Z</time>
      </trkpt>
      <trkpt lat="45.81363" lon="1.21411">
        <ele>310</ele>
        <time>2020-09-19T10:52:07.750Z</time>
      </trkpt>
      <trkpt lat="45.81367" lon="1.21411">
        <ele>309</ele>
        <time>2020-09-19T10:52:08.750Z</time>
      </trkpt>
      <trkpt lat="45.8137" lon="1.2141">
        <ele>309</ele>
        <time>2020-09-19T10:52:09.750Z</time>
      </trkpt>
      <trkpt lat="45.81373" lon="1.2141">
        <ele>308</ele>
        <time>2020-09-19T10:52:10.750Z</time>
      </trkpt>
      <trkpt lat="45.81377" lon="1.2141">
        <ele>308</ele>
        <time>2020-09-19T10:52:11.750Z</time>
      </trkpt>
      <trkpt lat="45.8138" lon="1.2141">
        <ele>307</ele>
        <time>2020-09-19T10:52:12.750Z</time>
      </trkpt>
      <trkpt lat="45.81383" lon="1.2141">
        <ele>307</ele>
        <time>2020-09-19T10:52:13.750Z</time>
      </trkpt>
      <trkpt lat="45.81387" lon="1.2141">
        <ele>306</ele>
        <time>2020-09-19T10:52:14.750Z</time>
      </trkpt>
      <trkpt lat="45.8139" lon="1.2141">
        <ele>306</ele>
        <time>2020-09-19T10:52:15.750Z</time>
      </trkpt>
      <trkpt lat="45.81393" lon="1.21411">
        <ele>306</ele>
        <time>2020-09-19T10:52:16.750Z</time>
      </trkpt>
      <trkpt lat="45.81397" lon="1.21412">
        <ele>307</ele>
        <time>2020-09-19T10:52:17.750Z</time>
      </trkpt>
      <trkpt lat="45.814" lon="1.21413">
        <ele>307</ele>
        <time>2020-09-19T10:52:18.750Z</time>
      </trkpt>
      <trkpt lat="45.81403" lon="1.21415">
        <ele>307</ele>
        <time>2020-09-19T10:52:19.750Z</time>
      </trkpt>
      <trkpt lat="45.81407" lon="1.21417">
        <ele>307</ele>
        <time>2020-09-19T10:52:20.750Z</time>
      </trkpt>
      <trkpt lat="45.8141" lon="1.21418">
        <ele>307</ele>
        <time>2020-09-19T10:52:21.750Z</time>
      </trkpt>
      <trkpt lat="45.81413" lon="1.2142">
        <ele>307</ele>
        <time>2020-09-19T10:52:22.750Z</time>
      </trkpt>
      <trkpt lat="45.81417" lon="1.21422">
        <ele>306</ele>
        <time>2020-09-19T10:52:23.750Z</time>
      </trkpt>
      <trkpt lat="45.8142" lon="1.21424">
        <ele>306</ele>
        <time>2020-09-19T10:52:24.750Z</time>
      </trkpt>
      <trkpt lat="45.81424" lon="1.21426">
        <ele>305</ele>
        <time>2020-09-19T10:52:25.750Z</time>
      </trkpt>
      <trkpt lat="45.81427" lon="1.21428">
        <ele>305</ele>
        <time>2020-09-19T10:52:26.750Z</time>
      </trkpt>
      <trkpt lat="45.8143" lon="1.2143">
        <ele>304</ele>
        <time>2020-09-19T10:52:27.750Z</time>
      </trkpt>
      <trkpt lat="45.81433" lon="1.21432">
        <ele>304</ele>
        <time>2020-09-19T10:52:28.750Z</time>
      </trkpt>
      <trkpt lat="45.81436" lon="1.21434">
        <ele>304</ele>
        <time>2020-09-19T10:52:29.750Z</time>
      </trkpt>
      <trkpt lat="45.8144" lon="1.21435">
        <ele>304</ele>
        <time>2020-09-19T10:52:30.750Z</time>
      </trkpt>
      <trkpt lat="45.81443" lon="1.21437">
        <ele>304</ele>
        <time>2020-09-19T10:52:31.750Z</time>
      </trkpt>
      <trkpt lat="45.81446" lon="1.21438">
        <ele>304</ele>
        <time>2020-09-19T10:52:32.750Z</time>
      </trkpt>
      <trkpt lat="45.8145" lon="1.2144">
        <ele>304</ele>
        <time>2020-09-19T10:52:33.750Z</time>
      </trkpt>
      <trkpt lat="45.81453" lon="1.21441">
        <ele>304</ele>
        <time>2020-09-19T10:52:34.750Z</time>
      </trkpt>
      <trkpt lat="45.81456" lon="1.21442">
        <ele>304</ele>
        <time>2020-09-19T10:52:35.750Z</time>
      </trkpt>
      <trkpt lat="45.8146" lon="1.21444">
        <ele>304</ele>
        <time>2020-09-19T10:52:36.750Z</time>
      </trkpt>
      <trkpt lat="45.81463" lon="1.21446">
        <ele>303</ele>
        <time>2020-09-19T10:52:37.750Z</time>
      </trkpt>
      <trkpt lat="45.81466" lon="1.21447">
        <ele>303</ele>
        <time>2020-09-19T10:52:38.750Z</time>
      </trkpt>
      <trkpt lat="45.8147" lon="1.21448">
        <ele>302</ele>
        <time>2020-09-19T10:52:39.750Z</time>
      </trkpt>
      <trkpt lat="45.81473" lon="1.2145">
        <ele>302</ele>
        <time>2020-09-19T10:52:40.750Z</time>
      </trkpt>
      <trkpt lat="45.81477" lon="1.21451">
        <ele>300</ele>
        <time>2020-09-19T10:52:41.750Z</time>
      </trkpt>
      <trkpt lat="45.8148" lon="1.21452">
        <ele>300</ele>
        <time>2020-09-19T10:52:42.750Z</time>
      </trkpt>
      <trkpt lat="45.81483" lon="1.21453">
        <ele>299</ele>
        <time>2020-09-19T10:52:43.750Z</time>
      </trkpt>
      <trkpt lat="45.81487" lon="1.21454">
        <ele>299</ele>
        <time>2020-09-19T10:52:44.750Z</time>
      </trkpt>
      <trkpt lat="45.8149" lon="1.21456">
        <ele>298</ele>
        <time>2020-09-19T10:52:45.750Z</time>
      </trkpt>
      <trkpt lat="45.81493" lon="1.21457">
        <ele>298</ele>
        <time>2020-09-19T10:52:46.750Z</time>
      </trkpt>
      <trkpt lat="45.81496" lon="1.21459">
        <ele>297</ele>
        <time>2020-09-19T10:52:47.750Z</time>
      </trkpt>
      <trkpt lat="45.815" lon="1.2146">
        <ele>296</ele>
        <time>2020-09-19T10:52:48.750Z</time>
      </trkpt>
      <trkpt lat="45.81503" lon="1.21462">
        <ele>296</ele>
        <time>2020-09-19T10:52:49.750Z</time>
      </trkpt>
      <trkpt lat="45.81507" lon="1.21463">
        <ele>295</ele>
        <time>2020-09-19T10:52:50.750Z</time>
      </trkpt>
      <trkpt lat="45.8151" lon="1.21464">
        <ele>295</ele>
        <time>2020-09-19T10:52:51.750Z</time>
      </trkpt>
      <trkpt lat="45.81514" lon="1.21466">
        <ele>294</ele>
        <time>2020-09-19T10:52:52.750Z</time>
      </trkpt>
      <trkpt lat="45.81518" lon="1.21467">
        <ele>294</ele>
        <time>2020-09-19T10:52:53.750Z</time>
      </trkpt>
      <trkpt lat="45.81522" lon="1.21469">
        <ele>294</ele>
        <time>2020-09-19T10:52:54.750Z</time>
      </trkpt>
      <trkpt lat="45.81526" lon="1.2147">
        <ele>293</ele>
        <time>2020-09-19T10:52:55.750Z</time>
      </trkpt>
      <trkpt lat="45.8153" lon="1.21472">
        <ele>293</ele>
        <time>2020-09-19T10:52:56.750Z</time>
      </trkpt>
      <trkpt lat="45.81533" lon="1.21473">
        <ele>293</ele>
        <time>2020-09-19T10:52:57.750Z</time>
      </trkpt>
      <trkpt lat="45.81537" lon="1.21475">
        <ele>293</ele>
        <time>2020-09-19T10:52:58.750Z</time>
      </trkpt>
      <trkpt lat="45.8154" lon="1.21476">
        <ele>293</ele>
        <time>2020-09-19T10:52:59.750Z</time>
      </trkpt>
      <trkpt lat="45.81544" lon="1.21478">
        <ele>292</ele>
        <time>2020-09-19T10:53:00.750Z</time>
      </trkpt>
      <trkpt lat="45.81547" lon="1.21479">
        <ele>293</ele>
        <time>2020-09-19T10:53:01.750Z</time>
      </trkpt>
      <trkpt lat="45.8155" lon="1.2148">
        <ele>293</ele>
        <time>2020-09-19T10:53:02.750Z</time>
      </trkpt>
      <trkpt lat="45.81554" lon="1.21481">
        <ele>292</ele>
        <time>2020-09-19T10:53:03.750Z</time>
      </trkpt>
      <trkpt lat="45.81558" lon="1.21482">
        <ele>292</ele>
        <time>2020-09-19T10:53:04.750Z</time>
      </trkpt>
      <trkpt lat="45.81561" lon="1.21483">
        <ele>291</ele>
        <time>2020-09-19T10:53:05.750Z</time>
      </trkpt>
      <trkpt lat="45.81565" lon="1.21484">
        <ele>291</ele>
        <time>2020-09-19T10:53:06.750Z</time>
      </trkpt>
      <trkpt lat="45.81568" lon="1.21485">
        <ele>290</ele>
        <time>2020-09-19T10:53:07.750Z</time>
      </trkpt>
      <trkpt lat="45.81572" lon="1.21486">
        <ele>290</ele>
        <time>2020-09-19T10:53:08.750Z</time>
      </trkpt>
      <trkpt lat="45.81576" lon="1.21487">
        <ele>290</ele>
        <time>2020-09-19T10:53:09.750Z</time>
      </trkpt>
      <trkpt lat="45.81579" lon="1.21488">
        <ele>289</ele>
        <time>2020-09-19T10:53:10.750Z</time>
      </trkpt>
      <trkpt lat="45.81583" lon="1.21489">
        <ele>289</ele>
        <time>2020-09-19T10:53:11.750Z</time>
      </trkpt>
      <trkpt lat="45.81586" lon="1.21489">
        <ele>289</ele>
        <time>2020-09-19T10:53:12.750Z</time>
      </trkpt>
      <trkpt lat="45.8159" lon="1.2149">
        <ele>288</ele>
        <time>2020-09-19T10:53:13.750Z</time>
      </trkpt>
      <trkpt lat="45.81594" lon="1.2149">
        <ele>288</ele>
        <time>2020-09-19T10:53:14.750Z</time>
      </trkpt>
      <trkpt lat="45.81597" lon="1.2149">
        <ele>288</ele>
        <time>2020-09-19T10:53:15.750Z</time>
      </trkpt>
      <trkpt lat="45.81601" lon="1.21488">
        <ele>288</ele>
        <time>2020-09-19T10:53:16.750Z</time>
      </trkpt>
      <trkpt lat="45.81604" lon="1.21485">
        <ele>288</ele>
        <time>2020-09-19T10:53:17.750Z</time>
      </trkpt>
      <trkpt lat="45.81607" lon="1.21482">
        <ele>288</ele>
        <time>2020-09-19T10:53:18.750Z</time>
      </trkpt>
      <trkpt lat="45.8161" lon="1.21479">
        <ele>288</ele>
        <time>2020-09-19T10:53:19.750Z</time>
      </trkpt>
      <trkpt lat="45.81613" lon="1.21476">
        <ele>288</ele>
        <time>2020-09-19T10:53:20.750Z</time>
      </trkpt>
      <trkpt lat="45.81616" lon="1.21473">
        <ele>288</ele>
        <time>2020-09-19T10:53:21.750Z</time>
      </trkpt>
      <trkpt lat="45.81618" lon="1.21469">
        <ele>288</ele>
        <time>2020-09-19T10:53:22.750Z</time>
      </trkpt>
      <trkpt lat="45.8162" lon="1.21464">
        <ele>286</ele>
        <time>2020-09-19T10:53:23.750Z</time>
      </trkpt>
      <trkpt lat="45.81622" lon="1.2146">
        <ele>286</ele>
        <time>2020-09-19T10:53:24.750Z</time>
      </trkpt>
      <trkpt lat="45.81624" lon="1.21455">
        <ele>286</ele>
        <time>2020-09-19T10:53:25.750Z</time>
      </trkpt>
      <trkpt lat="45.81625" lon="1.2145">
        <ele>286</ele>
        <time>2020-09-19T10:53:26.750Z</time>
      </trkpt>
      <trkpt lat="45.81626" lon="1.21445">
        <ele>286</ele>
        <time>2020-09-19T10:53:27.750Z</time>
      </trkpt>
      <trkpt lat="45.81627" lon="1.21441">
        <ele>285</ele>
        <time>2020-09-19T10:53:28.750Z</time>
      </trkpt>
      <trkpt lat="45.81628" lon="1.21436">
        <ele>284</ele>
        <time>2020-09-19T10:53:29.750Z</time>
      </trkpt>
      <trkpt lat="45.81629" lon="1.21431">
        <ele>283</ele>
        <time>2020-09-19T10:53:30.750Z</time>
      </trkpt>
      <trkpt lat="45.8163" lon="1.21425">
        <ele>283</ele>
        <time>2020-09-19T10:53:31.750Z</time>
      </trkpt>
      <trkpt lat="45.81631" lon="1.2142">
        <ele>282</ele>
        <time>2020-09-19T10:53:32.750Z</time>
      </trkpt>
      <trkpt lat="45.81631" lon="1.21415">
        <ele>282</ele>
        <time>2020-09-19T10:53:33.750Z</time>
      </trkpt>
      <trkpt lat="45.81632" lon="1.2141">
        <ele>281</ele>
        <time>2020-09-19T10:53:34.750Z</time>
      </trkpt>
      <trkpt lat="45.81631" lon="1.21405">
        <ele>281</ele>
        <time>2020-09-19T10:53:35.750Z</time>
      </trkpt>
      <trkpt lat="45.81631" lon="1.214">
        <ele>281</ele>
        <time>2020-09-19T10:53:36.750Z</time>
      </trkpt>
      <trkpt lat="45.8163" lon="1.21395">
        <ele>281</ele>
        <time>2020-09-19T10:53:37.750Z</time>
      </trkpt>
      <trkpt lat="45.8163" lon="1.2139">
        <ele>280</ele>
        <time>2020-09-19T10:53:38.750Z</time>
      </trkpt>
      <trkpt lat="45.8163" lon="1.21385">
        <ele>280</ele>
        <time>2020-09-19T10:53:39.750Z</time>
      </trkpt>
      <trkpt lat="45.81629" lon="1.21381">
        <ele>280</ele>
        <time>2020-09-19T10:53:40.750Z</time>
      </trkpt>
      <trkpt lat="45.81629" lon="1.21376">
        <ele>279</ele>
        <time>2020-09-19T10:53:41.750Z</time>
      </trkpt>
      <trkpt lat="45.81628" lon="1.21371">
        <ele>279</ele>
        <time>2020-09-19T10:53:42.750Z</time>
      </trkpt>
      <trkpt lat="45.81627" lon="1.21366">
        <ele>279</ele>
        <time>2020-09-19T10:53:43.750Z</time>
      </trkpt>
      <trkpt lat="45.81627" lon="1.21361">
        <ele>279</ele>
        <time>2020-09-19T10:53:44.750Z</time>
      </trkpt>
      <trkpt lat="45.81626" lon="1.21356">
        <ele>280</ele>
        <time>2020-09-19T10:53:45.750Z</time>
      </trkpt>
      <trkpt lat="45.81625" lon="1.21351">
        <ele>280</ele>
        <time>2020-09-19T10:53:46.750Z</time>
      </trkpt>
      <trkpt lat="45.81625" lon="1.21345">
        <ele>280</ele>
        <time>2020-09-19T10:53:47.750Z</time>
      </trkpt>
      <trkpt lat="45.81624" lon="1.21341">
        <ele>279</ele>
        <time>2020-09-19T10:53:48.750Z</time>
      </trkpt>
      <trkpt lat="45.81623" lon="1.21336">
        <ele>279</ele>
        <time>2020-09-19T10:53:49.750Z</time>
      </trkpt>
      <trkpt lat="45.81622" lon="1.21331">
        <ele>279</ele>
        <time>2020-09-19T10:53:50.750Z</time>
      </trkpt>
      <trkpt lat="45.81622" lon="1.21327">
        <ele>278</ele>
        <time>2020-09-19T10:53:51.750Z</time>
      </trkpt>
      <trkpt lat="45.81621" lon="1.21322">
        <ele>278</ele>
        <time>2020-09-19T10:53:52.750Z</time>
      </trkpt>
      <trkpt lat="45.81621" lon="1.21317">
        <ele>278</ele>
        <time>2020-09-19T10:53:53.750Z</time>
      </trkpt>
      <trkpt lat="45.8162" lon="1.21312">
        <ele>277</ele>
        <time>2020-09-19T10:53:54.750Z</time>
      </trkpt>
      <trkpt lat="45.8162" lon="1.21307">
        <ele>277</ele>
        <time>2020-09-19T10:53:55.750Z</time>
      </trkpt>
      <trkpt lat="45.81619" lon="1.21302">
        <ele>276</ele>
        <time>2020-09-19T10:53:56.750Z</time>
      </trkpt>
      <trkpt lat="45.81619" lon="1.21297">
        <ele>276</ele>
        <time>2020-09-19T10:53:57.750Z</time>
      </trkpt>
      <trkpt lat="45.81618" lon="1.21292">
        <ele>276</ele>
        <time>2020-09-19T10:53:58.750Z</time>
      </trkpt>
      <trkpt lat="45.81617" lon="1.21287">
        <ele>276</ele>
        <time>2020-09-19T10:53:59.750Z</time>
      </trkpt>
      <trkpt lat="45.81617" lon="1.21282">
        <ele>275</ele>
        <time>2020-09-19T10:54:00.750Z</time>
      </trkpt>
      <trkpt lat="45.81616" lon="1.21277">
        <ele>274</ele>
        <time>2020-09-19T10:54:01.750Z</time>
      </trkpt>
      <trkpt lat="45.81616" lon="1.21272">
        <ele>274</ele>
        <time>2020-09-19T10:54:02.750Z</time>
      </trkpt>
      <trkpt lat="45.81615" lon="1.21268">
        <ele>274</ele>
        <time>2020-09-19T10:54:03.750Z</time>
      </trkpt>
      <trkpt lat="45.81614" lon="1.21263">
        <ele>274</ele>
        <time>2020-09-19T10:54:04.750Z</time>
      </trkpt>
      <trkpt lat="45.81613" lon="1.21258">
        <ele>274</ele>
        <time>2020-09-19T10:54:05.750Z</time>
      </trkpt>
      <trkpt lat="45.81612" lon="1.21253">
        <ele>273</ele>
        <time>2020-09-19T10:54:06.750Z</time>
      </trkpt>
      <trkpt lat="45.81612" lon="1.21249">
        <ele>273</ele>
        <time>2020-09-19T10:54:07.750Z</time>
      </trkpt>
      <trkpt lat="45.81611" lon="1.21244">
        <ele>273</ele>
        <time>2020-09-19T10:54:08.750Z</time>
      </trkpt>
      <trkpt lat="45.81611" lon="1.2124">
        <ele>273</ele>
        <time>2020-09-19T10:54:09.750Z</time>
      </trkpt>
      <trkpt lat="45.8161" lon="1.21235">
        <ele>273</ele>
        <time>2020-09-19T10:54:10.750Z</time>
      </trkpt>
      <trkpt lat="45.81609" lon="1.2123">
        <ele>273</ele>
        <time>2020-09-19T10:54:11.750Z</time>
      </trkpt>
      <trkpt lat="45.81608" lon="1.21225">
        <ele>273</ele>
        <time>2020-09-19T10:54:12.750Z</time>
      </trkpt>
      <trkpt lat="45.81607" lon="1.2122">
        <ele>273</ele>
        <time>2020-09-19T10:54:13.750Z</time>
      </trkpt>
      <trkpt lat="45.81607" lon="1.21215">
        <ele>273</ele>
        <time>2020-09-19T10:54:14.750Z</time>
      </trkpt>
      <trkpt lat="45.81606" lon="1.2121">
        <ele>273</ele>
        <time>2020-09-19T10:54:15.750Z</time>
      </trkpt>
      <trkpt lat="45.81605" lon="1.21205">
        <ele>273</ele>
        <time>2020-09-19T10:54:16.750Z</time>
      </trkpt>
      <trkpt lat="45.81605" lon="1.212">
        <ele>273</ele>
        <time>2020-09-19T10:54:17.750Z</time>
      </trkpt>
      <trkpt lat="45.81604" lon="1.21195">
        <ele>272</ele>
        <time>2020-09-19T10:54:18.750Z</time>
      </trkpt>
      <trkpt lat="45.81603" lon="1.21191">
        <ele>272</ele>
        <time>2020-09-19T10:54:19.750Z</time>
      </trkpt>
      <trkpt lat="45.81602" lon="1.21186">
        <ele>271</ele>
        <time>2020-09-19T10:54:20.750Z</time>
      </trkpt>
      <trkpt lat="45.81601" lon="1.21181">
        <ele>271</ele>
        <time>2020-09-19T10:54:21.750Z</time>
      </trkpt>
      <trkpt lat="45.81601" lon="1.21176">
        <ele>272</ele>
        <time>2020-09-19T10:54:22.750Z</time>
      </trkpt>
      <trkpt lat="45.816" lon="1.21171">
        <ele>272</ele>
        <time>2020-09-19T10:54:23.750Z</time>
      </trkpt>
      <trkpt lat="45.81599" lon="1.21166">
        <ele>272</ele>
        <time>2020-09-19T10:54:24.750Z</time>
      </trkpt>
      <trkpt lat="45.81599" lon="1.21161">
        <ele>271</ele>
        <time>2020-09-19T10:54:25.750Z</time>
      </trkpt>
      <trkpt lat="45.81598" lon="1.21157">
        <ele>272</ele>
        <time>2020-09-19T10:54:26.750Z</time>
      </trkpt>
      <trkpt lat="45.81597" lon="1.21152">
        <ele>272</ele>
        <time>2020-09-19T10:54:27.750Z</time>
      </trkpt>
      <trkpt lat="45.81597" lon="1.21147">
        <ele>272</ele>
        <time>2020-09-19T10:54:28.750Z</time>
      </trkpt>
      <trkpt lat="45.81596" lon="1.21143">
        <ele>271</ele>
        <time>2020-09-19T10:54:29.750Z</time>
      </trkpt>
      <trkpt lat="45.81596" lon="1.21138">
        <ele>271</ele>
        <time>2020-09-19T10:54:30.750Z</time>
      </trkpt>
      <trkpt lat="45.81595" lon="1.21133">
        <ele>271</ele>
        <time>2020-09-19T10:54:31.750Z</time>
      </trkpt>
      <trkpt lat="45.81594" lon="1.21128">
        <ele>271</ele>
        <time>2020-09-19T10:54:32.750Z</time>
      </trkpt>
      <trkpt lat="45.81594" lon="1.21123">
        <ele>271</ele>
        <time>2020-09-19T10:54:33.750Z</time>
      </trkpt>
      <trkpt lat="45.81593" lon="1.21119">
        <ele>270</ele>
        <time>2020-09-19T10:54:34.750Z</time>
      </trkpt>
      <trkpt lat="45.81593" lon="1.21114">
        <ele>270</ele>
        <time>2020-09-19T10:54:35.750Z</time>
      </trkpt>
      <trkpt lat="45.81593" lon="1.2111">
        <ele>270</ele>
        <time>2020-09-19T10:54:36.750Z</time>
      </trkpt>
      <trkpt lat="45.81593" lon="1.21105">
        <ele>270</ele>
        <time>2020-09-19T10:54:37.750Z</time>
      </trkpt>
      <trkpt lat="45.81592" lon="1.211">
        <ele>269</ele>
        <time>2020-09-19T10:54:38.750Z</time>
      </trkpt>
      <trkpt lat="45.81592" lon="1.21095">
        <ele>269</ele>
        <time>2020-09-19T10:54:39.750Z</time>
      </trkpt>
      <trkpt lat="45.81592" lon="1.2109">
        <ele>268</ele>
        <time>2020-09-19T10:54:40.750Z</time>
      </trkpt>
      <trkpt lat="45.81592" lon="1.21085">
        <ele>268</ele>
        <time>2020-09-19T10:54:41.750Z</time>
      </trkpt>
      <trkpt lat="45.81592" lon="1.2108">
        <ele>268</ele>
        <time>2020-09-19T10:54:42.750Z</time>
      </trkpt>
      <trkpt lat="45.81592" lon="1.21075">
        <ele>268</ele>
        <time>2020-09-19T10:54:43.750Z</time>
      </trkpt>
      <trkpt lat="45.81592" lon="1.21069">
        <ele>269</ele>
        <time>2020-09-19T10:54:44.750Z</time>
      </trkpt>
      <trkpt lat="45.81592" lon="1.21064">
        <ele>269</ele>
        <time>2020-09-19T10:54:45.750Z</time>
      </trkpt>
      <trkpt lat="45.81593" lon="1.21059">
        <ele>269</ele>
        <time>2020-09-19T10:54:46.750Z</time>
      </trkpt>
      <trkpt lat="45.81594" lon="1.21054">
        <ele>269</ele>
        <time>2020-09-19T10:54:47.750Z</time>
      </trkpt>
      <trkpt lat="45.81594" lon="1.21048">
        <ele>268</ele>
        <time>2020-09-19T10:54:48.750Z</time>
      </trkpt>
      <trkpt lat="45.81595" lon="1.21043">
        <ele>268</ele>
        <time>2020-09-19T10:54:49.750Z</time>
      </trkpt>
      <trkpt lat="45.81596" lon="1.21038">
        <ele>268</ele>
        <time>2020-09-19T10:54:50.750Z</time>
      </trkpt>
      <trkpt lat="45.81597" lon="1.21032">
        <ele>269</ele>
        <time>2020-09-19T10:54:51.750Z</time>
      </trkpt>
      <trkpt lat="45.81598" lon="1.21027">
        <ele>269</ele>
        <time>2020-09-19T10:54:52.750Z</time>
      </trkpt>
      <trkpt lat="45.816" lon="1.21022">
        <ele>269</ele>
        <time>2020-09-19T10:54:53.750Z</time>
      </trkpt>
      <trkpt lat="45.81602" lon="1.21017">
        <ele>269</ele>
        <time>2020-09-19T10:54:54.750Z</time>
      </trkpt>
      <trkpt lat="45.81603" lon="1.21013">
        <ele>270</ele>
        <time>2020-09-19T10:54:55.750Z</time>
      </trkpt>
      <trkpt lat="45.81605" lon="1.21009">
        <ele>269</ele>
        <time>2020-09-19T10:54:56.750Z</time>
      </trkpt>
      <trkpt lat="45.81607" lon="1.21005">
        <ele>269</ele>
        <time>2020-09-19T10:54:57.750Z</time>
      </trkpt>
      <trkpt lat="45.8161" lon="1.21002">
        <ele>268</ele>
        <time>2020-09-19T10:54:58.750Z</time>
      </trkpt>
      <trkpt lat="45.81613" lon="1.20999">
        <ele>267</ele>
        <time>2020-09-19T10:54:59.750Z</time>
      </trkpt>
      <trkpt lat="45.81617" lon="1.20997">
        <ele>266</ele>
        <time>2020-09-19T10:55:00.750Z</time>
      </trkpt>
      <trkpt lat="45.8162" lon="1.20994">
        <ele>267</ele>
        <time>2020-09-19T10:55:01.750Z</time>
      </trkpt>
      <trkpt lat="45.81623" lon="1.20991">
        <ele>267</ele>
        <time>2020-09-19T10:55:02.750Z</time>
      </trkpt>
      <trkpt lat="45.81626" lon="1.20987">
        <ele>266</ele>
        <time>2020-09-19T10:55:03.750Z</time>
      </trkpt>
      <trkpt lat="45.81628" lon="1.20982">
        <ele>267</ele>
        <time>2020-09-19T10:55:04.750Z</time>
      </trkpt>
      <trkpt lat="45.8163" lon="1.20978">
        <ele>267</ele>
        <time>2020-09-19T10:55:05.750Z</time>
      </trkpt>
      <trkpt lat="45.81633" lon="1.20973">
        <ele>266</ele>
        <time>2020-09-19T10:55:06.750Z</time>
      </trkpt>
      <trkpt lat="45.81634" lon="1.20969">
        <ele>266</ele>
        <time>2020-09-19T10:55:07.750Z</time>
      </trkpt>
      <trkpt lat="45.81636" lon="1.20964">
        <ele>265</ele>
        <time>2020-09-19T10:55:08.750Z</time>
      </trkpt>
      <trkpt lat="45.81638" lon="1.2096">
        <ele>265</ele>
        <time>2020-09-19T10:55:09.750Z</time>
      </trkpt>
      <trkpt lat="45.8164" lon="1.20956">
        <ele>265</ele>
        <time>2020-09-19T10:55:10.750Z</time>
      </trkpt>
      <trkpt lat="45.81642" lon="1.20952">
        <ele>265</ele>
        <time>2020-09-19T10:55:11.750Z</time>
      </trkpt>
      <trkpt lat="45.81644" lon="1.20949">
        <ele>265</ele>
        <time>2020-09-19T10:55:12.750Z</time>
      </trkpt>
      <trkpt lat="45.81647" lon="1.20946">
        <ele>265</ele>
        <time>2020-09-19T10:55:13.750Z</time>
      </trkpt>
      <trkpt lat="45.81649" lon="1.20943">
        <ele>265</ele>
        <time>2020-09-19T10:55:14.750Z</time>
      </trkpt>
      <trkpt lat="45.81652" lon="1.20941">
        <ele>265</ele>
        <time>2020-09-19T10:55:15.750Z</time>
      </trkpt>
      <trkpt lat="45.81655" lon="1.20939">
        <ele>265</ele>
        <time>2020-09-19T10:55:16.750Z</time>
      </trkpt>
      <trkpt lat="45.81658" lon="1.20937">
        <ele>265</ele>
        <time>2020-09-19T10:55:17.750Z</time>
      </trkpt>
      <trkpt lat="45.81661" lon="1.20935">
        <ele>264</ele>
        <time>2020-09-19T10:55:18.750Z</time>
      </trkpt>
      <trkpt lat="45.81665" lon="1.20934">
        <ele>264</ele>
        <time>2020-09-19T10:55:19.750Z</time>
      </trkpt>
      <trkpt lat="45.81669" lon="1.20933">
        <ele>263</ele>
        <time>2020-09-19T10:55:20.750Z</time>
      </trkpt>
      <trkpt lat="45.81672" lon="1.20933">
        <ele>262</ele>
        <time>2020-09-19T10:55:21.750Z</time>
      </trkpt>
      <trkpt lat="45.81676" lon="1.20933">
        <ele>262</ele>
        <time>2020-09-19T10:55:22.750Z</time>
      </trkpt>
      <trkpt lat="45.81679" lon="1.20933">
        <ele>262</ele>
        <time>2020-09-19T10:55:23.750Z</time>
      </trkpt>
      <trkpt lat="45.81683" lon="1.20933">
        <ele>261</ele>
        <time>2020-09-19T10:55:24.750Z</time>
      </trkpt>
      <trkpt lat="45.81687" lon="1.20933">
        <ele>260</ele>
        <time>2020-09-19T10:55:25.750Z</time>
      </trkpt>
      <trkpt lat="45.8169" lon="1.20932">
        <ele>260</ele>
        <time>2020-09-19T10:55:26.750Z</time>
      </trkpt>
      <trkpt lat="45.81694" lon="1.20932">
        <ele>260</ele>
        <time>2020-09-19T10:55:27.750Z</time>
      </trkpt>
      <trkpt lat="45.81697" lon="1.20932">
        <ele>260</ele>
        <time>2020-09-19T10:55:28.750Z</time>
      </trkpt>
      <trkpt lat="45.81701" lon="1.20932">
        <ele>260</ele>
        <time>2020-09-19T10:55:29.750Z</time>
      </trkpt>
      <trkpt lat="45.81704" lon="1.20932">
        <ele>260</ele>
        <time>2020-09-19T10:55:30.750Z</time>
      </trkpt>
      <trkpt lat="45.81708" lon="1.20932">
        <ele>259</ele>
        <time>2020-09-19T10:55:31.750Z</time>
      </trkpt>
      <trkpt lat="45.81712" lon="1.20932">
        <ele>259</ele>
        <time>2020-09-19T10:55:32.750Z</time>
      </trkpt>
      <trkpt lat="45.81715" lon="1.20932">
        <ele>259</ele>
        <time>2020-09-19T10:55:33.750Z</time>
      </trkpt>
      <trkpt lat="45.81718" lon="1.20931">
        <ele>259</ele>
        <time>2020-09-19T10:55:34.750Z</time>
      </trkpt>
      <trkpt lat="45.81722" lon="1.20931">
        <ele>258</ele>
        <time>2020-09-19T10:55:35.750Z</time>
      </trkpt>
      <trkpt lat="45.81726" lon="1.20931">
        <ele>258</ele>
        <time>2020-09-19T10:55:36.750Z</time>
      </trkpt>
      <trkpt lat="45.81729" lon="1.20931">
        <ele>258</ele>
        <time>2020-09-19T10:55:37.750Z</time>
      </trkpt>
      <trkpt lat="45.81733" lon="1.20931">
        <ele>257</ele>
        <time>2020-09-19T10:55:38.750Z</time>
      </trkpt>
      <trkpt lat="45.81737" lon="1.2093">
        <ele>256</ele>
        <time>2020-09-19T10:55:39.750Z</time>
      </trkpt>
      <trkpt lat="45.8174" lon="1.2093">
        <ele>256</ele>
        <time>2020-09-19T10:55:40.750Z</time>
      </trkpt>
      <trkpt lat="45.81744" lon="1.2093">
        <ele>256</ele>
        <time>2020-09-19T10:55:41.750Z</time>
      </trkpt>
      <trkpt lat="45.81748" lon="1.2093">
        <ele>256</ele>
        <time>2020-09-19T10:55:42.750Z</time>
      </trkpt>
      <trkpt lat="45.81751" lon="1.2093">
        <ele>256</ele>
        <time>2020-09-19T10:55:43.750Z</time>
      </trkpt>
      <trkpt lat="45.81755" lon="1.2093">
        <ele>256</ele>
        <time>2020-09-19T10:55:44.750Z</time>
      </trkpt>
      <trkpt lat="45.81759" lon="1.2093">
        <ele>256</ele>
        <time>2020-09-19T10:55:45.750Z</time>
      </trkpt>
      <trkpt lat="45.81763" lon="1.2093">
        <ele>256</ele>
        <time>2020-09-19T10:55:46.750Z</time>
      </trkpt>
      <trkpt lat="45.81766" lon="1.2093">
        <ele>256</ele>
        <time>2020-09-19T10:55:47.750Z</time>
      </trkpt>
      <trkpt lat="45.8177" lon="1.2093">
        <ele>255</ele>
        <time>2020-09-19T10:55:48.750Z</time>
      </trkpt>
      <trkpt lat="45.81773" lon="1.2093">
        <ele>256</ele>
        <time>2020-09-19T10:55:49.750Z</time>
      </trkpt>
      <trkpt lat="45.81777" lon="1.2093">
        <ele>256</ele>
        <time>2020-09-19T10:55:50.750Z</time>
      </trkpt>
      <trkpt lat="45.81781" lon="1.2093">
        <ele>255</ele>
        <time>2020-09-19T10:55:51.750Z</time>
      </trkpt>
      <trkpt lat="45.81784" lon="1.2093">
        <ele>255</ele>
        <time>2020-09-19T10:55:52.750Z</time>
      </trkpt>
      <trkpt lat="45.81788" lon="1.20929">
        <ele>255</ele>
        <time>2020-09-19T10:55:53.750Z</time>
      </trkpt>
      <trkpt lat="45.81792" lon="1.20929">
        <ele>254</ele>
        <time>2020-09-19T10:55:54.750Z</time>
      </trkpt>
      <trkpt lat="45.81795" lon="1.20928">
        <ele>254</ele>
        <time>2020-09-19T10:55:55.750Z</time>
      </trkpt>
      <trkpt lat="45.81799" lon="1.20928">
        <ele>254</ele>
        <time>2020-09-19T10:55:56.750Z</time>
      </trkpt>
      <trkpt lat="45.81803" lon="1.20928">
        <ele>254</ele>
        <time>2020-09-19T10:55:57.750Z</time>
      </trkpt>
      <trkpt lat="45.81806" lon="1.20927">
        <ele>255</ele>
        <time>2020-09-19T10:55:58.750Z</time>
      </trkpt>
      <trkpt lat="45.8181" lon="1.20927">
        <ele>255</ele>
        <time>2020-09-19T10:55:59.750Z</time>
      </trkpt>
      <trkpt lat="45.81813" lon="1.20926">
        <ele>254</ele>
        <time>2020-09-19T10:56:00.750Z</time>
      </trkpt>
      <trkpt lat="45.81817" lon="1.20926">
        <ele>254</ele>
        <time>2020-09-19T10:56:01.750Z</time>
      </trkpt>
      <trkpt lat="45.8182" lon="1.20926">
        <ele>253</ele>
        <time>2020-09-19T10:56:02.750Z</time>
      </trkpt>
      <trkpt lat="45.81824" lon="1.20925">
        <ele>252</ele>
        <time>2020-09-19T10:56:03.750Z</time>
      </trkpt>
      <trkpt lat="45.81828" lon="1.20925">
        <ele>252</ele>
        <time>2020-09-19T10:56:04.750Z</time>
      </trkpt>
      <trkpt lat="45.81831" lon="1.20925">
        <ele>251</ele>
        <time>2020-09-19T10:56:05.750Z</time>
      </trkpt>
      <trkpt lat="45.81835" lon="1.20925">
        <ele>251</ele>
        <time>2020-09-19T10:56:06.750Z</time>
      </trkpt>
      <trkpt lat="45.81839" lon="1.20924">
        <ele>251</ele>
        <time>2020-09-19T10:56:07.750Z</time>
      </trkpt>
      <trkpt lat="45.81843" lon="1.20924">
        <ele>251</ele>
        <time>2020-09-19T10:56:08.750Z</time>
      </trkpt>
      <trkpt lat="45.81846" lon="1.20923">
        <ele>250</ele>
        <time>2020-09-19T10:56:09.750Z</time>
      </trkpt>
      <trkpt lat="45.8185" lon="1.20923">
        <ele>251</ele>
        <time>2020-09-19T10:56:10.750Z</time>
      </trkpt>
      <trkpt lat="45.81854" lon="1.20923">
        <ele>251</ele>
        <time>2020-09-19T10:56:11.750Z</time>
      </trkpt>
      <trkpt lat="45.81857" lon="1.20922">
        <ele>251</ele>
        <time>2020-09-19T10:56:12.750Z</time>
      </trkpt>
      <trkpt lat="45.81861" lon="1.20922">
        <ele>251</ele>
        <time>2020-09-19T10:56:13.750Z</time>
      </trkpt>
      <trkpt lat="45.81865" lon="1.20922">
        <ele>250</ele>
        <time>2020-09-19T10:56:14.750Z</time>
      </trkpt>
      <trkpt lat="45.81868" lon="1.20921">
        <ele>250</ele>
        <time>2020-09-19T10:56:15.750Z</time>
      </trkpt>
      <trkpt lat="45.81872" lon="1.2092">
        <ele>250</ele>
        <time>2020-09-19T10:56:16.750Z</time>
      </trkpt>
      <trkpt lat="45.81876" lon="1.2092">
        <ele>250</ele>
        <time>2020-09-19T10:56:17.750Z</time>
      </trkpt>
      <trkpt lat="45.8188" lon="1.2092">
        <ele>250</ele>
        <time>2020-09-19T10:56:18.750Z</time>
      </trkpt>
      <trkpt lat="45.81883" lon="1.2092">
        <ele>249</ele>
        <time>2020-09-19T10:56:19.750Z</time>
      </trkpt>
      <trkpt lat="45.81887" lon="1.2092">
        <ele>248</ele>
        <time>2020-09-19T10:56:20.750Z</time>
      </trkpt>
      <trkpt lat="45.81891" lon="1.2092">
        <ele>248</ele>
        <time>2020-09-19T10:56:21.750Z</time>
      </trkpt>
      <trkpt lat="45.81895" lon="1.20921">
        <ele>248</ele>
        <time>2020-09-19T10:56:22.750Z</time>
      </trkpt>
      <trkpt lat="45.81899" lon="1.20921">
        <ele>249</ele>
        <time>2020-09-19T10:56:23.750Z</time>
      </trkpt>
      <trkpt lat="45.81902" lon="1.20921">
        <ele>248</ele>
        <time>2020-09-19T10:56:24.750Z</time>
      </trkpt>
      <trkpt lat="45.81906" lon="1.20921">
        <ele>248</ele>
        <time>2020-09-19T10:56:25.750Z</time>
      </trkpt>
      <trkpt lat="45.81909" lon="1.20921">
        <ele>248</ele>
        <time>2020-09-19T10:56:26.750Z</time>
      </trkpt>
      <trkpt lat="45.81913" lon="1.20921">
        <ele>247</ele>
        <time>2020-09-19T10:56:27.750Z</time>
      </trkpt>
      <trkpt lat="45.81917" lon="1.2092">
        <ele>247</ele>
        <time>2020-09-19T10:56:28.750Z</time>
      </trkpt>
      <trkpt lat="45.8192" lon="1.2092">
        <ele>246</ele>
        <time>2020-09-19T10:56:29.750Z</time>
      </trkpt>
      <trkpt lat="45.81924" lon="1.2092">
        <ele>246</ele>
        <time>2020-09-19T10:56:30.750Z</time>
      </trkpt>
      <trkpt lat="45.81928" lon="1.2092">
        <ele>246</ele>
        <time>2020-09-19T10:56:31.750Z</time>
      </trkpt>
      <trkpt lat="45.81931" lon="1.2092">
        <ele>245</ele>
        <time>2020-09-19T10:56:32.750Z</time>
      </trkpt>
      <trkpt lat="45.81935" lon="1.2092">
        <ele>244</ele>
        <time>2020-09-19T10:56:33.750Z</time>
      </trkpt>
      <trkpt lat="45.81938" lon="1.2092">
        <ele>244</ele>
        <time>2020-09-19T10:56:34.750Z</time>
      </trkpt>
      <trkpt lat="45.81942" lon="1.2092">
        <ele>244</ele>
        <time>2020-09-19T10:56:35.750Z</time>
      </trkpt>
      <trkpt lat="45.81946" lon="1.2092">
        <ele>243</ele>
        <time>2020-09-19T10:56:36.750Z</time>
      </trkpt>
      <trkpt lat="45.81949" lon="1.20919">
        <ele>242</ele>
        <time>2020-09-19T10:56:37.750Z</time>
      </trkpt>
      <trkpt lat="45.81952" lon="1.20918">
        <ele>242</ele>
        <time>2020-09-19T10:56:38.750Z</time>
      </trkpt>
      <trkpt lat="45.81956" lon="1.20918">
        <ele>242</ele>
        <time>2020-09-19T10:56:39.750Z</time>
      </trkpt>
      <trkpt lat="45.81959" lon="1.20918">
        <ele>242</ele>
        <time>2020-09-19T10:56:40.750Z</time>
      </trkpt>
      <trkpt lat="45.81963" lon="1.20918">
        <ele>241</ele>
        <time>2020-09-19T10:56:41.750Z</time>
      </trkpt>
      <trkpt lat="45.81966" lon="1.20918">
        <ele>241</ele>
        <time>2020-09-19T10:56:42.750Z</time>
      </trkpt>
      <trkpt lat="45.8197" lon="1.20918">
        <ele>241</ele>
        <time>2020-09-19T10:56:43.750Z</time>
      </trkpt>
      <trkpt lat="45.81973" lon="1.20919">
        <ele>240</ele>
        <time>2020-09-19T10:56:44.750Z</time>
      </trkpt>
      <trkpt lat="45.81976" lon="1.20919">
        <ele>239</ele>
        <time>2020-09-19T10:56:45.750Z</time>
      </trkpt>
      <trkpt lat="45.8198" lon="1.20919">
        <ele>238</ele>
        <time>2020-09-19T10:56:46.750Z</time>
      </trkpt>
      <trkpt lat="45.81983" lon="1.20919">
        <ele>238</ele>
        <time>2020-09-19T10:56:47.750Z</time>
      </trkpt>
      <trkpt lat="45.81987" lon="1.20918">
        <ele>238</ele>
        <time>2020-09-19T10:56:48.750Z</time>
      </trkpt>
      <trkpt lat="45.8199" lon="1.20918">
        <ele>237</ele>
        <time>2020-09-19T10:56:49.750Z</time>
      </trkpt>
      <trkpt lat="45.81994" lon="1.20917">
        <ele>237</ele>
        <time>2020-09-19T10:56:50.750Z</time>
      </trkpt>
      <trkpt lat="45.81997" lon="1.20917">
        <ele>238</ele>
        <time>2020-09-19T10:56:51.750Z</time>
      </trkpt>
      <trkpt lat="45.82" lon="1.20917">
        <ele>237</ele>
        <time>2020-09-19T10:56:52.750Z</time>
      </trkpt>
      <trkpt lat="45.82003" lon="1.20917">
        <ele>235</ele>
        <time>2020-09-19T10:56:53.750Z</time>
      </trkpt>
      <trkpt lat="45.82004" lon="1.20915">
        <ele>233</ele>
        <time>2020-09-19T10:56:54.750Z</time>
      </trkpt>
      <trkpt lat="45.82005" lon="1.20913">
        <ele>230</ele>
        <time>2020-09-19T10:56:55.750Z</time>
      </trkpt>
      <trkpt lat="45.82004" lon="1.20912">
        <ele>229</ele>
        <time>2020-09-19T10:56:56.750Z</time>
      </trkpt>
      <trkpt lat="45.82002" lon="1.20911">
        <ele>229</ele>
        <time>2020-09-19T10:56:57.750Z</time>
      </trkpt>
      <trkpt lat="45.82" lon="1.20912">
        <ele>228</ele>
        <time>2020-09-19T10:56:58.750Z</time>
      </trkpt>
      <trkpt lat="45.81997" lon="1.20913">
        <ele>227</ele>
        <time>2020-09-19T10:56:59.750Z</time>
      </trkpt>
      <trkpt lat="45.81994" lon="1.20913">
        <ele>228</ele>
        <time>2020-09-19T10:57:00.750Z</time>
      </trkpt>
      <trkpt lat="45.81992" lon="1.20914">
        <ele>229</ele>
        <time>2020-09-19T10:57:01.750Z</time>
      </trkpt>
      <trkpt lat="45.81989" lon="1.20914">
        <ele>229</ele>
        <time>2020-09-19T10:57:02.750Z</time>
      </trkpt>
      <trkpt lat="45.81987" lon="1.20915">
        <ele>231</ele>
        <time>2020-09-19T10:57:03.750Z</time>
      </trkpt>
      <trkpt lat="45.81984" lon="1.20915">
        <ele>231</ele>
        <time>2020-09-19T10:57:04.750Z</time>
      </trkpt>
      <trkpt lat="45.81982" lon="1.20915">
        <ele>231</ele>
        <time>2020-09-19T10:57:05.750Z</time>
      </trkpt>
      <trkpt lat="45.81979" lon="1.20915">
        <ele>231</ele>
        <time>2020-09-19T10:57:06.750Z</time>
      </trkpt>
      <trkpt lat="45.81976" lon="1.20915">
        <ele>231</ele>
        <time>2020-09-19T10:57:07.750Z</time>
      </trkpt>
      <trkpt lat="45.81972" lon="1.20915">
        <ele>231</ele>
        <time>2020-09-19T10:57:08.750Z</time>
      </trkpt>
      <trkpt lat="45.81969" lon="1.20915">
        <ele>231</ele>
        <time>2020-09-19T10:57:09.750Z</time>
      </trkpt>
      <trkpt lat="45.81966" lon="1.20915">
        <ele>231</ele>
        <time>2020-09-19T10:57:10.750Z</time>
      </trkpt>
      <trkpt lat="45.81963" lon="1.20915">
        <ele>232</ele>
        <time>2020-09-19T10:57:11.750Z</time>
      </trkpt>
      <trkpt lat="45.81959" lon="1.20916">
        <ele>232</ele>
        <time>2020-09-19T10:57:12.750Z</time>
      </trkpt>
      <trkpt lat="45.81956" lon="1.20917">
        <ele>232</ele>
        <time>2020-09-19T10:57:13.750Z</time>
      </trkpt>
      <trkpt lat="45.81953" lon="1.20917">
        <ele>232</ele>
        <time>2020-09-19T10:57:14.750Z</time>
      </trkpt>
      <trkpt lat="45.8195" lon="1.20918">
        <ele>232</ele>
        <time>2020-09-19T10:57:15.750Z</time>
      </trkpt>
      <trkpt lat="45.81947" lon="1.20918">
        <ele>232</ele>
        <time>2020-09-19T10:57:16.750Z</time>
      </trkpt>
      <trkpt lat="45.81944" lon="1.20919">
        <ele>233</ele>
        <time>2020-09-19T10:57:17.750Z</time>
      </trkpt>
      <trkpt lat="45.81941" lon="1.20919">
        <ele>233</ele>
        <time>2020-09-19T10:57:18.750Z</time>
      </trkpt>
      <trkpt lat="45.81938" lon="1.20919">
        <ele>233</ele>
        <time>2020-09-19T10:57:19.750Z</time>
      </trkpt>
      <trkpt lat="45.81934" lon="1.20918">
        <ele>234</ele>
        <time>2020-09-19T10:57:20.750Z</time>
      </trkpt>
      <trkpt lat="45.81931" lon="1.20918">
        <ele>234</ele>
        <time>2020-09-19T10:57:21.750Z</time>
      </trkpt>
      <trkpt lat="45.81928" lon="1.20918">
        <ele>235</ele>
        <time>2020-09-19T10:57:22.750Z</time>
      </trkpt>
      <trkpt lat="45.81925" lon="1.20918">
        <ele>235</ele>
        <time>2020-09-19T10:57:23.750Z</time>
      </trkpt>
      <trkpt lat="45.81922" lon="1.20919">
        <ele>237</ele>
        <time>2020-09-19T10:57:24.750Z</time>
      </trkpt>
      <trkpt lat="45.81919" lon="1.20919">
        <ele>237</ele>
        <time>2020-09-19T10:57:25.750Z</time>
      </trkpt>
      <trkpt lat="45.81916" lon="1.2092">
        <ele>236</ele>
        <time>2020-09-19T10:57:26.750Z</time>
      </trkpt>
      <trkpt lat="45.81913" lon="1.2092">
        <ele>237</ele>
        <time>2020-09-19T10:57:27.750Z</time>
      </trkpt>
      <trkpt lat="45.81909" lon="1.20921">
        <ele>238</ele>
        <time>2020-09-19T10:57:28.750Z</time>
      </trkpt>
      <trkpt lat="45.81906" lon="1.20921">
        <ele>239</ele>
        <time>2020-09-19T10:57:29.750Z</time>
      </trkpt>
      <trkpt lat="45.81903" lon="1.20921">
        <ele>240</ele>
        <time>2020-09-19T10:57:30.750Z</time>
      </trkpt>
      <trkpt lat="45.819" lon="1.20922">
        <ele>241</ele>
        <time>2020-09-19T10:57:31.750Z</time>
      </trkpt>
      <trkpt lat="45.81897" lon="1.20922">
        <ele>241</ele>
        <time>2020-09-19T10:57:32.750Z</time>
      </trkpt>
      <trkpt lat="45.81893" lon="1.20922">
        <ele>243</ele>
        <time>2020-09-19T10:57:33.750Z</time>
      </trkpt>
      <trkpt lat="45.8189" lon="1.20922">
        <ele>244</ele>
        <time>2020-09-19T10:57:34.750Z</time>
      </trkpt>
      <trkpt lat="45.81886" lon="1.20922">
        <ele>244</ele>
        <time>2020-09-19T10:57:35.750Z</time>
      </trkpt>
      <trkpt lat="45.81883" lon="1.20922">
        <ele>244</ele>
        <time>2020-09-19T10:57:36.750Z</time>
      </trkpt>
      <trkpt lat="45.8188" lon="1.20922">
        <ele>244</ele>
        <time>2020-09-19T10:57:37.750Z</time>
      </trkpt>
      <trkpt lat="45.81876" lon="1.20922">
        <ele>245</ele>
        <time>2020-09-19T10:57:38.750Z</time>
      </trkpt>
      <trkpt lat="45.81873" lon="1.20923">
        <ele>245</ele>
        <time>2020-09-19T10:57:39.750Z</time>
      </trkpt>
      <trkpt lat="45.8187" lon="1.20923">
        <ele>245</ele>
        <time>2020-09-19T10:57:40.750Z</time>
      </trkpt>
      <trkpt lat="45.81867" lon="1.20923">
        <ele>246</ele>
        <time>2020-09-19T10:57:41.750Z</time>
      </trkpt>
      <trkpt lat="45.81864" lon="1.20924">
        <ele>246</ele>
        <time>2020-09-19T10:57:42.750Z</time>
      </trkpt>
      <trkpt lat="45.81861" lon="1.20924">
        <ele>247</ele>
        <time>2020-09-19T10:57:43.750Z</time>
      </trkpt>
      <trkpt lat="45.81858" lon="1.20924">
        <ele>246</ele>
        <time>2020-09-19T10:57:44.750Z</time>
      </trkpt>
      <trkpt lat="45.81855" lon="1.20925">
        <ele>246</ele>
        <time>2020-09-19T10:57:45.750Z</time>
      </trkpt>
      <trkpt lat="45.81852" lon="1.20926">
        <ele>246</ele>
        <time>2020-09-19T10:57:46.750Z</time>
      </trkpt>
      <trkpt lat="45.8185" lon="1.20927">
        <ele>246</ele>
        <time>2020-09-19T10:57:47.750Z</time>
      </trkpt>
      <trkpt lat="45.81847" lon="1.20927">
        <ele>246</ele>
        <time>2020-09-19T10:57:48.750Z</time>
      </trkpt>
      <trkpt lat="45.81844" lon="1.20928">
        <ele>246</ele>
        <time>2020-09-19T10:57:49.750Z</time>
      </trkpt>
      <trkpt lat="45.81842" lon="1.20928">
        <ele>247</ele>
        <time>2020-09-19T10:57:50.750Z</time>
      </trkpt>
      <trkpt lat="45.81839" lon="1.20928">
        <ele>247</ele>
        <time>2020-09-19T10:57:51.750Z</time>
      </trkpt>
      <trkpt lat="45.81836" lon="1.20928">
        <ele>249</ele>
        <time>2020-09-19T10:57:52.750Z</time>
      </trkpt>
      <trkpt lat="45.81833" lon="1.20927">
        <ele>249</ele>
        <time>2020-09-19T10:57:53.750Z</time>
      </trkpt>
      <trkpt lat="45.81829" lon="1.20927">
        <ele>250</ele>
        <time>2020-09-19T10:57:54.750Z</time>
      </trkpt>
      <trkpt lat="45.81826" lon="1.20927">
        <ele>250</ele>
        <time>2020-09-19T10:57:55.750Z</time>
      </trkpt>
      <trkpt lat="45.81823" lon="1.20928">
        <ele>251</ele>
        <time>2020-09-19T10:57:56.750Z</time>
      </trkpt>
      <trkpt lat="45.8182" lon="1.20928">
        <ele>251</ele>
        <time>2020-09-19T10:57:57.750Z</time>
      </trkpt>
      <trkpt lat="45.81817" lon="1.20928">
        <ele>251</ele>
        <time>2020-09-19T10:57:58.750Z</time>
      </trkpt>
      <trkpt lat="45.81814" lon="1.20929">
        <ele>252</ele>
        <time>2020-09-19T10:57:59.750Z</time>
      </trkpt>
      <trkpt lat="45.81811" lon="1.20929">
        <ele>252</ele>
        <time>2020-09-19T10:58:00.750Z</time>
      </trkpt>
      <trkpt lat="45.81808" lon="1.20929">
        <ele>252</ele>
        <time>2020-09-19T10:58:01.750Z</time>
      </trkpt>
      <trkpt lat="45.81805" lon="1.20929">
        <ele>253</ele>
        <time>2020-09-19T10:58:02.750Z</time>
      </trkpt>
      <trkpt lat="45.81802" lon="1.20929">
        <ele>253</ele>
        <time>2020-09-19T10:58:03.750Z</time>
      </trkpt>
      <trkpt lat="45.81799" lon="1.20929">
        <ele>253</ele>
        <time>2020-09-19T10:58:04.750Z</time>
      </trkpt>
      <trkpt lat="45.81796" lon="1.20928">
        <ele>253</ele>
        <time>2020-09-19T10:58:05.750Z</time>
      </trkpt>
      <trkpt lat="45.81793" lon="1.20929">
        <ele>253</ele>
        <time>2020-09-19T10:58:06.750Z</time>
      </trkpt>
      <trkpt lat="45.8179" lon="1.20929">
        <ele>253</ele>
        <time>2020-09-19T10:58:07.750Z</time>
      </trkpt>
      <trkpt lat="45.81787" lon="1.2093">
        <ele>254</ele>
        <time>2020-09-19T10:58:08.750Z</time>
      </trkpt>
      <trkpt lat="45.81783" lon="1.20932">
        <ele>255</ele>
        <time>2020-09-19T10:58:09.750Z</time>
      </trkpt>
      <trkpt lat="45.81779" lon="1.20933">
        <ele>256</ele>
        <time>2020-09-19T10:58:10.750Z</time>
      </trkpt>
      <trkpt lat="45.81776" lon="1.20933">
        <ele>257</ele>
        <time>2020-09-19T10:58:11.750Z</time>
      </trkpt>
      <trkpt lat="45.81773" lon="1.20934">
        <ele>257</ele>
        <time>2020-09-19T10:58:12.750Z</time>
      </trkpt>
      <trkpt lat="45.8177" lon="1.20934">
        <ele>257</ele>
        <time>2020-09-19T10:58:13.750Z</time>
      </trkpt>
      <trkpt lat="45.81767" lon="1.20934">
        <ele>257</ele>
        <time>2020-09-19T10:58:14.750Z</time>
      </trkpt>
      <trkpt lat="45.81764" lon="1.20934">
        <ele>257</ele>
        <time>2020-09-19T10:58:15.750Z</time>
      </trkpt>
      <trkpt lat="45.81761" lon="1.20935">
        <ele>257</ele>
        <time>2020-09-19T10:58:16.750Z</time>
      </trkpt>
      <trkpt lat="45.81759" lon="1.20935">
        <ele>258</ele>
        <time>2020-09-19T10:58:17.750Z</time>
      </trkpt>
      <trkpt lat="45.81756" lon="1.20935">
        <ele>258</ele>
        <time>2020-09-19T10:58:18.750Z</time>
      </trkpt>
      <trkpt lat="45.81753" lon="1.20936">
        <ele>258</ele>
        <time>2020-09-19T10:58:19.750Z</time>
      </trkpt>
      <trkpt lat="45.81749" lon="1.20937">
        <ele>258</ele>
        <time>2020-09-19T10:58:20.750Z</time>
      </trkpt>
      <trkpt lat="45.81746" lon="1.20937">
        <ele>260</ele>
        <time>2020-09-19T10:58:21.750Z</time>
      </trkpt>
      <trkpt lat="45.81743" lon="1.20938">
        <ele>260</ele>
        <time>2020-09-19T10:58:22.750Z</time>
      </trkpt>
      <trkpt lat="45.81741" lon="1.20939">
        <ele>260</ele>
        <time>2020-09-19T10:58:23.750Z</time>
      </trkpt>
      <trkpt lat="45.81738" lon="1.20939">
        <ele>260</ele>
        <time>2020-09-19T10:58:24.750Z</time>
      </trkpt>
      <trkpt lat="45.81735" lon="1.20939">
        <ele>261</ele>
        <time>2020-09-19T10:58:25.750Z</time>
      </trkpt>
      <trkpt lat="45.81732" lon="1.20939">
        <ele>261</ele>
        <time>2020-09-19T10:58:26.750Z</time>
      </trkpt>
      <trkpt lat="45.81729" lon="1.20939">
        <ele>260</ele>
        <time>2020-09-19T10:58:27.750Z</time>
      </trkpt>
      <trkpt lat="45.81726" lon="1.2094">
        <ele>260</ele>
        <time>2020-09-19T10:58:28.750Z</time>
      </trkpt>
      <trkpt lat="45.81723" lon="1.2094">
        <ele>259</ele>
        <time>2020-09-19T10:58:29.750Z</time>
      </trkpt>
      <trkpt lat="45.8172" lon="1.2094">
        <ele>260</ele>
        <time>2020-09-19T10:58:30.750Z</time>
      </trkpt>
      <trkpt lat="45.81717" lon="1.2094">
        <ele>260</ele>
        <time>2020-09-19T10:58:31.750Z</time>
      </trkpt>
      <trkpt lat="45.81714" lon="1.20941">
        <ele>260</ele>
        <time>2020-09-19T10:58:32.750Z</time>
      </trkpt>
      <trkpt lat="45.8171" lon="1.20941">
        <ele>260</ele>
        <time>2020-09-19T10:58:33.750Z</time>
      </trkpt>
      <trkpt lat="45.81707" lon="1.20941">
        <ele>260</ele>
        <time>2020-09-19T10:58:34.750Z</time>
      </trkpt>
      <trkpt lat="45.81703" lon="1.20941">
        <ele>260</ele>
        <time>2020-09-19T10:58:35.750Z</time>
      </trkpt>
      <trkpt lat="45.817" lon="1.20942">
        <ele>260</ele>
        <time>2020-09-19T10:58:36.750Z</time>
      </trkpt>
      <trkpt lat="45.81697" lon="1.20942">
        <ele>260</ele>
        <time>2020-09-19T10:58:37.750Z</time>
      </trkpt>
      <trkpt lat="45.81694" lon="1.20942">
        <ele>260</ele>
        <time>2020-09-19T10:58:38.750Z</time>
      </trkpt>
      <trkpt lat="45.81691" lon="1.20942">
        <ele>260</ele>
        <time>2020-09-19T10:58:39.750Z</time>
      </trkpt>
      <trkpt lat="45.81687" lon="1.20942">
        <ele>261</ele>
        <time>2020-09-19T10:58:40.750Z</time>
      </trkpt>
      <trkpt lat="45.81684" lon="1.20942">
        <ele>261</ele>
        <time>2020-09-19T10:58:41.750Z</time>
      </trkpt>
      <trkpt lat="45.81681" lon="1.20942">
        <ele>261</ele>
        <time>2020-09-19T10:58:42.750Z</time>
      </trkpt>
      <trkpt lat="45.81677" lon="1.20943">
        <ele>262</ele>
        <time>2020-09-19T10:58:43.750Z</time>
      </trkpt>
      <trkpt lat="45.81674" lon="1.20943">
        <ele>261</ele>
        <time>2020-09-19T10:58:44.750Z</time>
      </trkpt>
      <trkpt lat="45.81671" lon="1.20943">
        <ele>262</ele>
        <time>2020-09-19T10:58:45.750Z</time>
      </trkpt>
      <trkpt lat="45.81668" lon="1.20943">
        <ele>262</ele>
        <time>2020-09-19T10:58:46.750Z</time>
      </trkpt>
      <trkpt lat="45.81665" lon="1.20944">
        <ele>262</ele>
        <time>2020-09-19T10:58:47.750Z</time>
      </trkpt>
      <trkpt lat="45.81662" lon="1.20945">
        <ele>263</ele>
        <time>2020-09-19T10:58:48.750Z</time>
      </trkpt>
      <trkpt lat="45.81659" lon="1.20946">
        <ele>263</ele>
        <time>2020-09-19T10:58:49.750Z</time>
      </trkpt>
      <trkpt lat="45.81656" lon="1.20948">
        <ele>264</ele>
        <time>2020-09-19T10:58:50.750Z</time>
      </trkpt>
      <trkpt lat="45.81654" lon="1.20949">
        <ele>265</ele>
        <time>2020-09-19T10:58:51.750Z</time>
      </trkpt>
      <trkpt lat="45.81651" lon="1.20951">
        <ele>265</ele>
        <time>2020-09-19T10:58:52.750Z</time>
      </trkpt>
      <trkpt lat="45.81649" lon="1.20952">
        <ele>266</ele>
        <time>2020-09-19T10:58:53.750Z</time>
      </trkpt>
      <trkpt lat="45.81646" lon="1.20954">
        <ele>267</ele>
        <time>2020-09-19T10:58:54.750Z</time>
      </trkpt>
      <trkpt lat="45.81644" lon="1.20957">
        <ele>267</ele>
        <time>2020-09-19T10:58:55.750Z</time>
      </trkpt>
      <trkpt lat="45.81642" lon="1.20959">
        <ele>268</ele>
        <time>2020-09-19T10:58:56.750Z</time>
      </trkpt>
      <trkpt lat="45.8164" lon="1.20962">
        <ele>268</ele>
        <time>2020-09-19T10:58:57.750Z</time>
      </trkpt>
      <trkpt lat="45.81637" lon="1.20965">
        <ele>269</ele>
        <time>2020-09-19T10:58:58.750Z</time>
      </trkpt>
      <trkpt lat="45.81636" lon="1.20969">
        <ele>270</ele>
        <time>2020-09-19T10:58:59.750Z</time>
      </trkpt>
      <trkpt lat="45.81634" lon="1.20972">
        <ele>270</ele>
        <time>2020-09-19T10:59:00.750Z</time>
      </trkpt>
      <trkpt lat="45.81633" lon="1.20976">
        <ele>270</ele>
        <time>2020-09-19T10:59:01.750Z</time>
      </trkpt>
      <trkpt lat="45.81631" lon="1.2098">
        <ele>270</ele>
        <time>2020-09-19T10:59:02.750Z</time>
      </trkpt>
      <trkpt lat="45.8163" lon="1.20984">
        <ele>270</ele>
        <time>2020-09-19T10:59:03.750Z</time>
      </trkpt>
      <trkpt lat="45.81628" lon="1.20987">
        <ele>271</ele>
        <time>2020-09-19T10:59:04.750Z</time>
      </trkpt>
      <trkpt lat="45.81627" lon="1.20991">
        <ele>270</ele>
        <time>2020-09-19T10:59:05.750Z</time>
      </trkpt>
      <trkpt lat="45.81625" lon="1.20995">
        <ele>271</ele>
        <time>2020-09-19T10:59:06.750Z</time>
      </trkpt>
      <trkpt lat="45.81623" lon="1.20999">
        <ele>270</ele>
        <time>2020-09-19T10:59:07.750Z</time>
      </trkpt>
      <trkpt lat="45.81622" lon="1.21003">
        <ele>270</ele>
        <time>2020-09-19T10:59:08.750Z</time>
      </trkpt>
      <trkpt lat="45.81621" lon="1.21006">
        <ele>270</ele>
        <time>2020-09-19T10:59:09.750Z</time>
      </trkpt>
      <trkpt lat="45.81619" lon="1.2101">
        <ele>271</ele>
        <time>2020-09-19T10:59:10.750Z</time>
      </trkpt>
      <trkpt lat="45.81617" lon="1.21013">
        <ele>272</ele>
        <time>2020-09-19T10:59:11.750Z</time>
      </trkpt>
      <trkpt lat="45.81616" lon="1.21016">
        <ele>272</ele>
        <time>2020-09-19T10:59:12.750Z</time>
      </trkpt>
      <trkpt lat="45.81613" lon="1.21019">
        <ele>273</ele>
        <time>2020-09-19T10:59:13.750Z</time>
      </trkpt>
      <trkpt lat="45.81611" lon="1.2102">
        <ele>274</ele>
        <time>2020-09-19T10:59:14.750Z</time>
      </trkpt>
      <trkpt lat="45.81608" lon="1.21022">
        <ele>275</ele>
        <time>2020-09-19T10:59:15.750Z</time>
      </trkpt>
      <trkpt lat="45.81606" lon="1.21024">
        <ele>275</ele>
        <time>2020-09-19T10:59:16.750Z</time>
      </trkpt>
      <trkpt lat="45.81604" lon="1.21026">
        <ele>275</ele>
        <time>2020-09-19T10:59:17.750Z</time>
      </trkpt>
      <trkpt lat="45.81603" lon="1.21029">
        <ele>275</ele>
        <time>2020-09-19T10:59:18.750Z</time>
      </trkpt>
      <trkpt lat="45.81601" lon="1.21032">
        <ele>276</ele>
        <time>2020-09-19T10:59:19.750Z</time>
      </trkpt>
      <trkpt lat="45.816" lon="1.21035">
        <ele>277</ele>
        <time>2020-09-19T10:59:20.750Z</time>
      </trkpt>
      <trkpt lat="45.81599" lon="1.21039">
        <ele>277</ele>
        <time>2020-09-19T10:59:21.750Z</time>
      </trkpt>
      <trkpt lat="45.81598" lon="1.21043">
        <ele>276</ele>
        <time>2020-09-19T10:59:22.750Z</time>
      </trkpt>
      <trkpt lat="45.81597" lon="1.21047">
        <ele>276</ele>
        <time>2020-09-19T10:59:23.750Z</time>
      </trkpt>
      <trkpt lat="45.81596" lon="1.2105">
        <ele>276</ele>
        <time>2020-09-19T10:59:24.750Z</time>
      </trkpt>
      <trkpt lat="45.81596" lon="1.21054">
        <ele>276</ele>
        <time>2020-09-19T10:59:25.750Z</time>
      </trkpt>
      <trkpt lat="45.81595" lon="1.21058">
        <ele>275</ele>
        <time>2020-09-19T10:59:26.750Z</time>
      </trkpt>
      <trkpt lat="45.81594" lon="1.21062">
        <ele>274</ele>
        <time>2020-09-19T10:59:27.750Z</time>
      </trkpt>
      <trkpt lat="45.81593" lon="1.21065">
        <ele>275</ele>
        <time>2020-09-19T10:59:28.750Z</time>
      </trkpt>
      <trkpt lat="45.81593" lon="1.21069">
        <ele>275</ele>
        <time>2020-09-19T10:59:29.750Z</time>
      </trkpt>
      <trkpt lat="45.81592" lon="1.21072">
        <ele>275</ele>
        <time>2020-09-19T10:59:30.750Z</time>
      </trkpt>
      <trkpt lat="45.81592" lon="1.21076">
        <ele>275</ele>
        <time>2020-09-19T10:59:31.750Z</time>
      </trkpt>
      <trkpt lat="45.81592" lon="1.21079">
        <ele>273</ele>
        <time>2020-09-19T10:59:32.750Z</time>
      </trkpt>
      <trkpt lat="45.81591" lon="1.21083">
        <ele>272</ele>
        <time>2020-09-19T10:59:33.750Z</time>
      </trkpt>
      <trkpt lat="45.81591" lon="1.21086">
        <ele>272</ele>
        <time>2020-09-19T10:59:34.750Z</time>
      </trkpt>
      <trkpt lat="45.81591" lon="1.2109">
        <ele>271</ele>
        <time>2020-09-19T10:59:35.750Z</time>
      </trkpt>
      <trkpt lat="45.81591" lon="1.21093">
        <ele>270</ele>
        <time>2020-09-19T10:59:36.750Z</time>
      </trkpt>
      <trkpt lat="45.81591" lon="1.21098">
        <ele>271</ele>
        <time>2020-09-19T10:59:37.750Z</time>
      </trkpt>
      <trkpt lat="45.81592" lon="1.21102">
        <ele>271</ele>
        <time>2020-09-19T10:59:38.750Z</time>
      </trkpt>
      <trkpt lat="45.81592" lon="1.21106">
        <ele>270</ele>
        <time>2020-09-19T10:59:39.750Z</time>
      </trkpt>
      <trkpt lat="45.81592" lon="1.2111">
        <ele>270</ele>
        <time>2020-09-19T10:59:40.750Z</time>
      </trkpt>
      <trkpt lat="45.81593" lon="1.21114">
        <ele>270</ele>
        <time>2020-09-19T10:59:41.750Z</time>
      </trkpt>
      <trkpt lat="45.81593" lon="1.21119">
        <ele>270</ele>
        <time>2020-09-19T10:59:42.750Z</time>
      </trkpt>
      <trkpt lat="45.81594" lon="1.21123">
        <ele>269</ele>
        <time>2020-09-19T10:59:43.750Z</time>
      </trkpt>
      <trkpt lat="45.81595" lon="1.21128">
        <ele>270</ele>
        <time>2020-09-19T10:59:44.750Z</time>
      </trkpt>
      <trkpt lat="45.81596" lon="1.21132">
        <ele>270</ele>
        <time>2020-09-19T10:59:45.750Z</time>
      </trkpt>
      <trkpt lat="45.81597" lon="1.21137">
        <ele>270</ele>
        <time>2020-09-19T10:59:46.750Z</time>
      </trkpt>
      <trkpt lat="45.81598" lon="1.21141">
        <ele>269</ele>
        <time>2020-09-19T10:59:47.750Z</time>
      </trkpt>
      <trkpt lat="45.81599" lon="1.21146">
        <ele>271</ele>
        <time>2020-09-19T10:59:48.750Z</time>
      </trkpt>
      <trkpt lat="45.816" lon="1.2115">
        <ele>272</ele>
        <time>2020-09-19T10:59:49.750Z</time>
      </trkpt>
      <trkpt lat="45.81601" lon="1.21155">
        <ele>272</ele>
        <time>2020-09-19T10:59:50.750Z</time>
      </trkpt>
      <trkpt lat="45.81601" lon="1.21159">
        <ele>272</ele>
        <time>2020-09-19T10:59:51.750Z</time>
      </trkpt>
      <trkpt lat="45.81602" lon="1.21164">
        <ele>271</ele>
        <time>2020-09-19T10:59:52.750Z</time>
      </trkpt>
      <trkpt lat="45.81603" lon="1.21168">
        <ele>272</ele>
        <time>2020-09-19T10:59:53.750Z</time>
      </trkpt>
      <trkpt lat="45.81603" lon="1.21173">
        <ele>272</ele>
        <time>2020-09-19T10:59:54.750Z</time>
      </trkpt>
      <trkpt lat="45.81604" lon="1.21177">
        <ele>272</ele>
        <time>2020-09-19T10:59:55.750Z</time>
      </trkpt>
      <trkpt lat="45.81605" lon="1.21182">
        <ele>273</ele>
        <time>2020-09-19T10:59:56.750Z</time>
      </trkpt>
      <trkpt lat="45.81606" lon="1.21186">
        <ele>273</ele>
        <time>2020-09-19T10:59:57.750Z</time>
      </trkpt>
      <trkpt lat="45.81607" lon="1.2119">
        <ele>274</ele>
        <time>2020-09-19T10:59:58.750Z</time>
      </trkpt>
      <trkpt lat="45.81608" lon="1.21195">
        <ele>274</ele>
        <time>2020-09-19T10:59:59.750Z</time>
      </trkpt>
      <trkpt lat="45.81608" lon="1.21199">
        <ele>274</ele>
        <time>2020-09-19T11:00:00.750Z</time>
      </trkpt>
      <trkpt lat="45.81609" lon="1.21204">
        <ele>274</ele>
        <time>2020-09-19T11:00:01.750Z</time>
      </trkpt>
      <trkpt lat="45.81609" lon="1.21209">
        <ele>274</ele>
        <time>2020-09-19T11:00:02.750Z</time>
      </trkpt>
      <trkpt lat="45.81609" lon="1.21213">
        <ele>275</ele>
        <time>2020-09-19T11:00:03.750Z</time>
      </trkpt>
      <trkpt lat="45.8161" lon="1.21218">
        <ele>276</ele>
        <time>2020-09-19T11:00:04.750Z</time>
      </trkpt>
      <trkpt lat="45.81611" lon="1.21222">
        <ele>275</ele>
        <time>2020-09-19T11:00:05.750Z</time>
      </trkpt>
      <trkpt lat="45.81611" lon="1.21226">
        <ele>276</ele>
        <time>2020-09-19T11:00:06.750Z</time>
      </trkpt>
      <trkpt lat="45.81612" lon="1.2123">
        <ele>277</ele>
        <time>2020-09-19T11:00:07.750Z</time>
      </trkpt>
      <trkpt lat="45.81613" lon="1.21235">
        <ele>276</ele>
        <time>2020-09-19T11:00:08.750Z</time>
      </trkpt>
      <trkpt lat="45.81614" lon="1.21239">
        <ele>277</ele>
        <time>2020-09-19T11:00:09.750Z</time>
      </trkpt>
      <trkpt lat="45.81614" lon="1.21244">
        <ele>276</ele>
        <time>2020-09-19T11:00:10.750Z</time>
      </trkpt>
      <trkpt lat="45.81615" lon="1.21248">
        <ele>276</ele>
        <time>2020-09-19T11:00:11.750Z</time>
      </trkpt>
      <trkpt lat="45.81615" lon="1.21253">
        <ele>277</ele>
        <time>2020-09-19T11:00:12.750Z</time>
      </trkpt>
      <trkpt lat="45.81616" lon="1.21258">
        <ele>278</ele>
        <time>2020-09-19T11:00:13.750Z</time>
      </trkpt>
      <trkpt lat="45.81617" lon="1.21262">
        <ele>279</ele>
        <time>2020-09-19T11:00:14.750Z</time>
      </trkpt>
      <trkpt lat="45.81617" lon="1.21266">
        <ele>280</ele>
        <time>2020-09-19T11:00:15.750Z</time>
      </trkpt>
      <trkpt lat="45.81618" lon="1.21271">
        <ele>280</ele>
        <time>2020-09-19T11:00:16.750Z</time>
      </trkpt>
      <trkpt lat="45.81619" lon="1.21275">
        <ele>281</ele>
        <time>2020-09-19T11:00:17.750Z</time>
      </trkpt>
      <trkpt lat="45.81619" lon="1.21279">
        <ele>281</ele>
        <time>2020-09-19T11:00:18.750Z</time>
      </trkpt>
      <trkpt lat="45.81619" lon="1.21283">
        <ele>281</ele>
        <time>2020-09-19T11:00:19.750Z</time>
      </trkpt>
      <trkpt lat="45.8162" lon="1.21288">
        <ele>282</ele>
        <time>2020-09-19T11:00:20.750Z</time>
      </trkpt>
      <trkpt lat="45.8162" lon="1.21292">
        <ele>282</ele>
        <time>2020-09-19T11:00:21.750Z</time>
      </trkpt>
      <trkpt lat="45.81621" lon="1.21296">
        <ele>282</ele>
        <time>2020-09-19T11:00:22.750Z</time>
      </trkpt>
      <trkpt lat="45.81621" lon="1.21301">
        <ele>282</ele>
        <time>2020-09-19T11:00:23.750Z</time>
      </trkpt>
      <trkpt lat="45.81622" lon="1.21305">
        <ele>282</ele>
        <time>2020-09-19T11:00:24.750Z</time>
      </trkpt>
      <trkpt lat="45.81622" lon="1.21309">
        <ele>283</ele>
        <time>2020-09-19T11:00:25.750Z</time>
      </trkpt>
      <trkpt lat="45.81623" lon="1.21314">
        <ele>282</ele>
        <time>2020-09-19T11:00:26.750Z</time>
      </trkpt>
      <trkpt lat="45.81624" lon="1.21318">
        <ele>283</ele>
        <time>2020-09-19T11:00:27.750Z</time>
      </trkpt>
      <trkpt lat="45.81624" lon="1.21323">
        <ele>283</ele>
        <time>2020-09-19T11:00:28.750Z</time>
      </trkpt>
      <trkpt lat="45.81624" lon="1.21328">
        <ele>283</ele>
        <time>2020-09-19T11:00:29.750Z</time>
      </trkpt>
      <trkpt lat="45.81625" lon="1.21333">
        <ele>283</ele>
        <time>2020-09-19T11:00:30.750Z</time>
      </trkpt>
      <trkpt lat="45.81625" lon="1.21338">
        <ele>284</ele>
        <time>2020-09-19T11:00:31.750Z</time>
      </trkpt>
      <trkpt lat="45.81626" lon="1.21342">
        <ele>283</ele>
        <time>2020-09-19T11:00:32.750Z</time>
      </trkpt>
      <trkpt lat="45.81626" lon="1.21346">
        <ele>283</ele>
        <time>2020-09-19T11:00:33.750Z</time>
      </trkpt>
      <trkpt lat="45.81627" lon="1.21351">
        <ele>283</ele>
        <time>2020-09-19T11:00:34.750Z</time>
      </trkpt>
      <trkpt lat="45.81627" lon="1.21355">
        <ele>282</ele>
        <time>2020-09-19T11:00:35.750Z</time>
      </trkpt>
      <trkpt lat="45.81627" lon="1.2136">
        <ele>282</ele>
        <time>2020-09-19T11:00:36.750Z</time>
      </trkpt>
      <trkpt lat="45.81627" lon="1.21364">
        <ele>282</ele>
        <time>2020-09-19T11:00:37.750Z</time>
      </trkpt>
      <trkpt lat="45.81628" lon="1.21369">
        <ele>282</ele>
        <time>2020-09-19T11:00:38.750Z</time>
      </trkpt>
      <trkpt lat="45.81628" lon="1.21373">
        <ele>283</ele>
        <time>2020-09-19T11:00:39.750Z</time>
      </trkpt>
      <trkpt lat="45.81628" lon="1.21377">
        <ele>283</ele>
        <time>2020-09-19T11:00:40.750Z</time>
      </trkpt>
      <trkpt lat="45.81628" lon="1.21382">
        <ele>282</ele>
        <time>2020-09-19T11:00:41.750Z</time>
      </trkpt>
      <trkpt lat="45.81629" lon="1.21386">
        <ele>282</ele>
        <time>2020-09-19T11:00:42.750Z</time>
      </trkpt>
      <trkpt lat="45.81629" lon="1.21391">
        <ele>281</ele>
        <time>2020-09-19T11:00:43.750Z</time>
      </trkpt>
      <trkpt lat="45.81629" lon="1.21395">
        <ele>281</ele>
        <time>2020-09-19T11:00:44.750Z</time>
      </trkpt>
      <trkpt lat="45.8163" lon="1.214">
        <ele>281</ele>
        <time>2020-09-19T11:00:45.750Z</time>
      </trkpt>
      <trkpt lat="45.8163" lon="1.21405">
        <ele>281</ele>
        <time>2020-09-19T11:00:46.750Z</time>
      </trkpt>
      <trkpt lat="45.8163" lon="1.21409">
        <ele>281</ele>
        <time>2020-09-19T11:00:47.750Z</time>
      </trkpt>
      <trkpt lat="45.8163" lon="1.21413">
        <ele>281</ele>
        <time>2020-09-19T11:00:48.750Z</time>
      </trkpt>
      <trkpt lat="45.8163" lon="1.21417">
        <ele>281</ele>
        <time>2020-09-19T11:00:49.750Z</time>
      </trkpt>
      <trkpt lat="45.8163" lon="1.21421">
        <ele>281</ele>
        <time>2020-09-19T11:00:50.750Z</time>
      </trkpt>
      <trkpt lat="45.8163" lon="1.21425">
        <ele>281</ele>
        <time>2020-09-19T11:00:51.750Z</time>
      </trkpt>
      <trkpt lat="45.81629" lon="1.21429">
        <ele>280</ele>
        <time>2020-09-19T11:00:52.750Z</time>
      </trkpt>
      <trkpt lat="45.81629" lon="1.21434">
        <ele>281</ele>
        <time>2020-09-19T11:00:53.750Z</time>
      </trkpt>
      <trkpt lat="45.81629" lon="1.21438">
        <ele>281</ele>
        <time>2020-09-19T11:00:54.750Z</time>
      </trkpt>
      <trkpt lat="45.81628" lon="1.21442">
        <ele>281</ele>
        <time>2020-09-19T11:00:55.750Z</time>
      </trkpt>
      <trkpt lat="45.81628" lon="1.21446">
        <ele>282</ele>
        <time>2020-09-19T11:00:56.750Z</time>
      </trkpt>
      <trkpt lat="45.81628" lon="1.2145">
        <ele>283</ele>
        <time>2020-09-19T11:00:57.750Z</time>
      </trkpt>
      <trkpt lat="45.81627" lon="1.21454">
        <ele>283</ele>
        <time>2020-09-19T11:00:58.750Z</time>
      </trkpt>
      <trkpt lat="45.81626" lon="1.21458">
        <ele>284</ele>
        <time>2020-09-19T11:00:59.750Z</time>
      </trkpt>
      <trkpt lat="45.81625" lon="1.21461">
        <ele>284</ele>
        <time>2020-09-19T11:01:00.750Z</time>
      </trkpt>
      <trkpt lat="45.81624" lon="1.21465">
        <ele>284</ele>
        <time>2020-09-19T11:01:01.750Z</time>
      </trkpt>
      <trkpt lat="45.81622" lon="1.21469">
        <ele>285</ele>
        <time>2020-09-19T11:01:02.750Z</time>
      </trkpt>
      <trkpt lat="45.8162" lon="1.21474">
        <ele>286</ele>
        <time>2020-09-19T11:01:03.750Z</time>
      </trkpt>
      <trkpt lat="45.81618" lon="1.21477">
        <ele>286</ele>
        <time>2020-09-19T11:01:04.750Z</time>
      </trkpt>
      <trkpt lat="45.81616" lon="1.21481">
        <ele>286</ele>
        <time>2020-09-19T11:01:05.750Z</time>
      </trkpt>
      <trkpt lat="45.81614" lon="1.21484">
        <ele>286</ele>
        <time>2020-09-19T11:01:06.750Z</time>
      </trkpt>
      <trkpt lat="45.8161" lon="1.21487">
        <ele>288</ele>
        <time>2020-09-19T11:01:07.750Z</time>
      </trkpt>
      <trkpt lat="45.81607" lon="1.2149">
        <ele>288</ele>
        <time>2020-09-19T11:01:08.750Z</time>
      </trkpt>
      <trkpt lat="45.81604" lon="1.21492">
        <ele>289</ele>
        <time>2020-09-19T11:01:09.750Z</time>
      </trkpt>
      <trkpt lat="45.81601" lon="1.21493">
        <ele>289</ele>
        <time>2020-09-19T11:01:10.750Z</time>
      </trkpt>
      <trkpt lat="45.81598" lon="1.21494">
        <ele>290</ele>
        <time>2020-09-19T11:01:11.750Z</time>
      </trkpt>
      <trkpt lat="45.81595" lon="1.21495">
        <ele>290</ele>
        <time>2020-09-19T11:01:12.750Z</time>
      </trkpt>
      <trkpt lat="45.81592" lon="1.21496">
        <ele>290</ele>
        <time>2020-09-19T11:01:13.750Z</time>
      </trkpt>
      <trkpt lat="45.81588" lon="1.21496">
        <ele>290</ele>
        <time>2020-09-19T11:01:14.750Z</time>
      </trkpt>
      <trkpt lat="45.81585" lon="1.21495">
        <ele>289</ele>
        <time>2020-09-19T11:01:15.750Z</time>
      </trkpt>
      <trkpt lat="45.81582" lon="1.21494">
        <ele>288</ele>
        <time>2020-09-19T11:01:16.750Z</time>
      </trkpt>
      <trkpt lat="45.81578" lon="1.21493">
        <ele>289</ele>
        <time>2020-09-19T11:01:17.750Z</time>
      </trkpt>
      <trkpt lat="45.81575" lon="1.21492">
        <ele>289</ele>
        <time>2020-09-19T11:01:18.750Z</time>
      </trkpt>
      <trkpt lat="45.81572" lon="1.21491">
        <ele>289</ele>
        <time>2020-09-19T11:01:19.750Z</time>
      </trkpt>
      <trkpt lat="45.81569" lon="1.2149">
        <ele>289</ele>
        <time>2020-09-19T11:01:20.750Z</time>
      </trkpt>
      <trkpt lat="45.81567" lon="1.21489">
        <ele>290</ele>
        <time>2020-09-19T11:01:21.750Z</time>
      </trkpt>
      <trkpt lat="45.81564" lon="1.21488">
        <ele>290</ele>
        <time>2020-09-19T11:01:22.750Z</time>
      </trkpt>
      <trkpt lat="45.81562" lon="1.21487">
        <ele>290</ele>
        <time>2020-09-19T11:01:23.750Z</time>
      </trkpt>
      <trkpt lat="45.81559" lon="1.21486">
        <ele>290</ele>
        <time>2020-09-19T11:01:24.750Z</time>
      </trkpt>
      <trkpt lat="45.81557" lon="1.21485">
        <ele>291</ele>
        <time>2020-09-19T11:01:25.750Z</time>
      </trkpt>
      <trkpt lat="45.81554" lon="1.21484">
        <ele>292</ele>
        <time>2020-09-19T11:01:26.750Z</time>
      </trkpt>
      <trkpt lat="45.81551" lon="1.21483">
        <ele>292</ele>
        <time>2020-09-19T11:01:27.750Z</time>
      </trkpt>
      <trkpt lat="45.81549" lon="1.21482">
        <ele>292</ele>
        <time>2020-09-19T11:01:28.750Z</time>
      </trkpt>
      <trkpt lat="45.81546" lon="1.2148">
        <ele>292</ele>
        <time>2020-09-19T11:01:29.750Z</time>
      </trkpt>
      <trkpt lat="45.81543" lon="1.21479">
        <ele>293</ele>
        <time>2020-09-19T11:01:30.750Z</time>
      </trkpt>
      <trkpt lat="45.81541" lon="1.21478">
        <ele>293</ele>
        <time>2020-09-19T11:01:31.750Z</time>
      </trkpt>
      <trkpt lat="45.81538" lon="1.21477">
        <ele>294</ele>
        <time>2020-09-19T11:01:32.750Z</time>
      </trkpt>
      <trkpt lat="45.81535" lon="1.21476">
        <ele>294</ele>
        <time>2020-09-19T11:01:33.750Z</time>
      </trkpt>
      <trkpt lat="45.81532" lon="1.21475">
        <ele>294</ele>
        <time>2020-09-19T11:01:34.750Z</time>
      </trkpt>
      <trkpt lat="45.81529" lon="1.21474">
        <ele>294</ele>
        <time>2020-09-19T11:01:35.750Z</time>
      </trkpt>
      <trkpt lat="45.81526" lon="1.21472">
        <ele>295</ele>
        <time>2020-09-19T11:01:36.750Z</time>
      </trkpt>
      <trkpt lat="45.81523" lon="1.21471">
        <ele>295</ele>
        <time>2020-09-19T11:01:37.750Z</time>
      </trkpt>
      <trkpt lat="45.81521" lon="1.2147">
        <ele>295</ele>
        <time>2020-09-19T11:01:38.750Z</time>
      </trkpt>
      <trkpt lat="45.81518" lon="1.21468">
        <ele>296</ele>
        <time>2020-09-19T11:01:39.750Z</time>
      </trkpt>
      <trkpt lat="45.81516" lon="1.21467">
        <ele>296</ele>
        <time>2020-09-19T11:01:40.750Z</time>
      </trkpt>
      <trkpt lat="45.81513" lon="1.21466">
        <ele>296</ele>
        <time>2020-09-19T11:01:41.750Z</time>
      </trkpt>
      <trkpt lat="45.8151" lon="1.21464">
        <ele>297</ele>
        <time>2020-09-19T11:01:42.750Z</time>
      </trkpt>
      <trkpt lat="45.81508" lon="1.21463">
        <ele>297</ele>
        <time>2020-09-19T11:01:43.750Z</time>
      </trkpt>
      <trkpt lat="45.81505" lon="1.21462">
        <ele>298</ele>
        <time>2020-09-19T11:01:44.750Z</time>
      </trkpt>
      <trkpt lat="45.81502" lon="1.21461">
        <ele>298</ele>
        <time>2020-09-19T11:01:45.750Z</time>
      </trkpt>
      <trkpt lat="45.815" lon="1.21459">
        <ele>298</ele>
        <time>2020-09-19T11:01:46.750Z</time>
      </trkpt>
      <trkpt lat="45.81497" lon="1.21458">
        <ele>299</ele>
        <time>2020-09-19T11:01:47.750Z</time>
      </trkpt>
      <trkpt lat="45.81493" lon="1.21457">
        <ele>299</ele>
        <time>2020-09-19T11:01:48.750Z</time>
      </trkpt>
      <trkpt lat="45.8149" lon="1.21455">
        <ele>299</ele>
        <time>2020-09-19T11:01:49.750Z</time>
      </trkpt>
      <trkpt lat="45.81488" lon="1.21454">
        <ele>299</ele>
        <time>2020-09-19T11:01:50.750Z</time>
      </trkpt>
      <trkpt lat="45.81485" lon="1.21453">
        <ele>299</ele>
        <time>2020-09-19T11:01:51.750Z</time>
      </trkpt>
      <trkpt lat="45.81482" lon="1.21451">
        <ele>299</ele>
        <time>2020-09-19T11:01:52.750Z</time>
      </trkpt>
      <trkpt lat="45.81479" lon="1.2145">
        <ele>299</ele>
        <time>2020-09-19T11:01:53.750Z</time>
      </trkpt>
      <trkpt lat="45.81476" lon="1.21449">
        <ele>300</ele>
        <time>2020-09-19T11:01:54.750Z</time>
      </trkpt>
      <trkpt lat="45.81473" lon="1.21447">
        <ele>300</ele>
        <time>2020-09-19T11:01:55.750Z</time>
      </trkpt>
      <trkpt lat="45.81471" lon="1.21446">
        <ele>300</ele>
        <time>2020-09-19T11:01:56.750Z</time>
      </trkpt>
      <trkpt lat="45.81468" lon="1.21445">
        <ele>301</ele>
        <time>2020-09-19T11:01:57.750Z</time>
      </trkpt>
      <trkpt lat="45.81465" lon="1.21444">
        <ele>301</ele>
        <time>2020-09-19T11:01:58.750Z</time>
      </trkpt>
      <trkpt lat="45.81462" lon="1.21442">
        <ele>302</ele>
        <time>2020-09-19T11:01:59.750Z</time>
      </trkpt>
      <trkpt lat="45.81459" lon="1.21441">
        <ele>301</ele>
        <time>2020-09-19T11:02:00.750Z</time>
      </trkpt>
      <trkpt lat="45.81455" lon="1.2144">
        <ele>300</ele>
        <time>2020-09-19T11:02:01.750Z</time>
      </trkpt>
      <trkpt lat="45.81452" lon="1.21439">
        <ele>300</ele>
        <time>2020-09-19T11:02:02.750Z</time>
      </trkpt>
      <trkpt lat="45.81449" lon="1.21438">
        <ele>299</ele>
        <time>2020-09-19T11:02:03.750Z</time>
      </trkpt>
      <trkpt lat="45.81445" lon="1.21437">
        <ele>299</ele>
        <time>2020-09-19T11:02:04.750Z</time>
      </trkpt>
      <trkpt lat="45.81443" lon="1.21436">
        <ele>299</ele>
        <time>2020-09-19T11:02:05.750Z</time>
      </trkpt>
      <trkpt lat="45.8144" lon="1.21434">
        <ele>299</ele>
        <time>2020-09-19T11:02:06.750Z</time>
      </trkpt>
      <trkpt lat="45.81437" lon="1.21433">
        <ele>300</ele>
        <time>2020-09-19T11:02:07.750Z</time>
      </trkpt>
      <trkpt lat="45.81433" lon="1.21432">
        <ele>299</ele>
        <time>2020-09-19T11:02:08.750Z</time>
      </trkpt>
      <trkpt lat="45.8143" lon="1.21431">
        <ele>300</ele>
        <time>2020-09-19T11:02:09.750Z</time>
      </trkpt>
      <trkpt lat="45.81427" lon="1.21429">
        <ele>300</ele>
        <time>2020-09-19T11:02:10.750Z</time>
      </trkpt>
      <trkpt lat="45.81425" lon="1.21428">
        <ele>300</ele>
        <time>2020-09-19T11:02:11.750Z</time>
      </trkpt>
      <trkpt lat="45.81422" lon="1.21427">
        <ele>300</ele>
        <time>2020-09-19T11:02:12.750Z</time>
      </trkpt>
      <trkpt lat="45.81419" lon="1.21425">
        <ele>301</ele>
        <time>2020-09-19T11:02:13.750Z</time>
      </trkpt>
      <trkpt lat="45.81416" lon="1.21424">
        <ele>301</ele>
        <time>2020-09-19T11:02:14.750Z</time>
      </trkpt>
      <trkpt lat="45.81413" lon="1.21423">
        <ele>302</ele>
        <time>2020-09-19T11:02:15.750Z</time>
      </trkpt>
      <trkpt lat="45.8141" lon="1.21422">
        <ele>302</ele>
        <time>2020-09-19T11:02:16.750Z</time>
      </trkpt>
      <trkpt lat="45.81407" lon="1.21421">
        <ele>301</ele>
        <time>2020-09-19T11:02:17.750Z</time>
      </trkpt>
      <trkpt lat="45.81404" lon="1.21421">
        <ele>302</ele>
        <time>2020-09-19T11:02:18.750Z</time>
      </trkpt>
      <trkpt lat="45.81401" lon="1.2142">
        <ele>301</ele>
        <time>2020-09-19T11:02:19.750Z</time>
      </trkpt>
      <trkpt lat="45.81398" lon="1.21419">
        <ele>301</ele>
        <time>2020-09-19T11:02:20.750Z</time>
      </trkpt>
      <trkpt lat="45.81395" lon="1.21419">
        <ele>301</ele>
        <time>2020-09-19T11:02:21.750Z</time>
      </trkpt>
      <trkpt lat="45.81392" lon="1.21418">
        <ele>300</ele>
        <time>2020-09-19T11:02:22.750Z</time>
      </trkpt>
      <trkpt lat="45.81389" lon="1.21418">
        <ele>300</ele>
        <time>2020-09-19T11:02:23.750Z</time>
      </trkpt>
      <trkpt lat="45.81386" lon="1.21417">
        <ele>300</ele>
        <time>2020-09-19T11:02:24.750Z</time>
      </trkpt>
      <trkpt lat="45.81383" lon="1.21417">
        <ele>300</ele>
        <time>2020-09-19T11:02:25.750Z</time>
      </trkpt>
      <trkpt lat="45.8138" lon="1.21417">
        <ele>300</ele>
        <time>2020-09-19T11:02:26.750Z</time>
      </trkpt>
      <trkpt lat="45.81376" lon="1.21417">
        <ele>299</ele>
        <time>2020-09-19T11:02:27.750Z</time>
      </trkpt>
      <trkpt lat="45.81373" lon="1.21418">
        <ele>299</ele>
        <time>2020-09-19T11:02:28.750Z</time>
      </trkpt>
      <trkpt lat="45.8137" lon="1.21418">
        <ele>298</ele>
        <time>2020-09-19T11:02:29.750Z</time>
      </trkpt>
      <trkpt lat="45.81367" lon="1.21419">
        <ele>298</ele>
        <time>2020-09-19T11:02:30.750Z</time>
      </trkpt>
      <trkpt lat="45.81363" lon="1.2142">
        <ele>297</ele>
        <time>2020-09-19T11:02:31.750Z</time>
      </trkpt>
      <trkpt lat="45.8136" lon="1.21421">
        <ele>297</ele>
        <time>2020-09-19T11:02:32.750Z</time>
      </trkpt>
      <trkpt lat="45.81357" lon="1.21422">
        <ele>297</ele>
        <time>2020-09-19T11:02:33.750Z</time>
      </trkpt>
      <trkpt lat="45.81355" lon="1.21423">
        <ele>297</ele>
        <time>2020-09-19T11:02:34.750Z</time>
      </trkpt>
      <trkpt lat="45.81352" lon="1.21424">
        <ele>298</ele>
        <time>2020-09-19T11:02:35.750Z</time>
      </trkpt>
      <trkpt lat="45.81348" lon="1.21426">
        <ele>298</ele>
        <time>2020-09-19T11:02:36.750Z</time>
      </trkpt>
      <trkpt lat="45.81345" lon="1.21428">
        <ele>298</ele>
        <time>2020-09-19T11:02:37.750Z</time>
      </trkpt>
      <trkpt lat="45.81342" lon="1.2143">
        <ele>300</ele>
        <time>2020-09-19T11:02:38.750Z</time>
      </trkpt>
      <trkpt lat="45.81339" lon="1.21432">
        <ele>301</ele>
        <time>2020-09-19T11:02:39.750Z</time>
      </trkpt>
      <trkpt lat="45.81336" lon="1.21434">
        <ele>301</ele>
        <time>2020-09-19T11:02:40.750Z</time>
      </trkpt>
      <trkpt lat="45.81333" lon="1.21436">
        <ele>301</ele>
        <time>2020-09-19T11:02:41.750Z</time>
      </trkpt>
      <trkpt lat="45.8133" lon="1.21438">
        <ele>302</ele>
        <time>2020-09-19T11:02:42.750Z</time>
      </trkpt>
      <trkpt lat="45.81327" lon="1.21441">
        <ele>303</ele>
        <time>2020-09-19T11:02:43.750Z</time>
      </trkpt>
      <trkpt lat="45.81324" lon="1.21443">
        <ele>304</ele>
        <time>2020-09-19T11:02:44.750Z</time>
      </trkpt>
      <trkpt lat="45.81321" lon="1.21445">
        <ele>305</ele>
        <time>2020-09-19T11:02:45.750Z</time>
      </trkpt>
      <trkpt lat="45.81318" lon="1.21447">
        <ele>306</ele>
        <time>2020-09-19T11:02:46.750Z</time>
      </trkpt>
      <trkpt lat="45.81315" lon="1.21449">
        <ele>307</ele>
        <time>2020-09-19T11:02:47.750Z</time>
      </trkpt>
      <trkpt lat="45.81312" lon="1.21453">
        <ele>307</ele>
        <time>2020-09-19T11:02:48.750Z</time>
      </trkpt>
      <trkpt lat="45.8131" lon="1.21456">
        <ele>307</ele>
        <time>2020-09-19T11:02:49.750Z</time>
      </trkpt>
      <trkpt lat="45.81307" lon="1.2146">
        <ele>307</ele>
        <time>2020-09-19T11:02:50.750Z</time>
      </trkpt>
      <trkpt lat="45.81305" lon="1.21463">
        <ele>308</ele>
        <time>2020-09-19T11:02:51.750Z</time>
      </trkpt>
      <trkpt lat="45.81303" lon="1.21467">
        <ele>308</ele>
        <time>2020-09-19T11:02:52.750Z</time>
      </trkpt>
      <trkpt lat="45.813" lon="1.2147">
        <ele>309</ele>
        <time>2020-09-19T11:02:53.750Z</time>
      </trkpt>
      <trkpt lat="45.81298" lon="1.21472">
        <ele>309</ele>
        <time>2020-09-19T11:02:54.750Z</time>
      </trkpt>
      <trkpt lat="45.81295" lon="1.21475">
        <ele>310</ele>
        <time>2020-09-19T11:02:55.750Z</time>
      </trkpt>
      <trkpt lat="45.81292" lon="1.21478">
        <ele>310</ele>
        <time>2020-09-19T11:02:56.750Z</time>
      </trkpt>
      <trkpt lat="45.8129" lon="1.2148">
        <ele>310</ele>
        <time>2020-09-19T11:02:57.750Z</time>
      </trkpt>
      <trkpt lat="45.81288" lon="1.21482">
        <ele>311</ele>
        <time>2020-09-19T11:02:58.750Z</time>
      </trkpt>
      <trkpt lat="45.81286" lon="1.21485">
        <ele>311</ele>
        <time>2020-09-19T11:02:59.750Z</time>
      </trkpt>
      <trkpt lat="45.81284" lon="1.21489">
        <ele>312</ele>
        <time>2020-09-19T11:03:00.750Z</time>
      </trkpt>
      <trkpt lat="45.81282" lon="1.21492">
        <ele>312</ele>
        <time>2020-09-19T11:03:01.750Z</time>
      </trkpt>
      <trkpt lat="45.8128" lon="1.21496">
        <ele>313</ele>
        <time>2020-09-19T11:03:02.750Z</time>
      </trkpt>
      <trkpt lat="45.81278" lon="1.215">
        <ele>314</ele>
        <time>2020-09-19T11:03:03.750Z</time>
      </trkpt>
      <trkpt lat="45.81278" lon="1.21504">
        <ele>313</ele>
        <time>2020-09-19T11:03:04.750Z</time>
      </trkpt>
      <trkpt lat="45.81277" lon="1.21508">
        <ele>313</ele>
        <time>2020-09-19T11:03:05.750Z</time>
      </trkpt>
      <trkpt lat="45.81276" lon="1.21512">
        <ele>312</ele>
        <time>2020-09-19T11:03:06.750Z</time>
      </trkpt>
      <trkpt lat="45.81276" lon="1.21516">
        <ele>313</ele>
        <time>2020-09-19T11:03:07.750Z</time>
      </trkpt>
      <trkpt lat="45.81275" lon="1.2152">
        <ele>314</ele>
        <time>2020-09-19T11:03:08.750Z</time>
      </trkpt>
      <trkpt lat="45.81274" lon="1.21525">
        <ele>314</ele>
        <time>2020-09-19T11:03:09.750Z</time>
      </trkpt>
      <trkpt lat="45.81272" lon="1.21529">
        <ele>314</ele>
        <time>2020-09-19T11:03:10.750Z</time>
      </trkpt>
      <trkpt lat="45.81271" lon="1.21533">
        <ele>316</ele>
        <time>2020-09-19T11:03:11.750Z</time>
      </trkpt>
      <trkpt lat="45.81269" lon="1.21536">
        <ele>317</ele>
        <time>2020-09-19T11:03:12.750Z</time>
      </trkpt>
      <trkpt lat="45.81267" lon="1.21539">
        <ele>318</ele>
        <time>2020-09-19T11:03:13.750Z</time>
      </trkpt>
      <trkpt lat="45.81265" lon="1.21541">
        <ele>319</ele>
        <time>2020-09-19T11:03:14.750Z</time>
      </trkpt>
      <trkpt lat="45.81263" lon="1.21543">
        <ele>319</ele>
        <time>2020-09-19T11:03:15.750Z</time>
      </trkpt>
      <trkpt lat="45.81262" lon="1.21545">
        <ele>320</ele>
        <time>2020-09-19T11:03:16.750Z</time>
      </trkpt>
      <trkpt lat="45.8126" lon="1.21547">
        <ele>321</ele>
        <time>2020-09-19T11:03:17.750Z</time>
      </trkpt>
      <trkpt lat="45.81258" lon="1.21548">
        <ele>321</ele>
        <time>2020-09-19T11:03:18.750Z</time>
      </trkpt>
      <trkpt lat="45.81256" lon="1.2155">
        <ele>322</ele>
        <time>2020-09-19T11:03:19.750Z</time>
      </trkpt>
      <trkpt lat="45.81254" lon="1.21551">
        <ele>322</ele>
        <time>2020-09-19T11:03:20.750Z</time>
      </trkpt>
      <trkpt lat="45.81252" lon="1.21553">
        <ele>322</ele>
        <time>2020-09-19T11:03:21.750Z</time>
      </trkpt>
      <trkpt lat="45.8125" lon="1.21554">
        <ele>322</ele>
        <time>2020-09-19T11:03:22.750Z</time>
      </trkpt>
      <trkpt lat="45.81248" lon="1.21555">
        <ele>323</ele>
        <time>2020-09-19T11:03:23.750Z</time>
      </trkpt>
      <trkpt lat="45.81246" lon="1.21556">
        <ele>323</ele>
        <time>2020-09-19T11:03:24.750Z</time>
      </trkpt>
      <trkpt lat="45.81244" lon="1.21558">
        <ele>324</ele>
        <time>2020-09-19T11:03:25.750Z</time>
      </trkpt>
      <trkpt lat="45.81241" lon="1.21559">
        <ele>324</ele>
        <time>2020-09-19T11:03:26.750Z</time>
      </trkpt>
      <trkpt lat="45.81238" lon="1.21559">
        <ele>324</ele>
        <time>2020-09-19T11:03:27.750Z</time>
      </trkpt>
      <trkpt lat="45.81236" lon="1.2156">
        <ele>324</ele>
        <time>2020-09-19T11:03:28.750Z</time>
      </trkpt>
      <trkpt lat="45.81234" lon="1.21561">
        <ele>323</ele>
        <time>2020-09-19T11:03:29.750Z</time>
      </trkpt>
      <trkpt lat="45.81231" lon="1.21562">
        <ele>324</ele>
        <time>2020-09-19T11:03:30.750Z</time>
      </trkpt>
      <trkpt lat="45.81229" lon="1.21563">
        <ele>325</ele>
        <time>2020-09-19T11:03:31.750Z</time>
      </trkpt>
      <trkpt lat="45.81226" lon="1.21564">
        <ele>325</ele>
        <time>2020-09-19T11:03:32.750Z</time>
      </trkpt>
      <trkpt lat="45.81222" lon="1.21565">
        <ele>324</ele>
        <time>2020-09-19T11:03:33.750Z</time>
      </trkpt>
      <trkpt lat="45.81219" lon="1.21565">
        <ele>324</ele>
        <time>2020-09-19T11:03:34.750Z</time>
      </trkpt>
      <trkpt lat="45.81216" lon="1.21566">
        <ele>324</ele>
        <time>2020-09-19T11:03:35.750Z</time>
      </trkpt>
      <trkpt lat="45.81213" lon="1.21567">
        <ele>324</ele>
        <time>2020-09-19T11:03:36.750Z</time>
      </trkpt>
      <trkpt lat="45.81211" lon="1.21568">
        <ele>324</ele>
        <time>2020-09-19T11:03:37.750Z</time>
      </trkpt>
      <trkpt lat="45.81208" lon="1.21568">
        <ele>323</ele>
        <time>2020-09-19T11:03:38.750Z</time>
      </trkpt>
      <trkpt lat="45.81206" lon="1.21569">
        <ele>322</ele>
        <time>2020-09-19T11:03:39.750Z</time>
      </trkpt>
      <trkpt lat="45.81205" lon="1.21568">
        <ele>323</ele>
        <time>2020-09-19T11:03:40.750Z</time>
      </trkpt>
      <trkpt lat="45.81206" lon="1.21568">
        <ele>323</ele>
        <time>2020-09-19T11:03:41.750Z</time>
      </trkpt>
      <trkpt lat="45.81207" lon="1.21567">
        <ele>323</ele>
        <time>2020-09-19T11:03:42.750Z</time>
      </trkpt>
      <trkpt lat="45.8121" lon="1.21566">
        <ele>322</ele>
        <time>2020-09-19T11:03:43.750Z</time>
      </trkpt>
      <trkpt lat="45.81212" lon="1.21564">
        <ele>320</ele>
        <time>2020-09-19T11:03:44.750Z</time>
      </trkpt>
      <trkpt lat="45.81213" lon="1.21563">
        <ele>318</ele>
        <time>2020-09-19T11:03:45.750Z</time>
      </trkpt>
      <trkpt lat="45.81216" lon="1.21562">
        <ele>315</ele>
        <time>2020-09-19T11:03:46.750Z</time>
      </trkpt>
      <trkpt lat="45.81218" lon="1.2156">
        <ele>316</ele>
        <time>2020-09-19T11:03:47.750Z</time>
      </trkpt>
      <trkpt lat="45.8122" lon="1.21559">
        <ele>315</ele>
        <time>2020-09-19T11:03:48.750Z</time>
      </trkpt>
      <trkpt lat="45.81223" lon="1.21558">
        <ele>316</ele>
        <time>2020-09-19T11:03:49.750Z</time>
      </trkpt>
      <trkpt lat="45.81226" lon="1.21557">
        <ele>315</ele>
        <time>2020-09-19T11:03:50.750Z</time>
      </trkpt>
      <trkpt lat="45.81228" lon="1.21557">
        <ele>315</ele>
        <time>2020-09-19T11:03:51.750Z</time>
      </trkpt>
      <trkpt lat="45.81231" lon="1.21556">
        <ele>314</ele>
        <time>2020-09-19T11:03:52.750Z</time>
      </trkpt>
      <trkpt lat="45.81233" lon="1.21555">
        <ele>314</ele>
        <time>2020-09-19T11:03:53.750Z</time>
      </trkpt>
      <trkpt lat="45.81236" lon="1.21553">
        <ele>314</ele>
        <time>2020-09-19T11:03:54.750Z</time>
      </trkpt>
      <trkpt lat="45.81238" lon="1.21552">
        <ele>313</ele>
        <time>2020-09-19T11:03:55.750Z</time>
      </trkpt>
      <trkpt lat="45.81241" lon="1.21551">
        <ele>312</ele>
        <time>2020-09-19T11:03:56.750Z</time>
      </trkpt>
      <trkpt lat="45.81244" lon="1.2155">
        <ele>311</ele>
        <time>2020-09-19T11:03:57.750Z</time>
      </trkpt>
      <trkpt lat="45.81248" lon="1.21549">
        <ele>311</ele>
        <time>2020-09-19T11:03:58.750Z</time>
      </trkpt>
      <trkpt lat="45.81251" lon="1.21547">
        <ele>310</ele>
        <time>2020-09-19T11:03:59.750Z</time>
      </trkpt>
      <trkpt lat="45.81254" lon="1.21545">
        <ele>310</ele>
        <time>2020-09-19T11:04:00.750Z</time>
      </trkpt>
      <trkpt lat="45.81256" lon="1.21543">
        <ele>309</ele>
        <time>2020-09-19T11:04:01.750Z</time>
      </trkpt>
      <trkpt lat="45.81259" lon="1.21542">
        <ele>309</ele>
        <time>2020-09-19T11:04:02.750Z</time>
      </trkpt>
      <trkpt lat="45.81262" lon="1.2154">
        <ele>307</ele>
        <time>2020-09-19T11:04:03.750Z</time>
      </trkpt>
      <trkpt lat="45.81265" lon="1.21537">
        <ele>307</ele>
        <time>2020-09-19T11:04:04.750Z</time>
      </trkpt>
      <trkpt lat="45.81267" lon="1.21535">
        <ele>307</ele>
        <time>2020-09-19T11:04:05.750Z</time>
      </trkpt>
      <trkpt lat="45.8127" lon="1.21532">
        <ele>306</ele>
        <time>2020-09-19T11:04:06.750Z</time>
      </trkpt>
      <trkpt lat="45.81272" lon="1.21529">
        <ele>306</ele>
        <time>2020-09-19T11:04:07.750Z</time>
      </trkpt>
      <trkpt lat="45.81274" lon="1.21526">
        <ele>305</ele>
        <time>2020-09-19T11:04:08.750Z</time>
      </trkpt>
      <trkpt lat="45.81275" lon="1.21523">
        <ele>305</ele>
        <time>2020-09-19T11:04:09.750Z</time>
      </trkpt>
      <trkpt lat="45.81276" lon="1.2152">
        <ele>303</ele>
        <time>2020-09-19T11:04:10.750Z</time>
      </trkpt>
      <trkpt lat="45.81277" lon="1.21516">
        <ele>303</ele>
        <time>2020-09-19T11:04:11.750Z</time>
      </trkpt>
      <trkpt lat="45.81278" lon="1.21513">
        <ele>303</ele>
        <time>2020-09-19T11:04:12.750Z</time>
      </trkpt>
      <trkpt lat="45.81279" lon="1.21509">
        <ele>303</ele>
        <time>2020-09-19T11:04:13.750Z</time>
      </trkpt>
      <trkpt lat="45.81281" lon="1.21504">
        <ele>303</ele>
        <time>2020-09-19T11:04:14.750Z</time>
      </trkpt>
      <trkpt lat="45.81282" lon="1.21499">
        <ele>304</ele>
        <time>2020-09-19T11:04:15.750Z</time>
      </trkpt>
      <trkpt lat="45.81284" lon="1.21495">
        <ele>304</ele>
        <time>2020-09-19T11:04:16.750Z</time>
      </trkpt>
      <trkpt lat="45.81285" lon="1.21491">
        <ele>303</ele>
        <time>2020-09-19T11:04:17.750Z</time>
      </trkpt>
      <trkpt lat="45.81287" lon="1.21486">
        <ele>303</ele>
        <time>2020-09-19T11:04:18.750Z</time>
      </trkpt>
      <trkpt lat="45.81289" lon="1.21481">
        <ele>303</ele>
        <time>2020-09-19T11:04:19.750Z</time>
      </trkpt>
      <trkpt lat="45.81292" lon="1.21477">
        <ele>303</ele>
        <time>2020-09-19T11:04:20.750Z</time>
      </trkpt>
      <trkpt lat="45.81294" lon="1.21473">
        <ele>303</ele>
        <time>2020-09-19T11:04:21.750Z</time>
      </trkpt>
      <trkpt lat="45.81297" lon="1.21469">
        <ele>303</ele>
        <time>2020-09-19T11:04:22.750Z</time>
      </trkpt>
      <trkpt lat="45.813" lon="1.21466">
        <ele>304</ele>
        <time>2020-09-19T11:04:23.750Z</time>
      </trkpt>
      <trkpt lat="45.81303" lon="1.21462">
        <ele>304</ele>
        <time>2020-09-19T11:04:24.750Z</time>
      </trkpt>
      <trkpt lat="45.81305" lon="1.21458">
        <ele>304</ele>
        <time>2020-09-19T11:04:25.750Z</time>
      </trkpt>
      <trkpt lat="45.81308" lon="1.21455">
        <ele>305</ele>
        <time>2020-09-19T11:04:26.750Z</time>
      </trkpt>
      <trkpt lat="45.81311" lon="1.21451">
        <ele>305</ele>
        <time>2020-09-19T11:04:27.750Z</time>
      </trkpt>
      <trkpt lat="45.81313" lon="1.21447">
        <ele>305</ele>
        <time>2020-09-19T11:04:28.750Z</time>
      </trkpt>
      <trkpt lat="45.81316" lon="1.21444">
        <ele>306</ele>
        <time>2020-09-19T11:04:29.750Z</time>
      </trkpt>
      <trkpt lat="45.81319" lon="1.21441">
        <ele>306</ele>
        <time>2020-09-19T11:04:30.750Z</time>
      </trkpt>
      <trkpt lat="45.81322" lon="1.21438">
        <ele>306</ele>
        <time>2020-09-19T11:04:31.750Z</time>
      </trkpt>
      <trkpt lat="45.81325" lon="1.21435">
        <ele>306</ele>
        <time>2020-09-19T11:04:32.750Z</time>
      </trkpt>
      <trkpt lat="45.81327" lon="1.21433">
        <ele>306</ele>
        <time>2020-09-19T11:04:33.750Z</time>
      </trkpt>
      <trkpt lat="45.8133" lon="1.2143">
        <ele>306</ele>
        <time>2020-09-19T11:04:34.750Z</time>
      </trkpt>
      <trkpt lat="45.81333" lon="1.21428">
        <ele>306</ele>
        <time>2020-09-19T11:04:35.750Z</time>
      </trkpt>
      <trkpt lat="45.81336" lon="1.21425">
        <ele>305</ele>
        <time>2020-09-19T11:04:36.750Z</time>
      </trkpt>
      <trkpt lat="45.8134" lon="1.21423">
        <ele>305</ele>
        <time>2020-09-19T11:04:37.750Z</time>
      </trkpt>
      <trkpt lat="45.81343" lon="1.21422">
        <ele>304</ele>
        <time>2020-09-19T11:04:38.750Z</time>
      </trkpt>
      <trkpt lat="45.81346" lon="1.21421">
        <ele>304</ele>
        <time>2020-09-19T11:04:39.750Z</time>
      </trkpt>
      <trkpt lat="45.8135" lon="1.2142">
        <ele>304</ele>
        <time>2020-09-19T11:04:40.750Z</time>
      </trkpt>
      <trkpt lat="45.81353" lon="1.21419">
        <ele>303</ele>
        <time>2020-09-19T11:04:41.750Z</time>
      </trkpt>
      <trkpt lat="45.81356" lon="1.21419">
        <ele>303</ele>
        <time>2020-09-19T11:04:42.750Z</time>
      </trkpt>
      <trkpt lat="45.8136" lon="1.21418">
        <ele>302</ele>
        <time>2020-09-19T11:04:43.750Z</time>
      </trkpt>
      <trkpt lat="45.81363" lon="1.21417">
        <ele>302</ele>
        <time>2020-09-19T11:04:44.750Z</time>
      </trkpt>
      <trkpt lat="45.81366" lon="1.21417">
        <ele>302</ele>
        <time>2020-09-19T11:04:45.750Z</time>
      </trkpt>
      <trkpt lat="45.81369" lon="1.21417">
        <ele>302</ele>
        <time>2020-09-19T11:04:46.750Z</time>
      </trkpt>
      <trkpt lat="45.81373" lon="1.21417">
        <ele>302</ele>
        <time>2020-09-19T11:04:47.750Z</time>
      </trkpt>
      <trkpt lat="45.81376" lon="1.21417">
        <ele>301</ele>
        <time>2020-09-19T11:04:48.750Z</time>
      </trkpt>
      <trkpt lat="45.81379" lon="1.21417">
        <ele>300</ele>
        <time>2020-09-19T11:04:49.750Z</time>
      </trkpt>
      <trkpt lat="45.81383" lon="1.21417">
        <ele>300</ele>
        <time>2020-09-19T11:04:50.750Z</time>
      </trkpt>
      <trkpt lat="45.81386" lon="1.21418">
        <ele>301</ele>
        <time>2020-09-19T11:04:51.750Z</time>
      </trkpt>
      <trkpt lat="45.81389" lon="1.21418">
        <ele>301</ele>
        <time>2020-09-19T11:04:52.750Z</time>
      </trkpt>
      <trkpt lat="45.81393" lon="1.21419">
        <ele>301</ele>
        <time>2020-09-19T11:04:53.750Z</time>
      </trkpt>
      <trkpt lat="45.81396" lon="1.2142">
        <ele>300</ele>
        <time>2020-09-19T11:04:54.750Z</time>
      </trkpt>
      <trkpt lat="45.814" lon="1.21421">
        <ele>300</ele>
        <time>2020-09-19T11:04:55.750Z</time>
      </trkpt>
      <trkpt lat="45.81404" lon="1.21421">
        <ele>301</ele>
        <time>2020-09-19T11:04:56.750Z</time>
      </trkpt>
      <trkpt lat="45.81407" lon="1.21423">
        <ele>301</ele>
        <time>2020-09-19T11:04:57.750Z</time>
      </trkpt>
      <trkpt lat="45.81411" lon="1.21424">
        <ele>301</ele>
        <time>2020-09-19T11:04:58.750Z</time>
      </trkpt>
      <trkpt lat="45.81414" lon="1.21425">
        <ele>301</ele>
        <time>2020-09-19T11:04:59.750Z</time>
      </trkpt>
      <trkpt lat="45.81418" lon="1.21427">
        <ele>301</ele>
        <time>2020-09-19T11:05:00.750Z</time>
      </trkpt>
      <trkpt lat="45.81421" lon="1.21428">
        <ele>301</ele>
        <time>2020-09-19T11:05:01.750Z</time>
      </trkpt>
      <trkpt lat="45.81424" lon="1.21429">
        <ele>301</ele>
        <time>2020-09-19T11:05:02.750Z</time>
      </trkpt>
      <trkpt lat="45.81427" lon="1.2143">
        <ele>301</ele>
        <time>2020-09-19T11:05:03.750Z</time>
      </trkpt>
      <trkpt lat="45.81431" lon="1.21432">
        <ele>301</ele>
        <time>2020-09-19T11:05:04.750Z</time>
      </trkpt>
      <trkpt lat="45.81434" lon="1.21433">
        <ele>301</ele>
        <time>2020-09-19T11:05:05.750Z</time>
      </trkpt>
      <trkpt lat="45.81437" lon="1.21434">
        <ele>301</ele>
        <time>2020-09-19T11:05:06.750Z</time>
      </trkpt>
      <trkpt lat="45.81441" lon="1.21435">
        <ele>301</ele>
        <time>2020-09-19T11:05:07.750Z</time>
      </trkpt>
      <trkpt lat="45.81444" lon="1.21436">
        <ele>301</ele>
        <time>2020-09-19T11:05:08.750Z</time>
      </trkpt>
      <trkpt lat="45.81447" lon="1.21437">
        <ele>301</ele>
        <time>2020-09-19T11:05:09.750Z</time>
      </trkpt>
      <trkpt lat="45.81451" lon="1.21438">
        <ele>301</ele>
        <time>2020-09-19T11:05:10.750Z</time>
      </trkpt>
      <trkpt lat="45.81454" lon="1.2144">
        <ele>301</ele>
        <time>2020-09-19T11:05:11.750Z</time>
      </trkpt>
      <trkpt lat="45.81457" lon="1.21441">
        <ele>301</ele>
        <time>2020-09-19T11:05:12.750Z</time>
      </trkpt>
      <trkpt lat="45.81461" lon="1.21443">
        <ele>301</ele>
        <time>2020-09-19T11:05:13.750Z</time>
      </trkpt>
      <trkpt lat="45.81464" lon="1.21444">
        <ele>301</ele>
        <time>2020-09-19T11:05:14.750Z</time>
      </trkpt>
      <trkpt lat="45.81467" lon="1.21445">
        <ele>300</ele>
        <time>2020-09-19T11:05:15.750Z</time>
      </trkpt>
      <trkpt lat="45.8147" lon="1.21446">
        <ele>299</ele>
        <time>2020-09-19T11:05:16.750Z</time>
      </trkpt>
      <trkpt lat="45.81473" lon="1.21447">
        <ele>298</ele>
        <time>2020-09-19T11:05:17.750Z</time>
      </trkpt>
      <trkpt lat="45.81477" lon="1.21449">
        <ele>297</ele>
        <time>2020-09-19T11:05:18.750Z</time>
      </trkpt>
      <trkpt lat="45.8148" lon="1.2145">
        <ele>296</ele>
        <time>2020-09-19T11:05:19.750Z</time>
      </trkpt>
      <trkpt lat="45.81483" lon="1.21451">
        <ele>296</ele>
        <time>2020-09-19T11:05:20.750Z</time>
      </trkpt>
      <trkpt lat="45.81487" lon="1.21453">
        <ele>295</ele>
        <time>2020-09-19T11:05:21.750Z</time>
      </trkpt>
      <trkpt lat="45.8149" lon="1.21454">
        <ele>295</ele>
        <time>2020-09-19T11:05:22.750Z</time>
      </trkpt>
      <trkpt lat="45.81493" lon="1.21456">
        <ele>294</ele>
        <time>2020-09-19T11:05:23.750Z</time>
      </trkpt>
      <trkpt lat="45.81497" lon="1.21457">
        <ele>294</ele>
        <time>2020-09-19T11:05:24.750Z</time>
      </trkpt>
      <trkpt lat="45.81501" lon="1.21459">
        <ele>294</ele>
        <time>2020-09-19T11:05:25.750Z</time>
      </trkpt>
      <trkpt lat="45.81504" lon="1.21461">
        <ele>293</ele>
        <time>2020-09-19T11:05:26.750Z</time>
      </trkpt>
      <trkpt lat="45.81507" lon="1.21462">
        <ele>291</ele>
        <time>2020-09-19T11:05:27.750Z</time>
      </trkpt>
      <trkpt lat="45.81511" lon="1.21464">
        <ele>291</ele>
        <time>2020-09-19T11:05:28.750Z</time>
      </trkpt>
      <trkpt lat="45.81514" lon="1.21466">
        <ele>290</ele>
        <time>2020-09-19T11:05:29.750Z</time>
      </trkpt>
      <trkpt lat="45.81517" lon="1.21467">
        <ele>289</ele>
        <time>2020-09-19T11:05:30.750Z</time>
      </trkpt>
      <trkpt lat="45.81521" lon="1.21469">
        <ele>288</ele>
        <time>2020-09-19T11:05:31.750Z</time>
      </trkpt>
      <trkpt lat="45.81524" lon="1.21471">
        <ele>288</ele>
        <time>2020-09-19T11:05:32.750Z</time>
      </trkpt>
      <trkpt lat="45.81527" lon="1.21472">
        <ele>287</ele>
        <time>2020-09-19T11:05:33.750Z</time>
      </trkpt>
      <trkpt lat="45.8153" lon="1.21473">
        <ele>286</ele>
        <time>2020-09-19T11:05:34.750Z</time>
      </trkpt>
      <trkpt lat="45.81534" lon="1.21474">
        <ele>286</ele>
        <time>2020-09-19T11:05:35.750Z</time>
      </trkpt>
      <trkpt lat="45.81537" lon="1.21475">
        <ele>284</ele>
        <time>2020-09-19T11:05:36.750Z</time>
      </trkpt>
      <trkpt lat="45.8154" lon="1.21477">
        <ele>284</ele>
        <time>2020-09-19T11:05:37.750Z</time>
      </trkpt>
      <trkpt lat="45.81544" lon="1.21478">
        <ele>284</ele>
        <time>2020-09-19T11:05:38.750Z</time>
      </trkpt>
      <trkpt lat="45.81547" lon="1.21479">
        <ele>283</ele>
        <time>2020-09-19T11:05:39.750Z</time>
      </trkpt>
      <trkpt lat="45.81551" lon="1.21481">
        <ele>282</ele>
        <time>2020-09-19T11:05:40.750Z</time>
      </trkpt>
      <trkpt lat="45.81554" lon="1.21483">
        <ele>282</ele>
        <time>2020-09-19T11:05:41.750Z</time>
      </trkpt>
      <trkpt lat="45.81558" lon="1.21484">
        <ele>282</ele>
        <time>2020-09-19T11:05:42.750Z</time>
      </trkpt>
      <trkpt lat="45.81561" lon="1.21486">
        <ele>282</ele>
        <time>2020-09-19T11:05:43.750Z</time>
      </trkpt>
      <trkpt lat="45.81565" lon="1.21487">
        <ele>282</ele>
        <time>2020-09-19T11:05:44.750Z</time>
      </trkpt>
      <trkpt lat="45.81569" lon="1.21488">
        <ele>282</ele>
        <time>2020-09-19T11:05:45.750Z</time>
      </trkpt>
      <trkpt lat="45.81572" lon="1.21489">
        <ele>282</ele>
        <time>2020-09-19T11:05:46.750Z</time>
      </trkpt>
      <trkpt lat="45.81576" lon="1.21491">
        <ele>282</ele>
        <time>2020-09-19T11:05:47.750Z</time>
      </trkpt>
      <trkpt lat="45.8158" lon="1.21492">
        <ele>281</ele>
        <time>2020-09-19T11:05:48.750Z</time>
      </trkpt>
      <trkpt lat="45.81583" lon="1.21493">
        <ele>280</ele>
        <time>2020-09-19T11:05:49.750Z</time>
      </trkpt>
      <trkpt lat="45.81587" lon="1.21493">
        <ele>281</ele>
        <time>2020-09-19T11:05:50.750Z</time>
      </trkpt>
      <trkpt lat="45.81591" lon="1.21493">
        <ele>281</ele>
        <time>2020-09-19T11:05:51.750Z</time>
      </trkpt>
      <trkpt lat="45.81594" lon="1.21493">
        <ele>281</ele>
        <time>2020-09-19T11:05:52.750Z</time>
      </trkpt>
      <trkpt lat="45.81598" lon="1.21492">
        <ele>281</ele>
        <time>2020-09-19T11:05:53.750Z</time>
      </trkpt>
      <trkpt lat="45.81601" lon="1.2149">
        <ele>283</ele>
        <time>2020-09-19T11:05:54.750Z</time>
      </trkpt>
      <trkpt lat="45.81604" lon="1.21487">
        <ele>284</ele>
        <time>2020-09-19T11:05:55.750Z</time>
      </trkpt>
      <trkpt lat="45.81607" lon="1.21484">
        <ele>283</ele>
        <time>2020-09-19T11:05:56.750Z</time>
      </trkpt>
      <trkpt lat="45.8161" lon="1.21481">
        <ele>282</ele>
        <time>2020-09-19T11:05:57.750Z</time>
      </trkpt>
      <trkpt lat="45.81613" lon="1.21477">
        <ele>282</ele>
        <time>2020-09-19T11:05:58.750Z</time>
      </trkpt>
      <trkpt lat="45.81615" lon="1.21473">
        <ele>282</ele>
        <time>2020-09-19T11:05:59.750Z</time>
      </trkpt>
      <trkpt lat="45.81617" lon="1.21469">
        <ele>282</ele>
        <time>2020-09-19T11:06:00.750Z</time>
      </trkpt>
      <trkpt lat="45.81619" lon="1.21465">
        <ele>282</ele>
        <time>2020-09-19T11:06:01.750Z</time>
      </trkpt>
      <trkpt lat="45.81621" lon="1.21461">
        <ele>281</ele>
        <time>2020-09-19T11:06:02.750Z</time>
      </trkpt>
      <trkpt lat="45.81622" lon="1.21456">
        <ele>282</ele>
        <time>2020-09-19T11:06:03.750Z</time>
      </trkpt>
      <trkpt lat="45.81623" lon="1.21452">
        <ele>282</ele>
        <time>2020-09-19T11:06:04.750Z</time>
      </trkpt>
      <trkpt lat="45.81625" lon="1.21447">
        <ele>282</ele>
        <time>2020-09-19T11:06:05.750Z</time>
      </trkpt>
      <trkpt lat="45.81626" lon="1.21442">
        <ele>281</ele>
        <time>2020-09-19T11:06:06.750Z</time>
      </trkpt>
      <trkpt lat="45.81627" lon="1.21437">
        <ele>281</ele>
        <time>2020-09-19T11:06:07.750Z</time>
      </trkpt>
      <trkpt lat="45.81628" lon="1.21433">
        <ele>280</ele>
        <time>2020-09-19T11:06:08.750Z</time>
      </trkpt>
      <trkpt lat="45.81628" lon="1.21428">
        <ele>280</ele>
        <time>2020-09-19T11:06:09.750Z</time>
      </trkpt>
      <trkpt lat="45.81629" lon="1.21423">
        <ele>279</ele>
        <time>2020-09-19T11:06:10.750Z</time>
      </trkpt>
      <trkpt lat="45.8163" lon="1.21418">
        <ele>278</ele>
        <time>2020-09-19T11:06:11.750Z</time>
      </trkpt>
      <trkpt lat="45.8163" lon="1.21413">
        <ele>276</ele>
        <time>2020-09-19T11:06:12.750Z</time>
      </trkpt>
      <trkpt lat="45.8163" lon="1.21408">
        <ele>276</ele>
        <time>2020-09-19T11:06:13.750Z</time>
      </trkpt>
      <trkpt lat="45.8163" lon="1.21403">
        <ele>276</ele>
        <time>2020-09-19T11:06:14.750Z</time>
      </trkpt>
      <trkpt lat="45.8163" lon="1.21398">
        <ele>275</ele>
        <time>2020-09-19T11:06:15.750Z</time>
      </trkpt>
      <trkpt lat="45.81629" lon="1.21393">
        <ele>274</ele>
        <time>2020-09-19T11:06:16.750Z</time>
      </trkpt>
      <trkpt lat="45.81629" lon="1.21389">
        <ele>274</ele>
        <time>2020-09-19T11:06:17.750Z</time>
      </trkpt>
      <trkpt lat="45.81628" lon="1.21384">
        <ele>274</ele>
        <time>2020-09-19T11:06:18.750Z</time>
      </trkpt>
      <trkpt lat="45.81627" lon="1.21379">
        <ele>274</ele>
        <time>2020-09-19T11:06:19.750Z</time>
      </trkpt>
      <trkpt lat="45.81627" lon="1.21375">
        <ele>274</ele>
        <time>2020-09-19T11:06:20.750Z</time>
      </trkpt>
      <trkpt lat="45.81626" lon="1.2137">
        <ele>274</ele>
        <time>2020-09-19T11:06:21.750Z</time>
      </trkpt>
      <trkpt lat="45.81625" lon="1.21365">
        <ele>274</ele>
        <time>2020-09-19T11:06:22.750Z</time>
      </trkpt>
      <trkpt lat="45.81624" lon="1.2136">
        <ele>274</ele>
        <time>2020-09-19T11:06:23.750Z</time>
      </trkpt>
      <trkpt lat="45.81624" lon="1.21356">
        <ele>274</ele>
        <time>2020-09-19T11:06:24.750Z</time>
      </trkpt>
      <trkpt lat="45.81623" lon="1.21351">
        <ele>273</ele>
        <time>2020-09-19T11:06:25.750Z</time>
      </trkpt>
      <trkpt lat="45.81623" lon="1.21346">
        <ele>273</ele>
        <time>2020-09-19T11:06:26.750Z</time>
      </trkpt>
      <trkpt lat="45.81622" lon="1.21341">
        <ele>273</ele>
        <time>2020-09-19T11:06:27.750Z</time>
      </trkpt>
      <trkpt lat="45.81621" lon="1.21336">
        <ele>272</ele>
        <time>2020-09-19T11:06:28.750Z</time>
      </trkpt>
      <trkpt lat="45.81621" lon="1.21332">
        <ele>272</ele>
        <time>2020-09-19T11:06:29.750Z</time>
      </trkpt>
      <trkpt lat="45.8162" lon="1.21327">
        <ele>272</ele>
        <time>2020-09-19T11:06:30.750Z</time>
      </trkpt>
      <trkpt lat="45.81619" lon="1.21322">
        <ele>271</ele>
        <time>2020-09-19T11:06:31.750Z</time>
      </trkpt>
      <trkpt lat="45.81618" lon="1.21317">
        <ele>272</ele>
        <time>2020-09-19T11:06:32.750Z</time>
      </trkpt>
      <trkpt lat="45.81618" lon="1.21312">
        <ele>272</ele>
        <time>2020-09-19T11:06:33.750Z</time>
      </trkpt>
      <trkpt lat="45.81617" lon="1.21308">
        <ele>272</ele>
        <time>2020-09-19T11:06:34.750Z</time>
      </trkpt>
      <trkpt lat="45.81616" lon="1.21303">
        <ele>272</ele>
        <time>2020-09-19T11:06:35.750Z</time>
      </trkpt>
      <trkpt lat="45.81616" lon="1.21299">
        <ele>272</ele>
        <time>2020-09-19T11:06:36.750Z</time>
      </trkpt>
      <trkpt lat="45.81615" lon="1.21294">
        <ele>273</ele>
        <time>2020-09-19T11:06:37.750Z</time>
      </trkpt>
      <trkpt lat="45.81614" lon="1.21289">
        <ele>273</ele>
        <time>2020-09-19T11:06:38.750Z</time>
      </trkpt>
      <trkpt lat="45.81614" lon="1.21284">
        <ele>273</ele>
        <time>2020-09-19T11:06:39.750Z</time>
      </trkpt>
      <trkpt lat="45.81614" lon="1.21279">
        <ele>273</ele>
        <time>2020-09-19T11:06:40.750Z</time>
      </trkpt>
      <trkpt lat="45.81613" lon="1.21274">
        <ele>273</ele>
        <time>2020-09-19T11:06:41.750Z</time>
      </trkpt>
      <trkpt lat="45.81612" lon="1.21269">
        <ele>273</ele>
        <time>2020-09-19T11:06:42.750Z</time>
      </trkpt>
      <trkpt lat="45.81612" lon="1.21264">
        <ele>273</ele>
        <time>2020-09-19T11:06:43.750Z</time>
      </trkpt>
      <trkpt lat="45.81611" lon="1.21259">
        <ele>272</ele>
        <time>2020-09-19T11:06:44.750Z</time>
      </trkpt>
      <trkpt lat="45.8161" lon="1.21254">
        <ele>273</ele>
        <time>2020-09-19T11:06:45.750Z</time>
      </trkpt>
      <trkpt lat="45.8161" lon="1.21249">
        <ele>273</ele>
        <time>2020-09-19T11:06:46.750Z</time>
      </trkpt>
      <trkpt lat="45.81609" lon="1.21244">
        <ele>272</ele>
        <time>2020-09-19T11:06:47.750Z</time>
      </trkpt>
      <trkpt lat="45.81609" lon="1.21239">
        <ele>273</ele>
        <time>2020-09-19T11:06:48.750Z</time>
      </trkpt>
      <trkpt lat="45.81608" lon="1.21234">
        <ele>273</ele>
        <time>2020-09-19T11:06:49.750Z</time>
      </trkpt>
      <trkpt lat="45.81607" lon="1.21229">
        <ele>272</ele>
        <time>2020-09-19T11:06:50.750Z</time>
      </trkpt>
      <trkpt lat="45.81607" lon="1.21224">
        <ele>272</ele>
        <time>2020-09-19T11:06:51.750Z</time>
      </trkpt>
      <trkpt lat="45.81606" lon="1.21219">
        <ele>272</ele>
        <time>2020-09-19T11:06:52.750Z</time>
      </trkpt>
      <trkpt lat="45.81606" lon="1.21214">
        <ele>271</ele>
        <time>2020-09-19T11:06:53.750Z</time>
      </trkpt>
      <trkpt lat="45.81605" lon="1.2121">
        <ele>271</ele>
        <time>2020-09-19T11:06:54.750Z</time>
      </trkpt>
      <trkpt lat="45.81604" lon="1.21205">
        <ele>271</ele>
        <time>2020-09-19T11:06:55.750Z</time>
      </trkpt>
      <trkpt lat="45.81603" lon="1.212">
        <ele>270</ele>
        <time>2020-09-19T11:06:56.750Z</time>
      </trkpt>
      <trkpt lat="45.81603" lon="1.21195">
        <ele>270</ele>
        <time>2020-09-19T11:06:57.750Z</time>
      </trkpt>
      <trkpt lat="45.81602" lon="1.2119">
        <ele>270</ele>
        <time>2020-09-19T11:06:58.750Z</time>
      </trkpt>
      <trkpt lat="45.81602" lon="1.21185">
        <ele>269</ele>
        <time>2020-09-19T11:06:59.750Z</time>
      </trkpt>
      <trkpt lat="45.81602" lon="1.2118">
        <ele>270</ele>
        <time>2020-09-19T11:07:00.750Z</time>
      </trkpt>
      <trkpt lat="45.81601" lon="1.21175">
        <ele>271</ele>
        <time>2020-09-19T11:07:01.750Z</time>
      </trkpt>
      <trkpt lat="45.81601" lon="1.2117">
        <ele>271</ele>
        <time>2020-09-19T11:07:02.750Z</time>
      </trkpt>
      <trkpt lat="45.816" lon="1.21165">
        <ele>271</ele>
        <time>2020-09-19T11:07:03.750Z</time>
      </trkpt>
      <trkpt lat="45.81599" lon="1.21161">
        <ele>270</ele>
        <time>2020-09-19T11:07:04.750Z</time>
      </trkpt>
      <trkpt lat="45.81599" lon="1.21156">
        <ele>270</ele>
        <time>2020-09-19T11:07:05.750Z</time>
      </trkpt>
      <trkpt lat="45.81599" lon="1.21151">
        <ele>271</ele>
        <time>2020-09-19T11:07:06.750Z</time>
      </trkpt>
      <trkpt lat="45.81598" lon="1.21147">
        <ele>271</ele>
        <time>2020-09-19T11:07:07.750Z</time>
      </trkpt>
      <trkpt lat="45.81598" lon="1.21142">
        <ele>270</ele>
        <time>2020-09-19T11:07:08.750Z</time>
      </trkpt>
      <trkpt lat="45.81597" lon="1.21138">
        <ele>270</ele>
        <time>2020-09-19T11:07:09.750Z</time>
      </trkpt>
      <trkpt lat="45.81597" lon="1.21133">
        <ele>270</ele>
        <time>2020-09-19T11:07:10.750Z</time>
      </trkpt>
      <trkpt lat="45.81596" lon="1.21129">
        <ele>271</ele>
        <time>2020-09-19T11:07:11.750Z</time>
      </trkpt>
      <trkpt lat="45.81596" lon="1.21124">
        <ele>270</ele>
        <time>2020-09-19T11:07:12.750Z</time>
      </trkpt>
      <trkpt lat="45.81595" lon="1.21119">
        <ele>271</ele>
        <time>2020-09-19T11:07:13.750Z</time>
      </trkpt>
      <trkpt lat="45.81595" lon="1.21114">
        <ele>272</ele>
        <time>2020-09-19T11:07:14.750Z</time>
      </trkpt>
      <trkpt lat="45.81594" lon="1.21109">
        <ele>272</ele>
        <time>2020-09-19T11:07:15.750Z</time>
      </trkpt>
      <trkpt lat="45.81594" lon="1.21104">
        <ele>271</ele>
        <time>2020-09-19T11:07:16.750Z</time>
      </trkpt>
      <trkpt lat="45.81593" lon="1.21099">
        <ele>271</ele>
        <time>2020-09-19T11:07:17.750Z</time>
      </trkpt>
      <trkpt lat="45.81593" lon="1.21094">
        <ele>271</ele>
        <time>2020-09-19T11:07:18.750Z</time>
      </trkpt>
      <trkpt lat="45.81592" lon="1.21089">
        <ele>271</ele>
        <time>2020-09-19T11:07:19.750Z</time>
      </trkpt>
      <trkpt lat="45.81592" lon="1.21085">
        <ele>271</ele>
        <time>2020-09-19T11:07:20.750Z</time>
      </trkpt>
      <trkpt lat="45.81591" lon="1.2108">
        <ele>271</ele>
        <time>2020-09-19T11:07:21.750Z</time>
      </trkpt>
      <trkpt lat="45.81591" lon="1.21075">
        <ele>270</ele>
        <time>2020-09-19T11:07:22.750Z</time>
      </trkpt>
      <trkpt lat="45.81592" lon="1.2107">
        <ele>270</ele>
        <time>2020-09-19T11:07:23.750Z</time>
      </trkpt>
      <trkpt lat="45.81592" lon="1.21065">
        <ele>269</ele>
        <time>2020-09-19T11:07:24.750Z</time>
      </trkpt>
      <trkpt lat="45.81593" lon="1.2106">
        <ele>269</ele>
        <time>2020-09-19T11:07:25.750Z</time>
      </trkpt>
      <trkpt lat="45.81594" lon="1.21056">
        <ele>269</ele>
        <time>2020-09-19T11:07:26.750Z</time>
      </trkpt>
      <trkpt lat="45.81595" lon="1.21051">
        <ele>269</ele>
        <time>2020-09-19T11:07:27.750Z</time>
      </trkpt>
      <trkpt lat="45.81596" lon="1.21046">
        <ele>268</ele>
        <time>2020-09-19T11:07:28.750Z</time>
      </trkpt>
      <trkpt lat="45.81596" lon="1.2104">
        <ele>268</ele>
        <time>2020-09-19T11:07:29.750Z</time>
      </trkpt>
      <trkpt lat="45.81597" lon="1.21035">
        <ele>268</ele>
        <time>2020-09-19T11:07:30.750Z</time>
      </trkpt>
      <trkpt lat="45.81599" lon="1.21031">
        <ele>268</ele>
        <time>2020-09-19T11:07:31.750Z</time>
      </trkpt>
      <trkpt lat="45.816" lon="1.21026">
        <ele>268</ele>
        <time>2020-09-19T11:07:32.750Z</time>
      </trkpt>
      <trkpt lat="45.81602" lon="1.21022">
        <ele>268</ele>
        <time>2020-09-19T11:07:33.750Z</time>
      </trkpt>
      <trkpt lat="45.81604" lon="1.21018">
        <ele>267</ele>
        <time>2020-09-19T11:07:34.750Z</time>
      </trkpt>
      <trkpt lat="45.81606" lon="1.21013">
        <ele>267</ele>
        <time>2020-09-19T11:07:35.750Z</time>
      </trkpt>
      <trkpt lat="45.81608" lon="1.21009">
        <ele>266</ele>
        <time>2020-09-19T11:07:36.750Z</time>
      </trkpt>
      <trkpt lat="45.81611" lon="1.21006">
        <ele>266</ele>
        <time>2020-09-19T11:07:37.750Z</time>
      </trkpt>
      <trkpt lat="45.81613" lon="1.21002">
        <ele>266</ele>
        <time>2020-09-19T11:07:38.750Z</time>
      </trkpt>
      <trkpt lat="45.81616" lon="1.20999">
        <ele>266</ele>
        <time>2020-09-19T11:07:39.750Z</time>
      </trkpt>
      <trkpt lat="45.81618" lon="1.20996">
        <ele>265</ele>
        <time>2020-09-19T11:07:40.750Z</time>
      </trkpt>
      <trkpt lat="45.81621" lon="1.20992">
        <ele>265</ele>
        <time>2020-09-19T11:07:41.750Z</time>
      </trkpt>
      <trkpt lat="45.81623" lon="1.20989">
        <ele>264</ele>
        <time>2020-09-19T11:07:42.750Z</time>
      </trkpt>
      <trkpt lat="45.81626" lon="1.20985">
        <ele>263</ele>
        <time>2020-09-19T11:07:43.750Z</time>
      </trkpt>
      <trkpt lat="45.81627" lon="1.20981">
        <ele>263</ele>
        <time>2020-09-19T11:07:44.750Z</time>
      </trkpt>
      <trkpt lat="45.81629" lon="1.20977">
        <ele>263</ele>
        <time>2020-09-19T11:07:45.750Z</time>
      </trkpt>
      <trkpt lat="45.81631" lon="1.20973">
        <ele>262</ele>
        <time>2020-09-19T11:07:46.750Z</time>
      </trkpt>
      <trkpt lat="45.81633" lon="1.20969">
        <ele>262</ele>
        <time>2020-09-19T11:07:47.750Z</time>
      </trkpt>
      <trkpt lat="45.81635" lon="1.20965">
        <ele>263</ele>
        <time>2020-09-19T11:07:48.750Z</time>
      </trkpt>
      <trkpt lat="45.81637" lon="1.20961">
        <ele>262</ele>
        <time>2020-09-19T11:07:49.750Z</time>
      </trkpt>
      <trkpt lat="45.8164" lon="1.20957">
        <ele>262</ele>
        <time>2020-09-19T11:07:50.750Z</time>
      </trkpt>
      <trkpt lat="45.81642" lon="1.20953">
        <ele>262</ele>
        <time>2020-09-19T11:07:51.750Z</time>
      </trkpt>
      <trkpt lat="45.81645" lon="1.2095">
        <ele>261</ele>
        <time>2020-09-19T11:07:52.750Z</time>
      </trkpt>
      <trkpt lat="45.81648" lon="1.20947">
        <ele>260</ele>
        <time>2020-09-19T11:07:53.750Z</time>
      </trkpt>
      <trkpt lat="45.81651" lon="1.20945">
        <ele>260</ele>
        <time>2020-09-19T11:07:54.750Z</time>
      </trkpt>
      <trkpt lat="45.81654" lon="1.20942">
        <ele>260</ele>
        <time>2020-09-19T11:07:55.750Z</time>
      </trkpt>
      <trkpt lat="45.81657" lon="1.2094">
        <ele>259</ele>
        <time>2020-09-19T11:07:56.750Z</time>
      </trkpt>
      <trkpt lat="45.8166" lon="1.20938">
        <ele>260</ele>
        <time>2020-09-19T11:07:57.750Z</time>
      </trkpt>
      <trkpt lat="45.81664" lon="1.20937">
        <ele>259</ele>
        <time>2020-09-19T11:07:58.750Z</time>
      </trkpt>
      <trkpt lat="45.81668" lon="1.20937">
        <ele>259</ele>
        <time>2020-09-19T11:07:59.750Z</time>
      </trkpt>
      <trkpt lat="45.81672" lon="1.20936">
        <ele>259</ele>
        <time>2020-09-19T11:08:00.750Z</time>
      </trkpt>
      <trkpt lat="45.81676" lon="1.20936">
        <ele>259</ele>
        <time>2020-09-19T11:08:01.750Z</time>
      </trkpt>
      <trkpt lat="45.81679" lon="1.20936">
        <ele>259</ele>
        <time>2020-09-19T11:08:02.750Z</time>
      </trkpt>
      <trkpt lat="45.81682" lon="1.20936">
        <ele>259</ele>
        <time>2020-09-19T11:08:03.750Z</time>
      </trkpt>
      <trkpt lat="45.81686" lon="1.20936">
        <ele>258</ele>
        <time>2020-09-19T11:08:04.750Z</time>
      </trkpt>
      <trkpt lat="45.81689" lon="1.20936">
        <ele>258</ele>
        <time>2020-09-19T11:08:05.750Z</time>
      </trkpt>
      <trkpt lat="45.81692" lon="1.20935">
        <ele>258</ele>
        <time>2020-09-19T11:08:06.750Z</time>
      </trkpt>
      <trkpt lat="45.81696" lon="1.20935">
        <ele>257</ele>
        <time>2020-09-19T11:08:07.750Z</time>
      </trkpt>
      <trkpt lat="45.81699" lon="1.20935">
        <ele>257</ele>
        <time>2020-09-19T11:08:08.750Z</time>
      </trkpt>
      <trkpt lat="45.81703" lon="1.20935">
        <ele>256</ele>
        <time>2020-09-19T11:08:09.750Z</time>
      </trkpt>
      <trkpt lat="45.81706" lon="1.20935">
        <ele>256</ele>
        <time>2020-09-19T11:08:10.750Z</time>
      </trkpt>
      <trkpt lat="45.8171" lon="1.20935">
        <ele>256</ele>
        <time>2020-09-19T11:08:11.750Z</time>
      </trkpt>
      <trkpt lat="45.81713" lon="1.20936">
        <ele>256</ele>
        <time>2020-09-19T11:08:12.750Z</time>
      </trkpt>
      <trkpt lat="45.81717" lon="1.20935">
        <ele>255</ele>
        <time>2020-09-19T11:08:13.750Z</time>
      </trkpt>
      <trkpt lat="45.8172" lon="1.20935">
        <ele>255</ele>
        <time>2020-09-19T11:08:14.750Z</time>
      </trkpt>
      <trkpt lat="45.81724" lon="1.20934">
        <ele>254</ele>
        <time>2020-09-19T11:08:15.750Z</time>
      </trkpt>
      <trkpt lat="45.81728" lon="1.20934">
        <ele>254</ele>
        <time>2020-09-19T11:08:16.750Z</time>
      </trkpt>
      <trkpt lat="45.81731" lon="1.20934">
        <ele>253</ele>
        <time>2020-09-19T11:08:17.750Z</time>
      </trkpt>
      <trkpt lat="45.81734" lon="1.20934">
        <ele>252</ele>
        <time>2020-09-19T11:08:18.750Z</time>
      </trkpt>
      <trkpt lat="45.81737" lon="1.20934">
        <ele>252</ele>
        <time>2020-09-19T11:08:19.750Z</time>
      </trkpt>
      <trkpt lat="45.81741" lon="1.20934">
        <ele>251</ele>
        <time>2020-09-19T11:08:20.750Z</time>
      </trkpt>
      <trkpt lat="45.81744" lon="1.20934">
        <ele>251</ele>
        <time>2020-09-19T11:08:21.750Z</time>
      </trkpt>
      <trkpt lat="45.81747" lon="1.20933">
        <ele>250</ele>
        <time>2020-09-19T11:08:22.750Z</time>
      </trkpt>
      <trkpt lat="45.8175" lon="1.20932">
        <ele>250</ele>
        <time>2020-09-19T11:08:23.750Z</time>
      </trkpt>
      <trkpt lat="45.81753" lon="1.20931">
        <ele>250</ele>
        <time>2020-09-19T11:08:24.750Z</time>
      </trkpt>
      <trkpt lat="45.81756" lon="1.20931">
        <ele>249</ele>
        <time>2020-09-19T11:08:25.750Z</time>
      </trkpt>
      <trkpt lat="45.8176" lon="1.20931">
        <ele>249</ele>
        <time>2020-09-19T11:08:26.750Z</time>
      </trkpt>
      <trkpt lat="45.81764" lon="1.20931">
        <ele>249</ele>
        <time>2020-09-19T11:08:27.750Z</time>
      </trkpt>
      <trkpt lat="45.81767" lon="1.20931">
        <ele>249</ele>
        <time>2020-09-19T11:08:28.750Z</time>
      </trkpt>
      <trkpt lat="45.81771" lon="1.2093">
        <ele>249</ele>
        <time>2020-09-19T11:08:29.750Z</time>
      </trkpt>
      <trkpt lat="45.81775" lon="1.2093">
        <ele>249</ele>
        <time>2020-09-19T11:08:30.750Z</time>
      </trkpt>
      <trkpt lat="45.81779" lon="1.2093">
        <ele>249</ele>
        <time>2020-09-19T11:08:31.750Z</time>
      </trkpt>
      <trkpt lat="45.81782" lon="1.20929">
        <ele>248</ele>
        <time>2020-09-19T11:08:32.750Z</time>
      </trkpt>
      <trkpt lat="45.81786" lon="1.20929">
        <ele>248</ele>
        <time>2020-09-19T11:08:33.750Z</time>
      </trkpt>
      <trkpt lat="45.81789" lon="1.20929">
        <ele>248</ele>
        <time>2020-09-19T11:08:34.750Z</time>
      </trkpt>
      <trkpt lat="45.81793" lon="1.20929">
        <ele>248</ele>
        <time>2020-09-19T11:08:35.750Z</time>
      </trkpt>
      <trkpt lat="45.81796" lon="1.20929">
        <ele>248</ele>
        <time>2020-09-19T11:08:36.750Z</time>
      </trkpt>
      <trkpt lat="45.818" lon="1.20929">
        <ele>248</ele>
        <time>2020-09-19T11:08:37.750Z</time>
      </trkpt>
      <trkpt lat="45.81804" lon="1.20929">
        <ele>248</ele>
        <time>2020-09-19T11:08:38.750Z</time>
      </trkpt>
      <trkpt lat="45.81808" lon="1.20929">
        <ele>248</ele>
        <time>2020-09-19T11:08:39.750Z</time>
      </trkpt>
      <trkpt lat="45.81811" lon="1.20929">
        <ele>248</ele>
        <time>2020-09-19T11:08:40.750Z</time>
      </trkpt>
      <trkpt lat="45.81814" lon="1.20929">
        <ele>248</ele>
        <time>2020-09-19T11:08:41.750Z</time>
      </trkpt>
      <trkpt lat="45.81817" lon="1.20929">
        <ele>246</ele>
        <time>2020-09-19T11:08:42.750Z</time>
      </trkpt>
      <trkpt lat="45.81821" lon="1.20928">
        <ele>246</ele>
        <time>2020-09-19T11:08:43.750Z</time>
      </trkpt>
      <trkpt lat="45.81825" lon="1.20928">
        <ele>245</ele>
        <time>2020-09-19T11:08:44.750Z</time>
      </trkpt>
      <trkpt lat="45.81828" lon="1.20928">
        <ele>245</ele>
        <time>2020-09-19T11:08:45.750Z</time>
      </trkpt>
      <trkpt lat="45.81832" lon="1.20928">
        <ele>244</ele>
        <time>2020-09-19T11:08:46.750Z</time>
      </trkpt>
      <trkpt lat="45.81836" lon="1.20928">
        <ele>243</ele>
        <time>2020-09-19T11:08:47.750Z</time>
      </trkpt>
      <trkpt lat="45.81839" lon="1.20927">
        <ele>244</ele>
        <time>2020-09-19T11:08:48.750Z</time>
      </trkpt>
      <trkpt lat="45.81843" lon="1.20927">
        <ele>243</ele>
        <time>2020-09-19T11:08:49.750Z</time>
      </trkpt>
      <trkpt lat="45.81846" lon="1.20927">
        <ele>243</ele>
        <time>2020-09-19T11:08:50.750Z</time>
      </trkpt>
      <trkpt lat="45.8185" lon="1.20927">
        <ele>242</ele>
        <time>2020-09-19T11:08:51.750Z</time>
      </trkpt>
      <trkpt lat="45.81853" lon="1.20927">
        <ele>242</ele>
        <time>2020-09-19T11:08:52.750Z</time>
      </trkpt>
      <trkpt lat="45.81857" lon="1.20927">
        <ele>241</ele>
        <time>2020-09-19T11:08:53.750Z</time>
      </trkpt>
      <trkpt lat="45.8186" lon="1.20927">
        <ele>241</ele>
        <time>2020-09-19T11:08:54.750Z</time>
      </trkpt>
      <trkpt lat="45.81864" lon="1.20927">
        <ele>240</ele>
        <time>2020-09-19T11:08:55.750Z</time>
      </trkpt>
      <trkpt lat="45.81867" lon="1.20926">
        <ele>241</ele>
        <time>2020-09-19T11:08:56.750Z</time>
      </trkpt>
      <trkpt lat="45.81871" lon="1.20926">
        <ele>240</ele>
        <time>2020-09-19T11:08:57.750Z</time>
      </trkpt>
      <trkpt lat="45.81875" lon="1.20926">
        <ele>239</ele>
        <time>2020-09-19T11:08:58.750Z</time>
      </trkpt>
      <trkpt lat="45.81878" lon="1.20926">
        <ele>239</ele>
        <time>2020-09-19T11:08:59.750Z</time>
      </trkpt>
      <trkpt lat="45.81882" lon="1.20926">
        <ele>239</ele>
        <time>2020-09-19T11:09:00.750Z</time>
      </trkpt>
      <trkpt lat="45.81885" lon="1.20926">
        <ele>239</ele>
        <time>2020-09-19T11:09:01.750Z</time>
      </trkpt>
      <trkpt lat="45.81888" lon="1.20925">
        <ele>239</ele>
        <time>2020-09-19T11:09:02.750Z</time>
      </trkpt>
      <trkpt lat="45.81892" lon="1.20925">
        <ele>238</ele>
        <time>2020-09-19T11:09:03.750Z</time>
      </trkpt>
      <trkpt lat="45.81895" lon="1.20924">
        <ele>238</ele>
        <time>2020-09-19T11:09:04.750Z</time>
      </trkpt>
      <trkpt lat="45.81899" lon="1.20923">
        <ele>238</ele>
        <time>2020-09-19T11:09:05.750Z</time>
      </trkpt>
      <trkpt lat="45.81902" lon="1.20922">
        <ele>238</ele>
        <time>2020-09-19T11:09:06.750Z</time>
      </trkpt>
      <trkpt lat="45.81906" lon="1.20921">
        <ele>237</ele>
        <time>2020-09-19T11:09:07.750Z</time>
      </trkpt>
      <trkpt lat="45.81909" lon="1.20921">
        <ele>237</ele>
        <time>2020-09-19T11:09:08.750Z</time>
      </trkpt>
      <trkpt lat="45.81913" lon="1.2092">
        <ele>237</ele>
        <time>2020-09-19T11:09:09.750Z</time>
      </trkpt>
      <trkpt lat="45.81917" lon="1.2092">
        <ele>236</ele>
        <time>2020-09-19T11:09:10.750Z</time>
      </trkpt>
      <trkpt lat="45.81921" lon="1.2092">
        <ele>235</ele>
        <time>2020-09-19T11:09:11.750Z</time>
      </trkpt>
      <trkpt lat="45.81924" lon="1.2092">
        <ele>234</ele>
        <time>2020-09-19T11:09:12.750Z</time>
      </trkpt>
      <trkpt lat="45.81928" lon="1.2092">
        <ele>235</ele>
        <time>2020-09-19T11:09:13.750Z</time>
      </trkpt>
      <trkpt lat="45.81932" lon="1.20919">
        <ele>233</ele>
        <time>2020-09-19T11:09:14.750Z</time>
      </trkpt>
      <trkpt lat="45.81935" lon="1.20919">
        <ele>234</ele>
        <time>2020-09-19T11:09:15.750Z</time>
      </trkpt>
      <trkpt lat="45.81939" lon="1.20918">
        <ele>234</ele>
        <time>2020-09-19T11:09:16.750Z</time>
      </trkpt>
      <trkpt lat="45.81943" lon="1.20918">
        <ele>234</ele>
        <time>2020-09-19T11:09:17.750Z</time>
      </trkpt>
      <trkpt lat="45.81946" lon="1.20917">
        <ele>233</ele>
        <time>2020-09-19T11:09:18.750Z</time>
      </trkpt>
      <trkpt lat="45.8195" lon="1.20917">
        <ele>233</ele>
        <time>2020-09-19T11:09:19.750Z</time>
      </trkpt>
      <trkpt lat="45.81953" lon="1.20916">
        <ele>233</ele>
        <time>2020-09-19T11:09:20.750Z</time>
      </trkpt>
      <trkpt lat="45.81956" lon="1.20916">
        <ele>233</ele>
        <time>2020-09-19T11:09:21.750Z</time>
      </trkpt>
      <trkpt lat="45.81959" lon="1.20915">
        <ele>233</ele>
        <time>2020-09-19T11:09:22.750Z</time>
      </trkpt>
      <trkpt lat="45.81962" lon="1.20915">
        <ele>233</ele>
        <time>2020-09-19T11:09:23.750Z</time>
      </trkpt>
      <trkpt lat="45.81965" lon="1.20915">
        <ele>233</ele>
        <time>2020-09-19T11:09:24.750Z</time>
      </trkpt>
      <trkpt lat="45.81969" lon="1.20915">
        <ele>233</ele>
        <time>2020-09-19T11:09:25.750Z</time>
      </trkpt>
      <trkpt lat="45.81972" lon="1.20915">
        <ele>233</ele>
        <time>2020-09-19T11:09:26.750Z</time>
      </trkpt>
      <trkpt lat="45.81976" lon="1.20915">
        <ele>233</ele>
        <time>2020-09-19T11:09:27.750Z</time>
      </trkpt>
      <trkpt lat="45.8198" lon="1.20914">
        <ele>234</ele>
        <time>2020-09-19T11:09:28.750Z</time>
      </trkpt>
      <trkpt lat="45.81983" lon="1.20914">
        <ele>234</ele>
        <time>2020-09-19T11:09:29.750Z</time>
      </trkpt>
      <trkpt lat="45.81987" lon="1.20914">
        <ele>235</ele>
        <time>2020-09-19T11:09:30.750Z</time>
      </trkpt>
      <trkpt lat="45.8199" lon="1.20914">
        <ele>235</ele>
        <time>2020-09-19T11:09:31.750Z</time>
      </trkpt>
      <trkpt lat="45.81994" lon="1.20914">
        <ele>234</ele>
        <time>2020-09-19T11:09:32.750Z</time>
      </trkpt>
      <trkpt lat="45.81998" lon="1.20914">
        <ele>235</ele>
        <time>2020-09-19T11:09:33.750Z</time>
      </trkpt>
      <trkpt lat="45.82001" lon="1.20914">
        <ele>233</ele>
        <time>2020-09-19T11:09:34.750Z</time>
      </trkpt>
      <trkpt lat="45.82003" lon="1.20913">
        <ele>232</ele>
        <time>2020-09-19T11:09:35.750Z</time>
      </trkpt>
      <trkpt lat="45.82003" lon="1.20911">
        <ele>229</ele>
        <time>2020-09-19T11:09:36.750Z</time>
      </trkpt>
      <trkpt lat="45.82002" lon="1.20911">
        <ele>228</ele>
        <time>2020-09-19T11:09:37.750Z</time>
      </trkpt>
      <trkpt lat="45.82" lon="1.2091">
        <ele>228</ele>
        <time>2020-09-19T11:09:38.750Z</time>
      </trkpt>
      <trkpt lat="45.81997" lon="1.20911">
        <ele>228</ele>
        <time>2020-09-19T11:09:39.750Z</time>
      </trkpt>
      <trkpt lat="45.81995" lon="1.20912">
        <ele>228</ele>
        <time>2020-09-19T11:09:40.750Z</time>
      </trkpt>
      <trkpt lat="45.81993" lon="1.20912">
        <ele>228</ele>
        <time>2020-09-19T11:09:41.750Z</time>
      </trkpt>
      <trkpt lat="45.8199" lon="1.20913">
        <ele>228</ele>
        <time>2020-09-19T11:09:42.750Z</time>
      </trkpt>
      <trkpt lat="45.81988" lon="1.20913">
        <ele>228</ele>
        <time>2020-09-19T11:09:43.750Z</time>
      </trkpt>
      <trkpt lat="45.81985" lon="1.20913">
        <ele>228</ele>
        <time>2020-09-19T11:09:44.750Z</time>
      </trkpt>
      <trkpt lat="45.81982" lon="1.20913">
        <ele>228</ele>
        <time>2020-09-19T11:09:45.750Z</time>
      </trkpt>
      <trkpt lat="45.8198" lon="1.20914">
        <ele>228</ele>
        <time>2020-09-19T11:09:46.750Z</time>
      </trkpt>
      <trkpt lat="45.81977" lon="1.20914">
        <ele>228</ele>
        <time>2020-09-19T11:09:47.750Z</time>
      </trkpt>
      <trkpt lat="45.81974" lon="1.20914">
        <ele>228</ele>
        <time>2020-09-19T11:09:48.750Z</time>
      </trkpt>
      <trkpt lat="45.81972" lon="1.20915">
        <ele>227</ele>
        <time>2020-09-19T11:09:49.750Z</time>
      </trkpt>
      <trkpt lat="45.81969" lon="1.20915">
        <ele>227</ele>
        <time>2020-09-19T11:09:50.750Z</time>
      </trkpt>
      <trkpt lat="45.81966" lon="1.20915">
        <ele>227</ele>
        <time>2020-09-19T11:09:51.750Z</time>
      </trkpt>
      <trkpt lat="45.81963" lon="1.20916">
        <ele>227</ele>
        <time>2020-09-19T11:09:52.750Z</time>
      </trkpt>
      <trkpt lat="45.8196" lon="1.20916">
        <ele>227</ele>
        <time>2020-09-19T11:09:53.750Z</time>
      </trkpt>
      <trkpt lat="45.81957" lon="1.20917">
        <ele>227</ele>
        <time>2020-09-19T11:09:54.750Z</time>
      </trkpt>
      <trkpt lat="45.81954" lon="1.20918">
        <ele>228</ele>
        <time>2020-09-19T11:09:55.750Z</time>
      </trkpt>
      <trkpt lat="45.81952" lon="1.20918">
        <ele>229</ele>
        <time>2020-09-19T11:09:56.750Z</time>
      </trkpt>
      <trkpt lat="45.81949" lon="1.20919">
        <ele>229</ele>
        <time>2020-09-19T11:09:57.750Z</time>
      </trkpt>
      <trkpt lat="45.81946" lon="1.20919">
        <ele>229</ele>
        <time>2020-09-19T11:09:58.750Z</time>
      </trkpt>
      <trkpt lat="45.81942" lon="1.20919">
        <ele>230</ele>
        <time>2020-09-19T11:09:59.750Z</time>
      </trkpt>
      <trkpt lat="45.81939" lon="1.20919">
        <ele>231</ele>
        <time>2020-09-19T11:10:00.750Z</time>
      </trkpt>
      <trkpt lat="45.81936" lon="1.20919">
        <ele>230</ele>
        <time>2020-09-19T11:10:01.750Z</time>
      </trkpt>
      <trkpt lat="45.81933" lon="1.20919">
        <ele>230</ele>
        <time>2020-09-19T11:10:02.750Z</time>
      </trkpt>
      <trkpt lat="45.8193" lon="1.20918">
        <ele>231</ele>
        <time>2020-09-19T11:10:03.750Z</time>
      </trkpt>
      <trkpt lat="45.81927" lon="1.20919">
        <ele>231</ele>
        <time>2020-09-19T11:10:04.750Z</time>
      </trkpt>
      <trkpt lat="45.81924" lon="1.20919">
        <ele>230</ele>
        <time>2020-09-19T11:10:05.750Z</time>
      </trkpt>
      <trkpt lat="45.81921" lon="1.20919">
        <ele>231</ele>
        <time>2020-09-19T11:10:06.750Z</time>
      </trkpt>
      <trkpt lat="45.81918" lon="1.20919">
        <ele>231</ele>
        <time>2020-09-19T11:10:07.750Z</time>
      </trkpt>
      <trkpt lat="45.81915" lon="1.20919">
        <ele>231</ele>
        <time>2020-09-19T11:10:08.750Z</time>
      </trkpt>
      <trkpt lat="45.81913" lon="1.2092">
        <ele>231</ele>
        <time>2020-09-19T11:10:09.750Z</time>
      </trkpt>
      <trkpt lat="45.8191" lon="1.2092">
        <ele>231</ele>
        <time>2020-09-19T11:10:10.750Z</time>
      </trkpt>
      <trkpt lat="45.81907" lon="1.20921">
        <ele>232</ele>
        <time>2020-09-19T11:10:11.750Z</time>
      </trkpt>
      <trkpt lat="45.81904" lon="1.20921">
        <ele>232</ele>
        <time>2020-09-19T11:10:12.750Z</time>
      </trkpt>
      <trkpt lat="45.81901" lon="1.20921">
        <ele>233</ele>
        <time>2020-09-19T11:10:13.750Z</time>
      </trkpt>
      <trkpt lat="45.81898" lon="1.20921">
        <ele>235</ele>
        <time>2020-09-19T11:10:14.750Z</time>
      </trkpt>
      <trkpt lat="45.81895" lon="1.20921">
        <ele>237</ele>
        <time>2020-09-19T11:10:15.750Z</time>
      </trkpt>
      <trkpt lat="45.81891" lon="1.20921">
        <ele>237</ele>
        <time>2020-09-19T11:10:16.750Z</time>
      </trkpt>
      <trkpt lat="45.81888" lon="1.20921">
        <ele>238</ele>
        <time>2020-09-19T11:10:17.750Z</time>
      </trkpt>
      <trkpt lat="45.81885" lon="1.20922">
        <ele>238</ele>
        <time>2020-09-19T11:10:18.750Z</time>
      </trkpt>
      <trkpt lat="45.81882" lon="1.20923">
        <ele>239</ele>
        <time>2020-09-19T11:10:19.750Z</time>
      </trkpt>
      <trkpt lat="45.81879" lon="1.20923">
        <ele>240</ele>
        <time>2020-09-19T11:10:20.750Z</time>
      </trkpt>
      <trkpt lat="45.81876" lon="1.20924">
        <ele>240</ele>
        <time>2020-09-19T11:10:21.750Z</time>
      </trkpt>
      <trkpt lat="45.81873" lon="1.20925">
        <ele>240</ele>
        <time>2020-09-19T11:10:22.750Z</time>
      </trkpt>
      <trkpt lat="45.81871" lon="1.20925">
        <ele>240</ele>
        <time>2020-09-19T11:10:23.750Z</time>
      </trkpt>
      <trkpt lat="45.81868" lon="1.20926">
        <ele>241</ele>
        <time>2020-09-19T11:10:24.750Z</time>
      </trkpt>
      <trkpt lat="45.81865" lon="1.20926">
        <ele>241</ele>
        <time>2020-09-19T11:10:25.750Z</time>
      </trkpt>
      <trkpt lat="45.81862" lon="1.20927">
        <ele>242</ele>
        <time>2020-09-19T11:10:26.750Z</time>
      </trkpt>
      <trkpt lat="45.8186" lon="1.20927">
        <ele>242</ele>
        <time>2020-09-19T11:10:27.750Z</time>
      </trkpt>
      <trkpt lat="45.81857" lon="1.20928">
        <ele>243</ele>
        <time>2020-09-19T11:10:28.750Z</time>
      </trkpt>
      <trkpt lat="45.81854" lon="1.20928">
        <ele>244</ele>
        <time>2020-09-19T11:10:29.750Z</time>
      </trkpt>
      <trkpt lat="45.81851" lon="1.20929">
        <ele>245</ele>
        <time>2020-09-19T11:10:30.750Z</time>
      </trkpt>
      <trkpt lat="45.81847" lon="1.20929">
        <ele>245</ele>
        <time>2020-09-19T11:10:31.750Z</time>
      </trkpt>
      <trkpt lat="45.81844" lon="1.20929">
        <ele>246</ele>
        <time>2020-09-19T11:10:32.750Z</time>
      </trkpt>
      <trkpt lat="45.81841" lon="1.20929">
        <ele>246</ele>
        <time>2020-09-19T11:10:33.750Z</time>
      </trkpt>
      <trkpt lat="45.81838" lon="1.20929">
        <ele>245</ele>
        <time>2020-09-19T11:10:34.750Z</time>
      </trkpt>
      <trkpt lat="45.81836" lon="1.20929">
        <ele>245</ele>
        <time>2020-09-19T11:10:35.750Z</time>
      </trkpt>
      <trkpt lat="45.81833" lon="1.20929">
        <ele>246</ele>
        <time>2020-09-19T11:10:36.750Z</time>
      </trkpt>
      <trkpt lat="45.8183" lon="1.20929">
        <ele>245</ele>
        <time>2020-09-19T11:10:37.750Z</time>
      </trkpt>
      <trkpt lat="45.81827" lon="1.2093">
        <ele>246</ele>
        <time>2020-09-19T11:10:38.750Z</time>
      </trkpt>
      <trkpt lat="45.81824" lon="1.2093">
        <ele>246</ele>
        <time>2020-09-19T11:10:39.750Z</time>
      </trkpt>
      <trkpt lat="45.81821" lon="1.20931">
        <ele>247</ele>
        <time>2020-09-19T11:10:40.750Z</time>
      </trkpt>
      <trkpt lat="45.81818" lon="1.20931">
        <ele>248</ele>
        <time>2020-09-19T11:10:41.750Z</time>
      </trkpt>
      <trkpt lat="45.81815" lon="1.20931">
        <ele>248</ele>
        <time>2020-09-19T11:10:42.750Z</time>
      </trkpt>
      <trkpt lat="45.81812" lon="1.20932">
        <ele>249</ele>
        <time>2020-09-19T11:10:43.750Z</time>
      </trkpt>
      <trkpt lat="45.81809" lon="1.20932">
        <ele>250</ele>
        <time>2020-09-19T11:10:44.750Z</time>
      </trkpt>
      <trkpt lat="45.81806" lon="1.20931">
        <ele>251</ele>
        <time>2020-09-19T11:10:45.750Z</time>
      </trkpt>
      <trkpt lat="45.81804" lon="1.20931">
        <ele>252</ele>
        <time>2020-09-19T11:10:46.750Z</time>
      </trkpt>
      <trkpt lat="45.81801" lon="1.20931">
        <ele>253</ele>
        <time>2020-09-19T11:10:47.750Z</time>
      </trkpt>
      <trkpt lat="45.81798" lon="1.2093">
        <ele>253</ele>
        <time>2020-09-19T11:10:48.750Z</time>
      </trkpt>
      <trkpt lat="45.81795" lon="1.2093">
        <ele>253</ele>
        <time>2020-09-19T11:10:49.750Z</time>
      </trkpt>
      <trkpt lat="45.81791" lon="1.2093">
        <ele>254</ele>
        <time>2020-09-19T11:10:50.750Z</time>
      </trkpt>
      <trkpt lat="45.81788" lon="1.2093">
        <ele>255</ele>
        <time>2020-09-19T11:10:51.750Z</time>
      </trkpt>
      <trkpt lat="45.81784" lon="1.20931">
        <ele>256</ele>
        <time>2020-09-19T11:10:52.750Z</time>
      </trkpt>
      <trkpt lat="45.8178" lon="1.20931">
        <ele>256</ele>
        <time>2020-09-19T11:10:53.750Z</time>
      </trkpt>
      <trkpt lat="45.81777" lon="1.20931">
        <ele>256</ele>
        <time>2020-09-19T11:10:54.750Z</time>
      </trkpt>
      <trkpt lat="45.81774" lon="1.20931">
        <ele>256</ele>
        <time>2020-09-19T11:10:55.750Z</time>
      </trkpt>
      <trkpt lat="45.81771" lon="1.20931">
        <ele>256</ele>
        <time>2020-09-19T11:10:56.750Z</time>
      </trkpt>
      <trkpt lat="45.81768" lon="1.20932">
        <ele>257</ele>
        <time>2020-09-19T11:10:57.750Z</time>
      </trkpt>
      <trkpt lat="45.81765" lon="1.20932">
        <ele>256</ele>
        <time>2020-09-19T11:10:58.750Z</time>
      </trkpt>
      <trkpt lat="45.81762" lon="1.20933">
        <ele>257</ele>
        <time>2020-09-19T11:10:59.750Z</time>
      </trkpt>
      <trkpt lat="45.81759" lon="1.20934">
        <ele>257</ele>
        <time>2020-09-19T11:11:00.750Z</time>
      </trkpt>
      <trkpt lat="45.81756" lon="1.20934">
        <ele>258</ele>
        <time>2020-09-19T11:11:01.750Z</time>
      </trkpt>
      <trkpt lat="45.81753" lon="1.20934">
        <ele>258</ele>
        <time>2020-09-19T11:11:02.750Z</time>
      </trkpt>
      <trkpt lat="45.8175" lon="1.20934">
        <ele>258</ele>
        <time>2020-09-19T11:11:03.750Z</time>
      </trkpt>
      <trkpt lat="45.81747" lon="1.20935">
        <ele>259</ele>
        <time>2020-09-19T11:11:04.750Z</time>
      </trkpt>
      <trkpt lat="45.81744" lon="1.20935">
        <ele>260</ele>
        <time>2020-09-19T11:11:05.750Z</time>
      </trkpt>
      <trkpt lat="45.81741" lon="1.20936">
        <ele>261</ele>
        <time>2020-09-19T11:11:06.750Z</time>
      </trkpt>
      <trkpt lat="45.81739" lon="1.20937">
        <ele>261</ele>
        <time>2020-09-19T11:11:07.750Z</time>
      </trkpt>
      <trkpt lat="45.81736" lon="1.20937">
        <ele>261</ele>
        <time>2020-09-19T11:11:08.750Z</time>
      </trkpt>
      <trkpt lat="45.81734" lon="1.20937">
        <ele>261</ele>
        <time>2020-09-19T11:11:09.750Z</time>
      </trkpt>
      <trkpt lat="45.81732" lon="1.20937">
        <ele>261</ele>
        <time>2020-09-19T11:11:10.750Z</time>
      </trkpt>
      <trkpt lat="45.81729" lon="1.20937">
        <ele>260</ele>
        <time>2020-09-19T11:11:11.750Z</time>
      </trkpt>
      <trkpt lat="45.81726" lon="1.20937">
        <ele>259</ele>
        <time>2020-09-19T11:11:12.750Z</time>
      </trkpt>
      <trkpt lat="45.81722" lon="1.20938">
        <ele>260</ele>
        <time>2020-09-19T11:11:13.750Z</time>
      </trkpt>
      <trkpt lat="45.81719" lon="1.20938">
        <ele>260</ele>
        <time>2020-09-19T11:11:14.750Z</time>
      </trkpt>
      <trkpt lat="45.81716" lon="1.20938">
        <ele>260</ele>
        <time>2020-09-19T11:11:15.750Z</time>
      </trkpt>
      <trkpt lat="45.81713" lon="1.20938">
        <ele>260</ele>
        <time>2020-09-19T11:11:16.750Z</time>
      </trkpt>
      <trkpt lat="45.8171" lon="1.20938">
        <ele>259</ele>
        <time>2020-09-19T11:11:17.750Z</time>
      </trkpt>
      <trkpt lat="45.81708" lon="1.20938">
        <ele>259</ele>
        <time>2020-09-19T11:11:18.750Z</time>
      </trkpt>
      <trkpt lat="45.81705" lon="1.20937">
        <ele>259</ele>
        <time>2020-09-19T11:11:19.750Z</time>
      </trkpt>
      <trkpt lat="45.81702" lon="1.20937">
        <ele>259</ele>
        <time>2020-09-19T11:11:20.750Z</time>
      </trkpt>
      <trkpt lat="45.81699" lon="1.20937">
        <ele>258</ele>
        <time>2020-09-19T11:11:21.750Z</time>
      </trkpt>
      <trkpt lat="45.81696" lon="1.20938">
        <ele>258</ele>
        <time>2020-09-19T11:11:22.750Z</time>
      </trkpt>
      <trkpt lat="45.81692" lon="1.20938">
        <ele>258</ele>
        <time>2020-09-19T11:11:23.750Z</time>
      </trkpt>
      <trkpt lat="45.81689" lon="1.20938">
        <ele>258</ele>
        <time>2020-09-19T11:11:24.750Z</time>
      </trkpt>
      <trkpt lat="45.81686" lon="1.20939">
        <ele>258</ele>
        <time>2020-09-19T11:11:25.750Z</time>
      </trkpt>
      <trkpt lat="45.81683" lon="1.20939">
        <ele>259</ele>
        <time>2020-09-19T11:11:26.750Z</time>
      </trkpt>
      <trkpt lat="45.81679" lon="1.20939">
        <ele>258</ele>
        <time>2020-09-19T11:11:27.750Z</time>
      </trkpt>
      <trkpt lat="45.81676" lon="1.20939">
        <ele>259</ele>
        <time>2020-09-19T11:11:28.750Z</time>
      </trkpt>
      <trkpt lat="45.81673" lon="1.2094">
        <ele>259</ele>
        <time>2020-09-19T11:11:29.750Z</time>
      </trkpt>
      <trkpt lat="45.81669" lon="1.2094">
        <ele>259</ele>
        <time>2020-09-19T11:11:30.750Z</time>
      </trkpt>
      <trkpt lat="45.81666" lon="1.20941">
        <ele>258</ele>
        <time>2020-09-19T11:11:31.750Z</time>
      </trkpt>
      <trkpt lat="45.81663" lon="1.20942">
        <ele>258</ele>
        <time>2020-09-19T11:11:32.750Z</time>
      </trkpt>
      <trkpt lat="45.81661" lon="1.20943">
        <ele>258</ele>
        <time>2020-09-19T11:11:33.750Z</time>
      </trkpt>
      <trkpt lat="45.81658" lon="1.20945">
        <ele>259</ele>
        <time>2020-09-19T11:11:34.750Z</time>
      </trkpt>
      <trkpt lat="45.81656" lon="1.20946">
        <ele>259</ele>
        <time>2020-09-19T11:11:35.750Z</time>
      </trkpt>
      <trkpt lat="45.81653" lon="1.20948">
        <ele>259</ele>
        <time>2020-09-19T11:11:36.750Z</time>
      </trkpt>
      <trkpt lat="45.8165" lon="1.2095">
        <ele>260</ele>
        <time>2020-09-19T11:11:37.750Z</time>
      </trkpt>
      <trkpt lat="45.81648" lon="1.20952">
        <ele>261</ele>
        <time>2020-09-19T11:11:38.750Z</time>
      </trkpt>
      <trkpt lat="45.81646" lon="1.20955">
        <ele>262</ele>
        <time>2020-09-19T11:11:39.750Z</time>
      </trkpt>
      <trkpt lat="45.81644" lon="1.20957">
        <ele>262</ele>
        <time>2020-09-19T11:11:40.750Z</time>
      </trkpt>
      <trkpt lat="45.81641" lon="1.2096">
        <ele>262</ele>
        <time>2020-09-19T11:11:41.750Z</time>
      </trkpt>
      <trkpt lat="45.81639" lon="1.20963">
        <ele>262</ele>
        <time>2020-09-19T11:11:42.750Z</time>
      </trkpt>
      <trkpt lat="45.81638" lon="1.20967">
        <ele>262</ele>
        <time>2020-09-19T11:11:43.750Z</time>
      </trkpt>
      <trkpt lat="45.81636" lon="1.2097">
        <ele>263</ele>
        <time>2020-09-19T11:11:44.750Z</time>
      </trkpt>
      <trkpt lat="45.81634" lon="1.20973">
        <ele>263</ele>
        <time>2020-09-19T11:11:45.750Z</time>
      </trkpt>
      <trkpt lat="45.81633" lon="1.20977">
        <ele>263</ele>
        <time>2020-09-19T11:11:46.750Z</time>
      </trkpt>
      <trkpt lat="45.81631" lon="1.2098">
        <ele>263</ele>
        <time>2020-09-19T11:11:47.750Z</time>
      </trkpt>
      <trkpt lat="45.8163" lon="1.20983">
        <ele>263</ele>
        <time>2020-09-19T11:11:48.750Z</time>
      </trkpt>
      <trkpt lat="45.81629" lon="1.20987">
        <ele>263</ele>
        <time>2020-09-19T11:11:49.750Z</time>
      </trkpt>
      <trkpt lat="45.81628" lon="1.2099">
        <ele>262</ele>
        <time>2020-09-19T11:11:50.750Z</time>
      </trkpt>
      <trkpt lat="45.81627" lon="1.20994">
        <ele>262</ele>
        <time>2020-09-19T11:11:51.750Z</time>
      </trkpt>
      <trkpt lat="45.81625" lon="1.20997">
        <ele>263</ele>
        <time>2020-09-19T11:11:52.750Z</time>
      </trkpt>
      <trkpt lat="45.81624" lon="1.21">
        <ele>262</ele>
        <time>2020-09-19T11:11:53.750Z</time>
      </trkpt>
      <trkpt lat="45.81623" lon="1.21004">
        <ele>263</ele>
        <time>2020-09-19T11:11:54.750Z</time>
      </trkpt>
      <trkpt lat="45.81622" lon="1.21007">
        <ele>263</ele>
        <time>2020-09-19T11:11:55.750Z</time>
      </trkpt>
      <trkpt lat="45.81621" lon="1.2101">
        <ele>263</ele>
        <time>2020-09-19T11:11:56.750Z</time>
      </trkpt>
      <trkpt lat="45.8162" lon="1.21013">
        <ele>263</ele>
        <time>2020-09-19T11:11:57.750Z</time>
      </trkpt>
      <trkpt lat="45.81619" lon="1.21017">
        <ele>262</ele>
        <time>2020-09-19T11:11:58.750Z</time>
      </trkpt>
      <trkpt lat="45.81618" lon="1.21019">
        <ele>262</ele>
        <time>2020-09-19T11:11:59.750Z</time>
      </trkpt>
      <trkpt lat="45.81617" lon="1.2102">
        <ele>263</ele>
        <time>2020-09-19T11:12:00.750Z</time>
      </trkpt>
      <trkpt lat="45.81616" lon="1.2102">
        <ele>263</ele>
        <time>2020-09-19T11:12:01.750Z</time>
      </trkpt>
      <trkpt lat="45.81614" lon="1.21019">
        <ele>264</ele>
        <time>2020-09-19T11:12:02.750Z</time>
      </trkpt>
      <trkpt lat="45.81612" lon="1.21019">
        <ele>264</ele>
        <time>2020-09-19T11:12:03.750Z</time>
      </trkpt>
      <trkpt lat="45.81609" lon="1.2102">
        <ele>264</ele>
        <time>2020-09-19T11:12:04.750Z</time>
      </trkpt>
      <trkpt lat="45.81607" lon="1.21022">
        <ele>263</ele>
        <time>2020-09-19T11:12:05.750Z</time>
      </trkpt>
      <trkpt lat="45.81606" lon="1.21025">
        <ele>264</ele>
        <time>2020-09-19T11:12:06.750Z</time>
      </trkpt>
      <trkpt lat="45.81604" lon="1.21027">
        <ele>265</ele>
        <time>2020-09-19T11:12:07.750Z</time>
      </trkpt>
      <trkpt lat="45.81602" lon="1.21031">
        <ele>265</ele>
        <time>2020-09-19T11:12:08.750Z</time>
      </trkpt>
      <trkpt lat="45.81601" lon="1.21034">
        <ele>264</ele>
        <time>2020-09-19T11:12:09.750Z</time>
      </trkpt>
      <trkpt lat="45.81599" lon="1.21038">
        <ele>264</ele>
        <time>2020-09-19T11:12:10.750Z</time>
      </trkpt>
      <trkpt lat="45.81598" lon="1.21042">
        <ele>265</ele>
        <time>2020-09-19T11:12:11.750Z</time>
      </trkpt>
      <trkpt lat="45.81597" lon="1.21045">
        <ele>265</ele>
        <time>2020-09-19T11:12:12.750Z</time>
      </trkpt>
      <trkpt lat="45.81596" lon="1.21048">
        <ele>264</ele>
        <time>2020-09-19T11:12:13.750Z</time>
      </trkpt>
      <trkpt lat="45.81595" lon="1.21052">
        <ele>264</ele>
        <time>2020-09-19T11:12:14.750Z</time>
      </trkpt>
      <trkpt lat="45.81594" lon="1.21055">
        <ele>264</ele>
        <time>2020-09-19T11:12:15.750Z</time>
      </trkpt>
      <trkpt lat="45.81594" lon="1.21058">
        <ele>263</ele>
        <time>2020-09-19T11:12:16.750Z</time>
      </trkpt>
      <trkpt lat="45.81593" lon="1.21061">
        <ele>262</ele>
        <time>2020-09-19T11:12:17.750Z</time>
      </trkpt>
      <trkpt lat="45.81593" lon="1.21064">
        <ele>262</ele>
        <time>2020-09-19T11:12:18.750Z</time>
      </trkpt>
      <trkpt lat="45.81593" lon="1.21067">
        <ele>263</ele>
        <time>2020-09-19T11:12:19.750Z</time>
      </trkpt>
      <trkpt lat="45.81593" lon="1.2107">
        <ele>262</ele>
        <time>2020-09-19T11:12:20.750Z</time>
      </trkpt>
      <trkpt lat="45.81593" lon="1.21073">
        <ele>261</ele>
        <time>2020-09-19T11:12:21.750Z</time>
      </trkpt>
      <trkpt lat="45.81592" lon="1.21076">
        <ele>262</ele>
        <time>2020-09-19T11:12:22.750Z</time>
      </trkpt>
      <trkpt lat="45.81592" lon="1.21079">
        <ele>262</ele>
        <time>2020-09-19T11:12:23.750Z</time>
      </trkpt>
      <trkpt lat="45.81592" lon="1.21082">
        <ele>261</ele>
        <time>2020-09-19T11:12:24.750Z</time>
      </trkpt>
      <trkpt lat="45.81593" lon="1.21085">
        <ele>261</ele>
        <time>2020-09-19T11:12:25.750Z</time>
      </trkpt>
      <trkpt lat="45.81593" lon="1.21089">
        <ele>262</ele>
        <time>2020-09-19T11:12:26.750Z</time>
      </trkpt>
      <trkpt lat="45.81594" lon="1.21093">
        <ele>263</ele>
        <time>2020-09-19T11:12:27.750Z</time>
      </trkpt>
      <trkpt lat="45.81594" lon="1.21097">
        <ele>263</ele>
        <time>2020-09-19T11:12:28.750Z</time>
      </trkpt>
      <trkpt lat="45.81595" lon="1.21101">
        <ele>263</ele>
        <time>2020-09-19T11:12:29.750Z</time>
      </trkpt>
      <trkpt lat="45.81595" lon="1.21105">
        <ele>264</ele>
        <time>2020-09-19T11:12:30.750Z</time>
      </trkpt>
      <trkpt lat="45.81595" lon="1.2111">
        <ele>265</ele>
        <time>2020-09-19T11:12:31.750Z</time>
      </trkpt>
      <trkpt lat="45.81595" lon="1.21114">
        <ele>265</ele>
        <time>2020-09-19T11:12:32.750Z</time>
      </trkpt>
      <trkpt lat="45.81595" lon="1.21118">
        <ele>265</ele>
        <time>2020-09-19T11:12:33.750Z</time>
      </trkpt>
      <trkpt lat="45.81596" lon="1.21122">
        <ele>267</ele>
        <time>2020-09-19T11:12:34.750Z</time>
      </trkpt>
      <trkpt lat="45.81596" lon="1.21126">
        <ele>268</ele>
        <time>2020-09-19T11:12:35.750Z</time>
      </trkpt>
      <trkpt lat="45.81597" lon="1.21131">
        <ele>268</ele>
        <time>2020-09-19T11:12:36.750Z</time>
      </trkpt>
      <trkpt lat="45.81598" lon="1.21136">
        <ele>269</ele>
        <time>2020-09-19T11:12:37.750Z</time>
      </trkpt>
      <trkpt lat="45.81598" lon="1.21141">
        <ele>270</ele>
        <time>2020-09-19T11:12:38.750Z</time>
      </trkpt>
      <trkpt lat="45.81599" lon="1.21146">
        <ele>270</ele>
        <time>2020-09-19T11:12:39.750Z</time>
      </trkpt>
      <trkpt lat="45.816" lon="1.21151">
        <ele>270</ele>
        <time>2020-09-19T11:12:40.750Z</time>
      </trkpt>
      <trkpt lat="45.816" lon="1.21155">
        <ele>269</ele>
        <time>2020-09-19T11:12:41.750Z</time>
      </trkpt>
      <trkpt lat="45.81601" lon="1.2116">
        <ele>270</ele>
        <time>2020-09-19T11:12:42.750Z</time>
      </trkpt>
      <trkpt lat="45.81602" lon="1.21165">
        <ele>271</ele>
        <time>2020-09-19T11:12:43.750Z</time>
      </trkpt>
      <trkpt lat="45.81602" lon="1.2117">
        <ele>271</ele>
        <time>2020-09-19T11:12:44.750Z</time>
      </trkpt>
      <trkpt lat="45.81603" lon="1.21175">
        <ele>271</ele>
        <time>2020-09-19T11:12:45.750Z</time>
      </trkpt>
      <trkpt lat="45.81603" lon="1.21179">
        <ele>271</ele>
        <time>2020-09-19T11:12:46.750Z</time>
      </trkpt>
      <trkpt lat="45.81604" lon="1.21183">
        <ele>271</ele>
        <time>2020-09-19T11:12:47.750Z</time>
      </trkpt>
      <trkpt lat="45.81605" lon="1.21187">
        <ele>271</ele>
        <time>2020-09-19T11:12:48.750Z</time>
      </trkpt>
      <trkpt lat="45.81605" lon="1.21191">
        <ele>270</ele>
        <time>2020-09-19T11:12:49.750Z</time>
      </trkpt>
      <trkpt lat="45.81606" lon="1.21195">
        <ele>271</ele>
        <time>2020-09-19T11:12:50.750Z</time>
      </trkpt>
      <trkpt lat="45.81607" lon="1.212">
        <ele>271</ele>
        <time>2020-09-19T11:12:51.750Z</time>
      </trkpt>
      <trkpt lat="45.81607" lon="1.21204">
        <ele>272</ele>
        <time>2020-09-19T11:12:52.750Z</time>
      </trkpt>
      <trkpt lat="45.81608" lon="1.21208">
        <ele>272</ele>
        <time>2020-09-19T11:12:53.750Z</time>
      </trkpt>
      <trkpt lat="45.81608" lon="1.21212">
        <ele>272</ele>
        <time>2020-09-19T11:12:54.750Z</time>
      </trkpt>
      <trkpt lat="45.81609" lon="1.21217">
        <ele>272</ele>
        <time>2020-09-19T11:12:55.750Z</time>
      </trkpt>
      <trkpt lat="45.8161" lon="1.21221">
        <ele>273</ele>
        <time>2020-09-19T11:12:56.750Z</time>
      </trkpt>
      <trkpt lat="45.81611" lon="1.21225">
        <ele>273</ele>
        <time>2020-09-19T11:12:57.750Z</time>
      </trkpt>
      <trkpt lat="45.81611" lon="1.2123">
        <ele>274</ele>
        <time>2020-09-19T11:12:58.750Z</time>
      </trkpt>
      <trkpt lat="45.81612" lon="1.21234">
        <ele>275</ele>
        <time>2020-09-19T11:12:59.750Z</time>
      </trkpt>
      <trkpt lat="45.81612" lon="1.21238">
        <ele>275</ele>
        <time>2020-09-19T11:13:00.750Z</time>
      </trkpt>
      <trkpt lat="45.81613" lon="1.21243">
        <ele>275</ele>
        <time>2020-09-19T11:13:01.750Z</time>
      </trkpt>
      <trkpt lat="45.81613" lon="1.21247">
        <ele>276</ele>
        <time>2020-09-19T11:13:02.750Z</time>
      </trkpt>
      <trkpt lat="45.81613" lon="1.21252">
        <ele>277</ele>
        <time>2020-09-19T11:13:03.750Z</time>
      </trkpt>
      <trkpt lat="45.81614" lon="1.21256">
        <ele>277</ele>
        <time>2020-09-19T11:13:04.750Z</time>
      </trkpt>
      <trkpt lat="45.81614" lon="1.2126">
        <ele>277</ele>
        <time>2020-09-19T11:13:05.750Z</time>
      </trkpt>
      <trkpt lat="45.81615" lon="1.21265">
        <ele>275</ele>
        <time>2020-09-19T11:13:06.750Z</time>
      </trkpt>
      <trkpt lat="45.81616" lon="1.21269">
        <ele>275</ele>
        <time>2020-09-19T11:13:07.750Z</time>
      </trkpt>
      <trkpt lat="45.81616" lon="1.21274">
        <ele>275</ele>
        <time>2020-09-19T11:13:08.750Z</time>
      </trkpt>
      <trkpt lat="45.81616" lon="1.21278">
        <ele>275</ele>
        <time>2020-09-19T11:13:09.750Z</time>
      </trkpt>
      <trkpt lat="45.81617" lon="1.21282">
        <ele>275</ele>
        <time>2020-09-19T11:13:10.750Z</time>
      </trkpt>
      <trkpt lat="45.81617" lon="1.21287">
        <ele>275</ele>
        <time>2020-09-19T11:13:11.750Z</time>
      </trkpt>
      <trkpt lat="45.81617" lon="1.21291">
        <ele>275</ele>
        <time>2020-09-19T11:13:12.750Z</time>
      </trkpt>
      <trkpt lat="45.81618" lon="1.21295">
        <ele>275</ele>
        <time>2020-09-19T11:13:13.750Z</time>
      </trkpt>
      <trkpt lat="45.81618" lon="1.21299">
        <ele>275</ele>
        <time>2020-09-19T11:13:14.750Z</time>
      </trkpt>
      <trkpt lat="45.81619" lon="1.21304">
        <ele>275</ele>
        <time>2020-09-19T11:13:15.750Z</time>
      </trkpt>
      <trkpt lat="45.81619" lon="1.21308">
        <ele>275</ele>
        <time>2020-09-19T11:13:16.750Z</time>
      </trkpt>
      <trkpt lat="45.81619" lon="1.21312">
        <ele>275</ele>
        <time>2020-09-19T11:13:17.750Z</time>
      </trkpt>
      <trkpt lat="45.8162" lon="1.21317">
        <ele>276</ele>
        <time>2020-09-19T11:13:18.750Z</time>
      </trkpt>
      <trkpt lat="45.8162" lon="1.21321">
        <ele>275</ele>
        <time>2020-09-19T11:13:19.750Z</time>
      </trkpt>
      <trkpt lat="45.8162" lon="1.21325">
        <ele>275</ele>
        <time>2020-09-19T11:13:20.750Z</time>
      </trkpt>
      <trkpt lat="45.8162" lon="1.2133">
        <ele>276</ele>
        <time>2020-09-19T11:13:21.750Z</time>
      </trkpt>
      <trkpt lat="45.81621" lon="1.21334">
        <ele>276</ele>
        <time>2020-09-19T11:13:22.750Z</time>
      </trkpt>
      <trkpt lat="45.81622" lon="1.21338">
        <ele>277</ele>
        <time>2020-09-19T11:13:23.750Z</time>
      </trkpt>
      <trkpt lat="45.81622" lon="1.21342">
        <ele>276</ele>
        <time>2020-09-19T11:13:24.750Z</time>
      </trkpt>
      <trkpt lat="45.81622" lon="1.21346">
        <ele>277</ele>
        <time>2020-09-19T11:13:25.750Z</time>
      </trkpt>
      <trkpt lat="45.81623" lon="1.2135">
        <ele>277</ele>
        <time>2020-09-19T11:13:26.750Z</time>
      </trkpt>
      <trkpt lat="45.81623" lon="1.21354">
        <ele>277</ele>
        <time>2020-09-19T11:13:27.750Z</time>
      </trkpt>
      <trkpt lat="45.81624" lon="1.21358">
        <ele>277</ele>
        <time>2020-09-19T11:13:28.750Z</time>
      </trkpt>
      <trkpt lat="45.81624" lon="1.21362">
        <ele>278</ele>
        <time>2020-09-19T11:13:29.750Z</time>
      </trkpt>
      <trkpt lat="45.81625" lon="1.21365">
        <ele>278</ele>
        <time>2020-09-19T11:13:30.750Z</time>
      </trkpt>
      <trkpt lat="45.81625" lon="1.2137">
        <ele>277</ele>
        <time>2020-09-19T11:13:31.750Z</time>
      </trkpt>
      <trkpt lat="45.81626" lon="1.21374">
        <ele>278</ele>
        <time>2020-09-19T11:13:32.750Z</time>
      </trkpt>
      <trkpt lat="45.81626" lon="1.21378">
        <ele>278</ele>
        <time>2020-09-19T11:13:33.750Z</time>
      </trkpt>
      <trkpt lat="45.81627" lon="1.21382">
        <ele>278</ele>
        <time>2020-09-19T11:13:34.750Z</time>
      </trkpt>
      <trkpt lat="45.81627" lon="1.21386">
        <ele>278</ele>
        <time>2020-09-19T11:13:35.750Z</time>
      </trkpt>
      <trkpt lat="45.81627" lon="1.21391">
        <ele>278</ele>
        <time>2020-09-19T11:13:36.750Z</time>
      </trkpt>
      <trkpt lat="45.81628" lon="1.21395">
        <ele>278</ele>
        <time>2020-09-19T11:13:37.750Z</time>
      </trkpt>
      <trkpt lat="45.81628" lon="1.21399">
        <ele>278</ele>
        <time>2020-09-19T11:13:38.750Z</time>
      </trkpt>
      <trkpt lat="45.81629" lon="1.21403">
        <ele>277</ele>
        <time>2020-09-19T11:13:39.750Z</time>
      </trkpt>
      <trkpt lat="45.81629" lon="1.21407">
        <ele>278</ele>
        <time>2020-09-19T11:13:40.750Z</time>
      </trkpt>
      <trkpt lat="45.81628" lon="1.21412">
        <ele>278</ele>
        <time>2020-09-19T11:13:41.750Z</time>
      </trkpt>
      <trkpt lat="45.81627" lon="1.21417">
        <ele>278</ele>
        <time>2020-09-19T11:13:42.750Z</time>
      </trkpt>
      <trkpt lat="45.81627" lon="1.21421">
        <ele>277</ele>
        <time>2020-09-19T11:13:43.750Z</time>
      </trkpt>
      <trkpt lat="45.81627" lon="1.21425">
        <ele>278</ele>
        <time>2020-09-19T11:13:44.750Z</time>
      </trkpt>
      <trkpt lat="45.81627" lon="1.21429">
        <ele>277</ele>
        <time>2020-09-19T11:13:45.750Z</time>
      </trkpt>
      <trkpt lat="45.81626" lon="1.21433">
        <ele>277</ele>
        <time>2020-09-19T11:13:46.750Z</time>
      </trkpt>
      <trkpt lat="45.81625" lon="1.21437">
        <ele>278</ele>
        <time>2020-09-19T11:13:47.750Z</time>
      </trkpt>
      <trkpt lat="45.81624" lon="1.21442">
        <ele>278</ele>
        <time>2020-09-19T11:13:48.750Z</time>
      </trkpt>
      <trkpt lat="45.81623" lon="1.21446">
        <ele>279</ele>
        <time>2020-09-19T11:13:49.750Z</time>
      </trkpt>
      <trkpt lat="45.81622" lon="1.2145">
        <ele>279</ele>
        <time>2020-09-19T11:13:50.750Z</time>
      </trkpt>
      <trkpt lat="45.81622" lon="1.21454">
        <ele>281</ele>
        <time>2020-09-19T11:13:51.750Z</time>
      </trkpt>
      <trkpt lat="45.81621" lon="1.21458">
        <ele>281</ele>
        <time>2020-09-19T11:13:52.750Z</time>
      </trkpt>
      <trkpt lat="45.8162" lon="1.21462">
        <ele>281</ele>
        <time>2020-09-19T11:13:53.750Z</time>
      </trkpt>
      <trkpt lat="45.81618" lon="1.21466">
        <ele>282</ele>
        <time>2020-09-19T11:13:54.750Z</time>
      </trkpt>
      <trkpt lat="45.81617" lon="1.2147">
        <ele>282</ele>
        <time>2020-09-19T11:13:55.750Z</time>
      </trkpt>
      <trkpt lat="45.81616" lon="1.21473">
        <ele>282</ele>
        <time>2020-09-19T11:13:56.750Z</time>
      </trkpt>
      <trkpt lat="45.81615" lon="1.21477">
        <ele>283</ele>
        <time>2020-09-19T11:13:57.750Z</time>
      </trkpt>
      <trkpt lat="45.81613" lon="1.21481">
        <ele>283</ele>
        <time>2020-09-19T11:13:58.750Z</time>
      </trkpt>
      <trkpt lat="45.81611" lon="1.21484">
        <ele>285</ele>
        <time>2020-09-19T11:13:59.750Z</time>
      </trkpt>
      <trkpt lat="45.8161" lon="1.21487">
        <ele>285</ele>
        <time>2020-09-19T11:14:00.750Z</time>
      </trkpt>
      <trkpt lat="45.81607" lon="1.21491">
        <ele>286</ele>
        <time>2020-09-19T11:14:01.750Z</time>
      </trkpt>
      <trkpt lat="45.81605" lon="1.21493">
        <ele>287</ele>
        <time>2020-09-19T11:14:02.750Z</time>
      </trkpt>
      <trkpt lat="45.81603" lon="1.21495">
        <ele>288</ele>
        <time>2020-09-19T11:14:03.750Z</time>
      </trkpt>
      <trkpt lat="45.816" lon="1.21496">
        <ele>288</ele>
        <time>2020-09-19T11:14:04.750Z</time>
      </trkpt>
      <trkpt lat="45.81596" lon="1.21497">
        <ele>288</ele>
        <time>2020-09-19T11:14:05.750Z</time>
      </trkpt>
      <trkpt lat="45.81593" lon="1.21497">
        <ele>288</ele>
        <time>2020-09-19T11:14:06.750Z</time>
      </trkpt>
      <trkpt lat="45.81589" lon="1.21497">
        <ele>288</ele>
        <time>2020-09-19T11:14:07.750Z</time>
      </trkpt>
      <trkpt lat="45.81586" lon="1.21497">
        <ele>288</ele>
        <time>2020-09-19T11:14:08.750Z</time>
      </trkpt>
      <trkpt lat="45.81583" lon="1.21496">
        <ele>289</ele>
        <time>2020-09-19T11:14:09.750Z</time>
      </trkpt>
      <trkpt lat="45.8158" lon="1.21496">
        <ele>289</ele>
        <time>2020-09-19T11:14:10.750Z</time>
      </trkpt>
      <trkpt lat="45.81577" lon="1.21496">
        <ele>290</ele>
        <time>2020-09-19T11:14:11.750Z</time>
      </trkpt>
      <trkpt lat="45.81574" lon="1.21495">
        <ele>289</ele>
        <time>2020-09-19T11:14:12.750Z</time>
      </trkpt>
      <trkpt lat="45.81571" lon="1.21494">
        <ele>289</ele>
        <time>2020-09-19T11:14:13.750Z</time>
      </trkpt>
      <trkpt lat="45.81568" lon="1.21493">
        <ele>290</ele>
        <time>2020-09-19T11:14:14.750Z</time>
      </trkpt>
      <trkpt lat="45.81565" lon="1.21493">
        <ele>290</ele>
        <time>2020-09-19T11:14:15.750Z</time>
      </trkpt>
      <trkpt lat="45.81562" lon="1.21492">
        <ele>289</ele>
        <time>2020-09-19T11:14:16.750Z</time>
      </trkpt>
      <trkpt lat="45.81559" lon="1.21491">
        <ele>288</ele>
        <time>2020-09-19T11:14:17.750Z</time>
      </trkpt>
      <trkpt lat="45.81556" lon="1.2149">
        <ele>289</ele>
        <time>2020-09-19T11:14:18.750Z</time>
      </trkpt>
      <trkpt lat="45.81553" lon="1.21489">
        <ele>289</ele>
        <time>2020-09-19T11:14:19.750Z</time>
      </trkpt>
      <trkpt lat="45.81551" lon="1.21488">
        <ele>289</ele>
        <time>2020-09-19T11:14:20.750Z</time>
      </trkpt>
      <trkpt lat="45.81548" lon="1.21487">
        <ele>289</ele>
        <time>2020-09-19T11:14:21.750Z</time>
      </trkpt>
      <trkpt lat="45.81545" lon="1.21486">
        <ele>289</ele>
        <time>2020-09-19T11:14:22.750Z</time>
      </trkpt>
      <trkpt lat="45.81542" lon="1.21485">
        <ele>290</ele>
        <time>2020-09-19T11:14:23.750Z</time>
      </trkpt>
      <trkpt lat="45.8154" lon="1.21484">
        <ele>291</ele>
        <time>2020-09-19T11:14:24.750Z</time>
      </trkpt>
      <trkpt lat="45.81537" lon="1.21482">
        <ele>291</ele>
        <time>2020-09-19T11:14:25.750Z</time>
      </trkpt>
      <trkpt lat="45.81535" lon="1.21481">
        <ele>291</ele>
        <time>2020-09-19T11:14:26.750Z</time>
      </trkpt>
      <trkpt lat="45.81532" lon="1.21479">
        <ele>292</ele>
        <time>2020-09-19T11:14:27.750Z</time>
      </trkpt>
      <trkpt lat="45.81529" lon="1.21478">
        <ele>291</ele>
        <time>2020-09-19T11:14:28.750Z</time>
      </trkpt>
      <trkpt lat="45.81527" lon="1.21476">
        <ele>291</ele>
        <time>2020-09-19T11:14:29.750Z</time>
      </trkpt>
      <trkpt lat="45.81524" lon="1.21475">
        <ele>291</ele>
        <time>2020-09-19T11:14:30.750Z</time>
      </trkpt>
      <trkpt lat="45.81522" lon="1.21473">
        <ele>291</ele>
        <time>2020-09-19T11:14:31.750Z</time>
      </trkpt>
      <trkpt lat="45.81519" lon="1.21472">
        <ele>292</ele>
        <time>2020-09-19T11:14:32.750Z</time>
      </trkpt>
      <trkpt lat="45.81517" lon="1.21471">
        <ele>292</ele>
        <time>2020-09-19T11:14:33.750Z</time>
      </trkpt>
      <trkpt lat="45.81514" lon="1.21469">
        <ele>292</ele>
        <time>2020-09-19T11:14:34.750Z</time>
      </trkpt>
      <trkpt lat="45.81511" lon="1.21468">
        <ele>292</ele>
        <time>2020-09-19T11:14:35.750Z</time>
      </trkpt>
      <trkpt lat="45.81509" lon="1.21467">
        <ele>292</ele>
        <time>2020-09-19T11:14:36.750Z</time>
      </trkpt>
      <trkpt lat="45.81506" lon="1.21466">
        <ele>292</ele>
        <time>2020-09-19T11:14:37.750Z</time>
      </trkpt>
      <trkpt lat="45.81504" lon="1.21465">
        <ele>292</ele>
        <time>2020-09-19T11:14:38.750Z</time>
      </trkpt>
      <trkpt lat="45.81501" lon="1.21464">
        <ele>292</ele>
        <time>2020-09-19T11:14:39.750Z</time>
      </trkpt>
      <trkpt lat="45.81498" lon="1.21462">
        <ele>293</ele>
        <time>2020-09-19T11:14:40.750Z</time>
      </trkpt>
      <trkpt lat="45.81496" lon="1.21461">
        <ele>293</ele>
        <time>2020-09-19T11:14:41.750Z</time>
      </trkpt>
      <trkpt lat="45.81493" lon="1.21459">
        <ele>293</ele>
        <time>2020-09-19T11:14:42.750Z</time>
      </trkpt>
      <trkpt lat="45.81491" lon="1.21457">
        <ele>293</ele>
        <time>2020-09-19T11:14:43.750Z</time>
      </trkpt>
      <trkpt lat="45.81488" lon="1.21456">
        <ele>294</ele>
        <time>2020-09-19T11:14:44.750Z</time>
      </trkpt>
      <trkpt lat="45.81485" lon="1.21454">
        <ele>294</ele>
        <time>2020-09-19T11:14:45.750Z</time>
      </trkpt>
      <trkpt lat="45.81483" lon="1.21453">
        <ele>293</ele>
        <time>2020-09-19T11:14:46.750Z</time>
      </trkpt>
      <trkpt lat="45.8148" lon="1.21451">
        <ele>292</ele>
        <time>2020-09-19T11:14:47.750Z</time>
      </trkpt>
      <trkpt lat="45.81477" lon="1.2145">
        <ele>294</ele>
        <time>2020-09-19T11:14:48.750Z</time>
      </trkpt>
      <trkpt lat="45.81474" lon="1.21449">
        <ele>294</ele>
        <time>2020-09-19T11:14:49.750Z</time>
      </trkpt>
      <trkpt lat="45.81472" lon="1.21448">
        <ele>295</ele>
        <time>2020-09-19T11:14:50.750Z</time>
      </trkpt>
      <trkpt lat="45.81469" lon="1.21447">
        <ele>296</ele>
        <time>2020-09-19T11:14:51.750Z</time>
      </trkpt>
      <trkpt lat="45.81466" lon="1.21446">
        <ele>296</ele>
        <time>2020-09-19T11:14:52.750Z</time>
      </trkpt>
      <trkpt lat="45.81464" lon="1.21444">
        <ele>297</ele>
        <time>2020-09-19T11:14:53.750Z</time>
      </trkpt>
      <trkpt lat="45.81461" lon="1.21443">
        <ele>298</ele>
        <time>2020-09-19T11:14:54.750Z</time>
      </trkpt>
      <trkpt lat="45.81458" lon="1.21442">
        <ele>299</ele>
        <time>2020-09-19T11:14:55.750Z</time>
      </trkpt>
      <trkpt lat="45.81455" lon="1.21441">
        <ele>298</ele>
        <time>2020-09-19T11:14:56.750Z</time>
      </trkpt>
      <trkpt lat="45.81452" lon="1.2144">
        <ele>297</ele>
        <time>2020-09-19T11:14:57.750Z</time>
      </trkpt>
      <trkpt lat="45.81449" lon="1.21439">
        <ele>297</ele>
        <time>2020-09-19T11:14:58.750Z</time>
      </trkpt>
      <trkpt lat="45.81445" lon="1.21438">
        <ele>297</ele>
        <time>2020-09-19T11:14:59.750Z</time>
      </trkpt>
      <trkpt lat="45.81442" lon="1.21437">
        <ele>297</ele>
        <time>2020-09-19T11:15:00.750Z</time>
      </trkpt>
      <trkpt lat="45.81439" lon="1.21435">
        <ele>296</ele>
        <time>2020-09-19T11:15:01.750Z</time>
      </trkpt>
      <trkpt lat="45.81437" lon="1.21434">
        <ele>296</ele>
        <time>2020-09-19T11:15:02.750Z</time>
      </trkpt>
      <trkpt lat="45.81433" lon="1.21433">
        <ele>297</ele>
        <time>2020-09-19T11:15:03.750Z</time>
      </trkpt>
      <trkpt lat="45.8143" lon="1.21432">
        <ele>298</ele>
        <time>2020-09-19T11:15:04.750Z</time>
      </trkpt>
      <trkpt lat="45.81427" lon="1.21431">
        <ele>298</ele>
        <time>2020-09-19T11:15:05.750Z</time>
      </trkpt>
      <trkpt lat="45.81424" lon="1.21429">
        <ele>298</ele>
        <time>2020-09-19T11:15:06.750Z</time>
      </trkpt>
      <trkpt lat="45.81421" lon="1.21428">
        <ele>299</ele>
        <time>2020-09-19T11:15:07.750Z</time>
      </trkpt>
      <trkpt lat="45.81418" lon="1.21427">
        <ele>300</ele>
        <time>2020-09-19T11:15:08.750Z</time>
      </trkpt>
      <trkpt lat="45.81415" lon="1.21426">
        <ele>300</ele>
        <time>2020-09-19T11:15:09.750Z</time>
      </trkpt>
      <trkpt lat="45.81412" lon="1.21425">
        <ele>300</ele>
        <time>2020-09-19T11:15:10.750Z</time>
      </trkpt>
      <trkpt lat="45.81408" lon="1.21424">
        <ele>300</ele>
        <time>2020-09-19T11:15:11.750Z</time>
      </trkpt>
      <trkpt lat="45.81405" lon="1.21423">
        <ele>300</ele>
        <time>2020-09-19T11:15:12.750Z</time>
      </trkpt>
      <trkpt lat="45.81402" lon="1.21422">
        <ele>300</ele>
        <time>2020-09-19T11:15:13.750Z</time>
      </trkpt>
      <trkpt lat="45.81399" lon="1.21421">
        <ele>301</ele>
        <time>2020-09-19T11:15:14.750Z</time>
      </trkpt>
      <trkpt lat="45.81396" lon="1.2142">
        <ele>302</ele>
        <time>2020-09-19T11:15:15.750Z</time>
      </trkpt>
      <trkpt lat="45.81393" lon="1.2142">
        <ele>302</ele>
        <time>2020-09-19T11:15:16.750Z</time>
      </trkpt>
      <trkpt lat="45.8139" lon="1.21419">
        <ele>302</ele>
        <time>2020-09-19T11:15:17.750Z</time>
      </trkpt>
      <trkpt lat="45.81387" lon="1.21419">
        <ele>302</ele>
        <time>2020-09-19T11:15:18.750Z</time>
      </trkpt>
      <trkpt lat="45.81383" lon="1.21418">
        <ele>303</ele>
        <time>2020-09-19T11:15:19.750Z</time>
      </trkpt>
      <trkpt lat="45.81381" lon="1.21418">
        <ele>303</ele>
        <time>2020-09-19T11:15:20.750Z</time>
      </trkpt>
      <trkpt lat="45.81378" lon="1.21418">
        <ele>302</ele>
        <time>2020-09-19T11:15:21.750Z</time>
      </trkpt>
      <trkpt lat="45.81375" lon="1.21418">
        <ele>303</ele>
        <time>2020-09-19T11:15:22.750Z</time>
      </trkpt>
      <trkpt lat="45.81372" lon="1.21419">
        <ele>304</ele>
        <time>2020-09-19T11:15:23.750Z</time>
      </trkpt>
      <trkpt lat="45.81369" lon="1.21419">
        <ele>304</ele>
        <time>2020-09-19T11:15:24.750Z</time>
      </trkpt>
      <trkpt lat="45.81366" lon="1.21421">
        <ele>304</ele>
        <time>2020-09-19T11:15:25.750Z</time>
      </trkpt>
      <trkpt lat="45.81362" lon="1.21422">
        <ele>305</ele>
        <time>2020-09-19T11:15:26.750Z</time>
      </trkpt>
      <trkpt lat="45.81359" lon="1.21423">
        <ele>305</ele>
        <time>2020-09-19T11:15:27.750Z</time>
      </trkpt>
      <trkpt lat="45.81356" lon="1.21424">
        <ele>305</ele>
        <time>2020-09-19T11:15:28.750Z</time>
      </trkpt>
      <trkpt lat="45.81353" lon="1.21425">
        <ele>305</ele>
        <time>2020-09-19T11:15:29.750Z</time>
      </trkpt>
      <trkpt lat="45.8135" lon="1.21427">
        <ele>305</ele>
        <time>2020-09-19T11:15:30.750Z</time>
      </trkpt>
      <trkpt lat="45.81347" lon="1.21428">
        <ele>305</ele>
        <time>2020-09-19T11:15:31.750Z</time>
      </trkpt>
      <trkpt lat="45.81343" lon="1.2143">
        <ele>305</ele>
        <time>2020-09-19T11:15:32.750Z</time>
      </trkpt>
      <trkpt lat="45.8134" lon="1.21431">
        <ele>305</ele>
        <time>2020-09-19T11:15:33.750Z</time>
      </trkpt>
      <trkpt lat="45.81337" lon="1.21432">
        <ele>304</ele>
        <time>2020-09-19T11:15:34.750Z</time>
      </trkpt>
      <trkpt lat="45.81334" lon="1.21433">
        <ele>305</ele>
        <time>2020-09-19T11:15:35.750Z</time>
      </trkpt>
      <trkpt lat="45.81331" lon="1.21435">
        <ele>306</ele>
        <time>2020-09-19T11:15:36.750Z</time>
      </trkpt>
      <trkpt lat="45.81329" lon="1.21437">
        <ele>306</ele>
        <time>2020-09-19T11:15:37.750Z</time>
      </trkpt>
      <trkpt lat="45.81326" lon="1.21438">
        <ele>306</ele>
        <time>2020-09-19T11:15:38.750Z</time>
      </trkpt>
      <trkpt lat="45.81324" lon="1.2144">
        <ele>306</ele>
        <time>2020-09-19T11:15:39.750Z</time>
      </trkpt>
      <trkpt lat="45.81321" lon="1.21443">
        <ele>306</ele>
        <time>2020-09-19T11:15:40.750Z</time>
      </trkpt>
      <trkpt lat="45.81319" lon="1.21445">
        <ele>306</ele>
        <time>2020-09-19T11:15:41.750Z</time>
      </trkpt>
      <trkpt lat="45.81316" lon="1.21448">
        <ele>305</ele>
        <time>2020-09-19T11:15:42.750Z</time>
      </trkpt>
      <trkpt lat="45.81313" lon="1.21451">
        <ele>305</ele>
        <time>2020-09-19T11:15:43.750Z</time>
      </trkpt>
      <trkpt lat="45.81311" lon="1.21455">
        <ele>304</ele>
        <time>2020-09-19T11:15:44.750Z</time>
      </trkpt>
      <trkpt lat="45.81308" lon="1.21458">
        <ele>305</ele>
        <time>2020-09-19T11:15:45.750Z</time>
      </trkpt>
      <trkpt lat="45.81306" lon="1.21462">
        <ele>305</ele>
        <time>2020-09-19T11:15:46.750Z</time>
      </trkpt>
      <trkpt lat="45.81304" lon="1.21465">
        <ele>305</ele>
        <time>2020-09-19T11:15:47.750Z</time>
      </trkpt>
      <trkpt lat="45.81302" lon="1.21468">
        <ele>305</ele>
        <time>2020-09-19T11:15:48.750Z</time>
      </trkpt>
      <trkpt lat="45.81299" lon="1.21472">
        <ele>306</ele>
        <time>2020-09-19T11:15:49.750Z</time>
      </trkpt>
      <trkpt lat="45.81297" lon="1.21475">
        <ele>306</ele>
        <time>2020-09-19T11:15:50.750Z</time>
      </trkpt>
      <trkpt lat="45.81294" lon="1.21477">
        <ele>307</ele>
        <time>2020-09-19T11:15:51.750Z</time>
      </trkpt>
      <trkpt lat="45.81292" lon="1.2148">
        <ele>307</ele>
        <time>2020-09-19T11:15:52.750Z</time>
      </trkpt>
      <trkpt lat="45.8129" lon="1.21483">
        <ele>308</ele>
        <time>2020-09-19T11:15:53.750Z</time>
      </trkpt>
      <trkpt lat="45.81287" lon="1.21486">
        <ele>308</ele>
        <time>2020-09-19T11:15:54.750Z</time>
      </trkpt>
      <trkpt lat="45.81285" lon="1.21488">
        <ele>309</ele>
        <time>2020-09-19T11:15:55.750Z</time>
      </trkpt>
      <trkpt lat="45.81283" lon="1.21492">
        <ele>309</ele>
        <time>2020-09-19T11:15:56.750Z</time>
      </trkpt>
      <trkpt lat="45.8128" lon="1.21495">
        <ele>308</ele>
        <time>2020-09-19T11:15:57.750Z</time>
      </trkpt>
      <trkpt lat="45.81278" lon="1.21499">
        <ele>308</ele>
        <time>2020-09-19T11:15:58.750Z</time>
      </trkpt>
      <trkpt lat="45.81276" lon="1.21502">
        <ele>307</ele>
        <time>2020-09-19T11:15:59.750Z</time>
      </trkpt>
      <trkpt lat="45.81275" lon="1.21506">
        <ele>306</ele>
        <time>2020-09-19T11:16:00.750Z</time>
      </trkpt>
      <trkpt lat="45.81275" lon="1.2151">
        <ele>306</ele>
        <time>2020-09-19T11:16:01.750Z</time>
      </trkpt>
      <trkpt lat="45.81274" lon="1.21515">
        <ele>305</ele>
        <time>2020-09-19T11:16:02.750Z</time>
      </trkpt>
      <trkpt lat="45.81273" lon="1.21519">
        <ele>306</ele>
        <time>2020-09-19T11:16:03.750Z</time>
      </trkpt>
      <trkpt lat="45.81272" lon="1.21523">
        <ele>305</ele>
        <time>2020-09-19T11:16:04.750Z</time>
      </trkpt>
      <trkpt lat="45.81271" lon="1.21527">
        <ele>305</ele>
        <time>2020-09-19T11:16:05.750Z</time>
      </trkpt>
      <trkpt lat="45.8127" lon="1.21531">
        <ele>304</ele>
        <time>2020-09-19T11:16:06.750Z</time>
      </trkpt>
      <trkpt lat="45.81269" lon="1.21535">
        <ele>305</ele>
        <time>2020-09-19T11:16:07.750Z</time>
      </trkpt>
      <trkpt lat="45.81267" lon="1.21539">
        <ele>304</ele>
        <time>2020-09-19T11:16:08.750Z</time>
      </trkpt>
      <trkpt lat="45.81265" lon="1.21541">
        <ele>305</ele>
        <time>2020-09-19T11:16:09.750Z</time>
      </trkpt>
      <trkpt lat="45.81263" lon="1.21544">
        <ele>306</ele>
        <time>2020-09-19T11:16:10.750Z</time>
      </trkpt>
      <trkpt lat="45.81261" lon="1.21546">
        <ele>307</ele>
        <time>2020-09-19T11:16:11.750Z</time>
      </trkpt>
      <trkpt lat="45.81259" lon="1.21548">
        <ele>308</ele>
        <time>2020-09-19T11:16:12.750Z</time>
      </trkpt>
      <trkpt lat="45.81257" lon="1.21549">
        <ele>309</ele>
        <time>2020-09-19T11:16:13.750Z</time>
      </trkpt>
      <trkpt lat="45.81255" lon="1.2155">
        <ele>309</ele>
        <time>2020-09-19T11:16:14.750Z</time>
      </trkpt>
      <trkpt lat="45.81253" lon="1.21552">
        <ele>310</ele>
        <time>2020-09-19T11:16:15.750Z</time>
      </trkpt>
      <trkpt lat="45.81251" lon="1.21553">
        <ele>311</ele>
        <time>2020-09-19T11:16:16.750Z</time>
      </trkpt>
      <trkpt lat="45.8125" lon="1.21554">
        <ele>313</ele>
        <time>2020-09-19T11:16:17.750Z</time>
      </trkpt>
      <trkpt lat="45.81247" lon="1.21554">
        <ele>314</ele>
        <time>2020-09-19T11:16:18.750Z</time>
      </trkpt>
      <trkpt lat="45.81245" lon="1.21555">
        <ele>314</ele>
        <time>2020-09-19T11:16:19.750Z</time>
      </trkpt>
      <trkpt lat="45.81242" lon="1.21556">
        <ele>314</ele>
        <time>2020-09-19T11:16:20.750Z</time>
      </trkpt>
      <trkpt lat="45.8124" lon="1.21556">
        <ele>314</ele>
        <time>2020-09-19T11:16:21.750Z</time>
      </trkpt>
      <trkpt lat="45.81238" lon="1.21557">
        <ele>315</ele>
        <time>2020-09-19T11:16:22.750Z</time>
      </trkpt>
      <trkpt lat="45.81235" lon="1.21558">
        <ele>315</ele>
        <time>2020-09-19T11:16:23.750Z</time>
      </trkpt>
      <trkpt lat="45.81232" lon="1.21559">
        <ele>315</ele>
        <time>2020-09-19T11:16:24.750Z</time>
      </trkpt>
      <trkpt lat="45.81229" lon="1.2156">
        <ele>316</ele>
        <time>2020-09-19T11:16:25.750Z</time>
      </trkpt>
      <trkpt lat="45.81226" lon="1.21561">
        <ele>316</ele>
        <time>2020-09-19T11:16:26.750Z</time>
      </trkpt>
      <trkpt lat="45.81223" lon="1.21562">
        <ele>317</ele>
        <time>2020-09-19T11:16:27.750Z</time>
      </trkpt>
      <trkpt lat="45.81219" lon="1.21563">
        <ele>317</ele>
        <time>2020-09-19T11:16:28.750Z</time>
      </trkpt>
      <trkpt lat="45.81216" lon="1.21564">
        <ele>318</ele>
        <time>2020-09-19T11:16:29.750Z</time>
      </trkpt>
      <trkpt lat="45.81213" lon="1.21565">
        <ele>319</ele>
        <time>2020-09-19T11:16:30.750Z</time>
      </trkpt>
      <trkpt lat="45.8121" lon="1.21566">
        <ele>320</ele>
        <time>2020-09-19T11:16:31.750Z</time>
      </trkpt>
      <trkpt lat="45.81207" lon="1.21567">
        <ele>321</ele>
        <time>2020-09-19T11:16:32.750Z</time>
      </trkpt>
      <trkpt lat="45.81205" lon="1.21568">
        <ele>321</ele>
        <time>2020-09-19T11:16:33.750Z</time>
      </trkpt>
      <trkpt lat="45.81202" lon="1.21569">
        <ele>322</ele>
        <time>2020-09-19T11:16:34.750Z</time>
      </trkpt>
      <trkpt lat="45.81202" lon="1.21569">
        <ele>323</ele>
        <time>2020-09-19T11:16:35.750Z</time>
      </trkpt>
      <trkpt lat="45.81203" lon="1.21568">
        <ele>326</ele>
        <time>2020-09-19T11:16:36.750Z</time>
      </trkpt>
      <trkpt lat="45.81205" lon="1.21567">
        <ele>326</ele>
        <time>2020-09-19T11:16:37.750Z</time>
      </trkpt>
      <trkpt lat="45.81207" lon="1.21565">
        <ele>325</ele>
        <time>2020-09-19T11:16:38.750Z</time>
      </trkpt>
      <trkpt lat="45.81208" lon="1.21563">
        <ele>324</ele>
        <time>2020-09-19T11:16:39.750Z</time>
      </trkpt>
      <trkpt lat="45.81209" lon="1.21562">
        <ele>322</ele>
        <time>2020-09-19T11:16:40.750Z</time>
      </trkpt>
      <trkpt lat="45.81211" lon="1.2156">
        <ele>321</ele>
        <time>2020-09-19T11:16:41.750Z</time>
      </trkpt>
      <trkpt lat="45.81213" lon="1.21558">
        <ele>320</ele>
        <time>2020-09-19T11:16:42.750Z</time>
      </trkpt>
      <trkpt lat="45.81215" lon="1.21556">
        <ele>320</ele>
        <time>2020-09-19T11:16:43.750Z</time>
      </trkpt>
      <trkpt lat="45.81218" lon="1.21555">
        <ele>318</ele>
        <time>2020-09-19T11:16:44.750Z</time>
      </trkpt>
      <trkpt lat="45.81221" lon="1.21553">
        <ele>318</ele>
        <time>2020-09-19T11:16:45.750Z</time>
      </trkpt>
      <trkpt lat="45.81224" lon="1.21552">
        <ele>317</ele>
        <time>2020-09-19T11:16:46.750Z</time>
      </trkpt>
      <trkpt lat="45.81227" lon="1.21551">
        <ele>317</ele>
        <time>2020-09-19T11:16:47.750Z</time>
      </trkpt>
      <trkpt lat="45.8123" lon="1.2155">
        <ele>316</ele>
        <time>2020-09-19T11:16:48.750Z</time>
      </trkpt>
      <trkpt lat="45.81233" lon="1.21549">
        <ele>316</ele>
        <time>2020-09-19T11:16:49.750Z</time>
      </trkpt>
      <trkpt lat="45.81236" lon="1.21548">
        <ele>315</ele>
        <time>2020-09-19T11:16:50.750Z</time>
      </trkpt>
      <trkpt lat="45.81239" lon="1.21547">
        <ele>315</ele>
        <time>2020-09-19T11:16:51.750Z</time>
      </trkpt>
      <trkpt lat="45.81242" lon="1.21546">
        <ele>314</ele>
        <time>2020-09-19T11:16:52.750Z</time>
      </trkpt>
      <trkpt lat="45.81246" lon="1.21545">
        <ele>313</ele>
        <time>2020-09-19T11:16:53.750Z</time>
      </trkpt>
      <trkpt lat="45.81249" lon="1.21543">
        <ele>312</ele>
        <time>2020-09-19T11:16:54.750Z</time>
      </trkpt>
      <trkpt lat="45.81252" lon="1.21542">
        <ele>311</ele>
        <time>2020-09-19T11:16:55.750Z</time>
      </trkpt>
      <trkpt lat="45.81255" lon="1.21541">
        <ele>311</ele>
        <time>2020-09-19T11:16:56.750Z</time>
      </trkpt>
      <trkpt lat="45.81258" lon="1.2154">
        <ele>310</ele>
        <time>2020-09-19T11:16:57.750Z</time>
      </trkpt>
      <trkpt lat="45.81262" lon="1.21538">
        <ele>308</ele>
        <time>2020-09-19T11:16:58.750Z</time>
      </trkpt>
      <trkpt lat="45.81265" lon="1.21536">
        <ele>307</ele>
        <time>2020-09-19T11:16:59.750Z</time>
      </trkpt>
      <trkpt lat="45.81268" lon="1.21534">
        <ele>307</ele>
        <time>2020-09-19T11:17:00.750Z</time>
      </trkpt>
      <trkpt lat="45.81271" lon="1.21531">
        <ele>306</ele>
        <time>2020-09-19T11:17:01.750Z</time>
      </trkpt>
      <trkpt lat="45.81273" lon="1.21528">
        <ele>305</ele>
        <time>2020-09-19T11:17:02.750Z</time>
      </trkpt>
      <trkpt lat="45.81274" lon="1.21525">
        <ele>304</ele>
        <time>2020-09-19T11:17:03.750Z</time>
      </trkpt>
      <trkpt lat="45.81276" lon="1.21521">
        <ele>304</ele>
        <time>2020-09-19T11:17:04.750Z</time>
      </trkpt>
      <trkpt lat="45.81277" lon="1.21517">
        <ele>303</ele>
        <time>2020-09-19T11:17:05.750Z</time>
      </trkpt>
      <trkpt lat="45.81277" lon="1.21513">
        <ele>302</ele>
        <time>2020-09-19T11:17:06.750Z</time>
      </trkpt>
      <trkpt lat="45.81279" lon="1.21509">
        <ele>302</ele>
        <time>2020-09-19T11:17:07.750Z</time>
      </trkpt>
      <trkpt lat="45.8128" lon="1.21505">
        <ele>302</ele>
        <time>2020-09-19T11:17:08.750Z</time>
      </trkpt>
      <trkpt lat="45.81282" lon="1.21501">
        <ele>303</ele>
        <time>2020-09-19T11:17:09.750Z</time>
      </trkpt>
      <trkpt lat="45.81284" lon="1.21497">
        <ele>304</ele>
        <time>2020-09-19T11:17:10.750Z</time>
      </trkpt>
      <trkpt lat="45.81286" lon="1.21493">
        <ele>304</ele>
        <time>2020-09-19T11:17:11.750Z</time>
      </trkpt>
      <trkpt lat="45.81288" lon="1.21489">
        <ele>304</ele>
        <time>2020-09-19T11:17:12.750Z</time>
      </trkpt>
      <trkpt lat="45.8129" lon="1.21484">
        <ele>304</ele>
        <time>2020-09-19T11:17:13.750Z</time>
      </trkpt>
      <trkpt lat="45.81292" lon="1.2148">
        <ele>304</ele>
        <time>2020-09-19T11:17:14.750Z</time>
      </trkpt>
      <trkpt lat="45.81295" lon="1.21476">
        <ele>304</ele>
        <time>2020-09-19T11:17:15.750Z</time>
      </trkpt>
      <trkpt lat="45.81298" lon="1.21472">
        <ele>304</ele>
        <time>2020-09-19T11:17:16.750Z</time>
      </trkpt>
      <trkpt lat="45.813" lon="1.21468">
        <ele>304</ele>
        <time>2020-09-19T11:17:17.750Z</time>
      </trkpt>
      <trkpt lat="45.81303" lon="1.21464">
        <ele>303</ele>
        <time>2020-09-19T11:17:18.750Z</time>
      </trkpt>
      <trkpt lat="45.81306" lon="1.2146">
        <ele>303</ele>
        <time>2020-09-19T11:17:19.750Z</time>
      </trkpt>
      <trkpt lat="45.81308" lon="1.21457">
        <ele>303</ele>
        <time>2020-09-19T11:17:20.750Z</time>
      </trkpt>
      <trkpt lat="45.81311" lon="1.21454">
        <ele>302</ele>
        <time>2020-09-19T11:17:21.750Z</time>
      </trkpt>
      <trkpt lat="45.81314" lon="1.2145">
        <ele>301</ele>
        <time>2020-09-19T11:17:22.750Z</time>
      </trkpt>
      <trkpt lat="45.81316" lon="1.21447">
        <ele>301</ele>
        <time>2020-09-19T11:17:23.750Z</time>
      </trkpt>
      <trkpt lat="45.81319" lon="1.21444">
        <ele>300</ele>
        <time>2020-09-19T11:17:24.750Z</time>
      </trkpt>
      <trkpt lat="45.81322" lon="1.21441">
        <ele>301</ele>
        <time>2020-09-19T11:17:25.750Z</time>
      </trkpt>
      <trkpt lat="45.81325" lon="1.21438">
        <ele>301</ele>
        <time>2020-09-19T11:17:26.750Z</time>
      </trkpt>
      <trkpt lat="45.81328" lon="1.21435">
        <ele>301</ele>
        <time>2020-09-19T11:17:27.750Z</time>
      </trkpt>
      <trkpt lat="45.81331" lon="1.21433">
        <ele>301</ele>
        <time>2020-09-19T11:17:28.750Z</time>
      </trkpt>
      <trkpt lat="45.81334" lon="1.2143">
        <ele>301</ele>
        <time>2020-09-19T11:17:29.750Z</time>
      </trkpt>
      <trkpt lat="45.81337" lon="1.21428">
        <ele>300</ele>
        <time>2020-09-19T11:17:30.750Z</time>
      </trkpt>
      <trkpt lat="45.8134" lon="1.21426">
        <ele>300</ele>
        <time>2020-09-19T11:17:31.750Z</time>
      </trkpt>
      <trkpt lat="45.81343" lon="1.21424">
        <ele>300</ele>
        <time>2020-09-19T11:17:32.750Z</time>
      </trkpt>
      <trkpt lat="45.81346" lon="1.21423">
        <ele>300</ele>
        <time>2020-09-19T11:17:33.750Z</time>
      </trkpt>
      <trkpt lat="45.81349" lon="1.21422">
        <ele>300</ele>
        <time>2020-09-19T11:17:34.750Z</time>
      </trkpt>
      <trkpt lat="45.81352" lon="1.2142">
        <ele>300</ele>
        <time>2020-09-19T11:17:35.750Z</time>
      </trkpt>
      <trkpt lat="45.81355" lon="1.21419">
        <ele>299</ele>
        <time>2020-09-19T11:17:36.750Z</time>
      </trkpt>
      <trkpt lat="45.81359" lon="1.21418">
        <ele>299</ele>
        <time>2020-09-19T11:17:37.750Z</time>
      </trkpt>
      <trkpt lat="45.81362" lon="1.21417">
        <ele>299</ele>
        <time>2020-09-19T11:17:38.750Z</time>
      </trkpt>
      <trkpt lat="45.81366" lon="1.21416">
        <ele>298</ele>
        <time>2020-09-19T11:17:39.750Z</time>
      </trkpt>
      <trkpt lat="45.81369" lon="1.21416">
        <ele>298</ele>
        <time>2020-09-19T11:17:40.750Z</time>
      </trkpt>
      <trkpt lat="45.81373" lon="1.21415">
        <ele>297</ele>
        <time>2020-09-19T11:17:41.750Z</time>
      </trkpt>
      <trkpt lat="45.81376" lon="1.21415">
        <ele>297</ele>
        <time>2020-09-19T11:17:42.750Z</time>
      </trkpt>
      <trkpt lat="45.8138" lon="1.21415">
        <ele>297</ele>
        <time>2020-09-19T11:17:43.750Z</time>
      </trkpt>
      <trkpt lat="45.81383" lon="1.21415">
        <ele>297</ele>
        <time>2020-09-19T11:17:44.750Z</time>
      </trkpt>
      <trkpt lat="45.81386" lon="1.21416">
        <ele>296</ele>
        <time>2020-09-19T11:17:45.750Z</time>
      </trkpt>
      <trkpt lat="45.8139" lon="1.21417">
        <ele>296</ele>
        <time>2020-09-19T11:17:46.750Z</time>
      </trkpt>
      <trkpt lat="45.81393" lon="1.21417">
        <ele>296</ele>
        <time>2020-09-19T11:17:47.750Z</time>
      </trkpt>
      <trkpt lat="45.81396" lon="1.21418">
        <ele>296</ele>
        <time>2020-09-19T11:17:48.750Z</time>
      </trkpt>
      <trkpt lat="45.814" lon="1.21419">
        <ele>296</ele>
        <time>2020-09-19T11:17:49.750Z</time>
      </trkpt>
      <trkpt lat="45.81403" lon="1.2142">
        <ele>296</ele>
        <time>2020-09-19T11:17:50.750Z</time>
      </trkpt>
      <trkpt lat="45.81407" lon="1.21422">
        <ele>296</ele>
        <time>2020-09-19T11:17:51.750Z</time>
      </trkpt>
      <trkpt lat="45.8141" lon="1.21424">
        <ele>295</ele>
        <time>2020-09-19T11:17:52.750Z</time>
      </trkpt>
      <trkpt lat="45.81414" lon="1.21426">
        <ele>295</ele>
        <time>2020-09-19T11:17:53.750Z</time>
      </trkpt>
      <trkpt lat="45.81417" lon="1.21427">
        <ele>294</ele>
        <time>2020-09-19T11:17:54.750Z</time>
      </trkpt>
      <trkpt lat="45.81421" lon="1.21429">
        <ele>294</ele>
        <time>2020-09-19T11:17:55.750Z</time>
      </trkpt>
      <trkpt lat="45.81424" lon="1.2143">
        <ele>294</ele>
        <time>2020-09-19T11:17:56.750Z</time>
      </trkpt>
      <trkpt lat="45.81428" lon="1.21431">
        <ele>294</ele>
        <time>2020-09-19T11:17:57.750Z</time>
      </trkpt>
      <trkpt lat="45.81431" lon="1.21433">
        <ele>294</ele>
        <time>2020-09-19T11:17:58.750Z</time>
      </trkpt>
      <trkpt lat="45.81435" lon="1.21434">
        <ele>295</ele>
        <time>2020-09-19T11:17:59.750Z</time>
      </trkpt>
      <trkpt lat="45.81438" lon="1.21435">
        <ele>294</ele>
        <time>2020-09-19T11:18:00.750Z</time>
      </trkpt>
      <trkpt lat="45.81442" lon="1.21436">
        <ele>294</ele>
        <time>2020-09-19T11:18:01.750Z</time>
      </trkpt>
      <trkpt lat="45.81445" lon="1.21438">
        <ele>293</ele>
        <time>2020-09-19T11:18:02.750Z</time>
      </trkpt>
      <trkpt lat="45.81448" lon="1.2144">
        <ele>292</ele>
        <time>2020-09-19T11:18:03.750Z</time>
      </trkpt>
      <trkpt lat="45.81451" lon="1.21442">
        <ele>293</ele>
        <time>2020-09-19T11:18:04.750Z</time>
      </trkpt>
      <trkpt lat="45.81454" lon="1.21443">
        <ele>293</ele>
        <time>2020-09-19T11:18:05.750Z</time>
      </trkpt>
      <trkpt lat="45.81457" lon="1.21444">
        <ele>292</ele>
        <time>2020-09-19T11:18:06.750Z</time>
      </trkpt>
      <trkpt lat="45.8146" lon="1.21445">
        <ele>292</ele>
        <time>2020-09-19T11:18:07.750Z</time>
      </trkpt>
      <trkpt lat="45.81464" lon="1.21447">
        <ele>292</ele>
        <time>2020-09-19T11:18:08.750Z</time>
      </trkpt>
      <trkpt lat="45.81467" lon="1.21448">
        <ele>292</ele>
        <time>2020-09-19T11:18:09.750Z</time>
      </trkpt>
      <trkpt lat="45.8147" lon="1.2145">
        <ele>293</ele>
        <time>2020-09-19T11:18:10.750Z</time>
      </trkpt>
      <trkpt lat="45.81474" lon="1.21451">
        <ele>292</ele>
        <time>2020-09-19T11:18:11.750Z</time>
      </trkpt>
      <trkpt lat="45.81478" lon="1.21452">
        <ele>291</ele>
        <time>2020-09-19T11:18:12.750Z</time>
      </trkpt>
      <trkpt lat="45.81481" lon="1.21454">
        <ele>291</ele>
        <time>2020-09-19T11:18:13.750Z</time>
      </trkpt>
      <trkpt lat="45.81485" lon="1.21456">
        <ele>291</ele>
        <time>2020-09-19T11:18:14.750Z</time>
      </trkpt>
      <trkpt lat="45.81488" lon="1.21457">
        <ele>291</ele>
        <time>2020-09-19T11:18:15.750Z</time>
      </trkpt>
      <trkpt lat="45.81492" lon="1.21458">
        <ele>290</ele>
        <time>2020-09-19T11:18:16.750Z</time>
      </trkpt>
      <trkpt lat="45.81496" lon="1.2146">
        <ele>290</ele>
        <time>2020-09-19T11:18:17.750Z</time>
      </trkpt>
      <trkpt lat="45.81499" lon="1.21461">
        <ele>290</ele>
        <time>2020-09-19T11:18:18.750Z</time>
      </trkpt>
      <trkpt lat="45.81503" lon="1.21463">
        <ele>290</ele>
        <time>2020-09-19T11:18:19.750Z</time>
      </trkpt>
      <trkpt lat="45.81506" lon="1.21464">
        <ele>289</ele>
        <time>2020-09-19T11:18:20.750Z</time>
      </trkpt>
      <trkpt lat="45.8151" lon="1.21465">
        <ele>289</ele>
        <time>2020-09-19T11:18:21.750Z</time>
      </trkpt>
      <trkpt lat="45.81513" lon="1.21467">
        <ele>289</ele>
        <time>2020-09-19T11:18:22.750Z</time>
      </trkpt>
      <trkpt lat="45.81517" lon="1.21468">
        <ele>289</ele>
        <time>2020-09-19T11:18:23.750Z</time>
      </trkpt>
      <trkpt lat="45.8152" lon="1.21469">
        <ele>288</ele>
        <time>2020-09-19T11:18:24.750Z</time>
      </trkpt>
      <trkpt lat="45.81524" lon="1.2147">
        <ele>287</ele>
        <time>2020-09-19T11:18:25.750Z</time>
      </trkpt>
      <trkpt lat="45.81527" lon="1.21472">
        <ele>287</ele>
        <time>2020-09-19T11:18:26.750Z</time>
      </trkpt>
      <trkpt lat="45.8153" lon="1.21473">
        <ele>287</ele>
        <time>2020-09-19T11:18:27.750Z</time>
      </trkpt>
      <trkpt lat="45.81534" lon="1.21474">
        <ele>287</ele>
        <time>2020-09-19T11:18:28.750Z</time>
      </trkpt>
      <trkpt lat="45.81537" lon="1.21475">
        <ele>287</ele>
        <time>2020-09-19T11:18:29.750Z</time>
      </trkpt>
      <trkpt lat="45.81541" lon="1.21476">
        <ele>286</ele>
        <time>2020-09-19T11:18:30.750Z</time>
      </trkpt>
      <trkpt lat="45.81544" lon="1.21477">
        <ele>287</ele>
        <time>2020-09-19T11:18:31.750Z</time>
      </trkpt>
      <trkpt lat="45.81548" lon="1.21479">
        <ele>286</ele>
        <time>2020-09-19T11:18:32.750Z</time>
      </trkpt>
      <trkpt lat="45.81552" lon="1.2148">
        <ele>286</ele>
        <time>2020-09-19T11:18:33.750Z</time>
      </trkpt>
      <trkpt lat="45.81556" lon="1.21482">
        <ele>287</ele>
        <time>2020-09-19T11:18:34.750Z</time>
      </trkpt>
      <trkpt lat="45.81559" lon="1.21483">
        <ele>287</ele>
        <time>2020-09-19T11:18:35.750Z</time>
      </trkpt>
      <trkpt lat="45.81563" lon="1.21484">
        <ele>287</ele>
        <time>2020-09-19T11:18:36.750Z</time>
      </trkpt>
      <trkpt lat="45.81566" lon="1.21486">
        <ele>287</ele>
        <time>2020-09-19T11:18:37.750Z</time>
      </trkpt>
      <trkpt lat="45.8157" lon="1.21487">
        <ele>287</ele>
        <time>2020-09-19T11:18:38.750Z</time>
      </trkpt>
      <trkpt lat="45.81574" lon="1.21488">
        <ele>287</ele>
        <time>2020-09-19T11:18:39.750Z</time>
      </trkpt>
      <trkpt lat="45.81578" lon="1.21489">
        <ele>287</ele>
        <time>2020-09-19T11:18:40.750Z</time>
      </trkpt>
      <trkpt lat="45.81582" lon="1.2149">
        <ele>287</ele>
        <time>2020-09-19T11:18:41.750Z</time>
      </trkpt>
      <trkpt lat="45.81585" lon="1.2149">
        <ele>288</ele>
        <time>2020-09-19T11:18:42.750Z</time>
      </trkpt>
      <trkpt lat="45.81589" lon="1.21491">
        <ele>286</ele>
        <time>2020-09-19T11:18:43.750Z</time>
      </trkpt>
      <trkpt lat="45.81593" lon="1.21491">
        <ele>285</ele>
        <time>2020-09-19T11:18:44.750Z</time>
      </trkpt>
      <trkpt lat="45.81597" lon="1.21491">
        <ele>285</ele>
        <time>2020-09-19T11:18:45.750Z</time>
      </trkpt>
      <trkpt lat="45.816" lon="1.2149">
        <ele>286</ele>
        <time>2020-09-19T11:18:46.750Z</time>
      </trkpt>
      <trkpt lat="45.81604" lon="1.21488">
        <ele>286</ele>
        <time>2020-09-19T11:18:47.750Z</time>
      </trkpt>
      <trkpt lat="45.81607" lon="1.21486">
        <ele>286</ele>
        <time>2020-09-19T11:18:48.750Z</time>
      </trkpt>
      <trkpt lat="45.8161" lon="1.21483">
        <ele>285</ele>
        <time>2020-09-19T11:18:49.750Z</time>
      </trkpt>
      <trkpt lat="45.81613" lon="1.2148">
        <ele>285</ele>
        <time>2020-09-19T11:18:50.750Z</time>
      </trkpt>
      <trkpt lat="45.81615" lon="1.21477">
        <ele>285</ele>
        <time>2020-09-19T11:18:51.750Z</time>
      </trkpt>
      <trkpt lat="45.81618" lon="1.21473">
        <ele>284</ele>
        <time>2020-09-19T11:18:52.750Z</time>
      </trkpt>
      <trkpt lat="45.8162" lon="1.21469">
        <ele>284</ele>
        <time>2020-09-19T11:18:53.750Z</time>
      </trkpt>
      <trkpt lat="45.81622" lon="1.21464">
        <ele>283</ele>
        <time>2020-09-19T11:18:54.750Z</time>
      </trkpt>
      <trkpt lat="45.81624" lon="1.21459">
        <ele>281</ele>
        <time>2020-09-19T11:18:55.750Z</time>
      </trkpt>
      <trkpt lat="45.81625" lon="1.21454">
        <ele>280</ele>
        <time>2020-09-19T11:18:56.750Z</time>
      </trkpt>
      <trkpt lat="45.81626" lon="1.21449">
        <ele>279</ele>
        <time>2020-09-19T11:18:57.750Z</time>
      </trkpt>
      <trkpt lat="45.81627" lon="1.21444">
        <ele>280</ele>
        <time>2020-09-19T11:18:58.750Z</time>
      </trkpt>
      <trkpt lat="45.81628" lon="1.21439">
        <ele>279</ele>
        <time>2020-09-19T11:18:59.750Z</time>
      </trkpt>
      <trkpt lat="45.81629" lon="1.21433">
        <ele>279</ele>
        <time>2020-09-19T11:19:00.750Z</time>
      </trkpt>
      <trkpt lat="45.8163" lon="1.21428">
        <ele>278</ele>
        <time>2020-09-19T11:19:01.750Z</time>
      </trkpt>
      <trkpt lat="45.8163" lon="1.21423">
        <ele>278</ele>
        <time>2020-09-19T11:19:02.750Z</time>
      </trkpt>
      <trkpt lat="45.81631" lon="1.21418">
        <ele>278</ele>
        <time>2020-09-19T11:19:03.750Z</time>
      </trkpt>
      <trkpt lat="45.81631" lon="1.21412">
        <ele>277</ele>
        <time>2020-09-19T11:19:04.750Z</time>
      </trkpt>
      <trkpt lat="45.81631" lon="1.21407">
        <ele>277</ele>
        <time>2020-09-19T11:19:05.750Z</time>
      </trkpt>
      <trkpt lat="45.81631" lon="1.21401">
        <ele>276</ele>
        <time>2020-09-19T11:19:06.750Z</time>
      </trkpt>
      <trkpt lat="45.81631" lon="1.21396">
        <ele>276</ele>
        <time>2020-09-19T11:19:07.750Z</time>
      </trkpt>
      <trkpt lat="45.8163" lon="1.21391">
        <ele>276</ele>
        <time>2020-09-19T11:19:08.750Z</time>
      </trkpt>
      <trkpt lat="45.8163" lon="1.21386">
        <ele>276</ele>
        <time>2020-09-19T11:19:09.750Z</time>
      </trkpt>
      <trkpt lat="45.81629" lon="1.21381">
        <ele>275</ele>
        <time>2020-09-19T11:19:10.750Z</time>
      </trkpt>
      <trkpt lat="45.81629" lon="1.21377">
        <ele>274</ele>
        <time>2020-09-19T11:19:11.750Z</time>
      </trkpt>
      <trkpt lat="45.81628" lon="1.21372">
        <ele>275</ele>
        <time>2020-09-19T11:19:12.750Z</time>
      </trkpt>
      <trkpt lat="45.81627" lon="1.21367">
        <ele>274</ele>
        <time>2020-09-19T11:19:13.750Z</time>
      </trkpt>
      <trkpt lat="45.81627" lon="1.21363">
        <ele>274</ele>
        <time>2020-09-19T11:19:14.750Z</time>
      </trkpt>
      <trkpt lat="45.81626" lon="1.21358">
        <ele>274</ele>
        <time>2020-09-19T11:19:15.750Z</time>
      </trkpt>
      <trkpt lat="45.81625" lon="1.21353">
        <ele>274</ele>
        <time>2020-09-19T11:19:16.750Z</time>
      </trkpt>
      <trkpt lat="45.81625" lon="1.21348">
        <ele>274</ele>
        <time>2020-09-19T11:19:17.750Z</time>
      </trkpt>
      <trkpt lat="45.81624" lon="1.21343">
        <ele>274</ele>
        <time>2020-09-19T11:19:18.750Z</time>
      </trkpt>
      <trkpt lat="45.81623" lon="1.21338">
        <ele>273</ele>
        <time>2020-09-19T11:19:19.750Z</time>
      </trkpt>
      <trkpt lat="45.81623" lon="1.21333">
        <ele>273</ele>
        <time>2020-09-19T11:19:20.750Z</time>
      </trkpt>
      <trkpt lat="45.81622" lon="1.21328">
        <ele>273</ele>
        <time>2020-09-19T11:19:21.750Z</time>
      </trkpt>
      <trkpt lat="45.81621" lon="1.21323">
        <ele>273</ele>
        <time>2020-09-19T11:19:22.750Z</time>
      </trkpt>
      <trkpt lat="45.8162" lon="1.21318">
        <ele>272</ele>
        <time>2020-09-19T11:19:23.750Z</time>
      </trkpt>
      <trkpt lat="45.81619" lon="1.21313">
        <ele>272</ele>
        <time>2020-09-19T11:19:24.750Z</time>
      </trkpt>
      <trkpt lat="45.81619" lon="1.21308">
        <ele>271</ele>
        <time>2020-09-19T11:19:25.750Z</time>
      </trkpt>
      <trkpt lat="45.81618" lon="1.21304">
        <ele>271</ele>
        <time>2020-09-19T11:19:26.750Z</time>
      </trkpt>
      <trkpt lat="45.81617" lon="1.21299">
        <ele>272</ele>
        <time>2020-09-19T11:19:27.750Z</time>
      </trkpt>
      <trkpt lat="45.81617" lon="1.21294">
        <ele>271</ele>
        <time>2020-09-19T11:19:28.750Z</time>
      </trkpt>
      <trkpt lat="45.81616" lon="1.21289">
        <ele>271</ele>
        <time>2020-09-19T11:19:29.750Z</time>
      </trkpt>
      <trkpt lat="45.81615" lon="1.21284">
        <ele>271</ele>
        <time>2020-09-19T11:19:30.750Z</time>
      </trkpt>
      <trkpt lat="45.81614" lon="1.21279">
        <ele>271</ele>
        <time>2020-09-19T11:19:31.750Z</time>
      </trkpt>
      <trkpt lat="45.81614" lon="1.21275">
        <ele>270</ele>
        <time>2020-09-19T11:19:32.750Z</time>
      </trkpt>
      <trkpt lat="45.81613" lon="1.2127">
        <ele>270</ele>
        <time>2020-09-19T11:19:33.750Z</time>
      </trkpt>
      <trkpt lat="45.81612" lon="1.21265">
        <ele>270</ele>
        <time>2020-09-19T11:19:34.750Z</time>
      </trkpt>
      <trkpt lat="45.81612" lon="1.21259">
        <ele>270</ele>
        <time>2020-09-19T11:19:35.750Z</time>
      </trkpt>
      <trkpt lat="45.81611" lon="1.21254">
        <ele>270</ele>
        <time>2020-09-19T11:19:36.750Z</time>
      </trkpt>
      <trkpt lat="45.81611" lon="1.21249">
        <ele>270</ele>
        <time>2020-09-19T11:19:37.750Z</time>
      </trkpt>
      <trkpt lat="45.8161" lon="1.21244">
        <ele>270</ele>
        <time>2020-09-19T11:19:38.750Z</time>
      </trkpt>
      <trkpt lat="45.81609" lon="1.21239">
        <ele>270</ele>
        <time>2020-09-19T11:19:39.750Z</time>
      </trkpt>
      <trkpt lat="45.81609" lon="1.21234">
        <ele>270</ele>
        <time>2020-09-19T11:19:40.750Z</time>
      </trkpt>
      <trkpt lat="45.81608" lon="1.21229">
        <ele>269</ele>
        <time>2020-09-19T11:19:41.750Z</time>
      </trkpt>
      <trkpt lat="45.81607" lon="1.21224">
        <ele>269</ele>
        <time>2020-09-19T11:19:42.750Z</time>
      </trkpt>
      <trkpt lat="45.81606" lon="1.21219">
        <ele>269</ele>
        <time>2020-09-19T11:19:43.750Z</time>
      </trkpt>
      <trkpt lat="45.81606" lon="1.21214">
        <ele>268</ele>
        <time>2020-09-19T11:19:44.750Z</time>
      </trkpt>
      <trkpt lat="45.81605" lon="1.2121">
        <ele>268</ele>
        <time>2020-09-19T11:19:45.750Z</time>
      </trkpt>
      <trkpt lat="45.81604" lon="1.21205">
        <ele>268</ele>
        <time>2020-09-19T11:19:46.750Z</time>
      </trkpt>
      <trkpt lat="45.81603" lon="1.212">
        <ele>268</ele>
        <time>2020-09-19T11:19:47.750Z</time>
      </trkpt>
      <trkpt lat="45.81603" lon="1.21195">
        <ele>267</ele>
        <time>2020-09-19T11:19:48.750Z</time>
      </trkpt>
      <trkpt lat="45.81602" lon="1.2119">
        <ele>267</ele>
        <time>2020-09-19T11:19:49.750Z</time>
      </trkpt>
      <trkpt lat="45.81601" lon="1.21186">
        <ele>267</ele>
        <time>2020-09-19T11:19:50.750Z</time>
      </trkpt>
      <trkpt lat="45.81601" lon="1.21181">
        <ele>267</ele>
        <time>2020-09-19T11:19:51.750Z</time>
      </trkpt>
      <trkpt lat="45.816" lon="1.21176">
        <ele>268</ele>
        <time>2020-09-19T11:19:52.750Z</time>
      </trkpt>
      <trkpt lat="45.81599" lon="1.21171">
        <ele>268</ele>
        <time>2020-09-19T11:19:53.750Z</time>
      </trkpt>
      <trkpt lat="45.81598" lon="1.21167">
        <ele>269</ele>
        <time>2020-09-19T11:19:54.750Z</time>
      </trkpt>
      <trkpt lat="45.81598" lon="1.21162">
        <ele>269</ele>
        <time>2020-09-19T11:19:55.750Z</time>
      </trkpt>
      <trkpt lat="45.81597" lon="1.21157">
        <ele>268</ele>
        <time>2020-09-19T11:19:56.750Z</time>
      </trkpt>
      <trkpt lat="45.81596" lon="1.21152">
        <ele>269</ele>
        <time>2020-09-19T11:19:57.750Z</time>
      </trkpt>
      <trkpt lat="45.81596" lon="1.21147">
        <ele>269</ele>
        <time>2020-09-19T11:19:58.750Z</time>
      </trkpt>
      <trkpt lat="45.81595" lon="1.21142">
        <ele>269</ele>
        <time>2020-09-19T11:19:59.750Z</time>
      </trkpt>
      <trkpt lat="45.81594" lon="1.21137">
        <ele>269</ele>
        <time>2020-09-19T11:20:00.750Z</time>
      </trkpt>
      <trkpt lat="45.81594" lon="1.21132">
        <ele>269</ele>
        <time>2020-09-19T11:20:01.750Z</time>
      </trkpt>
      <trkpt lat="45.81593" lon="1.21128">
        <ele>269</ele>
        <time>2020-09-19T11:20:02.750Z</time>
      </trkpt>
      <trkpt lat="45.81593" lon="1.21123">
        <ele>269</ele>
        <time>2020-09-19T11:20:03.750Z</time>
      </trkpt>
      <trkpt lat="45.81593" lon="1.21118">
        <ele>269</ele>
        <time>2020-09-19T11:20:04.750Z</time>
      </trkpt>
      <trkpt lat="45.81592" lon="1.21113">
        <ele>269</ele>
        <time>2020-09-19T11:20:05.750Z</time>
      </trkpt>
      <trkpt lat="45.81592" lon="1.21108">
        <ele>269</ele>
        <time>2020-09-19T11:20:06.750Z</time>
      </trkpt>
      <trkpt lat="45.81591" lon="1.21103">
        <ele>270</ele>
        <time>2020-09-19T11:20:07.750Z</time>
      </trkpt>
      <trkpt lat="45.81591" lon="1.21098">
        <ele>270</ele>
        <time>2020-09-19T11:20:08.750Z</time>
      </trkpt>
      <trkpt lat="45.81591" lon="1.21093">
        <ele>270</ele>
        <time>2020-09-19T11:20:09.750Z</time>
      </trkpt>
      <trkpt lat="45.81591" lon="1.21088">
        <ele>270</ele>
        <time>2020-09-19T11:20:10.750Z</time>
      </trkpt>
      <trkpt lat="45.8159" lon="1.21084">
        <ele>270</ele>
        <time>2020-09-19T11:20:11.750Z</time>
      </trkpt>
      <trkpt lat="45.8159" lon="1.21079">
        <ele>269</ele>
        <time>2020-09-19T11:20:12.750Z</time>
      </trkpt>
      <trkpt lat="45.8159" lon="1.21074">
        <ele>269</ele>
        <time>2020-09-19T11:20:13.750Z</time>
      </trkpt>
      <trkpt lat="45.81591" lon="1.2107">
        <ele>269</ele>
        <time>2020-09-19T11:20:14.750Z</time>
      </trkpt>
      <trkpt lat="45.81591" lon="1.21065">
        <ele>269</ele>
        <time>2020-09-19T11:20:15.750Z</time>
      </trkpt>
      <trkpt lat="45.81592" lon="1.21061">
        <ele>269</ele>
        <time>2020-09-19T11:20:16.750Z</time>
      </trkpt>
      <trkpt lat="45.81592" lon="1.21056">
        <ele>268</ele>
        <time>2020-09-19T11:20:17.750Z</time>
      </trkpt>
      <trkpt lat="45.81593" lon="1.21051">
        <ele>268</ele>
        <time>2020-09-19T11:20:18.750Z</time>
      </trkpt>
      <trkpt lat="45.81594" lon="1.21046">
        <ele>267</ele>
        <time>2020-09-19T11:20:19.750Z</time>
      </trkpt>
      <trkpt lat="45.81595" lon="1.21042">
        <ele>267</ele>
        <time>2020-09-19T11:20:20.750Z</time>
      </trkpt>
      <trkpt lat="45.81596" lon="1.21037">
        <ele>267</ele>
        <time>2020-09-19T11:20:21.750Z</time>
      </trkpt>
      <trkpt lat="45.81598" lon="1.21032">
        <ele>267</ele>
        <time>2020-09-19T11:20:22.750Z</time>
      </trkpt>
      <trkpt lat="45.81599" lon="1.21028">
        <ele>266</ele>
        <time>2020-09-19T11:20:23.750Z</time>
      </trkpt>
      <trkpt lat="45.81601" lon="1.21024">
        <ele>266</ele>
        <time>2020-09-19T11:20:24.750Z</time>
      </trkpt>
      <trkpt lat="45.81603" lon="1.21019">
        <ele>266</ele>
        <time>2020-09-19T11:20:25.750Z</time>
      </trkpt>
      <trkpt lat="45.81606" lon="1.21015">
        <ele>265</ele>
        <time>2020-09-19T11:20:26.750Z</time>
      </trkpt>
      <trkpt lat="45.81608" lon="1.21011">
        <ele>265</ele>
        <time>2020-09-19T11:20:27.750Z</time>
      </trkpt>
      <trkpt lat="45.81611" lon="1.21008">
        <ele>262</ele>
        <time>2020-09-19T11:20:28.750Z</time>
      </trkpt>
      <trkpt lat="45.81614" lon="1.21004">
        <ele>262</ele>
        <time>2020-09-19T11:20:29.750Z</time>
      </trkpt>
      <trkpt lat="45.81617" lon="1.21001">
        <ele>261</ele>
        <time>2020-09-19T11:20:30.750Z</time>
      </trkpt>
      <trkpt lat="45.8162" lon="1.20998">
        <ele>262</ele>
        <time>2020-09-19T11:20:31.750Z</time>
      </trkpt>
      <trkpt lat="45.81623" lon="1.20995">
        <ele>263</ele>
        <time>2020-09-19T11:20:32.750Z</time>
      </trkpt>
      <trkpt lat="45.81625" lon="1.20991">
        <ele>262</ele>
        <time>2020-09-19T11:20:33.750Z</time>
      </trkpt>
      <trkpt lat="45.81628" lon="1.20988">
        <ele>263</ele>
        <time>2020-09-19T11:20:34.750Z</time>
      </trkpt>
      <trkpt lat="45.8163" lon="1.20984">
        <ele>264</ele>
        <time>2020-09-19T11:20:35.750Z</time>
      </trkpt>
      <trkpt lat="45.81632" lon="1.2098">
        <ele>264</ele>
        <time>2020-09-19T11:20:36.750Z</time>
      </trkpt>
      <trkpt lat="45.81634" lon="1.20976">
        <ele>264</ele>
        <time>2020-09-19T11:20:37.750Z</time>
      </trkpt>
      <trkpt lat="45.81636" lon="1.20972">
        <ele>265</ele>
        <time>2020-09-19T11:20:38.750Z</time>
      </trkpt>
      <trkpt lat="45.81638" lon="1.20968">
        <ele>265</ele>
        <time>2020-09-19T11:20:39.750Z</time>
      </trkpt>
      <trkpt lat="45.8164" lon="1.20964">
        <ele>264</ele>
        <time>2020-09-19T11:20:40.750Z</time>
      </trkpt>
      <trkpt lat="45.81642" lon="1.20959">
        <ele>263</ele>
        <time>2020-09-19T11:20:41.750Z</time>
      </trkpt>
      <trkpt lat="45.81645" lon="1.20955">
        <ele>263</ele>
        <time>2020-09-19T11:20:42.750Z</time>
      </trkpt>
      <trkpt lat="45.81648" lon="1.20951">
        <ele>263</ele>
        <time>2020-09-19T11:20:43.750Z</time>
      </trkpt>
      <trkpt lat="45.81651" lon="1.20948">
        <ele>264</ele>
        <time>2020-09-19T11:20:44.750Z</time>
      </trkpt>
      <trkpt lat="45.81654" lon="1.20945">
        <ele>265</ele>
        <time>2020-09-19T11:20:45.750Z</time>
      </trkpt>
      <trkpt lat="45.81657" lon="1.20943">
        <ele>265</ele>
        <time>2020-09-19T11:20:46.750Z</time>
      </trkpt>
      <trkpt lat="45.81661" lon="1.20941">
        <ele>265</ele>
        <time>2020-09-19T11:20:47.750Z</time>
      </trkpt>
      <trkpt lat="45.81664" lon="1.2094">
        <ele>265</ele>
        <time>2020-09-19T11:20:48.750Z</time>
      </trkpt>
      <trkpt lat="45.81667" lon="1.20938">
        <ele>266</ele>
        <time>2020-09-19T11:20:49.750Z</time>
      </trkpt>
      <trkpt lat="45.81671" lon="1.20937">
        <ele>266</ele>
        <time>2020-09-19T11:20:50.750Z</time>
      </trkpt>
      <trkpt lat="45.81674" lon="1.20936">
        <ele>266</ele>
        <time>2020-09-19T11:20:51.750Z</time>
      </trkpt>
      <trkpt lat="45.81678" lon="1.20935">
        <ele>265</ele>
        <time>2020-09-19T11:20:52.750Z</time>
      </trkpt>
      <trkpt lat="45.81681" lon="1.20934">
        <ele>264</ele>
        <time>2020-09-19T11:20:53.750Z</time>
      </trkpt>
      <trkpt lat="45.81685" lon="1.20934">
        <ele>263</ele>
        <time>2020-09-19T11:20:54.750Z</time>
      </trkpt>
      <trkpt lat="45.81688" lon="1.20934">
        <ele>263</ele>
        <time>2020-09-19T11:20:55.750Z</time>
      </trkpt>
      <trkpt lat="45.81691" lon="1.20933">
        <ele>263</ele>
        <time>2020-09-19T11:20:56.750Z</time>
      </trkpt>
      <trkpt lat="45.81695" lon="1.20933">
        <ele>263</ele>
        <time>2020-09-19T11:20:57.750Z</time>
      </trkpt>
      <trkpt lat="45.81699" lon="1.20933">
        <ele>263</ele>
        <time>2020-09-19T11:20:58.750Z</time>
      </trkpt>
      <trkpt lat="45.81702" lon="1.20933">
        <ele>263</ele>
        <time>2020-09-19T11:20:59.750Z</time>
      </trkpt>
      <trkpt lat="45.81706" lon="1.20933">
        <ele>262</ele>
        <time>2020-09-19T11:21:00.750Z</time>
      </trkpt>
      <trkpt lat="45.81709" lon="1.20932">
        <ele>261</ele>
        <time>2020-09-19T11:21:01.750Z</time>
      </trkpt>
      <trkpt lat="45.81713" lon="1.20932">
        <ele>261</ele>
        <time>2020-09-19T11:21:02.750Z</time>
      </trkpt>
      <trkpt lat="45.81716" lon="1.20932">
        <ele>260</ele>
        <time>2020-09-19T11:21:03.750Z</time>
      </trkpt>
      <trkpt lat="45.8172" lon="1.20932">
        <ele>259</ele>
        <time>2020-09-19T11:21:04.750Z</time>
      </trkpt>
      <trkpt lat="45.81724" lon="1.20932">
        <ele>259</ele>
        <time>2020-09-19T11:21:05.750Z</time>
      </trkpt>
      <trkpt lat="45.81727" lon="1.20932">
        <ele>258</ele>
        <time>2020-09-19T11:21:06.750Z</time>
      </trkpt>
      <trkpt lat="45.8173" lon="1.20932">
        <ele>258</ele>
        <time>2020-09-19T11:21:07.750Z</time>
      </trkpt>
      <trkpt lat="45.81734" lon="1.20932">
        <ele>258</ele>
        <time>2020-09-19T11:21:08.750Z</time>
      </trkpt>
      <trkpt lat="45.81737" lon="1.20933">
        <ele>258</ele>
        <time>2020-09-19T11:21:09.750Z</time>
      </trkpt>
      <trkpt lat="45.81741" lon="1.20933">
        <ele>257</ele>
        <time>2020-09-19T11:21:10.750Z</time>
      </trkpt>
      <trkpt lat="45.81744" lon="1.20933">
        <ele>256</ele>
        <time>2020-09-19T11:21:11.750Z</time>
      </trkpt>
      <trkpt lat="45.81748" lon="1.20933">
        <ele>256</ele>
        <time>2020-09-19T11:21:12.750Z</time>
      </trkpt>
      <trkpt lat="45.81751" lon="1.20933">
        <ele>256</ele>
        <time>2020-09-19T11:21:13.750Z</time>
      </trkpt>
      <trkpt lat="45.81755" lon="1.20932">
        <ele>255</ele>
        <time>2020-09-19T11:21:14.750Z</time>
      </trkpt>
      <trkpt lat="45.81759" lon="1.20932">
        <ele>255</ele>
        <time>2020-09-19T11:21:15.750Z</time>
      </trkpt>
      <trkpt lat="45.81762" lon="1.20932">
        <ele>255</ele>
        <time>2020-09-19T11:21:16.750Z</time>
      </trkpt>
      <trkpt lat="45.81766" lon="1.20931">
        <ele>254</ele>
        <time>2020-09-19T11:21:17.750Z</time>
      </trkpt>
      <trkpt lat="45.81769" lon="1.20931">
        <ele>254</ele>
        <time>2020-09-19T11:21:18.750Z</time>
      </trkpt>
      <trkpt lat="45.81772" lon="1.2093">
        <ele>253</ele>
        <time>2020-09-19T11:21:19.750Z</time>
      </trkpt>
      <trkpt lat="45.81776" lon="1.2093">
        <ele>253</ele>
        <time>2020-09-19T11:21:20.750Z</time>
      </trkpt>
      <trkpt lat="45.8178" lon="1.2093">
        <ele>253</ele>
        <time>2020-09-19T11:21:21.750Z</time>
      </trkpt>
      <trkpt lat="45.81783" lon="1.2093">
        <ele>253</ele>
        <time>2020-09-19T11:21:22.750Z</time>
      </trkpt>
      <trkpt lat="45.81787" lon="1.20929">
        <ele>253</ele>
        <time>2020-09-19T11:21:23.750Z</time>
      </trkpt>
      <trkpt lat="45.81791" lon="1.20928">
        <ele>253</ele>
        <time>2020-09-19T11:21:24.750Z</time>
      </trkpt>
      <trkpt lat="45.81794" lon="1.20928">
        <ele>253</ele>
        <time>2020-09-19T11:21:25.750Z</time>
      </trkpt>
      <trkpt lat="45.81798" lon="1.20928">
        <ele>253</ele>
        <time>2020-09-19T11:21:26.750Z</time>
      </trkpt>
      <trkpt lat="45.81801" lon="1.20927">
        <ele>253</ele>
        <time>2020-09-19T11:21:27.750Z</time>
      </trkpt>
      <trkpt lat="45.81805" lon="1.20927">
        <ele>252</ele>
        <time>2020-09-19T11:21:28.750Z</time>
      </trkpt>
      <trkpt lat="45.81808" lon="1.20927">
        <ele>252</ele>
        <time>2020-09-19T11:21:29.750Z</time>
      </trkpt>
      <trkpt lat="45.81812" lon="1.20927">
        <ele>252</ele>
        <time>2020-09-19T11:21:30.750Z</time>
      </trkpt>
      <trkpt lat="45.81816" lon="1.20927">
        <ele>251</ele>
        <time>2020-09-19T11:21:31.750Z</time>
      </trkpt>
      <trkpt lat="45.81819" lon="1.20927">
        <ele>251</ele>
        <time>2020-09-19T11:21:32.750Z</time>
      </trkpt>
      <trkpt lat="45.81823" lon="1.20927">
        <ele>251</ele>
        <time>2020-09-19T11:21:33.750Z</time>
      </trkpt>
      <trkpt lat="45.81827" lon="1.20926">
        <ele>251</ele>
        <time>2020-09-19T11:21:34.750Z</time>
      </trkpt>
      <trkpt lat="45.8183" lon="1.20926">
        <ele>251</ele>
        <time>2020-09-19T11:21:35.750Z</time>
      </trkpt>
      <trkpt lat="45.81834" lon="1.20926">
        <ele>251</ele>
        <time>2020-09-19T11:21:36.750Z</time>
      </trkpt>
      <trkpt lat="45.81837" lon="1.20926">
        <ele>250</ele>
        <time>2020-09-19T11:21:37.750Z</time>
      </trkpt>
      <trkpt lat="45.81841" lon="1.20925">
        <ele>250</ele>
        <time>2020-09-19T11:21:38.750Z</time>
      </trkpt>
      <trkpt lat="45.81845" lon="1.20925">
        <ele>250</ele>
        <time>2020-09-19T11:21:39.750Z</time>
      </trkpt>
      <trkpt lat="45.81848" lon="1.20924">
        <ele>249</ele>
        <time>2020-09-19T11:21:40.750Z</time>
      </trkpt>
      <trkpt lat="45.81852" lon="1.20924">
        <ele>249</ele>
        <time>2020-09-19T11:21:41.750Z</time>
      </trkpt>
      <trkpt lat="45.81855" lon="1.20923">
        <ele>248</ele>
        <time>2020-09-19T11:21:42.750Z</time>
      </trkpt>
      <trkpt lat="45.81859" lon="1.20923">
        <ele>247</ele>
        <time>2020-09-19T11:21:43.750Z</time>
      </trkpt>
      <trkpt lat="45.81863" lon="1.20923">
        <ele>247</ele>
        <time>2020-09-19T11:21:44.750Z</time>
      </trkpt>
      <trkpt lat="45.81867" lon="1.20923">
        <ele>246</ele>
        <time>2020-09-19T11:21:45.750Z</time>
      </trkpt>
      <trkpt lat="45.8187" lon="1.20923">
        <ele>246</ele>
        <time>2020-09-19T11:21:46.750Z</time>
      </trkpt>
      <trkpt lat="45.81874" lon="1.20923">
        <ele>246</ele>
        <time>2020-09-19T11:21:47.750Z</time>
      </trkpt>
      <trkpt lat="45.81878" lon="1.20923">
        <ele>246</ele>
        <time>2020-09-19T11:21:48.750Z</time>
      </trkpt>
      <trkpt lat="45.81881" lon="1.20923">
        <ele>245</ele>
        <time>2020-09-19T11:21:49.750Z</time>
      </trkpt>
      <trkpt lat="45.81884" lon="1.20922">
        <ele>245</ele>
        <time>2020-09-19T11:21:50.750Z</time>
      </trkpt>
      <trkpt lat="45.81888" lon="1.20922">
        <ele>244</ele>
        <time>2020-09-19T11:21:51.750Z</time>
      </trkpt>
      <trkpt lat="45.81891" lon="1.20922">
        <ele>243</ele>
        <time>2020-09-19T11:21:52.750Z</time>
      </trkpt>
      <trkpt lat="45.81895" lon="1.20922">
        <ele>243</ele>
        <time>2020-09-19T11:21:53.750Z</time>
      </trkpt>
      <trkpt lat="45.81898" lon="1.20922">
        <ele>242</ele>
        <time>2020-09-19T11:21:54.750Z</time>
      </trkpt>
      <trkpt lat="45.81901" lon="1.20921">
        <ele>241</ele>
        <time>2020-09-19T11:21:55.750Z</time>
      </trkpt>
      <trkpt lat="45.81905" lon="1.20921">
        <ele>241</ele>
        <time>2020-09-19T11:21:56.750Z</time>
      </trkpt>
      <trkpt lat="45.81908" lon="1.20921">
        <ele>241</ele>
        <time>2020-09-19T11:21:57.750Z</time>
      </trkpt>
      <trkpt lat="45.81912" lon="1.20921">
        <ele>240</ele>
        <time>2020-09-19T11:21:58.750Z</time>
      </trkpt>
      <trkpt lat="45.81916" lon="1.2092">
        <ele>240</ele>
        <time>2020-09-19T11:21:59.750Z</time>
      </trkpt>
      <trkpt lat="45.81919" lon="1.20919">
        <ele>240</ele>
        <time>2020-09-19T11:22:00.750Z</time>
      </trkpt>
      <trkpt lat="45.81923" lon="1.20919">
        <ele>239</ele>
        <time>2020-09-19T11:22:01.750Z</time>
      </trkpt>
      <trkpt lat="45.81926" lon="1.20919">
        <ele>238</ele>
        <time>2020-09-19T11:22:02.750Z</time>
      </trkpt>
      <trkpt lat="45.8193" lon="1.20919">
        <ele>237</ele>
        <time>2020-09-19T11:22:03.750Z</time>
      </trkpt>
      <trkpt lat="45.81933" lon="1.20919">
        <ele>237</ele>
        <time>2020-09-19T11:22:04.750Z</time>
      </trkpt>
      <trkpt lat="45.81937" lon="1.2092">
        <ele>237</ele>
        <time>2020-09-19T11:22:05.750Z</time>
      </trkpt>
      <trkpt lat="45.8194" lon="1.2092">
        <ele>237</ele>
        <time>2020-09-19T11:22:06.750Z</time>
      </trkpt>
      <trkpt lat="45.81944" lon="1.2092">
        <ele>237</ele>
        <time>2020-09-19T11:22:07.750Z</time>
      </trkpt>
      <trkpt lat="45.81948" lon="1.20919">
        <ele>237</ele>
        <time>2020-09-19T11:22:08.750Z</time>
      </trkpt>
      <trkpt lat="45.81951" lon="1.20919">
        <ele>236</ele>
        <time>2020-09-19T11:22:09.750Z</time>
      </trkpt>
      <trkpt lat="45.81954" lon="1.20918">
        <ele>235</ele>
        <time>2020-09-19T11:22:10.750Z</time>
      </trkpt>
      <trkpt lat="45.81958" lon="1.20918">
        <ele>236</ele>
        <time>2020-09-19T11:22:11.750Z</time>
      </trkpt>
      <trkpt lat="45.81962" lon="1.20917">
        <ele>237</ele>
        <time>2020-09-19T11:22:12.750Z</time>
      </trkpt>
      <trkpt lat="45.81965" lon="1.20917">
        <ele>238</ele>
        <time>2020-09-19T11:22:13.750Z</time>
      </trkpt>
      <trkpt lat="45.81969" lon="1.20916">
        <ele>238</ele>
        <time>2020-09-19T11:22:14.750Z</time>
      </trkpt>
      <trkpt lat="45.81973" lon="1.20916">
        <ele>237</ele>
        <time>2020-09-19T11:22:15.750Z</time>
      </trkpt>
      <trkpt lat="45.81976" lon="1.20916">
        <ele>237</ele>
        <time>2020-09-19T11:22:16.750Z</time>
      </trkpt>
      <trkpt lat="45.8198" lon="1.20916">
        <ele>238</ele>
        <time>2020-09-19T11:22:17.750Z</time>
      </trkpt>
      <trkpt lat="45.81983" lon="1.20916">
        <ele>237</ele>
        <time>2020-09-19T11:22:18.750Z</time>
      </trkpt>
      <trkpt lat="45.81987" lon="1.20916">
        <ele>237</ele>
        <time>2020-09-19T11:22:19.750Z</time>
      </trkpt>
      <trkpt lat="45.81991" lon="1.20915">
        <ele>238</ele>
        <time>2020-09-19T11:22:20.750Z</time>
      </trkpt>
      <trkpt lat="45.81994" lon="1.20915">
        <ele>238</ele>
        <time>2020-09-19T11:22:21.750Z</time>
      </trkpt>
      <trkpt lat="45.81998" lon="1.20914">
        <ele>238</ele>
        <time>2020-09-19T11:22:22.750Z</time>
      </trkpt>
      <trkpt lat="45.82001" lon="1.20914">
        <ele>239</ele>
        <time>2020-09-19T11:22:23.750Z</time>
      </trkpt>
      <trkpt lat="45.82005" lon="1.20914">
        <ele>238</ele>
        <time>2020-09-19T11:22:24.750Z</time>
      </trkpt>
      <trkpt lat="45.82007" lon="1.20914">
        <ele>238</ele>
        <time>2020-09-19T11:22:25.750Z</time>
      </trkpt>
      <trkpt lat="45.82009" lon="1.20912">
        <ele>236</ele>
        <time>2020-09-19T11:22:26.750Z</time>
      </trkpt>
      <trkpt lat="45.82009" lon="1.20911">
        <ele>236</ele>
        <time>2020-09-19T11:22:27.750Z</time>
      </trkpt>
      <trkpt lat="45.82008" lon="1.20911">
        <ele>235</ele>
        <time>2020-09-19T11:22:28.750Z</time>
      </trkpt>
      <trkpt lat="45.82006" lon="1.20912">
        <ele>234</ele>
        <time>2020-09-19T11:22:29.750Z</time>
      </trkpt>
      <trkpt lat="45.82003" lon="1.20914">
        <ele>234</ele>
        <time>2020-09-19T11:22:30.750Z</time>
      </trkpt>
      <trkpt lat="45.82" lon="1.20915">
        <ele>233</ele>
        <time>2020-09-19T11:22:31.750Z</time>
      </trkpt>
      <trkpt lat="45.81997" lon="1.20916">
        <ele>232</ele>
        <time>2020-09-19T11:22:32.750Z</time>
      </trkpt>
      <trkpt lat="45.81994" lon="1.20917">
        <ele>232</ele>
        <time>2020-09-19T11:22:33.750Z</time>
      </trkpt>
      <trkpt lat="45.8199" lon="1.20917">
        <ele>232</ele>
        <time>2020-09-19T11:22:34.750Z</time>
      </trkpt>
      <trkpt lat="45.81987" lon="1.20918">
        <ele>233</ele>
        <time>2020-09-19T11:22:35.750Z</time>
      </trkpt>
      <trkpt lat="45.81984" lon="1.20918">
        <ele>234</ele>
        <time>2020-09-19T11:22:36.750Z</time>
      </trkpt>
      <trkpt lat="45.81981" lon="1.20918">
        <ele>235</ele>
        <time>2020-09-19T11:22:37.750Z</time>
      </trkpt>
      <trkpt lat="45.81977" lon="1.20918">
        <ele>235</ele>
        <time>2020-09-19T11:22:38.750Z</time>
      </trkpt>
      <trkpt lat="45.81974" lon="1.20918">
        <ele>234</ele>
        <time>2020-09-19T11:22:39.750Z</time>
      </trkpt>
      <trkpt lat="45.8197" lon="1.20919">
        <ele>234</ele>
        <time>2020-09-19T11:22:40.750Z</time>
      </trkpt>
      <trkpt lat="45.81967" lon="1.20919">
        <ele>235</ele>
        <time>2020-09-19T11:22:41.750Z</time>
      </trkpt>
      <trkpt lat="45.81964" lon="1.20919">
        <ele>236</ele>
        <time>2020-09-19T11:22:42.750Z</time>
      </trkpt>
      <trkpt lat="45.8196" lon="1.20919">
        <ele>237</ele>
        <time>2020-09-19T11:22:43.750Z</time>
      </trkpt>
      <trkpt lat="45.81957" lon="1.2092">
        <ele>236</ele>
        <time>2020-09-19T11:22:44.750Z</time>
      </trkpt>
      <trkpt lat="45.81954" lon="1.2092">
        <ele>237</ele>
        <time>2020-09-19T11:22:45.750Z</time>
      </trkpt>
      <trkpt lat="45.81951" lon="1.2092">
        <ele>237</ele>
        <time>2020-09-19T11:22:46.750Z</time>
      </trkpt>
      <trkpt lat="45.81948" lon="1.20921">
        <ele>238</ele>
        <time>2020-09-19T11:22:47.750Z</time>
      </trkpt>
      <trkpt lat="45.81945" lon="1.20921">
        <ele>238</ele>
        <time>2020-09-19T11:22:48.750Z</time>
      </trkpt>
      <trkpt lat="45.81942" lon="1.20922">
        <ele>239</ele>
        <time>2020-09-19T11:22:49.750Z</time>
      </trkpt>
      <trkpt lat="45.81938" lon="1.20921">
        <ele>239</ele>
        <time>2020-09-19T11:22:50.750Z</time>
      </trkpt>
      <trkpt lat="45.81935" lon="1.20921">
        <ele>239</ele>
        <time>2020-09-19T11:22:51.750Z</time>
      </trkpt>
      <trkpt lat="45.81933" lon="1.20921">
        <ele>240</ele>
        <time>2020-09-19T11:22:52.750Z</time>
      </trkpt>
      <trkpt lat="45.8193" lon="1.20921">
        <ele>241</ele>
        <time>2020-09-19T11:22:53.750Z</time>
      </trkpt>
      <trkpt lat="45.81927" lon="1.20921">
        <ele>241</ele>
        <time>2020-09-19T11:22:54.750Z</time>
      </trkpt>
      <trkpt lat="45.81924" lon="1.20921">
        <ele>241</ele>
        <time>2020-09-19T11:22:55.750Z</time>
      </trkpt>
      <trkpt lat="45.81922" lon="1.20922">
        <ele>241</ele>
        <time>2020-09-19T11:22:56.750Z</time>
      </trkpt>
      <trkpt lat="45.81919" lon="1.20922">
        <ele>241</ele>
        <time>2020-09-19T11:22:57.750Z</time>
      </trkpt>
      <trkpt lat="45.81916" lon="1.20922">
        <ele>242</ele>
        <time>2020-09-19T11:22:58.750Z</time>
      </trkpt>
      <trkpt lat="45.81913" lon="1.20922">
        <ele>242</ele>
        <time>2020-09-19T11:22:59.750Z</time>
      </trkpt>
      <trkpt lat="45.8191" lon="1.20923">
        <ele>242</ele>
        <time>2020-09-19T11:23:00.750Z</time>
      </trkpt>
      <trkpt lat="45.81907" lon="1.20924">
        <ele>243</ele>
        <time>2020-09-19T11:23:01.750Z</time>
      </trkpt>
      <trkpt lat="45.81904" lon="1.20924">
        <ele>244</ele>
        <time>2020-09-19T11:23:02.750Z</time>
      </trkpt>
      <trkpt lat="45.81901" lon="1.20925">
        <ele>243</ele>
        <time>2020-09-19T11:23:03.750Z</time>
      </trkpt>
      <trkpt lat="45.81899" lon="1.20925">
        <ele>244</ele>
        <time>2020-09-19T11:23:04.750Z</time>
      </trkpt>
      <trkpt lat="45.81895" lon="1.20925">
        <ele>244</ele>
        <time>2020-09-19T11:23:05.750Z</time>
      </trkpt>
      <trkpt lat="45.81892" lon="1.20924">
        <ele>244</ele>
        <time>2020-09-19T11:23:06.750Z</time>
      </trkpt>
      <trkpt lat="45.81889" lon="1.20924">
        <ele>244</ele>
        <time>2020-09-19T11:23:07.750Z</time>
      </trkpt>
      <trkpt lat="45.81886" lon="1.20924">
        <ele>245</ele>
        <time>2020-09-19T11:23:08.750Z</time>
      </trkpt>
      <trkpt lat="45.81884" lon="1.20925">
        <ele>246</ele>
        <time>2020-09-19T11:23:09.750Z</time>
      </trkpt>
      <trkpt lat="45.81881" lon="1.20925">
        <ele>246</ele>
        <time>2020-09-19T11:23:10.750Z</time>
      </trkpt>
      <trkpt lat="45.81878" lon="1.20926">
        <ele>246</ele>
        <time>2020-09-19T11:23:11.750Z</time>
      </trkpt>
      <trkpt lat="45.81876" lon="1.20926">
        <ele>246</ele>
        <time>2020-09-19T11:23:12.750Z</time>
      </trkpt>
      <trkpt lat="45.81873" lon="1.20927">
        <ele>247</ele>
        <time>2020-09-19T11:23:13.750Z</time>
      </trkpt>
      <trkpt lat="45.8187" lon="1.20927">
        <ele>247</ele>
        <time>2020-09-19T11:23:14.750Z</time>
      </trkpt>
      <trkpt lat="45.81867" lon="1.20928">
        <ele>246</ele>
        <time>2020-09-19T11:23:15.750Z</time>
      </trkpt>
      <trkpt lat="45.81865" lon="1.20928">
        <ele>247</ele>
        <time>2020-09-19T11:23:16.750Z</time>
      </trkpt>
      <trkpt lat="45.81862" lon="1.20928">
        <ele>247</ele>
        <time>2020-09-19T11:23:17.750Z</time>
      </trkpt>
      <trkpt lat="45.8186" lon="1.20929">
        <ele>248</ele>
        <time>2020-09-19T11:23:18.750Z</time>
      </trkpt>
      <trkpt lat="45.81857" lon="1.20929">
        <ele>248</ele>
        <time>2020-09-19T11:23:19.750Z</time>
      </trkpt>
      <trkpt lat="45.81855" lon="1.2093">
        <ele>247</ele>
        <time>2020-09-19T11:23:20.750Z</time>
      </trkpt>
      <trkpt lat="45.81852" lon="1.20931">
        <ele>247</ele>
        <time>2020-09-19T11:23:21.750Z</time>
      </trkpt>
      <trkpt lat="45.81849" lon="1.20932">
        <ele>248</ele>
        <time>2020-09-19T11:23:22.750Z</time>
      </trkpt>
      <trkpt lat="45.81846" lon="1.20932">
        <ele>247</ele>
        <time>2020-09-19T11:23:23.750Z</time>
      </trkpt>
      <trkpt lat="45.81843" lon="1.20932">
        <ele>247</ele>
        <time>2020-09-19T11:23:24.750Z</time>
      </trkpt>
      <trkpt lat="45.8184" lon="1.20931">
        <ele>247</ele>
        <time>2020-09-19T11:23:25.750Z</time>
      </trkpt>
      <trkpt lat="45.81837" lon="1.2093">
        <ele>246</ele>
        <time>2020-09-19T11:23:26.750Z</time>
      </trkpt>
      <trkpt lat="45.81835" lon="1.2093">
        <ele>247</ele>
        <time>2020-09-19T11:23:27.750Z</time>
      </trkpt>
      <trkpt lat="45.81832" lon="1.2093">
        <ele>246</ele>
        <time>2020-09-19T11:23:28.750Z</time>
      </trkpt>
      <trkpt lat="45.81829" lon="1.2093">
        <ele>246</ele>
        <time>2020-09-19T11:23:29.750Z</time>
      </trkpt>
      <trkpt lat="45.81826" lon="1.20931">
        <ele>246</ele>
        <time>2020-09-19T11:23:30.750Z</time>
      </trkpt>
      <trkpt lat="45.81823" lon="1.20931">
        <ele>246</ele>
        <time>2020-09-19T11:23:31.750Z</time>
      </trkpt>
      <trkpt lat="45.81819" lon="1.20931">
        <ele>246</ele>
        <time>2020-09-19T11:23:32.750Z</time>
      </trkpt>
      <trkpt lat="45.81816" lon="1.20931">
        <ele>246</ele>
        <time>2020-09-19T11:23:33.750Z</time>
      </trkpt>
      <trkpt lat="45.81813" lon="1.20931">
        <ele>245</ele>
        <time>2020-09-19T11:23:34.750Z</time>
      </trkpt>
      <trkpt lat="45.81811" lon="1.20931">
        <ele>245</ele>
        <time>2020-09-19T11:23:35.750Z</time>
      </trkpt>
      <trkpt lat="45.81808" lon="1.20932">
        <ele>246</ele>
        <time>2020-09-19T11:23:36.750Z</time>
      </trkpt>
      <trkpt lat="45.81805" lon="1.20932">
        <ele>247</ele>
        <time>2020-09-19T11:23:37.750Z</time>
      </trkpt>
      <trkpt lat="45.81802" lon="1.20932">
        <ele>248</ele>
        <time>2020-09-19T11:23:38.750Z</time>
      </trkpt>
      <trkpt lat="45.81799" lon="1.20932">
        <ele>248</ele>
        <time>2020-09-19T11:23:39.750Z</time>
      </trkpt>
      <trkpt lat="45.81796" lon="1.20931">
        <ele>248</ele>
        <time>2020-09-19T11:23:40.750Z</time>
      </trkpt>
      <trkpt lat="45.81792" lon="1.20932">
        <ele>248</ele>
        <time>2020-09-19T11:23:41.750Z</time>
      </trkpt>
      <trkpt lat="45.81789" lon="1.20931">
        <ele>249</ele>
        <time>2020-09-19T11:23:42.750Z</time>
      </trkpt>
      <trkpt lat="45.81785" lon="1.20932">
        <ele>250</ele>
        <time>2020-09-19T11:23:43.750Z</time>
      </trkpt>
      <trkpt lat="45.81782" lon="1.20932">
        <ele>252</ele>
        <time>2020-09-19T11:23:44.750Z</time>
      </trkpt>
      <trkpt lat="45.81778" lon="1.20932">
        <ele>254</ele>
        <time>2020-09-19T11:23:45.750Z</time>
      </trkpt>
      <trkpt lat="45.81774" lon="1.20933">
        <ele>253</ele>
        <time>2020-09-19T11:23:46.750Z</time>
      </trkpt>
      <trkpt lat="45.81771" lon="1.20933">
        <ele>254</ele>
        <time>2020-09-19T11:23:47.750Z</time>
      </trkpt>
      <trkpt lat="45.81768" lon="1.20933">
        <ele>255</ele>
        <time>2020-09-19T11:23:48.750Z</time>
      </trkpt>
      <trkpt lat="45.81765" lon="1.20934">
        <ele>255</ele>
        <time>2020-09-19T11:23:49.750Z</time>
      </trkpt>
      <trkpt lat="45.81762" lon="1.20934">
        <ele>255</ele>
        <time>2020-09-19T11:23:50.750Z</time>
      </trkpt>
      <trkpt lat="45.81759" lon="1.20934">
        <ele>256</ele>
        <time>2020-09-19T11:23:51.750Z</time>
      </trkpt>
      <trkpt lat="45.81756" lon="1.20934">
        <ele>256</ele>
        <time>2020-09-19T11:23:52.750Z</time>
      </trkpt>
      <trkpt lat="45.81752" lon="1.20935">
        <ele>257</ele>
        <time>2020-09-19T11:23:53.750Z</time>
      </trkpt>
      <trkpt lat="45.81749" lon="1.20935">
        <ele>258</ele>
        <time>2020-09-19T11:23:54.750Z</time>
      </trkpt>
      <trkpt lat="45.81746" lon="1.20935">
        <ele>259</ele>
        <time>2020-09-19T11:23:55.750Z</time>
      </trkpt>
      <trkpt lat="45.81743" lon="1.20935">
        <ele>260</ele>
        <time>2020-09-19T11:23:56.750Z</time>
      </trkpt>
      <trkpt lat="45.8174" lon="1.20935">
        <ele>261</ele>
        <time>2020-09-19T11:23:57.750Z</time>
      </trkpt>
      <trkpt lat="45.81738" lon="1.20936">
        <ele>263</ele>
        <time>2020-09-19T11:23:58.750Z</time>
      </trkpt>
      <trkpt lat="45.81735" lon="1.20936">
        <ele>263</ele>
        <time>2020-09-19T11:23:59.750Z</time>
      </trkpt>
      <trkpt lat="45.81733" lon="1.20937">
        <ele>263</ele>
        <time>2020-09-19T11:24:00.750Z</time>
      </trkpt>
      <trkpt lat="45.8173" lon="1.20937">
        <ele>263</ele>
        <time>2020-09-19T11:24:01.750Z</time>
      </trkpt>
      <trkpt lat="45.81728" lon="1.20937">
        <ele>263</ele>
        <time>2020-09-19T11:24:02.750Z</time>
      </trkpt>
      <trkpt lat="45.81725" lon="1.20937">
        <ele>263</ele>
        <time>2020-09-19T11:24:03.750Z</time>
      </trkpt>
      <trkpt lat="45.81722" lon="1.20937">
        <ele>262</ele>
        <time>2020-09-19T11:24:04.750Z</time>
      </trkpt>
      <trkpt lat="45.81719" lon="1.20937">
        <ele>261</ele>
        <time>2020-09-19T11:24:05.750Z</time>
      </trkpt>
      <trkpt lat="45.81716" lon="1.20937">
        <ele>262</ele>
        <time>2020-09-19T11:24:06.750Z</time>
      </trkpt>
      <trkpt lat="45.81713" lon="1.20937">
        <ele>262</ele>
        <time>2020-09-19T11:24:07.750Z</time>
      </trkpt>
      <trkpt lat="45.8171" lon="1.20938">
        <ele>262</ele>
        <time>2020-09-19T11:24:08.750Z</time>
      </trkpt>
      <trkpt lat="45.81706" lon="1.20938">
        <ele>262</ele>
        <time>2020-09-19T11:24:09.750Z</time>
      </trkpt>
      <trkpt lat="45.81703" lon="1.20938">
        <ele>263</ele>
        <time>2020-09-19T11:24:10.750Z</time>
      </trkpt>
      <trkpt lat="45.817" lon="1.20938">
        <ele>264</ele>
        <time>2020-09-19T11:24:11.750Z</time>
      </trkpt>
      <trkpt lat="45.81697" lon="1.20939">
        <ele>264</ele>
        <time>2020-09-19T11:24:12.750Z</time>
      </trkpt>
      <trkpt lat="45.81694" lon="1.20939">
        <ele>263</ele>
        <time>2020-09-19T11:24:13.750Z</time>
      </trkpt>
      <trkpt lat="45.8169" lon="1.20939">
        <ele>264</ele>
        <time>2020-09-19T11:24:14.750Z</time>
      </trkpt>
      <trkpt lat="45.81687" lon="1.20939">
        <ele>265</ele>
        <time>2020-09-19T11:24:15.750Z</time>
      </trkpt>
      <trkpt lat="45.81684" lon="1.2094">
        <ele>264</ele>
        <time>2020-09-19T11:24:16.750Z</time>
      </trkpt>
      <trkpt lat="45.8168" lon="1.2094">
        <ele>265</ele>
        <time>2020-09-19T11:24:17.750Z</time>
      </trkpt>
      <trkpt lat="45.81677" lon="1.20941">
        <ele>265</ele>
        <time>2020-09-19T11:24:18.750Z</time>
      </trkpt>
      <trkpt lat="45.81674" lon="1.20941">
        <ele>265</ele>
        <time>2020-09-19T11:24:19.750Z</time>
      </trkpt>
      <trkpt lat="45.81671" lon="1.20942">
        <ele>265</ele>
        <time>2020-09-19T11:24:20.750Z</time>
      </trkpt>
      <trkpt lat="45.81668" lon="1.20942">
        <ele>265</ele>
        <time>2020-09-19T11:24:21.750Z</time>
      </trkpt>
      <trkpt lat="45.81665" lon="1.20943">
        <ele>266</ele>
        <time>2020-09-19T11:24:22.750Z</time>
      </trkpt>
      <trkpt lat="45.81662" lon="1.20943">
        <ele>266</ele>
        <time>2020-09-19T11:24:23.750Z</time>
      </trkpt>
      <trkpt lat="45.8166" lon="1.20945">
        <ele>267</ele>
        <time>2020-09-19T11:24:24.750Z</time>
      </trkpt>
      <trkpt lat="45.81658" lon="1.20946">
        <ele>266</ele>
        <time>2020-09-19T11:24:25.750Z</time>
      </trkpt>
      <trkpt lat="45.81655" lon="1.20948">
        <ele>267</ele>
        <time>2020-09-19T11:24:26.750Z</time>
      </trkpt>
      <trkpt lat="45.81653" lon="1.20949">
        <ele>266</ele>
        <time>2020-09-19T11:24:27.750Z</time>
      </trkpt>
      <trkpt lat="45.8165" lon="1.20952">
        <ele>266</ele>
        <time>2020-09-19T11:24:28.750Z</time>
      </trkpt>
      <trkpt lat="45.81648" lon="1.20954">
        <ele>265</ele>
        <time>2020-09-19T11:24:29.750Z</time>
      </trkpt>
      <trkpt lat="45.81646" lon="1.20956">
        <ele>265</ele>
        <time>2020-09-19T11:24:30.750Z</time>
      </trkpt>
      <trkpt lat="45.81644" lon="1.20959">
        <ele>264</ele>
        <time>2020-09-19T11:24:31.750Z</time>
      </trkpt>
      <trkpt lat="45.81642" lon="1.20963">
        <ele>264</ele>
        <time>2020-09-19T11:24:32.750Z</time>
      </trkpt>
      <trkpt lat="45.81641" lon="1.20966">
        <ele>264</ele>
        <time>2020-09-19T11:24:33.750Z</time>
      </trkpt>
      <trkpt lat="45.81639" lon="1.20969">
        <ele>263</ele>
        <time>2020-09-19T11:24:34.750Z</time>
      </trkpt>
      <trkpt lat="45.81637" lon="1.20973">
        <ele>263</ele>
        <time>2020-09-19T11:24:35.750Z</time>
      </trkpt>
      <trkpt lat="45.81635" lon="1.20976">
        <ele>263</ele>
        <time>2020-09-19T11:24:36.750Z</time>
      </trkpt>
      <trkpt lat="45.81634" lon="1.2098">
        <ele>263</ele>
        <time>2020-09-19T11:24:37.750Z</time>
      </trkpt>
      <trkpt lat="45.81632" lon="1.20984">
        <ele>263</ele>
        <time>2020-09-19T11:24:38.750Z</time>
      </trkpt>
      <trkpt lat="45.8163" lon="1.20987">
        <ele>264</ele>
        <time>2020-09-19T11:24:39.750Z</time>
      </trkpt>
      <trkpt lat="45.81628" lon="1.20991">
        <ele>264</ele>
        <time>2020-09-19T11:24:40.750Z</time>
      </trkpt>
      <trkpt lat="45.81627" lon="1.20995">
        <ele>264</ele>
        <time>2020-09-19T11:24:41.750Z</time>
      </trkpt>
      <trkpt lat="45.81625" lon="1.20999">
        <ele>264</ele>
        <time>2020-09-19T11:24:42.750Z</time>
      </trkpt>
      <trkpt lat="45.81623" lon="1.21002">
        <ele>265</ele>
        <time>2020-09-19T11:24:43.750Z</time>
      </trkpt>
      <trkpt lat="45.81622" lon="1.21006">
        <ele>265</ele>
        <time>2020-09-19T11:24:44.750Z</time>
      </trkpt>
      <trkpt lat="45.8162" lon="1.2101">
        <ele>265</ele>
        <time>2020-09-19T11:24:45.750Z</time>
      </trkpt>
      <trkpt lat="45.81619" lon="1.21013">
        <ele>265</ele>
        <time>2020-09-19T11:24:46.750Z</time>
      </trkpt>
      <trkpt lat="45.81618" lon="1.21017">
        <ele>265</ele>
        <time>2020-09-19T11:24:47.750Z</time>
      </trkpt>
      <trkpt lat="45.81617" lon="1.2102">
        <ele>266</ele>
        <time>2020-09-19T11:24:48.750Z</time>
      </trkpt>
      <trkpt lat="45.81616" lon="1.21022">
        <ele>265</ele>
        <time>2020-09-19T11:24:49.750Z</time>
      </trkpt>
      <trkpt lat="45.81613" lon="1.21023">
        <ele>265</ele>
        <time>2020-09-19T11:24:50.750Z</time>
      </trkpt>
      <trkpt lat="45.81611" lon="1.21024">
        <ele>264</ele>
        <time>2020-09-19T11:24:51.750Z</time>
      </trkpt>
      <trkpt lat="45.81608" lon="1.21024">
        <ele>264</ele>
        <time>2020-09-19T11:24:52.750Z</time>
      </trkpt>
      <trkpt lat="45.81606" lon="1.21025">
        <ele>265</ele>
        <time>2020-09-19T11:24:53.750Z</time>
      </trkpt>
      <trkpt lat="45.81604" lon="1.21027">
        <ele>264</ele>
        <time>2020-09-19T11:24:54.750Z</time>
      </trkpt>
      <trkpt lat="45.81603" lon="1.21029">
        <ele>264</ele>
        <time>2020-09-19T11:24:55.750Z</time>
      </trkpt>
      <trkpt lat="45.81602" lon="1.21032">
        <ele>264</ele>
        <time>2020-09-19T11:24:56.750Z</time>
      </trkpt>
      <trkpt lat="45.816" lon="1.21035">
        <ele>264</ele>
        <time>2020-09-19T11:24:57.750Z</time>
      </trkpt>
      <trkpt lat="45.81599" lon="1.21038">
        <ele>264</ele>
        <time>2020-09-19T11:24:58.750Z</time>
      </trkpt>
      <trkpt lat="45.81598" lon="1.21041">
        <ele>264</ele>
        <time>2020-09-19T11:24:59.750Z</time>
      </trkpt>
      <trkpt lat="45.81597" lon="1.21045">
        <ele>265</ele>
        <time>2020-09-19T11:25:00.750Z</time>
      </trkpt>
      <trkpt lat="45.81595" lon="1.21048">
        <ele>265</ele>
        <time>2020-09-19T11:25:01.750Z</time>
      </trkpt>
      <trkpt lat="45.81594" lon="1.21051">
        <ele>264</ele>
        <time>2020-09-19T11:25:02.750Z</time>
      </trkpt>
      <trkpt lat="45.81594" lon="1.21054">
        <ele>265</ele>
        <time>2020-09-19T11:25:03.750Z</time>
      </trkpt>
      <trkpt lat="45.81593" lon="1.21057">
        <ele>265</ele>
        <time>2020-09-19T11:25:04.750Z</time>
      </trkpt>
      <trkpt lat="45.81592" lon="1.2106">
        <ele>265</ele>
        <time>2020-09-19T11:25:05.750Z</time>
      </trkpt>
      <trkpt lat="45.81592" lon="1.21064">
        <ele>265</ele>
        <time>2020-09-19T11:25:06.750Z</time>
      </trkpt>
      <trkpt lat="45.81591" lon="1.21067">
        <ele>266</ele>
        <time>2020-09-19T11:25:07.750Z</time>
      </trkpt>
      <trkpt lat="45.81591" lon="1.2107">
        <ele>266</ele>
        <time>2020-09-19T11:25:08.750Z</time>
      </trkpt>
      <trkpt lat="45.81591" lon="1.21073">
        <ele>266</ele>
        <time>2020-09-19T11:25:09.750Z</time>
      </trkpt>
      <trkpt lat="45.81591" lon="1.21076">
        <ele>266</ele>
        <time>2020-09-19T11:25:10.750Z</time>
      </trkpt>
      <trkpt lat="45.81592" lon="1.21079">
        <ele>267</ele>
        <time>2020-09-19T11:25:11.750Z</time>
      </trkpt>
      <trkpt lat="45.81592" lon="1.21083">
        <ele>267</ele>
        <time>2020-09-19T11:25:12.750Z</time>
      </trkpt>
      <trkpt lat="45.81592" lon="1.21087">
        <ele>268</ele>
        <time>2020-09-19T11:25:13.750Z</time>
      </trkpt>
      <trkpt lat="45.81592" lon="1.2109">
        <ele>269</ele>
        <time>2020-09-19T11:25:14.750Z</time>
      </trkpt>
      <trkpt lat="45.81593" lon="1.21094">
        <ele>269</ele>
        <time>2020-09-19T11:25:15.750Z</time>
      </trkpt>
      <trkpt lat="45.81593" lon="1.21098">
        <ele>268</ele>
        <time>2020-09-19T11:25:16.750Z</time>
      </trkpt>
      <trkpt lat="45.81593" lon="1.21103">
        <ele>268</ele>
        <time>2020-09-19T11:25:17.750Z</time>
      </trkpt>
      <trkpt lat="45.81593" lon="1.21107">
        <ele>268</ele>
        <time>2020-09-19T11:25:18.750Z</time>
      </trkpt>
      <trkpt lat="45.81593" lon="1.21112">
        <ele>267</ele>
        <time>2020-09-19T11:25:19.750Z</time>
      </trkpt>
      <trkpt lat="45.81594" lon="1.21116">
        <ele>268</ele>
        <time>2020-09-19T11:25:20.750Z</time>
      </trkpt>
      <trkpt lat="45.81594" lon="1.2112">
        <ele>268</ele>
        <time>2020-09-19T11:25:21.750Z</time>
      </trkpt>
      <trkpt lat="45.81595" lon="1.21124">
        <ele>269</ele>
        <time>2020-09-19T11:25:22.750Z</time>
      </trkpt>
      <trkpt lat="45.81595" lon="1.21129">
        <ele>269</ele>
        <time>2020-09-19T11:25:23.750Z</time>
      </trkpt>
      <trkpt lat="45.81596" lon="1.21133">
        <ele>269</ele>
        <time>2020-09-19T11:25:24.750Z</time>
      </trkpt>
      <trkpt lat="45.81597" lon="1.21138">
        <ele>269</ele>
        <time>2020-09-19T11:25:25.750Z</time>
      </trkpt>
      <trkpt lat="45.81597" lon="1.21143">
        <ele>270</ele>
        <time>2020-09-19T11:25:26.750Z</time>
      </trkpt>
      <trkpt lat="45.81598" lon="1.21149">
        <ele>270</ele>
        <time>2020-09-19T11:25:27.750Z</time>
      </trkpt>
      <trkpt lat="45.81598" lon="1.21154">
        <ele>271</ele>
        <time>2020-09-19T11:25:28.750Z</time>
      </trkpt>
      <trkpt lat="45.81598" lon="1.21158">
        <ele>272</ele>
        <time>2020-09-19T11:25:29.750Z</time>
      </trkpt>
      <trkpt lat="45.81599" lon="1.21163">
        <ele>272</ele>
        <time>2020-09-19T11:25:30.750Z</time>
      </trkpt>
      <trkpt lat="45.81599" lon="1.21168">
        <ele>271</ele>
        <time>2020-09-19T11:25:31.750Z</time>
      </trkpt>
      <trkpt lat="45.81599" lon="1.21173">
        <ele>271</ele>
        <time>2020-09-19T11:25:32.750Z</time>
      </trkpt>
      <trkpt lat="45.816" lon="1.21177">
        <ele>272</ele>
        <time>2020-09-19T11:25:33.750Z</time>
      </trkpt>
      <trkpt lat="45.816" lon="1.21182">
        <ele>273</ele>
        <time>2020-09-19T11:25:34.750Z</time>
      </trkpt>
      <trkpt lat="45.81601" lon="1.21187">
        <ele>272</ele>
        <time>2020-09-19T11:25:35.750Z</time>
      </trkpt>
      <trkpt lat="45.81602" lon="1.21191">
        <ele>273</ele>
        <time>2020-09-19T11:25:36.750Z</time>
      </trkpt>
      <trkpt lat="45.81602" lon="1.21196">
        <ele>274</ele>
        <time>2020-09-19T11:25:37.750Z</time>
      </trkpt>
      <trkpt lat="45.81603" lon="1.212">
        <ele>275</ele>
        <time>2020-09-19T11:25:38.750Z</time>
      </trkpt>
      <trkpt lat="45.81604" lon="1.21204">
        <ele>275</ele>
        <time>2020-09-19T11:25:39.750Z</time>
      </trkpt>
      <trkpt lat="45.81605" lon="1.21209">
        <ele>276</ele>
        <time>2020-09-19T11:25:40.750Z</time>
      </trkpt>
      <trkpt lat="45.81606" lon="1.21213">
        <ele>276</ele>
        <time>2020-09-19T11:25:41.750Z</time>
      </trkpt>
      <trkpt lat="45.81607" lon="1.21217">
        <ele>277</ele>
        <time>2020-09-19T11:25:42.750Z</time>
      </trkpt>
      <trkpt lat="45.81607" lon="1.21221">
        <ele>276</ele>
        <time>2020-09-19T11:25:43.750Z</time>
      </trkpt>
      <trkpt lat="45.81608" lon="1.21226">
        <ele>277</ele>
        <time>2020-09-19T11:25:44.750Z</time>
      </trkpt>
      <trkpt lat="45.81608" lon="1.2123">
        <ele>276</ele>
        <time>2020-09-19T11:25:45.750Z</time>
      </trkpt>
      <trkpt lat="45.81609" lon="1.21235">
        <ele>275</ele>
        <time>2020-09-19T11:25:46.750Z</time>
      </trkpt>
      <trkpt lat="45.81609" lon="1.2124">
        <ele>276</ele>
        <time>2020-09-19T11:25:47.750Z</time>
      </trkpt>
      <trkpt lat="45.8161" lon="1.21244">
        <ele>276</ele>
        <time>2020-09-19T11:25:48.750Z</time>
      </trkpt>
      <trkpt lat="45.81611" lon="1.21248">
        <ele>276</ele>
        <time>2020-09-19T11:25:49.750Z</time>
      </trkpt>
      <trkpt lat="45.81611" lon="1.21253">
        <ele>276</ele>
        <time>2020-09-19T11:25:50.750Z</time>
      </trkpt>
      <trkpt lat="45.81611" lon="1.21258">
        <ele>276</ele>
        <time>2020-09-19T11:25:51.750Z</time>
      </trkpt>
      <trkpt lat="45.81612" lon="1.21262">
        <ele>277</ele>
        <time>2020-09-19T11:25:52.750Z</time>
      </trkpt>
      <trkpt lat="45.81612" lon="1.21266">
        <ele>277</ele>
        <time>2020-09-19T11:25:53.750Z</time>
      </trkpt>
      <trkpt lat="45.81613" lon="1.21271">
        <ele>277</ele>
        <time>2020-09-19T11:25:54.750Z</time>
      </trkpt>
      <trkpt lat="45.81614" lon="1.21275">
        <ele>278</ele>
        <time>2020-09-19T11:25:55.750Z</time>
      </trkpt>
      <trkpt lat="45.81614" lon="1.2128">
        <ele>278</ele>
        <time>2020-09-19T11:25:56.750Z</time>
      </trkpt>
      <trkpt lat="45.81615" lon="1.21284">
        <ele>278</ele>
        <time>2020-09-19T11:25:57.750Z</time>
      </trkpt>
      <trkpt lat="45.81615" lon="1.21288">
        <ele>277</ele>
        <time>2020-09-19T11:25:58.750Z</time>
      </trkpt>
      <trkpt lat="45.81616" lon="1.21292">
        <ele>277</ele>
        <time>2020-09-19T11:25:59.750Z</time>
      </trkpt>
      <trkpt lat="45.81616" lon="1.21297">
        <ele>278</ele>
        <time>2020-09-19T11:26:00.750Z</time>
      </trkpt>
      <trkpt lat="45.81617" lon="1.21301">
        <ele>278</ele>
        <time>2020-09-19T11:26:01.750Z</time>
      </trkpt>
      <trkpt lat="45.81617" lon="1.21306">
        <ele>279</ele>
        <time>2020-09-19T11:26:02.750Z</time>
      </trkpt>
      <trkpt lat="45.81618" lon="1.2131">
        <ele>279</ele>
        <time>2020-09-19T11:26:03.750Z</time>
      </trkpt>
      <trkpt lat="45.81619" lon="1.21314">
        <ele>279</ele>
        <time>2020-09-19T11:26:04.750Z</time>
      </trkpt>
      <trkpt lat="45.81619" lon="1.21319">
        <ele>280</ele>
        <time>2020-09-19T11:26:05.750Z</time>
      </trkpt>
      <trkpt lat="45.8162" lon="1.21323">
        <ele>280</ele>
        <time>2020-09-19T11:26:06.750Z</time>
      </trkpt>
      <trkpt lat="45.8162" lon="1.21328">
        <ele>281</ele>
        <time>2020-09-19T11:26:07.750Z</time>
      </trkpt>
      <trkpt lat="45.8162" lon="1.21332">
        <ele>281</ele>
        <time>2020-09-19T11:26:08.750Z</time>
      </trkpt>
      <trkpt lat="45.8162" lon="1.21337">
        <ele>281</ele>
        <time>2020-09-19T11:26:09.750Z</time>
      </trkpt>
      <trkpt lat="45.81621" lon="1.21341">
        <ele>281</ele>
        <time>2020-09-19T11:26:10.750Z</time>
      </trkpt>
      <trkpt lat="45.81622" lon="1.21345">
        <ele>281</ele>
        <time>2020-09-19T11:26:11.750Z</time>
      </trkpt>
      <trkpt lat="45.81622" lon="1.2135">
        <ele>281</ele>
        <time>2020-09-19T11:26:12.750Z</time>
      </trkpt>
      <trkpt lat="45.81623" lon="1.21354">
        <ele>281</ele>
        <time>2020-09-19T11:26:13.750Z</time>
      </trkpt>
      <trkpt lat="45.81623" lon="1.21358">
        <ele>282</ele>
        <time>2020-09-19T11:26:14.750Z</time>
      </trkpt>
      <trkpt lat="45.81623" lon="1.21363">
        <ele>282</ele>
        <time>2020-09-19T11:26:15.750Z</time>
      </trkpt>
      <trkpt lat="45.81623" lon="1.21367">
        <ele>282</ele>
        <time>2020-09-19T11:26:16.750Z</time>
      </trkpt>
      <trkpt lat="45.81623" lon="1.21372">
        <ele>282</ele>
        <time>2020-09-19T11:26:17.750Z</time>
      </trkpt>
      <trkpt lat="45.81623" lon="1.21376">
        <ele>282</ele>
        <time>2020-09-19T11:26:18.750Z</time>
      </trkpt>
      <trkpt lat="45.81623" lon="1.2138">
        <ele>282</ele>
        <time>2020-09-19T11:26:19.750Z</time>
      </trkpt>
      <trkpt lat="45.81624" lon="1.21384">
        <ele>283</ele>
        <time>2020-09-19T11:26:20.750Z</time>
      </trkpt>
      <trkpt lat="45.81624" lon="1.21389">
        <ele>282</ele>
        <time>2020-09-19T11:26:21.750Z</time>
      </trkpt>
      <trkpt lat="45.81624" lon="1.21393">
        <ele>283</ele>
        <time>2020-09-19T11:26:22.750Z</time>
      </trkpt>
      <trkpt lat="45.81624" lon="1.21398">
        <ele>283</ele>
        <time>2020-09-19T11:26:23.750Z</time>
      </trkpt>
      <trkpt lat="45.81625" lon="1.21402">
        <ele>283</ele>
        <time>2020-09-19T11:26:24.750Z</time>
      </trkpt>
      <trkpt lat="45.81626" lon="1.21406">
        <ele>283</ele>
        <time>2020-09-19T11:26:25.750Z</time>
      </trkpt>
      <trkpt lat="45.81626" lon="1.2141">
        <ele>283</ele>
        <time>2020-09-19T11:26:26.750Z</time>
      </trkpt>
      <trkpt lat="45.81626" lon="1.21414">
        <ele>282</ele>
        <time>2020-09-19T11:26:27.750Z</time>
      </trkpt>
      <trkpt lat="45.81626" lon="1.21418">
        <ele>282</ele>
        <time>2020-09-19T11:26:28.750Z</time>
      </trkpt>
      <trkpt lat="45.81626" lon="1.21421">
        <ele>282</ele>
        <time>2020-09-19T11:26:29.750Z</time>
      </trkpt>
      <trkpt lat="45.81626" lon="1.21425">
        <ele>282</ele>
        <time>2020-09-19T11:26:30.750Z</time>
      </trkpt>
      <trkpt lat="45.81626" lon="1.2143">
        <ele>283</ele>
        <time>2020-09-19T11:26:31.750Z</time>
      </trkpt>
      <trkpt lat="45.81626" lon="1.21434">
        <ele>283</ele>
        <time>2020-09-19T11:26:32.750Z</time>
      </trkpt>
      <trkpt lat="45.81626" lon="1.21438">
        <ele>283</ele>
        <time>2020-09-19T11:26:33.750Z</time>
      </trkpt>
      <trkpt lat="45.81625" lon="1.21442">
        <ele>284</ele>
        <time>2020-09-19T11:26:34.750Z</time>
      </trkpt>
      <trkpt lat="45.81624" lon="1.21446">
        <ele>285</ele>
        <time>2020-09-19T11:26:35.750Z</time>
      </trkpt>
      <trkpt lat="45.81624" lon="1.2145">
        <ele>284</ele>
        <time>2020-09-19T11:26:36.750Z</time>
      </trkpt>
      <trkpt lat="45.81623" lon="1.21454">
        <ele>283</ele>
        <time>2020-09-19T11:26:37.750Z</time>
      </trkpt>
      <trkpt lat="45.81622" lon="1.21458">
        <ele>284</ele>
        <time>2020-09-19T11:26:38.750Z</time>
      </trkpt>
      <trkpt lat="45.81622" lon="1.21462">
        <ele>284</ele>
        <time>2020-09-19T11:26:39.750Z</time>
      </trkpt>
      <trkpt lat="45.8162" lon="1.21466">
        <ele>283</ele>
        <time>2020-09-19T11:26:40.750Z</time>
      </trkpt>
      <trkpt lat="45.81619" lon="1.2147">
        <ele>284</ele>
        <time>2020-09-19T11:26:41.750Z</time>
      </trkpt>
      <trkpt lat="45.81617" lon="1.21474">
        <ele>283</ele>
        <time>2020-09-19T11:26:42.750Z</time>
      </trkpt>
      <trkpt lat="45.81615" lon="1.21478">
        <ele>283</ele>
        <time>2020-09-19T11:26:43.750Z</time>
      </trkpt>
      <trkpt lat="45.81613" lon="1.21482">
        <ele>284</ele>
        <time>2020-09-19T11:26:44.750Z</time>
      </trkpt>
      <trkpt lat="45.81611" lon="1.21485">
        <ele>285</ele>
        <time>2020-09-19T11:26:45.750Z</time>
      </trkpt>
      <trkpt lat="45.8161" lon="1.21488">
        <ele>285</ele>
        <time>2020-09-19T11:26:46.750Z</time>
      </trkpt>
      <trkpt lat="45.81607" lon="1.21491">
        <ele>286</ele>
        <time>2020-09-19T11:26:47.750Z</time>
      </trkpt>
      <trkpt lat="45.81605" lon="1.21493">
        <ele>285</ele>
        <time>2020-09-19T11:26:48.750Z</time>
      </trkpt>
      <trkpt lat="45.81603" lon="1.21495">
        <ele>286</ele>
        <time>2020-09-19T11:26:49.750Z</time>
      </trkpt>
      <trkpt lat="45.816" lon="1.21497">
        <ele>286</ele>
        <time>2020-09-19T11:26:50.750Z</time>
      </trkpt>
      <trkpt lat="45.81597" lon="1.21498">
        <ele>288</ele>
        <time>2020-09-19T11:26:51.750Z</time>
      </trkpt>
      <trkpt lat="45.81594" lon="1.21498">
        <ele>289</ele>
        <time>2020-09-19T11:26:52.750Z</time>
      </trkpt>
      <trkpt lat="45.8159" lon="1.21499">
        <ele>289</ele>
        <time>2020-09-19T11:26:53.750Z</time>
      </trkpt>
      <trkpt lat="45.81587" lon="1.21498">
        <ele>289</ele>
        <time>2020-09-19T11:26:54.750Z</time>
      </trkpt>
      <trkpt lat="45.81584" lon="1.21498">
        <ele>289</ele>
        <time>2020-09-19T11:26:55.750Z</time>
      </trkpt>
      <trkpt lat="45.81581" lon="1.21497">
        <ele>290</ele>
        <time>2020-09-19T11:26:56.750Z</time>
      </trkpt>
      <trkpt lat="45.81578" lon="1.21496">
        <ele>290</ele>
        <time>2020-09-19T11:26:57.750Z</time>
      </trkpt>
      <trkpt lat="45.81575" lon="1.21495">
        <ele>290</ele>
        <time>2020-09-19T11:26:58.750Z</time>
      </trkpt>
      <trkpt lat="45.81572" lon="1.21494">
        <ele>290</ele>
        <time>2020-09-19T11:26:59.750Z</time>
      </trkpt>
      <trkpt lat="45.81569" lon="1.21493">
        <ele>290</ele>
        <time>2020-09-19T11:27:00.750Z</time>
      </trkpt>
      <trkpt lat="45.81566" lon="1.21492">
        <ele>290</ele>
        <time>2020-09-19T11:27:01.750Z</time>
      </trkpt>
      <trkpt lat="45.81563" lon="1.21491">
        <ele>291</ele>
        <time>2020-09-19T11:27:02.750Z</time>
      </trkpt>
      <trkpt lat="45.8156" lon="1.21489">
        <ele>292</ele>
        <time>2020-09-19T11:27:03.750Z</time>
      </trkpt>
      <trkpt lat="45.81557" lon="1.21488">
        <ele>292</ele>
        <time>2020-09-19T11:27:04.750Z</time>
      </trkpt>
      <trkpt lat="45.81554" lon="1.21487">
        <ele>292</ele>
        <time>2020-09-19T11:27:05.750Z</time>
      </trkpt>
      <trkpt lat="45.81551" lon="1.21486">
        <ele>292</ele>
        <time>2020-09-19T11:27:06.750Z</time>
      </trkpt>
      <trkpt lat="45.81548" lon="1.21485">
        <ele>292</ele>
        <time>2020-09-19T11:27:07.750Z</time>
      </trkpt>
      <trkpt lat="45.81545" lon="1.21484">
        <ele>293</ele>
        <time>2020-09-19T11:27:08.750Z</time>
      </trkpt>
      <trkpt lat="45.81543" lon="1.21483">
        <ele>293</ele>
        <time>2020-09-19T11:27:09.750Z</time>
      </trkpt>
      <trkpt lat="45.8154" lon="1.21482">
        <ele>293</ele>
        <time>2020-09-19T11:27:10.750Z</time>
      </trkpt>
      <trkpt lat="45.81537" lon="1.21481">
        <ele>293</ele>
        <time>2020-09-19T11:27:11.750Z</time>
      </trkpt>
      <trkpt lat="45.81535" lon="1.2148">
        <ele>294</ele>
        <time>2020-09-19T11:27:12.750Z</time>
      </trkpt>
      <trkpt lat="45.81532" lon="1.21478">
        <ele>293</ele>
        <time>2020-09-19T11:27:13.750Z</time>
      </trkpt>
      <trkpt lat="45.8153" lon="1.21477">
        <ele>294</ele>
        <time>2020-09-19T11:27:14.750Z</time>
      </trkpt>
      <trkpt lat="45.81527" lon="1.21475">
        <ele>294</ele>
        <time>2020-09-19T11:27:15.750Z</time>
      </trkpt>
      <trkpt lat="45.81525" lon="1.21474">
        <ele>295</ele>
        <time>2020-09-19T11:27:16.750Z</time>
      </trkpt>
      <trkpt lat="45.81522" lon="1.21473">
        <ele>295</ele>
        <time>2020-09-19T11:27:17.750Z</time>
      </trkpt>
      <trkpt lat="45.8152" lon="1.21472">
        <ele>295</ele>
        <time>2020-09-19T11:27:18.750Z</time>
      </trkpt>
      <trkpt lat="45.81517" lon="1.21471">
        <ele>296</ele>
        <time>2020-09-19T11:27:19.750Z</time>
      </trkpt>
      <trkpt lat="45.81515" lon="1.21469">
        <ele>296</ele>
        <time>2020-09-19T11:27:20.750Z</time>
      </trkpt>
      <trkpt lat="45.81512" lon="1.21468">
        <ele>296</ele>
        <time>2020-09-19T11:27:21.750Z</time>
      </trkpt>
      <trkpt lat="45.8151" lon="1.21466">
        <ele>296</ele>
        <time>2020-09-19T11:27:22.750Z</time>
      </trkpt>
      <trkpt lat="45.81507" lon="1.21465">
        <ele>296</ele>
        <time>2020-09-19T11:27:23.750Z</time>
      </trkpt>
      <trkpt lat="45.81504" lon="1.21463">
        <ele>297</ele>
        <time>2020-09-19T11:27:24.750Z</time>
      </trkpt>
      <trkpt lat="45.81502" lon="1.21462">
        <ele>297</ele>
        <time>2020-09-19T11:27:25.750Z</time>
      </trkpt>
      <trkpt lat="45.81499" lon="1.21461">
        <ele>297</ele>
        <time>2020-09-19T11:27:26.750Z</time>
      </trkpt>
      <trkpt lat="45.81496" lon="1.2146">
        <ele>297</ele>
        <time>2020-09-19T11:27:27.750Z</time>
      </trkpt>
      <trkpt lat="45.81493" lon="1.21458">
        <ele>297</ele>
        <time>2020-09-19T11:27:28.750Z</time>
      </trkpt>
      <trkpt lat="45.81491" lon="1.21457">
        <ele>296</ele>
        <time>2020-09-19T11:27:29.750Z</time>
      </trkpt>
      <trkpt lat="45.81488" lon="1.21456">
        <ele>296</ele>
        <time>2020-09-19T11:27:30.750Z</time>
      </trkpt>
      <trkpt lat="45.81485" lon="1.21455">
        <ele>296</ele>
        <time>2020-09-19T11:27:31.750Z</time>
      </trkpt>
      <trkpt lat="45.81482" lon="1.21454">
        <ele>296</ele>
        <time>2020-09-19T11:27:32.750Z</time>
      </trkpt>
      <trkpt lat="45.81479" lon="1.21453">
        <ele>295</ele>
        <time>2020-09-19T11:27:33.750Z</time>
      </trkpt>
      <trkpt lat="45.81477" lon="1.21451">
        <ele>296</ele>
        <time>2020-09-19T11:27:34.750Z</time>
      </trkpt>
      <trkpt lat="45.81474" lon="1.2145">
        <ele>296</ele>
        <time>2020-09-19T11:27:35.750Z</time>
      </trkpt>
      <trkpt lat="45.81471" lon="1.21449">
        <ele>296</ele>
        <time>2020-09-19T11:27:36.750Z</time>
      </trkpt>
      <trkpt lat="45.81469" lon="1.21448">
        <ele>297</ele>
        <time>2020-09-19T11:27:37.750Z</time>
      </trkpt>
      <trkpt lat="45.81466" lon="1.21446">
        <ele>297</ele>
        <time>2020-09-19T11:27:38.750Z</time>
      </trkpt>
      <trkpt lat="45.81463" lon="1.21445">
        <ele>297</ele>
        <time>2020-09-19T11:27:39.750Z</time>
      </trkpt>
      <trkpt lat="45.8146" lon="1.21444">
        <ele>298</ele>
        <time>2020-09-19T11:27:40.750Z</time>
      </trkpt>
      <trkpt lat="45.81457" lon="1.21443">
        <ele>298</ele>
        <time>2020-09-19T11:27:41.750Z</time>
      </trkpt>
      <trkpt lat="45.81454" lon="1.21441">
        <ele>297</ele>
        <time>2020-09-19T11:27:42.750Z</time>
      </trkpt>
      <trkpt lat="45.81451" lon="1.2144">
        <ele>298</ele>
        <time>2020-09-19T11:27:43.750Z</time>
      </trkpt>
      <trkpt lat="45.81448" lon="1.21438">
        <ele>298</ele>
        <time>2020-09-19T11:27:44.750Z</time>
      </trkpt>
      <trkpt lat="45.81444" lon="1.21436">
        <ele>298</ele>
        <time>2020-09-19T11:27:45.750Z</time>
      </trkpt>
      <trkpt lat="45.81441" lon="1.21435">
        <ele>299</ele>
        <time>2020-09-19T11:27:46.750Z</time>
      </trkpt>
      <trkpt lat="45.81438" lon="1.21434">
        <ele>298</ele>
        <time>2020-09-19T11:27:47.750Z</time>
      </trkpt>
      <trkpt lat="45.81434" lon="1.21433">
        <ele>298</ele>
        <time>2020-09-19T11:27:48.750Z</time>
      </trkpt>
      <trkpt lat="45.81431" lon="1.21432">
        <ele>298</ele>
        <time>2020-09-19T11:27:49.750Z</time>
      </trkpt>
      <trkpt lat="45.81428" lon="1.21431">
        <ele>298</ele>
        <time>2020-09-19T11:27:50.750Z</time>
      </trkpt>
      <trkpt lat="45.81425" lon="1.2143">
        <ele>298</ele>
        <time>2020-09-19T11:27:51.750Z</time>
      </trkpt>
      <trkpt lat="45.81422" lon="1.21429">
        <ele>298</ele>
        <time>2020-09-19T11:27:52.750Z</time>
      </trkpt>
      <trkpt lat="45.81419" lon="1.21428">
        <ele>299</ele>
        <time>2020-09-19T11:27:53.750Z</time>
      </trkpt>
      <trkpt lat="45.81417" lon="1.21427">
        <ele>298</ele>
        <time>2020-09-19T11:27:54.750Z</time>
      </trkpt>
      <trkpt lat="45.81414" lon="1.21425">
        <ele>298</ele>
        <time>2020-09-19T11:27:55.750Z</time>
      </trkpt>
      <trkpt lat="45.81411" lon="1.21424">
        <ele>299</ele>
        <time>2020-09-19T11:27:56.750Z</time>
      </trkpt>
      <trkpt lat="45.81408" lon="1.21423">
        <ele>298</ele>
        <time>2020-09-19T11:27:57.750Z</time>
      </trkpt>
      <trkpt lat="45.81405" lon="1.21422">
        <ele>298</ele>
        <time>2020-09-19T11:27:58.750Z</time>
      </trkpt>
      <trkpt lat="45.81402" lon="1.21421">
        <ele>297</ele>
        <time>2020-09-19T11:27:59.750Z</time>
      </trkpt>
      <trkpt lat="45.814" lon="1.2142">
        <ele>298</ele>
        <time>2020-09-19T11:28:00.750Z</time>
      </trkpt>
      <trkpt lat="45.81397" lon="1.21419">
        <ele>299</ele>
        <time>2020-09-19T11:28:01.750Z</time>
      </trkpt>
      <trkpt lat="45.81394" lon="1.21418">
        <ele>299</ele>
        <time>2020-09-19T11:28:02.750Z</time>
      </trkpt>
      <trkpt lat="45.81392" lon="1.21418">
        <ele>299</ele>
        <time>2020-09-19T11:28:03.750Z</time>
      </trkpt>
      <trkpt lat="45.81389" lon="1.21417">
        <ele>299</ele>
        <time>2020-09-19T11:28:04.750Z</time>
      </trkpt>
      <trkpt lat="45.81386" lon="1.21417">
        <ele>299</ele>
        <time>2020-09-19T11:28:05.750Z</time>
      </trkpt>
      <trkpt lat="45.81382" lon="1.21417">
        <ele>299</ele>
        <time>2020-09-19T11:28:06.750Z</time>
      </trkpt>
      <trkpt lat="45.81379" lon="1.21417">
        <ele>298</ele>
        <time>2020-09-19T11:28:07.750Z</time>
      </trkpt>
      <trkpt lat="45.81376" lon="1.21417">
        <ele>298</ele>
        <time>2020-09-19T11:28:08.750Z</time>
      </trkpt>
      <trkpt lat="45.81374" lon="1.21417">
        <ele>300</ele>
        <time>2020-09-19T11:28:09.750Z</time>
      </trkpt>
      <trkpt lat="45.81371" lon="1.21417">
        <ele>300</ele>
        <time>2020-09-19T11:28:10.750Z</time>
      </trkpt>
      <trkpt lat="45.81368" lon="1.21418">
        <ele>300</ele>
        <time>2020-09-19T11:28:11.750Z</time>
      </trkpt>
      <trkpt lat="45.81365" lon="1.21419">
        <ele>301</ele>
        <time>2020-09-19T11:28:12.750Z</time>
      </trkpt>
      <trkpt lat="45.81362" lon="1.2142">
        <ele>302</ele>
        <time>2020-09-19T11:28:13.750Z</time>
      </trkpt>
      <trkpt lat="45.81359" lon="1.21421">
        <ele>300</ele>
        <time>2020-09-19T11:28:14.750Z</time>
      </trkpt>
      <trkpt lat="45.81355" lon="1.21423">
        <ele>301</ele>
        <time>2020-09-19T11:28:15.750Z</time>
      </trkpt>
      <trkpt lat="45.81351" lon="1.21424">
        <ele>301</ele>
        <time>2020-09-19T11:28:16.750Z</time>
      </trkpt>
      <trkpt lat="45.81348" lon="1.21426">
        <ele>302</ele>
        <time>2020-09-19T11:28:17.750Z</time>
      </trkpt>
      <trkpt lat="45.81345" lon="1.21428">
        <ele>302</ele>
        <time>2020-09-19T11:28:18.750Z</time>
      </trkpt>
      <trkpt lat="45.81342" lon="1.2143">
        <ele>302</ele>
        <time>2020-09-19T11:28:19.750Z</time>
      </trkpt>
      <trkpt lat="45.81339" lon="1.21432">
        <ele>303</ele>
        <time>2020-09-19T11:28:20.750Z</time>
      </trkpt>
      <trkpt lat="45.81336" lon="1.21435">
        <ele>303</ele>
        <time>2020-09-19T11:28:21.750Z</time>
      </trkpt>
      <trkpt lat="45.81333" lon="1.21437">
        <ele>303</ele>
        <time>2020-09-19T11:28:22.750Z</time>
      </trkpt>
      <trkpt lat="45.8133" lon="1.21439">
        <ele>303</ele>
        <time>2020-09-19T11:28:23.750Z</time>
      </trkpt>
      <trkpt lat="45.81327" lon="1.21442">
        <ele>304</ele>
        <time>2020-09-19T11:28:24.750Z</time>
      </trkpt>
      <trkpt lat="45.81324" lon="1.21444">
        <ele>303</ele>
        <time>2020-09-19T11:28:25.750Z</time>
      </trkpt>
      <trkpt lat="45.81321" lon="1.21447">
        <ele>305</ele>
        <time>2020-09-19T11:28:26.750Z</time>
      </trkpt>
      <trkpt lat="45.81318" lon="1.2145">
        <ele>305</ele>
        <time>2020-09-19T11:28:27.750Z</time>
      </trkpt>
      <trkpt lat="45.81316" lon="1.21453">
        <ele>306</ele>
        <time>2020-09-19T11:28:28.750Z</time>
      </trkpt>
      <trkpt lat="45.81313" lon="1.21456">
        <ele>305</ele>
        <time>2020-09-19T11:28:29.750Z</time>
      </trkpt>
      <trkpt lat="45.81311" lon="1.21459">
        <ele>306</ele>
        <time>2020-09-19T11:28:30.750Z</time>
      </trkpt>
      <trkpt lat="45.81308" lon="1.21463">
        <ele>306</ele>
        <time>2020-09-19T11:28:31.750Z</time>
      </trkpt>
      <trkpt lat="45.81306" lon="1.21466">
        <ele>306</ele>
        <time>2020-09-19T11:28:32.750Z</time>
      </trkpt>
      <trkpt lat="45.81303" lon="1.21469">
        <ele>306</ele>
        <time>2020-09-19T11:28:33.750Z</time>
      </trkpt>
      <trkpt lat="45.81301" lon="1.21472">
        <ele>307</ele>
        <time>2020-09-19T11:28:34.750Z</time>
      </trkpt>
      <trkpt lat="45.81299" lon="1.21475">
        <ele>308</ele>
        <time>2020-09-19T11:28:35.750Z</time>
      </trkpt>
      <trkpt lat="45.81296" lon="1.21477">
        <ele>308</ele>
        <time>2020-09-19T11:28:36.750Z</time>
      </trkpt>
      <trkpt lat="45.81294" lon="1.2148">
        <ele>309</ele>
        <time>2020-09-19T11:28:37.750Z</time>
      </trkpt>
      <trkpt lat="45.81291" lon="1.21483">
        <ele>309</ele>
        <time>2020-09-19T11:28:38.750Z</time>
      </trkpt>
      <trkpt lat="45.81289" lon="1.21486">
        <ele>309</ele>
        <time>2020-09-19T11:28:39.750Z</time>
      </trkpt>
      <trkpt lat="45.81287" lon="1.21489">
        <ele>310</ele>
        <time>2020-09-19T11:28:40.750Z</time>
      </trkpt>
      <trkpt lat="45.81285" lon="1.21492">
        <ele>310</ele>
        <time>2020-09-19T11:28:41.750Z</time>
      </trkpt>
      <trkpt lat="45.81283" lon="1.21496">
        <ele>310</ele>
        <time>2020-09-19T11:28:42.750Z</time>
      </trkpt>
      <trkpt lat="45.81281" lon="1.21499">
        <ele>310</ele>
        <time>2020-09-19T11:28:43.750Z</time>
      </trkpt>
      <trkpt lat="45.8128" lon="1.21503">
        <ele>310</ele>
        <time>2020-09-19T11:28:44.750Z</time>
      </trkpt>
      <trkpt lat="45.81279" lon="1.21506">
        <ele>310</ele>
        <time>2020-09-19T11:28:45.750Z</time>
      </trkpt>
      <trkpt lat="45.81278" lon="1.2151">
        <ele>309</ele>
        <time>2020-09-19T11:28:46.750Z</time>
      </trkpt>
      <trkpt lat="45.81277" lon="1.21515">
        <ele>308</ele>
        <time>2020-09-19T11:28:47.750Z</time>
      </trkpt>
      <trkpt lat="45.81275" lon="1.21519">
        <ele>307</ele>
        <time>2020-09-19T11:28:48.750Z</time>
      </trkpt>
      <trkpt lat="45.81273" lon="1.21524">
        <ele>307</ele>
        <time>2020-09-19T11:28:49.750Z</time>
      </trkpt>
      <trkpt lat="45.81272" lon="1.21528">
        <ele>307</ele>
        <time>2020-09-19T11:28:50.750Z</time>
      </trkpt>
      <trkpt lat="45.8127" lon="1.21532">
        <ele>306</ele>
        <time>2020-09-19T11:28:51.750Z</time>
      </trkpt>
      <trkpt lat="45.81268" lon="1.21535">
        <ele>307</ele>
        <time>2020-09-19T11:28:52.750Z</time>
      </trkpt>
      <trkpt lat="45.81267" lon="1.21538">
        <ele>306</ele>
        <time>2020-09-19T11:28:53.750Z</time>
      </trkpt>
      <trkpt lat="45.81265" lon="1.21541">
        <ele>306</ele>
        <time>2020-09-19T11:28:54.750Z</time>
      </trkpt>
      <trkpt lat="45.81263" lon="1.21543">
        <ele>307</ele>
        <time>2020-09-19T11:28:55.750Z</time>
      </trkpt>
      <trkpt lat="45.81261" lon="1.21545">
        <ele>306</ele>
        <time>2020-09-19T11:28:56.750Z</time>
      </trkpt>
      <trkpt lat="45.81259" lon="1.21547">
        <ele>306</ele>
        <time>2020-09-19T11:28:57.750Z</time>
      </trkpt>
      <trkpt lat="45.81256" lon="1.21548">
        <ele>306</ele>
        <time>2020-09-19T11:28:58.750Z</time>
      </trkpt>
      <trkpt lat="45.81254" lon="1.21549">
        <ele>308</ele>
        <time>2020-09-19T11:28:59.750Z</time>
      </trkpt>
      <trkpt lat="45.81253" lon="1.2155">
        <ele>309</ele>
        <time>2020-09-19T11:29:00.750Z</time>
      </trkpt>
      <trkpt lat="45.81251" lon="1.21551">
        <ele>308</ele>
        <time>2020-09-19T11:29:01.750Z</time>
      </trkpt>
      <trkpt lat="45.81249" lon="1.21552">
        <ele>310</ele>
        <time>2020-09-19T11:29:02.750Z</time>
      </trkpt>
      <trkpt lat="45.81247" lon="1.21553">
        <ele>312</ele>
        <time>2020-09-19T11:29:03.750Z</time>
      </trkpt>
      <trkpt lat="45.81244" lon="1.21554">
        <ele>312</ele>
        <time>2020-09-19T11:29:04.750Z</time>
      </trkpt>
      <trkpt lat="45.81242" lon="1.21555">
        <ele>312</ele>
        <time>2020-09-19T11:29:05.750Z</time>
      </trkpt>
      <trkpt lat="45.81239" lon="1.21556">
        <ele>313</ele>
        <time>2020-09-19T11:29:06.750Z</time>
      </trkpt>
      <trkpt lat="45.81237" lon="1.21557">
        <ele>313</ele>
        <time>2020-09-19T11:29:07.750Z</time>
      </trkpt>
      <trkpt lat="45.81234" lon="1.21558">
        <ele>313</ele>
        <time>2020-09-19T11:29:08.750Z</time>
      </trkpt>
      <trkpt lat="45.81231" lon="1.21559">
        <ele>313</ele>
        <time>2020-09-19T11:29:09.750Z</time>
      </trkpt>
      <trkpt lat="45.81228" lon="1.2156">
        <ele>313</ele>
        <time>2020-09-19T11:29:10.750Z</time>
      </trkpt>
      <trkpt lat="45.81225" lon="1.21561">
        <ele>314</ele>
        <time>2020-09-19T11:29:11.750Z</time>
      </trkpt>
      <trkpt lat="45.81223" lon="1.21562">
        <ele>314</ele>
        <time>2020-09-19T11:29:12.750Z</time>
      </trkpt>
      <trkpt lat="45.8122" lon="1.21563">
        <ele>316</ele>
        <time>2020-09-19T11:29:13.750Z</time>
      </trkpt>
      <trkpt lat="45.81217" lon="1.21564">
        <ele>317</ele>
        <time>2020-09-19T11:29:14.750Z</time>
      </trkpt>
      <trkpt lat="45.81215" lon="1.21565">
        <ele>319</ele>
        <time>2020-09-19T11:29:15.750Z</time>
      </trkpt>
      <trkpt lat="45.81213" lon="1.21566">
        <ele>319</ele>
        <time>2020-09-19T11:29:16.750Z</time>
      </trkpt>
      <trkpt lat="45.81211" lon="1.21567">
        <ele>320</ele>
        <time>2020-09-19T11:29:17.750Z</time>
      </trkpt>
      <trkpt lat="45.81209" lon="1.21568">
        <ele>320</ele>
        <time>2020-09-19T11:29:18.750Z</time>
      </trkpt>
      <trkpt lat="45.81208" lon="1.21568">
        <ele>319</ele>
        <time>2020-09-19T11:29:19.750Z</time>
      </trkpt>
      <trkpt lat="45.81208" lon="1.21565">
        <ele>319</ele>
        <time>2020-09-19T11:29:20.750Z</time>
      </trkpt>
      <trkpt lat="45.8121" lon="1.21561">
        <ele>319</ele>
        <time>2020-09-19T11:29:21.750Z</time>
      </trkpt>
      <trkpt lat="45.81211" lon="1.21559">
        <ele>318</ele>
        <time>2020-09-19T11:29:22.750Z</time>
      </trkpt>
      <trkpt lat="45.81212" lon="1.21558">
        <ele>318</ele>
        <time>2020-09-19T11:29:23.750Z</time>
      </trkpt>
      <trkpt lat="45.81214" lon="1.21557">
        <ele>318</ele>
        <time>2020-09-19T11:29:24.750Z</time>
      </trkpt>
      <trkpt lat="45.81215" lon="1.21555">
        <ele>317</ele>
        <time>2020-09-19T11:29:25.750Z</time>
      </trkpt>
      <trkpt lat="45.81217" lon="1.21554">
        <ele>316</ele>
        <time>2020-09-19T11:29:26.750Z</time>
      </trkpt>
      <trkpt lat="45.81219" lon="1.21553">
        <ele>315</ele>
        <time>2020-09-19T11:29:27.750Z</time>
      </trkpt>
      <trkpt lat="45.81221" lon="1.21552">
        <ele>315</ele>
        <time>2020-09-19T11:29:28.750Z</time>
      </trkpt>
      <trkpt lat="45.81224" lon="1.21551">
        <ele>315</ele>
        <time>2020-09-19T11:29:29.750Z</time>
      </trkpt>
      <trkpt lat="45.81227" lon="1.21551">
        <ele>315</ele>
        <time>2020-09-19T11:29:30.750Z</time>
      </trkpt>
      <trkpt lat="45.8123" lon="1.2155">
        <ele>316</ele>
        <time>2020-09-19T11:29:31.750Z</time>
      </trkpt>
      <trkpt lat="45.81233" lon="1.21549">
        <ele>316</ele>
        <time>2020-09-19T11:29:32.750Z</time>
      </trkpt>
      <trkpt lat="45.81236" lon="1.21548">
        <ele>314</ele>
        <time>2020-09-19T11:29:33.750Z</time>
      </trkpt>
      <trkpt lat="45.81239" lon="1.21547">
        <ele>314</ele>
        <time>2020-09-19T11:29:34.750Z</time>
      </trkpt>
      <trkpt lat="45.81242" lon="1.21546">
        <ele>314</ele>
        <time>2020-09-19T11:29:35.750Z</time>
      </trkpt>
      <trkpt lat="45.81244" lon="1.21545">
        <ele>313</ele>
        <time>2020-09-19T11:29:36.750Z</time>
      </trkpt>
      <trkpt lat="45.81247" lon="1.21544">
        <ele>312</ele>
        <time>2020-09-19T11:29:37.750Z</time>
      </trkpt>
      <trkpt lat="45.8125" lon="1.21543">
        <ele>311</ele>
        <time>2020-09-19T11:29:38.750Z</time>
      </trkpt>
      <trkpt lat="45.81253" lon="1.21541">
        <ele>310</ele>
        <time>2020-09-19T11:29:39.750Z</time>
      </trkpt>
      <trkpt lat="45.81255" lon="1.2154">
        <ele>310</ele>
        <time>2020-09-19T11:29:40.750Z</time>
      </trkpt>
      <trkpt lat="45.81258" lon="1.21539">
        <ele>309</ele>
        <time>2020-09-19T11:29:41.750Z</time>
      </trkpt>
      <trkpt lat="45.81261" lon="1.21537">
        <ele>309</ele>
        <time>2020-09-19T11:29:42.750Z</time>
      </trkpt>
      <trkpt lat="45.81263" lon="1.21536">
        <ele>308</ele>
        <time>2020-09-19T11:29:43.750Z</time>
      </trkpt>
      <trkpt lat="45.81266" lon="1.21535">
        <ele>308</ele>
        <time>2020-09-19T11:29:44.750Z</time>
      </trkpt>
      <trkpt lat="45.81269" lon="1.21532">
        <ele>309</ele>
        <time>2020-09-19T11:29:45.750Z</time>
      </trkpt>
      <trkpt lat="45.81271" lon="1.21529">
        <ele>308</ele>
        <time>2020-09-19T11:29:46.750Z</time>
      </trkpt>
      <trkpt lat="45.81273" lon="1.21526">
        <ele>307</ele>
        <time>2020-09-19T11:29:47.750Z</time>
      </trkpt>
      <trkpt lat="45.81275" lon="1.21523">
        <ele>307</ele>
        <time>2020-09-19T11:29:48.750Z</time>
      </trkpt>
      <trkpt lat="45.81276" lon="1.2152">
        <ele>305</ele>
        <time>2020-09-19T11:29:49.750Z</time>
      </trkpt>
      <trkpt lat="45.81277" lon="1.21517">
        <ele>304</ele>
        <time>2020-09-19T11:29:50.750Z</time>
      </trkpt>
      <trkpt lat="45.81278" lon="1.21514">
        <ele>304</ele>
        <time>2020-09-19T11:29:51.750Z</time>
      </trkpt>
      <trkpt lat="45.81279" lon="1.2151">
        <ele>303</ele>
        <time>2020-09-19T11:29:52.750Z</time>
      </trkpt>
      <trkpt lat="45.8128" lon="1.21507">
        <ele>303</ele>
        <time>2020-09-19T11:29:53.750Z</time>
      </trkpt>
      <trkpt lat="45.81282" lon="1.21503">
        <ele>303</ele>
        <time>2020-09-19T11:29:54.750Z</time>
      </trkpt>
      <trkpt lat="45.81284" lon="1.215">
        <ele>304</ele>
        <time>2020-09-19T11:29:55.750Z</time>
      </trkpt>
      <trkpt lat="45.81287" lon="1.21496">
        <ele>304</ele>
        <time>2020-09-19T11:29:56.750Z</time>
      </trkpt>
      <trkpt lat="45.81289" lon="1.21493">
        <ele>305</ele>
        <time>2020-09-19T11:29:57.750Z</time>
      </trkpt>
      <trkpt lat="45.81291" lon="1.21489">
        <ele>306</ele>
        <time>2020-09-19T11:29:58.750Z</time>
      </trkpt>
      <trkpt lat="45.81294" lon="1.21485">
        <ele>304</ele>
        <time>2020-09-19T11:29:59.750Z</time>
      </trkpt>
      <trkpt lat="45.81296" lon="1.21481">
        <ele>304</ele>
        <time>2020-09-19T11:30:00.750Z</time>
      </trkpt>
      <trkpt lat="45.81299" lon="1.21478">
        <ele>305</ele>
        <time>2020-09-19T11:30:01.750Z</time>
      </trkpt>
      <trkpt lat="45.81302" lon="1.21474">
        <ele>305</ele>
        <time>2020-09-19T11:30:02.750Z</time>
      </trkpt>
      <trkpt lat="45.81305" lon="1.2147">
        <ele>306</ele>
        <time>2020-09-19T11:30:03.750Z</time>
      </trkpt>
      <trkpt lat="45.81307" lon="1.21467">
        <ele>306</ele>
        <time>2020-09-19T11:30:04.750Z</time>
      </trkpt>
      <trkpt lat="45.8131" lon="1.21463">
        <ele>306</ele>
        <time>2020-09-19T11:30:05.750Z</time>
      </trkpt>
      <trkpt lat="45.81313" lon="1.2146">
        <ele>306</ele>
        <time>2020-09-19T11:30:06.750Z</time>
      </trkpt>
      <trkpt lat="45.81316" lon="1.21457">
        <ele>306</ele>
        <time>2020-09-19T11:30:07.750Z</time>
      </trkpt>
      <trkpt lat="45.81318" lon="1.21453">
        <ele>306</ele>
        <time>2020-09-19T11:30:08.750Z</time>
      </trkpt>
      <trkpt lat="45.81321" lon="1.2145">
        <ele>306</ele>
        <time>2020-09-19T11:30:09.750Z</time>
      </trkpt>
      <trkpt lat="45.81324" lon="1.21447">
        <ele>305</ele>
        <time>2020-09-19T11:30:10.750Z</time>
      </trkpt>
      <trkpt lat="45.81327" lon="1.21445">
        <ele>304</ele>
        <time>2020-09-19T11:30:11.750Z</time>
      </trkpt>
      <trkpt lat="45.81329" lon="1.21442">
        <ele>304</ele>
        <time>2020-09-19T11:30:12.750Z</time>
      </trkpt>
      <trkpt lat="45.81332" lon="1.21439">
        <ele>303</ele>
        <time>2020-09-19T11:30:13.750Z</time>
      </trkpt>
      <trkpt lat="45.81335" lon="1.21437">
        <ele>303</ele>
        <time>2020-09-19T11:30:14.750Z</time>
      </trkpt>
      <trkpt lat="45.81338" lon="1.21435">
        <ele>304</ele>
        <time>2020-09-19T11:30:15.750Z</time>
      </trkpt>
      <trkpt lat="45.81341" lon="1.21432">
        <ele>303</ele>
        <time>2020-09-19T11:30:16.750Z</time>
      </trkpt>
      <trkpt lat="45.81344" lon="1.2143">
        <ele>303</ele>
        <time>2020-09-19T11:30:17.750Z</time>
      </trkpt>
      <trkpt lat="45.81347" lon="1.21429">
        <ele>304</ele>
        <time>2020-09-19T11:30:18.750Z</time>
      </trkpt>
      <trkpt lat="45.81351" lon="1.21427">
        <ele>303</ele>
        <time>2020-09-19T11:30:19.750Z</time>
      </trkpt>
      <trkpt lat="45.81354" lon="1.21425">
        <ele>302</ele>
        <time>2020-09-19T11:30:20.750Z</time>
      </trkpt>
      <trkpt lat="45.81357" lon="1.21423">
        <ele>302</ele>
        <time>2020-09-19T11:30:21.750Z</time>
      </trkpt>
      <trkpt lat="45.81361" lon="1.21422">
        <ele>302</ele>
        <time>2020-09-19T11:30:22.750Z</time>
      </trkpt>
      <trkpt lat="45.81364" lon="1.21421">
        <ele>302</ele>
        <time>2020-09-19T11:30:23.750Z</time>
      </trkpt>
      <trkpt lat="45.81367" lon="1.2142">
        <ele>302</ele>
        <time>2020-09-19T11:30:24.750Z</time>
      </trkpt>
      <trkpt lat="45.8137" lon="1.2142">
        <ele>302</ele>
        <time>2020-09-19T11:30:25.750Z</time>
      </trkpt>
      <trkpt lat="45.81373" lon="1.21419">
        <ele>302</ele>
        <time>2020-09-19T11:30:26.750Z</time>
      </trkpt>
      <trkpt lat="45.81376" lon="1.21419">
        <ele>301</ele>
        <time>2020-09-19T11:30:27.750Z</time>
      </trkpt>
      <trkpt lat="45.8138" lon="1.21419">
        <ele>301</ele>
        <time>2020-09-19T11:30:28.750Z</time>
      </trkpt>
      <trkpt lat="45.81383" lon="1.21419">
        <ele>302</ele>
        <time>2020-09-19T11:30:29.750Z</time>
      </trkpt>
      <trkpt lat="45.81387" lon="1.21419">
        <ele>301</ele>
        <time>2020-09-19T11:30:30.750Z</time>
      </trkpt>
      <trkpt lat="45.8139" lon="1.21419">
        <ele>301</ele>
        <time>2020-09-19T11:30:31.750Z</time>
      </trkpt>
      <trkpt lat="45.81393" lon="1.2142">
        <ele>301</ele>
        <time>2020-09-19T11:30:32.750Z</time>
      </trkpt>
      <trkpt lat="45.81397" lon="1.2142">
        <ele>301</ele>
        <time>2020-09-19T11:30:33.750Z</time>
      </trkpt>
      <trkpt lat="45.814" lon="1.2142">
        <ele>301</ele>
        <time>2020-09-19T11:30:34.750Z</time>
      </trkpt>
      <trkpt lat="45.81404" lon="1.21421">
        <ele>301</ele>
        <time>2020-09-19T11:30:35.750Z</time>
      </trkpt>
      <trkpt lat="45.81407" lon="1.21422">
        <ele>300</ele>
        <time>2020-09-19T11:30:36.750Z</time>
      </trkpt>
      <trkpt lat="45.8141" lon="1.21423">
        <ele>301</ele>
        <time>2020-09-19T11:30:37.750Z</time>
      </trkpt>
      <trkpt lat="45.81413" lon="1.21424">
        <ele>301</ele>
        <time>2020-09-19T11:30:38.750Z</time>
      </trkpt>
      <trkpt lat="45.81416" lon="1.21425">
        <ele>301</ele>
        <time>2020-09-19T11:30:39.750Z</time>
      </trkpt>
      <trkpt lat="45.8142" lon="1.21426">
        <ele>301</ele>
        <time>2020-09-19T11:30:40.750Z</time>
      </trkpt>
      <trkpt lat="45.81423" lon="1.21428">
        <ele>301</ele>
        <time>2020-09-19T11:30:41.750Z</time>
      </trkpt>
      <trkpt lat="45.81427" lon="1.21429">
        <ele>301</ele>
        <time>2020-09-19T11:30:42.750Z</time>
      </trkpt>
      <trkpt lat="45.8143" lon="1.21431">
        <ele>301</ele>
        <time>2020-09-19T11:30:43.750Z</time>
      </trkpt>
      <trkpt lat="45.81434" lon="1.21432">
        <ele>300</ele>
        <time>2020-09-19T11:30:44.750Z</time>
      </trkpt>
      <trkpt lat="45.81437" lon="1.21434">
        <ele>300</ele>
        <time>2020-09-19T11:30:45.750Z</time>
      </trkpt>
      <trkpt lat="45.8144" lon="1.21436">
        <ele>299</ele>
        <time>2020-09-19T11:30:46.750Z</time>
      </trkpt>
      <trkpt lat="45.81443" lon="1.21437">
        <ele>299</ele>
        <time>2020-09-19T11:30:47.750Z</time>
      </trkpt>
      <trkpt lat="45.81447" lon="1.21438">
        <ele>298</ele>
        <time>2020-09-19T11:30:48.750Z</time>
      </trkpt>
      <trkpt lat="45.8145" lon="1.2144">
        <ele>299</ele>
        <time>2020-09-19T11:30:49.750Z</time>
      </trkpt>
      <trkpt lat="45.81453" lon="1.21441">
        <ele>298</ele>
        <time>2020-09-19T11:30:50.750Z</time>
      </trkpt>
      <trkpt lat="45.81456" lon="1.21442">
        <ele>299</ele>
        <time>2020-09-19T11:30:51.750Z</time>
      </trkpt>
      <trkpt lat="45.8146" lon="1.21443">
        <ele>298</ele>
        <time>2020-09-19T11:30:52.750Z</time>
      </trkpt>
      <trkpt lat="45.81463" lon="1.21444">
        <ele>299</ele>
        <time>2020-09-19T11:30:53.750Z</time>
      </trkpt>
      <trkpt lat="45.81467" lon="1.21445">
        <ele>299</ele>
        <time>2020-09-19T11:30:54.750Z</time>
      </trkpt>
      <trkpt lat="45.8147" lon="1.21446">
        <ele>299</ele>
        <time>2020-09-19T11:30:55.750Z</time>
      </trkpt>
      <trkpt lat="45.81474" lon="1.21448">
        <ele>299</ele>
        <time>2020-09-19T11:30:56.750Z</time>
      </trkpt>
      <trkpt lat="45.81477" lon="1.21449">
        <ele>299</ele>
        <time>2020-09-19T11:30:57.750Z</time>
      </trkpt>
      <trkpt lat="45.8148" lon="1.2145">
        <ele>299</ele>
        <time>2020-09-19T11:30:58.750Z</time>
      </trkpt>
      <trkpt lat="45.81483" lon="1.21451">
        <ele>298</ele>
        <time>2020-09-19T11:30:59.750Z</time>
      </trkpt>
      <trkpt lat="45.81487" lon="1.21453">
        <ele>298</ele>
        <time>2020-09-19T11:31:00.750Z</time>
      </trkpt>
      <trkpt lat="45.8149" lon="1.21454">
        <ele>297</ele>
        <time>2020-09-19T11:31:01.750Z</time>
      </trkpt>
      <trkpt lat="45.81493" lon="1.21455">
        <ele>297</ele>
        <time>2020-09-19T11:31:02.750Z</time>
      </trkpt>
      <trkpt lat="45.81497" lon="1.21456">
        <ele>296</ele>
        <time>2020-09-19T11:31:03.750Z</time>
      </trkpt>
      <trkpt lat="45.815" lon="1.21457">
        <ele>296</ele>
        <time>2020-09-19T11:31:04.750Z</time>
      </trkpt>
      <trkpt lat="45.81504" lon="1.21459">
        <ele>295</ele>
        <time>2020-09-19T11:31:05.750Z</time>
      </trkpt>
      <trkpt lat="45.81507" lon="1.2146">
        <ele>295</ele>
        <time>2020-09-19T11:31:06.750Z</time>
      </trkpt>
      <trkpt lat="45.81511" lon="1.21461">
        <ele>294</ele>
        <time>2020-09-19T11:31:07.750Z</time>
      </trkpt>
      <trkpt lat="45.81514" lon="1.21463">
        <ele>293</ele>
        <time>2020-09-19T11:31:08.750Z</time>
      </trkpt>
      <trkpt lat="45.81518" lon="1.21464">
        <ele>294</ele>
        <time>2020-09-19T11:31:09.750Z</time>
      </trkpt>
      <trkpt lat="45.81522" lon="1.21465">
        <ele>295</ele>
        <time>2020-09-19T11:31:10.750Z</time>
      </trkpt>
      <trkpt lat="45.81526" lon="1.21467">
        <ele>295</ele>
        <time>2020-09-19T11:31:11.750Z</time>
      </trkpt>
      <trkpt lat="45.81529" lon="1.21468">
        <ele>294</ele>
        <time>2020-09-19T11:31:12.750Z</time>
      </trkpt>
      <trkpt lat="45.81533" lon="1.2147">
        <ele>294</ele>
        <time>2020-09-19T11:31:13.750Z</time>
      </trkpt>
      <trkpt lat="45.81537" lon="1.21472">
        <ele>294</ele>
        <time>2020-09-19T11:31:14.750Z</time>
      </trkpt>
      <trkpt lat="45.8154" lon="1.21473">
        <ele>294</ele>
        <time>2020-09-19T11:31:15.750Z</time>
      </trkpt>
      <trkpt lat="45.81544" lon="1.21475">
        <ele>293</ele>
        <time>2020-09-19T11:31:16.750Z</time>
      </trkpt>
      <trkpt lat="45.81548" lon="1.21476">
        <ele>292</ele>
        <time>2020-09-19T11:31:17.750Z</time>
      </trkpt>
      <trkpt lat="45.81551" lon="1.21478">
        <ele>292</ele>
        <time>2020-09-19T11:31:18.750Z</time>
      </trkpt>
      <trkpt lat="45.81555" lon="1.21479">
        <ele>292</ele>
        <time>2020-09-19T11:31:19.750Z</time>
      </trkpt>
      <trkpt lat="45.81559" lon="1.21481">
        <ele>292</ele>
        <time>2020-09-19T11:31:20.750Z</time>
      </trkpt>
      <trkpt lat="45.81562" lon="1.21482">
        <ele>293</ele>
        <time>2020-09-19T11:31:21.750Z</time>
      </trkpt>
      <trkpt lat="45.81566" lon="1.21483">
        <ele>293</ele>
        <time>2020-09-19T11:31:22.750Z</time>
      </trkpt>
      <trkpt lat="45.81569" lon="1.21485">
        <ele>292</ele>
        <time>2020-09-19T11:31:23.750Z</time>
      </trkpt>
      <trkpt lat="45.81573" lon="1.21486">
        <ele>292</ele>
        <time>2020-09-19T11:31:24.750Z</time>
      </trkpt>
      <trkpt lat="45.81576" lon="1.21487">
        <ele>291</ele>
        <time>2020-09-19T11:31:25.750Z</time>
      </trkpt>
      <trkpt lat="45.81579" lon="1.21488">
        <ele>290</ele>
        <time>2020-09-19T11:31:26.750Z</time>
      </trkpt>
      <trkpt lat="45.81583" lon="1.21489">
        <ele>290</ele>
        <time>2020-09-19T11:31:27.750Z</time>
      </trkpt>
      <trkpt lat="45.81587" lon="1.2149">
        <ele>289</ele>
        <time>2020-09-19T11:31:28.750Z</time>
      </trkpt>
      <trkpt lat="45.8159" lon="1.2149">
        <ele>289</ele>
        <time>2020-09-19T11:31:29.750Z</time>
      </trkpt>
      <trkpt lat="45.81594" lon="1.2149">
        <ele>288</ele>
        <time>2020-09-19T11:31:30.750Z</time>
      </trkpt>
      <trkpt lat="45.81597" lon="1.2149">
        <ele>288</ele>
        <time>2020-09-19T11:31:31.750Z</time>
      </trkpt>
      <trkpt lat="45.81601" lon="1.2149">
        <ele>288</ele>
        <time>2020-09-19T11:31:32.750Z</time>
      </trkpt>
      <trkpt lat="45.81604" lon="1.21489">
        <ele>289</ele>
        <time>2020-09-19T11:31:33.750Z</time>
      </trkpt>
      <trkpt lat="45.81608" lon="1.21487">
        <ele>289</ele>
        <time>2020-09-19T11:31:34.750Z</time>
      </trkpt>
      <trkpt lat="45.81611" lon="1.21485">
        <ele>288</ele>
        <time>2020-09-19T11:31:35.750Z</time>
      </trkpt>
      <trkpt lat="45.81614" lon="1.21483">
        <ele>287</ele>
        <time>2020-09-19T11:31:36.750Z</time>
      </trkpt>
      <trkpt lat="45.81617" lon="1.2148">
        <ele>288</ele>
        <time>2020-09-19T11:31:37.750Z</time>
      </trkpt>
      <trkpt lat="45.81619" lon="1.21476">
        <ele>287</ele>
        <time>2020-09-19T11:31:38.750Z</time>
      </trkpt>
      <trkpt lat="45.81622" lon="1.21472">
        <ele>286</ele>
        <time>2020-09-19T11:31:39.750Z</time>
      </trkpt>
      <trkpt lat="45.81624" lon="1.21468">
        <ele>286</ele>
        <time>2020-09-19T11:31:40.750Z</time>
      </trkpt>
      <trkpt lat="45.81625" lon="1.21464">
        <ele>285</ele>
        <time>2020-09-19T11:31:41.750Z</time>
      </trkpt>
      <trkpt lat="45.81627" lon="1.21459">
        <ele>285</ele>
        <time>2020-09-19T11:31:42.750Z</time>
      </trkpt>
      <trkpt lat="45.81628" lon="1.21455">
        <ele>285</ele>
        <time>2020-09-19T11:31:43.750Z</time>
      </trkpt>
      <trkpt lat="45.81629" lon="1.2145">
        <ele>285</ele>
        <time>2020-09-19T11:31:44.750Z</time>
      </trkpt>
      <trkpt lat="45.8163" lon="1.21446">
        <ele>284</ele>
        <time>2020-09-19T11:31:45.750Z</time>
      </trkpt>
      <trkpt lat="45.81631" lon="1.21441">
        <ele>283</ele>
        <time>2020-09-19T11:31:46.750Z</time>
      </trkpt>
      <trkpt lat="45.81632" lon="1.21435">
        <ele>283</ele>
        <time>2020-09-19T11:31:47.750Z</time>
      </trkpt>
      <trkpt lat="45.81633" lon="1.2143">
        <ele>282</ele>
        <time>2020-09-19T11:31:48.750Z</time>
      </trkpt>
      <trkpt lat="45.81634" lon="1.21426">
        <ele>282</ele>
        <time>2020-09-19T11:31:49.750Z</time>
      </trkpt>
      <trkpt lat="45.81635" lon="1.21421">
        <ele>282</ele>
        <time>2020-09-19T11:31:50.750Z</time>
      </trkpt>
      <trkpt lat="45.81635" lon="1.21415">
        <ele>281</ele>
        <time>2020-09-19T11:31:51.750Z</time>
      </trkpt>
      <trkpt lat="45.81635" lon="1.2141">
        <ele>281</ele>
        <time>2020-09-19T11:31:52.750Z</time>
      </trkpt>
      <trkpt lat="45.81635" lon="1.21404">
        <ele>281</ele>
        <time>2020-09-19T11:31:53.750Z</time>
      </trkpt>
      <trkpt lat="45.81634" lon="1.21399">
        <ele>280</ele>
        <time>2020-09-19T11:31:54.750Z</time>
      </trkpt>
      <trkpt lat="45.81634" lon="1.21394">
        <ele>281</ele>
        <time>2020-09-19T11:31:55.750Z</time>
      </trkpt>
      <trkpt lat="45.81634" lon="1.21389">
        <ele>280</ele>
        <time>2020-09-19T11:31:56.750Z</time>
      </trkpt>
      <trkpt lat="45.81633" lon="1.21384">
        <ele>280</ele>
        <time>2020-09-19T11:31:57.750Z</time>
      </trkpt>
      <trkpt lat="45.81632" lon="1.21379">
        <ele>280</ele>
        <time>2020-09-19T11:31:58.750Z</time>
      </trkpt>
      <trkpt lat="45.81631" lon="1.21375">
        <ele>280</ele>
        <time>2020-09-19T11:31:59.750Z</time>
      </trkpt>
      <trkpt lat="45.8163" lon="1.2137">
        <ele>280</ele>
        <time>2020-09-19T11:32:00.750Z</time>
      </trkpt>
      <trkpt lat="45.8163" lon="1.21365">
        <ele>279</ele>
        <time>2020-09-19T11:32:01.750Z</time>
      </trkpt>
      <trkpt lat="45.81629" lon="1.2136">
        <ele>279</ele>
        <time>2020-09-19T11:32:02.750Z</time>
      </trkpt>
      <trkpt lat="45.81629" lon="1.21355">
        <ele>279</ele>
        <time>2020-09-19T11:32:03.750Z</time>
      </trkpt>
      <trkpt lat="45.81628" lon="1.2135">
        <ele>279</ele>
        <time>2020-09-19T11:32:04.750Z</time>
      </trkpt>
      <trkpt lat="45.81627" lon="1.21345">
        <ele>279</ele>
        <time>2020-09-19T11:32:05.750Z</time>
      </trkpt>
      <trkpt lat="45.81626" lon="1.2134">
        <ele>278</ele>
        <time>2020-09-19T11:32:06.750Z</time>
      </trkpt>
      <trkpt lat="45.81625" lon="1.21336">
        <ele>278</ele>
        <time>2020-09-19T11:32:07.750Z</time>
      </trkpt>
      <trkpt lat="45.81625" lon="1.21331">
        <ele>279</ele>
        <time>2020-09-19T11:32:08.750Z</time>
      </trkpt>
      <trkpt lat="45.81624" lon="1.21326">
        <ele>279</ele>
        <time>2020-09-19T11:32:09.750Z</time>
      </trkpt>
      <trkpt lat="45.81624" lon="1.21321">
        <ele>279</ele>
        <time>2020-09-19T11:32:10.750Z</time>
      </trkpt>
      <trkpt lat="45.81623" lon="1.21316">
        <ele>279</ele>
        <time>2020-09-19T11:32:11.750Z</time>
      </trkpt>
      <trkpt lat="45.81622" lon="1.21311">
        <ele>279</ele>
        <time>2020-09-19T11:32:12.750Z</time>
      </trkpt>
      <trkpt lat="45.81622" lon="1.21305">
        <ele>278</ele>
        <time>2020-09-19T11:32:13.750Z</time>
      </trkpt>
      <trkpt lat="45.81622" lon="1.213">
        <ele>278</ele>
        <time>2020-09-19T11:32:14.750Z</time>
      </trkpt>
      <trkpt lat="45.81621" lon="1.21295">
        <ele>278</ele>
        <time>2020-09-19T11:32:15.750Z</time>
      </trkpt>
      <trkpt lat="45.8162" lon="1.2129">
        <ele>279</ele>
        <time>2020-09-19T11:32:16.750Z</time>
      </trkpt>
      <trkpt lat="45.8162" lon="1.21285">
        <ele>278</ele>
        <time>2020-09-19T11:32:17.750Z</time>
      </trkpt>
      <trkpt lat="45.81619" lon="1.2128">
        <ele>278</ele>
        <time>2020-09-19T11:32:18.750Z</time>
      </trkpt>
      <trkpt lat="45.81618" lon="1.21275">
        <ele>278</ele>
        <time>2020-09-19T11:32:19.750Z</time>
      </trkpt>
      <trkpt lat="45.81617" lon="1.21271">
        <ele>277</ele>
        <time>2020-09-19T11:32:20.750Z</time>
      </trkpt>
      <trkpt lat="45.81616" lon="1.21266">
        <ele>277</ele>
        <time>2020-09-19T11:32:21.750Z</time>
      </trkpt>
      <trkpt lat="45.81616" lon="1.21261">
        <ele>277</ele>
        <time>2020-09-19T11:32:22.750Z</time>
      </trkpt>
      <trkpt lat="45.81615" lon="1.21256">
        <ele>277</ele>
        <time>2020-09-19T11:32:23.750Z</time>
      </trkpt>
      <trkpt lat="45.81614" lon="1.21251">
        <ele>277</ele>
        <time>2020-09-19T11:32:24.750Z</time>
      </trkpt>
      <trkpt lat="45.81614" lon="1.21246">
        <ele>278</ele>
        <time>2020-09-19T11:32:25.750Z</time>
      </trkpt>
      <trkpt lat="45.81613" lon="1.21241">
        <ele>277</ele>
        <time>2020-09-19T11:32:26.750Z</time>
      </trkpt>
      <trkpt lat="45.81612" lon="1.21236">
        <ele>277</ele>
        <time>2020-09-19T11:32:27.750Z</time>
      </trkpt>
      <trkpt lat="45.81611" lon="1.21231">
        <ele>277</ele>
        <time>2020-09-19T11:32:28.750Z</time>
      </trkpt>
      <trkpt lat="45.81611" lon="1.21227">
        <ele>276</ele>
        <time>2020-09-19T11:32:29.750Z</time>
      </trkpt>
      <trkpt lat="45.8161" lon="1.21222">
        <ele>276</ele>
        <time>2020-09-19T11:32:30.750Z</time>
      </trkpt>
      <trkpt lat="45.81609" lon="1.21217">
        <ele>276</ele>
        <time>2020-09-19T11:32:31.750Z</time>
      </trkpt>
      <trkpt lat="45.81609" lon="1.21212">
        <ele>275</ele>
        <time>2020-09-19T11:32:32.750Z</time>
      </trkpt>
      <trkpt lat="45.81608" lon="1.21207">
        <ele>275</ele>
        <time>2020-09-19T11:32:33.750Z</time>
      </trkpt>
      <trkpt lat="45.81607" lon="1.21202">
        <ele>276</ele>
        <time>2020-09-19T11:32:34.750Z</time>
      </trkpt>
      <trkpt lat="45.81606" lon="1.21197">
        <ele>275</ele>
        <time>2020-09-19T11:32:35.750Z</time>
      </trkpt>
      <trkpt lat="45.81605" lon="1.21192">
        <ele>275</ele>
        <time>2020-09-19T11:32:36.750Z</time>
      </trkpt>
      <trkpt lat="45.81605" lon="1.21187">
        <ele>275</ele>
        <time>2020-09-19T11:32:37.750Z</time>
      </trkpt>
      <trkpt lat="45.81604" lon="1.21182">
        <ele>275</ele>
        <time>2020-09-19T11:32:38.750Z</time>
      </trkpt>
      <trkpt lat="45.81603" lon="1.21178">
        <ele>274</ele>
        <time>2020-09-19T11:32:39.750Z</time>
      </trkpt>
      <trkpt lat="45.81602" lon="1.21173">
        <ele>274</ele>
        <time>2020-09-19T11:32:40.750Z</time>
      </trkpt>
      <trkpt lat="45.81602" lon="1.21168">
        <ele>274</ele>
        <time>2020-09-19T11:32:41.750Z</time>
      </trkpt>
      <trkpt lat="45.81601" lon="1.21163">
        <ele>274</ele>
        <time>2020-09-19T11:32:42.750Z</time>
      </trkpt>
      <trkpt lat="45.81601" lon="1.21158">
        <ele>274</ele>
        <time>2020-09-19T11:32:43.750Z</time>
      </trkpt>
      <trkpt lat="45.81601" lon="1.21153">
        <ele>274</ele>
        <time>2020-09-19T11:32:44.750Z</time>
      </trkpt>
      <trkpt lat="45.816" lon="1.21148">
        <ele>273</ele>
        <time>2020-09-19T11:32:45.750Z</time>
      </trkpt>
      <trkpt lat="45.816" lon="1.21143">
        <ele>274</ele>
        <time>2020-09-19T11:32:46.750Z</time>
      </trkpt>
      <trkpt lat="45.81599" lon="1.21139">
        <ele>273</ele>
        <time>2020-09-19T11:32:47.750Z</time>
      </trkpt>
      <trkpt lat="45.81598" lon="1.21134">
        <ele>274</ele>
        <time>2020-09-19T11:32:48.750Z</time>
      </trkpt>
      <trkpt lat="45.81598" lon="1.2113">
        <ele>274</ele>
        <time>2020-09-19T11:32:49.750Z</time>
      </trkpt>
      <trkpt lat="45.81597" lon="1.21125">
        <ele>273</ele>
        <time>2020-09-19T11:32:50.750Z</time>
      </trkpt>
      <trkpt lat="45.81596" lon="1.21121">
        <ele>274</ele>
        <time>2020-09-19T11:32:51.750Z</time>
      </trkpt>
      <trkpt lat="45.81596" lon="1.21116">
        <ele>273</ele>
        <time>2020-09-19T11:32:52.750Z</time>
      </trkpt>
      <trkpt lat="45.81596" lon="1.21112">
        <ele>273</ele>
        <time>2020-09-19T11:32:53.750Z</time>
      </trkpt>
      <trkpt lat="45.81595" lon="1.21107">
        <ele>272</ele>
        <time>2020-09-19T11:32:54.750Z</time>
      </trkpt>
      <trkpt lat="45.81595" lon="1.21102">
        <ele>271</ele>
        <time>2020-09-19T11:32:55.750Z</time>
      </trkpt>
      <trkpt lat="45.81595" lon="1.21098">
        <ele>271</ele>
        <time>2020-09-19T11:32:56.750Z</time>
      </trkpt>
      <trkpt lat="45.81595" lon="1.21093">
        <ele>271</ele>
        <time>2020-09-19T11:32:57.750Z</time>
      </trkpt>
      <trkpt lat="45.81594" lon="1.21088">
        <ele>271</ele>
        <time>2020-09-19T11:32:58.750Z</time>
      </trkpt>
      <trkpt lat="45.81594" lon="1.21083">
        <ele>271</ele>
        <time>2020-09-19T11:32:59.750Z</time>
      </trkpt>
      <trkpt lat="45.81594" lon="1.21077">
        <ele>271</ele>
        <time>2020-09-19T11:33:00.750Z</time>
      </trkpt>
      <trkpt lat="45.81594" lon="1.21072">
        <ele>270</ele>
        <time>2020-09-19T11:33:01.750Z</time>
      </trkpt>
      <trkpt lat="45.81595" lon="1.21067">
        <ele>270</ele>
        <time>2020-09-19T11:33:02.750Z</time>
      </trkpt>
      <trkpt lat="45.81595" lon="1.21062">
        <ele>269</ele>
        <time>2020-09-19T11:33:03.750Z</time>
      </trkpt>
      <trkpt lat="45.81596" lon="1.21056">
        <ele>268</ele>
        <time>2020-09-19T11:33:04.750Z</time>
      </trkpt>
      <trkpt lat="45.81597" lon="1.21051">
        <ele>267</ele>
        <time>2020-09-19T11:33:05.750Z</time>
      </trkpt>
      <trkpt lat="45.81598" lon="1.21046">
        <ele>267</ele>
        <time>2020-09-19T11:33:06.750Z</time>
      </trkpt>
      <trkpt lat="45.81599" lon="1.21042">
        <ele>267</ele>
        <time>2020-09-19T11:33:07.750Z</time>
      </trkpt>
      <trkpt lat="45.816" lon="1.21037">
        <ele>266</ele>
        <time>2020-09-19T11:33:08.750Z</time>
      </trkpt>
      <trkpt lat="45.81601" lon="1.21032">
        <ele>267</ele>
        <time>2020-09-19T11:33:09.750Z</time>
      </trkpt>
      <trkpt lat="45.81603" lon="1.21027">
        <ele>266</ele>
        <time>2020-09-19T11:33:10.750Z</time>
      </trkpt>
      <trkpt lat="45.81605" lon="1.21023">
        <ele>265</ele>
        <time>2020-09-19T11:33:11.750Z</time>
      </trkpt>
      <trkpt lat="45.81607" lon="1.21018">
        <ele>264</ele>
        <time>2020-09-19T11:33:12.750Z</time>
      </trkpt>
      <trkpt lat="45.81609" lon="1.21014">
        <ele>262</ele>
        <time>2020-09-19T11:33:13.750Z</time>
      </trkpt>
      <trkpt lat="45.81611" lon="1.21011">
        <ele>261</ele>
        <time>2020-09-19T11:33:14.750Z</time>
      </trkpt>
      <trkpt lat="45.81613" lon="1.21009">
        <ele>261</ele>
        <time>2020-09-19T11:33:15.750Z</time>
      </trkpt>
      <trkpt lat="45.81616" lon="1.21006">
        <ele>260</ele>
        <time>2020-09-19T11:33:16.750Z</time>
      </trkpt>
      <trkpt lat="45.81619" lon="1.21003">
        <ele>260</ele>
        <time>2020-09-19T11:33:17.750Z</time>
      </trkpt>
      <trkpt lat="45.81622" lon="1.21">
        <ele>261</ele>
        <time>2020-09-19T11:33:18.750Z</time>
      </trkpt>
      <trkpt lat="45.81625" lon="1.20997">
        <ele>261</ele>
        <time>2020-09-19T11:33:19.750Z</time>
      </trkpt>
      <trkpt lat="45.81627" lon="1.20993">
        <ele>261</ele>
        <time>2020-09-19T11:33:20.750Z</time>
      </trkpt>
      <trkpt lat="45.8163" lon="1.20989">
        <ele>261</ele>
        <time>2020-09-19T11:33:21.750Z</time>
      </trkpt>
      <trkpt lat="45.81632" lon="1.20984">
        <ele>260</ele>
        <time>2020-09-19T11:33:22.750Z</time>
      </trkpt>
      <trkpt lat="45.81634" lon="1.2098">
        <ele>260</ele>
        <time>2020-09-19T11:33:23.750Z</time>
      </trkpt>
      <trkpt lat="45.81635" lon="1.20975">
        <ele>260</ele>
        <time>2020-09-19T11:33:24.750Z</time>
      </trkpt>
      <trkpt lat="45.81637" lon="1.20971">
        <ele>260</ele>
        <time>2020-09-19T11:33:25.750Z</time>
      </trkpt>
      <trkpt lat="45.81639" lon="1.20966">
        <ele>259</ele>
        <time>2020-09-19T11:33:26.750Z</time>
      </trkpt>
      <trkpt lat="45.81642" lon="1.20962">
        <ele>259</ele>
        <time>2020-09-19T11:33:27.750Z</time>
      </trkpt>
      <trkpt lat="45.81644" lon="1.20958">
        <ele>259</ele>
        <time>2020-09-19T11:33:28.750Z</time>
      </trkpt>
      <trkpt lat="45.81647" lon="1.20955">
        <ele>259</ele>
        <time>2020-09-19T11:33:29.750Z</time>
      </trkpt>
      <trkpt lat="45.8165" lon="1.20952">
        <ele>259</ele>
        <time>2020-09-19T11:33:30.750Z</time>
      </trkpt>
      <trkpt lat="45.81653" lon="1.20949">
        <ele>259</ele>
        <time>2020-09-19T11:33:31.750Z</time>
      </trkpt>
      <trkpt lat="45.81656" lon="1.20946">
        <ele>259</ele>
        <time>2020-09-19T11:33:32.750Z</time>
      </trkpt>
      <trkpt lat="45.81659" lon="1.20944">
        <ele>259</ele>
        <time>2020-09-19T11:33:33.750Z</time>
      </trkpt>
      <trkpt lat="45.81662" lon="1.20942">
        <ele>259</ele>
        <time>2020-09-19T11:33:34.750Z</time>
      </trkpt>
      <trkpt lat="45.81665" lon="1.20941">
        <ele>259</ele>
        <time>2020-09-19T11:33:35.750Z</time>
      </trkpt>
      <trkpt lat="45.81669" lon="1.2094">
        <ele>258</ele>
        <time>2020-09-19T11:33:36.750Z</time>
      </trkpt>
      <trkpt lat="45.81672" lon="1.20939">
        <ele>259</ele>
        <time>2020-09-19T11:33:37.750Z</time>
      </trkpt>
      <trkpt lat="45.81676" lon="1.20938">
        <ele>259</ele>
        <time>2020-09-19T11:33:38.750Z</time>
      </trkpt>
      <trkpt lat="45.81679" lon="1.20937">
        <ele>259</ele>
        <time>2020-09-19T11:33:39.750Z</time>
      </trkpt>
      <trkpt lat="45.81682" lon="1.20936">
        <ele>259</ele>
        <time>2020-09-19T11:33:40.750Z</time>
      </trkpt>
      <trkpt lat="45.81686" lon="1.20935">
        <ele>258</ele>
        <time>2020-09-19T11:33:41.750Z</time>
      </trkpt>
      <trkpt lat="45.81689" lon="1.20935">
        <ele>257</ele>
        <time>2020-09-19T11:33:42.750Z</time>
      </trkpt>
      <trkpt lat="45.81693" lon="1.20934">
        <ele>257</ele>
        <time>2020-09-19T11:33:43.750Z</time>
      </trkpt>
      <trkpt lat="45.81696" lon="1.20934">
        <ele>257</ele>
        <time>2020-09-19T11:33:44.750Z</time>
      </trkpt>
      <trkpt lat="45.817" lon="1.20934">
        <ele>256</ele>
        <time>2020-09-19T11:33:45.750Z</time>
      </trkpt>
      <trkpt lat="45.81704" lon="1.20933">
        <ele>256</ele>
        <time>2020-09-19T11:33:46.750Z</time>
      </trkpt>
      <trkpt lat="45.81707" lon="1.20933">
        <ele>255</ele>
        <time>2020-09-19T11:33:47.750Z</time>
      </trkpt>
      <trkpt lat="45.81711" lon="1.20932">
        <ele>255</ele>
        <time>2020-09-19T11:33:48.750Z</time>
      </trkpt>
      <trkpt lat="45.81714" lon="1.20932">
        <ele>254</ele>
        <time>2020-09-19T11:33:49.750Z</time>
      </trkpt>
      <trkpt lat="45.81717" lon="1.20931">
        <ele>254</ele>
        <time>2020-09-19T11:33:50.750Z</time>
      </trkpt>
      <trkpt lat="45.81721" lon="1.20931">
        <ele>255</ele>
        <time>2020-09-19T11:33:51.750Z</time>
      </trkpt>
      <trkpt lat="45.81724" lon="1.2093">
        <ele>254</ele>
        <time>2020-09-19T11:33:52.750Z</time>
      </trkpt>
      <trkpt lat="45.81728" lon="1.2093">
        <ele>254</ele>
        <time>2020-09-19T11:33:53.750Z</time>
      </trkpt>
      <trkpt lat="45.81731" lon="1.2093">
        <ele>254</ele>
        <time>2020-09-19T11:33:54.750Z</time>
      </trkpt>
      <trkpt lat="45.81735" lon="1.20931">
        <ele>254</ele>
        <time>2020-09-19T11:33:55.750Z</time>
      </trkpt>
      <trkpt lat="45.81738" lon="1.2093">
        <ele>254</ele>
        <time>2020-09-19T11:33:56.750Z</time>
      </trkpt>
      <trkpt lat="45.81742" lon="1.2093">
        <ele>254</ele>
        <time>2020-09-19T11:33:57.750Z</time>
      </trkpt>
      <trkpt lat="45.81745" lon="1.2093">
        <ele>254</ele>
        <time>2020-09-19T11:33:58.750Z</time>
      </trkpt>
      <trkpt lat="45.81749" lon="1.2093">
        <ele>254</ele>
        <time>2020-09-19T11:33:59.750Z</time>
      </trkpt>
      <trkpt lat="45.81752" lon="1.20929">
        <ele>253</ele>
        <time>2020-09-19T11:34:00.750Z</time>
      </trkpt>
      <trkpt lat="45.81756" lon="1.20929">
        <ele>253</ele>
        <time>2020-09-19T11:34:01.750Z</time>
      </trkpt>
      <trkpt lat="45.8176" lon="1.20929">
        <ele>252</ele>
        <time>2020-09-19T11:34:02.750Z</time>
      </trkpt>
      <trkpt lat="45.81763" lon="1.20929">
        <ele>251</ele>
        <time>2020-09-19T11:34:03.750Z</time>
      </trkpt>
      <trkpt lat="45.81767" lon="1.20929">
        <ele>251</ele>
        <time>2020-09-19T11:34:04.750Z</time>
      </trkpt>
      <trkpt lat="45.8177" lon="1.20928">
        <ele>251</ele>
        <time>2020-09-19T11:34:05.750Z</time>
      </trkpt>
      <trkpt lat="45.81773" lon="1.20928">
        <ele>251</ele>
        <time>2020-09-19T11:34:06.750Z</time>
      </trkpt>
      <trkpt lat="45.81777" lon="1.20928">
        <ele>251</ele>
        <time>2020-09-19T11:34:07.750Z</time>
      </trkpt>
      <trkpt lat="45.81781" lon="1.20928">
        <ele>250</ele>
        <time>2020-09-19T11:34:08.750Z</time>
      </trkpt>
      <trkpt lat="45.81784" lon="1.20928">
        <ele>251</ele>
        <time>2020-09-19T11:34:09.750Z</time>
      </trkpt>
      <trkpt lat="45.81787" lon="1.20927">
        <ele>250</ele>
        <time>2020-09-19T11:34:10.750Z</time>
      </trkpt>
      <trkpt lat="45.81791" lon="1.20927">
        <ele>250</ele>
        <time>2020-09-19T11:34:11.750Z</time>
      </trkpt>
      <trkpt lat="45.81794" lon="1.20927">
        <ele>249</ele>
        <time>2020-09-19T11:34:12.750Z</time>
      </trkpt>
      <trkpt lat="45.81798" lon="1.20927">
        <ele>249</ele>
        <time>2020-09-19T11:34:13.750Z</time>
      </trkpt>
      <trkpt lat="45.81801" lon="1.20927">
        <ele>249</ele>
        <time>2020-09-19T11:34:14.750Z</time>
      </trkpt>
      <trkpt lat="45.81804" lon="1.20926">
        <ele>249</ele>
        <time>2020-09-19T11:34:15.750Z</time>
      </trkpt>
      <trkpt lat="45.81807" lon="1.20926">
        <ele>248</ele>
        <time>2020-09-19T11:34:16.750Z</time>
      </trkpt>
      <trkpt lat="45.81811" lon="1.20926">
        <ele>247</ele>
        <time>2020-09-19T11:34:17.750Z</time>
      </trkpt>
      <trkpt lat="45.81814" lon="1.20926">
        <ele>247</ele>
        <time>2020-09-19T11:34:18.750Z</time>
      </trkpt>
      <trkpt lat="45.81818" lon="1.20926">
        <ele>246</ele>
        <time>2020-09-19T11:34:19.750Z</time>
      </trkpt>
      <trkpt lat="45.81821" lon="1.20926">
        <ele>246</ele>
        <time>2020-09-19T11:34:20.750Z</time>
      </trkpt>
      <trkpt lat="45.81824" lon="1.20926">
        <ele>245</ele>
        <time>2020-09-19T11:34:21.750Z</time>
      </trkpt>
      <trkpt lat="45.81828" lon="1.20926">
        <ele>245</ele>
        <time>2020-09-19T11:34:22.750Z</time>
      </trkpt>
      <trkpt lat="45.81831" lon="1.20925">
        <ele>245</ele>
        <time>2020-09-19T11:34:23.750Z</time>
      </trkpt>
      <trkpt lat="45.81834" lon="1.20925">
        <ele>244</ele>
        <time>2020-09-19T11:34:24.750Z</time>
      </trkpt>
      <trkpt lat="45.81838" lon="1.20925">
        <ele>243</ele>
        <time>2020-09-19T11:34:25.750Z</time>
      </trkpt>
      <trkpt lat="45.81841" lon="1.20924">
        <ele>243</ele>
        <time>2020-09-19T11:34:26.750Z</time>
      </trkpt>
      <trkpt lat="45.81845" lon="1.20924">
        <ele>243</ele>
        <time>2020-09-19T11:34:27.750Z</time>
      </trkpt>
      <trkpt lat="45.81848" lon="1.20924">
        <ele>242</ele>
        <time>2020-09-19T11:34:28.750Z</time>
      </trkpt>
      <trkpt lat="45.81852" lon="1.20924">
        <ele>242</ele>
        <time>2020-09-19T11:34:29.750Z</time>
      </trkpt>
      <trkpt lat="45.81855" lon="1.20923">
        <ele>242</ele>
        <time>2020-09-19T11:34:30.750Z</time>
      </trkpt>
      <trkpt lat="45.81859" lon="1.20923">
        <ele>241</ele>
        <time>2020-09-19T11:34:31.750Z</time>
      </trkpt>
      <trkpt lat="45.81862" lon="1.20923">
        <ele>242</ele>
        <time>2020-09-19T11:34:32.750Z</time>
      </trkpt>
      <trkpt lat="45.81866" lon="1.20922">
        <ele>243</ele>
        <time>2020-09-19T11:34:33.750Z</time>
      </trkpt>
      <trkpt lat="45.8187" lon="1.20922">
        <ele>243</ele>
        <time>2020-09-19T11:34:34.750Z</time>
      </trkpt>
      <trkpt lat="45.81874" lon="1.20922">
        <ele>243</ele>
        <time>2020-09-19T11:34:35.750Z</time>
      </trkpt>
      <trkpt lat="45.81877" lon="1.20922">
        <ele>243</ele>
        <time>2020-09-19T11:34:36.750Z</time>
      </trkpt>
      <trkpt lat="45.81881" lon="1.20922">
        <ele>242</ele>
        <time>2020-09-19T11:34:37.750Z</time>
      </trkpt>
      <trkpt lat="45.81884" lon="1.20921">
        <ele>242</ele>
        <time>2020-09-19T11:34:38.750Z</time>
      </trkpt>
      <trkpt lat="45.81888" lon="1.20921">
        <ele>241</ele>
        <time>2020-09-19T11:34:39.750Z</time>
      </trkpt>
      <trkpt lat="45.81891" lon="1.20921">
        <ele>241</ele>
        <time>2020-09-19T11:34:40.750Z</time>
      </trkpt>
      <trkpt lat="45.81895" lon="1.20921">
        <ele>241</ele>
        <time>2020-09-19T11:34:41.750Z</time>
      </trkpt>
      <trkpt lat="45.81898" lon="1.2092">
        <ele>241</ele>
        <time>2020-09-19T11:34:42.750Z</time>
      </trkpt>
      <trkpt lat="45.81901" lon="1.2092">
        <ele>241</ele>
        <time>2020-09-19T11:34:43.750Z</time>
      </trkpt>
      <trkpt lat="45.81905" lon="1.2092">
        <ele>241</ele>
        <time>2020-09-19T11:34:44.750Z</time>
      </trkpt>
      <trkpt lat="45.81908" lon="1.2092">
        <ele>242</ele>
        <time>2020-09-19T11:34:45.750Z</time>
      </trkpt>
      <trkpt lat="45.81912" lon="1.20919">
        <ele>241</ele>
        <time>2020-09-19T11:34:46.750Z</time>
      </trkpt>
      <trkpt lat="45.81915" lon="1.20919">
        <ele>240</ele>
        <time>2020-09-19T11:34:47.750Z</time>
      </trkpt>
      <trkpt lat="45.81919" lon="1.20919">
        <ele>240</ele>
        <time>2020-09-19T11:34:48.750Z</time>
      </trkpt>
      <trkpt lat="45.81922" lon="1.20919">
        <ele>241</ele>
        <time>2020-09-19T11:34:49.750Z</time>
      </trkpt>
      <trkpt lat="45.81926" lon="1.20919">
        <ele>241</ele>
        <time>2020-09-19T11:34:50.750Z</time>
      </trkpt>
      <trkpt lat="45.81929" lon="1.20918">
        <ele>241</ele>
        <time>2020-09-19T11:34:51.750Z</time>
      </trkpt>
      <trkpt lat="45.81933" lon="1.20918">
        <ele>240</ele>
        <time>2020-09-19T11:34:52.750Z</time>
      </trkpt>
      <trkpt lat="45.81936" lon="1.20919">
        <ele>240</ele>
        <time>2020-09-19T11:34:53.750Z</time>
      </trkpt>
      <trkpt lat="45.8194" lon="1.20919">
        <ele>240</ele>
        <time>2020-09-19T11:34:54.750Z</time>
      </trkpt>
      <trkpt lat="45.81943" lon="1.20918">
        <ele>240</ele>
        <time>2020-09-19T11:34:55.750Z</time>
      </trkpt>
      <trkpt lat="45.81947" lon="1.20918">
        <ele>240</ele>
        <time>2020-09-19T11:34:56.750Z</time>
      </trkpt>
      <trkpt lat="45.81951" lon="1.20918">
        <ele>241</ele>
        <time>2020-09-19T11:34:57.750Z</time>
      </trkpt>
      <trkpt lat="45.81954" lon="1.20918">
        <ele>241</ele>
        <time>2020-09-19T11:34:58.750Z</time>
      </trkpt>
      <trkpt lat="45.81958" lon="1.20919">
        <ele>241</ele>
        <time>2020-09-19T11:34:59.750Z</time>
      </trkpt>
      <trkpt lat="45.81962" lon="1.20918">
        <ele>241</ele>
        <time>2020-09-19T11:35:00.750Z</time>
      </trkpt>
      <trkpt lat="45.81965" lon="1.20918">
        <ele>240</ele>
        <time>2020-09-19T11:35:01.750Z</time>
      </trkpt>
      <trkpt lat="45.81969" lon="1.20918">
        <ele>240</ele>
        <time>2020-09-19T11:35:02.750Z</time>
      </trkpt>
      <trkpt lat="45.81973" lon="1.20918">
        <ele>240</ele>
        <time>2020-09-19T11:35:03.750Z</time>
      </trkpt>
      <trkpt lat="45.81976" lon="1.20917">
        <ele>239</ele>
        <time>2020-09-19T11:35:04.750Z</time>
      </trkpt>
      <trkpt lat="45.81979" lon="1.20917">
        <ele>239</ele>
        <time>2020-09-19T11:35:05.750Z</time>
      </trkpt>
      <trkpt lat="45.81983" lon="1.20917">
        <ele>238</ele>
        <time>2020-09-19T11:35:06.750Z</time>
      </trkpt>
      <trkpt lat="45.81986" lon="1.20916">
        <ele>238</ele>
        <time>2020-09-19T11:35:07.750Z</time>
      </trkpt>
      <trkpt lat="45.81989" lon="1.20915">
        <ele>238</ele>
        <time>2020-09-19T11:35:08.750Z</time>
      </trkpt>
      <trkpt lat="45.81993" lon="1.20915">
        <ele>238</ele>
        <time>2020-09-19T11:35:09.750Z</time>
      </trkpt>
      <trkpt lat="45.81996" lon="1.20914">
        <ele>237</ele>
        <time>2020-09-19T11:35:10.750Z</time>
      </trkpt>
      <trkpt lat="45.82" lon="1.20914">
        <ele>236</ele>
        <time>2020-09-19T11:35:11.750Z</time>
      </trkpt>
      <trkpt lat="45.82003" lon="1.20914">
        <ele>236</ele>
        <time>2020-09-19T11:35:12.750Z</time>
      </trkpt>
      <trkpt lat="45.82006" lon="1.20913">
        <ele>236</ele>
        <time>2020-09-19T11:35:13.750Z</time>
      </trkpt>
      <trkpt lat="45.82008" lon="1.20912">
        <ele>235</ele>
        <time>2020-09-19T11:35:14.750Z</time>
      </trkpt>
      <trkpt lat="45.82009" lon="1.20911">
        <ele>234</ele>
        <time>2020-09-19T11:35:15.750Z</time>
      </trkpt>
      <trkpt lat="45.82009" lon="1.2091">
        <ele>233</ele>
        <time>2020-09-19T11:35:16.750Z</time>
      </trkpt>
      <trkpt lat="45.82008" lon="1.2091">
        <ele>232</ele>
        <time>2020-09-19T11:35:17.750Z</time>
      </trkpt>
      <trkpt lat="45.82005" lon="1.2091">
        <ele>230</ele>
        <time>2020-09-19T11:35:18.750Z</time>
      </trkpt>
      <trkpt lat="45.82003" lon="1.2091">
        <ele>230</ele>
        <time>2020-09-19T11:35:19.750Z</time>
      </trkpt>
      <trkpt lat="45.81999" lon="1.20911">
        <ele>228</ele>
        <time>2020-09-19T11:35:20.750Z</time>
      </trkpt>
      <trkpt lat="45.81996" lon="1.20911">
        <ele>227</ele>
        <time>2020-09-19T11:35:21.750Z</time>
      </trkpt>
      <trkpt lat="45.81993" lon="1.20912">
        <ele>226</ele>
        <time>2020-09-19T11:35:22.750Z</time>
      </trkpt>
      <trkpt lat="45.8199" lon="1.20913">
        <ele>226</ele>
        <time>2020-09-19T11:35:23.750Z</time>
      </trkpt>
      <trkpt lat="45.81988" lon="1.20913">
        <ele>226</ele>
        <time>2020-09-19T11:35:24.750Z</time>
      </trkpt>
      <trkpt lat="45.81985" lon="1.20914">
        <ele>226</ele>
        <time>2020-09-19T11:35:25.750Z</time>
      </trkpt>
      <trkpt lat="45.81982" lon="1.20914">
        <ele>227</ele>
        <time>2020-09-19T11:35:26.750Z</time>
      </trkpt>
      <trkpt lat="45.8198" lon="1.20915">
        <ele>227</ele>
        <time>2020-09-19T11:35:27.750Z</time>
      </trkpt>
      <trkpt lat="45.81977" lon="1.20915">
        <ele>226</ele>
        <time>2020-09-19T11:35:28.750Z</time>
      </trkpt>
      <trkpt lat="45.81974" lon="1.20915">
        <ele>225</ele>
        <time>2020-09-19T11:35:29.750Z</time>
      </trkpt>
      <trkpt lat="45.81971" lon="1.20916">
        <ele>226</ele>
        <time>2020-09-19T11:35:30.750Z</time>
      </trkpt>
      <trkpt lat="45.81968" lon="1.20916">
        <ele>226</ele>
        <time>2020-09-19T11:35:31.750Z</time>
      </trkpt>
      <trkpt lat="45.81965" lon="1.20917">
        <ele>226</ele>
        <time>2020-09-19T11:35:32.750Z</time>
      </trkpt>
      <trkpt lat="45.81962" lon="1.20917">
        <ele>226</ele>
        <time>2020-09-19T11:35:33.750Z</time>
      </trkpt>
      <trkpt lat="45.81959" lon="1.20918">
        <ele>226</ele>
        <time>2020-09-19T11:35:34.750Z</time>
      </trkpt>
      <trkpt lat="45.81956" lon="1.20918">
        <ele>227</ele>
        <time>2020-09-19T11:35:35.750Z</time>
      </trkpt>
      <trkpt lat="45.81952" lon="1.20918">
        <ele>227</ele>
        <time>2020-09-19T11:35:36.750Z</time>
      </trkpt>
      <trkpt lat="45.81948" lon="1.20918">
        <ele>228</ele>
        <time>2020-09-19T11:35:37.750Z</time>
      </trkpt>
      <trkpt lat="45.81945" lon="1.20919">
        <ele>228</ele>
        <time>2020-09-19T11:35:38.750Z</time>
      </trkpt>
      <trkpt lat="45.81941" lon="1.20918">
        <ele>229</ele>
        <time>2020-09-19T11:35:39.750Z</time>
      </trkpt>
      <trkpt lat="45.81938" lon="1.20918">
        <ele>230</ele>
        <time>2020-09-19T11:35:40.750Z</time>
      </trkpt>
      <trkpt lat="45.81935" lon="1.20918">
        <ele>230</ele>
        <time>2020-09-19T11:35:41.750Z</time>
      </trkpt>
      <trkpt lat="45.81932" lon="1.20918">
        <ele>231</ele>
        <time>2020-09-19T11:35:42.750Z</time>
      </trkpt>
      <trkpt lat="45.8193" lon="1.20918">
        <ele>231</ele>
        <time>2020-09-19T11:35:43.750Z</time>
      </trkpt>
      <trkpt lat="45.81927" lon="1.20919">
        <ele>232</ele>
        <time>2020-09-19T11:35:44.750Z</time>
      </trkpt>
      <trkpt lat="45.81925" lon="1.20919">
        <ele>232</ele>
        <time>2020-09-19T11:35:45.750Z</time>
      </trkpt>
      <trkpt lat="45.81922" lon="1.20919">
        <ele>233</ele>
        <time>2020-09-19T11:35:46.750Z</time>
      </trkpt>
      <trkpt lat="45.81918" lon="1.20919">
        <ele>233</ele>
        <time>2020-09-19T11:35:47.750Z</time>
      </trkpt>
      <trkpt lat="45.81915" lon="1.20919">
        <ele>233</ele>
        <time>2020-09-19T11:35:48.750Z</time>
      </trkpt>
      <trkpt lat="45.81912" lon="1.2092">
        <ele>234</ele>
        <time>2020-09-19T11:35:49.750Z</time>
      </trkpt>
      <trkpt lat="45.81909" lon="1.20921">
        <ele>234</ele>
        <time>2020-09-19T11:35:50.750Z</time>
      </trkpt>
      <trkpt lat="45.81906" lon="1.20921">
        <ele>234</ele>
        <time>2020-09-19T11:35:51.750Z</time>
      </trkpt>
      <trkpt lat="45.81903" lon="1.20921">
        <ele>234</ele>
        <time>2020-09-19T11:35:52.750Z</time>
      </trkpt>
      <trkpt lat="45.819" lon="1.20921">
        <ele>234</ele>
        <time>2020-09-19T11:35:53.750Z</time>
      </trkpt>
      <trkpt lat="45.81897" lon="1.20922">
        <ele>235</ele>
        <time>2020-09-19T11:35:54.750Z</time>
      </trkpt>
      <trkpt lat="45.81894" lon="1.20922">
        <ele>235</ele>
        <time>2020-09-19T11:35:55.750Z</time>
      </trkpt>
      <trkpt lat="45.81892" lon="1.20922">
        <ele>235</ele>
        <time>2020-09-19T11:35:56.750Z</time>
      </trkpt>
      <trkpt lat="45.81889" lon="1.20923">
        <ele>236</ele>
        <time>2020-09-19T11:35:57.750Z</time>
      </trkpt>
      <trkpt lat="45.81886" lon="1.20923">
        <ele>237</ele>
        <time>2020-09-19T11:35:58.750Z</time>
      </trkpt>
      <trkpt lat="45.81883" lon="1.20923">
        <ele>238</ele>
        <time>2020-09-19T11:35:59.750Z</time>
      </trkpt>
      <trkpt lat="45.8188" lon="1.20924">
        <ele>239</ele>
        <time>2020-09-19T11:36:00.750Z</time>
      </trkpt>
      <trkpt lat="45.81877" lon="1.20924">
        <ele>239</ele>
        <time>2020-09-19T11:36:01.750Z</time>
      </trkpt>
      <trkpt lat="45.81874" lon="1.20924">
        <ele>240</ele>
        <time>2020-09-19T11:36:02.750Z</time>
      </trkpt>
      <trkpt lat="45.81871" lon="1.20925">
        <ele>241</ele>
        <time>2020-09-19T11:36:03.750Z</time>
      </trkpt>
      <trkpt lat="45.81868" lon="1.20925">
        <ele>241</ele>
        <time>2020-09-19T11:36:04.750Z</time>
      </trkpt>
      <trkpt lat="45.81865" lon="1.20925">
        <ele>242</ele>
        <time>2020-09-19T11:36:05.750Z</time>
      </trkpt>
      <trkpt lat="45.81862" lon="1.20925">
        <ele>243</ele>
        <time>2020-09-19T11:36:06.750Z</time>
      </trkpt>
      <trkpt lat="45.81859" lon="1.20925">
        <ele>244</ele>
        <time>2020-09-19T11:36:07.750Z</time>
      </trkpt>
      <trkpt lat="45.81856" lon="1.20926">
        <ele>244</ele>
        <time>2020-09-19T11:36:08.750Z</time>
      </trkpt>
      <trkpt lat="45.81853" lon="1.20927">
        <ele>244</ele>
        <time>2020-09-19T11:36:09.750Z</time>
      </trkpt>
      <trkpt lat="45.81851" lon="1.20928">
        <ele>244</ele>
        <time>2020-09-19T11:36:10.750Z</time>
      </trkpt>
      <trkpt lat="45.81848" lon="1.20929">
        <ele>245</ele>
        <time>2020-09-19T11:36:11.750Z</time>
      </trkpt>
      <trkpt lat="45.81846" lon="1.20929">
        <ele>245</ele>
        <time>2020-09-19T11:36:12.750Z</time>
      </trkpt>
      <trkpt lat="45.81843" lon="1.20928">
        <ele>246</ele>
        <time>2020-09-19T11:36:13.750Z</time>
      </trkpt>
      <trkpt lat="45.8184" lon="1.20928">
        <ele>247</ele>
        <time>2020-09-19T11:36:14.750Z</time>
      </trkpt>
      <trkpt lat="45.81837" lon="1.20927">
        <ele>247</ele>
        <time>2020-09-19T11:36:15.750Z</time>
      </trkpt>
      <trkpt lat="45.81834" lon="1.20927">
        <ele>247</ele>
        <time>2020-09-19T11:36:16.750Z</time>
      </trkpt>
      <trkpt lat="45.81831" lon="1.20928">
        <ele>246</ele>
        <time>2020-09-19T11:36:17.750Z</time>
      </trkpt>
      <trkpt lat="45.81828" lon="1.20929">
        <ele>246</ele>
        <time>2020-09-19T11:36:18.750Z</time>
      </trkpt>
      <trkpt lat="45.81824" lon="1.20929">
        <ele>246</ele>
        <time>2020-09-19T11:36:19.750Z</time>
      </trkpt>
      <trkpt lat="45.81821" lon="1.2093">
        <ele>246</ele>
        <time>2020-09-19T11:36:20.750Z</time>
      </trkpt>
      <trkpt lat="45.81818" lon="1.2093">
        <ele>247</ele>
        <time>2020-09-19T11:36:21.750Z</time>
      </trkpt>
      <trkpt lat="45.81815" lon="1.20931">
        <ele>247</ele>
        <time>2020-09-19T11:36:22.750Z</time>
      </trkpt>
      <trkpt lat="45.81812" lon="1.20931">
        <ele>247</ele>
        <time>2020-09-19T11:36:23.750Z</time>
      </trkpt>
      <trkpt lat="45.81809" lon="1.20931">
        <ele>248</ele>
        <time>2020-09-19T11:36:24.750Z</time>
      </trkpt>
      <trkpt lat="45.81806" lon="1.20932">
        <ele>248</ele>
        <time>2020-09-19T11:36:25.750Z</time>
      </trkpt>
      <trkpt lat="45.81803" lon="1.20932">
        <ele>249</ele>
        <time>2020-09-19T11:36:26.750Z</time>
      </trkpt>
      <trkpt lat="45.818" lon="1.20932">
        <ele>249</ele>
        <time>2020-09-19T11:36:27.750Z</time>
      </trkpt>
      <trkpt lat="45.81797" lon="1.20932">
        <ele>249</ele>
        <time>2020-09-19T11:36:28.750Z</time>
      </trkpt>
      <trkpt lat="45.81794" lon="1.20932">
        <ele>248</ele>
        <time>2020-09-19T11:36:29.750Z</time>
      </trkpt>
      <trkpt lat="45.81791" lon="1.20932">
        <ele>247</ele>
        <time>2020-09-19T11:36:30.750Z</time>
      </trkpt>
      <trkpt lat="45.81788" lon="1.20932">
        <ele>246</ele>
        <time>2020-09-19T11:36:31.750Z</time>
      </trkpt>
      <trkpt lat="45.81786" lon="1.20932">
        <ele>246</ele>
        <time>2020-09-19T11:36:32.750Z</time>
      </trkpt>
      <trkpt lat="45.81783" lon="1.20932">
        <ele>247</ele>
        <time>2020-09-19T11:36:33.750Z</time>
      </trkpt>
      <trkpt lat="45.81779" lon="1.20933">
        <ele>249</ele>
        <time>2020-09-19T11:36:34.750Z</time>
      </trkpt>
      <trkpt lat="45.81776" lon="1.20933">
        <ele>248</ele>
        <time>2020-09-19T11:36:35.750Z</time>
      </trkpt>
      <trkpt lat="45.81772" lon="1.20934">
        <ele>249</ele>
        <time>2020-09-19T11:36:36.750Z</time>
      </trkpt>
      <trkpt lat="45.81769" lon="1.20934">
        <ele>249</ele>
        <time>2020-09-19T11:36:37.750Z</time>
      </trkpt>
      <trkpt lat="45.81766" lon="1.20934">
        <ele>250</ele>
        <time>2020-09-19T11:36:38.750Z</time>
      </trkpt>
      <trkpt lat="45.81763" lon="1.20934">
        <ele>251</ele>
        <time>2020-09-19T11:36:39.750Z</time>
      </trkpt>
      <trkpt lat="45.8176" lon="1.20934">
        <ele>252</ele>
        <time>2020-09-19T11:36:40.750Z</time>
      </trkpt>
      <trkpt lat="45.81757" lon="1.20935">
        <ele>252</ele>
        <time>2020-09-19T11:36:41.750Z</time>
      </trkpt>
      <trkpt lat="45.81753" lon="1.20935">
        <ele>254</ele>
        <time>2020-09-19T11:36:42.750Z</time>
      </trkpt>
      <trkpt lat="45.8175" lon="1.20935">
        <ele>255</ele>
        <time>2020-09-19T11:36:43.750Z</time>
      </trkpt>
      <trkpt lat="45.81746" lon="1.20936">
        <ele>257</ele>
        <time>2020-09-19T11:36:44.750Z</time>
      </trkpt>
      <trkpt lat="45.81743" lon="1.20937">
        <ele>257</ele>
        <time>2020-09-19T11:36:45.750Z</time>
      </trkpt>
      <trkpt lat="45.8174" lon="1.20937">
        <ele>257</ele>
        <time>2020-09-19T11:36:46.750Z</time>
      </trkpt>
      <trkpt lat="45.81737" lon="1.20937">
        <ele>257</ele>
        <time>2020-09-19T11:36:47.750Z</time>
      </trkpt>
      <trkpt lat="45.81735" lon="1.20938">
        <ele>257</ele>
        <time>2020-09-19T11:36:48.750Z</time>
      </trkpt>
      <trkpt lat="45.81732" lon="1.20938">
        <ele>257</ele>
        <time>2020-09-19T11:36:49.750Z</time>
      </trkpt>
      <trkpt lat="45.81729" lon="1.20938">
        <ele>258</ele>
        <time>2020-09-19T11:36:50.750Z</time>
      </trkpt>
      <trkpt lat="45.81727" lon="1.20938">
        <ele>258</ele>
        <time>2020-09-19T11:36:51.750Z</time>
      </trkpt>
      <trkpt lat="45.81724" lon="1.20939">
        <ele>258</ele>
        <time>2020-09-19T11:36:52.750Z</time>
      </trkpt>
      <trkpt lat="45.81721" lon="1.20939">
        <ele>258</ele>
        <time>2020-09-19T11:36:53.750Z</time>
      </trkpt>
      <trkpt lat="45.81718" lon="1.20939">
        <ele>258</ele>
        <time>2020-09-19T11:36:54.750Z</time>
      </trkpt>
      <trkpt lat="45.81715" lon="1.20939">
        <ele>258</ele>
        <time>2020-09-19T11:36:55.750Z</time>
      </trkpt>
      <trkpt lat="45.81712" lon="1.20939">
        <ele>259</ele>
        <time>2020-09-19T11:36:56.750Z</time>
      </trkpt>
      <trkpt lat="45.81709" lon="1.20939">
        <ele>259</ele>
        <time>2020-09-19T11:36:57.750Z</time>
      </trkpt>
      <trkpt lat="45.81706" lon="1.20939">
        <ele>260</ele>
        <time>2020-09-19T11:36:58.750Z</time>
      </trkpt>
      <trkpt lat="45.81703" lon="1.20939">
        <ele>260</ele>
        <time>2020-09-19T11:36:59.750Z</time>
      </trkpt>
      <trkpt lat="45.81701" lon="1.20939">
        <ele>260</ele>
        <time>2020-09-19T11:37:00.750Z</time>
      </trkpt>
      <trkpt lat="45.81698" lon="1.20939">
        <ele>261</ele>
        <time>2020-09-19T11:37:01.750Z</time>
      </trkpt>
      <trkpt lat="45.81695" lon="1.2094">
        <ele>261</ele>
        <time>2020-09-19T11:37:02.750Z</time>
      </trkpt>
      <trkpt lat="45.81692" lon="1.20941">
        <ele>261</ele>
        <time>2020-09-19T11:37:03.750Z</time>
      </trkpt>
      <trkpt lat="45.81689" lon="1.20941">
        <ele>261</ele>
        <time>2020-09-19T11:37:04.750Z</time>
      </trkpt>
      <trkpt lat="45.81687" lon="1.20942">
        <ele>261</ele>
        <time>2020-09-19T11:37:05.750Z</time>
      </trkpt>
      <trkpt lat="45.81684" lon="1.20942">
        <ele>261</ele>
        <time>2020-09-19T11:37:06.750Z</time>
      </trkpt>
      <trkpt lat="45.81681" lon="1.20941">
        <ele>260</ele>
        <time>2020-09-19T11:37:07.750Z</time>
      </trkpt>
      <trkpt lat="45.81678" lon="1.20941">
        <ele>261</ele>
        <time>2020-09-19T11:37:08.750Z</time>
      </trkpt>
      <trkpt lat="45.81676" lon="1.20941">
        <ele>261</ele>
        <time>2020-09-19T11:37:09.750Z</time>
      </trkpt>
      <trkpt lat="45.81673" lon="1.20942">
        <ele>261</ele>
        <time>2020-09-19T11:37:10.750Z</time>
      </trkpt>
      <trkpt lat="45.81671" lon="1.20943">
        <ele>261</ele>
        <time>2020-09-19T11:37:11.750Z</time>
      </trkpt>
      <trkpt lat="45.81668" lon="1.20943">
        <ele>262</ele>
        <time>2020-09-19T11:37:12.750Z</time>
      </trkpt>
      <trkpt lat="45.81665" lon="1.20944">
        <ele>262</ele>
        <time>2020-09-19T11:37:13.750Z</time>
      </trkpt>
      <trkpt lat="45.81663" lon="1.20946">
        <ele>262</ele>
        <time>2020-09-19T11:37:14.750Z</time>
      </trkpt>
      <trkpt lat="45.8166" lon="1.20947">
        <ele>263</ele>
        <time>2020-09-19T11:37:15.750Z</time>
      </trkpt>
      <trkpt lat="45.81658" lon="1.20948">
        <ele>263</ele>
        <time>2020-09-19T11:37:16.750Z</time>
      </trkpt>
      <trkpt lat="45.81655" lon="1.2095">
        <ele>263</ele>
        <time>2020-09-19T11:37:17.750Z</time>
      </trkpt>
      <trkpt lat="45.81653" lon="1.20952">
        <ele>263</ele>
        <time>2020-09-19T11:37:18.750Z</time>
      </trkpt>
      <trkpt lat="45.8165" lon="1.20954">
        <ele>263</ele>
        <time>2020-09-19T11:37:19.750Z</time>
      </trkpt>
      <trkpt lat="45.81648" lon="1.20957">
        <ele>264</ele>
        <time>2020-09-19T11:37:20.750Z</time>
      </trkpt>
      <trkpt lat="45.81646" lon="1.2096">
        <ele>264</ele>
        <time>2020-09-19T11:37:21.750Z</time>
      </trkpt>
      <trkpt lat="45.81644" lon="1.20962">
        <ele>265</ele>
        <time>2020-09-19T11:37:22.750Z</time>
      </trkpt>
      <trkpt lat="45.81642" lon="1.20965">
        <ele>264</ele>
        <time>2020-09-19T11:37:23.750Z</time>
      </trkpt>
      <trkpt lat="45.8164" lon="1.20969">
        <ele>265</ele>
        <time>2020-09-19T11:37:24.750Z</time>
      </trkpt>
      <trkpt lat="45.81639" lon="1.20972">
        <ele>265</ele>
        <time>2020-09-19T11:37:25.750Z</time>
      </trkpt>
      <trkpt lat="45.81637" lon="1.20976">
        <ele>265</ele>
        <time>2020-09-19T11:37:26.750Z</time>
      </trkpt>
      <trkpt lat="45.81635" lon="1.20979">
        <ele>265</ele>
        <time>2020-09-19T11:37:27.750Z</time>
      </trkpt>
      <trkpt lat="45.81634" lon="1.20982">
        <ele>264</ele>
        <time>2020-09-19T11:37:28.750Z</time>
      </trkpt>
      <trkpt lat="45.81632" lon="1.20986">
        <ele>265</ele>
        <time>2020-09-19T11:37:29.750Z</time>
      </trkpt>
      <trkpt lat="45.8163" lon="1.20989">
        <ele>265</ele>
        <time>2020-09-19T11:37:30.750Z</time>
      </trkpt>
      <trkpt lat="45.81629" lon="1.20993">
        <ele>265</ele>
        <time>2020-09-19T11:37:31.750Z</time>
      </trkpt>
      <trkpt lat="45.81627" lon="1.20997">
        <ele>264</ele>
        <time>2020-09-19T11:37:32.750Z</time>
      </trkpt>
      <trkpt lat="45.81626" lon="1.21">
        <ele>264</ele>
        <time>2020-09-19T11:37:33.750Z</time>
      </trkpt>
      <trkpt lat="45.81625" lon="1.21004">
        <ele>265</ele>
        <time>2020-09-19T11:37:34.750Z</time>
      </trkpt>
      <trkpt lat="45.81623" lon="1.21008">
        <ele>265</ele>
        <time>2020-09-19T11:37:35.750Z</time>
      </trkpt>
      <trkpt lat="45.81622" lon="1.21011">
        <ele>265</ele>
        <time>2020-09-19T11:37:36.750Z</time>
      </trkpt>
      <trkpt lat="45.81621" lon="1.21014">
        <ele>265</ele>
        <time>2020-09-19T11:37:37.750Z</time>
      </trkpt>
      <trkpt lat="45.81619" lon="1.21017">
        <ele>265</ele>
        <time>2020-09-19T11:37:38.750Z</time>
      </trkpt>
      <trkpt lat="45.81616" lon="1.2102">
        <ele>266</ele>
        <time>2020-09-19T11:37:39.750Z</time>
      </trkpt>
      <trkpt lat="45.81613" lon="1.21022">
        <ele>267</ele>
        <time>2020-09-19T11:37:40.750Z</time>
      </trkpt>
      <trkpt lat="45.8161" lon="1.21024">
        <ele>268</ele>
        <time>2020-09-19T11:37:41.750Z</time>
      </trkpt>
      <trkpt lat="45.81607" lon="1.21025">
        <ele>268</ele>
        <time>2020-09-19T11:37:42.750Z</time>
      </trkpt>
      <trkpt lat="45.81605" lon="1.21026">
        <ele>269</ele>
        <time>2020-09-19T11:37:43.750Z</time>
      </trkpt>
      <trkpt lat="45.81603" lon="1.21028">
        <ele>269</ele>
        <time>2020-09-19T11:37:44.750Z</time>
      </trkpt>
      <trkpt lat="45.81602" lon="1.21031">
        <ele>268</ele>
        <time>2020-09-19T11:37:45.750Z</time>
      </trkpt>
      <trkpt lat="45.816" lon="1.21034">
        <ele>268</ele>
        <time>2020-09-19T11:37:46.750Z</time>
      </trkpt>
      <trkpt lat="45.81599" lon="1.21038">
        <ele>268</ele>
        <time>2020-09-19T11:37:47.750Z</time>
      </trkpt>
      <trkpt lat="45.81598" lon="1.21041">
        <ele>268</ele>
        <time>2020-09-19T11:37:48.750Z</time>
      </trkpt>
      <trkpt lat="45.81597" lon="1.21045">
        <ele>269</ele>
        <time>2020-09-19T11:37:49.750Z</time>
      </trkpt>
      <trkpt lat="45.81596" lon="1.21049">
        <ele>270</ele>
        <time>2020-09-19T11:37:50.750Z</time>
      </trkpt>
      <trkpt lat="45.81595" lon="1.21053">
        <ele>270</ele>
        <time>2020-09-19T11:37:51.750Z</time>
      </trkpt>
      <trkpt lat="45.81594" lon="1.21056">
        <ele>270</ele>
        <time>2020-09-19T11:37:52.750Z</time>
      </trkpt>
      <trkpt lat="45.81594" lon="1.2106">
        <ele>270</ele>
        <time>2020-09-19T11:37:53.750Z</time>
      </trkpt>
      <trkpt lat="45.81593" lon="1.21063">
        <ele>271</ele>
        <time>2020-09-19T11:37:54.750Z</time>
      </trkpt>
      <trkpt lat="45.81593" lon="1.21067">
        <ele>272</ele>
        <time>2020-09-19T11:37:55.750Z</time>
      </trkpt>
      <trkpt lat="45.81593" lon="1.2107">
        <ele>272</ele>
        <time>2020-09-19T11:37:56.750Z</time>
      </trkpt>
      <trkpt lat="45.81592" lon="1.21073">
        <ele>272</ele>
        <time>2020-09-19T11:37:57.750Z</time>
      </trkpt>
      <trkpt lat="45.81592" lon="1.21076">
        <ele>272</ele>
        <time>2020-09-19T11:37:58.750Z</time>
      </trkpt>
      <trkpt lat="45.81592" lon="1.21079">
        <ele>272</ele>
        <time>2020-09-19T11:37:59.750Z</time>
      </trkpt>
      <trkpt lat="45.81592" lon="1.21082">
        <ele>272</ele>
        <time>2020-09-19T11:38:00.750Z</time>
      </trkpt>
      <trkpt lat="45.81592" lon="1.21086">
        <ele>273</ele>
        <time>2020-09-19T11:38:01.750Z</time>
      </trkpt>
      <trkpt lat="45.81593" lon="1.2109">
        <ele>273</ele>
        <time>2020-09-19T11:38:02.750Z</time>
      </trkpt>
      <trkpt lat="45.81594" lon="1.21094">
        <ele>273</ele>
        <time>2020-09-19T11:38:03.750Z</time>
      </trkpt>
      <trkpt lat="45.81595" lon="1.21098">
        <ele>274</ele>
        <time>2020-09-19T11:38:04.750Z</time>
      </trkpt>
      <trkpt lat="45.81596" lon="1.21103">
        <ele>275</ele>
        <time>2020-09-19T11:38:05.750Z</time>
      </trkpt>
      <trkpt lat="45.81596" lon="1.21107">
        <ele>275</ele>
        <time>2020-09-19T11:38:06.750Z</time>
      </trkpt>
      <trkpt lat="45.81597" lon="1.21111">
        <ele>275</ele>
        <time>2020-09-19T11:38:07.750Z</time>
      </trkpt>
      <trkpt lat="45.81597" lon="1.21115">
        <ele>275</ele>
        <time>2020-09-19T11:38:08.750Z</time>
      </trkpt>
      <trkpt lat="45.81598" lon="1.21119">
        <ele>275</ele>
        <time>2020-09-19T11:38:09.750Z</time>
      </trkpt>
      <trkpt lat="45.81598" lon="1.21123">
        <ele>276</ele>
        <time>2020-09-19T11:38:10.750Z</time>
      </trkpt>
      <trkpt lat="45.81598" lon="1.21128">
        <ele>276</ele>
        <time>2020-09-19T11:38:11.750Z</time>
      </trkpt>
      <trkpt lat="45.81599" lon="1.21132">
        <ele>276</ele>
        <time>2020-09-19T11:38:12.750Z</time>
      </trkpt>
      <trkpt lat="45.816" lon="1.21136">
        <ele>276</ele>
        <time>2020-09-19T11:38:13.750Z</time>
      </trkpt>
      <trkpt lat="45.816" lon="1.21141">
        <ele>277</ele>
        <time>2020-09-19T11:38:14.750Z</time>
      </trkpt>
      <trkpt lat="45.816" lon="1.21146">
        <ele>277</ele>
        <time>2020-09-19T11:38:15.750Z</time>
      </trkpt>
      <trkpt lat="45.81601" lon="1.2115">
        <ele>278</ele>
        <time>2020-09-19T11:38:16.750Z</time>
      </trkpt>
      <trkpt lat="45.81601" lon="1.21154">
        <ele>278</ele>
        <time>2020-09-19T11:38:17.750Z</time>
      </trkpt>
      <trkpt lat="45.81602" lon="1.21159">
        <ele>277</ele>
        <time>2020-09-19T11:38:18.750Z</time>
      </trkpt>
      <trkpt lat="45.81603" lon="1.21163">
        <ele>278</ele>
        <time>2020-09-19T11:38:19.750Z</time>
      </trkpt>
      <trkpt lat="45.81603" lon="1.21168">
        <ele>278</ele>
        <time>2020-09-19T11:38:20.750Z</time>
      </trkpt>
      <trkpt lat="45.81604" lon="1.21172">
        <ele>278</ele>
        <time>2020-09-19T11:38:21.750Z</time>
      </trkpt>
      <trkpt lat="45.81605" lon="1.21177">
        <ele>278</ele>
        <time>2020-09-19T11:38:22.750Z</time>
      </trkpt>
      <trkpt lat="45.81606" lon="1.21182">
        <ele>277</ele>
        <time>2020-09-19T11:38:23.750Z</time>
      </trkpt>
      <trkpt lat="45.81606" lon="1.21186">
        <ele>278</ele>
        <time>2020-09-19T11:38:24.750Z</time>
      </trkpt>
      <trkpt lat="45.81607" lon="1.2119">
        <ele>278</ele>
        <time>2020-09-19T11:38:25.750Z</time>
      </trkpt>
      <trkpt lat="45.81607" lon="1.21195">
        <ele>277</ele>
        <time>2020-09-19T11:38:26.750Z</time>
      </trkpt>
      <trkpt lat="45.81608" lon="1.21199">
        <ele>276</ele>
        <time>2020-09-19T11:38:27.750Z</time>
      </trkpt>
      <trkpt lat="45.81608" lon="1.21203">
        <ele>276</ele>
        <time>2020-09-19T11:38:28.750Z</time>
      </trkpt>
      <trkpt lat="45.81608" lon="1.21208">
        <ele>276</ele>
        <time>2020-09-19T11:38:29.750Z</time>
      </trkpt>
      <trkpt lat="45.81609" lon="1.21212">
        <ele>276</ele>
        <time>2020-09-19T11:38:30.750Z</time>
      </trkpt>
      <trkpt lat="45.81609" lon="1.21216">
        <ele>276</ele>
        <time>2020-09-19T11:38:31.750Z</time>
      </trkpt>
      <trkpt lat="45.8161" lon="1.21221">
        <ele>276</ele>
        <time>2020-09-19T11:38:32.750Z</time>
      </trkpt>
      <trkpt lat="45.8161" lon="1.21225">
        <ele>275</ele>
        <time>2020-09-19T11:38:33.750Z</time>
      </trkpt>
      <trkpt lat="45.8161" lon="1.21229">
        <ele>275</ele>
        <time>2020-09-19T11:38:34.750Z</time>
      </trkpt>
      <trkpt lat="45.81611" lon="1.21234">
        <ele>275</ele>
        <time>2020-09-19T11:38:35.750Z</time>
      </trkpt>
      <trkpt lat="45.81611" lon="1.21238">
        <ele>274</ele>
        <time>2020-09-19T11:38:36.750Z</time>
      </trkpt>
      <trkpt lat="45.81611" lon="1.21243">
        <ele>274</ele>
        <time>2020-09-19T11:38:37.750Z</time>
      </trkpt>
      <trkpt lat="45.81612" lon="1.21247">
        <ele>274</ele>
        <time>2020-09-19T11:38:38.750Z</time>
      </trkpt>
      <trkpt lat="45.81613" lon="1.21251">
        <ele>274</ele>
        <time>2020-09-19T11:38:39.750Z</time>
      </trkpt>
      <trkpt lat="45.81613" lon="1.21256">
        <ele>274</ele>
        <time>2020-09-19T11:38:40.750Z</time>
      </trkpt>
      <trkpt lat="45.81614" lon="1.2126">
        <ele>274</ele>
        <time>2020-09-19T11:38:41.750Z</time>
      </trkpt>
      <trkpt lat="45.81614" lon="1.21265">
        <ele>274</ele>
        <time>2020-09-19T11:38:42.750Z</time>
      </trkpt>
      <trkpt lat="45.81615" lon="1.21269">
        <ele>275</ele>
        <time>2020-09-19T11:38:43.750Z</time>
      </trkpt>
      <trkpt lat="45.81615" lon="1.21274">
        <ele>275</ele>
        <time>2020-09-19T11:38:44.750Z</time>
      </trkpt>
      <trkpt lat="45.81616" lon="1.21278">
        <ele>274</ele>
        <time>2020-09-19T11:38:45.750Z</time>
      </trkpt>
      <trkpt lat="45.81616" lon="1.21283">
        <ele>274</ele>
        <time>2020-09-19T11:38:46.750Z</time>
      </trkpt>
      <trkpt lat="45.81616" lon="1.21287">
        <ele>275</ele>
        <time>2020-09-19T11:38:47.750Z</time>
      </trkpt>
      <trkpt lat="45.81617" lon="1.21291">
        <ele>275</ele>
        <time>2020-09-19T11:38:48.750Z</time>
      </trkpt>
      <trkpt lat="45.81617" lon="1.21296">
        <ele>275</ele>
        <time>2020-09-19T11:38:49.750Z</time>
      </trkpt>
      <trkpt lat="45.81617" lon="1.213">
        <ele>276</ele>
        <time>2020-09-19T11:38:50.750Z</time>
      </trkpt>
      <trkpt lat="45.81618" lon="1.21305">
        <ele>276</ele>
        <time>2020-09-19T11:38:51.750Z</time>
      </trkpt>
      <trkpt lat="45.81618" lon="1.21309">
        <ele>276</ele>
        <time>2020-09-19T11:38:52.750Z</time>
      </trkpt>
      <trkpt lat="45.81619" lon="1.21314">
        <ele>277</ele>
        <time>2020-09-19T11:38:53.750Z</time>
      </trkpt>
      <trkpt lat="45.8162" lon="1.21318">
        <ele>277</ele>
        <time>2020-09-19T11:38:54.750Z</time>
      </trkpt>
      <trkpt lat="45.81621" lon="1.21323">
        <ele>278</ele>
        <time>2020-09-19T11:38:55.750Z</time>
      </trkpt>
      <trkpt lat="45.81621" lon="1.21327">
        <ele>279</ele>
        <time>2020-09-19T11:38:56.750Z</time>
      </trkpt>
      <trkpt lat="45.81622" lon="1.21331">
        <ele>279</ele>
        <time>2020-09-19T11:38:57.750Z</time>
      </trkpt>
      <trkpt lat="45.81622" lon="1.21335">
        <ele>278</ele>
        <time>2020-09-19T11:38:58.750Z</time>
      </trkpt>
      <trkpt lat="45.81622" lon="1.2134">
        <ele>278</ele>
        <time>2020-09-19T11:38:59.750Z</time>
      </trkpt>
      <trkpt lat="45.81623" lon="1.21344">
        <ele>278</ele>
        <time>2020-09-19T11:39:00.750Z</time>
      </trkpt>
      <trkpt lat="45.81623" lon="1.21349">
        <ele>279</ele>
        <time>2020-09-19T11:39:01.750Z</time>
      </trkpt>
      <trkpt lat="45.81624" lon="1.21353">
        <ele>279</ele>
        <time>2020-09-19T11:39:02.750Z</time>
      </trkpt>
      <trkpt lat="45.81624" lon="1.21357">
        <ele>279</ele>
        <time>2020-09-19T11:39:03.750Z</time>
      </trkpt>
      <trkpt lat="45.81625" lon="1.21362">
        <ele>279</ele>
        <time>2020-09-19T11:39:04.750Z</time>
      </trkpt>
      <trkpt lat="45.81625" lon="1.21366">
        <ele>279</ele>
        <time>2020-09-19T11:39:05.750Z</time>
      </trkpt>
      <trkpt lat="45.81625" lon="1.2137">
        <ele>279</ele>
        <time>2020-09-19T11:39:06.750Z</time>
      </trkpt>
      <trkpt lat="45.81626" lon="1.21374">
        <ele>279</ele>
        <time>2020-09-19T11:39:07.750Z</time>
      </trkpt>
      <trkpt lat="45.81626" lon="1.21378">
        <ele>278</ele>
        <time>2020-09-19T11:39:08.750Z</time>
      </trkpt>
      <trkpt lat="45.81627" lon="1.21382">
        <ele>278</ele>
        <time>2020-09-19T11:39:09.750Z</time>
      </trkpt>
      <trkpt lat="45.81628" lon="1.21387">
        <ele>278</ele>
        <time>2020-09-19T11:39:10.750Z</time>
      </trkpt>
      <trkpt lat="45.81628" lon="1.21391">
        <ele>278</ele>
        <time>2020-09-19T11:39:11.750Z</time>
      </trkpt>
      <trkpt lat="45.81628" lon="1.21395">
        <ele>279</ele>
        <time>2020-09-19T11:39:12.750Z</time>
      </trkpt>
      <trkpt lat="45.81629" lon="1.214">
        <ele>278</ele>
        <time>2020-09-19T11:39:13.750Z</time>
      </trkpt>
      <trkpt lat="45.81629" lon="1.21404">
        <ele>278</ele>
        <time>2020-09-19T11:39:14.750Z</time>
      </trkpt>
      <trkpt lat="45.81629" lon="1.21408">
        <ele>279</ele>
        <time>2020-09-19T11:39:15.750Z</time>
      </trkpt>
      <trkpt lat="45.81629" lon="1.21412">
        <ele>280</ele>
        <time>2020-09-19T11:39:16.750Z</time>
      </trkpt>
      <trkpt lat="45.81629" lon="1.21417">
        <ele>280</ele>
        <time>2020-09-19T11:39:17.750Z</time>
      </trkpt>
      <trkpt lat="45.81629" lon="1.21421">
        <ele>280</ele>
        <time>2020-09-19T11:39:18.750Z</time>
      </trkpt>
      <trkpt lat="45.81629" lon="1.21425">
        <ele>280</ele>
        <time>2020-09-19T11:39:19.750Z</time>
      </trkpt>
      <trkpt lat="45.81629" lon="1.21429">
        <ele>281</ele>
        <time>2020-09-19T11:39:20.750Z</time>
      </trkpt>
      <trkpt lat="45.81629" lon="1.21433">
        <ele>281</ele>
        <time>2020-09-19T11:39:21.750Z</time>
      </trkpt>
      <trkpt lat="45.81628" lon="1.21437">
        <ele>282</ele>
        <time>2020-09-19T11:39:22.750Z</time>
      </trkpt>
      <trkpt lat="45.81628" lon="1.21441">
        <ele>282</ele>
        <time>2020-09-19T11:39:23.750Z</time>
      </trkpt>
      <trkpt lat="45.81628" lon="1.21445">
        <ele>282</ele>
        <time>2020-09-19T11:39:24.750Z</time>
      </trkpt>
      <trkpt lat="45.81628" lon="1.21448">
        <ele>282</ele>
        <time>2020-09-19T11:39:25.750Z</time>
      </trkpt>
      <trkpt lat="45.81627" lon="1.21452">
        <ele>282</ele>
        <time>2020-09-19T11:39:26.750Z</time>
      </trkpt>
      <trkpt lat="45.81626" lon="1.21456">
        <ele>283</ele>
        <time>2020-09-19T11:39:27.750Z</time>
      </trkpt>
      <trkpt lat="45.81626" lon="1.2146">
        <ele>284</ele>
        <time>2020-09-19T11:39:28.750Z</time>
      </trkpt>
      <trkpt lat="45.81625" lon="1.21463">
        <ele>284</ele>
        <time>2020-09-19T11:39:29.750Z</time>
      </trkpt>
      <trkpt lat="45.81623" lon="1.21467">
        <ele>285</ele>
        <time>2020-09-19T11:39:30.750Z</time>
      </trkpt>
      <trkpt lat="45.81622" lon="1.21471">
        <ele>285</ele>
        <time>2020-09-19T11:39:31.750Z</time>
      </trkpt>
      <trkpt lat="45.81621" lon="1.21474">
        <ele>284</ele>
        <time>2020-09-19T11:39:32.750Z</time>
      </trkpt>
      <trkpt lat="45.81619" lon="1.21478">
        <ele>285</ele>
        <time>2020-09-19T11:39:33.750Z</time>
      </trkpt>
      <trkpt lat="45.81617" lon="1.21481">
        <ele>286</ele>
        <time>2020-09-19T11:39:34.750Z</time>
      </trkpt>
      <trkpt lat="45.81615" lon="1.21484">
        <ele>286</ele>
        <time>2020-09-19T11:39:35.750Z</time>
      </trkpt>
      <trkpt lat="45.81613" lon="1.21486">
        <ele>286</ele>
        <time>2020-09-19T11:39:36.750Z</time>
      </trkpt>
      <trkpt lat="45.8161" lon="1.21489">
        <ele>288</ele>
        <time>2020-09-19T11:39:37.750Z</time>
      </trkpt>
      <trkpt lat="45.81607" lon="1.21491">
        <ele>288</ele>
        <time>2020-09-19T11:39:38.750Z</time>
      </trkpt>
      <trkpt lat="45.81604" lon="1.21493">
        <ele>289</ele>
        <time>2020-09-19T11:39:39.750Z</time>
      </trkpt>
      <trkpt lat="45.816" lon="1.21494">
        <ele>289</ele>
        <time>2020-09-19T11:39:40.750Z</time>
      </trkpt>
      <trkpt lat="45.81597" lon="1.21495">
        <ele>289</ele>
        <time>2020-09-19T11:39:41.750Z</time>
      </trkpt>
      <trkpt lat="45.81593" lon="1.21495">
        <ele>289</ele>
        <time>2020-09-19T11:39:42.750Z</time>
      </trkpt>
      <trkpt lat="45.8159" lon="1.21495">
        <ele>289</ele>
        <time>2020-09-19T11:39:43.750Z</time>
      </trkpt>
      <trkpt lat="45.81587" lon="1.21495">
        <ele>288</ele>
        <time>2020-09-19T11:39:44.750Z</time>
      </trkpt>
      <trkpt lat="45.81584" lon="1.21495">
        <ele>291</ele>
        <time>2020-09-19T11:39:45.750Z</time>
      </trkpt>
      <trkpt lat="45.81581" lon="1.21494">
        <ele>291</ele>
        <time>2020-09-19T11:39:46.750Z</time>
      </trkpt>
      <trkpt lat="45.81578" lon="1.21493">
        <ele>291</ele>
        <time>2020-09-19T11:39:47.750Z</time>
      </trkpt>
      <trkpt lat="45.81575" lon="1.21493">
        <ele>290</ele>
        <time>2020-09-19T11:39:48.750Z</time>
      </trkpt>
      <trkpt lat="45.81573" lon="1.21492">
        <ele>290</ele>
        <time>2020-09-19T11:39:49.750Z</time>
      </trkpt>
      <trkpt lat="45.8157" lon="1.21491">
        <ele>290</ele>
        <time>2020-09-19T11:39:50.750Z</time>
      </trkpt>
      <trkpt lat="45.81568" lon="1.2149">
        <ele>290</ele>
        <time>2020-09-19T11:39:51.750Z</time>
      </trkpt>
      <trkpt lat="45.81565" lon="1.21489">
        <ele>291</ele>
        <time>2020-09-19T11:39:52.750Z</time>
      </trkpt>
      <trkpt lat="45.81562" lon="1.21487">
        <ele>291</ele>
        <time>2020-09-19T11:39:53.750Z</time>
      </trkpt>
      <trkpt lat="45.8156" lon="1.21486">
        <ele>292</ele>
        <time>2020-09-19T11:39:54.750Z</time>
      </trkpt>
      <trkpt lat="45.81557" lon="1.21485">
        <ele>292</ele>
        <time>2020-09-19T11:39:55.750Z</time>
      </trkpt>
      <trkpt lat="45.81554" lon="1.21484">
        <ele>293</ele>
        <time>2020-09-19T11:39:56.750Z</time>
      </trkpt>
      <trkpt lat="45.81551" lon="1.21483">
        <ele>293</ele>
        <time>2020-09-19T11:39:57.750Z</time>
      </trkpt>
      <trkpt lat="45.81549" lon="1.21481">
        <ele>292</ele>
        <time>2020-09-19T11:39:58.750Z</time>
      </trkpt>
      <trkpt lat="45.81546" lon="1.2148">
        <ele>293</ele>
        <time>2020-09-19T11:39:59.750Z</time>
      </trkpt>
      <trkpt lat="45.81543" lon="1.21479">
        <ele>292</ele>
        <time>2020-09-19T11:40:00.750Z</time>
      </trkpt>
      <trkpt lat="45.8154" lon="1.21478">
        <ele>292</ele>
        <time>2020-09-19T11:40:01.750Z</time>
      </trkpt>
      <trkpt lat="45.81538" lon="1.21477">
        <ele>293</ele>
        <time>2020-09-19T11:40:02.750Z</time>
      </trkpt>
      <trkpt lat="45.81535" lon="1.21476">
        <ele>293</ele>
        <time>2020-09-19T11:40:03.750Z</time>
      </trkpt>
      <trkpt lat="45.81533" lon="1.21474">
        <ele>293</ele>
        <time>2020-09-19T11:40:04.750Z</time>
      </trkpt>
      <trkpt lat="45.8153" lon="1.21473">
        <ele>293</ele>
        <time>2020-09-19T11:40:05.750Z</time>
      </trkpt>
      <trkpt lat="45.81527" lon="1.21472">
        <ele>293</ele>
        <time>2020-09-19T11:40:06.750Z</time>
      </trkpt>
      <trkpt lat="45.81525" lon="1.21471">
        <ele>293</ele>
        <time>2020-09-19T11:40:07.750Z</time>
      </trkpt>
      <trkpt lat="45.81522" lon="1.2147">
        <ele>293</ele>
        <time>2020-09-19T11:40:08.750Z</time>
      </trkpt>
      <trkpt lat="45.81519" lon="1.21469">
        <ele>293</ele>
        <time>2020-09-19T11:40:09.750Z</time>
      </trkpt>
      <trkpt lat="45.81517" lon="1.21468">
        <ele>293</ele>
        <time>2020-09-19T11:40:10.750Z</time>
      </trkpt>
      <trkpt lat="45.81514" lon="1.21467">
        <ele>293</ele>
        <time>2020-09-19T11:40:11.750Z</time>
      </trkpt>
      <trkpt lat="45.81511" lon="1.21465">
        <ele>293</ele>
        <time>2020-09-19T11:40:12.750Z</time>
      </trkpt>
      <trkpt lat="45.81509" lon="1.21464">
        <ele>293</ele>
        <time>2020-09-19T11:40:13.750Z</time>
      </trkpt>
      <trkpt lat="45.81506" lon="1.21464">
        <ele>294</ele>
        <time>2020-09-19T11:40:14.750Z</time>
      </trkpt>
      <trkpt lat="45.81504" lon="1.21463">
        <ele>294</ele>
        <time>2020-09-19T11:40:15.750Z</time>
      </trkpt>
      <trkpt lat="45.81501" lon="1.21461">
        <ele>294</ele>
        <time>2020-09-19T11:40:16.750Z</time>
      </trkpt>
      <trkpt lat="45.81499" lon="1.2146">
        <ele>295</ele>
        <time>2020-09-19T11:40:17.750Z</time>
      </trkpt>
      <trkpt lat="45.81496" lon="1.2146">
        <ele>294</ele>
        <time>2020-09-19T11:40:18.750Z</time>
      </trkpt>
      <trkpt lat="45.81493" lon="1.21459">
        <ele>294</ele>
        <time>2020-09-19T11:40:19.750Z</time>
      </trkpt>
      <trkpt lat="45.81491" lon="1.21458">
        <ele>294</ele>
        <time>2020-09-19T11:40:20.750Z</time>
      </trkpt>
      <trkpt lat="45.81488" lon="1.21457">
        <ele>295</ele>
        <time>2020-09-19T11:40:21.750Z</time>
      </trkpt>
      <trkpt lat="45.81485" lon="1.21456">
        <ele>295</ele>
        <time>2020-09-19T11:40:22.750Z</time>
      </trkpt>
      <trkpt lat="45.81483" lon="1.21455">
        <ele>296</ele>
        <time>2020-09-19T11:40:23.750Z</time>
      </trkpt>
      <trkpt lat="45.8148" lon="1.21454">
        <ele>297</ele>
        <time>2020-09-19T11:40:24.750Z</time>
      </trkpt>
      <trkpt lat="45.81477" lon="1.21453">
        <ele>296</ele>
        <time>2020-09-19T11:40:25.750Z</time>
      </trkpt>
      <trkpt lat="45.81474" lon="1.21452">
        <ele>297</ele>
        <time>2020-09-19T11:40:26.750Z</time>
      </trkpt>
      <trkpt lat="45.81471" lon="1.21451">
        <ele>296</ele>
        <time>2020-09-19T11:40:27.750Z</time>
      </trkpt>
      <trkpt lat="45.81468" lon="1.2145">
        <ele>297</ele>
        <time>2020-09-19T11:40:28.750Z</time>
      </trkpt>
      <trkpt lat="45.81465" lon="1.21449">
        <ele>298</ele>
        <time>2020-09-19T11:40:29.750Z</time>
      </trkpt>
      <trkpt lat="45.81462" lon="1.21448">
        <ele>299</ele>
        <time>2020-09-19T11:40:30.750Z</time>
      </trkpt>
      <trkpt lat="45.81459" lon="1.21447">
        <ele>299</ele>
        <time>2020-09-19T11:40:31.750Z</time>
      </trkpt>
      <trkpt lat="45.81456" lon="1.21446">
        <ele>299</ele>
        <time>2020-09-19T11:40:32.750Z</time>
      </trkpt>
      <trkpt lat="45.81453" lon="1.21445">
        <ele>299</ele>
        <time>2020-09-19T11:40:33.750Z</time>
      </trkpt>
      <trkpt lat="45.8145" lon="1.21444">
        <ele>299</ele>
        <time>2020-09-19T11:40:34.750Z</time>
      </trkpt>
      <trkpt lat="45.81447" lon="1.21443">
        <ele>299</ele>
        <time>2020-09-19T11:40:35.750Z</time>
      </trkpt>
      <trkpt lat="45.81444" lon="1.21442">
        <ele>299</ele>
        <time>2020-09-19T11:40:36.750Z</time>
      </trkpt>
      <trkpt lat="45.81441" lon="1.21441">
        <ele>299</ele>
        <time>2020-09-19T11:40:37.750Z</time>
      </trkpt>
      <trkpt lat="45.81438" lon="1.21439">
        <ele>300</ele>
        <time>2020-09-19T11:40:38.750Z</time>
      </trkpt>
      <trkpt lat="45.81435" lon="1.21438">
        <ele>300</ele>
        <time>2020-09-19T11:40:39.750Z</time>
      </trkpt>
      <trkpt lat="45.81432" lon="1.21436">
        <ele>300</ele>
        <time>2020-09-19T11:40:40.750Z</time>
      </trkpt>
      <trkpt lat="45.81429" lon="1.21435">
        <ele>300</ele>
        <time>2020-09-19T11:40:41.750Z</time>
      </trkpt>
      <trkpt lat="45.81425" lon="1.21433">
        <ele>300</ele>
        <time>2020-09-19T11:40:42.750Z</time>
      </trkpt>
      <trkpt lat="45.81422" lon="1.21432">
        <ele>300</ele>
        <time>2020-09-19T11:40:43.750Z</time>
      </trkpt>
      <trkpt lat="45.8142" lon="1.2143">
        <ele>301</ele>
        <time>2020-09-19T11:40:44.750Z</time>
      </trkpt>
      <trkpt lat="45.81417" lon="1.21429">
        <ele>300</ele>
        <time>2020-09-19T11:40:45.750Z</time>
      </trkpt>
      <trkpt lat="45.81414" lon="1.21427">
        <ele>301</ele>
        <time>2020-09-19T11:40:46.750Z</time>
      </trkpt>
      <trkpt lat="45.81411" lon="1.21426">
        <ele>300</ele>
        <time>2020-09-19T11:40:47.750Z</time>
      </trkpt>
      <trkpt lat="45.81408" lon="1.21425">
        <ele>300</ele>
        <time>2020-09-19T11:40:48.750Z</time>
      </trkpt>
      <trkpt lat="45.81405" lon="1.21424">
        <ele>300</ele>
        <time>2020-09-19T11:40:49.750Z</time>
      </trkpt>
      <trkpt lat="45.81402" lon="1.21424">
        <ele>300</ele>
        <time>2020-09-19T11:40:50.750Z</time>
      </trkpt>
      <trkpt lat="45.81398" lon="1.21423">
        <ele>300</ele>
        <time>2020-09-19T11:40:51.750Z</time>
      </trkpt>
      <trkpt lat="45.81395" lon="1.21422">
        <ele>300</ele>
        <time>2020-09-19T11:40:52.750Z</time>
      </trkpt>
      <trkpt lat="45.81392" lon="1.21422">
        <ele>301</ele>
        <time>2020-09-19T11:40:53.750Z</time>
      </trkpt>
      <trkpt lat="45.81389" lon="1.21421">
        <ele>301</ele>
        <time>2020-09-19T11:40:54.750Z</time>
      </trkpt>
      <trkpt lat="45.81386" lon="1.21421">
        <ele>300</ele>
        <time>2020-09-19T11:40:55.750Z</time>
      </trkpt>
      <trkpt lat="45.81383" lon="1.21421">
        <ele>301</ele>
        <time>2020-09-19T11:40:56.750Z</time>
      </trkpt>
      <trkpt lat="45.81379" lon="1.21421">
        <ele>301</ele>
        <time>2020-09-19T11:40:57.750Z</time>
      </trkpt>
      <trkpt lat="45.81376" lon="1.21422">
        <ele>300</ele>
        <time>2020-09-19T11:40:58.750Z</time>
      </trkpt>
      <trkpt lat="45.81373" lon="1.21422">
        <ele>300</ele>
        <time>2020-09-19T11:40:59.750Z</time>
      </trkpt>
      <trkpt lat="45.8137" lon="1.21422">
        <ele>299</ele>
        <time>2020-09-19T11:41:00.750Z</time>
      </trkpt>
      <trkpt lat="45.81367" lon="1.21423">
        <ele>300</ele>
        <time>2020-09-19T11:41:01.750Z</time>
      </trkpt>
      <trkpt lat="45.81364" lon="1.21423">
        <ele>300</ele>
        <time>2020-09-19T11:41:02.750Z</time>
      </trkpt>
      <trkpt lat="45.81361" lon="1.21424">
        <ele>300</ele>
        <time>2020-09-19T11:41:03.750Z</time>
      </trkpt>
      <trkpt lat="45.81357" lon="1.21425">
        <ele>300</ele>
        <time>2020-09-19T11:41:04.750Z</time>
      </trkpt>
      <trkpt lat="45.81354" lon="1.21426">
        <ele>299</ele>
        <time>2020-09-19T11:41:05.750Z</time>
      </trkpt>
      <trkpt lat="45.81351" lon="1.21427">
        <ele>300</ele>
        <time>2020-09-19T11:41:06.750Z</time>
      </trkpt>
      <trkpt lat="45.81348" lon="1.21428">
        <ele>299</ele>
        <time>2020-09-19T11:41:07.750Z</time>
      </trkpt>
      <trkpt lat="45.81345" lon="1.2143">
        <ele>299</ele>
        <time>2020-09-19T11:41:08.750Z</time>
      </trkpt>
      <trkpt lat="45.81342" lon="1.21432">
        <ele>300</ele>
        <time>2020-09-19T11:41:09.750Z</time>
      </trkpt>
      <trkpt lat="45.81339" lon="1.21433">
        <ele>300</ele>
        <time>2020-09-19T11:41:10.750Z</time>
      </trkpt>
      <trkpt lat="45.81335" lon="1.21435">
        <ele>300</ele>
        <time>2020-09-19T11:41:11.750Z</time>
      </trkpt>
      <trkpt lat="45.81332" lon="1.21437">
        <ele>301</ele>
        <time>2020-09-19T11:41:12.750Z</time>
      </trkpt>
      <trkpt lat="45.81329" lon="1.21439">
        <ele>300</ele>
        <time>2020-09-19T11:41:13.750Z</time>
      </trkpt>
      <trkpt lat="45.81326" lon="1.21442">
        <ele>301</ele>
        <time>2020-09-19T11:41:14.750Z</time>
      </trkpt>
      <trkpt lat="45.81322" lon="1.21444">
        <ele>302</ele>
        <time>2020-09-19T11:41:15.750Z</time>
      </trkpt>
      <trkpt lat="45.8132" lon="1.21447">
        <ele>302</ele>
        <time>2020-09-19T11:41:16.750Z</time>
      </trkpt>
      <trkpt lat="45.81317" lon="1.2145">
        <ele>302</ele>
        <time>2020-09-19T11:41:17.750Z</time>
      </trkpt>
      <trkpt lat="45.81314" lon="1.21453">
        <ele>302</ele>
        <time>2020-09-19T11:41:18.750Z</time>
      </trkpt>
      <trkpt lat="45.81311" lon="1.21456">
        <ele>303</ele>
        <time>2020-09-19T11:41:19.750Z</time>
      </trkpt>
      <trkpt lat="45.81308" lon="1.21459">
        <ele>305</ele>
        <time>2020-09-19T11:41:20.750Z</time>
      </trkpt>
      <trkpt lat="45.81305" lon="1.21463">
        <ele>305</ele>
        <time>2020-09-19T11:41:21.750Z</time>
      </trkpt>
      <trkpt lat="45.81302" lon="1.21466">
        <ele>306</ele>
        <time>2020-09-19T11:41:22.750Z</time>
      </trkpt>
      <trkpt lat="45.813" lon="1.21469">
        <ele>308</ele>
        <time>2020-09-19T11:41:23.750Z</time>
      </trkpt>
      <trkpt lat="45.81297" lon="1.21473">
        <ele>309</ele>
        <time>2020-09-19T11:41:24.750Z</time>
      </trkpt>
      <trkpt lat="45.81295" lon="1.21476">
        <ele>310</ele>
        <time>2020-09-19T11:41:25.750Z</time>
      </trkpt>
      <trkpt lat="45.81292" lon="1.2148">
        <ele>311</ele>
        <time>2020-09-19T11:41:26.750Z</time>
      </trkpt>
      <trkpt lat="45.8129" lon="1.21483">
        <ele>312</ele>
        <time>2020-09-19T11:41:27.750Z</time>
      </trkpt>
      <trkpt lat="45.81287" lon="1.21487">
        <ele>313</ele>
        <time>2020-09-19T11:41:28.750Z</time>
      </trkpt>
      <trkpt lat="45.81284" lon="1.2149">
        <ele>313</ele>
        <time>2020-09-19T11:41:29.750Z</time>
      </trkpt>
      <trkpt lat="45.81282" lon="1.21494">
        <ele>313</ele>
        <time>2020-09-19T11:41:30.750Z</time>
      </trkpt>
      <trkpt lat="45.81281" lon="1.21498">
        <ele>313</ele>
        <time>2020-09-19T11:41:31.750Z</time>
      </trkpt>
      <trkpt lat="45.81279" lon="1.21501">
        <ele>313</ele>
        <time>2020-09-19T11:41:32.750Z</time>
      </trkpt>
      <trkpt lat="45.81278" lon="1.21505">
        <ele>313</ele>
        <time>2020-09-19T11:41:33.750Z</time>
      </trkpt>
      <trkpt lat="45.81276" lon="1.2151">
        <ele>312</ele>
        <time>2020-09-19T11:41:34.750Z</time>
      </trkpt>
      <trkpt lat="45.81275" lon="1.21514">
        <ele>312</ele>
        <time>2020-09-19T11:41:35.750Z</time>
      </trkpt>
      <trkpt lat="45.81274" lon="1.21519">
        <ele>312</ele>
        <time>2020-09-19T11:41:36.750Z</time>
      </trkpt>
      <trkpt lat="45.81273" lon="1.21523">
        <ele>312</ele>
        <time>2020-09-19T11:41:37.750Z</time>
      </trkpt>
      <trkpt lat="45.81272" lon="1.21528">
        <ele>311</ele>
        <time>2020-09-19T11:41:38.750Z</time>
      </trkpt>
      <trkpt lat="45.8127" lon="1.21532">
        <ele>311</ele>
        <time>2020-09-19T11:41:39.750Z</time>
      </trkpt>
      <trkpt lat="45.81268" lon="1.21535">
        <ele>313</ele>
        <time>2020-09-19T11:41:40.750Z</time>
      </trkpt>
      <trkpt lat="45.81266" lon="1.21538">
        <ele>313</ele>
        <time>2020-09-19T11:41:41.750Z</time>
      </trkpt>
      <trkpt lat="45.81264" lon="1.2154">
        <ele>312</ele>
        <time>2020-09-19T11:41:42.750Z</time>
      </trkpt>
      <trkpt lat="45.81262" lon="1.21542">
        <ele>312</ele>
        <time>2020-09-19T11:41:43.750Z</time>
      </trkpt>
      <trkpt lat="45.8126" lon="1.21544">
        <ele>312</ele>
        <time>2020-09-19T11:41:44.750Z</time>
      </trkpt>
      <trkpt lat="45.81257" lon="1.21546">
        <ele>313</ele>
        <time>2020-09-19T11:41:45.750Z</time>
      </trkpt>
      <trkpt lat="45.81255" lon="1.21548">
        <ele>313</ele>
        <time>2020-09-19T11:41:46.750Z</time>
      </trkpt>
      <trkpt lat="45.81253" lon="1.21549">
        <ele>312</ele>
        <time>2020-09-19T11:41:47.750Z</time>
      </trkpt>
      <trkpt lat="45.81251" lon="1.2155">
        <ele>314</ele>
        <time>2020-09-19T11:41:48.750Z</time>
      </trkpt>
      <trkpt lat="45.81248" lon="1.21551">
        <ele>315</ele>
        <time>2020-09-19T11:41:49.750Z</time>
      </trkpt>
      <trkpt lat="45.81246" lon="1.21552">
        <ele>315</ele>
        <time>2020-09-19T11:41:50.750Z</time>
      </trkpt>
      <trkpt lat="45.81243" lon="1.21554">
        <ele>316</ele>
        <time>2020-09-19T11:41:51.750Z</time>
      </trkpt>
      <trkpt lat="45.8124" lon="1.21555">
        <ele>317</ele>
        <time>2020-09-19T11:41:52.750Z</time>
      </trkpt>
      <trkpt lat="45.81237" lon="1.21557">
        <ele>318</ele>
        <time>2020-09-19T11:41:53.750Z</time>
      </trkpt>
      <trkpt lat="45.81234" lon="1.21559">
        <ele>319</ele>
        <time>2020-09-19T11:41:54.750Z</time>
      </trkpt>
      <trkpt lat="45.81231" lon="1.2156">
        <ele>319</ele>
        <time>2020-09-19T11:41:55.750Z</time>
      </trkpt>
      <trkpt lat="45.81229" lon="1.21561">
        <ele>320</ele>
        <time>2020-09-19T11:41:56.750Z</time>
      </trkpt>
      <trkpt lat="45.81226" lon="1.21562">
        <ele>321</ele>
        <time>2020-09-19T11:41:57.750Z</time>
      </trkpt>
      <trkpt lat="45.81223" lon="1.21562">
        <ele>322</ele>
        <time>2020-09-19T11:41:58.750Z</time>
      </trkpt>
      <trkpt lat="45.8122" lon="1.21563">
        <ele>323</ele>
        <time>2020-09-19T11:41:59.750Z</time>
      </trkpt>
      <trkpt lat="45.81217" lon="1.21564">
        <ele>324</ele>
        <time>2020-09-19T11:42:00.750Z</time>
      </trkpt>
      <trkpt lat="45.81214" lon="1.21565">
        <ele>324</ele>
        <time>2020-09-19T11:42:01.750Z</time>
      </trkpt>
      <trkpt lat="45.81211" lon="1.21566">
        <ele>325</ele>
        <time>2020-09-19T11:42:02.750Z</time>
      </trkpt>
      <trkpt lat="45.81209" lon="1.21567">
        <ele>326</ele>
        <time>2020-09-19T11:42:03.750Z</time>
      </trkpt>
      <trkpt lat="45.81207" lon="1.21568">
        <ele>326</ele>
        <time>2020-09-19T11:42:04.750Z</time>
      </trkpt>
      <trkpt lat="45.81206" lon="1.2157">
        <ele>327</ele>
        <time>2020-09-19T11:42:05.750Z</time>
      </trkpt>
      <trkpt lat="45.81206" lon="1.21571">
        <ele>326</ele>
        <time>2020-09-19T11:42:06.750Z</time>
      </trkpt>
      <trkpt lat="45.81207" lon="1.2162">
        <ele>324</ele>
        <time>2020-09-19T11:43:18.375Z</time>
      </trkpt>
      <trkpt lat="45.81208" lon="1.21621">
        <ele>324</ele>
        <time>2020-09-19T11:43:19.375Z</time>
      </trkpt>
      <trkpt lat="45.81208" lon="1.21623">
        <ele>324</ele>
        <time>2020-09-19T11:43:20.375Z</time>
      </trkpt>
      <trkpt lat="45.81209" lon="1.21625">
        <ele>324</ele>
        <time>2020-09-19T11:43:21.375Z</time>
      </trkpt>
      <trkpt lat="45.81209" lon="1.21628">
        <ele>324</ele>
        <time>2020-09-19T11:43:22.375Z</time>
      </trkpt>
      <trkpt lat="45.81209" lon="1.21631">
        <ele>324</ele>
        <time>2020-09-19T11:43:23.375Z</time>
      </trkpt>
      <trkpt lat="45.8121" lon="1.21634">
        <ele>324</ele>
        <time>2020-09-19T11:43:24.375Z</time>
      </trkpt>
      <trkpt lat="45.81211" lon="1.21638">
        <ele>325</ele>
        <time>2020-09-19T11:43:25.375Z</time>
      </trkpt>
      <trkpt lat="45.81211" lon="1.21642">
        <ele>326</ele>
        <time>2020-09-19T11:43:26.375Z</time>
      </trkpt>
      <trkpt lat="45.81212" lon="1.21647">
        <ele>327</ele>
        <time>2020-09-19T11:43:27.375Z</time>
      </trkpt>
      <trkpt lat="45.81212" lon="1.21652">
        <ele>327</ele>
        <time>2020-09-19T11:43:28.375Z</time>
      </trkpt>
      <trkpt lat="45.81213" lon="1.21656">
        <ele>327</ele>
        <time>2020-09-19T11:43:29.375Z</time>
      </trkpt>
      <trkpt lat="45.81214" lon="1.21661">
        <ele>327</ele>
        <time>2020-09-19T11:43:30.375Z</time>
      </trkpt>
      <trkpt lat="45.81214" lon="1.21665">
        <ele>328</ele>
        <time>2020-09-19T11:43:31.375Z</time>
      </trkpt>
      <trkpt lat="45.81215" lon="1.2167">
        <ele>328</ele>
        <time>2020-09-19T11:43:32.375Z</time>
      </trkpt>
      <trkpt lat="45.81216" lon="1.21675">
        <ele>326</ele>
        <time>2020-09-19T11:43:33.375Z</time>
      </trkpt>
      <trkpt lat="45.81217" lon="1.21679">
        <ele>325</ele>
        <time>2020-09-19T11:43:34.375Z</time>
      </trkpt>
      <trkpt lat="45.81218" lon="1.21684">
        <ele>324</ele>
        <time>2020-09-19T11:43:35.375Z</time>
      </trkpt>
      <trkpt lat="45.8122" lon="1.21689">
        <ele>322</ele>
        <time>2020-09-19T11:43:36.375Z</time>
      </trkpt>
      <trkpt lat="45.81221" lon="1.21694">
        <ele>321</ele>
        <time>2020-09-19T11:43:37.375Z</time>
      </trkpt>
      <trkpt lat="45.81223" lon="1.21698">
        <ele>320</ele>
        <time>2020-09-19T11:43:38.375Z</time>
      </trkpt>
      <trkpt lat="45.81224" lon="1.21703">
        <ele>321</ele>
        <time>2020-09-19T11:43:39.375Z</time>
      </trkpt>
      <trkpt lat="45.81226" lon="1.21707">
        <ele>320</ele>
        <time>2020-09-19T11:43:40.375Z</time>
      </trkpt>
      <trkpt lat="45.81228" lon="1.21712">
        <ele>321</ele>
        <time>2020-09-19T11:43:41.375Z</time>
      </trkpt>
      <trkpt lat="45.81229" lon="1.21716">
        <ele>321</ele>
        <time>2020-09-19T11:43:42.375Z</time>
      </trkpt>
      <trkpt lat="45.8123" lon="1.21721">
        <ele>322</ele>
        <time>2020-09-19T11:43:43.375Z</time>
      </trkpt>
      <trkpt lat="45.81231" lon="1.21726">
        <ele>322</ele>
        <time>2020-09-19T11:43:44.375Z</time>
      </trkpt>
      <trkpt lat="45.81232" lon="1.21731">
        <ele>323</ele>
        <time>2020-09-19T11:43:45.375Z</time>
      </trkpt>
      <trkpt lat="45.81232" lon="1.21735">
        <ele>323</ele>
        <time>2020-09-19T11:43:46.375Z</time>
      </trkpt>
      <trkpt lat="45.81232" lon="1.2174">
        <ele>323</ele>
        <time>2020-09-19T11:43:47.375Z</time>
      </trkpt>
      <trkpt lat="45.81232" lon="1.21744">
        <ele>323</ele>
        <time>2020-09-19T11:43:48.375Z</time>
      </trkpt>
      <trkpt lat="45.81232" lon="1.21748">
        <ele>323</ele>
        <time>2020-09-19T11:43:49.375Z</time>
      </trkpt>
      <trkpt lat="45.81232" lon="1.21753">
        <ele>323</ele>
        <time>2020-09-19T11:43:50.375Z</time>
      </trkpt>
      <trkpt lat="45.81233" lon="1.21757">
        <ele>323</ele>
        <time>2020-09-19T11:43:51.375Z</time>
      </trkpt>
      <trkpt lat="45.81234" lon="1.21762">
        <ele>323</ele>
        <time>2020-09-19T11:43:52.375Z</time>
      </trkpt>
      <trkpt lat="45.81236" lon="1.21766">
        <ele>323</ele>
        <time>2020-09-19T11:43:53.375Z</time>
      </trkpt>
      <trkpt lat="45.81238" lon="1.21769">
        <ele>323</ele>
        <time>2020-09-19T11:43:54.375Z</time>
      </trkpt>
      <trkpt lat="45.81241" lon="1.21773">
        <ele>322</ele>
        <time>2020-09-19T11:43:55.375Z</time>
      </trkpt>
      <trkpt lat="45.81243" lon="1.21776">
        <ele>322</ele>
        <time>2020-09-19T11:43:56.375Z</time>
      </trkpt>
      <trkpt lat="45.81245" lon="1.21779">
        <ele>322</ele>
        <time>2020-09-19T11:43:57.375Z</time>
      </trkpt>
      <trkpt lat="45.81247" lon="1.21782">
        <ele>322</ele>
        <time>2020-09-19T11:43:58.375Z</time>
      </trkpt>
      <trkpt lat="45.8125" lon="1.21785">
        <ele>322</ele>
        <time>2020-09-19T11:43:59.375Z</time>
      </trkpt>
      <trkpt lat="45.81252" lon="1.21788">
        <ele>321</ele>
        <time>2020-09-19T11:44:00.375Z</time>
      </trkpt>
      <trkpt lat="45.81254" lon="1.21791">
        <ele>321</ele>
        <time>2020-09-19T11:44:01.375Z</time>
      </trkpt>
      <trkpt lat="45.81257" lon="1.21795">
        <ele>321</ele>
        <time>2020-09-19T11:44:02.375Z</time>
      </trkpt>
      <trkpt lat="45.81259" lon="1.21798">
        <ele>322</ele>
        <time>2020-09-19T11:44:03.375Z</time>
      </trkpt>
      <trkpt lat="45.81262" lon="1.21801">
        <ele>323</ele>
        <time>2020-09-19T11:44:04.375Z</time>
      </trkpt>
      <trkpt lat="45.81265" lon="1.21805">
        <ele>324</ele>
        <time>2020-09-19T11:44:05.375Z</time>
      </trkpt>
      <trkpt lat="45.81267" lon="1.21808">
        <ele>323</ele>
        <time>2020-09-19T11:44:06.375Z</time>
      </trkpt>
      <trkpt lat="45.81269" lon="1.21811">
        <ele>323</ele>
        <time>2020-09-19T11:44:07.375Z</time>
      </trkpt>
      <trkpt lat="45.81272" lon="1.21815">
        <ele>323</ele>
        <time>2020-09-19T11:44:08.375Z</time>
      </trkpt>
      <trkpt lat="45.81274" lon="1.21819">
        <ele>321</ele>
        <time>2020-09-19T11:44:09.375Z</time>
      </trkpt>
      <trkpt lat="45.81277" lon="1.21823">
        <ele>320</ele>
        <time>2020-09-19T11:44:10.375Z</time>
      </trkpt>
      <trkpt lat="45.81279" lon="1.21827">
        <ele>320</ele>
        <time>2020-09-19T11:44:11.375Z</time>
      </trkpt>
      <trkpt lat="45.81281" lon="1.2183">
        <ele>320</ele>
        <time>2020-09-19T11:44:12.375Z</time>
      </trkpt>
      <trkpt lat="45.81283" lon="1.21834">
        <ele>319</ele>
        <time>2020-09-19T11:44:13.375Z</time>
      </trkpt>
      <trkpt lat="45.81286" lon="1.21837">
        <ele>320</ele>
        <time>2020-09-19T11:44:14.375Z</time>
      </trkpt>
      <trkpt lat="45.81288" lon="1.21841">
        <ele>319</ele>
        <time>2020-09-19T11:44:15.375Z</time>
      </trkpt>
      <trkpt lat="45.8129" lon="1.21844">
        <ele>318</ele>
        <time>2020-09-19T11:44:16.375Z</time>
      </trkpt>
      <trkpt lat="45.81292" lon="1.21848">
        <ele>318</ele>
        <time>2020-09-19T11:44:17.375Z</time>
      </trkpt>
      <trkpt lat="45.81294" lon="1.21852">
        <ele>318</ele>
        <time>2020-09-19T11:44:18.375Z</time>
      </trkpt>
      <trkpt lat="45.81295" lon="1.21856">
        <ele>317</ele>
        <time>2020-09-19T11:44:19.375Z</time>
      </trkpt>
      <trkpt lat="45.81297" lon="1.2186">
        <ele>317</ele>
        <time>2020-09-19T11:44:20.375Z</time>
      </trkpt>
      <trkpt lat="45.81299" lon="1.21864">
        <ele>316</ele>
        <time>2020-09-19T11:44:21.375Z</time>
      </trkpt>
      <trkpt lat="45.81301" lon="1.21868">
        <ele>315</ele>
        <time>2020-09-19T11:44:22.375Z</time>
      </trkpt>
      <trkpt lat="45.81302" lon="1.21873">
        <ele>315</ele>
        <time>2020-09-19T11:44:23.375Z</time>
      </trkpt>
      <trkpt lat="45.81304" lon="1.21877">
        <ele>314</ele>
        <time>2020-09-19T11:44:24.375Z</time>
      </trkpt>
      <trkpt lat="45.81306" lon="1.21881">
        <ele>313</ele>
        <time>2020-09-19T11:44:25.375Z</time>
      </trkpt>
      <trkpt lat="45.81308" lon="1.21885">
        <ele>312</ele>
        <time>2020-09-19T11:44:26.375Z</time>
      </trkpt>
      <trkpt lat="45.81309" lon="1.21889">
        <ele>311</ele>
        <time>2020-09-19T11:44:27.375Z</time>
      </trkpt>
      <trkpt lat="45.81311" lon="1.21893">
        <ele>311</ele>
        <time>2020-09-19T11:44:28.375Z</time>
      </trkpt>
      <trkpt lat="45.81313" lon="1.21896">
        <ele>310</ele>
        <time>2020-09-19T11:44:29.375Z</time>
      </trkpt>
      <trkpt lat="45.81314" lon="1.219">
        <ele>310</ele>
        <time>2020-09-19T11:44:30.375Z</time>
      </trkpt>
      <trkpt lat="45.81316" lon="1.21904">
        <ele>310</ele>
        <time>2020-09-19T11:44:31.375Z</time>
      </trkpt>
      <trkpt lat="45.81318" lon="1.21908">
        <ele>309</ele>
        <time>2020-09-19T11:44:32.375Z</time>
      </trkpt>
      <trkpt lat="45.8132" lon="1.21912">
        <ele>310</ele>
        <time>2020-09-19T11:44:33.375Z</time>
      </trkpt>
      <trkpt lat="45.81321" lon="1.21916">
        <ele>311</ele>
        <time>2020-09-19T11:44:34.375Z</time>
      </trkpt>
      <trkpt lat="45.81323" lon="1.2192">
        <ele>310</ele>
        <time>2020-09-19T11:44:35.375Z</time>
      </trkpt>
      <trkpt lat="45.81325" lon="1.21925">
        <ele>310</ele>
        <time>2020-09-19T11:44:36.375Z</time>
      </trkpt>
      <trkpt lat="45.81327" lon="1.21929">
        <ele>310</ele>
        <time>2020-09-19T11:44:37.375Z</time>
      </trkpt>
      <trkpt lat="45.81328" lon="1.21933">
        <ele>310</ele>
        <time>2020-09-19T11:44:38.375Z</time>
      </trkpt>
      <trkpt lat="45.8133" lon="1.21937">
        <ele>309</ele>
        <time>2020-09-19T11:44:39.375Z</time>
      </trkpt>
      <trkpt lat="45.81331" lon="1.21941">
        <ele>309</ele>
        <time>2020-09-19T11:44:40.375Z</time>
      </trkpt>
      <trkpt lat="45.81333" lon="1.21945">
        <ele>309</ele>
        <time>2020-09-19T11:44:41.375Z</time>
      </trkpt>
      <trkpt lat="45.81335" lon="1.21949">
        <ele>310</ele>
        <time>2020-09-19T11:44:42.375Z</time>
      </trkpt>
      <trkpt lat="45.81337" lon="1.21954">
        <ele>310</ele>
        <time>2020-09-19T11:44:43.375Z</time>
      </trkpt>
      <trkpt lat="45.81339" lon="1.21958">
        <ele>310</ele>
        <time>2020-09-19T11:44:44.375Z</time>
      </trkpt>
      <trkpt lat="45.8134" lon="1.21963">
        <ele>310</ele>
        <time>2020-09-19T11:44:45.375Z</time>
      </trkpt>
      <trkpt lat="45.81342" lon="1.21967">
        <ele>310</ele>
        <time>2020-09-19T11:44:46.375Z</time>
      </trkpt>
      <trkpt lat="45.81344" lon="1.21972">
        <ele>310</ele>
        <time>2020-09-19T11:44:47.375Z</time>
      </trkpt>
      <trkpt lat="45.81346" lon="1.21976">
        <ele>310</ele>
        <time>2020-09-19T11:44:48.375Z</time>
      </trkpt>
      <trkpt lat="45.81348" lon="1.21981">
        <ele>311</ele>
        <time>2020-09-19T11:44:49.375Z</time>
      </trkpt>
      <trkpt lat="45.8135" lon="1.21985">
        <ele>311</ele>
        <time>2020-09-19T11:44:50.375Z</time>
      </trkpt>
      <trkpt lat="45.81352" lon="1.21989">
        <ele>311</ele>
        <time>2020-09-19T11:44:51.375Z</time>
      </trkpt>
      <trkpt lat="45.81354" lon="1.21993">
        <ele>311</ele>
        <time>2020-09-19T11:44:52.375Z</time>
      </trkpt>
      <trkpt lat="45.81355" lon="1.21998">
        <ele>311</ele>
        <time>2020-09-19T11:44:53.375Z</time>
      </trkpt>
      <trkpt lat="45.81357" lon="1.22002">
        <ele>311</ele>
        <time>2020-09-19T11:44:54.375Z</time>
      </trkpt>
      <trkpt lat="45.81359" lon="1.22006">
        <ele>311</ele>
        <time>2020-09-19T11:44:55.375Z</time>
      </trkpt>
      <trkpt lat="45.81361" lon="1.2201">
        <ele>312</ele>
        <time>2020-09-19T11:44:56.375Z</time>
      </trkpt>
      <trkpt lat="45.81362" lon="1.22015">
        <ele>311</ele>
        <time>2020-09-19T11:44:57.375Z</time>
      </trkpt>
      <trkpt lat="45.81364" lon="1.22019">
        <ele>312</ele>
        <time>2020-09-19T11:44:58.375Z</time>
      </trkpt>
      <trkpt lat="45.81365" lon="1.22023">
        <ele>312</ele>
        <time>2020-09-19T11:44:59.375Z</time>
      </trkpt>
      <trkpt lat="45.81367" lon="1.22027">
        <ele>311</ele>
        <time>2020-09-19T11:45:00.375Z</time>
      </trkpt>
      <trkpt lat="45.81368" lon="1.22031">
        <ele>310</ele>
        <time>2020-09-19T11:45:01.375Z</time>
      </trkpt>
      <trkpt lat="45.8137" lon="1.22035">
        <ele>310</ele>
        <time>2020-09-19T11:45:02.375Z</time>
      </trkpt>
      <trkpt lat="45.81371" lon="1.22039">
        <ele>309</ele>
        <time>2020-09-19T11:45:03.375Z</time>
      </trkpt>
      <trkpt lat="45.81373" lon="1.22043">
        <ele>309</ele>
        <time>2020-09-19T11:45:04.375Z</time>
      </trkpt>
      <trkpt lat="45.81374" lon="1.22047">
        <ele>309</ele>
        <time>2020-09-19T11:45:05.375Z</time>
      </trkpt>
      <trkpt lat="45.81376" lon="1.22051">
        <ele>309</ele>
        <time>2020-09-19T11:45:06.375Z</time>
      </trkpt>
      <trkpt lat="45.81378" lon="1.22055">
        <ele>309</ele>
        <time>2020-09-19T11:45:07.375Z</time>
      </trkpt>
      <trkpt lat="45.81379" lon="1.22059">
        <ele>309</ele>
        <time>2020-09-19T11:45:08.375Z</time>
      </trkpt>
      <trkpt lat="45.81381" lon="1.22063">
        <ele>309</ele>
        <time>2020-09-19T11:45:09.375Z</time>
      </trkpt>
      <trkpt lat="45.81383" lon="1.22068">
        <ele>309</ele>
        <time>2020-09-19T11:45:10.375Z</time>
      </trkpt>
      <trkpt lat="45.81385" lon="1.22072">
        <ele>309</ele>
        <time>2020-09-19T11:45:11.375Z</time>
      </trkpt>
      <trkpt lat="45.81387" lon="1.22076">
        <ele>309</ele>
        <time>2020-09-19T11:45:12.375Z</time>
      </trkpt>
      <trkpt lat="45.81389" lon="1.2208">
        <ele>308</ele>
        <time>2020-09-19T11:45:13.375Z</time>
      </trkpt>
      <trkpt lat="45.81391" lon="1.22084">
        <ele>309</ele>
        <time>2020-09-19T11:45:14.375Z</time>
      </trkpt>
      <trkpt lat="45.81393" lon="1.22088">
        <ele>309</ele>
        <time>2020-09-19T11:45:15.375Z</time>
      </trkpt>
      <trkpt lat="45.81395" lon="1.22092">
        <ele>309</ele>
        <time>2020-09-19T11:45:16.375Z</time>
      </trkpt>
      <trkpt lat="45.81398" lon="1.22096">
        <ele>309</ele>
        <time>2020-09-19T11:45:17.375Z</time>
      </trkpt>
      <trkpt lat="45.814" lon="1.221">
        <ele>309</ele>
        <time>2020-09-19T11:45:18.375Z</time>
      </trkpt>
      <trkpt lat="45.81402" lon="1.22104">
        <ele>308</ele>
        <time>2020-09-19T11:45:19.375Z</time>
      </trkpt>
      <trkpt lat="45.81404" lon="1.22108">
        <ele>309</ele>
        <time>2020-09-19T11:45:20.375Z</time>
      </trkpt>
      <trkpt lat="45.81406" lon="1.22111">
        <ele>309</ele>
        <time>2020-09-19T11:45:21.375Z</time>
      </trkpt>
      <trkpt lat="45.81408" lon="1.22115">
        <ele>309</ele>
        <time>2020-09-19T11:45:22.375Z</time>
      </trkpt>
      <trkpt lat="45.8141" lon="1.22119">
        <ele>309</ele>
        <time>2020-09-19T11:45:23.375Z</time>
      </trkpt>
      <trkpt lat="45.81412" lon="1.22123">
        <ele>309</ele>
        <time>2020-09-19T11:45:24.375Z</time>
      </trkpt>
      <trkpt lat="45.81414" lon="1.22127">
        <ele>308</ele>
        <time>2020-09-19T11:45:25.375Z</time>
      </trkpt>
      <trkpt lat="45.81416" lon="1.22131">
        <ele>308</ele>
        <time>2020-09-19T11:45:26.375Z</time>
      </trkpt>
      <trkpt lat="45.81419" lon="1.22134">
        <ele>309</ele>
        <time>2020-09-19T11:45:27.375Z</time>
      </trkpt>
      <trkpt lat="45.81421" lon="1.22138">
        <ele>309</ele>
        <time>2020-09-19T11:45:28.375Z</time>
      </trkpt>
      <trkpt lat="45.81424" lon="1.22141">
        <ele>309</ele>
        <time>2020-09-19T11:45:29.375Z</time>
      </trkpt>
      <trkpt lat="45.81426" lon="1.22145">
        <ele>308</ele>
        <time>2020-09-19T11:45:30.375Z</time>
      </trkpt>
      <trkpt lat="45.81428" lon="1.22148">
        <ele>308</ele>
        <time>2020-09-19T11:45:31.375Z</time>
      </trkpt>
      <trkpt lat="45.8143" lon="1.22152">
        <ele>307</ele>
        <time>2020-09-19T11:45:32.375Z</time>
      </trkpt>
      <trkpt lat="45.81432" lon="1.22156">
        <ele>307</ele>
        <time>2020-09-19T11:45:33.375Z</time>
      </trkpt>
      <trkpt lat="45.81434" lon="1.2216">
        <ele>307</ele>
        <time>2020-09-19T11:45:34.375Z</time>
      </trkpt>
      <trkpt lat="45.81437" lon="1.22164">
        <ele>306</ele>
        <time>2020-09-19T11:45:35.375Z</time>
      </trkpt>
      <trkpt lat="45.81439" lon="1.22168">
        <ele>306</ele>
        <time>2020-09-19T11:45:36.375Z</time>
      </trkpt>
      <trkpt lat="45.81441" lon="1.22172">
        <ele>306</ele>
        <time>2020-09-19T11:45:37.375Z</time>
      </trkpt>
      <trkpt lat="45.81442" lon="1.22176">
        <ele>305</ele>
        <time>2020-09-19T11:45:38.375Z</time>
      </trkpt>
      <trkpt lat="45.81444" lon="1.2218">
        <ele>304</ele>
        <time>2020-09-19T11:45:39.375Z</time>
      </trkpt>
      <trkpt lat="45.81447" lon="1.22184">
        <ele>304</ele>
        <time>2020-09-19T11:45:40.375Z</time>
      </trkpt>
      <trkpt lat="45.81449" lon="1.22188">
        <ele>304</ele>
        <time>2020-09-19T11:45:41.375Z</time>
      </trkpt>
      <trkpt lat="45.81451" lon="1.22192">
        <ele>304</ele>
        <time>2020-09-19T11:45:42.375Z</time>
      </trkpt>
      <trkpt lat="45.81453" lon="1.22196">
        <ele>304</ele>
        <time>2020-09-19T11:45:43.375Z</time>
      </trkpt>
      <trkpt lat="45.81455" lon="1.222">
        <ele>304</ele>
        <time>2020-09-19T11:45:44.375Z</time>
      </trkpt>
      <trkpt lat="45.81457" lon="1.22204">
        <ele>303</ele>
        <time>2020-09-19T11:45:45.375Z</time>
      </trkpt>
      <trkpt lat="45.81459" lon="1.22207">
        <ele>303</ele>
        <time>2020-09-19T11:45:46.375Z</time>
      </trkpt>
      <trkpt lat="45.81461" lon="1.22211">
        <ele>303</ele>
        <time>2020-09-19T11:45:47.375Z</time>
      </trkpt>
      <trkpt lat="45.81463" lon="1.22215">
        <ele>303</ele>
        <time>2020-09-19T11:45:48.375Z</time>
      </trkpt>
      <trkpt lat="45.81465" lon="1.22219">
        <ele>302</ele>
        <time>2020-09-19T11:45:49.375Z</time>
      </trkpt>
      <trkpt lat="45.81467" lon="1.22223">
        <ele>303</ele>
        <time>2020-09-19T11:45:50.375Z</time>
      </trkpt>
      <trkpt lat="45.8147" lon="1.22227">
        <ele>303</ele>
        <time>2020-09-19T11:45:51.375Z</time>
      </trkpt>
      <trkpt lat="45.81472" lon="1.2223">
        <ele>303</ele>
        <time>2020-09-19T11:45:52.375Z</time>
      </trkpt>
      <trkpt lat="45.81474" lon="1.22234">
        <ele>304</ele>
        <time>2020-09-19T11:45:53.375Z</time>
      </trkpt>
      <trkpt lat="45.81477" lon="1.22238">
        <ele>304</ele>
        <time>2020-09-19T11:45:54.375Z</time>
      </trkpt>
      <trkpt lat="45.81479" lon="1.22242">
        <ele>304</ele>
        <time>2020-09-19T11:45:55.375Z</time>
      </trkpt>
      <trkpt lat="45.81481" lon="1.22246">
        <ele>304</ele>
        <time>2020-09-19T11:45:56.375Z</time>
      </trkpt>
      <trkpt lat="45.81483" lon="1.2225">
        <ele>303</ele>
        <time>2020-09-19T11:45:57.375Z</time>
      </trkpt>
      <trkpt lat="45.81485" lon="1.22254">
        <ele>304</ele>
        <time>2020-09-19T11:45:58.375Z</time>
      </trkpt>
      <trkpt lat="45.81486" lon="1.22257">
        <ele>303</ele>
        <time>2020-09-19T11:45:59.375Z</time>
      </trkpt>
      <trkpt lat="45.81488" lon="1.22261">
        <ele>304</ele>
        <time>2020-09-19T11:46:00.375Z</time>
      </trkpt>
      <trkpt lat="45.8149" lon="1.22265">
        <ele>303</ele>
        <time>2020-09-19T11:46:01.375Z</time>
      </trkpt>
      <trkpt lat="45.81493" lon="1.22269">
        <ele>304</ele>
        <time>2020-09-19T11:46:02.375Z</time>
      </trkpt>
      <trkpt lat="45.81495" lon="1.22273">
        <ele>304</ele>
        <time>2020-09-19T11:46:03.375Z</time>
      </trkpt>
      <trkpt lat="45.81498" lon="1.22277">
        <ele>304</ele>
        <time>2020-09-19T11:46:04.375Z</time>
      </trkpt>
      <trkpt lat="45.815" lon="1.22281">
        <ele>304</ele>
        <time>2020-09-19T11:46:05.375Z</time>
      </trkpt>
      <trkpt lat="45.81503" lon="1.22285">
        <ele>303</ele>
        <time>2020-09-19T11:46:06.375Z</time>
      </trkpt>
      <trkpt lat="45.81505" lon="1.22289">
        <ele>303</ele>
        <time>2020-09-19T11:46:07.375Z</time>
      </trkpt>
      <trkpt lat="45.81507" lon="1.22292">
        <ele>302</ele>
        <time>2020-09-19T11:46:08.375Z</time>
      </trkpt>
      <trkpt lat="45.81509" lon="1.22296">
        <ele>302</ele>
        <time>2020-09-19T11:46:09.375Z</time>
      </trkpt>
      <trkpt lat="45.81511" lon="1.223">
        <ele>302</ele>
        <time>2020-09-19T11:46:10.375Z</time>
      </trkpt>
      <trkpt lat="45.81513" lon="1.22304">
        <ele>302</ele>
        <time>2020-09-19T11:46:11.375Z</time>
      </trkpt>
      <trkpt lat="45.81516" lon="1.22308">
        <ele>302</ele>
        <time>2020-09-19T11:46:12.375Z</time>
      </trkpt>
      <trkpt lat="45.81518" lon="1.22312">
        <ele>301</ele>
        <time>2020-09-19T11:46:13.375Z</time>
      </trkpt>
      <trkpt lat="45.8152" lon="1.22315">
        <ele>300</ele>
        <time>2020-09-19T11:46:14.375Z</time>
      </trkpt>
      <trkpt lat="45.81522" lon="1.22319">
        <ele>301</ele>
        <time>2020-09-19T11:46:15.375Z</time>
      </trkpt>
      <trkpt lat="45.81525" lon="1.22323">
        <ele>301</ele>
        <time>2020-09-19T11:46:16.375Z</time>
      </trkpt>
      <trkpt lat="45.81527" lon="1.22327">
        <ele>301</ele>
        <time>2020-09-19T11:46:17.375Z</time>
      </trkpt>
      <trkpt lat="45.8153" lon="1.22331">
        <ele>302</ele>
        <time>2020-09-19T11:46:18.375Z</time>
      </trkpt>
      <trkpt lat="45.81532" lon="1.22334">
        <ele>302</ele>
        <time>2020-09-19T11:46:19.375Z</time>
      </trkpt>
      <trkpt lat="45.81534" lon="1.22338">
        <ele>301</ele>
        <time>2020-09-19T11:46:20.375Z</time>
      </trkpt>
      <trkpt lat="45.81536" lon="1.22342">
        <ele>300</ele>
        <time>2020-09-19T11:46:21.375Z</time>
      </trkpt>
      <trkpt lat="45.81539" lon="1.22345">
        <ele>300</ele>
        <time>2020-09-19T11:46:22.375Z</time>
      </trkpt>
      <trkpt lat="45.81541" lon="1.22349">
        <ele>299</ele>
        <time>2020-09-19T11:46:23.375Z</time>
      </trkpt>
      <trkpt lat="45.81543" lon="1.22352">
        <ele>298</ele>
        <time>2020-09-19T11:46:24.375Z</time>
      </trkpt>
      <trkpt lat="45.81546" lon="1.22356">
        <ele>298</ele>
        <time>2020-09-19T11:46:25.375Z</time>
      </trkpt>
      <trkpt lat="45.81548" lon="1.2236">
        <ele>298</ele>
        <time>2020-09-19T11:46:26.375Z</time>
      </trkpt>
      <trkpt lat="45.8155" lon="1.22364">
        <ele>298</ele>
        <time>2020-09-19T11:46:27.375Z</time>
      </trkpt>
      <trkpt lat="45.81552" lon="1.22368">
        <ele>297</ele>
        <time>2020-09-19T11:46:28.375Z</time>
      </trkpt>
      <trkpt lat="45.81554" lon="1.22372">
        <ele>297</ele>
        <time>2020-09-19T11:46:29.375Z</time>
      </trkpt>
      <trkpt lat="45.81556" lon="1.22376">
        <ele>297</ele>
        <time>2020-09-19T11:46:30.375Z</time>
      </trkpt>
      <trkpt lat="45.81559" lon="1.22379">
        <ele>296</ele>
        <time>2020-09-19T11:46:31.375Z</time>
      </trkpt>
      <trkpt lat="45.81561" lon="1.22383">
        <ele>296</ele>
        <time>2020-09-19T11:46:32.375Z</time>
      </trkpt>
      <trkpt lat="45.81564" lon="1.22386">
        <ele>295</ele>
        <time>2020-09-19T11:46:33.375Z</time>
      </trkpt>
      <trkpt lat="45.81567" lon="1.22388">
        <ele>295</ele>
        <time>2020-09-19T11:46:34.375Z</time>
      </trkpt>
      <trkpt lat="45.81569" lon="1.2239">
        <ele>294</ele>
        <time>2020-09-19T11:46:35.375Z</time>
      </trkpt>
      <trkpt lat="45.81572" lon="1.22393">
        <ele>294</ele>
        <time>2020-09-19T11:46:36.375Z</time>
      </trkpt>
      <trkpt lat="45.81574" lon="1.22396">
        <ele>294</ele>
        <time>2020-09-19T11:46:37.375Z</time>
      </trkpt>
      <trkpt lat="45.81577" lon="1.22399">
        <ele>294</ele>
        <time>2020-09-19T11:46:38.375Z</time>
      </trkpt>
      <trkpt lat="45.81579" lon="1.22402">
        <ele>294</ele>
        <time>2020-09-19T11:46:39.375Z</time>
      </trkpt>
      <trkpt lat="45.81582" lon="1.22406">
        <ele>294</ele>
        <time>2020-09-19T11:46:40.375Z</time>
      </trkpt>
      <trkpt lat="45.81584" lon="1.2241">
        <ele>295</ele>
        <time>2020-09-19T11:46:41.375Z</time>
      </trkpt>
      <trkpt lat="45.81585" lon="1.22415">
        <ele>296</ele>
        <time>2020-09-19T11:46:42.375Z</time>
      </trkpt>
      <trkpt lat="45.81585" lon="1.2242">
        <ele>296</ele>
        <time>2020-09-19T11:46:43.375Z</time>
      </trkpt>
      <trkpt lat="45.81584" lon="1.22425">
        <ele>298</ele>
        <time>2020-09-19T11:46:44.375Z</time>
      </trkpt>
      <trkpt lat="45.81584" lon="1.2243">
        <ele>297</ele>
        <time>2020-09-19T11:46:45.375Z</time>
      </trkpt>
      <trkpt lat="45.81584" lon="1.22434">
        <ele>296</ele>
        <time>2020-09-19T11:46:46.375Z</time>
      </trkpt>
      <trkpt lat="45.81584" lon="1.22438">
        <ele>296</ele>
        <time>2020-09-19T11:46:47.375Z</time>
      </trkpt>
      <trkpt lat="45.81586" lon="1.22442">
        <ele>297</ele>
        <time>2020-09-19T11:46:48.375Z</time>
      </trkpt>
      <trkpt lat="45.81588" lon="1.22446">
        <ele>297</ele>
        <time>2020-09-19T11:46:49.375Z</time>
      </trkpt>
      <trkpt lat="45.8159" lon="1.22449">
        <ele>298</ele>
        <time>2020-09-19T11:46:50.375Z</time>
      </trkpt>
      <trkpt lat="45.81592" lon="1.22453">
        <ele>297</ele>
        <time>2020-09-19T11:46:51.375Z</time>
      </trkpt>
      <trkpt lat="45.81595" lon="1.22456">
        <ele>297</ele>
        <time>2020-09-19T11:46:52.375Z</time>
      </trkpt>
      <trkpt lat="45.81597" lon="1.22459">
        <ele>297</ele>
        <time>2020-09-19T11:46:53.375Z</time>
      </trkpt>
      <trkpt lat="45.816" lon="1.22463">
        <ele>296</ele>
        <time>2020-09-19T11:46:54.375Z</time>
      </trkpt>
      <trkpt lat="45.81603" lon="1.22466">
        <ele>296</ele>
        <time>2020-09-19T11:46:55.375Z</time>
      </trkpt>
      <trkpt lat="45.81605" lon="1.22469">
        <ele>297</ele>
        <time>2020-09-19T11:46:56.375Z</time>
      </trkpt>
      <trkpt lat="45.81607" lon="1.22472">
        <ele>297</ele>
        <time>2020-09-19T11:46:57.375Z</time>
      </trkpt>
      <trkpt lat="45.8161" lon="1.22475">
        <ele>296</ele>
        <time>2020-09-19T11:46:58.375Z</time>
      </trkpt>
      <trkpt lat="45.81612" lon="1.22477">
        <ele>296</ele>
        <time>2020-09-19T11:46:59.375Z</time>
      </trkpt>
      <trkpt lat="45.81615" lon="1.22481">
        <ele>296</ele>
        <time>2020-09-19T11:47:00.375Z</time>
      </trkpt>
      <trkpt lat="45.81618" lon="1.22484">
        <ele>296</ele>
        <time>2020-09-19T11:47:01.375Z</time>
      </trkpt>
      <trkpt lat="45.8162" lon="1.22487">
        <ele>296</ele>
        <time>2020-09-19T11:47:02.375Z</time>
      </trkpt>
      <trkpt lat="45.81623" lon="1.22489">
        <ele>296</ele>
        <time>2020-09-19T11:47:03.375Z</time>
      </trkpt>
      <trkpt lat="45.81625" lon="1.22492">
        <ele>296</ele>
        <time>2020-09-19T11:47:04.375Z</time>
      </trkpt>
      <trkpt lat="45.81628" lon="1.22495">
        <ele>296</ele>
        <time>2020-09-19T11:47:05.375Z</time>
      </trkpt>
      <trkpt lat="45.8163" lon="1.22497">
        <ele>295</ele>
        <time>2020-09-19T11:47:06.375Z</time>
      </trkpt>
      <trkpt lat="45.81633" lon="1.22501">
        <ele>296</ele>
        <time>2020-09-19T11:47:07.375Z</time>
      </trkpt>
      <trkpt lat="45.81636" lon="1.22504">
        <ele>296</ele>
        <time>2020-09-19T11:47:08.375Z</time>
      </trkpt>
      <trkpt lat="45.81639" lon="1.22508">
        <ele>296</ele>
        <time>2020-09-19T11:47:09.375Z</time>
      </trkpt>
      <trkpt lat="45.81641" lon="1.22512">
        <ele>296</ele>
        <time>2020-09-19T11:47:10.375Z</time>
      </trkpt>
      <trkpt lat="45.81644" lon="1.22516">
        <ele>296</ele>
        <time>2020-09-19T11:47:11.375Z</time>
      </trkpt>
      <trkpt lat="45.81646" lon="1.22519">
        <ele>297</ele>
        <time>2020-09-19T11:47:12.375Z</time>
      </trkpt>
      <trkpt lat="45.81648" lon="1.22522">
        <ele>297</ele>
        <time>2020-09-19T11:47:13.375Z</time>
      </trkpt>
      <trkpt lat="45.81651" lon="1.22526">
        <ele>298</ele>
        <time>2020-09-19T11:47:14.375Z</time>
      </trkpt>
      <trkpt lat="45.81653" lon="1.22529">
        <ele>298</ele>
        <time>2020-09-19T11:47:15.375Z</time>
      </trkpt>
      <trkpt lat="45.81656" lon="1.22532">
        <ele>298</ele>
        <time>2020-09-19T11:47:16.375Z</time>
      </trkpt>
      <trkpt lat="45.81658" lon="1.22535">
        <ele>299</ele>
        <time>2020-09-19T11:47:17.375Z</time>
      </trkpt>
      <trkpt lat="45.81661" lon="1.22539">
        <ele>299</ele>
        <time>2020-09-19T11:47:18.375Z</time>
      </trkpt>
      <trkpt lat="45.81664" lon="1.22542">
        <ele>299</ele>
        <time>2020-09-19T11:47:19.375Z</time>
      </trkpt>
      <trkpt lat="45.81667" lon="1.22545">
        <ele>299</ele>
        <time>2020-09-19T11:47:20.375Z</time>
      </trkpt>
      <trkpt lat="45.81669" lon="1.22548">
        <ele>300</ele>
        <time>2020-09-19T11:47:21.375Z</time>
      </trkpt>
      <trkpt lat="45.81672" lon="1.22552">
        <ele>299</ele>
        <time>2020-09-19T11:47:22.375Z</time>
      </trkpt>
      <trkpt lat="45.81674" lon="1.22555">
        <ele>300</ele>
        <time>2020-09-19T11:47:23.375Z</time>
      </trkpt>
      <trkpt lat="45.81676" lon="1.22558">
        <ele>300</ele>
        <time>2020-09-19T11:47:24.375Z</time>
      </trkpt>
      <trkpt lat="45.81679" lon="1.22561">
        <ele>300</ele>
        <time>2020-09-19T11:47:25.375Z</time>
      </trkpt>
      <trkpt lat="45.81681" lon="1.22564">
        <ele>300</ele>
        <time>2020-09-19T11:47:26.375Z</time>
      </trkpt>
      <trkpt lat="45.81683" lon="1.22567">
        <ele>300</ele>
        <time>2020-09-19T11:47:27.375Z</time>
      </trkpt>
      <trkpt lat="45.81686" lon="1.22571">
        <ele>301</ele>
        <time>2020-09-19T11:47:28.375Z</time>
      </trkpt>
      <trkpt lat="45.81688" lon="1.22574">
        <ele>300</ele>
        <time>2020-09-19T11:47:29.375Z</time>
      </trkpt>
      <trkpt lat="45.8169" lon="1.22578">
        <ele>300</ele>
        <time>2020-09-19T11:47:30.375Z</time>
      </trkpt>
      <trkpt lat="45.81693" lon="1.22582">
        <ele>301</ele>
        <time>2020-09-19T11:47:31.375Z</time>
      </trkpt>
      <trkpt lat="45.81695" lon="1.22586">
        <ele>301</ele>
        <time>2020-09-19T11:47:32.375Z</time>
      </trkpt>
      <trkpt lat="45.81698" lon="1.2259">
        <ele>302</ele>
        <time>2020-09-19T11:47:33.375Z</time>
      </trkpt>
      <trkpt lat="45.817" lon="1.22593">
        <ele>301</ele>
        <time>2020-09-19T11:47:34.375Z</time>
      </trkpt>
      <trkpt lat="45.81702" lon="1.22598">
        <ele>301</ele>
        <time>2020-09-19T11:47:35.375Z</time>
      </trkpt>
      <trkpt lat="45.81704" lon="1.22601">
        <ele>301</ele>
        <time>2020-09-19T11:47:36.375Z</time>
      </trkpt>
      <trkpt lat="45.81706" lon="1.22605">
        <ele>301</ele>
        <time>2020-09-19T11:47:37.375Z</time>
      </trkpt>
      <trkpt lat="45.81708" lon="1.22609">
        <ele>301</ele>
        <time>2020-09-19T11:47:38.375Z</time>
      </trkpt>
      <trkpt lat="45.8171" lon="1.22612">
        <ele>301</ele>
        <time>2020-09-19T11:47:39.375Z</time>
      </trkpt>
      <trkpt lat="45.81712" lon="1.22616">
        <ele>302</ele>
        <time>2020-09-19T11:47:40.375Z</time>
      </trkpt>
      <trkpt lat="45.81713" lon="1.2262">
        <ele>303</ele>
        <time>2020-09-19T11:47:41.375Z</time>
      </trkpt>
      <trkpt lat="45.81714" lon="1.22623">
        <ele>302</ele>
        <time>2020-09-19T11:47:42.375Z</time>
      </trkpt>
      <trkpt lat="45.81716" lon="1.22627">
        <ele>303</ele>
        <time>2020-09-19T11:47:43.375Z</time>
      </trkpt>
      <trkpt lat="45.81717" lon="1.22631">
        <ele>303</ele>
        <time>2020-09-19T11:47:44.375Z</time>
      </trkpt>
      <trkpt lat="45.81719" lon="1.22634">
        <ele>303</ele>
        <time>2020-09-19T11:47:45.375Z</time>
      </trkpt>
      <trkpt lat="45.8172" lon="1.22638">
        <ele>303</ele>
        <time>2020-09-19T11:47:46.375Z</time>
      </trkpt>
      <trkpt lat="45.81722" lon="1.22642">
        <ele>303</ele>
        <time>2020-09-19T11:47:47.375Z</time>
      </trkpt>
      <trkpt lat="45.81723" lon="1.22646">
        <ele>303</ele>
        <time>2020-09-19T11:47:48.375Z</time>
      </trkpt>
      <trkpt lat="45.81724" lon="1.22649">
        <ele>303</ele>
        <time>2020-09-19T11:47:49.375Z</time>
      </trkpt>
      <trkpt lat="45.81726" lon="1.22653">
        <ele>302</ele>
        <time>2020-09-19T11:47:50.375Z</time>
      </trkpt>
      <trkpt lat="45.81728" lon="1.22658">
        <ele>303</ele>
        <time>2020-09-19T11:47:51.375Z</time>
      </trkpt>
      <trkpt lat="45.8173" lon="1.22662">
        <ele>303</ele>
        <time>2020-09-19T11:47:52.375Z</time>
      </trkpt>
      <trkpt lat="45.81732" lon="1.22666">
        <ele>302</ele>
        <time>2020-09-19T11:47:53.375Z</time>
      </trkpt>
      <trkpt lat="45.81734" lon="1.22671">
        <ele>302</ele>
        <time>2020-09-19T11:47:54.375Z</time>
      </trkpt>
      <trkpt lat="45.81735" lon="1.22675">
        <ele>302</ele>
        <time>2020-09-19T11:47:55.375Z</time>
      </trkpt>
      <trkpt lat="45.81737" lon="1.2268">
        <ele>301</ele>
        <time>2020-09-19T11:47:56.375Z</time>
      </trkpt>
      <trkpt lat="45.81738" lon="1.22684">
        <ele>302</ele>
        <time>2020-09-19T11:47:57.375Z</time>
      </trkpt>
      <trkpt lat="45.8174" lon="1.22688">
        <ele>301</ele>
        <time>2020-09-19T11:47:58.375Z</time>
      </trkpt>
      <trkpt lat="45.81742" lon="1.22692">
        <ele>301</ele>
        <time>2020-09-19T11:47:59.375Z</time>
      </trkpt>
      <trkpt lat="45.81743" lon="1.22695">
        <ele>300</ele>
        <time>2020-09-19T11:48:00.375Z</time>
      </trkpt>
      <trkpt lat="45.81745" lon="1.22699">
        <ele>300</ele>
        <time>2020-09-19T11:48:01.375Z</time>
      </trkpt>
      <trkpt lat="45.81747" lon="1.22704">
        <ele>301</ele>
        <time>2020-09-19T11:48:02.375Z</time>
      </trkpt>
      <trkpt lat="45.81749" lon="1.22708">
        <ele>301</ele>
        <time>2020-09-19T11:48:03.375Z</time>
      </trkpt>
      <trkpt lat="45.8175" lon="1.22713">
        <ele>301</ele>
        <time>2020-09-19T11:48:04.375Z</time>
      </trkpt>
      <trkpt lat="45.81752" lon="1.22717">
        <ele>301</ele>
        <time>2020-09-19T11:48:05.375Z</time>
      </trkpt>
      <trkpt lat="45.81754" lon="1.22721">
        <ele>300</ele>
        <time>2020-09-19T11:48:06.375Z</time>
      </trkpt>
      <trkpt lat="45.81755" lon="1.22725">
        <ele>300</ele>
        <time>2020-09-19T11:48:07.375Z</time>
      </trkpt>
      <trkpt lat="45.81757" lon="1.22729">
        <ele>299</ele>
        <time>2020-09-19T11:48:08.375Z</time>
      </trkpt>
      <trkpt lat="45.81759" lon="1.22734">
        <ele>300</ele>
        <time>2020-09-19T11:48:09.375Z</time>
      </trkpt>
      <trkpt lat="45.81761" lon="1.22738">
        <ele>300</ele>
        <time>2020-09-19T11:48:10.375Z</time>
      </trkpt>
      <trkpt lat="45.81762" lon="1.22742">
        <ele>300</ele>
        <time>2020-09-19T11:48:11.375Z</time>
      </trkpt>
      <trkpt lat="45.81764" lon="1.22746">
        <ele>300</ele>
        <time>2020-09-19T11:48:12.375Z</time>
      </trkpt>
      <trkpt lat="45.81766" lon="1.2275">
        <ele>300</ele>
        <time>2020-09-19T11:48:13.375Z</time>
      </trkpt>
      <trkpt lat="45.81768" lon="1.22754">
        <ele>301</ele>
        <time>2020-09-19T11:48:14.375Z</time>
      </trkpt>
      <trkpt lat="45.8177" lon="1.22759">
        <ele>301</ele>
        <time>2020-09-19T11:48:15.375Z</time>
      </trkpt>
      <trkpt lat="45.81772" lon="1.22763">
        <ele>301</ele>
        <time>2020-09-19T11:48:16.375Z</time>
      </trkpt>
      <trkpt lat="45.81773" lon="1.22768">
        <ele>300</ele>
        <time>2020-09-19T11:48:17.375Z</time>
      </trkpt>
      <trkpt lat="45.81775" lon="1.22772">
        <ele>301</ele>
        <time>2020-09-19T11:48:18.375Z</time>
      </trkpt>
      <trkpt lat="45.81777" lon="1.22776">
        <ele>301</ele>
        <time>2020-09-19T11:48:19.375Z</time>
      </trkpt>
      <trkpt lat="45.81779" lon="1.22781">
        <ele>301</ele>
        <time>2020-09-19T11:48:20.375Z</time>
      </trkpt>
      <trkpt lat="45.8178" lon="1.22786">
        <ele>301</ele>
        <time>2020-09-19T11:48:21.375Z</time>
      </trkpt>
      <trkpt lat="45.81782" lon="1.2279">
        <ele>301</ele>
        <time>2020-09-19T11:48:22.375Z</time>
      </trkpt>
      <trkpt lat="45.81784" lon="1.22794">
        <ele>301</ele>
        <time>2020-09-19T11:48:23.375Z</time>
      </trkpt>
      <trkpt lat="45.81785" lon="1.22799">
        <ele>301</ele>
        <time>2020-09-19T11:48:24.375Z</time>
      </trkpt>
      <trkpt lat="45.81787" lon="1.22803">
        <ele>301</ele>
        <time>2020-09-19T11:48:25.375Z</time>
      </trkpt>
      <trkpt lat="45.81789" lon="1.22808">
        <ele>300</ele>
        <time>2020-09-19T11:48:26.375Z</time>
      </trkpt>
      <trkpt lat="45.8179" lon="1.22812">
        <ele>301</ele>
        <time>2020-09-19T11:48:27.375Z</time>
      </trkpt>
      <trkpt lat="45.81792" lon="1.22817">
        <ele>300</ele>
        <time>2020-09-19T11:48:28.375Z</time>
      </trkpt>
      <trkpt lat="45.81794" lon="1.22821">
        <ele>300</ele>
        <time>2020-09-19T11:48:29.375Z</time>
      </trkpt>
      <trkpt lat="45.81796" lon="1.22826">
        <ele>300</ele>
        <time>2020-09-19T11:48:30.375Z</time>
      </trkpt>
      <trkpt lat="45.81798" lon="1.2283">
        <ele>300</ele>
        <time>2020-09-19T11:48:31.375Z</time>
      </trkpt>
      <trkpt lat="45.81799" lon="1.22834">
        <ele>299</ele>
        <time>2020-09-19T11:48:32.375Z</time>
      </trkpt>
      <trkpt lat="45.81801" lon="1.22838">
        <ele>299</ele>
        <time>2020-09-19T11:48:33.375Z</time>
      </trkpt>
      <trkpt lat="45.81803" lon="1.22842">
        <ele>299</ele>
        <time>2020-09-19T11:48:34.375Z</time>
      </trkpt>
      <trkpt lat="45.81804" lon="1.22847">
        <ele>298</ele>
        <time>2020-09-19T11:48:35.375Z</time>
      </trkpt>
      <trkpt lat="45.81806" lon="1.22851">
        <ele>297</ele>
        <time>2020-09-19T11:48:36.375Z</time>
      </trkpt>
      <trkpt lat="45.81808" lon="1.22855">
        <ele>298</ele>
        <time>2020-09-19T11:48:37.375Z</time>
      </trkpt>
      <trkpt lat="45.8181" lon="1.22859">
        <ele>297</ele>
        <time>2020-09-19T11:48:38.375Z</time>
      </trkpt>
      <trkpt lat="45.81812" lon="1.22864">
        <ele>297</ele>
        <time>2020-09-19T11:48:39.375Z</time>
      </trkpt>
      <trkpt lat="45.81814" lon="1.22868">
        <ele>297</ele>
        <time>2020-09-19T11:48:40.375Z</time>
      </trkpt>
      <trkpt lat="45.81815" lon="1.22872">
        <ele>296</ele>
        <time>2020-09-19T11:48:41.375Z</time>
      </trkpt>
      <trkpt lat="45.81817" lon="1.22876">
        <ele>296</ele>
        <time>2020-09-19T11:48:42.375Z</time>
      </trkpt>
      <trkpt lat="45.81819" lon="1.2288">
        <ele>296</ele>
        <time>2020-09-19T11:48:43.375Z</time>
      </trkpt>
      <trkpt lat="45.81821" lon="1.22884">
        <ele>295</ele>
        <time>2020-09-19T11:48:44.375Z</time>
      </trkpt>
      <trkpt lat="45.81823" lon="1.22889">
        <ele>294</ele>
        <time>2020-09-19T11:48:45.375Z</time>
      </trkpt>
      <trkpt lat="45.81824" lon="1.22892">
        <ele>293</ele>
        <time>2020-09-19T11:48:46.375Z</time>
      </trkpt>
      <trkpt lat="45.81826" lon="1.22896">
        <ele>293</ele>
        <time>2020-09-19T11:48:47.375Z</time>
      </trkpt>
      <trkpt lat="45.81828" lon="1.22899">
        <ele>292</ele>
        <time>2020-09-19T11:48:48.375Z</time>
      </trkpt>
      <trkpt lat="45.8183" lon="1.22903">
        <ele>292</ele>
        <time>2020-09-19T11:48:49.375Z</time>
      </trkpt>
      <trkpt lat="45.81832" lon="1.22906">
        <ele>292</ele>
        <time>2020-09-19T11:48:50.375Z</time>
      </trkpt>
      <trkpt lat="45.81834" lon="1.2291">
        <ele>292</ele>
        <time>2020-09-19T11:48:51.375Z</time>
      </trkpt>
      <trkpt lat="45.81835" lon="1.22914">
        <ele>292</ele>
        <time>2020-09-19T11:48:52.375Z</time>
      </trkpt>
      <trkpt lat="45.81837" lon="1.22917">
        <ele>291</ele>
        <time>2020-09-19T11:48:53.375Z</time>
      </trkpt>
      <trkpt lat="45.81839" lon="1.22921">
        <ele>291</ele>
        <time>2020-09-19T11:48:54.375Z</time>
      </trkpt>
      <trkpt lat="45.81841" lon="1.22925">
        <ele>291</ele>
        <time>2020-09-19T11:48:55.375Z</time>
      </trkpt>
      <trkpt lat="45.81843" lon="1.22929">
        <ele>291</ele>
        <time>2020-09-19T11:48:56.375Z</time>
      </trkpt>
      <trkpt lat="45.81845" lon="1.22933">
        <ele>291</ele>
        <time>2020-09-19T11:48:57.375Z</time>
      </trkpt>
      <trkpt lat="45.81847" lon="1.22936">
        <ele>291</ele>
        <time>2020-09-19T11:48:58.375Z</time>
      </trkpt>
      <trkpt lat="45.81849" lon="1.2294">
        <ele>291</ele>
        <time>2020-09-19T11:48:59.375Z</time>
      </trkpt>
      <trkpt lat="45.81852" lon="1.22944">
        <ele>291</ele>
        <time>2020-09-19T11:49:00.375Z</time>
      </trkpt>
      <trkpt lat="45.81854" lon="1.22947">
        <ele>291</ele>
        <time>2020-09-19T11:49:01.375Z</time>
      </trkpt>
      <trkpt lat="45.81857" lon="1.22951">
        <ele>291</ele>
        <time>2020-09-19T11:49:02.375Z</time>
      </trkpt>
      <trkpt lat="45.81859" lon="1.22955">
        <ele>292</ele>
        <time>2020-09-19T11:49:03.375Z</time>
      </trkpt>
      <trkpt lat="45.81862" lon="1.22958">
        <ele>292</ele>
        <time>2020-09-19T11:49:04.375Z</time>
      </trkpt>
      <trkpt lat="45.81865" lon="1.22961">
        <ele>291</ele>
        <time>2020-09-19T11:49:05.375Z</time>
      </trkpt>
      <trkpt lat="45.81867" lon="1.22963">
        <ele>290</ele>
        <time>2020-09-19T11:49:06.375Z</time>
      </trkpt>
      <trkpt lat="45.8187" lon="1.22966">
        <ele>290</ele>
        <time>2020-09-19T11:49:07.375Z</time>
      </trkpt>
      <trkpt lat="45.81872" lon="1.22969">
        <ele>289</ele>
        <time>2020-09-19T11:49:08.375Z</time>
      </trkpt>
      <trkpt lat="45.81874" lon="1.22972">
        <ele>290</ele>
        <time>2020-09-19T11:49:09.375Z</time>
      </trkpt>
      <trkpt lat="45.81877" lon="1.22975">
        <ele>290</ele>
        <time>2020-09-19T11:49:10.375Z</time>
      </trkpt>
      <trkpt lat="45.81879" lon="1.22978">
        <ele>289</ele>
        <time>2020-09-19T11:49:11.375Z</time>
      </trkpt>
      <trkpt lat="45.81881" lon="1.2298">
        <ele>290</ele>
        <time>2020-09-19T11:49:12.375Z</time>
      </trkpt>
      <trkpt lat="45.81884" lon="1.22982">
        <ele>289</ele>
        <time>2020-09-19T11:49:13.375Z</time>
      </trkpt>
      <trkpt lat="45.81886" lon="1.22983">
        <ele>290</ele>
        <time>2020-09-19T11:49:14.375Z</time>
      </trkpt>
      <trkpt lat="45.81889" lon="1.22984">
        <ele>290</ele>
        <time>2020-09-19T11:49:15.375Z</time>
      </trkpt>
      <trkpt lat="45.81892" lon="1.22986">
        <ele>291</ele>
        <time>2020-09-19T11:49:16.375Z</time>
      </trkpt>
      <trkpt lat="45.81895" lon="1.22987">
        <ele>290</ele>
        <time>2020-09-19T11:49:17.375Z</time>
      </trkpt>
      <trkpt lat="45.81898" lon="1.22989">
        <ele>290</ele>
        <time>2020-09-19T11:49:18.375Z</time>
      </trkpt>
      <trkpt lat="45.81901" lon="1.2299">
        <ele>289</ele>
        <time>2020-09-19T11:49:19.375Z</time>
      </trkpt>
      <trkpt lat="45.81905" lon="1.22992">
        <ele>288</ele>
        <time>2020-09-19T11:49:20.375Z</time>
      </trkpt>
      <trkpt lat="45.81908" lon="1.22993">
        <ele>288</ele>
        <time>2020-09-19T11:49:21.375Z</time>
      </trkpt>
      <trkpt lat="45.81912" lon="1.22994">
        <ele>289</ele>
        <time>2020-09-19T11:49:22.375Z</time>
      </trkpt>
      <trkpt lat="45.81916" lon="1.22995">
        <ele>289</ele>
        <time>2020-09-19T11:49:23.375Z</time>
      </trkpt>
      <trkpt lat="45.81919" lon="1.22996">
        <ele>290</ele>
        <time>2020-09-19T11:49:24.375Z</time>
      </trkpt>
      <trkpt lat="45.81923" lon="1.22998">
        <ele>291</ele>
        <time>2020-09-19T11:49:25.375Z</time>
      </trkpt>
      <trkpt lat="45.81926" lon="1.22999">
        <ele>293</ele>
        <time>2020-09-19T11:49:26.375Z</time>
      </trkpt>
      <trkpt lat="45.81929" lon="1.23">
        <ele>293</ele>
        <time>2020-09-19T11:49:27.375Z</time>
      </trkpt>
      <trkpt lat="45.81933" lon="1.23001">
        <ele>293</ele>
        <time>2020-09-19T11:49:28.375Z</time>
      </trkpt>
      <trkpt lat="45.81936" lon="1.23002">
        <ele>293</ele>
        <time>2020-09-19T11:49:29.375Z</time>
      </trkpt>
      <trkpt lat="45.81939" lon="1.23003">
        <ele>293</ele>
        <time>2020-09-19T11:49:30.375Z</time>
      </trkpt>
      <trkpt lat="45.81942" lon="1.23005">
        <ele>294</ele>
        <time>2020-09-19T11:49:31.375Z</time>
      </trkpt>
      <trkpt lat="45.81945" lon="1.23006">
        <ele>294</ele>
        <time>2020-09-19T11:49:32.375Z</time>
      </trkpt>
      <trkpt lat="45.81949" lon="1.23007">
        <ele>294</ele>
        <time>2020-09-19T11:49:33.375Z</time>
      </trkpt>
      <trkpt lat="45.81952" lon="1.23008">
        <ele>294</ele>
        <time>2020-09-19T11:49:34.375Z</time>
      </trkpt>
      <trkpt lat="45.81955" lon="1.23009">
        <ele>295</ele>
        <time>2020-09-19T11:49:35.375Z</time>
      </trkpt>
      <trkpt lat="45.81958" lon="1.2301">
        <ele>294</ele>
        <time>2020-09-19T11:49:36.375Z</time>
      </trkpt>
      <trkpt lat="45.81962" lon="1.23011">
        <ele>294</ele>
        <time>2020-09-19T11:49:37.375Z</time>
      </trkpt>
      <trkpt lat="45.81965" lon="1.23012">
        <ele>294</ele>
        <time>2020-09-19T11:49:38.375Z</time>
      </trkpt>
      <trkpt lat="45.81968" lon="1.23013">
        <ele>295</ele>
        <time>2020-09-19T11:49:39.375Z</time>
      </trkpt>
      <trkpt lat="45.81971" lon="1.23014">
        <ele>296</ele>
        <time>2020-09-19T11:49:40.375Z</time>
      </trkpt>
      <trkpt lat="45.81974" lon="1.23015">
        <ele>297</ele>
        <time>2020-09-19T11:49:41.375Z</time>
      </trkpt>
      <trkpt lat="45.81978" lon="1.23016">
        <ele>298</ele>
        <time>2020-09-19T11:49:42.375Z</time>
      </trkpt>
      <trkpt lat="45.81981" lon="1.23017">
        <ele>298</ele>
        <time>2020-09-19T11:49:43.375Z</time>
      </trkpt>
      <trkpt lat="45.81984" lon="1.23018">
        <ele>298</ele>
        <time>2020-09-19T11:49:44.375Z</time>
      </trkpt>
      <trkpt lat="45.81988" lon="1.23019">
        <ele>298</ele>
        <time>2020-09-19T11:49:45.375Z</time>
      </trkpt>
      <trkpt lat="45.81991" lon="1.2302">
        <ele>299</ele>
        <time>2020-09-19T11:49:46.375Z</time>
      </trkpt>
      <trkpt lat="45.81994" lon="1.23021">
        <ele>298</ele>
        <time>2020-09-19T11:49:47.375Z</time>
      </trkpt>
      <trkpt lat="45.81997" lon="1.23022">
        <ele>299</ele>
        <time>2020-09-19T11:49:48.375Z</time>
      </trkpt>
      <trkpt lat="45.82" lon="1.23023">
        <ele>298</ele>
        <time>2020-09-19T11:49:49.375Z</time>
      </trkpt>
      <trkpt lat="45.82003" lon="1.23024">
        <ele>297</ele>
        <time>2020-09-19T11:49:50.375Z</time>
      </trkpt>
      <trkpt lat="45.82006" lon="1.23024">
        <ele>296</ele>
        <time>2020-09-19T11:49:51.375Z</time>
      </trkpt>
      <trkpt lat="45.82009" lon="1.23025">
        <ele>296</ele>
        <time>2020-09-19T11:49:52.375Z</time>
      </trkpt>
      <trkpt lat="45.82012" lon="1.23025">
        <ele>296</ele>
        <time>2020-09-19T11:49:53.375Z</time>
      </trkpt>
      <trkpt lat="45.82015" lon="1.23026">
        <ele>295</ele>
        <time>2020-09-19T11:49:54.375Z</time>
      </trkpt>
      <trkpt lat="45.82018" lon="1.23027">
        <ele>295</ele>
        <time>2020-09-19T11:49:55.375Z</time>
      </trkpt>
      <trkpt lat="45.8202" lon="1.23028">
        <ele>295</ele>
        <time>2020-09-19T11:49:56.375Z</time>
      </trkpt>
      <trkpt lat="45.82023" lon="1.23029">
        <ele>295</ele>
        <time>2020-09-19T11:49:57.375Z</time>
      </trkpt>
      <trkpt lat="45.82025" lon="1.23031">
        <ele>296</ele>
        <time>2020-09-19T11:49:58.375Z</time>
      </trkpt>
      <trkpt lat="45.82028" lon="1.23032">
        <ele>296</ele>
        <time>2020-09-19T11:49:59.375Z</time>
      </trkpt>
      <trkpt lat="45.82031" lon="1.23033">
        <ele>296</ele>
        <time>2020-09-19T11:50:00.375Z</time>
      </trkpt>
      <trkpt lat="45.82034" lon="1.23033">
        <ele>296</ele>
        <time>2020-09-19T11:50:01.375Z</time>
      </trkpt>
      <trkpt lat="45.82038" lon="1.23034">
        <ele>297</ele>
        <time>2020-09-19T11:50:02.375Z</time>
      </trkpt>
      <trkpt lat="45.82041" lon="1.23034">
        <ele>297</ele>
        <time>2020-09-19T11:50:03.375Z</time>
      </trkpt>
      <trkpt lat="45.82043" lon="1.23035">
        <ele>297</ele>
        <time>2020-09-19T11:50:04.375Z</time>
      </trkpt>
      <trkpt lat="45.82046" lon="1.23035">
        <ele>297</ele>
        <time>2020-09-19T11:50:05.375Z</time>
      </trkpt>
      <trkpt lat="45.82049" lon="1.23035">
        <ele>297</ele>
        <time>2020-09-19T11:50:06.375Z</time>
      </trkpt>
      <trkpt lat="45.82052" lon="1.23035">
        <ele>295</ele>
        <time>2020-09-19T11:50:07.375Z</time>
      </trkpt>
      <trkpt lat="45.82055" lon="1.23034">
        <ele>294</ele>
        <time>2020-09-19T11:50:08.375Z</time>
      </trkpt>
      <trkpt lat="45.82058" lon="1.23035">
        <ele>295</ele>
        <time>2020-09-19T11:50:09.375Z</time>
      </trkpt>
      <trkpt lat="45.82062" lon="1.23036">
        <ele>299</ele>
        <time>2020-09-19T11:50:10.375Z</time>
      </trkpt>
      <trkpt lat="45.82065" lon="1.23037">
        <ele>299</ele>
        <time>2020-09-19T11:50:11.375Z</time>
      </trkpt>
      <trkpt lat="45.82068" lon="1.23037">
        <ele>300</ele>
        <time>2020-09-19T11:50:12.375Z</time>
      </trkpt>
      <trkpt lat="45.82071" lon="1.23037">
        <ele>299</ele>
        <time>2020-09-19T11:50:13.375Z</time>
      </trkpt>
      <trkpt lat="45.82074" lon="1.23037">
        <ele>299</ele>
        <time>2020-09-19T11:50:14.375Z</time>
      </trkpt>
      <trkpt lat="45.82076" lon="1.23036">
        <ele>299</ele>
        <time>2020-09-19T11:50:15.375Z</time>
      </trkpt>
      <trkpt lat="45.82078" lon="1.23036">
        <ele>297</ele>
        <time>2020-09-19T11:50:16.375Z</time>
      </trkpt>
      <trkpt lat="45.8208" lon="1.23038">
        <ele>297</ele>
        <time>2020-09-19T11:50:17.375Z</time>
      </trkpt>
      <trkpt lat="45.82082" lon="1.23041">
        <ele>296</ele>
        <time>2020-09-19T11:50:18.375Z</time>
      </trkpt>
      <trkpt lat="45.82085" lon="1.23044">
        <ele>296</ele>
        <time>2020-09-19T11:50:19.375Z</time>
      </trkpt>
      <trkpt lat="45.82087" lon="1.23046">
        <ele>296</ele>
        <time>2020-09-19T11:50:20.375Z</time>
      </trkpt>
      <trkpt lat="45.8209" lon="1.23047">
        <ele>297</ele>
        <time>2020-09-19T11:50:21.375Z</time>
      </trkpt>
      <trkpt lat="45.82094" lon="1.23048">
        <ele>297</ele>
        <time>2020-09-19T11:50:22.375Z</time>
      </trkpt>
      <trkpt lat="45.82097" lon="1.23049">
        <ele>297</ele>
        <time>2020-09-19T11:50:23.375Z</time>
      </trkpt>
      <trkpt lat="45.82101" lon="1.23049">
        <ele>295</ele>
        <time>2020-09-19T11:50:24.375Z</time>
      </trkpt>
      <trkpt lat="45.82104" lon="1.23048">
        <ele>295</ele>
        <time>2020-09-19T11:50:25.375Z</time>
      </trkpt>
      <trkpt lat="45.82107" lon="1.23047">
        <ele>294</ele>
        <time>2020-09-19T11:50:26.375Z</time>
      </trkpt>
      <trkpt lat="45.8211" lon="1.23046">
        <ele>294</ele>
        <time>2020-09-19T11:50:27.375Z</time>
      </trkpt>
      <trkpt lat="45.82113" lon="1.23046">
        <ele>296</ele>
        <time>2020-09-19T11:50:28.375Z</time>
      </trkpt>
      <trkpt lat="45.82117" lon="1.23045">
        <ele>298</ele>
        <time>2020-09-19T11:50:29.375Z</time>
      </trkpt>
      <trkpt lat="45.82121" lon="1.23044">
        <ele>297</ele>
        <time>2020-09-19T11:50:30.375Z</time>
      </trkpt>
      <trkpt lat="45.82124" lon="1.23043">
        <ele>297</ele>
        <time>2020-09-19T11:50:31.375Z</time>
      </trkpt>
      <trkpt lat="45.82127" lon="1.23042">
        <ele>296</ele>
        <time>2020-09-19T11:50:32.375Z</time>
      </trkpt>
      <trkpt lat="45.8213" lon="1.23042">
        <ele>295</ele>
        <time>2020-09-19T11:50:33.375Z</time>
      </trkpt>
      <trkpt lat="45.82133" lon="1.23043">
        <ele>295</ele>
        <time>2020-09-19T11:50:34.375Z</time>
      </trkpt>
      <trkpt lat="45.82136" lon="1.23044">
        <ele>294</ele>
        <time>2020-09-19T11:50:35.375Z</time>
      </trkpt>
      <trkpt lat="45.8214" lon="1.23044">
        <ele>295</ele>
        <time>2020-09-19T11:50:36.375Z</time>
      </trkpt>
      <trkpt lat="45.82143" lon="1.23045">
        <ele>296</ele>
        <time>2020-09-19T11:50:37.375Z</time>
      </trkpt>
      <trkpt lat="45.82146" lon="1.23046">
        <ele>296</ele>
        <time>2020-09-19T11:50:38.375Z</time>
      </trkpt>
      <trkpt lat="45.82148" lon="1.23047">
        <ele>297</ele>
        <time>2020-09-19T11:50:39.375Z</time>
      </trkpt>
      <trkpt lat="45.82151" lon="1.23049">
        <ele>296</ele>
        <time>2020-09-19T11:50:40.375Z</time>
      </trkpt>
      <trkpt lat="45.82154" lon="1.2305">
        <ele>298</ele>
        <time>2020-09-19T11:50:41.375Z</time>
      </trkpt>
      <trkpt lat="45.82157" lon="1.23051">
        <ele>299</ele>
        <time>2020-09-19T11:50:42.375Z</time>
      </trkpt>
      <trkpt lat="45.8216" lon="1.23052">
        <ele>298</ele>
        <time>2020-09-19T11:50:43.375Z</time>
      </trkpt>
      <trkpt lat="45.82163" lon="1.23053">
        <ele>298</ele>
        <time>2020-09-19T11:50:44.375Z</time>
      </trkpt>
      <trkpt lat="45.82166" lon="1.23055">
        <ele>299</ele>
        <time>2020-09-19T11:50:45.375Z</time>
      </trkpt>
      <trkpt lat="45.82168" lon="1.23057">
        <ele>299</ele>
        <time>2020-09-19T11:50:46.375Z</time>
      </trkpt>
      <trkpt lat="45.82171" lon="1.23059">
        <ele>299</ele>
        <time>2020-09-19T11:50:47.375Z</time>
      </trkpt>
      <trkpt lat="45.82174" lon="1.2306">
        <ele>300</ele>
        <time>2020-09-19T11:50:48.375Z</time>
      </trkpt>
      <trkpt lat="45.82177" lon="1.23062">
        <ele>301</ele>
        <time>2020-09-19T11:50:49.375Z</time>
      </trkpt>
      <trkpt lat="45.8218" lon="1.23063">
        <ele>303</ele>
        <time>2020-09-19T11:50:50.375Z</time>
      </trkpt>
      <trkpt lat="45.82182" lon="1.23065">
        <ele>303</ele>
        <time>2020-09-19T11:50:51.375Z</time>
      </trkpt>
      <trkpt lat="45.82184" lon="1.23066">
        <ele>304</ele>
        <time>2020-09-19T11:50:52.375Z</time>
      </trkpt>
      <trkpt lat="45.82186" lon="1.23067">
        <ele>303</ele>
        <time>2020-09-19T11:50:53.375Z</time>
      </trkpt>
      <trkpt lat="45.82188" lon="1.23068">
        <ele>303</ele>
        <time>2020-09-19T11:50:54.375Z</time>
      </trkpt>
      <trkpt lat="45.82191" lon="1.2307">
        <ele>304</ele>
        <time>2020-09-19T11:50:55.375Z</time>
      </trkpt>
      <trkpt lat="45.82194" lon="1.23072">
        <ele>304</ele>
        <time>2020-09-19T11:50:56.375Z</time>
      </trkpt>
      <trkpt lat="45.82197" lon="1.23075">
        <ele>305</ele>
        <time>2020-09-19T11:50:57.375Z</time>
      </trkpt>
      <trkpt lat="45.82201" lon="1.23077">
        <ele>306</ele>
        <time>2020-09-19T11:50:58.375Z</time>
      </trkpt>
      <trkpt lat="45.82204" lon="1.23079">
        <ele>306</ele>
        <time>2020-09-19T11:50:59.375Z</time>
      </trkpt>
      <trkpt lat="45.82207" lon="1.23081">
        <ele>307</ele>
        <time>2020-09-19T11:51:00.375Z</time>
      </trkpt>
      <trkpt lat="45.8221" lon="1.23083">
        <ele>307</ele>
        <time>2020-09-19T11:51:01.375Z</time>
      </trkpt>
      <trkpt lat="45.82213" lon="1.23085">
        <ele>308</ele>
        <time>2020-09-19T11:51:02.375Z</time>
      </trkpt>
      <trkpt lat="45.82216" lon="1.23087">
        <ele>307</ele>
        <time>2020-09-19T11:51:03.375Z</time>
      </trkpt>
      <trkpt lat="45.82219" lon="1.23089">
        <ele>308</ele>
        <time>2020-09-19T11:51:04.375Z</time>
      </trkpt>
      <trkpt lat="45.82222" lon="1.23091">
        <ele>308</ele>
        <time>2020-09-19T11:51:05.375Z</time>
      </trkpt>
      <trkpt lat="45.82226" lon="1.23093">
        <ele>308</ele>
        <time>2020-09-19T11:51:06.375Z</time>
      </trkpt>
      <trkpt lat="45.82229" lon="1.23095">
        <ele>309</ele>
        <time>2020-09-19T11:51:07.375Z</time>
      </trkpt>
      <trkpt lat="45.82232" lon="1.23096">
        <ele>309</ele>
        <time>2020-09-19T11:51:08.375Z</time>
      </trkpt>
      <trkpt lat="45.82235" lon="1.23098">
        <ele>309</ele>
        <time>2020-09-19T11:51:09.375Z</time>
      </trkpt>
      <trkpt lat="45.82238" lon="1.23099">
        <ele>310</ele>
        <time>2020-09-19T11:51:10.375Z</time>
      </trkpt>
      <trkpt lat="45.82241" lon="1.231">
        <ele>311</ele>
        <time>2020-09-19T11:51:11.375Z</time>
      </trkpt>
      <trkpt lat="45.82243" lon="1.23101">
        <ele>312</ele>
        <time>2020-09-19T11:51:12.375Z</time>
      </trkpt>
      <trkpt lat="45.82246" lon="1.23103">
        <ele>311</ele>
        <time>2020-09-19T11:51:13.375Z</time>
      </trkpt>
      <trkpt lat="45.82249" lon="1.23104">
        <ele>311</ele>
        <time>2020-09-19T11:51:14.375Z</time>
      </trkpt>
      <trkpt lat="45.82251" lon="1.23106">
        <ele>312</ele>
        <time>2020-09-19T11:51:15.375Z</time>
      </trkpt>
      <trkpt lat="45.82254" lon="1.23108">
        <ele>313</ele>
        <time>2020-09-19T11:51:16.375Z</time>
      </trkpt>
      <trkpt lat="45.82256" lon="1.2311">
        <ele>313</ele>
        <time>2020-09-19T11:51:17.375Z</time>
      </trkpt>
      <trkpt lat="45.82259" lon="1.23113">
        <ele>314</ele>
        <time>2020-09-19T11:51:18.375Z</time>
      </trkpt>
      <trkpt lat="45.82262" lon="1.23115">
        <ele>315</ele>
        <time>2020-09-19T11:51:19.375Z</time>
      </trkpt>
      <trkpt lat="45.82265" lon="1.23117">
        <ele>317</ele>
        <time>2020-09-19T11:51:20.375Z</time>
      </trkpt>
      <trkpt lat="45.82267" lon="1.23119">
        <ele>317</ele>
        <time>2020-09-19T11:51:21.375Z</time>
      </trkpt>
      <trkpt lat="45.8227" lon="1.23122">
        <ele>317</ele>
        <time>2020-09-19T11:51:22.375Z</time>
      </trkpt>
      <trkpt lat="45.82273" lon="1.23124">
        <ele>317</ele>
        <time>2020-09-19T11:51:23.375Z</time>
      </trkpt>
      <trkpt lat="45.82277" lon="1.23128">
        <ele>315</ele>
        <time>2020-09-19T11:51:24.375Z</time>
      </trkpt>
      <trkpt lat="45.8228" lon="1.23132">
        <ele>314</ele>
        <time>2020-09-19T11:51:25.375Z</time>
      </trkpt>
      <trkpt lat="45.82283" lon="1.23137">
        <ele>314</ele>
        <time>2020-09-19T11:51:26.375Z</time>
      </trkpt>
      <trkpt lat="45.82286" lon="1.23142">
        <ele>314</ele>
        <time>2020-09-19T11:51:27.375Z</time>
      </trkpt>
      <trkpt lat="45.82289" lon="1.23146">
        <ele>311</ele>
        <time>2020-09-19T11:51:28.375Z</time>
      </trkpt>
      <trkpt lat="45.82291" lon="1.23151">
        <ele>311</ele>
        <time>2020-09-19T11:51:29.375Z</time>
      </trkpt>
      <trkpt lat="45.82294" lon="1.23155">
        <ele>312</ele>
        <time>2020-09-19T11:51:30.375Z</time>
      </trkpt>
      <trkpt lat="45.82296" lon="1.23159">
        <ele>311</ele>
        <time>2020-09-19T11:51:31.375Z</time>
      </trkpt>
      <trkpt lat="45.82299" lon="1.23162">
        <ele>308</ele>
        <time>2020-09-19T11:51:32.375Z</time>
      </trkpt>
      <trkpt lat="45.82302" lon="1.23167">
        <ele>307</ele>
        <time>2020-09-19T11:51:33.375Z</time>
      </trkpt>
      <trkpt lat="45.82305" lon="1.23171">
        <ele>307</ele>
        <time>2020-09-19T11:51:34.375Z</time>
      </trkpt>
      <trkpt lat="45.82307" lon="1.23176">
        <ele>307</ele>
        <time>2020-09-19T11:51:35.375Z</time>
      </trkpt>
      <trkpt lat="45.82309" lon="1.2318">
        <ele>307</ele>
        <time>2020-09-19T11:51:36.375Z</time>
      </trkpt>
      <trkpt lat="45.82312" lon="1.23184">
        <ele>306</ele>
        <time>2020-09-19T11:51:37.375Z</time>
      </trkpt>
      <trkpt lat="45.82314" lon="1.23189">
        <ele>305</ele>
        <time>2020-09-19T11:51:38.375Z</time>
      </trkpt>
      <trkpt lat="45.82316" lon="1.23193">
        <ele>304</ele>
        <time>2020-09-19T11:51:39.375Z</time>
      </trkpt>
      <trkpt lat="45.82319" lon="1.23197">
        <ele>304</ele>
        <time>2020-09-19T11:51:40.375Z</time>
      </trkpt>
      <trkpt lat="45.8232" lon="1.23201">
        <ele>303</ele>
        <time>2020-09-19T11:51:41.375Z</time>
      </trkpt>
      <trkpt lat="45.82322" lon="1.23205">
        <ele>304</ele>
        <time>2020-09-19T11:51:42.375Z</time>
      </trkpt>
      <trkpt lat="45.82324" lon="1.23208">
        <ele>303</ele>
        <time>2020-09-19T11:51:43.375Z</time>
      </trkpt>
      <trkpt lat="45.82325" lon="1.23213">
        <ele>303</ele>
        <time>2020-09-19T11:51:44.375Z</time>
      </trkpt>
      <trkpt lat="45.82327" lon="1.23217">
        <ele>302</ele>
        <time>2020-09-19T11:51:45.375Z</time>
      </trkpt>
      <trkpt lat="45.82328" lon="1.23221">
        <ele>301</ele>
        <time>2020-09-19T11:51:46.375Z</time>
      </trkpt>
      <trkpt lat="45.82329" lon="1.23226">
        <ele>301</ele>
        <time>2020-09-19T11:51:47.375Z</time>
      </trkpt>
      <trkpt lat="45.8233" lon="1.2323">
        <ele>300</ele>
        <time>2020-09-19T11:51:48.375Z</time>
      </trkpt>
      <trkpt lat="45.82331" lon="1.23234">
        <ele>300</ele>
        <time>2020-09-19T11:51:49.375Z</time>
      </trkpt>
      <trkpt lat="45.82332" lon="1.23238">
        <ele>300</ele>
        <time>2020-09-19T11:51:50.375Z</time>
      </trkpt>
      <trkpt lat="45.82334" lon="1.23242">
        <ele>300</ele>
        <time>2020-09-19T11:51:51.375Z</time>
      </trkpt>
      <trkpt lat="45.82335" lon="1.23245">
        <ele>299</ele>
        <time>2020-09-19T11:51:52.375Z</time>
      </trkpt>
      <trkpt lat="45.82337" lon="1.23249">
        <ele>300</ele>
        <time>2020-09-19T11:51:53.375Z</time>
      </trkpt>
      <trkpt lat="45.82338" lon="1.23254">
        <ele>301</ele>
        <time>2020-09-19T11:51:54.375Z</time>
      </trkpt>
      <trkpt lat="45.82339" lon="1.23259">
        <ele>302</ele>
        <time>2020-09-19T11:51:55.375Z</time>
      </trkpt>
      <trkpt lat="45.8234" lon="1.23264">
        <ele>302</ele>
        <time>2020-09-19T11:51:56.375Z</time>
      </trkpt>
      <trkpt lat="45.82341" lon="1.23268">
        <ele>304</ele>
        <time>2020-09-19T11:51:57.375Z</time>
      </trkpt>
      <trkpt lat="45.82342" lon="1.23273">
        <ele>304</ele>
        <time>2020-09-19T11:51:58.375Z</time>
      </trkpt>
      <trkpt lat="45.82343" lon="1.23277">
        <ele>303</ele>
        <time>2020-09-19T11:51:59.375Z</time>
      </trkpt>
      <trkpt lat="45.82344" lon="1.23282">
        <ele>303</ele>
        <time>2020-09-19T11:52:00.375Z</time>
      </trkpt>
      <trkpt lat="45.82345" lon="1.23286">
        <ele>303</ele>
        <time>2020-09-19T11:52:01.375Z</time>
      </trkpt>
      <trkpt lat="45.82347" lon="1.2329">
        <ele>303</ele>
        <time>2020-09-19T11:52:02.375Z</time>
      </trkpt>
      <trkpt lat="45.82349" lon="1.23294">
        <ele>303</ele>
        <time>2020-09-19T11:52:03.375Z</time>
      </trkpt>
      <trkpt lat="45.8235" lon="1.23298">
        <ele>303</ele>
        <time>2020-09-19T11:52:04.375Z</time>
      </trkpt>
      <trkpt lat="45.82352" lon="1.23302">
        <ele>303</ele>
        <time>2020-09-19T11:52:05.375Z</time>
      </trkpt>
      <trkpt lat="45.82353" lon="1.23307">
        <ele>303</ele>
        <time>2020-09-19T11:52:06.375Z</time>
      </trkpt>
      <trkpt lat="45.82355" lon="1.23311">
        <ele>304</ele>
        <time>2020-09-19T11:52:07.375Z</time>
      </trkpt>
      <trkpt lat="45.82356" lon="1.23315">
        <ele>303</ele>
        <time>2020-09-19T11:52:08.375Z</time>
      </trkpt>
      <trkpt lat="45.82357" lon="1.23318">
        <ele>303</ele>
        <time>2020-09-19T11:52:09.375Z</time>
      </trkpt>
      <trkpt lat="45.82358" lon="1.23322">
        <ele>302</ele>
        <time>2020-09-19T11:52:10.375Z</time>
      </trkpt>
      <trkpt lat="45.8236" lon="1.23326">
        <ele>302</ele>
        <time>2020-09-19T11:52:11.375Z</time>
      </trkpt>
      <trkpt lat="45.82362" lon="1.23331">
        <ele>302</ele>
        <time>2020-09-19T11:52:12.375Z</time>
      </trkpt>
      <trkpt lat="45.82363" lon="1.23335">
        <ele>302</ele>
        <time>2020-09-19T11:52:13.375Z</time>
      </trkpt>
      <trkpt lat="45.82365" lon="1.23339">
        <ele>302</ele>
        <time>2020-09-19T11:52:14.375Z</time>
      </trkpt>
      <trkpt lat="45.82366" lon="1.23343">
        <ele>302</ele>
        <time>2020-09-19T11:52:15.375Z</time>
      </trkpt>
      <trkpt lat="45.82367" lon="1.23347">
        <ele>302</ele>
        <time>2020-09-19T11:52:16.375Z</time>
      </trkpt>
      <trkpt lat="45.82368" lon="1.23351">
        <ele>302</ele>
        <time>2020-09-19T11:52:17.375Z</time>
      </trkpt>
      <trkpt lat="45.82369" lon="1.23355">
        <ele>303</ele>
        <time>2020-09-19T11:52:18.375Z</time>
      </trkpt>
      <trkpt lat="45.82371" lon="1.2336">
        <ele>303</ele>
        <time>2020-09-19T11:52:19.375Z</time>
      </trkpt>
      <trkpt lat="45.82373" lon="1.23363">
        <ele>304</ele>
        <time>2020-09-19T11:52:20.375Z</time>
      </trkpt>
      <trkpt lat="45.82374" lon="1.23367">
        <ele>304</ele>
        <time>2020-09-19T11:52:21.375Z</time>
      </trkpt>
      <trkpt lat="45.82376" lon="1.23371">
        <ele>304</ele>
        <time>2020-09-19T11:52:22.375Z</time>
      </trkpt>
      <trkpt lat="45.82378" lon="1.23375">
        <ele>305</ele>
        <time>2020-09-19T11:52:23.375Z</time>
      </trkpt>
      <trkpt lat="45.8238" lon="1.23379">
        <ele>304</ele>
        <time>2020-09-19T11:52:24.375Z</time>
      </trkpt>
      <trkpt lat="45.82382" lon="1.23382">
        <ele>305</ele>
        <time>2020-09-19T11:52:25.375Z</time>
      </trkpt>
      <trkpt lat="45.82384" lon="1.23386">
        <ele>305</ele>
        <time>2020-09-19T11:52:26.375Z</time>
      </trkpt>
      <trkpt lat="45.82386" lon="1.2339">
        <ele>305</ele>
        <time>2020-09-19T11:52:27.375Z</time>
      </trkpt>
      <trkpt lat="45.82388" lon="1.23393">
        <ele>305</ele>
        <time>2020-09-19T11:52:28.375Z</time>
      </trkpt>
      <trkpt lat="45.8239" lon="1.23397">
        <ele>305</ele>
        <time>2020-09-19T11:52:29.375Z</time>
      </trkpt>
      <trkpt lat="45.82392" lon="1.23401">
        <ele>306</ele>
        <time>2020-09-19T11:52:30.375Z</time>
      </trkpt>
      <trkpt lat="45.82395" lon="1.23404">
        <ele>306</ele>
        <time>2020-09-19T11:52:31.375Z</time>
      </trkpt>
      <trkpt lat="45.82397" lon="1.23407">
        <ele>307</ele>
        <time>2020-09-19T11:52:32.375Z</time>
      </trkpt>
      <trkpt lat="45.824" lon="1.23411">
        <ele>307</ele>
        <time>2020-09-19T11:52:33.375Z</time>
      </trkpt>
      <trkpt lat="45.82403" lon="1.23414">
        <ele>307</ele>
        <time>2020-09-19T11:52:34.375Z</time>
      </trkpt>
      <trkpt lat="45.82405" lon="1.23417">
        <ele>307</ele>
        <time>2020-09-19T11:52:35.375Z</time>
      </trkpt>
      <trkpt lat="45.82408" lon="1.2342">
        <ele>307</ele>
        <time>2020-09-19T11:52:36.375Z</time>
      </trkpt>
      <trkpt lat="45.8241" lon="1.23423">
        <ele>306</ele>
        <time>2020-09-19T11:52:37.375Z</time>
      </trkpt>
      <trkpt lat="45.82412" lon="1.23425">
        <ele>306</ele>
        <time>2020-09-19T11:52:38.375Z</time>
      </trkpt>
      <trkpt lat="45.82414" lon="1.23428">
        <ele>306</ele>
        <time>2020-09-19T11:52:39.375Z</time>
      </trkpt>
      <trkpt lat="45.82416" lon="1.23432">
        <ele>307</ele>
        <time>2020-09-19T11:52:40.375Z</time>
      </trkpt>
      <trkpt lat="45.82417" lon="1.23437">
        <ele>308</ele>
        <time>2020-09-19T11:52:41.375Z</time>
      </trkpt>
      <trkpt lat="45.82418" lon="1.23442">
        <ele>310</ele>
        <time>2020-09-19T11:52:42.375Z</time>
      </trkpt>
      <trkpt lat="45.82418" lon="1.23447">
        <ele>312</ele>
        <time>2020-09-19T11:52:43.375Z</time>
      </trkpt>
      <trkpt lat="45.82418" lon="1.23452">
        <ele>313</ele>
        <time>2020-09-19T11:52:44.375Z</time>
      </trkpt>
      <trkpt lat="45.82418" lon="1.23456">
        <ele>314</ele>
        <time>2020-09-19T11:52:45.375Z</time>
      </trkpt>
      <trkpt lat="45.82418" lon="1.2346">
        <ele>314</ele>
        <time>2020-09-19T11:52:46.375Z</time>
      </trkpt>
      <trkpt lat="45.82418" lon="1.23463">
        <ele>314</ele>
        <time>2020-09-19T11:52:47.375Z</time>
      </trkpt>
      <trkpt lat="45.82417" lon="1.23467">
        <ele>313</ele>
        <time>2020-09-19T11:52:48.375Z</time>
      </trkpt>
      <trkpt lat="45.82416" lon="1.23472">
        <ele>313</ele>
        <time>2020-09-19T11:52:49.375Z</time>
      </trkpt>
      <trkpt lat="45.82415" lon="1.23476">
        <ele>313</ele>
        <time>2020-09-19T11:52:50.375Z</time>
      </trkpt>
      <trkpt lat="45.82414" lon="1.23481">
        <ele>314</ele>
        <time>2020-09-19T11:52:51.375Z</time>
      </trkpt>
      <trkpt lat="45.82412" lon="1.23485">
        <ele>313</ele>
        <time>2020-09-19T11:52:52.375Z</time>
      </trkpt>
      <trkpt lat="45.82411" lon="1.2349">
        <ele>312</ele>
        <time>2020-09-19T11:52:53.375Z</time>
      </trkpt>
      <trkpt lat="45.8241" lon="1.23495">
        <ele>313</ele>
        <time>2020-09-19T11:52:54.375Z</time>
      </trkpt>
      <trkpt lat="45.8241" lon="1.23499">
        <ele>313</ele>
        <time>2020-09-19T11:52:55.375Z</time>
      </trkpt>
      <trkpt lat="45.82409" lon="1.23504">
        <ele>312</ele>
        <time>2020-09-19T11:52:56.375Z</time>
      </trkpt>
      <trkpt lat="45.82409" lon="1.23509">
        <ele>311</ele>
        <time>2020-09-19T11:52:57.375Z</time>
      </trkpt>
      <trkpt lat="45.82408" lon="1.23515">
        <ele>311</ele>
        <time>2020-09-19T11:52:58.375Z</time>
      </trkpt>
      <trkpt lat="45.82407" lon="1.2352">
        <ele>310</ele>
        <time>2020-09-19T11:52:59.375Z</time>
      </trkpt>
      <trkpt lat="45.82407" lon="1.23525">
        <ele>310</ele>
        <time>2020-09-19T11:53:00.375Z</time>
      </trkpt>
      <trkpt lat="45.82406" lon="1.2353">
        <ele>310</ele>
        <time>2020-09-19T11:53:01.375Z</time>
      </trkpt>
      <trkpt lat="45.82405" lon="1.23535">
        <ele>310</ele>
        <time>2020-09-19T11:53:02.375Z</time>
      </trkpt>
      <trkpt lat="45.82405" lon="1.2354">
        <ele>308</ele>
        <time>2020-09-19T11:53:03.375Z</time>
      </trkpt>
      <trkpt lat="45.82405" lon="1.23545">
        <ele>308</ele>
        <time>2020-09-19T11:53:04.375Z</time>
      </trkpt>
      <trkpt lat="45.82404" lon="1.2355">
        <ele>308</ele>
        <time>2020-09-19T11:53:05.375Z</time>
      </trkpt>
      <trkpt lat="45.82403" lon="1.23555">
        <ele>307</ele>
        <time>2020-09-19T11:53:06.375Z</time>
      </trkpt>
      <trkpt lat="45.82402" lon="1.2356">
        <ele>307</ele>
        <time>2020-09-19T11:53:07.375Z</time>
      </trkpt>
      <trkpt lat="45.82401" lon="1.23565">
        <ele>307</ele>
        <time>2020-09-19T11:53:08.375Z</time>
      </trkpt>
      <trkpt lat="45.824" lon="1.23569">
        <ele>307</ele>
        <time>2020-09-19T11:53:09.375Z</time>
      </trkpt>
      <trkpt lat="45.82399" lon="1.23574">
        <ele>306</ele>
        <time>2020-09-19T11:53:10.375Z</time>
      </trkpt>
      <trkpt lat="45.82399" lon="1.23579">
        <ele>306</ele>
        <time>2020-09-19T11:53:11.375Z</time>
      </trkpt>
      <trkpt lat="45.82398" lon="1.23583">
        <ele>306</ele>
        <time>2020-09-19T11:53:12.375Z</time>
      </trkpt>
      <trkpt lat="45.82397" lon="1.23588">
        <ele>307</ele>
        <time>2020-09-19T11:53:13.375Z</time>
      </trkpt>
      <trkpt lat="45.82396" lon="1.23593">
        <ele>306</ele>
        <time>2020-09-19T11:53:14.375Z</time>
      </trkpt>
      <trkpt lat="45.82395" lon="1.23598">
        <ele>305</ele>
        <time>2020-09-19T11:53:15.375Z</time>
      </trkpt>
      <trkpt lat="45.82395" lon="1.23603">
        <ele>305</ele>
        <time>2020-09-19T11:53:16.375Z</time>
      </trkpt>
      <trkpt lat="45.82394" lon="1.23608">
        <ele>304</ele>
        <time>2020-09-19T11:53:17.375Z</time>
      </trkpt>
      <trkpt lat="45.82394" lon="1.23613">
        <ele>304</ele>
        <time>2020-09-19T11:53:18.375Z</time>
      </trkpt>
      <trkpt lat="45.82393" lon="1.23618">
        <ele>305</ele>
        <time>2020-09-19T11:53:19.375Z</time>
      </trkpt>
      <trkpt lat="45.82392" lon="1.23622">
        <ele>305</ele>
        <time>2020-09-19T11:53:20.375Z</time>
      </trkpt>
      <trkpt lat="45.82391" lon="1.23627">
        <ele>305</ele>
        <time>2020-09-19T11:53:21.375Z</time>
      </trkpt>
      <trkpt lat="45.8239" lon="1.23632">
        <ele>305</ele>
        <time>2020-09-19T11:53:22.375Z</time>
      </trkpt>
      <trkpt lat="45.82389" lon="1.23637">
        <ele>304</ele>
        <time>2020-09-19T11:53:23.375Z</time>
      </trkpt>
      <trkpt lat="45.82388" lon="1.23641">
        <ele>304</ele>
        <time>2020-09-19T11:53:24.375Z</time>
      </trkpt>
      <trkpt lat="45.82387" lon="1.23646">
        <ele>305</ele>
        <time>2020-09-19T11:53:25.375Z</time>
      </trkpt>
      <trkpt lat="45.82386" lon="1.23651">
        <ele>304</ele>
        <time>2020-09-19T11:53:26.375Z</time>
      </trkpt>
      <trkpt lat="45.82385" lon="1.23655">
        <ele>305</ele>
        <time>2020-09-19T11:53:27.375Z</time>
      </trkpt>
      <trkpt lat="45.82385" lon="1.23659">
        <ele>305</ele>
        <time>2020-09-19T11:53:28.375Z</time>
      </trkpt>
      <trkpt lat="45.82384" lon="1.23664">
        <ele>305</ele>
        <time>2020-09-19T11:53:29.375Z</time>
      </trkpt>
      <trkpt lat="45.82384" lon="1.23669">
        <ele>305</ele>
        <time>2020-09-19T11:53:30.375Z</time>
      </trkpt>
      <trkpt lat="45.82384" lon="1.23673">
        <ele>305</ele>
        <time>2020-09-19T11:53:31.375Z</time>
      </trkpt>
      <trkpt lat="45.82384" lon="1.23678">
        <ele>305</ele>
        <time>2020-09-19T11:53:32.375Z</time>
      </trkpt>
      <trkpt lat="45.82383" lon="1.23683">
        <ele>304</ele>
        <time>2020-09-19T11:53:33.375Z</time>
      </trkpt>
      <trkpt lat="45.82383" lon="1.23688">
        <ele>303</ele>
        <time>2020-09-19T11:53:34.375Z</time>
      </trkpt>
      <trkpt lat="45.82383" lon="1.23692">
        <ele>303</ele>
        <time>2020-09-19T11:53:35.375Z</time>
      </trkpt>
      <trkpt lat="45.82382" lon="1.23697">
        <ele>303</ele>
        <time>2020-09-19T11:53:36.375Z</time>
      </trkpt>
      <trkpt lat="45.82382" lon="1.23701">
        <ele>302</ele>
        <time>2020-09-19T11:53:37.375Z</time>
      </trkpt>
      <trkpt lat="45.82382" lon="1.23705">
        <ele>302</ele>
        <time>2020-09-19T11:53:38.375Z</time>
      </trkpt>
      <trkpt lat="45.82381" lon="1.2371">
        <ele>302</ele>
        <time>2020-09-19T11:53:39.375Z</time>
      </trkpt>
      <trkpt lat="45.82381" lon="1.23714">
        <ele>302</ele>
        <time>2020-09-19T11:53:40.375Z</time>
      </trkpt>
      <trkpt lat="45.82381" lon="1.23719">
        <ele>302</ele>
        <time>2020-09-19T11:53:41.375Z</time>
      </trkpt>
      <trkpt lat="45.8238" lon="1.23723">
        <ele>303</ele>
        <time>2020-09-19T11:53:42.375Z</time>
      </trkpt>
      <trkpt lat="45.82379" lon="1.23728">
        <ele>304</ele>
        <time>2020-09-19T11:53:43.375Z</time>
      </trkpt>
      <trkpt lat="45.82379" lon="1.23732">
        <ele>303</ele>
        <time>2020-09-19T11:53:44.375Z</time>
      </trkpt>
      <trkpt lat="45.82378" lon="1.23737">
        <ele>303</ele>
        <time>2020-09-19T11:53:45.375Z</time>
      </trkpt>
      <trkpt lat="45.82376" lon="1.23741">
        <ele>304</ele>
        <time>2020-09-19T11:53:46.375Z</time>
      </trkpt>
      <trkpt lat="45.82375" lon="1.23746">
        <ele>304</ele>
        <time>2020-09-19T11:53:47.375Z</time>
      </trkpt>
      <trkpt lat="45.82374" lon="1.2375">
        <ele>303</ele>
        <time>2020-09-19T11:53:48.375Z</time>
      </trkpt>
      <trkpt lat="45.82373" lon="1.23756">
        <ele>304</ele>
        <time>2020-09-19T11:53:49.375Z</time>
      </trkpt>
      <trkpt lat="45.82372" lon="1.23761">
        <ele>304</ele>
        <time>2020-09-19T11:53:50.375Z</time>
      </trkpt>
      <trkpt lat="45.82371" lon="1.23766">
        <ele>304</ele>
        <time>2020-09-19T11:53:51.375Z</time>
      </trkpt>
      <trkpt lat="45.82369" lon="1.2377">
        <ele>303</ele>
        <time>2020-09-19T11:53:52.375Z</time>
      </trkpt>
      <trkpt lat="45.82368" lon="1.23775">
        <ele>301</ele>
        <time>2020-09-19T11:53:53.375Z</time>
      </trkpt>
      <trkpt lat="45.82366" lon="1.23779">
        <ele>301</ele>
        <time>2020-09-19T11:53:54.375Z</time>
      </trkpt>
      <trkpt lat="45.82365" lon="1.23784">
        <ele>301</ele>
        <time>2020-09-19T11:53:55.375Z</time>
      </trkpt>
      <trkpt lat="45.82364" lon="1.23788">
        <ele>301</ele>
        <time>2020-09-19T11:53:56.375Z</time>
      </trkpt>
      <trkpt lat="45.82363" lon="1.23792">
        <ele>300</ele>
        <time>2020-09-19T11:53:57.375Z</time>
      </trkpt>
      <trkpt lat="45.82362" lon="1.23797">
        <ele>300</ele>
        <time>2020-09-19T11:53:58.375Z</time>
      </trkpt>
      <trkpt lat="45.82362" lon="1.23801">
        <ele>300</ele>
        <time>2020-09-19T11:53:59.375Z</time>
      </trkpt>
      <trkpt lat="45.82361" lon="1.23805">
        <ele>299</ele>
        <time>2020-09-19T11:54:00.375Z</time>
      </trkpt>
      <trkpt lat="45.8236" lon="1.2381">
        <ele>298</ele>
        <time>2020-09-19T11:54:01.375Z</time>
      </trkpt>
      <trkpt lat="45.82358" lon="1.23814">
        <ele>297</ele>
        <time>2020-09-19T11:54:02.375Z</time>
      </trkpt>
      <trkpt lat="45.82358" lon="1.23819">
        <ele>297</ele>
        <time>2020-09-19T11:54:03.375Z</time>
      </trkpt>
      <trkpt lat="45.82357" lon="1.23823">
        <ele>296</ele>
        <time>2020-09-19T11:54:04.375Z</time>
      </trkpt>
      <trkpt lat="45.82356" lon="1.23827">
        <ele>297</ele>
        <time>2020-09-19T11:54:05.375Z</time>
      </trkpt>
      <trkpt lat="45.82355" lon="1.23832">
        <ele>297</ele>
        <time>2020-09-19T11:54:06.375Z</time>
      </trkpt>
      <trkpt lat="45.82354" lon="1.23836">
        <ele>296</ele>
        <time>2020-09-19T11:54:07.375Z</time>
      </trkpt>
      <trkpt lat="45.82354" lon="1.2384">
        <ele>295</ele>
        <time>2020-09-19T11:54:08.375Z</time>
      </trkpt>
      <trkpt lat="45.82353" lon="1.23844">
        <ele>296</ele>
        <time>2020-09-19T11:54:09.375Z</time>
      </trkpt>
      <trkpt lat="45.82352" lon="1.23849">
        <ele>295</ele>
        <time>2020-09-19T11:54:10.375Z</time>
      </trkpt>
      <trkpt lat="45.8235" lon="1.23853">
        <ele>290</ele>
        <time>2020-09-19T11:54:11.375Z</time>
      </trkpt>
      <trkpt lat="45.82348" lon="1.23857">
        <ele>290</ele>
        <time>2020-09-19T11:54:12.375Z</time>
      </trkpt>
      <trkpt lat="45.82346" lon="1.23861">
        <ele>290</ele>
        <time>2020-09-19T11:54:13.375Z</time>
      </trkpt>
      <trkpt lat="45.82345" lon="1.23866">
        <ele>290</ele>
        <time>2020-09-19T11:54:14.375Z</time>
      </trkpt>
      <trkpt lat="45.82344" lon="1.2387">
        <ele>290</ele>
        <time>2020-09-19T11:54:15.375Z</time>
      </trkpt>
      <trkpt lat="45.82344" lon="1.23875">
        <ele>290</ele>
        <time>2020-09-19T11:54:16.375Z</time>
      </trkpt>
      <trkpt lat="45.82343" lon="1.23879">
        <ele>290</ele>
        <time>2020-09-19T11:54:17.375Z</time>
      </trkpt>
      <trkpt lat="45.82342" lon="1.23883">
        <ele>290</ele>
        <time>2020-09-19T11:54:18.375Z</time>
      </trkpt>
      <trkpt lat="45.82342" lon="1.23888">
        <ele>290</ele>
        <time>2020-09-19T11:54:19.375Z</time>
      </trkpt>
      <trkpt lat="45.82342" lon="1.23892">
        <ele>290</ele>
        <time>2020-09-19T11:54:20.375Z</time>
      </trkpt>
      <trkpt lat="45.82342" lon="1.23896">
        <ele>289</ele>
        <time>2020-09-19T11:54:21.375Z</time>
      </trkpt>
      <trkpt lat="45.82342" lon="1.23901">
        <ele>288</ele>
        <time>2020-09-19T11:54:22.375Z</time>
      </trkpt>
      <trkpt lat="45.82342" lon="1.23905">
        <ele>288</ele>
        <time>2020-09-19T11:54:23.375Z</time>
      </trkpt>
      <trkpt lat="45.82343" lon="1.2391">
        <ele>287</ele>
        <time>2020-09-19T11:54:24.375Z</time>
      </trkpt>
      <trkpt lat="45.82344" lon="1.23914">
        <ele>288</ele>
        <time>2020-09-19T11:54:25.375Z</time>
      </trkpt>
      <trkpt lat="45.82346" lon="1.23918">
        <ele>287</ele>
        <time>2020-09-19T11:54:26.375Z</time>
      </trkpt>
      <trkpt lat="45.82347" lon="1.23921">
        <ele>286</ele>
        <time>2020-09-19T11:54:27.375Z</time>
      </trkpt>
      <trkpt lat="45.82348" lon="1.23924">
        <ele>286</ele>
        <time>2020-09-19T11:54:28.375Z</time>
      </trkpt>
      <trkpt lat="45.82349" lon="1.23928">
        <ele>286</ele>
        <time>2020-09-19T11:54:29.375Z</time>
      </trkpt>
      <trkpt lat="45.8235" lon="1.23931">
        <ele>286</ele>
        <time>2020-09-19T11:54:30.375Z</time>
      </trkpt>
      <trkpt lat="45.82351" lon="1.23935">
        <ele>285</ele>
        <time>2020-09-19T11:54:31.375Z</time>
      </trkpt>
      <trkpt lat="45.82351" lon="1.23938">
        <ele>284</ele>
        <time>2020-09-19T11:54:32.375Z</time>
      </trkpt>
      <trkpt lat="45.82352" lon="1.23942">
        <ele>283</ele>
        <time>2020-09-19T11:54:33.375Z</time>
      </trkpt>
      <trkpt lat="45.82353" lon="1.23946">
        <ele>282</ele>
        <time>2020-09-19T11:54:34.375Z</time>
      </trkpt>
      <trkpt lat="45.82354" lon="1.2395">
        <ele>283</ele>
        <time>2020-09-19T11:54:35.375Z</time>
      </trkpt>
      <trkpt lat="45.82355" lon="1.23955">
        <ele>283</ele>
        <time>2020-09-19T11:54:36.375Z</time>
      </trkpt>
      <trkpt lat="45.82356" lon="1.2396">
        <ele>283</ele>
        <time>2020-09-19T11:54:37.375Z</time>
      </trkpt>
      <trkpt lat="45.82356" lon="1.23965">
        <ele>282</ele>
        <time>2020-09-19T11:54:38.375Z</time>
      </trkpt>
      <trkpt lat="45.82356" lon="1.23969">
        <ele>283</ele>
        <time>2020-09-19T11:54:39.375Z</time>
      </trkpt>
      <trkpt lat="45.82356" lon="1.23974">
        <ele>283</ele>
        <time>2020-09-19T11:54:40.375Z</time>
      </trkpt>
      <trkpt lat="45.82357" lon="1.23979">
        <ele>283</ele>
        <time>2020-09-19T11:54:41.375Z</time>
      </trkpt>
      <trkpt lat="45.82356" lon="1.23984">
        <ele>283</ele>
        <time>2020-09-19T11:54:42.375Z</time>
      </trkpt>
      <trkpt lat="45.82356" lon="1.23988">
        <ele>283</ele>
        <time>2020-09-19T11:54:43.375Z</time>
      </trkpt>
      <trkpt lat="45.82355" lon="1.23993">
        <ele>283</ele>
        <time>2020-09-19T11:54:44.375Z</time>
      </trkpt>
      <trkpt lat="45.82355" lon="1.23997">
        <ele>284</ele>
        <time>2020-09-19T11:54:45.375Z</time>
      </trkpt>
      <trkpt lat="45.82355" lon="1.24002">
        <ele>283</ele>
        <time>2020-09-19T11:54:46.375Z</time>
      </trkpt>
      <trkpt lat="45.82355" lon="1.24006">
        <ele>283</ele>
        <time>2020-09-19T11:54:47.375Z</time>
      </trkpt>
      <trkpt lat="45.82354" lon="1.2401">
        <ele>282</ele>
        <time>2020-09-19T11:54:48.375Z</time>
      </trkpt>
      <trkpt lat="45.82354" lon="1.24014">
        <ele>283</ele>
        <time>2020-09-19T11:54:49.375Z</time>
      </trkpt>
      <trkpt lat="45.82354" lon="1.24017">
        <ele>283</ele>
        <time>2020-09-19T11:54:50.375Z</time>
      </trkpt>
      <trkpt lat="45.82354" lon="1.24021">
        <ele>283</ele>
        <time>2020-09-19T11:54:51.375Z</time>
      </trkpt>
      <trkpt lat="45.82354" lon="1.24025">
        <ele>283</ele>
        <time>2020-09-19T11:54:52.375Z</time>
      </trkpt>
      <trkpt lat="45.82354" lon="1.24029">
        <ele>284</ele>
        <time>2020-09-19T11:54:53.375Z</time>
      </trkpt>
      <trkpt lat="45.82354" lon="1.24034">
        <ele>284</ele>
        <time>2020-09-19T11:54:54.375Z</time>
      </trkpt>
      <trkpt lat="45.82354" lon="1.24039">
        <ele>284</ele>
        <time>2020-09-19T11:54:55.375Z</time>
      </trkpt>
      <trkpt lat="45.82354" lon="1.24044">
        <ele>283</ele>
        <time>2020-09-19T11:54:56.375Z</time>
      </trkpt>
      <trkpt lat="45.82354" lon="1.24048">
        <ele>282</ele>
        <time>2020-09-19T11:54:57.375Z</time>
      </trkpt>
      <trkpt lat="45.82354" lon="1.24053">
        <ele>282</ele>
        <time>2020-09-19T11:54:58.375Z</time>
      </trkpt>
      <trkpt lat="45.82354" lon="1.24057">
        <ele>281</ele>
        <time>2020-09-19T11:54:59.375Z</time>
      </trkpt>
      <trkpt lat="45.82354" lon="1.24062">
        <ele>281</ele>
        <time>2020-09-19T11:55:00.375Z</time>
      </trkpt>
      <trkpt lat="45.82354" lon="1.24067">
        <ele>280</ele>
        <time>2020-09-19T11:55:01.375Z</time>
      </trkpt>
      <trkpt lat="45.82354" lon="1.24071">
        <ele>279</ele>
        <time>2020-09-19T11:55:02.375Z</time>
      </trkpt>
      <trkpt lat="45.82354" lon="1.24075">
        <ele>279</ele>
        <time>2020-09-19T11:55:03.375Z</time>
      </trkpt>
      <trkpt lat="45.82354" lon="1.2408">
        <ele>279</ele>
        <time>2020-09-19T11:55:04.375Z</time>
      </trkpt>
      <trkpt lat="45.82354" lon="1.24085">
        <ele>279</ele>
        <time>2020-09-19T11:55:05.375Z</time>
      </trkpt>
      <trkpt lat="45.82354" lon="1.2409">
        <ele>277</ele>
        <time>2020-09-19T11:55:06.375Z</time>
      </trkpt>
      <trkpt lat="45.82354" lon="1.24095">
        <ele>278</ele>
        <time>2020-09-19T11:55:07.375Z</time>
      </trkpt>
      <trkpt lat="45.82354" lon="1.241">
        <ele>277</ele>
        <time>2020-09-19T11:55:08.375Z</time>
      </trkpt>
      <trkpt lat="45.82354" lon="1.24105">
        <ele>276</ele>
        <time>2020-09-19T11:55:09.375Z</time>
      </trkpt>
      <trkpt lat="45.82355" lon="1.24109">
        <ele>275</ele>
        <time>2020-09-19T11:55:10.375Z</time>
      </trkpt>
      <trkpt lat="45.82355" lon="1.24113">
        <ele>274</ele>
        <time>2020-09-19T11:55:11.375Z</time>
      </trkpt>
      <trkpt lat="45.82355" lon="1.24117">
        <ele>273</ele>
        <time>2020-09-19T11:55:12.375Z</time>
      </trkpt>
      <trkpt lat="45.82355" lon="1.24121">
        <ele>272</ele>
        <time>2020-09-19T11:55:13.375Z</time>
      </trkpt>
      <trkpt lat="45.82355" lon="1.24126">
        <ele>272</ele>
        <time>2020-09-19T11:55:14.375Z</time>
      </trkpt>
      <trkpt lat="45.82355" lon="1.2413">
        <ele>272</ele>
        <time>2020-09-19T11:55:15.375Z</time>
      </trkpt>
      <trkpt lat="45.82356" lon="1.24134">
        <ele>271</ele>
        <time>2020-09-19T11:55:16.375Z</time>
      </trkpt>
      <trkpt lat="45.82357" lon="1.24138">
        <ele>271</ele>
        <time>2020-09-19T11:55:17.375Z</time>
      </trkpt>
      <trkpt lat="45.82357" lon="1.24142">
        <ele>270</ele>
        <time>2020-09-19T11:55:18.375Z</time>
      </trkpt>
      <trkpt lat="45.82357" lon="1.24146">
        <ele>270</ele>
        <time>2020-09-19T11:55:19.375Z</time>
      </trkpt>
      <trkpt lat="45.82357" lon="1.2415">
        <ele>269</ele>
        <time>2020-09-19T11:55:20.375Z</time>
      </trkpt>
      <trkpt lat="45.82358" lon="1.24153">
        <ele>269</ele>
        <time>2020-09-19T11:55:21.375Z</time>
      </trkpt>
      <trkpt lat="45.82358" lon="1.24157">
        <ele>269</ele>
        <time>2020-09-19T11:55:22.375Z</time>
      </trkpt>
      <trkpt lat="45.82358" lon="1.24161">
        <ele>269</ele>
        <time>2020-09-19T11:55:23.375Z</time>
      </trkpt>
      <trkpt lat="45.82359" lon="1.24166">
        <ele>268</ele>
        <time>2020-09-19T11:55:24.375Z</time>
      </trkpt>
      <trkpt lat="45.82359" lon="1.2417">
        <ele>268</ele>
        <time>2020-09-19T11:55:25.375Z</time>
      </trkpt>
      <trkpt lat="45.8236" lon="1.24175">
        <ele>267</ele>
        <time>2020-09-19T11:55:26.375Z</time>
      </trkpt>
      <trkpt lat="45.8236" lon="1.24179">
        <ele>267</ele>
        <time>2020-09-19T11:55:27.375Z</time>
      </trkpt>
      <trkpt lat="45.82361" lon="1.24184">
        <ele>266</ele>
        <time>2020-09-19T11:55:28.375Z</time>
      </trkpt>
      <trkpt lat="45.82361" lon="1.24188">
        <ele>265</ele>
        <time>2020-09-19T11:55:29.375Z</time>
      </trkpt>
      <trkpt lat="45.82361" lon="1.24193">
        <ele>263</ele>
        <time>2020-09-19T11:55:30.375Z</time>
      </trkpt>
      <trkpt lat="45.82362" lon="1.24198">
        <ele>263</ele>
        <time>2020-09-19T11:55:31.375Z</time>
      </trkpt>
      <trkpt lat="45.82362" lon="1.24203">
        <ele>263</ele>
        <time>2020-09-19T11:55:32.375Z</time>
      </trkpt>
      <trkpt lat="45.82362" lon="1.24208">
        <ele>264</ele>
        <time>2020-09-19T11:55:33.375Z</time>
      </trkpt>
      <trkpt lat="45.82362" lon="1.24212">
        <ele>264</ele>
        <time>2020-09-19T11:55:34.375Z</time>
      </trkpt>
      <trkpt lat="45.82361" lon="1.24217">
        <ele>265</ele>
        <time>2020-09-19T11:55:35.375Z</time>
      </trkpt>
      <trkpt lat="45.82361" lon="1.24222">
        <ele>265</ele>
        <time>2020-09-19T11:55:36.375Z</time>
      </trkpt>
      <trkpt lat="45.82362" lon="1.24227">
        <ele>265</ele>
        <time>2020-09-19T11:55:37.375Z</time>
      </trkpt>
      <trkpt lat="45.82362" lon="1.24233">
        <ele>265</ele>
        <time>2020-09-19T11:55:38.375Z</time>
      </trkpt>
      <trkpt lat="45.82362" lon="1.24238">
        <ele>267</ele>
        <time>2020-09-19T11:55:39.375Z</time>
      </trkpt>
      <trkpt lat="45.82362" lon="1.24244">
        <ele>268</ele>
        <time>2020-09-19T11:55:40.375Z</time>
      </trkpt>
      <trkpt lat="45.82362" lon="1.24249">
        <ele>268</ele>
        <time>2020-09-19T11:55:41.375Z</time>
      </trkpt>
      <trkpt lat="45.82361" lon="1.24254">
        <ele>269</ele>
        <time>2020-09-19T11:55:42.375Z</time>
      </trkpt>
      <trkpt lat="45.82361" lon="1.24259">
        <ele>267</ele>
        <time>2020-09-19T11:55:43.375Z</time>
      </trkpt>
      <trkpt lat="45.82361" lon="1.24263">
        <ele>267</ele>
        <time>2020-09-19T11:55:44.375Z</time>
      </trkpt>
      <trkpt lat="45.82361" lon="1.24269">
        <ele>269</ele>
        <time>2020-09-19T11:55:45.375Z</time>
      </trkpt>
      <trkpt lat="45.82361" lon="1.24274">
        <ele>270</ele>
        <time>2020-09-19T11:55:46.375Z</time>
      </trkpt>
      <trkpt lat="45.82362" lon="1.24279">
        <ele>270</ele>
        <time>2020-09-19T11:55:47.375Z</time>
      </trkpt>
      <trkpt lat="45.82362" lon="1.24283">
        <ele>270</ele>
        <time>2020-09-19T11:55:48.375Z</time>
      </trkpt>
      <trkpt lat="45.82363" lon="1.24288">
        <ele>270</ele>
        <time>2020-09-19T11:55:49.375Z</time>
      </trkpt>
      <trkpt lat="45.82363" lon="1.24294">
        <ele>269</ele>
        <time>2020-09-19T11:55:50.375Z</time>
      </trkpt>
      <trkpt lat="45.82362" lon="1.24298">
        <ele>269</ele>
        <time>2020-09-19T11:55:51.375Z</time>
      </trkpt>
      <trkpt lat="45.82362" lon="1.24303">
        <ele>269</ele>
        <time>2020-09-19T11:55:52.375Z</time>
      </trkpt>
      <trkpt lat="45.82363" lon="1.24307">
        <ele>268</ele>
        <time>2020-09-19T11:55:53.375Z</time>
      </trkpt>
      <trkpt lat="45.82363" lon="1.24312">
        <ele>267</ele>
        <time>2020-09-19T11:55:54.375Z</time>
      </trkpt>
      <trkpt lat="45.82363" lon="1.24316">
        <ele>267</ele>
        <time>2020-09-19T11:55:55.375Z</time>
      </trkpt>
      <trkpt lat="45.82364" lon="1.2432">
        <ele>267</ele>
        <time>2020-09-19T11:55:56.375Z</time>
      </trkpt>
      <trkpt lat="45.82364" lon="1.24324">
        <ele>267</ele>
        <time>2020-09-19T11:55:57.375Z</time>
      </trkpt>
      <trkpt lat="45.82364" lon="1.24329">
        <ele>267</ele>
        <time>2020-09-19T11:55:58.375Z</time>
      </trkpt>
      <trkpt lat="45.82365" lon="1.24333">
        <ele>267</ele>
        <time>2020-09-19T11:55:59.375Z</time>
      </trkpt>
      <trkpt lat="45.82365" lon="1.24338">
        <ele>267</ele>
        <time>2020-09-19T11:56:00.375Z</time>
      </trkpt>
      <trkpt lat="45.82365" lon="1.24343">
        <ele>267</ele>
        <time>2020-09-19T11:56:01.375Z</time>
      </trkpt>
      <trkpt lat="45.82366" lon="1.24349">
        <ele>268</ele>
        <time>2020-09-19T11:56:02.375Z</time>
      </trkpt>
      <trkpt lat="45.82366" lon="1.24354">
        <ele>268</ele>
        <time>2020-09-19T11:56:03.375Z</time>
      </trkpt>
      <trkpt lat="45.82367" lon="1.2436">
        <ele>269</ele>
        <time>2020-09-19T11:56:04.375Z</time>
      </trkpt>
      <trkpt lat="45.82368" lon="1.24366">
        <ele>268</ele>
        <time>2020-09-19T11:56:05.375Z</time>
      </trkpt>
      <trkpt lat="45.82369" lon="1.24372">
        <ele>267</ele>
        <time>2020-09-19T11:56:06.375Z</time>
      </trkpt>
      <trkpt lat="45.8237" lon="1.24377">
        <ele>267</ele>
        <time>2020-09-19T11:56:07.375Z</time>
      </trkpt>
      <trkpt lat="45.8237" lon="1.24382">
        <ele>266</ele>
        <time>2020-09-19T11:56:08.375Z</time>
      </trkpt>
      <trkpt lat="45.8237" lon="1.24387">
        <ele>266</ele>
        <time>2020-09-19T11:56:09.375Z</time>
      </trkpt>
      <trkpt lat="45.8237" lon="1.24391">
        <ele>267</ele>
        <time>2020-09-19T11:56:10.375Z</time>
      </trkpt>
      <trkpt lat="45.8237" lon="1.24396">
        <ele>266</ele>
        <time>2020-09-19T11:56:11.375Z</time>
      </trkpt>
      <trkpt lat="45.82371" lon="1.244">
        <ele>265</ele>
        <time>2020-09-19T11:56:12.375Z</time>
      </trkpt>
      <trkpt lat="45.82371" lon="1.24405">
        <ele>266</ele>
        <time>2020-09-19T11:56:13.375Z</time>
      </trkpt>
      <trkpt lat="45.82371" lon="1.24409">
        <ele>265</ele>
        <time>2020-09-19T11:56:14.375Z</time>
      </trkpt>
      <trkpt lat="45.82371" lon="1.24412">
        <ele>265</ele>
        <time>2020-09-19T11:56:15.375Z</time>
      </trkpt>
      <trkpt lat="45.82371" lon="1.24416">
        <ele>264</ele>
        <time>2020-09-19T11:56:16.375Z</time>
      </trkpt>
      <trkpt lat="45.82372" lon="1.2442">
        <ele>263</ele>
        <time>2020-09-19T11:56:17.375Z</time>
      </trkpt>
      <trkpt lat="45.82373" lon="1.24424">
        <ele>262</ele>
        <time>2020-09-19T11:56:18.375Z</time>
      </trkpt>
      <trkpt lat="45.82373" lon="1.24427">
        <ele>260</ele>
        <time>2020-09-19T11:56:19.375Z</time>
      </trkpt>
      <trkpt lat="45.82374" lon="1.24431">
        <ele>259</ele>
        <time>2020-09-19T11:56:20.375Z</time>
      </trkpt>
      <trkpt lat="45.82376" lon="1.24434">
        <ele>259</ele>
        <time>2020-09-19T11:56:21.375Z</time>
      </trkpt>
      <trkpt lat="45.82377" lon="1.24437">
        <ele>257</ele>
        <time>2020-09-19T11:56:22.375Z</time>
      </trkpt>
      <trkpt lat="45.82379" lon="1.24442">
        <ele>253</ele>
        <time>2020-09-19T11:56:23.375Z</time>
      </trkpt>
      <trkpt lat="45.8238" lon="1.24446">
        <ele>251</ele>
        <time>2020-09-19T11:56:24.375Z</time>
      </trkpt>
      <trkpt lat="45.82382" lon="1.24451">
        <ele>251</ele>
        <time>2020-09-19T11:56:25.375Z</time>
      </trkpt>
      <trkpt lat="45.82383" lon="1.24457">
        <ele>251</ele>
        <time>2020-09-19T11:56:26.375Z</time>
      </trkpt>
      <trkpt lat="45.82384" lon="1.24462">
        <ele>250</ele>
        <time>2020-09-19T11:56:27.375Z</time>
      </trkpt>
      <trkpt lat="45.82385" lon="1.24468">
        <ele>250</ele>
        <time>2020-09-19T11:56:28.375Z</time>
      </trkpt>
      <trkpt lat="45.82387" lon="1.24472">
        <ele>249</ele>
        <time>2020-09-19T11:56:29.375Z</time>
      </trkpt>
      <trkpt lat="45.82388" lon="1.24477">
        <ele>248</ele>
        <time>2020-09-19T11:56:30.375Z</time>
      </trkpt>
      <trkpt lat="45.82389" lon="1.24481">
        <ele>247</ele>
        <time>2020-09-19T11:56:31.375Z</time>
      </trkpt>
      <trkpt lat="45.8239" lon="1.24484">
        <ele>246</ele>
        <time>2020-09-19T11:56:32.375Z</time>
      </trkpt>
      <trkpt lat="45.82391" lon="1.24488">
        <ele>245</ele>
        <time>2020-09-19T11:56:33.375Z</time>
      </trkpt>
      <trkpt lat="45.82392" lon="1.24492">
        <ele>245</ele>
        <time>2020-09-19T11:56:34.375Z</time>
      </trkpt>
      <trkpt lat="45.82392" lon="1.24496">
        <ele>244</ele>
        <time>2020-09-19T11:56:35.375Z</time>
      </trkpt>
      <trkpt lat="45.82392" lon="1.24499">
        <ele>244</ele>
        <time>2020-09-19T11:56:36.375Z</time>
      </trkpt>
      <trkpt lat="45.82392" lon="1.24503">
        <ele>244</ele>
        <time>2020-09-19T11:56:37.375Z</time>
      </trkpt>
      <trkpt lat="45.82393" lon="1.24507">
        <ele>245</ele>
        <time>2020-09-19T11:56:38.375Z</time>
      </trkpt>
      <trkpt lat="45.82394" lon="1.24512">
        <ele>247</ele>
        <time>2020-09-19T11:56:39.375Z</time>
      </trkpt>
      <trkpt lat="45.82395" lon="1.24517">
        <ele>250</ele>
        <time>2020-09-19T11:56:40.375Z</time>
      </trkpt>
      <trkpt lat="45.82395" lon="1.24523">
        <ele>254</ele>
        <time>2020-09-19T11:56:41.375Z</time>
      </trkpt>
      <trkpt lat="45.82396" lon="1.24529">
        <ele>255</ele>
        <time>2020-09-19T11:56:42.375Z</time>
      </trkpt>
      <trkpt lat="45.82397" lon="1.24535">
        <ele>255</ele>
        <time>2020-09-19T11:56:43.375Z</time>
      </trkpt>
      <trkpt lat="45.82397" lon="1.24539">
        <ele>257</ele>
        <time>2020-09-19T11:56:44.375Z</time>
      </trkpt>
      <trkpt lat="45.82398" lon="1.24542">
        <ele>257</ele>
        <time>2020-09-19T11:56:45.375Z</time>
      </trkpt>
      <trkpt lat="45.82399" lon="1.24545">
        <ele>257</ele>
        <time>2020-09-19T11:56:46.375Z</time>
      </trkpt>
      <trkpt lat="45.824" lon="1.24547">
        <ele>258</ele>
        <time>2020-09-19T11:56:47.375Z</time>
      </trkpt>
      <trkpt lat="45.82401" lon="1.24551">
        <ele>260</ele>
        <time>2020-09-19T11:56:48.375Z</time>
      </trkpt>
      <trkpt lat="45.82403" lon="1.24556">
        <ele>259</ele>
        <time>2020-09-19T11:56:49.375Z</time>
      </trkpt>
      <trkpt lat="45.82404" lon="1.2456">
        <ele>260</ele>
        <time>2020-09-19T11:56:50.375Z</time>
      </trkpt>
      <trkpt lat="45.82405" lon="1.24565">
        <ele>261</ele>
        <time>2020-09-19T11:56:51.375Z</time>
      </trkpt>
      <trkpt lat="45.82406" lon="1.2457">
        <ele>263</ele>
        <time>2020-09-19T11:56:52.375Z</time>
      </trkpt>
      <trkpt lat="45.82407" lon="1.24576">
        <ele>266</ele>
        <time>2020-09-19T11:56:53.375Z</time>
      </trkpt>
      <trkpt lat="45.82409" lon="1.24581">
        <ele>267</ele>
        <time>2020-09-19T11:56:54.375Z</time>
      </trkpt>
      <trkpt lat="45.82411" lon="1.24586">
        <ele>267</ele>
        <time>2020-09-19T11:56:55.375Z</time>
      </trkpt>
      <trkpt lat="45.82413" lon="1.24592">
        <ele>268</ele>
        <time>2020-09-19T11:56:56.375Z</time>
      </trkpt>
      <trkpt lat="45.82415" lon="1.24598">
        <ele>269</ele>
        <time>2020-09-19T11:56:57.375Z</time>
      </trkpt>
      <trkpt lat="45.82417" lon="1.24603">
        <ele>270</ele>
        <time>2020-09-19T11:56:58.375Z</time>
      </trkpt>
      <trkpt lat="45.82419" lon="1.24608">
        <ele>271</ele>
        <time>2020-09-19T11:56:59.375Z</time>
      </trkpt>
      <trkpt lat="45.82422" lon="1.24612">
        <ele>271</ele>
        <time>2020-09-19T11:57:00.375Z</time>
      </trkpt>
      <trkpt lat="45.82424" lon="1.24617">
        <ele>272</ele>
        <time>2020-09-19T11:57:01.375Z</time>
      </trkpt>
      <trkpt lat="45.82426" lon="1.24622">
        <ele>272</ele>
        <time>2020-09-19T11:57:02.375Z</time>
      </trkpt>
      <trkpt lat="45.82428" lon="1.24626">
        <ele>273</ele>
        <time>2020-09-19T11:57:03.375Z</time>
      </trkpt>
      <trkpt lat="45.8243" lon="1.24631">
        <ele>274</ele>
        <time>2020-09-19T11:57:04.375Z</time>
      </trkpt>
      <trkpt lat="45.82432" lon="1.24636">
        <ele>274</ele>
        <time>2020-09-19T11:57:05.375Z</time>
      </trkpt>
      <trkpt lat="45.82434" lon="1.24642">
        <ele>275</ele>
        <time>2020-09-19T11:57:06.375Z</time>
      </trkpt>
      <trkpt lat="45.82437" lon="1.24647">
        <ele>275</ele>
        <time>2020-09-19T11:57:07.375Z</time>
      </trkpt>
      <trkpt lat="45.82439" lon="1.24651">
        <ele>275</ele>
        <time>2020-09-19T11:57:08.375Z</time>
      </trkpt>
      <trkpt lat="45.8244" lon="1.24656">
        <ele>275</ele>
        <time>2020-09-19T11:57:09.375Z</time>
      </trkpt>
      <trkpt lat="45.82442" lon="1.2466">
        <ele>276</ele>
        <time>2020-09-19T11:57:10.375Z</time>
      </trkpt>
      <trkpt lat="45.82444" lon="1.24665">
        <ele>277</ele>
        <time>2020-09-19T11:57:11.375Z</time>
      </trkpt>
      <trkpt lat="45.82446" lon="1.24669">
        <ele>277</ele>
        <time>2020-09-19T11:57:12.375Z</time>
      </trkpt>
      <trkpt lat="45.82447" lon="1.24673">
        <ele>278</ele>
        <time>2020-09-19T11:57:13.375Z</time>
      </trkpt>
      <trkpt lat="45.82449" lon="1.24678">
        <ele>278</ele>
        <time>2020-09-19T11:57:14.375Z</time>
      </trkpt>
      <trkpt lat="45.8245" lon="1.24682">
        <ele>278</ele>
        <time>2020-09-19T11:57:15.375Z</time>
      </trkpt>
      <trkpt lat="45.82452" lon="1.24686">
        <ele>278</ele>
        <time>2020-09-19T11:57:16.375Z</time>
      </trkpt>
      <trkpt lat="45.82453" lon="1.2469">
        <ele>278</ele>
        <time>2020-09-19T11:57:17.375Z</time>
      </trkpt>
      <trkpt lat="45.82455" lon="1.24695">
        <ele>278</ele>
        <time>2020-09-19T11:57:18.375Z</time>
      </trkpt>
      <trkpt lat="45.82456" lon="1.24699">
        <ele>279</ele>
        <time>2020-09-19T11:57:19.375Z</time>
      </trkpt>
      <trkpt lat="45.82457" lon="1.24703">
        <ele>279</ele>
        <time>2020-09-19T11:57:20.375Z</time>
      </trkpt>
      <trkpt lat="45.82459" lon="1.24708">
        <ele>279</ele>
        <time>2020-09-19T11:57:21.375Z</time>
      </trkpt>
      <trkpt lat="45.8246" lon="1.24711">
        <ele>278</ele>
        <time>2020-09-19T11:57:22.375Z</time>
      </trkpt>
      <trkpt lat="45.82461" lon="1.24715">
        <ele>277</ele>
        <time>2020-09-19T11:57:23.375Z</time>
      </trkpt>
      <trkpt lat="45.82461" lon="1.24718">
        <ele>278</ele>
        <time>2020-09-19T11:57:24.375Z</time>
      </trkpt>
      <trkpt lat="45.82461" lon="1.24722">
        <ele>279</ele>
        <time>2020-09-19T11:57:25.375Z</time>
      </trkpt>
      <trkpt lat="45.82461" lon="1.24725">
        <ele>279</ele>
        <time>2020-09-19T11:57:26.375Z</time>
      </trkpt>
      <trkpt lat="45.82461" lon="1.24729">
        <ele>279</ele>
        <time>2020-09-19T11:57:27.375Z</time>
      </trkpt>
      <trkpt lat="45.82461" lon="1.24733">
        <ele>279</ele>
        <time>2020-09-19T11:57:28.375Z</time>
      </trkpt>
      <trkpt lat="45.82462" lon="1.24737">
        <ele>279</ele>
        <time>2020-09-19T11:57:29.375Z</time>
      </trkpt>
      <trkpt lat="45.82463" lon="1.24741">
        <ele>279</ele>
        <time>2020-09-19T11:57:30.375Z</time>
      </trkpt>
      <trkpt lat="45.82463" lon="1.24746">
        <ele>278</ele>
        <time>2020-09-19T11:57:31.375Z</time>
      </trkpt>
      <trkpt lat="45.82464" lon="1.2475">
        <ele>277</ele>
        <time>2020-09-19T11:57:32.375Z</time>
      </trkpt>
      <trkpt lat="45.82465" lon="1.24754">
        <ele>277</ele>
        <time>2020-09-19T11:57:33.375Z</time>
      </trkpt>
      <trkpt lat="45.82466" lon="1.24758">
        <ele>276</ele>
        <time>2020-09-19T11:57:34.375Z</time>
      </trkpt>
      <trkpt lat="45.82466" lon="1.24762">
        <ele>275</ele>
        <time>2020-09-19T11:57:35.375Z</time>
      </trkpt>
      <trkpt lat="45.82467" lon="1.24765">
        <ele>274</ele>
        <time>2020-09-19T11:57:36.375Z</time>
      </trkpt>
      <trkpt lat="45.82467" lon="1.24769">
        <ele>272</ele>
        <time>2020-09-19T11:57:37.375Z</time>
      </trkpt>
      <trkpt lat="45.82468" lon="1.24773">
        <ele>271</ele>
        <time>2020-09-19T11:57:38.375Z</time>
      </trkpt>
      <trkpt lat="45.82468" lon="1.24777">
        <ele>269</ele>
        <time>2020-09-19T11:57:39.375Z</time>
      </trkpt>
      <trkpt lat="45.82469" lon="1.2478">
        <ele>267</ele>
        <time>2020-09-19T11:57:40.375Z</time>
      </trkpt>
      <trkpt lat="45.8247" lon="1.24784">
        <ele>266</ele>
        <time>2020-09-19T11:57:41.375Z</time>
      </trkpt>
      <trkpt lat="45.82471" lon="1.24788">
        <ele>265</ele>
        <time>2020-09-19T11:57:42.375Z</time>
      </trkpt>
      <trkpt lat="45.82472" lon="1.24792">
        <ele>264</ele>
        <time>2020-09-19T11:57:43.375Z</time>
      </trkpt>
      <trkpt lat="45.82473" lon="1.24796">
        <ele>264</ele>
        <time>2020-09-19T11:57:44.375Z</time>
      </trkpt>
      <trkpt lat="45.82474" lon="1.248">
        <ele>263</ele>
        <time>2020-09-19T11:57:45.375Z</time>
      </trkpt>
      <trkpt lat="45.82474" lon="1.24804">
        <ele>263</ele>
        <time>2020-09-19T11:57:46.375Z</time>
      </trkpt>
      <trkpt lat="45.82475" lon="1.24807">
        <ele>262</ele>
        <time>2020-09-19T11:57:47.375Z</time>
      </trkpt>
      <trkpt lat="45.82475" lon="1.24811">
        <ele>261</ele>
        <time>2020-09-19T11:57:48.375Z</time>
      </trkpt>
      <trkpt lat="45.82477" lon="1.24815">
        <ele>261</ele>
        <time>2020-09-19T11:57:49.375Z</time>
      </trkpt>
      <trkpt lat="45.82478" lon="1.24819">
        <ele>261</ele>
        <time>2020-09-19T11:57:50.375Z</time>
      </trkpt>
      <trkpt lat="45.82481" lon="1.24823">
        <ele>261</ele>
        <time>2020-09-19T11:57:51.375Z</time>
      </trkpt>
      <trkpt lat="45.82483" lon="1.24826">
        <ele>261</ele>
        <time>2020-09-19T11:57:52.375Z</time>
      </trkpt>
      <trkpt lat="45.82486" lon="1.2483">
        <ele>262</ele>
        <time>2020-09-19T11:57:53.375Z</time>
      </trkpt>
      <trkpt lat="45.82488" lon="1.24833">
        <ele>262</ele>
        <time>2020-09-19T11:57:54.375Z</time>
      </trkpt>
      <trkpt lat="45.82491" lon="1.24837">
        <ele>262</ele>
        <time>2020-09-19T11:57:55.375Z</time>
      </trkpt>
      <trkpt lat="45.82493" lon="1.24841">
        <ele>262</ele>
        <time>2020-09-19T11:57:56.375Z</time>
      </trkpt>
      <trkpt lat="45.82495" lon="1.24845">
        <ele>263</ele>
        <time>2020-09-19T11:57:57.375Z</time>
      </trkpt>
      <trkpt lat="45.82498" lon="1.24849">
        <ele>264</ele>
        <time>2020-09-19T11:57:58.375Z</time>
      </trkpt>
      <trkpt lat="45.82501" lon="1.24853">
        <ele>264</ele>
        <time>2020-09-19T11:57:59.375Z</time>
      </trkpt>
      <trkpt lat="45.82504" lon="1.24856">
        <ele>265</ele>
        <time>2020-09-19T11:58:00.375Z</time>
      </trkpt>
      <trkpt lat="45.82506" lon="1.2486">
        <ele>266</ele>
        <time>2020-09-19T11:58:01.375Z</time>
      </trkpt>
      <trkpt lat="45.82509" lon="1.24864">
        <ele>267</ele>
        <time>2020-09-19T11:58:02.375Z</time>
      </trkpt>
      <trkpt lat="45.82511" lon="1.24868">
        <ele>268</ele>
        <time>2020-09-19T11:58:03.375Z</time>
      </trkpt>
      <trkpt lat="45.82512" lon="1.24872">
        <ele>267</ele>
        <time>2020-09-19T11:58:04.375Z</time>
      </trkpt>
      <trkpt lat="45.82514" lon="1.24875">
        <ele>268</ele>
        <time>2020-09-19T11:58:05.375Z</time>
      </trkpt>
      <trkpt lat="45.82516" lon="1.24879">
        <ele>269</ele>
        <time>2020-09-19T11:58:06.375Z</time>
      </trkpt>
      <trkpt lat="45.82518" lon="1.24883">
        <ele>270</ele>
        <time>2020-09-19T11:58:07.375Z</time>
      </trkpt>
      <trkpt lat="45.8252" lon="1.24888">
        <ele>271</ele>
        <time>2020-09-19T11:58:08.375Z</time>
      </trkpt>
      <trkpt lat="45.82522" lon="1.24894">
        <ele>272</ele>
        <time>2020-09-19T11:58:09.375Z</time>
      </trkpt>
      <trkpt lat="45.82523" lon="1.24899">
        <ele>272</ele>
        <time>2020-09-19T11:58:10.375Z</time>
      </trkpt>
      <trkpt lat="45.82525" lon="1.24904">
        <ele>273</ele>
        <time>2020-09-19T11:58:11.375Z</time>
      </trkpt>
      <trkpt lat="45.82526" lon="1.24909">
        <ele>274</ele>
        <time>2020-09-19T11:58:12.375Z</time>
      </trkpt>
      <trkpt lat="45.82528" lon="1.24914">
        <ele>274</ele>
        <time>2020-09-19T11:58:13.375Z</time>
      </trkpt>
      <trkpt lat="45.8253" lon="1.24919">
        <ele>274</ele>
        <time>2020-09-19T11:58:14.375Z</time>
      </trkpt>
      <trkpt lat="45.82531" lon="1.24923">
        <ele>274</ele>
        <time>2020-09-19T11:58:15.375Z</time>
      </trkpt>
      <trkpt lat="45.82533" lon="1.24927">
        <ele>274</ele>
        <time>2020-09-19T11:58:16.375Z</time>
      </trkpt>
      <trkpt lat="45.82534" lon="1.24931">
        <ele>274</ele>
        <time>2020-09-19T11:58:17.375Z</time>
      </trkpt>
      <trkpt lat="45.82536" lon="1.24935">
        <ele>274</ele>
        <time>2020-09-19T11:58:18.375Z</time>
      </trkpt>
      <trkpt lat="45.82538" lon="1.24939">
        <ele>273</ele>
        <time>2020-09-19T11:58:19.375Z</time>
      </trkpt>
      <trkpt lat="45.82539" lon="1.24943">
        <ele>274</ele>
        <time>2020-09-19T11:58:20.375Z</time>
      </trkpt>
      <trkpt lat="45.8254" lon="1.24947">
        <ele>273</ele>
        <time>2020-09-19T11:58:21.375Z</time>
      </trkpt>
      <trkpt lat="45.82542" lon="1.2495">
        <ele>272</ele>
        <time>2020-09-19T11:58:22.375Z</time>
      </trkpt>
      <trkpt lat="45.82543" lon="1.24953">
        <ele>272</ele>
        <time>2020-09-19T11:58:23.375Z</time>
      </trkpt>
      <trkpt lat="45.82545" lon="1.24957">
        <ele>271</ele>
        <time>2020-09-19T11:58:24.375Z</time>
      </trkpt>
      <trkpt lat="45.82547" lon="1.2496">
        <ele>270</ele>
        <time>2020-09-19T11:58:25.375Z</time>
      </trkpt>
      <trkpt lat="45.82549" lon="1.24963">
        <ele>270</ele>
        <time>2020-09-19T11:58:26.375Z</time>
      </trkpt>
      <trkpt lat="45.82551" lon="1.24967">
        <ele>269</ele>
        <time>2020-09-19T11:58:27.375Z</time>
      </trkpt>
      <trkpt lat="45.82552" lon="1.24971">
        <ele>269</ele>
        <time>2020-09-19T11:58:28.375Z</time>
      </trkpt>
      <trkpt lat="45.82553" lon="1.24975">
        <ele>269</ele>
        <time>2020-09-19T11:58:29.375Z</time>
      </trkpt>
      <trkpt lat="45.82554" lon="1.24979">
        <ele>269</ele>
        <time>2020-09-19T11:58:30.375Z</time>
      </trkpt>
      <trkpt lat="45.82555" lon="1.24983">
        <ele>269</ele>
        <time>2020-09-19T11:58:31.375Z</time>
      </trkpt>
      <trkpt lat="45.82556" lon="1.24987">
        <ele>268</ele>
        <time>2020-09-19T11:58:32.375Z</time>
      </trkpt>
      <trkpt lat="45.82557" lon="1.24991">
        <ele>267</ele>
        <time>2020-09-19T11:58:33.375Z</time>
      </trkpt>
      <trkpt lat="45.82559" lon="1.24993">
        <ele>266</ele>
        <time>2020-09-19T11:58:34.375Z</time>
      </trkpt>
      <trkpt lat="45.82561" lon="1.24996">
        <ele>265</ele>
        <time>2020-09-19T11:58:35.375Z</time>
      </trkpt>
      <trkpt lat="45.82563" lon="1.24999">
        <ele>265</ele>
        <time>2020-09-19T11:58:36.375Z</time>
      </trkpt>
      <trkpt lat="45.82565" lon="1.25003">
        <ele>263</ele>
        <time>2020-09-19T11:58:37.375Z</time>
      </trkpt>
      <trkpt lat="45.82567" lon="1.25006">
        <ele>263</ele>
        <time>2020-09-19T11:58:38.375Z</time>
      </trkpt>
      <trkpt lat="45.82568" lon="1.25009">
        <ele>262</ele>
        <time>2020-09-19T11:58:39.375Z</time>
      </trkpt>
      <trkpt lat="45.82569" lon="1.25012">
        <ele>261</ele>
        <time>2020-09-19T11:58:40.375Z</time>
      </trkpt>
      <trkpt lat="45.82571" lon="1.25015">
        <ele>261</ele>
        <time>2020-09-19T11:58:41.375Z</time>
      </trkpt>
      <trkpt lat="45.82572" lon="1.25018">
        <ele>260</ele>
        <time>2020-09-19T11:58:42.375Z</time>
      </trkpt>
      <trkpt lat="45.82574" lon="1.25021">
        <ele>258</ele>
        <time>2020-09-19T11:58:43.375Z</time>
      </trkpt>
      <trkpt lat="45.82575" lon="1.25024">
        <ele>257</ele>
        <time>2020-09-19T11:58:44.375Z</time>
      </trkpt>
      <trkpt lat="45.82577" lon="1.25027">
        <ele>256</ele>
        <time>2020-09-19T11:58:45.375Z</time>
      </trkpt>
      <trkpt lat="45.82578" lon="1.2503">
        <ele>258</ele>
        <time>2020-09-19T11:58:46.375Z</time>
      </trkpt>
      <trkpt lat="45.8258" lon="1.25034">
        <ele>258</ele>
        <time>2020-09-19T11:58:47.375Z</time>
      </trkpt>
      <trkpt lat="45.82581" lon="1.25038">
        <ele>259</ele>
        <time>2020-09-19T11:58:48.375Z</time>
      </trkpt>
      <trkpt lat="45.82582" lon="1.25043">
        <ele>259</ele>
        <time>2020-09-19T11:58:49.375Z</time>
      </trkpt>
      <trkpt lat="45.82583" lon="1.25048">
        <ele>260</ele>
        <time>2020-09-19T11:58:50.375Z</time>
      </trkpt>
      <trkpt lat="45.82584" lon="1.25052">
        <ele>262</ele>
        <time>2020-09-19T11:58:51.375Z</time>
      </trkpt>
      <trkpt lat="45.82586" lon="1.25057">
        <ele>262</ele>
        <time>2020-09-19T11:58:52.375Z</time>
      </trkpt>
      <trkpt lat="45.82587" lon="1.25062">
        <ele>263</ele>
        <time>2020-09-19T11:58:53.375Z</time>
      </trkpt>
      <trkpt lat="45.82589" lon="1.25066">
        <ele>263</ele>
        <time>2020-09-19T11:58:54.375Z</time>
      </trkpt>
      <trkpt lat="45.82591" lon="1.2507">
        <ele>264</ele>
        <time>2020-09-19T11:58:55.375Z</time>
      </trkpt>
      <trkpt lat="45.82593" lon="1.25073">
        <ele>264</ele>
        <time>2020-09-19T11:58:56.375Z</time>
      </trkpt>
      <trkpt lat="45.82595" lon="1.25076">
        <ele>265</ele>
        <time>2020-09-19T11:58:57.375Z</time>
      </trkpt>
      <trkpt lat="45.82598" lon="1.25079">
        <ele>265</ele>
        <time>2020-09-19T11:58:58.375Z</time>
      </trkpt>
      <trkpt lat="45.826" lon="1.25082">
        <ele>266</ele>
        <time>2020-09-19T11:58:59.375Z</time>
      </trkpt>
      <trkpt lat="45.82602" lon="1.25085">
        <ele>266</ele>
        <time>2020-09-19T11:59:00.375Z</time>
      </trkpt>
      <trkpt lat="45.82603" lon="1.25088">
        <ele>266</ele>
        <time>2020-09-19T11:59:01.375Z</time>
      </trkpt>
      <trkpt lat="45.82605" lon="1.25091">
        <ele>267</ele>
        <time>2020-09-19T11:59:02.375Z</time>
      </trkpt>
      <trkpt lat="45.82606" lon="1.25095">
        <ele>267</ele>
        <time>2020-09-19T11:59:03.375Z</time>
      </trkpt>
      <trkpt lat="45.82608" lon="1.25098">
        <ele>267</ele>
        <time>2020-09-19T11:59:04.375Z</time>
      </trkpt>
      <trkpt lat="45.8261" lon="1.25102">
        <ele>267</ele>
        <time>2020-09-19T11:59:05.375Z</time>
      </trkpt>
      <trkpt lat="45.82613" lon="1.25106">
        <ele>267</ele>
        <time>2020-09-19T11:59:06.375Z</time>
      </trkpt>
      <trkpt lat="45.82615" lon="1.25109">
        <ele>267</ele>
        <time>2020-09-19T11:59:07.375Z</time>
      </trkpt>
      <trkpt lat="45.82617" lon="1.25113">
        <ele>268</ele>
        <time>2020-09-19T11:59:08.375Z</time>
      </trkpt>
      <trkpt lat="45.82619" lon="1.25116">
        <ele>267</ele>
        <time>2020-09-19T11:59:09.375Z</time>
      </trkpt>
      <trkpt lat="45.82621" lon="1.25119">
        <ele>266</ele>
        <time>2020-09-19T11:59:10.375Z</time>
      </trkpt>
      <trkpt lat="45.82623" lon="1.25122">
        <ele>266</ele>
        <time>2020-09-19T11:59:11.375Z</time>
      </trkpt>
      <trkpt lat="45.82624" lon="1.25125">
        <ele>265</ele>
        <time>2020-09-19T11:59:12.375Z</time>
      </trkpt>
      <trkpt lat="45.82626" lon="1.25128">
        <ele>265</ele>
        <time>2020-09-19T11:59:13.375Z</time>
      </trkpt>
      <trkpt lat="45.82629" lon="1.25131">
        <ele>266</ele>
        <time>2020-09-19T11:59:14.375Z</time>
      </trkpt>
      <trkpt lat="45.82631" lon="1.25134">
        <ele>266</ele>
        <time>2020-09-19T11:59:15.375Z</time>
      </trkpt>
      <trkpt lat="45.82633" lon="1.25138">
        <ele>266</ele>
        <time>2020-09-19T11:59:16.375Z</time>
      </trkpt>
      <trkpt lat="45.82634" lon="1.25141">
        <ele>266</ele>
        <time>2020-09-19T11:59:17.375Z</time>
      </trkpt>
      <trkpt lat="45.82636" lon="1.25145">
        <ele>266</ele>
        <time>2020-09-19T11:59:18.375Z</time>
      </trkpt>
      <trkpt lat="45.82638" lon="1.25148">
        <ele>266</ele>
        <time>2020-09-19T11:59:19.375Z</time>
      </trkpt>
      <trkpt lat="45.8264" lon="1.25151">
        <ele>266</ele>
        <time>2020-09-19T11:59:20.375Z</time>
      </trkpt>
      <trkpt lat="45.82643" lon="1.25155">
        <ele>268</ele>
        <time>2020-09-19T11:59:21.375Z</time>
      </trkpt>
      <trkpt lat="45.82644" lon="1.2516">
        <ele>271</ele>
        <time>2020-09-19T11:59:22.375Z</time>
      </trkpt>
      <trkpt lat="45.82644" lon="1.25165">
        <ele>272</ele>
        <time>2020-09-19T11:59:23.375Z</time>
      </trkpt>
    </trkseg>
  </trk>
</gpx>